<?xml version='1.0' encoding='UTF-8'?><gpx version="1.1" creator="JPX - https://github.com/jenetics/jpx" xmlns="http://www.topografix.com/GPX/1/1"><trk><trkseg><trkpt lat="43.43008635240941" lon="11.890144638425548"><ele>288.0</ele><time>2026-04-18T12:21:55.978Z</time></trkpt><trkpt lat="43.43015736063991" lon="11.890184390431548"><ele>288.0</ele><time>2026-04-18T12:22:12.001Z</time></trkpt><trkpt lat="43.43024742327607" lon="11.890168584557134"><ele>288.0</ele><time>2026-04-18T12:22:15.001Z</time></trkpt><trkpt lat="43.43031387741745" lon="11.890147264334969"><ele>288.0</ele><time>2026-04-18T12:22:17Z</time></trkpt><trkpt lat="43.43037617728462" lon="11.890129428491859"><ele>288.0</ele><time>2026-04-18T12:22:21Z</time></trkpt><trkpt lat="43.43043406907387" lon="11.890008914812185"><ele>288.0</ele><time>2026-04-18T12:22:23Z</time></trkpt><trkpt lat="43.43046342440479" lon="11.889862538800832"><ele>287.4</ele><time>2026-04-18T12:22:25Z</time></trkpt><trkpt lat="43.43049391567989" lon="11.889779693474164"><ele>286.8</ele><time>2026-04-18T12:22:26Z</time></trkpt><trkpt lat="43.43056039285026" lon="11.88973408557035"><ele>286.2</ele><time>2026-04-18T12:22:27Z</time></trkpt><trkpt lat="43.430610940589254" lon="11.889595011918502"><ele>285.6</ele><time>2026-04-18T12:22:29Z</time></trkpt><trkpt lat="43.43065483613203" lon="11.889482365702353"><ele>285.0</ele><time>2026-04-18T12:22:31Z</time></trkpt><trkpt lat="43.43071055188634" lon="11.889349732149173"><ele>285.0</ele><time>2026-04-18T12:22:33Z</time></trkpt><trkpt lat="43.43074434727913" lon="11.889270556487487"><ele>285.0</ele><time>2026-04-18T12:22:34Z</time></trkpt><trkpt lat="43.430778439179015" lon="11.889188380930603"><ele>285.0</ele><time>2026-04-18T12:22:35Z</time></trkpt><trkpt lat="43.43082648400603" lon="11.889096473159233"><ele>285.0</ele><time>2026-04-18T12:22:37Z</time></trkpt><trkpt lat="43.43095462097964" lon="11.889133310228107"><ele>285.0</ele><time>2026-04-18T12:22:39Z</time></trkpt><trkpt lat="43.431027690515435" lon="11.889171083894725"><ele>285.0</ele><time>2026-04-18T12:22:40Z</time></trkpt><trkpt lat="43.43110753277656" lon="11.889214294577451"><ele>285.0</ele><time>2026-04-18T12:22:41Z</time></trkpt><trkpt lat="43.43119892146296" lon="11.88925281564761"><ele>285.0</ele><time>2026-04-18T12:22:42Z</time></trkpt><trkpt lat="43.431275516397406" lon="11.889301164291396"><ele>285.0</ele><time>2026-04-18T12:22:43Z</time></trkpt><trkpt lat="43.43136135323554" lon="11.889345639674936"><ele>285.0</ele><time>2026-04-18T12:22:44Z</time></trkpt><trkpt lat="43.43145186857649" lon="11.88939557574069"><ele>285.0</ele><time>2026-04-18T12:22:45Z</time></trkpt><trkpt lat="43.4315442325286" lon="11.889444833055872"><ele>284.6</ele><time>2026-04-18T12:22:46Z</time></trkpt><trkpt lat="43.43164159429694" lon="11.889493513144583"><ele>284.2</ele><time>2026-04-18T12:22:47Z</time></trkpt><trkpt lat="43.431740276589096" lon="11.88954943966679"><ele>283.8</ele><time>2026-04-18T12:22:48Z</time></trkpt><trkpt lat="43.43183986494405" lon="11.88960831048025"><ele>283.4</ele><time>2026-04-18T12:22:49Z</time></trkpt><trkpt lat="43.431935617178056" lon="11.889685618461066"><ele>283.0</ele><time>2026-04-18T12:22:50Z</time></trkpt><trkpt lat="43.4320255065001" lon="11.889743675695184"><ele>283.0</ele><time>2026-04-18T12:22:51Z</time></trkpt><trkpt lat="43.432101369383744" lon="11.889812270358622"><ele>283.0</ele><time>2026-04-18T12:22:52Z</time></trkpt><trkpt lat="43.43217116152173" lon="11.889873303079018"><ele>283.0</ele><time>2026-04-18T12:22:53Z</time></trkpt><trkpt lat="43.432235563002386" lon="11.88993467993552"><ele>283.0</ele><time>2026-04-18T12:22:54Z</time></trkpt><trkpt lat="43.43229610496312" lon="11.89000387206872"><ele>283.0</ele><time>2026-04-18T12:22:55Z</time></trkpt><trkpt lat="43.43234946261681" lon="11.890058301403377"><ele>283.0</ele><time>2026-04-18T12:22:56Z</time></trkpt><trkpt lat="43.43240366780218" lon="11.890111316595025"><ele>282.6</ele><time>2026-04-18T12:22:57Z</time></trkpt><trkpt lat="43.432474457109876" lon="11.89017600878111"><ele>282.20000000000005</ele><time>2026-04-18T12:22:58Z</time></trkpt><trkpt lat="43.43256691807071" lon="11.890247978963561"><ele>281.8</ele><time>2026-04-18T12:22:59Z</time></trkpt><trkpt lat="43.432674543899346" lon="11.89032897716454"><ele>281.40000000000003</ele><time>2026-04-18T12:23:00Z</time></trkpt><trkpt lat="43.43278217493091" lon="11.890416018478746"><ele>281.0</ele><time>2026-04-18T12:23:01Z</time></trkpt><trkpt lat="43.432894125184156" lon="11.890516027295664"><ele>280.5</ele><time>2026-04-18T12:23:02Z</time></trkpt><trkpt lat="43.43301136059126" lon="11.890630946536554"><ele>280.0</ele><time>2026-04-18T12:23:03Z</time></trkpt><trkpt lat="43.433127923476995" lon="11.890754769911148"><ele>279.5</ele><time>2026-04-18T12:23:04Z</time></trkpt><trkpt lat="43.433237610983326" lon="11.89087014946193"><ele>279.0</ele><time>2026-04-18T12:23:05Z</time></trkpt><trkpt lat="43.43335018656822" lon="11.890985240338024"><ele>278.5</ele><time>2026-04-18T12:23:06Z</time></trkpt><trkpt lat="43.43346481068185" lon="11.891104192470882"><ele>278.0</ele><time>2026-04-18T12:23:07Z</time></trkpt><trkpt lat="43.43358044971051" lon="11.891224549369705"><ele>277.5</ele><time>2026-04-18T12:23:07.999Z</time></trkpt><trkpt lat="43.43369956310833" lon="11.891340558889768"><ele>277.0</ele><time>2026-04-18T12:23:08.999Z</time></trkpt><trkpt lat="43.433816747268544" lon="11.891450678293921"><ele>277.0</ele><time>2026-04-18T12:23:09.999Z</time></trkpt><trkpt lat="43.43393139194144" lon="11.89155155266872"><ele>277.0</ele><time>2026-04-18T12:23:10.999Z</time></trkpt><trkpt lat="43.434037710961285" lon="11.891644450183309"><ele>277.0</ele><time>2026-04-18T12:23:11.999Z</time></trkpt><trkpt lat="43.434141420408515" lon="11.891733943537144"><ele>277.0</ele><time>2026-04-18T12:23:12.999Z</time></trkpt><trkpt lat="43.4342423917902" lon="11.891823647952029"><ele>277.0</ele><time>2026-04-18T12:23:13.999Z</time></trkpt><trkpt lat="43.434342329105434" lon="11.89190829895028"><ele>277.0</ele><time>2026-04-18T12:23:14.999Z</time></trkpt><trkpt lat="43.434432523388274" lon="11.891987338454246"><ele>277.0</ele><time>2026-04-18T12:23:15.999Z</time></trkpt><trkpt lat="43.43451664611447" lon="11.89205647667565"><ele>277.0</ele><time>2026-04-18T12:23:16.999Z</time></trkpt><trkpt lat="43.434584116604825" lon="11.892118819121553"><ele>277.0</ele><time>2026-04-18T12:23:17.999Z</time></trkpt><trkpt lat="43.43463663239702" lon="11.89217169254923"><ele>277.0</ele><time>2026-04-18T12:23:18.999Z</time></trkpt><trkpt lat="43.43470725162929" lon="11.89226569795828"><ele>277.0</ele><time>2026-04-18T12:23:20.999Z</time></trkpt><trkpt lat="43.43467672505728" lon="11.892407414868979"><ele>277.0</ele><time>2026-04-18T12:23:23.999Z</time></trkpt><trkpt lat="43.434598970172345" lon="11.892465070647955"><ele>277.0</ele><time>2026-04-18T12:23:25.999Z</time></trkpt><trkpt lat="43.4346391295537" lon="11.8925873459639"><ele>277.0</ele><time>2026-04-18T12:23:27.999Z</time></trkpt><trkpt lat="43.434702904096845" lon="11.89262493511322"><ele>276.6</ele><time>2026-04-18T12:23:28.999Z</time></trkpt><trkpt lat="43.43478268527244" lon="11.892643352307692"><ele>276.2</ele><time>2026-04-18T12:23:29.999Z</time></trkpt><trkpt lat="43.43488738598392" lon="11.892661814464738"><ele>275.8</ele><time>2026-04-18T12:23:30.999Z</time></trkpt><trkpt lat="43.43500741313081" lon="11.892694843124334"><ele>275.4</ele><time>2026-04-18T12:23:31.999Z</time></trkpt><trkpt lat="43.43513107735528" lon="11.89273736748855"><ele>275.0</ele><time>2026-04-18T12:23:32.999Z</time></trkpt><trkpt lat="43.435255087477074" lon="11.892785455884844"><ele>275.0</ele><time>2026-04-18T12:23:33.999Z</time></trkpt><trkpt lat="43.43538372780519" lon="11.892834235823647"><ele>275.0</ele><time>2026-04-18T12:23:34.999Z</time></trkpt><trkpt lat="43.435518617908826" lon="11.892885983205502"><ele>275.0</ele><time>2026-04-18T12:23:35.999Z</time></trkpt><trkpt lat="43.43565379870848" lon="11.892932329492726"><ele>275.0</ele><time>2026-04-18T12:23:36.999Z</time></trkpt><trkpt lat="43.43579306666461" lon="11.892984044144743"><ele>275.0</ele><time>2026-04-18T12:23:37.999Z</time></trkpt><trkpt lat="43.43593236843822" lon="11.893037157059009"><ele>275.0</ele><time>2026-04-18T12:23:38.999Z</time></trkpt><trkpt lat="43.436077387952096" lon="11.89309232095985"><ele>275.0</ele><time>2026-04-18T12:23:39.999Z</time></trkpt><trkpt lat="43.436221529584564" lon="11.893147801351791"><ele>275.0</ele><time>2026-04-18T12:23:40.999Z</time></trkpt><trkpt lat="43.43637315312156" lon="11.893205538353238"><ele>275.0</ele><time>2026-04-18T12:23:41.999Z</time></trkpt><trkpt lat="43.43652559999324" lon="11.893244414726311"><ele>275.0</ele><time>2026-04-18T12:23:42.999Z</time></trkpt><trkpt lat="43.43667008366731" lon="11.893289082500745"><ele>275.0</ele><time>2026-04-18T12:23:43.999Z</time></trkpt><trkpt lat="43.436806741845054" lon="11.893283495142622"><ele>275.0</ele><time>2026-04-18T12:23:44.999Z</time></trkpt><trkpt lat="43.43692912906742" lon="11.89330302398165"><ele>275.0</ele><time>2026-04-18T12:23:45.999Z</time></trkpt><trkpt lat="43.43703342136429" lon="11.893316419964464"><ele>275.0</ele><time>2026-04-18T12:23:46.999Z</time></trkpt><trkpt lat="43.437121330267864" lon="11.89333494466429"><ele>275.0</ele><time>2026-04-18T12:23:47.999Z</time></trkpt><trkpt lat="43.437191043661855" lon="11.893359166853546"><ele>275.0</ele><time>2026-04-18T12:23:48.999Z</time></trkpt><trkpt lat="43.43728359342627" lon="11.893402041460435"><ele>275.0</ele><time>2026-04-18T12:23:50.999Z</time></trkpt><trkpt lat="43.43735223251864" lon="11.893432323070726"><ele>275.0</ele><time>2026-04-18T12:23:52.999Z</time></trkpt><trkpt lat="43.43747413657378" lon="11.893489638234895"><ele>275.2</ele><time>2026-04-18T12:23:54.999Z</time></trkpt><trkpt lat="43.437557200064404" lon="11.893529605052706"><ele>275.4</ele><time>2026-04-18T12:23:55.999Z</time></trkpt><trkpt lat="43.437655387644085" lon="11.893577241177745"><ele>275.6</ele><time>2026-04-18T12:23:56.999Z</time></trkpt><trkpt lat="43.4377659423352" lon="11.893625418636944"><ele>275.8</ele><time>2026-04-18T12:23:57.999Z</time></trkpt><trkpt lat="43.437880671625734" lon="11.893661346069734"><ele>276.0</ele><time>2026-04-18T12:23:58.999Z</time></trkpt><trkpt lat="43.43800162736883" lon="11.893675881045473"><ele>276.0</ele><time>2026-04-18T12:23:59.999Z</time></trkpt><trkpt lat="43.43813840016049" lon="11.893673981230926"><ele>276.0</ele><time>2026-04-18T12:24:00.999Z</time></trkpt><trkpt lat="43.43827897474656" lon="11.893687251327789"><ele>276.0</ele><time>2026-04-18T12:24:01.999Z</time></trkpt><trkpt lat="43.438417677699434" lon="11.89366666861629"><ele>276.0</ele><time>2026-04-18T12:24:02.999Z</time></trkpt><trkpt lat="43.43855717625007" lon="11.893640703515914"><ele>276.0</ele><time>2026-04-18T12:24:03.999Z</time></trkpt><trkpt lat="43.438705027824675" lon="11.89362384007815"><ele>276.0</ele><time>2026-04-18T12:24:04.999Z</time></trkpt><trkpt lat="43.43885574597884" lon="11.893618034460774"><ele>276.0</ele><time>2026-04-18T12:24:05.999Z</time></trkpt><trkpt lat="43.4390119403713" lon="11.893626937183075"><ele>276.3333333333333</ele><time>2026-04-18T12:24:07Z</time></trkpt><trkpt lat="43.43917426412005" lon="11.893601149590877"><ele>276.66666666666663</ele><time>2026-04-18T12:24:08Z</time></trkpt><trkpt lat="43.43933341145851" lon="11.89357526224492"><ele>277.0</ele><time>2026-04-18T12:24:09Z</time></trkpt><trkpt lat="43.439493198186206" lon="11.893532509944498"><ele>277.66666666666663</ele><time>2026-04-18T12:24:10Z</time></trkpt><trkpt lat="43.439655843970066" lon="11.893477231592252"><ele>278.3333333333333</ele><time>2026-04-18T12:24:11Z</time></trkpt><trkpt lat="43.43982181822118" lon="11.893424819551168"><ele>279.0</ele><time>2026-04-18T12:24:12Z</time></trkpt><trkpt lat="43.43998651367091" lon="11.893376007461919"><ele>279.5</ele><time>2026-04-18T12:24:13Z</time></trkpt><trkpt lat="43.44014009527278" lon="11.893343847134078"><ele>280.0</ele><time>2026-04-18T12:24:14Z</time></trkpt><trkpt lat="43.44027498063005" lon="11.89332551607766"><ele>280.5</ele><time>2026-04-18T12:24:15Z</time></trkpt><trkpt lat="43.44038499374492" lon="11.893310539421599"><ele>281.0</ele><time>2026-04-18T12:24:16Z</time></trkpt><trkpt lat="43.44047918296558" lon="11.893306437461703"><ele>281.0</ele><time>2026-04-18T12:24:17Z</time></trkpt><trkpt lat="43.4405554080454" lon="11.89330175538006"><ele>281.0</ele><time>2026-04-18T12:24:18Z</time></trkpt><trkpt lat="43.44061853723293" lon="11.89330261586538"><ele>281.0</ele><time>2026-04-18T12:24:19Z</time></trkpt><trkpt lat="43.4407393249907" lon="11.893298873032242"><ele>281.0</ele><time>2026-04-18T12:24:21Z</time></trkpt><trkpt lat="43.44081988576572" lon="11.893293634274453"><ele>281.0</ele><time>2026-04-18T12:24:22Z</time></trkpt><trkpt lat="43.44091901806919" lon="11.893295071310328"><ele>281.0</ele><time>2026-04-18T12:24:23Z</time></trkpt><trkpt lat="43.441038353121584" lon="11.89330413265717"><ele>281.0</ele><time>2026-04-18T12:24:24Z</time></trkpt><trkpt lat="43.441165946947535" lon="11.893316433131048"><ele>281.0</ele><time>2026-04-18T12:24:25Z</time></trkpt><trkpt lat="43.44129721385346" lon="11.89332687692877"><ele>281.0</ele><time>2026-04-18T12:24:26Z</time></trkpt><trkpt lat="43.4414348053067" lon="11.893330638292444"><ele>281.0</ele><time>2026-04-18T12:24:27Z</time></trkpt><trkpt lat="43.44158595815329" lon="11.893317431575017"><ele>283.0</ele><time>2026-04-18T12:24:28Z</time></trkpt><trkpt lat="43.44174307693" lon="11.893287569957218"><ele>285.0</ele><time>2026-04-18T12:24:29Z</time></trkpt><trkpt lat="43.44189552247917" lon="11.893276374514835"><ele>287.0</ele><time>2026-04-18T12:24:30Z</time></trkpt><trkpt lat="43.44204731696896" lon="11.89323959690229"><ele>287.6666666666667</ele><time>2026-04-18T12:24:31Z</time></trkpt><trkpt lat="43.44219905303276" lon="11.893193280290015"><ele>288.3333333333333</ele><time>2026-04-18T12:24:32Z</time></trkpt><trkpt lat="43.442343605114026" lon="11.893131704523892"><ele>289.0</ele><time>2026-04-18T12:24:33Z</time></trkpt><trkpt lat="43.44248301381815" lon="11.893054357183745"><ele>289.0</ele><time>2026-04-18T12:24:34Z</time></trkpt><trkpt lat="43.442620297548295" lon="11.892968880460925"><ele>289.0</ele><time>2026-04-18T12:24:35Z</time></trkpt><trkpt lat="43.44275713684706" lon="11.89287820252762"><ele>289.0</ele><time>2026-04-18T12:24:36Z</time></trkpt><trkpt lat="43.44289320322458" lon="11.892800349732688"><ele>290.0</ele><time>2026-04-18T12:24:37Z</time></trkpt><trkpt lat="43.443037478137185" lon="11.892739044860026"><ele>291.0</ele><time>2026-04-18T12:24:38Z</time></trkpt><trkpt lat="43.44317958968661" lon="11.892692379056214"><ele>292.0</ele><time>2026-04-18T12:24:39Z</time></trkpt><trkpt lat="43.44332464890612" lon="11.892650508896322"><ele>293.0</ele><time>2026-04-18T12:24:40Z</time></trkpt><trkpt lat="43.44345724013982" lon="11.892614015964904"><ele>291.6</ele><time>2026-04-18T12:24:41Z</time></trkpt><trkpt lat="43.443586832147204" lon="11.892576697144762"><ele>290.20000000000005</ele><time>2026-04-18T12:24:42Z</time></trkpt><trkpt lat="43.44369881008913" lon="11.892543617277518"><ele>288.8</ele><time>2026-04-18T12:24:43Z</time></trkpt><trkpt lat="43.44379798452057" lon="11.89251460505629"><ele>287.40000000000003</ele><time>2026-04-18T12:24:44Z</time></trkpt><trkpt lat="43.44388299265664" lon="11.892489737002968"><ele>286.0</ele><time>2026-04-18T12:24:45Z</time></trkpt><trkpt lat="43.44395475595691" lon="11.892468743568424"><ele>285.75</ele><time>2026-04-18T12:24:46Z</time></trkpt><trkpt lat="43.44404903590373" lon="11.892441163244998"><ele>285.5</ele><time>2026-04-18T12:24:48Z</time></trkpt><trkpt lat="43.44403185991121" lon="11.892172304046795"><ele>285.25</ele><time>2026-04-18T12:24:49Z</time></trkpt><trkpt lat="43.44401580169003" lon="11.892057881019168"><ele>285.0</ele><time>2026-04-18T12:24:50Z</time></trkpt><trkpt lat="43.44398238820281" lon="11.8919410926539"><ele>285.0</ele><time>2026-04-18T12:24:51Z</time></trkpt><trkpt lat="43.443927252903435" lon="11.891812624477648"><ele>285.0</ele><time>2026-04-18T12:24:52Z</time></trkpt><trkpt lat="43.443871017857575" lon="11.891674229941046"><ele>285.0</ele><time>2026-04-18T12:24:53Z</time></trkpt><trkpt lat="43.44381383930739" lon="11.89154949261012"><ele>285.0</ele><time>2026-04-18T12:24:54Z</time></trkpt><trkpt lat="43.44375789345337" lon="11.891450705226168"><ele>285.0</ele><time>2026-04-18T12:24:55Z</time></trkpt><trkpt lat="43.443701155417344" lon="11.891382520339382"><ele>285.25</ele><time>2026-04-18T12:24:56Z</time></trkpt><trkpt lat="43.44367049652566" lon="11.891283132780607"><ele>285.5</ele><time>2026-04-18T12:24:58Z</time></trkpt><trkpt lat="43.443560960360536" lon="11.891405371965332"><ele>285.75</ele><time>2026-04-18T12:24:59Z</time></trkpt><trkpt lat="43.44346957637332" lon="11.89144667397326"><ele>286.0</ele><time>2026-04-18T12:25:13.999Z</time></trkpt><trkpt lat="43.44342869903995" lon="11.891658080401497"><ele>286.0</ele><time>2026-04-18T12:25:15.999Z</time></trkpt><trkpt lat="43.44341349217461" lon="11.891798843300052"><ele>286.0</ele><time>2026-04-18T12:25:16.999Z</time></trkpt><trkpt lat="43.44339338385044" lon="11.891965545228471"><ele>286.0</ele><time>2026-04-18T12:25:17.999Z</time></trkpt><trkpt lat="43.44336837864369" lon="11.892164747730515"><ele>286.0</ele><time>2026-04-18T12:25:18.999Z</time></trkpt><trkpt lat="43.4433374154827" lon="11.892365581555197"><ele>288.3333333333333</ele><time>2026-04-18T12:25:19.999Z</time></trkpt><trkpt lat="43.443282662032495" lon="11.892591442214435"><ele>290.6666666666667</ele><time>2026-04-18T12:25:20.999Z</time></trkpt><trkpt lat="43.443283360927445" lon="11.892819513409576"><ele>293.0</ele><time>2026-04-18T12:25:21.999Z</time></trkpt><trkpt lat="43.443240148058656" lon="11.89307889471159"><ele>293.0</ele><time>2026-04-18T12:25:22.999Z</time></trkpt><trkpt lat="43.443194942154655" lon="11.893357493132413"><ele>293.0</ele><time>2026-04-18T12:25:23.999Z</time></trkpt><trkpt lat="43.44314254047249" lon="11.893653635962629"><ele>293.0</ele><time>2026-04-18T12:25:24.999Z</time></trkpt><trkpt lat="43.443086283670254" lon="11.89394678049586"><ele>302.5</ele><time>2026-04-18T12:25:25.999Z</time></trkpt><trkpt lat="43.44303414869211" lon="11.894255478576866"><ele>312.0</ele><time>2026-04-18T12:25:26.999Z</time></trkpt><trkpt lat="43.44298628199897" lon="11.894573115858634"><ele>308.3333333333333</ele><time>2026-04-18T12:25:27.999Z</time></trkpt><trkpt lat="43.44293879746533" lon="11.894871448550548"><ele>304.66666666666663</ele><time>2026-04-18T12:25:28.999Z</time></trkpt><trkpt lat="43.44289357390042" lon="11.895178409182291"><ele>301.0</ele><time>2026-04-18T12:25:29.999Z</time></trkpt><trkpt lat="43.44284617701364" lon="11.895495969533538"><ele>301.0</ele><time>2026-04-18T12:25:30.999Z</time></trkpt><trkpt lat="43.44280385076203" lon="11.895814827395572"><ele>301.0</ele><time>2026-04-18T12:25:31.999Z</time></trkpt><trkpt lat="43.44276690685552" lon="11.89613584235967"><ele>303.5</ele><time>2026-04-18T12:25:32.999Z</time></trkpt><trkpt lat="43.44271723083467" lon="11.896457470051816"><ele>306.0</ele><time>2026-04-18T12:25:33.999Z</time></trkpt><trkpt lat="43.44265254926102" lon="11.896768035097674"><ele>310.5</ele><time>2026-04-18T12:25:34.999Z</time></trkpt><trkpt lat="43.44257101284859" lon="11.897074153583986"><ele>315.0</ele><time>2026-04-18T12:25:35.999Z</time></trkpt><trkpt lat="43.44245031133033" lon="11.897346628750189"><ele>318.5</ele><time>2026-04-18T12:25:36.998Z</time></trkpt><trkpt lat="43.44232627364177" lon="11.897616172095638"><ele>322.0</ele><time>2026-04-18T12:25:37.998Z</time></trkpt><trkpt lat="43.44218174866127" lon="11.897875652007965"><ele>316.0</ele><time>2026-04-18T12:25:38.998Z</time></trkpt><trkpt lat="43.44202289753445" lon="11.898112114001188"><ele>310.0</ele><time>2026-04-18T12:25:39.998Z</time></trkpt><trkpt lat="43.44185002908695" lon="11.898332931960544"><ele>317.5</ele><time>2026-04-18T12:25:40.998Z</time></trkpt><trkpt lat="43.44166245489548" lon="11.898526998868656"><ele>325.0</ele><time>2026-04-18T12:25:41.998Z</time></trkpt><trkpt lat="43.44146545586213" lon="11.898699177302385"><ele>325.0</ele><time>2026-04-18T12:25:42.998Z</time></trkpt><trkpt lat="43.441254993266355" lon="11.898849139017372"><ele>325.0</ele><time>2026-04-18T12:25:43.998Z</time></trkpt><trkpt lat="43.4410444179052" lon="11.898979348896543"><ele>325.0</ele><time>2026-04-18T12:25:44.998Z</time></trkpt><trkpt lat="43.44082294998557" lon="11.899073625972436"><ele>325.0</ele><time>2026-04-18T12:25:45.998Z</time></trkpt><trkpt lat="43.440595716493696" lon="11.899143748108138"><ele>326.5</ele><time>2026-04-18T12:25:46.998Z</time></trkpt><trkpt lat="43.44036448970101" lon="11.899185784644436"><ele>328.0</ele><time>2026-04-18T12:25:47.998Z</time></trkpt><trkpt lat="43.44013301224706" lon="11.899201036838802"><ele>328.0</ele><time>2026-04-18T12:25:48.998Z</time></trkpt><trkpt lat="43.43989929647976" lon="11.899199656098743"><ele>328.0</ele><time>2026-04-18T12:25:49.998Z</time></trkpt><trkpt lat="43.43966397793192" lon="11.89920192829266"><ele>323.0</ele><time>2026-04-18T12:25:50.998Z</time></trkpt><trkpt lat="43.43942829564818" lon="11.899211988909387"><ele>318.0</ele><time>2026-04-18T12:25:51.998Z</time></trkpt><trkpt lat="43.43919333420467" lon="11.899227319822089"><ele>324.0</ele><time>2026-04-18T12:25:52.998Z</time></trkpt><trkpt lat="43.43896168259458" lon="11.89926310641755"><ele>330.0</ele><time>2026-04-18T12:25:53.998Z</time></trkpt><trkpt lat="43.43873486031196" lon="11.899328758076715"><ele>330.0</ele><time>2026-04-18T12:25:54.998Z</time></trkpt><trkpt lat="43.43851515221817" lon="11.899421957919886"><ele>330.0</ele><time>2026-04-18T12:25:55.998Z</time></trkpt><trkpt lat="43.438305521776854" lon="11.899539477416205"><ele>330.0</ele><time>2026-04-18T12:25:56.998Z</time></trkpt><trkpt lat="43.438106127408076" lon="11.899688063769082"><ele>330.0</ele><time>2026-04-18T12:25:57.998Z</time></trkpt><trkpt lat="43.43791674113894" lon="11.899853580162288"><ele>328.3333333333333</ele><time>2026-04-18T12:25:58.998Z</time></trkpt><trkpt lat="43.43773652119996" lon="11.90003852711067"><ele>326.66666666666663</ele><time>2026-04-18T12:25:59.998Z</time></trkpt><trkpt lat="43.4375687532025" lon="11.900243302991147"><ele>325.0</ele><time>2026-04-18T12:26:00.998Z</time></trkpt><trkpt lat="43.43741419747181" lon="11.900468741640525"><ele>327.3333333333333</ele><time>2026-04-18T12:26:01.998Z</time></trkpt><trkpt lat="43.43727593663918" lon="11.90071105108761"><ele>329.6666666666667</ele><time>2026-04-18T12:26:02.998Z</time></trkpt><trkpt lat="43.437150325528485" lon="11.900963865634786"><ele>332.0</ele><time>2026-04-18T12:26:03.998Z</time></trkpt><trkpt lat="43.43704284369475" lon="11.901232592329743"><ele>332.0</ele><time>2026-04-18T12:26:04.998Z</time></trkpt><trkpt lat="43.436947868591545" lon="11.901508161092373"><ele>332.0</ele><time>2026-04-18T12:26:05.998Z</time></trkpt><trkpt lat="43.43687228186321" lon="11.901796922481148"><ele>332.0</ele><time>2026-04-18T12:26:06.998Z</time></trkpt><trkpt lat="43.43681393180001" lon="11.902093872462078"><ele>334.6666666666667</ele><time>2026-04-18T12:26:07.998Z</time></trkpt><trkpt lat="43.4367739746936" lon="11.902395354681861"><ele>337.3333333333333</ele><time>2026-04-18T12:26:08.998Z</time></trkpt><trkpt lat="43.43675277138682" lon="11.902699425932967"><ele>340.0</ele><time>2026-04-18T12:26:09.998Z</time></trkpt><trkpt lat="43.43674494049507" lon="11.90300079538185"><ele>340.3333333333333</ele><time>2026-04-18T12:26:10.998Z</time></trkpt><trkpt lat="43.43675375747237" lon="11.903303153440111"><ele>340.6666666666667</ele><time>2026-04-18T12:26:11.998Z</time></trkpt><trkpt lat="43.436774045556724" lon="11.90360790429004"><ele>341.0</ele><time>2026-04-18T12:26:12.998Z</time></trkpt><trkpt lat="43.43676896212342" lon="11.903903037455"><ele>340.0</ele><time>2026-04-18T12:26:13.998Z</time></trkpt><trkpt lat="43.43677451581906" lon="11.904209794432223"><ele>339.0</ele><time>2026-04-18T12:26:14.999Z</time></trkpt><trkpt lat="43.43676748085471" lon="11.904529826175036"><ele>343.3333333333333</ele><time>2026-04-18T12:26:15.999Z</time></trkpt><trkpt lat="43.43675019679524" lon="11.90484092350374"><ele>347.66666666666663</ele><time>2026-04-18T12:26:16.999Z</time></trkpt><trkpt lat="43.43669385175342" lon="11.905118806837276"><ele>352.0</ele><time>2026-04-18T12:26:17.999Z</time></trkpt><trkpt lat="43.43663318563088" lon="11.905407305157496"><ele>356.3333333333333</ele><time>2026-04-18T12:26:18.999Z</time></trkpt><trkpt lat="43.436565000380206" lon="11.905693239943556"><ele>360.6666666666667</ele><time>2026-04-18T12:26:19.999Z</time></trkpt><trkpt lat="43.436500073448684" lon="11.905972958345767"><ele>365.0</ele><time>2026-04-18T12:26:20.999Z</time></trkpt><trkpt lat="43.43643316257474" lon="11.90625066272679"><ele>367.33333333333337</ele><time>2026-04-18T12:26:21.999Z</time></trkpt><trkpt lat="43.43636658476886" lon="11.906525809106173"><ele>369.6666666666667</ele><time>2026-04-18T12:26:22.999Z</time></trkpt><trkpt lat="43.43630013444632" lon="11.90679905794028"><ele>372.0</ele><time>2026-04-18T12:26:23.999Z</time></trkpt><trkpt lat="43.43623482358221" lon="11.907069949806928"><ele>371.3333333333333</ele><time>2026-04-18T12:26:24.999Z</time></trkpt><trkpt lat="43.436167248116504" lon="11.9073371245392"><ele>370.66666666666663</ele><time>2026-04-18T12:26:25.999Z</time></trkpt><trkpt lat="43.43609660736389" lon="11.907600208326842"><ele>370.0</ele><time>2026-04-18T12:26:26.999Z</time></trkpt><trkpt lat="43.436015614670325" lon="11.907853719226697"><ele>370.0</ele><time>2026-04-18T12:26:27.999Z</time></trkpt><trkpt lat="43.43592278156757" lon="11.908095818377042"><ele>370.0</ele><time>2026-04-18T12:26:28.999Z</time></trkpt><trkpt lat="43.43582110151855" lon="11.908325167547117"><ele>370.0</ele><time>2026-04-18T12:26:29.999Z</time></trkpt><trkpt lat="43.43570711889811" lon="11.90854013595331"><ele>367.0</ele><time>2026-04-18T12:26:30.999Z</time></trkpt><trkpt lat="43.435585075262594" lon="11.90873632082808"><ele>364.0</ele><time>2026-04-18T12:26:31.999Z</time></trkpt><trkpt lat="43.43544925477841" lon="11.90892091708323"><ele>361.0</ele><time>2026-04-18T12:26:32.999Z</time></trkpt><trkpt lat="43.435305241590136" lon="11.909095273194497"><ele>363.0</ele><time>2026-04-18T12:26:33.999Z</time></trkpt><trkpt lat="43.435157551966554" lon="11.909254927889192"><ele>365.0</ele><time>2026-04-18T12:26:34.999Z</time></trkpt><trkpt lat="43.43500866402891" lon="11.909391262113099"><ele>367.0</ele><time>2026-04-18T12:26:35.999Z</time></trkpt><trkpt lat="43.434860699486336" lon="11.909512337840445"><ele>367.0</ele><time>2026-04-18T12:26:36.999Z</time></trkpt><trkpt lat="43.434708145328884" lon="11.909638404414288"><ele>367.0</ele><time>2026-04-18T12:26:37.999Z</time></trkpt><trkpt lat="43.43455639119267" lon="11.909777768733347"><ele>367.0</ele><time>2026-04-18T12:26:38.999Z</time></trkpt><trkpt lat="43.43441421840375" lon="11.909884905253634"><ele>372.0</ele><time>2026-04-18T12:26:39.999Z</time></trkpt><trkpt lat="43.43428406324926" lon="11.90999357307187"><ele>377.0</ele><time>2026-04-18T12:26:40.999Z</time></trkpt><trkpt lat="43.43400639279519" lon="11.910249548137418"><ele>383.5</ele><time>2026-04-18T12:26:41.999Z</time></trkpt><trkpt lat="43.433798246316684" lon="11.910401771227505"><ele>390.0</ele><time>2026-04-18T12:26:42.999Z</time></trkpt><trkpt lat="43.43359883746667" lon="11.910553091030192"><ele>390.0</ele><time>2026-04-18T12:26:43.999Z</time></trkpt><trkpt lat="43.43341150578017" lon="11.91071375834358"><ele>390.0</ele><time>2026-04-18T12:26:44.999Z</time></trkpt><trkpt lat="43.433230618395484" lon="11.91088534447469"><ele>390.0</ele><time>2026-04-18T12:26:45.999Z</time></trkpt><trkpt lat="43.43305749651685" lon="11.911058376606302"><ele>392.0</ele><time>2026-04-18T12:26:46.999Z</time></trkpt><trkpt lat="43.432895099382904" lon="11.911247679974894"><ele>394.0</ele><time>2026-04-18T12:26:47.999Z</time></trkpt><trkpt lat="43.432741072867906" lon="11.91143853963772"><ele>396.0</ele><time>2026-04-18T12:26:48.999Z</time></trkpt><trkpt lat="43.432593774723294" lon="11.911634518104517"><ele>396.0</ele><time>2026-04-18T12:26:49.999Z</time></trkpt><trkpt lat="43.4324595076624" lon="11.911838533294558"><ele>396.0</ele><time>2026-04-18T12:26:50.999Z</time></trkpt><trkpt lat="43.43233123925066" lon="11.91204558247551"><ele>396.0</ele><time>2026-04-18T12:26:51.999Z</time></trkpt><trkpt lat="43.43220816869896" lon="11.912251086542936"><ele>399.66666666666663</ele><time>2026-04-18T12:26:52.999Z</time></trkpt><trkpt lat="43.432090523419134" lon="11.912461926500637"><ele>403.3333333333333</ele><time>2026-04-18T12:26:53.999Z</time></trkpt><trkpt lat="43.43197832075417" lon="11.91268624027094"><ele>407.0</ele><time>2026-04-18T12:26:54.999Z</time></trkpt><trkpt lat="43.43186815922394" lon="11.91292482662174"><ele>407.0</ele><time>2026-04-18T12:26:55.999Z</time></trkpt><trkpt lat="43.43177278971198" lon="11.913143300834612"><ele>407.0</ele><time>2026-04-18T12:26:56.999Z</time></trkpt><trkpt lat="43.43169559216116" lon="11.91338715088256"><ele>407.0</ele><time>2026-04-18T12:26:57.999Z</time></trkpt><trkpt lat="43.43161334021787" lon="11.913628695951962"><ele>407.3333333333333</ele><time>2026-04-18T12:26:58.999Z</time></trkpt><trkpt lat="43.43149173467718" lon="11.91398580672793"><ele>407.66666666666663</ele><time>2026-04-18T12:26:59.999Z</time></trkpt><trkpt lat="43.431424124790716" lon="11.914184352005838"><ele>408.0</ele><time>2026-04-18T12:27:00.999Z</time></trkpt><trkpt lat="43.431400649650136" lon="11.914442347448784"><ele>405.66666666666663</ele><time>2026-04-18T12:27:01.999Z</time></trkpt><trkpt lat="43.43134626303119" lon="11.914721620032376"><ele>403.3333333333333</ele><time>2026-04-18T12:27:02.999Z</time></trkpt><trkpt lat="43.43126994378325" lon="11.914995576920887"><ele>401.0</ele><time>2026-04-18T12:27:03.999Z</time></trkpt><trkpt lat="43.43118933567186" lon="11.915272081724467"><ele>401.66666666666663</ele><time>2026-04-18T12:27:04.999Z</time></trkpt><trkpt lat="43.4311040413081" lon="11.915555262841915"><ele>402.33333333333337</ele><time>2026-04-18T12:27:05.999Z</time></trkpt><trkpt lat="43.43100563531355" lon="11.915836072801264"><ele>403.0</ele><time>2026-04-18T12:27:06.999Z</time></trkpt><trkpt lat="43.430893369138204" lon="11.916115507918958"><ele>403.0</ele><time>2026-04-18T12:27:07.999Z</time></trkpt><trkpt lat="43.430769893371874" lon="11.91639420782946"><ele>403.0</ele><time>2026-04-18T12:27:08.999Z</time></trkpt><trkpt lat="43.43062639815307" lon="11.916662691552592"><ele>407.0</ele><time>2026-04-18T12:27:09.999Z</time></trkpt><trkpt lat="43.43046246881933" lon="11.91691939348198"><ele>411.0</ele><time>2026-04-18T12:27:10.999Z</time></trkpt><trkpt lat="43.430281283192656" lon="11.917157639394173"><ele>411.0</ele><time>2026-04-18T12:27:11.999Z</time></trkpt><trkpt lat="43.43008544982695" lon="11.917376686383925"><ele>411.0</ele><time>2026-04-18T12:27:12.999Z</time></trkpt><trkpt lat="43.42987872944438" lon="11.917581520228186"><ele>409.5</ele><time>2026-04-18T12:27:13.999Z</time></trkpt><trkpt lat="43.42966202177972" lon="11.917769415216972"><ele>408.0</ele><time>2026-04-18T12:27:14.999Z</time></trkpt><trkpt lat="43.42943416129163" lon="11.917935718636857"><ele>408.0</ele><time>2026-04-18T12:27:15.999Z</time></trkpt><trkpt lat="43.429196637633744" lon="11.918079426486608"><ele>408.0</ele><time>2026-04-18T12:27:16.999Z</time></trkpt><trkpt lat="43.42895072985307" lon="11.918198122814665"><ele>412.0</ele><time>2026-04-18T12:27:17.999Z</time></trkpt><trkpt lat="43.42870195929527" lon="11.918303478616748"><ele>416.0</ele><time>2026-04-18T12:27:18.999Z</time></trkpt><trkpt lat="43.428448706624714" lon="11.918387263651876"><ele>410.5</ele><time>2026-04-18T12:27:19.999Z</time></trkpt><trkpt lat="43.428193480502635" lon="11.918469020861986"><ele>405.0</ele><time>2026-04-18T12:27:20.999Z</time></trkpt><trkpt lat="43.427937806977305" lon="11.91855287702056"><ele>405.0</ele><time>2026-04-18T12:27:21.999Z</time></trkpt><trkpt lat="43.427682537628975" lon="11.918643960590995"><ele>405.0</ele><time>2026-04-18T12:27:22.999Z</time></trkpt><trkpt lat="43.4274301700872" lon="11.918730554486924"><ele>405.0</ele><time>2026-04-18T12:27:23.999Z</time></trkpt><trkpt lat="43.42717953392426" lon="11.918814350719725"><ele>405.0</ele><time>2026-04-18T12:27:24.999Z</time></trkpt><trkpt lat="43.42693104368274" lon="11.918893496897384"><ele>412.5</ele><time>2026-04-18T12:27:25.999Z</time></trkpt><trkpt lat="43.42668211130799" lon="11.918978068533493"><ele>420.0</ele><time>2026-04-18T12:27:26.999Z</time></trkpt><trkpt lat="43.42643907831394" lon="11.91907094290568"><ele>423.0</ele><time>2026-04-18T12:27:27.999Z</time></trkpt><trkpt lat="43.42619824784697" lon="11.919179105251379"><ele>426.0</ele><time>2026-04-18T12:27:28.999Z</time></trkpt><trkpt lat="43.42596204214795" lon="11.919302621142135"><ele>426.0</ele><time>2026-04-18T12:27:29.999Z</time></trkpt><trkpt lat="43.425732683391146" lon="11.919443798021751"><ele>426.0</ele><time>2026-04-18T12:27:30.999Z</time></trkpt><trkpt lat="43.42550366647355" lon="11.919596436425607"><ele>431.5</ele><time>2026-04-18T12:27:31.999Z</time></trkpt><trkpt lat="43.42527603333876" lon="11.919753107483873"><ele>437.0</ele><time>2026-04-18T12:27:32.999Z</time></trkpt><trkpt lat="43.425050010030944" lon="11.919916955503874"><ele>434.0</ele><time>2026-04-18T12:27:33.999Z</time></trkpt><trkpt lat="43.4248202890935" lon="11.92008202462172"><ele>431.0</ele><time>2026-04-18T12:27:34.999Z</time></trkpt><trkpt lat="43.42458816221979" lon="11.92025002529925"><ele>431.0</ele><time>2026-04-18T12:27:35.999Z</time></trkpt><trkpt lat="43.42435460788908" lon="11.920414799524675"><ele>431.0</ele><time>2026-04-18T12:27:36.999Z</time></trkpt><trkpt lat="43.42411687711868" lon="11.920578340689218"><ele>431.0</ele><time>2026-04-18T12:27:37.999Z</time></trkpt><trkpt lat="43.42388026757244" lon="11.92074605143175"><ele>431.0</ele><time>2026-04-18T12:27:38.999Z</time></trkpt><trkpt lat="43.42364504933564" lon="11.92091715529629"><ele>435.0</ele><time>2026-04-18T12:27:39.999Z</time></trkpt><trkpt lat="43.42341197492611" lon="11.921089126293104"><ele>439.0</ele><time>2026-04-18T12:27:40.999Z</time></trkpt><trkpt lat="43.423180347011325" lon="11.92125900719131"><ele>445.0</ele><time>2026-04-18T12:27:41.999Z</time></trkpt><trkpt lat="43.422949236634054" lon="11.921424243093535"><ele>451.0</ele><time>2026-04-18T12:27:42.999Z</time></trkpt><trkpt lat="43.422719455825906" lon="11.921583476365011"><ele>445.0</ele><time>2026-04-18T12:27:43.999Z</time></trkpt><trkpt lat="43.42249065468381" lon="11.921742376390833"><ele>439.0</ele><time>2026-04-18T12:27:44.999Z</time></trkpt><trkpt lat="43.42226504265701" lon="11.921903856530484"><ele>449.0</ele><time>2026-04-18T12:27:45.999Z</time></trkpt><trkpt lat="43.422043088010675" lon="11.922070432867988"><ele>459.0</ele><time>2026-04-18T12:27:46.999Z</time></trkpt><trkpt lat="43.421824400623265" lon="11.922242593628738"><ele>459.0</ele><time>2026-04-18T12:27:47.999Z</time></trkpt><trkpt lat="43.42161240268094" lon="11.922420846032972"><ele>459.0</ele><time>2026-04-18T12:27:48.999Z</time></trkpt><trkpt lat="43.42140438067346" lon="11.922607195781545"><ele>453.5</ele><time>2026-04-18T12:27:49.999Z</time></trkpt><trkpt lat="43.42120361154132" lon="11.92280042026495"><ele>448.0</ele><time>2026-04-18T12:27:50.999Z</time></trkpt><trkpt lat="43.42101412632181" lon="11.922987515620575"><ele>448.0</ele><time>2026-04-18T12:27:51.999Z</time></trkpt><trkpt lat="43.420829490873544" lon="11.923162952920489"><ele>448.0</ele><time>2026-04-18T12:27:52.999Z</time></trkpt><trkpt lat="43.42065204323179" lon="11.92333624313953"><ele>448.0</ele><time>2026-04-18T12:27:53.999Z</time></trkpt><trkpt lat="43.42047532209553" lon="11.923513094760056"><ele>450.33333333333337</ele><time>2026-04-18T12:27:54.999Z</time></trkpt><trkpt lat="43.420297347278066" lon="11.923692553096112"><ele>452.66666666666663</ele><time>2026-04-18T12:27:55.999Z</time></trkpt><trkpt lat="43.42012063705987" lon="11.923870502177504"><ele>455.0</ele><time>2026-04-18T12:27:56.999Z</time></trkpt><trkpt lat="43.419944230357764" lon="11.924047492925862"><ele>456.3333333333333</ele><time>2026-04-18T12:27:57.999Z</time></trkpt><trkpt lat="43.41976679167121" lon="11.92423141505092"><ele>457.66666666666663</ele><time>2026-04-18T12:27:58.999Z</time></trkpt><trkpt lat="43.41958734607566" lon="11.924422070324095"><ele>459.0</ele><time>2026-04-18T12:27:59.999Z</time></trkpt><trkpt lat="43.41939371397741" lon="11.92459427395725"><ele>469.0</ele><time>2026-04-18T12:28:00.999Z</time></trkpt><trkpt lat="43.41921336124845" lon="11.924793756115912"><ele>479.0</ele><time>2026-04-18T12:28:01.999Z</time></trkpt><trkpt lat="43.419024789097435" lon="11.924974045505849"><ele>477.0</ele><time>2026-04-18T12:28:02.999Z</time></trkpt><trkpt lat="43.41883546649531" lon="11.925157844118573"><ele>475.0</ele><time>2026-04-18T12:28:03.999Z</time></trkpt><trkpt lat="43.41864544461137" lon="11.925345758081559"><ele>475.0</ele><time>2026-04-18T12:28:04.999Z</time></trkpt><trkpt lat="43.41845585374522" lon="11.925534869312107"><ele>475.0</ele><time>2026-04-18T12:28:05.999Z</time></trkpt><trkpt lat="43.418268091264416" lon="11.92573325802029"><ele>470.5</ele><time>2026-04-18T12:28:06.999Z</time></trkpt><trkpt lat="43.418084276039004" lon="11.92593796444425"><ele>466.0</ele><time>2026-04-18T12:28:07.999Z</time></trkpt><trkpt lat="43.41791643707196" lon="11.926173572353747"><ele>478.0</ele><time>2026-04-18T12:28:08.999Z</time></trkpt><trkpt lat="43.41776310317737" lon="11.926428362785042"><ele>490.0</ele><time>2026-04-18T12:28:09.999Z</time></trkpt><trkpt lat="43.417623558159995" lon="11.926698247523156"><ele>485.0</ele><time>2026-04-18T12:28:10.999Z</time></trkpt><trkpt lat="43.41749534924005" lon="11.92697719613273"><ele>480.0</ele><time>2026-04-18T12:28:11.999Z</time></trkpt><trkpt lat="43.41738266959694" lon="11.927268320822517"><ele>478.0</ele><time>2026-04-18T12:28:12.999Z</time></trkpt><trkpt lat="43.41728219381145" lon="11.927567485394547"><ele>476.0</ele><time>2026-04-18T12:28:13.999Z</time></trkpt><trkpt lat="43.41719872311607" lon="11.927877156674068"><ele>487.5</ele><time>2026-04-18T12:28:14.999Z</time></trkpt><trkpt lat="43.417127561417644" lon="11.928192035111543"><ele>499.0</ele><time>2026-04-18T12:28:15.999Z</time></trkpt><trkpt lat="43.417065521207945" lon="11.92851159542151"><ele>501.5</ele><time>2026-04-18T12:28:16.999Z</time></trkpt><trkpt lat="43.417013029105604" lon="11.928833686436418"><ele>504.0</ele><time>2026-04-18T12:28:17.999Z</time></trkpt><trkpt lat="43.416959579783736" lon="11.92915319302033"><ele>505.5</ele><time>2026-04-18T12:28:18.999Z</time></trkpt><trkpt lat="43.41690391655849" lon="11.929468900213827"><ele>507.0</ele><time>2026-04-18T12:28:19.999Z</time></trkpt><trkpt lat="43.41684538779456" lon="11.929781496301258"><ele>505.0</ele><time>2026-04-18T12:28:20.999Z</time></trkpt><trkpt lat="43.41678937959383" lon="11.93009577462922"><ele>503.0</ele><time>2026-04-18T12:28:21.999Z</time></trkpt><trkpt lat="43.4167301551743" lon="11.930401169532384"><ele>503.0</ele><time>2026-04-18T12:28:22.999Z</time></trkpt><trkpt lat="43.416648846470096" lon="11.930679768771927"><ele>503.0</ele><time>2026-04-18T12:28:23.999Z</time></trkpt><trkpt lat="43.41656852455999" lon="11.930960492033137"><ele>503.0</ele><time>2026-04-18T12:28:24.999Z</time></trkpt><trkpt lat="43.41655433416487" lon="11.931343689741267"><ele>505.5</ele><time>2026-04-18T12:28:25.999Z</time></trkpt><trkpt lat="43.41650129152673" lon="11.93166026182542"><ele>508.0</ele><time>2026-04-18T12:28:26.999Z</time></trkpt><trkpt lat="43.41645688817853" lon="11.931981079189338"><ele>509.0</ele><time>2026-04-18T12:28:27.999Z</time></trkpt><trkpt lat="43.416436780170436" lon="11.932308647734958"><ele>510.0</ele><time>2026-04-18T12:28:28.999Z</time></trkpt><trkpt lat="43.41644242617457" lon="11.93263264646425"><ele>510.0</ele><time>2026-04-18T12:28:29.999Z</time></trkpt><trkpt lat="43.41646609808056" lon="11.9329568720517"><ele>510.0</ele><time>2026-04-18T12:28:30.999Z</time></trkpt><trkpt lat="43.416506858258906" lon="11.93327197168117"><ele>505.0</ele><time>2026-04-18T12:28:31.999Z</time></trkpt><trkpt lat="43.41657300387609" lon="11.933581543647794"><ele>500.0</ele><time>2026-04-18T12:28:32.999Z</time></trkpt><trkpt lat="43.41671210856727" lon="11.933866206140435"><ele>500.0</ele><time>2026-04-18T12:28:33.999Z</time></trkpt><trkpt lat="43.41681987799055" lon="11.934153281552792"><ele>500.0</ele><time>2026-04-18T12:28:34.999Z</time></trkpt><trkpt lat="43.41692398554966" lon="11.934437420099803"><ele>502.5</ele><time>2026-04-18T12:28:35.999Z</time></trkpt><trkpt lat="43.41707430745263" lon="11.934691515466985"><ele>505.0</ele><time>2026-04-18T12:28:36.999Z</time></trkpt><trkpt lat="43.417226499280225" lon="11.934932928058906"><ele>498.5</ele><time>2026-04-18T12:28:37.999Z</time></trkpt><trkpt lat="43.41739242203695" lon="11.935160761176096"><ele>492.0</ele><time>2026-04-18T12:28:38.999Z</time></trkpt><trkpt lat="43.41756215616435" lon="11.935390720989002"><ele>492.0</ele><time>2026-04-18T12:28:39.999Z</time></trkpt><trkpt lat="43.4177245814126" lon="11.935622392193833"><ele>492.0</ele><time>2026-04-18T12:28:40.999Z</time></trkpt><trkpt lat="43.417891970881236" lon="11.935854928560829"><ele>492.5</ele><time>2026-04-18T12:28:41.999Z</time></trkpt><trkpt lat="43.41806409465139" lon="11.936097131923676"><ele>493.0</ele><time>2026-04-18T12:28:42.999Z</time></trkpt><trkpt lat="43.418234438507355" lon="11.93633644872201"><ele>493.0</ele><time>2026-04-18T12:28:43.999Z</time></trkpt><trkpt lat="43.418406965752276" lon="11.93656545014237"><ele>493.0</ele><time>2026-04-18T12:28:44.999Z</time></trkpt><trkpt lat="43.41858017083712" lon="11.936798782672271"><ele>489.5</ele><time>2026-04-18T12:28:45.999Z</time></trkpt><trkpt lat="43.41875616017266" lon="11.937024988392146"><ele>486.0</ele><time>2026-04-18T12:28:46.999Z</time></trkpt><trkpt lat="43.41894214719619" lon="11.937237580522666"><ele>484.5</ele><time>2026-04-18T12:28:48Z</time></trkpt><trkpt lat="43.41913523010052" lon="11.9374431537792"><ele>483.0</ele><time>2026-04-18T12:28:49Z</time></trkpt><trkpt lat="43.419335515952255" lon="11.937642909266993"><ele>483.0</ele><time>2026-04-18T12:28:50Z</time></trkpt><trkpt lat="43.41954474914367" lon="11.937834724619192"><ele>483.0</ele><time>2026-04-18T12:28:51Z</time></trkpt><trkpt lat="43.419761419594245" lon="11.938005196127126"><ele>485.5</ele><time>2026-04-18T12:28:52Z</time></trkpt><trkpt lat="43.41996632476839" lon="11.938186740827794"><ele>488.0</ele><time>2026-04-18T12:28:53Z</time></trkpt><trkpt lat="43.42019273527648" lon="11.938329778669596"><ele>484.5</ele><time>2026-04-18T12:28:54Z</time></trkpt><trkpt lat="43.420424763916124" lon="11.93845726920163"><ele>481.0</ele><time>2026-04-18T12:28:55Z</time></trkpt><trkpt lat="43.42066365111076" lon="11.938566645364086"><ele>479.0</ele><time>2026-04-18T12:28:56Z</time></trkpt><trkpt lat="43.42090467302725" lon="11.938660161864624"><ele>477.0</ele><time>2026-04-18T12:28:57Z</time></trkpt><trkpt lat="43.42114348423487" lon="11.938757403076421"><ele>482.0</ele><time>2026-04-18T12:28:58Z</time></trkpt><trkpt lat="43.421385835222814" lon="11.938850106519286"><ele>487.0</ele><time>2026-04-18T12:28:59Z</time></trkpt><trkpt lat="43.421623065768735" lon="11.938948801575432"><ele>487.0</ele><time>2026-04-18T12:29:00Z</time></trkpt><trkpt lat="43.421869255021505" lon="11.939049251288214"><ele>487.0</ele><time>2026-04-18T12:29:01Z</time></trkpt><trkpt lat="43.422109118220824" lon="11.939151937175101"><ele>480.0</ele><time>2026-04-18T12:29:02Z</time></trkpt><trkpt lat="43.42235175503362" lon="11.939253308276792"><ele>473.0</ele><time>2026-04-18T12:29:03Z</time></trkpt><trkpt lat="43.422591468894886" lon="11.939353149093284"><ele>473.0</ele><time>2026-04-18T12:29:04Z</time></trkpt><trkpt lat="43.4228311531604" lon="11.93944954869663"><ele>473.0</ele><time>2026-04-18T12:29:05Z</time></trkpt><trkpt lat="43.423071405640364" lon="11.939549383145044"><ele>474.0</ele><time>2026-04-18T12:29:06Z</time></trkpt><trkpt lat="43.423310820519" lon="11.93964714466311"><ele>475.0</ele><time>2026-04-18T12:29:07Z</time></trkpt><trkpt lat="43.4235512807404" lon="11.93974800037078"><ele>475.0</ele><time>2026-04-18T12:29:08Z</time></trkpt><trkpt lat="43.42379214046" lon="11.939847318915339"><ele>475.0</ele><time>2026-04-18T12:29:09Z</time></trkpt><trkpt lat="43.42403148138035" lon="11.939950954159869"><ele>468.5</ele><time>2026-04-18T12:29:10Z</time></trkpt><trkpt lat="43.42427131477061" lon="11.94005072251945"><ele>462.0</ele><time>2026-04-18T12:29:11Z</time></trkpt><trkpt lat="43.424511856730454" lon="11.94015012324498"><ele>462.0</ele><time>2026-04-18T12:29:12Z</time></trkpt><trkpt lat="43.42475350986751" lon="11.940250474547563"><ele>462.0</ele><time>2026-04-18T12:29:13Z</time></trkpt><trkpt lat="43.424993754021266" lon="11.940353630570716"><ele>462.0</ele><time>2026-04-18T12:29:14Z</time></trkpt><trkpt lat="43.42523347194886" lon="11.940472919749293"><ele>462.0</ele><time>2026-04-18T12:29:15Z</time></trkpt><trkpt lat="43.42546759658132" lon="11.940612666088239"><ele>460.0</ele><time>2026-04-18T12:29:16Z</time></trkpt><trkpt lat="43.42568070536282" lon="11.94078017236576"><ele>458.0</ele><time>2026-04-18T12:29:17Z</time></trkpt><trkpt lat="43.425884540614106" lon="11.940950621074586"><ele>458.0</ele><time>2026-04-18T12:29:18Z</time></trkpt><trkpt lat="43.426087817954325" lon="11.941129373565266"><ele>458.0</ele><time>2026-04-18T12:29:19Z</time></trkpt><trkpt lat="43.42627224074668" lon="11.941339760079915"><ele>460.0</ele><time>2026-04-18T12:29:20Z</time></trkpt><trkpt lat="43.426445751925506" lon="11.941561523753714"><ele>462.0</ele><time>2026-04-18T12:29:21Z</time></trkpt><trkpt lat="43.42661272508786" lon="11.94180445740556"><ele>462.0</ele><time>2026-04-18T12:29:22Z</time></trkpt><trkpt lat="43.426767718811746" lon="11.942063957244907"><ele>462.0</ele><time>2026-04-18T12:29:23Z</time></trkpt><trkpt lat="43.4269091055408" lon="11.942343363412338"><ele>463.0</ele><time>2026-04-18T12:29:23.999Z</time></trkpt><trkpt lat="43.427036521402" lon="11.942632607929417"><ele>464.0</ele><time>2026-04-18T12:29:24.999Z</time></trkpt><trkpt lat="43.42714916209934" lon="11.942930933692635"><ele>461.5</ele><time>2026-04-18T12:29:25.999Z</time></trkpt><trkpt lat="43.42724394519835" lon="11.943232795836797"><ele>459.0</ele><time>2026-04-18T12:29:26.999Z</time></trkpt><trkpt lat="43.42732313342734" lon="11.943533248556173"><ele>459.0</ele><time>2026-04-18T12:29:27.999Z</time></trkpt><trkpt lat="43.42738059554897" lon="11.943825682976284"><ele>459.0</ele><time>2026-04-18T12:29:28.999Z</time></trkpt><trkpt lat="43.427426201861124" lon="11.94412099200583"><ele>459.0</ele><time>2026-04-18T12:29:29.999Z</time></trkpt><trkpt lat="43.42746306132724" lon="11.944420453809352"><ele>458.33333333333337</ele><time>2026-04-18T12:29:30.999Z</time></trkpt><trkpt lat="43.42748924113493" lon="11.944728307799473"><ele>457.6666666666667</ele><time>2026-04-18T12:29:31.999Z</time></trkpt><trkpt lat="43.427499742841256" lon="11.94503513247255"><ele>457.0</ele><time>2026-04-18T12:29:32.999Z</time></trkpt><trkpt lat="43.42749450571544" lon="11.945345732090482"><ele>459.5</ele><time>2026-04-18T12:29:33.999Z</time></trkpt><trkpt lat="43.427473252694185" lon="11.945654268084368"><ele>462.0</ele><time>2026-04-18T12:29:34.999Z</time></trkpt><trkpt lat="43.42743736832221" lon="11.945960279899353"><ele>463.5</ele><time>2026-04-18T12:29:35.999Z</time></trkpt><trkpt lat="43.4273890131824" lon="11.946263512736147"><ele>465.0</ele><time>2026-04-18T12:29:36.999Z</time></trkpt><trkpt lat="43.42732458876565" lon="11.94656016570223"><ele>465.33333333333337</ele><time>2026-04-18T12:29:37.999Z</time></trkpt><trkpt lat="43.42724968655464" lon="11.946850082460125"><ele>465.6666666666667</ele><time>2026-04-18T12:29:38.999Z</time></trkpt><trkpt lat="43.42716664254726" lon="11.947133906578832"><ele>466.0</ele><time>2026-04-18T12:29:39.999Z</time></trkpt><trkpt lat="43.42707836969809" lon="11.947414373700688"><ele>461.0</ele><time>2026-04-18T12:29:40.999Z</time></trkpt><trkpt lat="43.42698062518556" lon="11.947687273639996"><ele>456.0</ele><time>2026-04-18T12:29:41.999Z</time></trkpt><trkpt lat="43.42688677671553" lon="11.947964764405862"><ele>451.0</ele><time>2026-04-18T12:29:42.999Z</time></trkpt><trkpt lat="43.426794176231766" lon="11.948242697060474"><ele>450.33333333333337</ele><time>2026-04-18T12:29:43.999Z</time></trkpt><trkpt lat="43.426708977560196" lon="11.948510896542373"><ele>449.66666666666663</ele><time>2026-04-18T12:29:44.999Z</time></trkpt><trkpt lat="43.42662397040404" lon="11.94876742172474"><ele>449.0</ele><time>2026-04-18T12:29:45.999Z</time></trkpt><trkpt lat="43.42654180233938" lon="11.949014692424813"><ele>449.66666666666663</ele><time>2026-04-18T12:29:46.999Z</time></trkpt><trkpt lat="43.42645808472571" lon="11.949257390399678"><ele>450.33333333333337</ele><time>2026-04-18T12:29:47.999Z</time></trkpt><trkpt lat="43.42637589014946" lon="11.949497596175892"><ele>451.0</ele><time>2026-04-18T12:29:48.999Z</time></trkpt><trkpt lat="43.42629578717246" lon="11.949727235951421"><ele>451.0</ele><time>2026-04-18T12:29:49.999Z</time></trkpt><trkpt lat="43.42621911681018" lon="11.949950639985866"><ele>451.0</ele><time>2026-04-18T12:29:50.999Z</time></trkpt><trkpt lat="43.42614505702783" lon="11.950165915636944"><ele>451.0</ele><time>2026-04-18T12:29:51.999Z</time></trkpt><trkpt lat="43.42607775238698" lon="11.950376433139692"><ele>451.6666666666667</ele><time>2026-04-18T12:29:52.999Z</time></trkpt><trkpt lat="43.426014972309034" lon="11.950580180276464"><ele>452.33333333333337</ele><time>2026-04-18T12:29:53.999Z</time></trkpt><trkpt lat="43.425954668504886" lon="11.950777502520257"><ele>453.0</ele><time>2026-04-18T12:29:54.999Z</time></trkpt><trkpt lat="43.42589421442652" lon="11.95097187390428"><ele>451.75</ele><time>2026-04-18T12:29:55.999Z</time></trkpt><trkpt lat="43.42583467893638" lon="11.951162645511744"><ele>450.5</ele><time>2026-04-18T12:29:56.999Z</time></trkpt><trkpt lat="43.42577347804818" lon="11.951343030313629"><ele>449.25</ele><time>2026-04-18T12:29:57.999Z</time></trkpt><trkpt lat="43.42570438480461" lon="11.951505620350469"><ele>448.0</ele><time>2026-04-18T12:29:58.999Z</time></trkpt><trkpt lat="43.4256330251" lon="11.951659070257271"><ele>445.33333333333337</ele><time>2026-04-18T12:29:59.999Z</time></trkpt><trkpt lat="43.42557981162854" lon="11.951830915864077"><ele>442.66666666666663</ele><time>2026-04-18T12:30:00.999Z</time></trkpt><trkpt lat="43.42555808199576" lon="11.952035273799043"><ele>440.0</ele><time>2026-04-18T12:30:01.999Z</time></trkpt><trkpt lat="43.425564546998906" lon="11.952268944109989"><ele>440.0</ele><time>2026-04-18T12:30:02.999Z</time></trkpt><trkpt lat="43.425563905381395" lon="11.95253039130474"><ele>440.0</ele><time>2026-04-18T12:30:03.999Z</time></trkpt><trkpt lat="43.425533017325755" lon="11.952813069416486"><ele>440.0</ele><time>2026-04-18T12:30:04.999Z</time></trkpt><trkpt lat="43.42548049835451" lon="11.953118544462662"><ele>441.0</ele><time>2026-04-18T12:30:05.999Z</time></trkpt><trkpt lat="43.42542243742734" lon="11.953439660173615"><ele>442.0</ele><time>2026-04-18T12:30:06.999Z</time></trkpt><trkpt lat="43.42536819915349" lon="11.95376082717041"><ele>442.0</ele><time>2026-04-18T12:30:07.999Z</time></trkpt><trkpt lat="43.425317787162335" lon="11.954086819770454"><ele>442.0</ele><time>2026-04-18T12:30:08.999Z</time></trkpt><trkpt lat="43.42526339565206" lon="11.954410715832406"><ele>439.5</ele><time>2026-04-18T12:30:09.999Z</time></trkpt><trkpt lat="43.425207036137415" lon="11.954741290248565"><ele>437.0</ele><time>2026-04-18T12:30:10.999Z</time></trkpt><trkpt lat="43.42514901083556" lon="11.9550731192367"><ele>436.0</ele><time>2026-04-18T12:30:11.999Z</time></trkpt><trkpt lat="43.42509799275977" lon="11.955410049043302"><ele>435.0</ele><time>2026-04-18T12:30:12.999Z</time></trkpt><trkpt lat="43.42504743825305" lon="11.955749396114193"><ele>436.0</ele><time>2026-04-18T12:30:13.999Z</time></trkpt><trkpt lat="43.42499494571882" lon="11.956091918086067"><ele>437.0</ele><time>2026-04-18T12:30:14.999Z</time></trkpt><trkpt lat="43.424941618469894" lon="11.956437896098178"><ele>439.0</ele><time>2026-04-18T12:30:15.999Z</time></trkpt><trkpt lat="43.42488559879317" lon="11.956784343679894"><ele>441.0</ele><time>2026-04-18T12:30:16.999Z</time></trkpt><trkpt lat="43.42483195792873" lon="11.957135084319573"><ele>441.0</ele><time>2026-04-18T12:30:17.999Z</time></trkpt><trkpt lat="43.42477964575182" lon="11.957488514291645"><ele>441.0</ele><time>2026-04-18T12:30:18.999Z</time></trkpt><trkpt lat="43.424729352765056" lon="11.957842768521324"><ele>441.0</ele><time>2026-04-18T12:30:20Z</time></trkpt><trkpt lat="43.424675111144346" lon="11.958196866652042"><ele>441.0</ele><time>2026-04-18T12:30:21Z</time></trkpt><trkpt lat="43.42462023417167" lon="11.958553348007305"><ele>434.5</ele><time>2026-04-18T12:30:22Z</time></trkpt><trkpt lat="43.4245638973323" lon="11.958911049308607"><ele>428.0</ele><time>2026-04-18T12:30:23Z</time></trkpt><trkpt lat="43.424506693706896" lon="11.959268304852586"><ele>425.0</ele><time>2026-04-18T12:30:24Z</time></trkpt><trkpt lat="43.42444765489448" lon="11.959624687131264"><ele>422.0</ele><time>2026-04-18T12:30:25Z</time></trkpt><trkpt lat="43.42438980295558" lon="11.959982787331256"><ele>423.0</ele><time>2026-04-18T12:30:26Z</time></trkpt><trkpt lat="43.42433277078836" lon="11.960340460056628"><ele>424.0</ele><time>2026-04-18T12:30:27Z</time></trkpt><trkpt lat="43.424275444014626" lon="11.960700657660086"><ele>424.5</ele><time>2026-04-18T12:30:28Z</time></trkpt><trkpt lat="43.42421506631505" lon="11.961064134986795"><ele>425.0</ele><time>2026-04-18T12:30:29Z</time></trkpt><trkpt lat="43.424154172028004" lon="11.961433817614765"><ele>424.0</ele><time>2026-04-18T12:30:30Z</time></trkpt><trkpt lat="43.42408882216981" lon="11.961808212306849"><ele>423.0</ele><time>2026-04-18T12:30:31Z</time></trkpt><trkpt lat="43.42402367621737" lon="11.962185124991576"><ele>423.0</ele><time>2026-04-18T12:30:32Z</time></trkpt><trkpt lat="43.423959018893214" lon="11.962563407325138"><ele>423.0</ele><time>2026-04-18T12:30:33Z</time></trkpt><trkpt lat="43.42389526305307" lon="11.962942291331528"><ele>423.0</ele><time>2026-04-18T12:30:34Z</time></trkpt><trkpt lat="43.42382952771807" lon="11.963321854314783"><ele>423.0</ele><time>2026-04-18T12:30:35Z</time></trkpt><trkpt lat="43.423759039989726" lon="11.963703313136431"><ele>422.0</ele><time>2026-04-18T12:30:36Z</time></trkpt><trkpt lat="43.423689312845575" lon="11.96407941521094"><ele>421.0</ele><time>2026-04-18T12:30:37Z</time></trkpt><trkpt lat="43.4236229611552" lon="11.96445391545706"><ele>421.0</ele><time>2026-04-18T12:30:38Z</time></trkpt><trkpt lat="43.42356180957464" lon="11.964841528473137"><ele>421.0</ele><time>2026-04-18T12:30:39Z</time></trkpt><trkpt lat="43.42349974611637" lon="11.965224329962206"><ele>422.0</ele><time>2026-04-18T12:30:40Z</time></trkpt><trkpt lat="43.42343498769335" lon="11.965605711268"><ele>423.0</ele><time>2026-04-18T12:30:41Z</time></trkpt><trkpt lat="43.423370460740514" lon="11.96598768890828"><ele>420.0</ele><time>2026-04-18T12:30:42Z</time></trkpt><trkpt lat="43.42330687059416" lon="11.966369297156756"><ele>417.0</ele><time>2026-04-18T12:30:43Z</time></trkpt><trkpt lat="43.423241160548606" lon="11.966748141098801"><ele>414.0</ele><time>2026-04-18T12:30:44Z</time></trkpt><trkpt lat="43.423161968176046" lon="11.967085127832913"><ele>411.0</ele><time>2026-04-18T12:30:45Z</time></trkpt><trkpt lat="43.423121985469486" lon="11.967459996075377"><ele>409.5</ele><time>2026-04-18T12:30:46Z</time></trkpt><trkpt lat="43.42306410895211" lon="11.967834906903247"><ele>408.0</ele><time>2026-04-18T12:30:47Z</time></trkpt><trkpt lat="43.42300680796719" lon="11.968211802614412"><ele>407.5</ele><time>2026-04-18T12:30:48Z</time></trkpt><trkpt lat="43.422958248816926" lon="11.96859184334705"><ele>407.0</ele><time>2026-04-18T12:30:49Z</time></trkpt><trkpt lat="43.42292840527174" lon="11.968980259647768"><ele>407.0</ele><time>2026-04-18T12:30:50Z</time></trkpt><trkpt lat="43.42291846813345" lon="11.96937415490225"><ele>407.0</ele><time>2026-04-18T12:30:51Z</time></trkpt><trkpt lat="43.42293236725683" lon="11.969767015940514"><ele>406.0</ele><time>2026-04-18T12:30:52Z</time></trkpt><trkpt lat="43.42296278078747" lon="11.970152929998658"><ele>405.0</ele><time>2026-04-18T12:30:53Z</time></trkpt><trkpt lat="43.423005430675666" lon="11.970538018471563"><ele>409.0</ele><time>2026-04-18T12:30:54Z</time></trkpt><trkpt lat="43.42306805923882" lon="11.970914387594691"><ele>413.0</ele><time>2026-04-18T12:30:55Z</time></trkpt><trkpt lat="43.42315049329596" lon="11.971278523917743"><ele>413.0</ele><time>2026-04-18T12:30:56Z</time></trkpt><trkpt lat="43.42324911888561" lon="11.971638904084449"><ele>413.0</ele><time>2026-04-18T12:30:57Z</time></trkpt><trkpt lat="43.42336580139129" lon="11.97199061684859"><ele>411.0</ele><time>2026-04-18T12:30:58Z</time></trkpt><trkpt lat="43.423498257242414" lon="11.972331033927427"><ele>409.0</ele><time>2026-04-18T12:30:59Z</time></trkpt><trkpt lat="43.42364506666947" lon="11.972659446787459"><ele>407.0</ele><time>2026-04-18T12:31:00Z</time></trkpt><trkpt lat="43.423809628332194" lon="11.972974067591876"><ele>405.0</ele><time>2026-04-18T12:31:01Z</time></trkpt><trkpt lat="43.42398776294727" lon="11.973273890528892"><ele>407.5</ele><time>2026-04-18T12:31:02Z</time></trkpt><trkpt lat="43.42417682633439" lon="11.973558178355006"><ele>410.0</ele><time>2026-04-18T12:31:03Z</time></trkpt><trkpt lat="43.42437934350589" lon="11.97382163593627"><ele>410.0</ele><time>2026-04-18T12:31:04Z</time></trkpt><trkpt lat="43.42459339891566" lon="11.974069310668538"><ele>410.0</ele><time>2026-04-18T12:31:05Z</time></trkpt><trkpt lat="43.4248146699863" lon="11.974308395409958"><ele>407.0</ele><time>2026-04-18T12:31:06Z</time></trkpt><trkpt lat="43.42502792636529" lon="11.974499470466762"><ele>404.0</ele><time>2026-04-18T12:31:07Z</time></trkpt><trkpt lat="43.425288646046276" lon="11.974680869698073"><ele>405.5</ele><time>2026-04-18T12:31:08Z</time></trkpt><trkpt lat="43.425536202915076" lon="11.974845754364711"><ele>407.0</ele><time>2026-04-18T12:31:09Z</time></trkpt><trkpt lat="43.42579202329908" lon="11.974996208694188"><ele>405.5</ele><time>2026-04-18T12:31:10Z</time></trkpt><trkpt lat="43.42605725669296" lon="11.975124101648916"><ele>404.0</ele><time>2026-04-18T12:31:11Z</time></trkpt><trkpt lat="43.426321167798406" lon="11.975255816765468"><ele>404.0</ele><time>2026-04-18T12:31:12Z</time></trkpt><trkpt lat="43.426586808017504" lon="11.975384063107045"><ele>404.0</ele><time>2026-04-18T12:31:13Z</time></trkpt><trkpt lat="43.426852223363156" lon="11.975515851103939"><ele>404.0</ele><time>2026-04-18T12:31:14Z</time></trkpt><trkpt lat="43.42711730231171" lon="11.975649657627365"><ele>404.0</ele><time>2026-04-18T12:31:15Z</time></trkpt><trkpt lat="43.427383756638505" lon="11.975790242608126"><ele>402.0</ele><time>2026-04-18T12:31:16Z</time></trkpt><trkpt lat="43.42764771731092" lon="11.975927970213013"><ele>400.0</ele><time>2026-04-18T12:31:17Z</time></trkpt><trkpt lat="43.42791328269566" lon="11.976063493815612"><ele>400.5</ele><time>2026-04-18T12:31:18Z</time></trkpt><trkpt lat="43.42817691164291" lon="11.976200273745231"><ele>401.0</ele><time>2026-04-18T12:31:19Z</time></trkpt><trkpt lat="43.428443066349175" lon="11.976339517397205"><ele>401.0</ele><time>2026-04-18T12:31:20Z</time></trkpt><trkpt lat="43.428708669975926" lon="11.976481552843012"><ele>401.0</ele><time>2026-04-18T12:31:21Z</time></trkpt><trkpt lat="43.42897482110787" lon="11.97662092585863"><ele>398.5</ele><time>2026-04-18T12:31:22Z</time></trkpt><trkpt lat="43.42924019224564" lon="11.97676131326089"><ele>396.0</ele><time>2026-04-18T12:31:23Z</time></trkpt><trkpt lat="43.42950279227147" lon="11.976898901174463"><ele>396.0</ele><time>2026-04-18T12:31:24Z</time></trkpt><trkpt lat="43.42976327376124" lon="11.977033316624917"><ele>396.0</ele><time>2026-04-18T12:31:25Z</time></trkpt><trkpt lat="43.43002470223676" lon="11.97715979005733"><ele>396.0</ele><time>2026-04-18T12:31:26Z</time></trkpt><trkpt lat="43.43028505444857" lon="11.97728193393256"><ele>396.0</ele><time>2026-04-18T12:31:27Z</time></trkpt><trkpt lat="43.430548702250675" lon="11.977395124163953"><ele>396.0</ele><time>2026-04-18T12:31:28Z</time></trkpt><trkpt lat="43.43081675551542" lon="11.977485568870046"><ele>396.0</ele><time>2026-04-18T12:31:29Z</time></trkpt><trkpt lat="43.431091864784136" lon="11.977554635721393"><ele>395.5</ele><time>2026-04-18T12:31:30Z</time></trkpt><trkpt lat="43.431370904719316" lon="11.977600945833869"><ele>395.0</ele><time>2026-04-18T12:31:31Z</time></trkpt><trkpt lat="43.431651656291216" lon="11.977629915337172"><ele>395.0</ele><time>2026-04-18T12:31:32Z</time></trkpt><trkpt lat="43.43193166911433" lon="11.977644241685283"><ele>395.0</ele><time>2026-04-18T12:31:33Z</time></trkpt><trkpt lat="43.43221326506746" lon="11.977635225882176"><ele>395.5</ele><time>2026-04-18T12:31:34Z</time></trkpt><trkpt lat="43.432495466201864" lon="11.977615932089776"><ele>396.0</ele><time>2026-04-18T12:31:35Z</time></trkpt><trkpt lat="43.4327780722104" lon="11.9775934240544"><ele>398.0</ele><time>2026-04-18T12:31:36Z</time></trkpt><trkpt lat="43.433059840108136" lon="11.97757147000397"><ele>400.0</ele><time>2026-04-18T12:31:37Z</time></trkpt><trkpt lat="43.43333985177294" lon="11.977545567969091"><ele>400.0</ele><time>2026-04-18T12:31:38Z</time></trkpt><trkpt lat="43.43361178871738" lon="11.977518922465652"><ele>400.0</ele><time>2026-04-18T12:31:39Z</time></trkpt><trkpt lat="43.433888672313586" lon="11.97748848894649"><ele>414.5</ele><time>2026-04-18T12:31:40Z</time></trkpt><trkpt lat="43.43416365217387" lon="11.977460217578436"><ele>429.0</ele><time>2026-04-18T12:31:41Z</time></trkpt><trkpt lat="43.434440488705036" lon="11.977435239368507"><ele>431.5</ele><time>2026-04-18T12:31:42Z</time></trkpt><trkpt lat="43.434715381945026" lon="11.977404946453106"><ele>434.0</ele><time>2026-04-18T12:31:43Z</time></trkpt><trkpt lat="43.434990646916816" lon="11.977372148126026"><ele>434.0</ele><time>2026-04-18T12:31:44Z</time></trkpt><trkpt lat="43.435265065659365" lon="11.97733551727434"><ele>434.0</ele><time>2026-04-18T12:31:45Z</time></trkpt><trkpt lat="43.435541447938476" lon="11.977300758301928"><ele>419.5</ele><time>2026-04-18T12:31:46Z</time></trkpt><trkpt lat="43.4358199785223" lon="11.977296027105345"><ele>405.0</ele><time>2026-04-18T12:31:47Z</time></trkpt><trkpt lat="43.436270164912344" lon="11.977293826630337"><ele>399.5</ele><time>2026-04-18T12:31:48Z</time></trkpt><trkpt lat="43.43654632074311" lon="11.97726068942977"><ele>394.0</ele><time>2026-04-18T12:31:48.999Z</time></trkpt><trkpt lat="43.43685280123448" lon="11.977242462933262"><ele>393.5</ele><time>2026-04-18T12:31:49.999Z</time></trkpt><trkpt lat="43.43716108214361" lon="11.977293908587916"><ele>393.0</ele><time>2026-04-18T12:31:50.999Z</time></trkpt><trkpt lat="43.43746187749319" lon="11.977356114671686"><ele>393.0</ele><time>2026-04-18T12:31:51.999Z</time></trkpt><trkpt lat="43.437757368406714" lon="11.97744454418226"><ele>393.0</ele><time>2026-04-18T12:31:52.999Z</time></trkpt><trkpt lat="43.43804798195293" lon="11.977493818647417"><ele>393.5</ele><time>2026-04-18T12:31:53.999Z</time></trkpt><trkpt lat="43.438323369655514" lon="11.977696567862624"><ele>394.0</ele><time>2026-04-18T12:31:54.999Z</time></trkpt><trkpt lat="43.43859763041285" lon="11.977856824314557"><ele>393.5</ele><time>2026-04-18T12:31:55.999Z</time></trkpt><trkpt lat="43.438862850712724" lon="11.978035144173056"><ele>393.0</ele><time>2026-04-18T12:31:56.999Z</time></trkpt><trkpt lat="43.439121381556184" lon="11.97823230048379"><ele>400.5</ele><time>2026-04-18T12:31:57.999Z</time></trkpt><trkpt lat="43.43936954965791" lon="11.97844379345848"><ele>408.0</ele><time>2026-04-18T12:31:58.999Z</time></trkpt><trkpt lat="43.439605018493886" lon="11.97868073514373"><ele>406.0</ele><time>2026-04-18T12:31:59.999Z</time></trkpt><trkpt lat="43.43983098623422" lon="11.978940152040058"><ele>404.0</ele><time>2026-04-18T12:32:00.999Z</time></trkpt><trkpt lat="43.44004508181994" lon="11.979217499655629"><ele>413.5</ele><time>2026-04-18T12:32:01.999Z</time></trkpt><trkpt lat="43.44024704053656" lon="11.979509209347269"><ele>423.0</ele><time>2026-04-18T12:32:02.999Z</time></trkpt><trkpt lat="43.44043557398164" lon="11.979817830529253"><ele>406.0</ele><time>2026-04-18T12:32:03.999Z</time></trkpt><trkpt lat="43.44060879762117" lon="11.98014159856625"><ele>389.0</ele><time>2026-04-18T12:32:04.999Z</time></trkpt><trkpt lat="43.44076851525409" lon="11.98048127384753"><ele>389.0</ele><time>2026-04-18T12:32:05.999Z</time></trkpt><trkpt lat="43.44091573637029" lon="11.980832340733244"><ele>389.0</ele><time>2026-04-18T12:32:06.999Z</time></trkpt><trkpt lat="43.44104296248253" lon="11.981189342467133"><ele>390.5</ele><time>2026-04-18T12:32:07.999Z</time></trkpt><trkpt lat="43.44115902045398" lon="11.981555890066879"><ele>392.0</ele><time>2026-04-18T12:32:08.999Z</time></trkpt><trkpt lat="43.44125932538861" lon="11.981927041396185"><ele>399.5</ele><time>2026-04-18T12:32:09.999Z</time></trkpt><trkpt lat="43.4413538960595" lon="11.982302174288135"><ele>407.0</ele><time>2026-04-18T12:32:10.999Z</time></trkpt><trkpt lat="43.44144888943545" lon="11.982679319437395"><ele>407.0</ele><time>2026-04-18T12:32:11.999Z</time></trkpt><trkpt lat="43.44154523529534" lon="11.983056132369132"><ele>407.0</ele><time>2026-04-18T12:32:12.999Z</time></trkpt><trkpt lat="43.44164126422809" lon="11.983434345942042"><ele>402.5</ele><time>2026-04-18T12:32:13.999Z</time></trkpt><trkpt lat="43.441739647797775" lon="11.983811786274993"><ele>398.0</ele><time>2026-04-18T12:32:14.999Z</time></trkpt><trkpt lat="43.44183929175548" lon="11.984190850685296"><ele>396.5</ele><time>2026-04-18T12:32:15.999Z</time></trkpt><trkpt lat="43.441937151085185" lon="11.984570036676596"><ele>395.0</ele><time>2026-04-18T12:32:16.999Z</time></trkpt><trkpt lat="43.44203376474349" lon="11.9849469056931"><ele>393.0</ele><time>2026-04-18T12:32:17.999Z</time></trkpt><trkpt lat="43.44213027548578" lon="11.985323509426024"><ele>391.0</ele><time>2026-04-18T12:32:18.999Z</time></trkpt><trkpt lat="43.44222503701299" lon="11.985698523608436"><ele>397.0</ele><time>2026-04-18T12:32:19.999Z</time></trkpt><trkpt lat="43.44232081919218" lon="11.986077902047127"><ele>403.0</ele><time>2026-04-18T12:32:20.999Z</time></trkpt><trkpt lat="43.442418787828196" lon="11.986458170738619"><ele>400.5</ele><time>2026-04-18T12:32:21.999Z</time></trkpt><trkpt lat="43.442520824629526" lon="11.986844678405772"><ele>398.0</ele><time>2026-04-18T12:32:22.999Z</time></trkpt><trkpt lat="43.44263370758973" lon="11.987235435458425"><ele>395.5</ele><time>2026-04-18T12:32:23.999Z</time></trkpt><trkpt lat="43.44276477718218" lon="11.98762518814287"><ele>393.0</ele><time>2026-04-18T12:32:24.999Z</time></trkpt><trkpt lat="43.44291807413108" lon="11.98800556158731"><ele>395.5</ele><time>2026-04-18T12:32:26Z</time></trkpt><trkpt lat="43.44308984818849" lon="11.98836136008316"><ele>398.0</ele><time>2026-04-18T12:32:27Z</time></trkpt><trkpt lat="43.44327713047686" lon="11.988695362254859"><ele>398.0</ele><time>2026-04-18T12:32:28Z</time></trkpt><trkpt lat="43.443472747519614" lon="11.989013702161296"><ele>398.0</ele><time>2026-04-18T12:32:29Z</time></trkpt><trkpt lat="43.44367462142613" lon="11.989319828118598"><ele>399.0</ele><time>2026-04-18T12:32:30Z</time></trkpt><trkpt lat="43.44388253377591" lon="11.989616582470505"><ele>400.0</ele><time>2026-04-18T12:32:31Z</time></trkpt><trkpt lat="43.444087360243614" lon="11.989907482927665"><ele>395.5</ele><time>2026-04-18T12:32:32Z</time></trkpt><trkpt lat="43.44428729188158" lon="11.990200384680582"><ele>391.0</ele><time>2026-04-18T12:32:33Z</time></trkpt><trkpt lat="43.444487019292445" lon="11.990489336765474"><ele>390.5</ele><time>2026-04-18T12:32:34Z</time></trkpt><trkpt lat="43.444684367306124" lon="11.990775382088051"><ele>390.0</ele><time>2026-04-18T12:32:35Z</time></trkpt><trkpt lat="43.44488166267967" lon="11.991062985263495"><ele>390.0</ele><time>2026-04-18T12:32:36Z</time></trkpt><trkpt lat="43.445078787387615" lon="11.991345754021525"><ele>390.0</ele><time>2026-04-18T12:32:37Z</time></trkpt><trkpt lat="43.4452741007074" lon="11.991623870115557"><ele>393.0</ele><time>2026-04-18T12:32:38Z</time></trkpt><trkpt lat="43.445468085386096" lon="11.99190393474688"><ele>396.0</ele><time>2026-04-18T12:32:39Z</time></trkpt><trkpt lat="43.44565966301769" lon="11.992182997404635"><ele>396.0</ele><time>2026-04-18T12:32:40Z</time></trkpt><trkpt lat="43.445842682260626" lon="11.992472702792382"><ele>396.0</ele><time>2026-04-18T12:32:41Z</time></trkpt><trkpt lat="43.44601831890593" lon="11.992769044316633"><ele>390.5</ele><time>2026-04-18T12:32:42Z</time></trkpt><trkpt lat="43.446187170433895" lon="11.99307194065763"><ele>385.0</ele><time>2026-04-18T12:32:43Z</time></trkpt><trkpt lat="43.446354922912526" lon="11.993379596962365"><ele>385.0</ele><time>2026-04-18T12:32:44Z</time></trkpt><trkpt lat="43.44652011096341" lon="11.993686220825467"><ele>385.0</ele><time>2026-04-18T12:32:45Z</time></trkpt><trkpt lat="43.446689603721246" lon="11.99398838671178"><ele>385.5</ele><time>2026-04-18T12:32:46Z</time></trkpt><trkpt lat="43.446859205262555" lon="11.994289595797417"><ele>386.0</ele><time>2026-04-18T12:32:47Z</time></trkpt><trkpt lat="43.44702862147099" lon="11.994592835180127"><ele>386.0</ele><time>2026-04-18T12:32:48Z</time></trkpt><trkpt lat="43.44719682675949" lon="11.994895274024513"><ele>386.0</ele><time>2026-04-18T12:32:49Z</time></trkpt><trkpt lat="43.44736639301055" lon="11.995198335867837"><ele>395.5</ele><time>2026-04-18T12:32:50Z</time></trkpt><trkpt lat="43.44753568805127" lon="11.995502217579432"><ele>405.0</ele><time>2026-04-18T12:32:51Z</time></trkpt><trkpt lat="43.44770592412932" lon="11.995808703417257"><ele>411.0</ele><time>2026-04-18T12:32:52Z</time></trkpt><trkpt lat="43.447877469071386" lon="11.996116091370945"><ele>417.0</ele><time>2026-04-18T12:32:53Z</time></trkpt><trkpt lat="43.44804689633003" lon="11.996424601433327"><ele>400.0</ele><time>2026-04-18T12:32:54Z</time></trkpt><trkpt lat="43.448217343939426" lon="11.996729239568236"><ele>383.0</ele><time>2026-04-18T12:32:55Z</time></trkpt><trkpt lat="43.44838725980058" lon="11.997034058888836"><ele>383.0</ele><time>2026-04-18T12:32:56Z</time></trkpt><trkpt lat="43.44855611191259" lon="11.99733895139748"><ele>383.0</ele><time>2026-04-18T12:32:57Z</time></trkpt><trkpt lat="43.44872268276613" lon="11.997642895129056"><ele>386.5</ele><time>2026-04-18T12:32:58Z</time></trkpt><trkpt lat="43.44889144566435" lon="11.997943625140373"><ele>390.0</ele><time>2026-04-18T12:32:59Z</time></trkpt><trkpt lat="43.44905846319371" lon="11.998243115455551"><ele>388.0</ele><time>2026-04-18T12:33:00Z</time></trkpt><trkpt lat="43.44922555348349" lon="11.998543894851132"><ele>386.0</ele><time>2026-04-18T12:33:01Z</time></trkpt><trkpt lat="43.44939271061502" lon="11.998845513500296"><ele>386.0</ele><time>2026-04-18T12:33:02Z</time></trkpt><trkpt lat="43.44955602255963" lon="11.999156651161005"><ele>386.0</ele><time>2026-04-18T12:33:03Z</time></trkpt><trkpt lat="43.449710781553165" lon="11.9994604408881"><ele>381.0</ele><time>2026-04-18T12:33:04Z</time></trkpt><trkpt lat="43.4498535645791" lon="11.999763190679943"><ele>376.0</ele><time>2026-04-18T12:33:05Z</time></trkpt><trkpt lat="43.45005939285633" lon="12.000058471154125"><ele>376.0</ele><time>2026-04-18T12:33:06Z</time></trkpt><trkpt lat="43.45024008556572" lon="12.000360674534488"><ele>376.0</ele><time>2026-04-18T12:33:07Z</time></trkpt><trkpt lat="43.45041148192" lon="12.00067212348254"><ele>373.0</ele><time>2026-04-18T12:33:08Z</time></trkpt><trkpt lat="43.450581067869415" lon="12.000981760866319"><ele>370.0</ele><time>2026-04-18T12:33:09Z</time></trkpt><trkpt lat="43.4507528558043" lon="12.00128680753619"><ele>370.0</ele><time>2026-04-18T12:33:10Z</time></trkpt><trkpt lat="43.45092566792733" lon="12.00158849288621"><ele>370.0</ele><time>2026-04-18T12:33:11Z</time></trkpt><trkpt lat="43.45109501347206" lon="12.001893329477495"><ele>369.5</ele><time>2026-04-18T12:33:12Z</time></trkpt><trkpt lat="43.4512661891305" lon="12.002196726883705"><ele>369.0</ele><time>2026-04-18T12:33:13Z</time></trkpt><trkpt lat="43.45143271856027" lon="12.002501354380286"><ele>369.0</ele><time>2026-04-18T12:33:14Z</time></trkpt><trkpt lat="43.45159921522183" lon="12.002804400870573"><ele>369.0</ele><time>2026-04-18T12:33:15Z</time></trkpt><trkpt lat="43.45176185525008" lon="12.003108470087891"><ele>377.0</ele><time>2026-04-18T12:33:16Z</time></trkpt><trkpt lat="43.451921286141236" lon="12.003414743674657"><ele>385.0</ele><time>2026-04-18T12:33:17Z</time></trkpt><trkpt lat="43.452072228191945" lon="12.003723699587471"><ele>373.5</ele><time>2026-04-18T12:33:18Z</time></trkpt><trkpt lat="43.452213324993984" lon="12.00403960387406"><ele>362.0</ele><time>2026-04-18T12:33:19Z</time></trkpt><trkpt lat="43.452345995172465" lon="12.004359481495358"><ele>362.0</ele><time>2026-04-18T12:33:20Z</time></trkpt><trkpt lat="43.45247590168552" lon="12.004677312311527"><ele>362.0</ele><time>2026-04-18T12:33:21Z</time></trkpt><trkpt lat="43.45260396758122" lon="12.004997163364632"><ele>363.5</ele><time>2026-04-18T12:33:22Z</time></trkpt><trkpt lat="43.45273191821519" lon="12.005315018845947"><ele>365.0</ele><time>2026-04-18T12:33:23Z</time></trkpt><trkpt lat="43.45286172668916" lon="12.00563210362724"><ele>369.5</ele><time>2026-04-18T12:33:24Z</time></trkpt><trkpt lat="43.452991889440014" lon="12.005943812036579"><ele>374.0</ele><time>2026-04-18T12:33:25Z</time></trkpt><trkpt lat="43.45312284341281" lon="12.006254937008807"><ele>374.0</ele><time>2026-04-18T12:33:26Z</time></trkpt><trkpt lat="43.453251503708316" lon="12.006567315637211"><ele>374.0</ele><time>2026-04-18T12:33:27Z</time></trkpt><trkpt lat="43.45337880808115" lon="12.00688027434158"><ele>373.5</ele><time>2026-04-18T12:33:28Z</time></trkpt><trkpt lat="43.45351036294574" lon="12.007185956323216"><ele>373.0</ele><time>2026-04-18T12:33:29Z</time></trkpt><trkpt lat="43.45364490329351" lon="12.007487355485766"><ele>370.0</ele><time>2026-04-18T12:33:30Z</time></trkpt><trkpt lat="43.45378307878431" lon="12.007783423750183"><ele>367.0</ele><time>2026-04-18T12:33:31Z</time></trkpt><trkpt lat="43.45392209158069" lon="12.008071883861465"><ele>363.5</ele><time>2026-04-18T12:33:32Z</time></trkpt><trkpt lat="43.454066026116095" lon="12.008351843442252"><ele>360.0</ele><time>2026-04-18T12:33:33Z</time></trkpt><trkpt lat="43.4542129313978" lon="12.00862488058048"><ele>360.0</ele><time>2026-04-18T12:33:34Z</time></trkpt><trkpt lat="43.45436269017946" lon="12.0088900688389"><ele>360.0</ele><time>2026-04-18T12:33:35Z</time></trkpt><trkpt lat="43.454517451914384" lon="12.00914960541596"><ele>364.0</ele><time>2026-04-18T12:33:36Z</time></trkpt><trkpt lat="43.45467528301988" lon="12.009402367104476"><ele>368.0</ele><time>2026-04-18T12:33:37Z</time></trkpt><trkpt lat="43.45483279859729" lon="12.009655149954657"><ele>368.0</ele><time>2026-04-18T12:33:38Z</time></trkpt><trkpt lat="43.454989013010405" lon="12.009905584100377"><ele>368.0</ele><time>2026-04-18T12:33:39Z</time></trkpt><trkpt lat="43.455145255746956" lon="12.010156434933645"><ele>365.5</ele><time>2026-04-18T12:33:40Z</time></trkpt><trkpt lat="43.455300311904665" lon="12.0104040533628"><ele>363.0</ele><time>2026-04-18T12:33:41Z</time></trkpt><trkpt lat="43.45545523000716" lon="12.01064483883203"><ele>374.5</ele><time>2026-04-18T12:33:42Z</time></trkpt><trkpt lat="43.45560377706148" lon="12.010888894440228"><ele>386.0</ele><time>2026-04-18T12:33:43Z</time></trkpt><trkpt lat="43.45575723921205" lon="12.011135238189967"><ele>386.0</ele><time>2026-04-18T12:33:44Z</time></trkpt><trkpt lat="43.455901034693014" lon="12.011391664285128"><ele>386.0</ele><time>2026-04-18T12:33:45Z</time></trkpt><trkpt lat="43.45604726505255" lon="12.011652900418087"><ele>388.5</ele><time>2026-04-18T12:33:46Z</time></trkpt><trkpt lat="43.456190426470954" lon="12.011913260038586"><ele>391.0</ele><time>2026-04-18T12:33:47Z</time></trkpt><trkpt lat="43.45632297758535" lon="12.012170004151418"><ele>391.0</ele><time>2026-04-18T12:33:48Z</time></trkpt><trkpt lat="43.45645092433062" lon="12.012429661234798"><ele>391.0</ele><time>2026-04-18T12:33:49Z</time></trkpt><trkpt lat="43.45656332746146" lon="12.012691192559025"><ele>391.0</ele><time>2026-04-18T12:33:50Z</time></trkpt><trkpt lat="43.456676073405504" lon="12.012956122058743"><ele>388.0</ele><time>2026-04-18T12:33:51Z</time></trkpt><trkpt lat="43.45678745539549" lon="12.013221423691114"><ele>385.0</ele><time>2026-04-18T12:33:52Z</time></trkpt><trkpt lat="43.45689643540687" lon="12.013491672392126"><ele>382.0</ele><time>2026-04-18T12:33:53Z</time></trkpt><trkpt lat="43.45700460963882" lon="12.013764707357034"><ele>384.5</ele><time>2026-04-18T12:33:54Z</time></trkpt><trkpt lat="43.45711754020333" lon="12.014036647146387"><ele>387.0</ele><time>2026-04-18T12:33:55Z</time></trkpt><trkpt lat="43.45723635564671" lon="12.014310708127043"><ele>387.0</ele><time>2026-04-18T12:33:56Z</time></trkpt><trkpt lat="43.45735814951503" lon="12.014581685050524"><ele>387.0</ele><time>2026-04-18T12:33:57Z</time></trkpt><trkpt lat="43.457492016043574" lon="12.0148480744734"><ele>379.0</ele><time>2026-04-18T12:33:58Z</time></trkpt><trkpt lat="43.45764444776103" lon="12.01513519998603"><ele>371.0</ele><time>2026-04-18T12:33:59Z</time></trkpt><trkpt lat="43.457793018444356" lon="12.015436231576281"><ele>368.5</ele><time>2026-04-18T12:34:00Z</time></trkpt><trkpt lat="43.45798892891888" lon="12.015658646482443"><ele>366.0</ele><time>2026-04-18T12:34:01Z</time></trkpt><trkpt lat="43.45817344960848" lon="12.015847486280169"><ele>366.0</ele><time>2026-04-18T12:34:02Z</time></trkpt><trkpt lat="43.45834887472526" lon="12.015996288981476"><ele>366.0</ele><time>2026-04-18T12:34:03Z</time></trkpt><trkpt lat="43.45854652748862" lon="12.01614123025451"><ele>366.0</ele><time>2026-04-18T12:34:04Z</time></trkpt><trkpt lat="43.458746849154586" lon="12.016288399210511"><ele>367.5</ele><time>2026-04-18T12:34:05Z</time></trkpt><trkpt lat="43.4589851499805" lon="12.01641496602132"><ele>369.0</ele><time>2026-04-18T12:34:06Z</time></trkpt><trkpt lat="43.45922960058673" lon="12.016525528530927"><ele>362.5</ele><time>2026-04-18T12:34:07Z</time></trkpt><trkpt lat="43.45946550345961" lon="12.016657042107118"><ele>356.0</ele><time>2026-04-18T12:34:08Z</time></trkpt><trkpt lat="43.45969960411574" lon="12.016805303928708"><ele>356.0</ele><time>2026-04-18T12:34:09Z</time></trkpt><trkpt lat="43.45993078900301" lon="12.016977149855125"><ele>356.0</ele><time>2026-04-18T12:34:10Z</time></trkpt><trkpt lat="43.46014958090492" lon="12.01717571343408"><ele>356.0</ele><time>2026-04-18T12:34:11Z</time></trkpt><trkpt lat="43.46034826728935" lon="12.01740954369321"><ele>356.0</ele><time>2026-04-18T12:34:12Z</time></trkpt><trkpt lat="43.46052551098875" lon="12.017662833965634"><ele>357.0</ele><time>2026-04-18T12:34:13Z</time></trkpt><trkpt lat="43.46069077425167" lon="12.017937708116802"><ele>358.0</ele><time>2026-04-18T12:34:14Z</time></trkpt><trkpt lat="43.46084414833658" lon="12.01822723069542"><ele>350.0</ele><time>2026-04-18T12:34:15Z</time></trkpt><trkpt lat="43.460991832099815" lon="12.018526000327217"><ele>342.0</ele><time>2026-04-18T12:34:16Z</time></trkpt><trkpt lat="43.46114202504421" lon="12.018816954588019"><ele>345.5</ele><time>2026-04-18T12:34:17Z</time></trkpt><trkpt lat="43.46129419676072" lon="12.019109421174251"><ele>349.0</ele><time>2026-04-18T12:34:18Z</time></trkpt><trkpt lat="43.46144781688386" lon="12.019399757006054"><ele>340.5</ele><time>2026-04-18T12:34:19Z</time></trkpt><trkpt lat="43.461602945049435" lon="12.01969089102245"><ele>332.0</ele><time>2026-04-18T12:34:20Z</time></trkpt><trkpt lat="43.4617594240898" lon="12.019977776022149"><ele>330.5</ele><time>2026-04-18T12:34:20.999Z</time></trkpt><trkpt lat="43.461913615821125" lon="12.02026720797044"><ele>329.0</ele><time>2026-04-18T12:34:21.999Z</time></trkpt><trkpt lat="43.462066371608934" lon="12.020555922462659"><ele>330.0</ele><time>2026-04-18T12:34:22.999Z</time></trkpt><trkpt lat="43.46221811202702" lon="12.020844005316514"><ele>331.0</ele><time>2026-04-18T12:34:23.999Z</time></trkpt><trkpt lat="43.462365075440104" lon="12.02113335890505"><ele>331.0</ele><time>2026-04-18T12:34:24.999Z</time></trkpt><trkpt lat="43.46251041440001" lon="12.02142218086127"><ele>331.0</ele><time>2026-04-18T12:34:25.999Z</time></trkpt><trkpt lat="43.462652119865055" lon="12.021711238198852"><ele>331.0</ele><time>2026-04-18T12:34:26.999Z</time></trkpt><trkpt lat="43.462793735540174" lon="12.022001084985822"><ele>331.0</ele><time>2026-04-18T12:34:27.999Z</time></trkpt><trkpt lat="43.46293299542434" lon="12.02229596767303"><ele>334.0</ele><time>2026-04-18T12:34:28.999Z</time></trkpt><trkpt lat="43.46307382196406" lon="12.022590807722471"><ele>337.0</ele><time>2026-04-18T12:34:29.999Z</time></trkpt><trkpt lat="43.46321570168105" lon="12.02288074868936"><ele>337.0</ele><time>2026-04-18T12:34:30.999Z</time></trkpt><trkpt lat="43.46334859944711" lon="12.023180203564424"><ele>337.0</ele><time>2026-04-18T12:34:32Z</time></trkpt><trkpt lat="43.46346087633807" lon="12.023497042531002"><ele>333.5</ele><time>2026-04-18T12:34:33Z</time></trkpt><trkpt lat="43.46354922991601" lon="12.023830414320464"><ele>330.0</ele><time>2026-04-18T12:34:34Z</time></trkpt><trkpt lat="43.46361642994394" lon="12.024177450904789"><ele>328.5</ele><time>2026-04-18T12:34:35Z</time></trkpt><trkpt lat="43.46366119367315" lon="12.024532367912201"><ele>327.0</ele><time>2026-04-18T12:34:36Z</time></trkpt><trkpt lat="43.463685391048976" lon="12.024898293534022"><ele>327.0</ele><time>2026-04-18T12:34:37Z</time></trkpt><trkpt lat="43.46369170987231" lon="12.025267723681697"><ele>327.0</ele><time>2026-04-18T12:34:38Z</time></trkpt><trkpt lat="43.46368317034965" lon="12.025641992117702"><ele>328.0</ele><time>2026-04-18T12:34:39Z</time></trkpt><trkpt lat="43.46353398885074" lon="12.026750125545249"><ele>328.0</ele><time>2026-04-18T12:34:42Z</time></trkpt><trkpt lat="43.46343732479454" lon="12.02710342348735"><ele>328.0</ele><time>2026-04-18T12:34:43Z</time></trkpt><trkpt lat="43.4633290996582" lon="12.027447592876873"><ele>326.5</ele><time>2026-04-18T12:34:44Z</time></trkpt><trkpt lat="43.46319922951662" lon="12.027777761670182"><ele>325.0</ele><time>2026-04-18T12:34:45Z</time></trkpt><trkpt lat="43.46306208772327" lon="12.028099595017943"><ele>327.0</ele><time>2026-04-18T12:34:46Z</time></trkpt><trkpt lat="43.4629276068413" lon="12.028419368206702"><ele>329.0</ele><time>2026-04-18T12:34:47Z</time></trkpt><trkpt lat="43.46281115344403" lon="12.028749580660591"><ele>329.0</ele><time>2026-04-18T12:34:48Z</time></trkpt><trkpt lat="43.46271859918712" lon="12.029095695322109"><ele>329.0</ele><time>2026-04-18T12:34:49Z</time></trkpt><trkpt lat="43.46265088644631" lon="12.02945269868639"><ele>328.0</ele><time>2026-04-18T12:34:50Z</time></trkpt><trkpt lat="43.46260144558906" lon="12.029814522812002"><ele>327.0</ele><time>2026-04-18T12:34:51Z</time></trkpt><trkpt lat="43.46256732664074" lon="12.030178404664193"><ele>327.0</ele><time>2026-04-18T12:34:52Z</time></trkpt><trkpt lat="43.46254661161053" lon="12.030545902518273"><ele>327.0</ele><time>2026-04-18T12:34:53Z</time></trkpt><trkpt lat="43.46254340282059" lon="12.030913278116433"><ele>326.0</ele><time>2026-04-18T12:34:54Z</time></trkpt><trkpt lat="43.462558929684654" lon="12.031276057688615"><ele>325.0</ele><time>2026-04-18T12:34:55Z</time></trkpt><trkpt lat="43.46259246482784" lon="12.031638044258521"><ele>325.5</ele><time>2026-04-18T12:34:56Z</time></trkpt><trkpt lat="43.46264505555067" lon="12.031991581665674"><ele>326.0</ele><time>2026-04-18T12:34:57Z</time></trkpt><trkpt lat="43.46271229516136" lon="12.032342881553692"><ele>325.5</ele><time>2026-04-18T12:34:58Z</time></trkpt><trkpt lat="43.46278436140381" lon="12.032692689708236"><ele>325.0</ele><time>2026-04-18T12:34:59Z</time></trkpt><trkpt lat="43.46285847221153" lon="12.033040311877112"><ele>323.5</ele><time>2026-04-18T12:35:00Z</time></trkpt><trkpt lat="43.462939537270884" lon="12.033393001356767"><ele>322.0</ele><time>2026-04-18T12:35:01Z</time></trkpt><trkpt lat="43.463023470007194" lon="12.033744064164235"><ele>323.5</ele><time>2026-04-18T12:35:02Z</time></trkpt><trkpt lat="43.463110078450555" lon="12.03409196822996"><ele>325.0</ele><time>2026-04-18T12:35:03Z</time></trkpt><trkpt lat="43.46320135273425" lon="12.034437978118907"><ele>325.0</ele><time>2026-04-18T12:35:04Z</time></trkpt><trkpt lat="43.463301250062614" lon="12.034783377687898"><ele>325.0</ele><time>2026-04-18T12:35:05Z</time></trkpt><trkpt lat="43.46340523554577" lon="12.035130030972889"><ele>324.0</ele><time>2026-04-18T12:35:06Z</time></trkpt><trkpt lat="43.46350947351224" lon="12.035480686811265"><ele>323.0</ele><time>2026-04-18T12:35:07Z</time></trkpt><trkpt lat="43.46361328134107" lon="12.035836054667827"><ele>322.5</ele><time>2026-04-18T12:35:08Z</time></trkpt><trkpt lat="43.46371666135707" lon="12.036196208273305"><ele>322.0</ele><time>2026-04-18T12:35:09Z</time></trkpt><trkpt lat="43.46381989269093" lon="12.036557388714847"><ele>323.0</ele><time>2026-04-18T12:35:10Z</time></trkpt><trkpt lat="43.463925234908785" lon="12.036921069676499"><ele>324.0</ele><time>2026-04-18T12:35:11Z</time></trkpt><trkpt lat="43.464029137489085" lon="12.037281636612416"><ele>323.0</ele><time>2026-04-18T12:35:12Z</time></trkpt><trkpt lat="43.46413745114509" lon="12.03764363762364"><ele>322.0</ele><time>2026-04-18T12:35:13Z</time></trkpt><trkpt lat="43.464241340605106" lon="12.037999899633837"><ele>321.5</ele><time>2026-04-18T12:35:14Z</time></trkpt><trkpt lat="43.46434624389321" lon="12.038357096597954"><ele>321.0</ele><time>2026-04-18T12:35:15Z</time></trkpt><trkpt lat="43.464449458661996" lon="12.038710113936245"><ele>321.0</ele><time>2026-04-18T12:35:16Z</time></trkpt><trkpt lat="43.46455400238199" lon="12.039063131989131"><ele>321.0</ele><time>2026-04-18T12:35:17Z</time></trkpt><trkpt lat="43.46465785516854" lon="12.03941607007851"><ele>320.5</ele><time>2026-04-18T12:35:18Z</time></trkpt><trkpt lat="43.464761080628435" lon="12.03977038966525"><ele>320.0</ele><time>2026-04-18T12:35:19Z</time></trkpt><trkpt lat="43.46486541456545" lon="12.040124508091273"><ele>320.0</ele><time>2026-04-18T12:35:20Z</time></trkpt><trkpt lat="43.46497465688895" lon="12.040476717675606"><ele>320.0</ele><time>2026-04-18T12:35:21Z</time></trkpt><trkpt lat="43.465086080946314" lon="12.040823576909046"><ele>320.0</ele><time>2026-04-18T12:35:22Z</time></trkpt><trkpt lat="43.46519166510201" lon="12.041167628147981"><ele>320.0</ele><time>2026-04-18T12:35:23Z</time></trkpt><trkpt lat="43.46529347225841" lon="12.041513683464478"><ele>319.0</ele><time>2026-04-18T12:35:24Z</time></trkpt><trkpt lat="43.46539267210221" lon="12.041861211184205"><ele>318.0</ele><time>2026-04-18T12:35:25Z</time></trkpt><trkpt lat="43.465491207614946" lon="12.042208964619281"><ele>318.0</ele><time>2026-04-18T12:35:26Z</time></trkpt><trkpt lat="43.46559299653211" lon="12.042556999070047"><ele>318.0</ele><time>2026-04-18T12:35:27Z</time></trkpt><trkpt lat="43.465694802435785" lon="12.042906447132658"><ele>318.0</ele><time>2026-04-18T12:35:28Z</time></trkpt><trkpt lat="43.465797636447505" lon="12.043254592279839"><ele>318.0</ele><time>2026-04-18T12:35:29Z</time></trkpt><trkpt lat="43.46589729990253" lon="12.04360052186503"><ele>318.0</ele><time>2026-04-18T12:35:30Z</time></trkpt><trkpt lat="43.46599677300556" lon="12.04394520348191"><ele>318.0</ele><time>2026-04-18T12:35:31Z</time></trkpt><trkpt lat="43.46609661042152" lon="12.044291555275827"><ele>318.0</ele><time>2026-04-18T12:35:32Z</time></trkpt><trkpt lat="43.46619446154093" lon="12.044636459259952"><ele>318.0</ele><time>2026-04-18T12:35:33Z</time></trkpt><trkpt lat="43.46629604788606" lon="12.044981078491471"><ele>325.0</ele><time>2026-04-18T12:35:34Z</time></trkpt><trkpt lat="43.46639686339784" lon="12.045324964027648"><ele>332.0</ele><time>2026-04-18T12:35:35Z</time></trkpt><trkpt lat="43.46649505187516" lon="12.045669246424326"><ele>329.0</ele><time>2026-04-18T12:35:36Z</time></trkpt><trkpt lat="43.4665946650864" lon="12.046015556077753"><ele>326.0</ele><time>2026-04-18T12:35:37Z</time></trkpt><trkpt lat="43.46669392770915" lon="12.046359905788478"><ele>322.5</ele><time>2026-04-18T12:35:38Z</time></trkpt><trkpt lat="43.4667886937794" lon="12.046704759721548"><ele>319.0</ele><time>2026-04-18T12:35:39Z</time></trkpt><trkpt lat="43.466880041796564" lon="12.04705085251279"><ele>319.0</ele><time>2026-04-18T12:35:40Z</time></trkpt><trkpt lat="43.466972523933045" lon="12.047399534735808"><ele>319.0</ele><time>2026-04-18T12:35:41Z</time></trkpt><trkpt lat="43.467069380692685" lon="12.047744708119136"><ele>317.5</ele><time>2026-04-18T12:35:42Z</time></trkpt><trkpt lat="43.467169947900665" lon="12.048088510054203"><ele>316.0</ele><time>2026-04-18T12:35:43Z</time></trkpt><trkpt lat="43.46727636650792" lon="12.048433795950794"><ele>316.0</ele><time>2026-04-18T12:35:44Z</time></trkpt><trkpt lat="43.467390713893344" lon="12.048772361977685"><ele>316.0</ele><time>2026-04-18T12:35:45Z</time></trkpt><trkpt lat="43.46751812106799" lon="12.04910309085022"><ele>315.5</ele><time>2026-04-18T12:35:46Z</time></trkpt><trkpt lat="43.46765682160135" lon="12.04942561294508"><ele>315.0</ele><time>2026-04-18T12:35:47Z</time></trkpt><trkpt lat="43.46780510445177" lon="12.049737688247674"><ele>317.5</ele><time>2026-04-18T12:35:48Z</time></trkpt><trkpt lat="43.467961265534214" lon="12.050042379824035"><ele>320.0</ele><time>2026-04-18T12:35:49Z</time></trkpt><trkpt lat="43.46812111862556" lon="12.050337570606715"><ele>320.0</ele><time>2026-04-18T12:35:50Z</time></trkpt><trkpt lat="43.46828737744039" lon="12.050620774280793"><ele>320.0</ele><time>2026-04-18T12:35:51Z</time></trkpt><trkpt lat="43.46846144980415" lon="12.050891004178164"><ele>320.0</ele><time>2026-04-18T12:35:52Z</time></trkpt><trkpt lat="43.46864251494289" lon="12.051147965091928"><ele>320.0</ele><time>2026-04-18T12:35:53Z</time></trkpt><trkpt lat="43.46883449369245" lon="12.051392967479003"><ele>317.5</ele><time>2026-04-18T12:35:54Z</time></trkpt><trkpt lat="43.46903462724573" lon="12.051629626303626"><ele>315.0</ele><time>2026-04-18T12:35:55Z</time></trkpt><trkpt lat="43.46924566535916" lon="12.051855849778764"><ele>315.0</ele><time>2026-04-18T12:35:56Z</time></trkpt><trkpt lat="43.469462911661886" lon="12.05207114796409"><ele>315.0</ele><time>2026-04-18T12:35:57Z</time></trkpt><trkpt lat="43.46968847860039" lon="12.052276836789549"><ele>314.5</ele><time>2026-04-18T12:35:58Z</time></trkpt><trkpt lat="43.46992278753641" lon="12.052467660390887"><ele>314.0</ele><time>2026-04-18T12:35:59Z</time></trkpt><trkpt lat="43.47016123599201" lon="12.052654936665629"><ele>314.0</ele><time>2026-04-18T12:36:00Z</time></trkpt><trkpt lat="43.470404050496576" lon="12.052832866782525"><ele>314.0</ele><time>2026-04-18T12:36:01Z</time></trkpt><trkpt lat="43.47064460000351" lon="12.05300849200477"><ele>314.5</ele><time>2026-04-18T12:36:02Z</time></trkpt><trkpt lat="43.470884731772685" lon="12.053184886172213"><ele>315.0</ele><time>2026-04-18T12:36:03Z</time></trkpt><trkpt lat="43.47112407081389" lon="12.053362755342105"><ele>314.5</ele><time>2026-04-18T12:36:04Z</time></trkpt><trkpt lat="43.47136155043283" lon="12.05354361656504"><ele>314.0</ele><time>2026-04-18T12:36:05Z</time></trkpt><trkpt lat="43.47160011949222" lon="12.05372239180856"><ele>314.0</ele><time>2026-04-18T12:36:06Z</time></trkpt><trkpt lat="43.47183684185256" lon="12.053899215528006"><ele>314.0</ele><time>2026-04-18T12:36:07Z</time></trkpt><trkpt lat="43.47207569880444" lon="12.054073725836416"><ele>313.0</ele><time>2026-04-18T12:36:08Z</time></trkpt><trkpt lat="43.472313844171985" lon="12.054248327296209"><ele>312.0</ele><time>2026-04-18T12:36:09Z</time></trkpt><trkpt lat="43.47255200007256" lon="12.054423215172378"><ele>312.0</ele><time>2026-04-18T12:36:10Z</time></trkpt><trkpt lat="43.47278878509969" lon="12.05459875771324"><ele>312.0</ele><time>2026-04-18T12:36:11Z</time></trkpt><trkpt lat="43.47302713370173" lon="12.054774750931003"><ele>312.0</ele><time>2026-04-18T12:36:12Z</time></trkpt><trkpt lat="43.47326503935817" lon="12.054950851480589"><ele>312.0</ele><time>2026-04-18T12:36:13Z</time></trkpt><trkpt lat="43.473507068682984" lon="12.055126898932723"><ele>311.5</ele><time>2026-04-18T12:36:14Z</time></trkpt><trkpt lat="43.47374855458201" lon="12.05530397732852"><ele>311.0</ele><time>2026-04-18T12:36:15Z</time></trkpt><trkpt lat="43.47398807287717" lon="12.055482392614685"><ele>310.5</ele><time>2026-04-18T12:36:16Z</time></trkpt><trkpt lat="43.47422771611191" lon="12.055654959219058"><ele>310.0</ele><time>2026-04-18T12:36:17Z</time></trkpt><trkpt lat="43.47446526879966" lon="12.055828383411052"><ele>312.0</ele><time>2026-04-18T12:36:18Z</time></trkpt><trkpt lat="43.47470213025975" lon="12.056001761382568"><ele>314.0</ele><time>2026-04-18T12:36:19Z</time></trkpt><trkpt lat="43.474936172249755" lon="12.056176775562896"><ele>314.0</ele><time>2026-04-18T12:36:20Z</time></trkpt><trkpt lat="43.47516484108777" lon="12.056363363226142"><ele>314.0</ele><time>2026-04-18T12:36:21Z</time></trkpt><trkpt lat="43.475382995956274" lon="12.056571516202625"><ele>313.0</ele><time>2026-04-18T12:36:22Z</time></trkpt><trkpt lat="43.47558992448579" lon="12.056798054649144"><ele>312.0</ele><time>2026-04-18T12:36:23Z</time></trkpt><trkpt lat="43.4757865863947" lon="12.057037765905157"><ele>312.0</ele><time>2026-04-18T12:36:24Z</time></trkpt><trkpt lat="43.47597258836859" lon="12.057290698582777"><ele>312.0</ele><time>2026-04-18T12:36:25Z</time></trkpt><trkpt lat="43.47614494857109" lon="12.057560358560146"><ele>312.5</ele><time>2026-04-18T12:36:26Z</time></trkpt><trkpt lat="43.47630268258979" lon="12.057840683552866"><ele>313.0</ele><time>2026-04-18T12:36:27Z</time></trkpt><trkpt lat="43.47643979835427" lon="12.058118842075531"><ele>312.66666666666663</ele><time>2026-04-18T12:36:28Z</time></trkpt><trkpt lat="43.47655974976499" lon="12.058386447812124"><ele>312.3333333333333</ele><time>2026-04-18T12:36:29Z</time></trkpt><trkpt lat="43.47666416242548" lon="12.058652203404334"><ele>312.0</ele><time>2026-04-18T12:36:30Z</time></trkpt><trkpt lat="43.4767577698538" lon="12.058920764419678"><ele>311.3333333333333</ele><time>2026-04-18T12:36:31Z</time></trkpt><trkpt lat="43.476846124871216" lon="12.05919971208036"><ele>310.66666666666663</ele><time>2026-04-18T12:36:32Z</time></trkpt><trkpt lat="43.47692223930185" lon="12.059487139395765"><ele>310.0</ele><time>2026-04-18T12:36:33Z</time></trkpt><trkpt lat="43.47698743562646" lon="12.059778145996935"><ele>310.0</ele><time>2026-04-18T12:36:34Z</time></trkpt><trkpt lat="43.477045515947665" lon="12.060059916497728"><ele>310.0</ele><time>2026-04-18T12:36:35Z</time></trkpt><trkpt lat="43.47710334432093" lon="12.060326174111811"><ele>310.0</ele><time>2026-04-18T12:36:36Z</time></trkpt><trkpt lat="43.47715806685358" lon="12.060579153014865"><ele>309.66666666666663</ele><time>2026-04-18T12:36:37Z</time></trkpt><trkpt lat="43.47721241109914" lon="12.060829607817444"><ele>309.3333333333333</ele><time>2026-04-18T12:36:38Z</time></trkpt><trkpt lat="43.477264615585746" lon="12.061076720236624"><ele>309.0</ele><time>2026-04-18T12:36:39Z</time></trkpt><trkpt lat="43.477322845326945" lon="12.061318707464322"><ele>309.0</ele><time>2026-04-18T12:36:40Z</time></trkpt><trkpt lat="43.47738395695895" lon="12.061548882036247"><ele>309.0</ele><time>2026-04-18T12:36:41Z</time></trkpt><trkpt lat="43.47744323027229" lon="12.061765414029713"><ele>309.0</ele><time>2026-04-18T12:36:42Z</time></trkpt><trkpt lat="43.47751090547493" lon="12.061967833451785"><ele>309.0</ele><time>2026-04-18T12:36:43Z</time></trkpt><trkpt lat="43.477593372283096" lon="12.06215202013085"><ele>309.0</ele><time>2026-04-18T12:36:44Z</time></trkpt><trkpt lat="43.47770040397215" lon="12.062317247976921"><ele>309.0</ele><time>2026-04-18T12:36:45Z</time></trkpt><trkpt lat="43.47783250445101" lon="12.062456334353575"><ele>309.0</ele><time>2026-04-18T12:36:46Z</time></trkpt><trkpt lat="43.47798427404367" lon="12.062556178899634"><ele>309.0</ele><time>2026-04-18T12:36:47Z</time></trkpt><trkpt lat="43.4781459805844" lon="12.062615856944449"><ele>309.0</ele><time>2026-04-18T12:36:48Z</time></trkpt><trkpt lat="43.47831261595343" lon="12.062643951235435"><ele>309.0</ele><time>2026-04-18T12:36:49Z</time></trkpt><trkpt lat="43.478478403733746" lon="12.062629370882862"><ele>309.0</ele><time>2026-04-18T12:36:50Z</time></trkpt><trkpt lat="43.478644214379464" lon="12.062584995391678"><ele>309.0</ele><time>2026-04-18T12:36:51Z</time></trkpt><trkpt lat="43.47881184800207" lon="12.06252092654103"><ele>308.6666666666667</ele><time>2026-04-18T12:36:52Z</time></trkpt><trkpt lat="43.478977315974895" lon="12.062455781121132"><ele>308.33333333333337</ele><time>2026-04-18T12:36:53Z</time></trkpt><trkpt lat="43.47913071086246" lon="12.062400886065522"><ele>308.0</ele><time>2026-04-18T12:36:54Z</time></trkpt><trkpt lat="43.47927636681034" lon="12.06234797002469"><ele>308.0</ele><time>2026-04-18T12:36:55Z</time></trkpt><trkpt lat="43.47941784689676" lon="12.062298647748179"><ele>308.0</ele><time>2026-04-18T12:36:56Z</time></trkpt><trkpt lat="43.47955406263829" lon="12.06225269544076"><ele>308.0</ele><time>2026-04-18T12:36:57Z</time></trkpt><trkpt lat="43.47968788930468" lon="12.062216492662033"><ele>308.0</ele><time>2026-04-18T12:36:58Z</time></trkpt><trkpt lat="43.47982371233112" lon="12.062213351788932"><ele>308.5</ele><time>2026-04-18T12:36:59Z</time></trkpt><trkpt lat="43.479960540961144" lon="12.06225575922633"><ele>309.0</ele><time>2026-04-18T12:37:00Z</time></trkpt><trkpt lat="43.4800822639396" lon="12.06236311151302"><ele>309.5</ele><time>2026-04-18T12:37:01Z</time></trkpt><trkpt lat="43.4801936298075" lon="12.062477975451642"><ele>310.0</ele><time>2026-04-18T12:37:02Z</time></trkpt><trkpt lat="43.48029205363518" lon="12.062627498607771"><ele>310.0</ele><time>2026-04-18T12:37:03Z</time></trkpt><trkpt lat="43.48038358200531" lon="12.062800397815016"><ele>310.0</ele><time>2026-04-18T12:37:04Z</time></trkpt><trkpt lat="43.480465966351716" lon="12.062989207996488"><ele>310.0</ele><time>2026-04-18T12:37:05Z</time></trkpt><trkpt lat="43.48054061293096" lon="12.063191643910008"><ele>313.3333333333333</ele><time>2026-04-18T12:37:06Z</time></trkpt><trkpt lat="43.48061572732528" lon="12.063403876954814"><ele>316.6666666666667</ele><time>2026-04-18T12:37:07Z</time></trkpt><trkpt lat="43.48068647895928" lon="12.063635144325362"><ele>320.0</ele><time>2026-04-18T12:37:08Z</time></trkpt><trkpt lat="43.48075433966196" lon="12.063893930829416"><ele>317.6666666666667</ele><time>2026-04-18T12:37:09Z</time></trkpt><trkpt lat="43.48081763582112" lon="12.064176790783561"><ele>315.3333333333333</ele><time>2026-04-18T12:37:10Z</time></trkpt><trkpt lat="43.48086518071834" lon="12.064482265968781"><ele>313.0</ele><time>2026-04-18T12:37:11Z</time></trkpt><trkpt lat="43.48090374725053" lon="12.064785195301484"><ele>312.3333333333333</ele><time>2026-04-18T12:37:12Z</time></trkpt><trkpt lat="43.48094094055837" lon="12.065082672938996"><ele>311.6666666666667</ele><time>2026-04-18T12:37:13Z</time></trkpt><trkpt lat="43.48098173363957" lon="12.065377344305164"><ele>311.0</ele><time>2026-04-18T12:37:14Z</time></trkpt><trkpt lat="43.48102371830676" lon="12.065665740674755"><ele>310.6666666666667</ele><time>2026-04-18T12:37:15Z</time></trkpt><trkpt lat="43.481065903609604" lon="12.065952290734947"><ele>310.3333333333333</ele><time>2026-04-18T12:37:16Z</time></trkpt><trkpt lat="43.48110570488872" lon="12.066236846166936"><ele>310.0</ele><time>2026-04-18T12:37:17Z</time></trkpt><trkpt lat="43.481136040670656" lon="12.066520158871668"><ele>309.66666666666663</ele><time>2026-04-18T12:37:18Z</time></trkpt><trkpt lat="43.48115220295177" lon="12.06680093187778"><ele>309.3333333333333</ele><time>2026-04-18T12:37:19Z</time></trkpt><trkpt lat="43.48115614420284" lon="12.067080040559466"><ele>309.0</ele><time>2026-04-18T12:37:20Z</time></trkpt><trkpt lat="43.48115597423625" lon="12.06735379279714"><ele>308.6666666666667</ele><time>2026-04-18T12:37:21Z</time></trkpt><trkpt lat="43.48115479893184" lon="12.067628730632723"><ele>308.33333333333337</ele><time>2026-04-18T12:37:22Z</time></trkpt><trkpt lat="43.481159090741116" lon="12.067905182585015"><ele>308.0</ele><time>2026-04-18T12:37:23Z</time></trkpt><trkpt lat="43.481168929868254" lon="12.068179429510849"><ele>308.0</ele><time>2026-04-18T12:37:24Z</time></trkpt><trkpt lat="43.48118700172748" lon="12.068447048268192"><ele>308.0</ele><time>2026-04-18T12:37:25Z</time></trkpt><trkpt lat="43.48121560560996" lon="12.06871020333029"><ele>308.0</ele><time>2026-04-18T12:37:26Z</time></trkpt><trkpt lat="43.481255814956675" lon="12.068970450463326"><ele>311.6666666666667</ele><time>2026-04-18T12:37:27Z</time></trkpt><trkpt lat="43.48130517224096" lon="12.069228184580403"><ele>315.3333333333333</ele><time>2026-04-18T12:37:28Z</time></trkpt><trkpt lat="43.481367900768404" lon="12.069479114815369"><ele>319.0</ele><time>2026-04-18T12:37:29Z</time></trkpt><trkpt lat="43.48143564468331" lon="12.069729065356215"><ele>316.0</ele><time>2026-04-18T12:37:30Z</time></trkpt><trkpt lat="43.48151243728519" lon="12.069975793644725"><ele>313.0</ele><time>2026-04-18T12:37:31Z</time></trkpt><trkpt lat="43.481600846205495" lon="12.070215622821676"><ele>310.0</ele><time>2026-04-18T12:37:32Z</time></trkpt><trkpt lat="43.48169303069742" lon="12.070449380783847"><ele>310.0</ele><time>2026-04-18T12:37:33Z</time></trkpt><trkpt lat="43.48178369224307" lon="12.070682043792024"><ele>310.0</ele><time>2026-04-18T12:37:34Z</time></trkpt><trkpt lat="43.48187496642325" lon="12.070914423600199"><ele>310.0</ele><time>2026-04-18T12:37:35Z</time></trkpt><trkpt lat="43.48196594507497" lon="12.071146587610226"><ele>310.0</ele><time>2026-04-18T12:37:36Z</time></trkpt><trkpt lat="43.48205708197725" lon="12.071375560777089"><ele>310.0</ele><time>2026-04-18T12:37:37Z</time></trkpt><trkpt lat="43.48214640475828" lon="12.071605152082089"><ele>310.0</ele><time>2026-04-18T12:37:38Z</time></trkpt><trkpt lat="43.48223798745697" lon="12.071831594451853"><ele>311.66666666666663</ele><time>2026-04-18T12:37:39Z</time></trkpt><trkpt lat="43.48232636755817" lon="12.072057701281116"><ele>313.3333333333333</ele><time>2026-04-18T12:37:40Z</time></trkpt><trkpt lat="43.482413355127626" lon="12.07228261542146"><ele>315.0</ele><time>2026-04-18T12:37:41Z</time></trkpt><trkpt lat="43.48250181816897" lon="12.072507422698608"><ele>315.0</ele><time>2026-04-18T12:37:42Z</time></trkpt><trkpt lat="43.4825902009756" lon="12.072729180416705"><ele>315.0</ele><time>2026-04-18T12:37:43Z</time></trkpt><trkpt lat="43.48268108141162" lon="12.07294809609393"><ele>315.0</ele><time>2026-04-18T12:37:44Z</time></trkpt><trkpt lat="43.48277400239297" lon="12.073160695130852"><ele>316.3333333333333</ele><time>2026-04-18T12:37:45Z</time></trkpt><trkpt lat="43.48286899720592" lon="12.07336933214892"><ele>317.66666666666663</ele><time>2026-04-18T12:37:46Z</time></trkpt><trkpt lat="43.48296933863798" lon="12.073571415911749"><ele>319.0</ele><time>2026-04-18T12:37:47Z</time></trkpt><trkpt lat="43.48307174274105" lon="12.073770237368551"><ele>319.0</ele><time>2026-04-18T12:37:48Z</time></trkpt><trkpt lat="43.48318031174689" lon="12.073963962672542"><ele>319.0</ele><time>2026-04-18T12:37:49Z</time></trkpt><trkpt lat="43.48329657613662" lon="12.074148916906763"><ele>319.0</ele><time>2026-04-18T12:37:50Z</time></trkpt><trkpt lat="43.48341390266693" lon="12.074334042227726"><ele>317.66666666666663</ele><time>2026-04-18T12:37:51Z</time></trkpt><trkpt lat="43.48352768358107" lon="12.0745197964321"><ele>316.3333333333333</ele><time>2026-04-18T12:37:52Z</time></trkpt><trkpt lat="43.483628900213525" lon="12.074706972328924"><ele>315.0</ele><time>2026-04-18T12:37:53Z</time></trkpt><trkpt lat="43.483719772703346" lon="12.074893984463987"><ele>316.0</ele><time>2026-04-18T12:37:54Z</time></trkpt><trkpt lat="43.483796423427854" lon="12.075083587927704"><ele>317.0</ele><time>2026-04-18T12:37:55Z</time></trkpt><trkpt lat="43.483863732616044" lon="12.075274818886067"><ele>318.0</ele><time>2026-04-18T12:37:56Z</time></trkpt><trkpt lat="43.483923964200066" lon="12.075465602197632"><ele>318.0</ele><time>2026-04-18T12:37:57Z</time></trkpt><trkpt lat="43.48399044341059" lon="12.07565194454432"><ele>318.0</ele><time>2026-04-18T12:37:58Z</time></trkpt><trkpt lat="43.48405076823541" lon="12.075825901550504"><ele>318.0</ele><time>2026-04-18T12:37:59Z</time></trkpt><trkpt lat="43.48411152165216" lon="12.075995075029148"><ele>318.0</ele><time>2026-04-18T12:38:00Z</time></trkpt><trkpt lat="43.4841705465951" lon="12.07615862628739"><ele>317.0</ele><time>2026-04-18T12:38:01Z</time></trkpt><trkpt lat="43.48422352012397" lon="12.07630668592408"><ele>316.0</ele><time>2026-04-18T12:38:02Z</time></trkpt><trkpt lat="43.48427265443948" lon="12.076445335539214"><ele>315.0</ele><time>2026-04-18T12:38:03Z</time></trkpt><trkpt lat="43.48431570330868" lon="12.076566699558159"><ele>314.0</ele><time>2026-04-18T12:38:04Z</time></trkpt><trkpt lat="43.48434676264358" lon="12.076657554513515"><ele>313.0</ele><time>2026-04-18T12:38:05Z</time></trkpt><trkpt lat="43.4843971720838" lon="12.076805539989435"><ele>312.2</ele><time>2026-04-18T12:38:07Z</time></trkpt><trkpt lat="43.484451476661356" lon="12.076962650357729"><ele>311.4</ele><time>2026-04-18T12:38:09Z</time></trkpt><trkpt lat="43.48448358608134" lon="12.0770581638454"><ele>310.59999999999997</ele><time>2026-04-18T12:38:10Z</time></trkpt><trkpt lat="43.484514615014795" lon="12.077141866417367"><ele>309.8</ele><time>2026-04-18T12:38:11Z</time></trkpt><trkpt lat="43.48454218662606" lon="12.077222512840676"><ele>309.0</ele><time>2026-04-18T12:38:12Z</time></trkpt><trkpt lat="43.48459497229584" lon="12.077384216742079"><ele>310.1666666666667</ele><time>2026-04-18T12:38:14Z</time></trkpt><trkpt lat="43.48462881101996" lon="12.07747540915876"><ele>311.3333333333333</ele><time>2026-04-18T12:38:15Z</time></trkpt><trkpt lat="43.4846596686964" lon="12.077575587738506"><ele>312.5</ele><time>2026-04-18T12:38:16Z</time></trkpt><trkpt lat="43.48469969162468" lon="12.077682347972523"><ele>313.66666666666663</ele><time>2026-04-18T12:38:17Z</time></trkpt><trkpt lat="43.48473790746903" lon="12.07779210916607"><ele>314.8333333333333</ele><time>2026-04-18T12:38:18Z</time></trkpt><trkpt lat="43.48478064836109" lon="12.077901724165898"><ele>316.0</ele><time>2026-04-18T12:38:19Z</time></trkpt><trkpt lat="43.48483451486792" lon="12.07800415071491"><ele>316.0</ele><time>2026-04-18T12:38:20Z</time></trkpt><trkpt lat="43.484899278306216" lon="12.078104007524374"><ele>316.0</ele><time>2026-04-18T12:38:21Z</time></trkpt><trkpt lat="43.48497228627148" lon="12.078193487270394"><ele>316.0</ele><time>2026-04-18T12:38:22Z</time></trkpt><trkpt lat="43.48504963030991" lon="12.078274751312543"><ele>316.0</ele><time>2026-04-18T12:38:23Z</time></trkpt><trkpt lat="43.48512993067517" lon="12.078353199051739"><ele>316.0</ele><time>2026-04-18T12:38:24Z</time></trkpt><trkpt lat="43.48519633017115" lon="12.078455764590016"><ele>314.25</ele><time>2026-04-18T12:38:25Z</time></trkpt><trkpt lat="43.4852327133452" lon="12.07858626442404"><ele>312.5</ele><time>2026-04-18T12:38:26Z</time></trkpt><trkpt lat="43.485261242881776" lon="12.078742676210306"><ele>310.75</ele><time>2026-04-18T12:38:27Z</time></trkpt><trkpt lat="43.48530647932436" lon="12.078916089985166"><ele>309.0</ele><time>2026-04-18T12:38:28Z</time></trkpt><trkpt lat="43.48536239949504" lon="12.0790997974726"><ele>310.0</ele><time>2026-04-18T12:38:29Z</time></trkpt><trkpt lat="43.48543196948382" lon="12.0792723520467"><ele>311.0</ele><time>2026-04-18T12:38:30Z</time></trkpt><trkpt lat="43.48550915370076" lon="12.079449093671114"><ele>312.0</ele><time>2026-04-18T12:38:31Z</time></trkpt><trkpt lat="43.48559731481661" lon="12.079630433913481"><ele>312.0</ele><time>2026-04-18T12:38:31.999Z</time></trkpt><trkpt lat="43.485714190545906" lon="12.079814011837474"><ele>312.0</ele><time>2026-04-18T12:38:32.999Z</time></trkpt><trkpt lat="43.4858565926607" lon="12.079987359111868"><ele>312.0</ele><time>2026-04-18T12:38:33.999Z</time></trkpt><trkpt lat="43.485993137079205" lon="12.080157443755406"><ele>311.0</ele><time>2026-04-18T12:38:34.999Z</time></trkpt><trkpt lat="43.486120183484104" lon="12.080341067844115"><ele>310.0</ele><time>2026-04-18T12:38:35.999Z</time></trkpt><trkpt lat="43.486235620836055" lon="12.080547352193163"><ele>309.0</ele><time>2026-04-18T12:38:36.999Z</time></trkpt><trkpt lat="43.48634552122994" lon="12.080767979287671"><ele>308.3333333333333</ele><time>2026-04-18T12:38:37.999Z</time></trkpt><trkpt lat="43.48644527776106" lon="12.080998802866121"><ele>307.66666666666663</ele><time>2026-04-18T12:38:38.999Z</time></trkpt><trkpt lat="43.48654419277721" lon="12.081227517882956"><ele>307.0</ele><time>2026-04-18T12:38:39.999Z</time></trkpt><trkpt lat="43.48664504713018" lon="12.081458413749518"><ele>306.66666666666663</ele><time>2026-04-18T12:38:40.999Z</time></trkpt><trkpt lat="43.486742623417776" lon="12.081685626496729"><ele>306.3333333333333</ele><time>2026-04-18T12:38:41.999Z</time></trkpt><trkpt lat="43.48684363296286" lon="12.0819087168992"><ele>306.0</ele><time>2026-04-18T12:38:42.999Z</time></trkpt><trkpt lat="43.48694305440306" lon="12.08212944325074"><ele>306.0</ele><time>2026-04-18T12:38:43.999Z</time></trkpt><trkpt lat="43.487036222743036" lon="12.08235749450456"><ele>306.0</ele><time>2026-04-18T12:38:44.999Z</time></trkpt><trkpt lat="43.48714363191745" lon="12.082576406997338"><ele>306.0</ele><time>2026-04-18T12:38:45.999Z</time></trkpt><trkpt lat="43.487260281684186" lon="12.082793364180716"><ele>306.3333333333333</ele><time>2026-04-18T12:38:46.999Z</time></trkpt><trkpt lat="43.487374093027555" lon="12.083000116831377"><ele>306.66666666666663</ele><time>2026-04-18T12:38:47.999Z</time></trkpt><trkpt lat="43.4874756251012" lon="12.083227949493292"><ele>307.0</ele><time>2026-04-18T12:38:48.999Z</time></trkpt><trkpt lat="43.48755051359364" lon="12.083469758883352"><ele>307.0</ele><time>2026-04-18T12:38:49.999Z</time></trkpt><trkpt lat="43.48762370509571" lon="12.083721954884735"><ele>307.0</ele><time>2026-04-18T12:38:50.999Z</time></trkpt><trkpt lat="43.48766796022589" lon="12.083992699042435"><ele>307.0</ele><time>2026-04-18T12:38:51.999Z</time></trkpt><trkpt lat="43.487708127277095" lon="12.084268314293153"><ele>306.3333333333333</ele><time>2026-04-18T12:38:52.999Z</time></trkpt><trkpt lat="43.48774449122911" lon="12.08454886899623"><ele>305.6666666666667</ele><time>2026-04-18T12:38:53.999Z</time></trkpt><trkpt lat="43.48776745566083" lon="12.084831553518534"><ele>305.0</ele><time>2026-04-18T12:38:54.999Z</time></trkpt><trkpt lat="43.487786350173316" lon="12.085119362577885"><ele>305.0</ele><time>2026-04-18T12:38:56Z</time></trkpt><trkpt lat="43.48780099821402" lon="12.08540143527402"><ele>305.0</ele><time>2026-04-18T12:38:57Z</time></trkpt><trkpt lat="43.48781194880116" lon="12.085682684992342"><ele>305.0</ele><time>2026-04-18T12:38:58Z</time></trkpt><trkpt lat="43.48782455742408" lon="12.085962408308953"><ele>304.6666666666667</ele><time>2026-04-18T12:38:59Z</time></trkpt><trkpt lat="43.48783095779671" lon="12.086243382253468"><ele>304.3333333333333</ele><time>2026-04-18T12:39:00Z</time></trkpt><trkpt lat="43.487826832477126" lon="12.086523955313863"><ele>304.0</ele><time>2026-04-18T12:39:01Z</time></trkpt><trkpt lat="43.4878256560274" lon="12.086812787099309"><ele>304.0</ele><time>2026-04-18T12:39:01.999Z</time></trkpt><trkpt lat="43.48782362678478" lon="12.087100679430565"><ele>304.0</ele><time>2026-04-18T12:39:02.999Z</time></trkpt><trkpt lat="43.48782207669461" lon="12.087384944156348"><ele>304.0</ele><time>2026-04-18T12:39:03.999Z</time></trkpt><trkpt lat="43.4878232746058" lon="12.087670934395238"><ele>304.0</ele><time>2026-04-18T12:39:04.999Z</time></trkpt><trkpt lat="43.48782682466629" lon="12.087953475059205"><ele>304.0</ele><time>2026-04-18T12:39:05.999Z</time></trkpt><trkpt lat="43.48782936277347" lon="12.088226812933426"><ele>304.0</ele><time>2026-04-18T12:39:06.999Z</time></trkpt><trkpt lat="43.48784170357828" lon="12.088498778487272"><ele>304.3333333333333</ele><time>2026-04-18T12:39:07.999Z</time></trkpt><trkpt lat="43.487852856006015" lon="12.088773235059566"><ele>304.6666666666667</ele><time>2026-04-18T12:39:08.999Z</time></trkpt><trkpt lat="43.4878678276455" lon="12.089044669137863"><ele>305.0</ele><time>2026-04-18T12:39:09.999Z</time></trkpt><trkpt lat="43.48788501760012" lon="12.08930902448589"><ele>305.0</ele><time>2026-04-18T12:39:10.999Z</time></trkpt><trkpt lat="43.487907516857696" lon="12.089572969444822"><ele>305.0</ele><time>2026-04-18T12:39:11.999Z</time></trkpt><trkpt lat="43.48793280991192" lon="12.089819591485055"><ele>305.0</ele><time>2026-04-18T12:39:12.999Z</time></trkpt><trkpt lat="43.48795259791781" lon="12.090060666152308"><ele>306.33333333333337</ele><time>2026-04-18T12:39:13.999Z</time></trkpt><trkpt lat="43.48797072602691" lon="12.090297304551619"><ele>307.6666666666667</ele><time>2026-04-18T12:39:14.999Z</time></trkpt><trkpt lat="43.48799015498476" lon="12.09053697989924"><ele>309.0</ele><time>2026-04-18T12:39:15.999Z</time></trkpt><trkpt lat="43.48799511798613" lon="12.090771720335397"><ele>309.0</ele><time>2026-04-18T12:39:16.999Z</time></trkpt><trkpt lat="43.488014529103324" lon="12.091009631387886"><ele>309.0</ele><time>2026-04-18T12:39:17.999Z</time></trkpt><trkpt lat="43.48803285617345" lon="12.091245799498312"><ele>309.0</ele><time>2026-04-18T12:39:18.999Z</time></trkpt><trkpt lat="43.488047703720916" lon="12.091483854220288"><ele>308.3333333333333</ele><time>2026-04-18T12:39:19.999Z</time></trkpt><trkpt lat="43.48806385850596" lon="12.091722248391271"><ele>307.66666666666663</ele><time>2026-04-18T12:39:20.999Z</time></trkpt><trkpt lat="43.48807970936437" lon="12.091961441892803"><ele>307.0</ele><time>2026-04-18T12:39:21.999Z</time></trkpt><trkpt lat="43.48809924481553" lon="12.0922018910994"><ele>307.3333333333333</ele><time>2026-04-18T12:39:22.999Z</time></trkpt><trkpt lat="43.48811854051857" lon="12.092445091505258"><ele>307.6666666666667</ele><time>2026-04-18T12:39:23.999Z</time></trkpt><trkpt lat="43.48813125754982" lon="12.092688982320174"><ele>308.0</ele><time>2026-04-18T12:39:24.999Z</time></trkpt><trkpt lat="43.48814223893616" lon="12.092934786640406"><ele>308.0</ele><time>2026-04-18T12:39:25.999Z</time></trkpt><trkpt lat="43.488155723910204" lon="12.093178413248616"><ele>308.0</ele><time>2026-04-18T12:39:26.999Z</time></trkpt><trkpt lat="43.488177007417136" lon="12.093419171219132"><ele>308.0</ele><time>2026-04-18T12:39:27.999Z</time></trkpt><trkpt lat="43.48819328903527" lon="12.093661553914599"><ele>308.0</ele><time>2026-04-18T12:39:28.999Z</time></trkpt><trkpt lat="43.48821283126771" lon="12.093903853782178"><ele>308.0</ele><time>2026-04-18T12:39:29.999Z</time></trkpt><trkpt lat="43.48822581260987" lon="12.094146086737872"><ele>308.0</ele><time>2026-04-18T12:39:30.999Z</time></trkpt><trkpt lat="43.4882463401958" lon="12.094390829083528"><ele>308.0</ele><time>2026-04-18T12:39:31.999Z</time></trkpt><trkpt lat="43.48826526634492" lon="12.09463451766463"><ele>308.0</ele><time>2026-04-18T12:39:32.999Z</time></trkpt><trkpt lat="43.48828248542035" lon="12.094877954241948"><ele>308.0</ele><time>2026-04-18T12:39:33.999Z</time></trkpt><trkpt lat="43.48830070174937" lon="12.09512264552607"><ele>307.0</ele><time>2026-04-18T12:39:34.999Z</time></trkpt><trkpt lat="43.48831595162805" lon="12.095366603770605"><ele>306.0</ele><time>2026-04-18T12:39:35.999Z</time></trkpt><trkpt lat="43.48833305560516" lon="12.095612659045193"><ele>305.0</ele><time>2026-04-18T12:39:36.999Z</time></trkpt><trkpt lat="43.48834995185004" lon="12.09586338802701"><ele>304.6666666666667</ele><time>2026-04-18T12:39:37.999Z</time></trkpt><trkpt lat="43.48836586226948" lon="12.096118464459822"><ele>304.3333333333333</ele><time>2026-04-18T12:39:38.999Z</time></trkpt><trkpt lat="43.488381454797384" lon="12.096377752738253"><ele>304.0</ele><time>2026-04-18T12:39:39.999Z</time></trkpt><trkpt lat="43.48839761863699" lon="12.096637940219427"><ele>304.0</ele><time>2026-04-18T12:39:40.999Z</time></trkpt><trkpt lat="43.488413397274364" lon="12.096902261003539"><ele>304.0</ele><time>2026-04-18T12:39:41.999Z</time></trkpt><trkpt lat="43.48842760437983" lon="12.09716608168072"><ele>304.0</ele><time>2026-04-18T12:39:42.999Z</time></trkpt><trkpt lat="43.48844179623461" lon="12.097435744691742"><ele>303.66666666666663</ele><time>2026-04-18T12:39:43.999Z</time></trkpt><trkpt lat="43.488452189898965" lon="12.097704972827115"><ele>303.3333333333333</ele><time>2026-04-18T12:39:44.999Z</time></trkpt><trkpt lat="43.48845947476585" lon="12.097975320650068"><ele>303.0</ele><time>2026-04-18T12:39:45.999Z</time></trkpt><trkpt lat="43.48845751454497" lon="12.098250011527778"><ele>303.0</ele><time>2026-04-18T12:39:46.999Z</time></trkpt><trkpt lat="43.488427056029714" lon="12.098535131760286"><ele>303.0</ele><time>2026-04-18T12:39:47.999Z</time></trkpt><trkpt lat="43.488381773556014" lon="12.098821105946033"><ele>303.0</ele><time>2026-04-18T12:39:48.999Z</time></trkpt><trkpt lat="43.48833400209619" lon="12.099105532610947"><ele>303.0</ele><time>2026-04-18T12:39:49.999Z</time></trkpt><trkpt lat="43.48827602353936" lon="12.099395858790333"><ele>303.0</ele><time>2026-04-18T12:39:50.999Z</time></trkpt><trkpt lat="43.48820579453587" lon="12.09968402972127"><ele>303.0</ele><time>2026-04-18T12:39:51.999Z</time></trkpt><trkpt lat="43.48812241838973" lon="12.099963455529613"><ele>303.6666666666667</ele><time>2026-04-18T12:39:52.999Z</time></trkpt><trkpt lat="43.48803430243065" lon="12.100237669195536"><ele>304.33333333333337</ele><time>2026-04-18T12:39:53.999Z</time></trkpt><trkpt lat="43.487953528069205" lon="12.100515184353199"><ele>305.0</ele><time>2026-04-18T12:39:54.999Z</time></trkpt><trkpt lat="43.48788765784638" lon="12.100788475367285"><ele>303.6666666666667</ele><time>2026-04-18T12:39:55.999Z</time></trkpt><trkpt lat="43.487854095297145" lon="12.101045604286083"><ele>302.3333333333333</ele><time>2026-04-18T12:39:56.999Z</time></trkpt><trkpt lat="43.48785209454971" lon="12.101309513261297"><ele>301.0</ele><time>2026-04-18T12:39:57.999Z</time></trkpt><trkpt lat="43.48788020706297" lon="12.101579129282621"><ele>303.66666666666663</ele><time>2026-04-18T12:39:58.999Z</time></trkpt><trkpt lat="43.48794161372647" lon="12.101852631648459"><ele>306.3333333333333</ele><time>2026-04-18T12:39:59.999Z</time></trkpt><trkpt lat="43.488023960453816" lon="12.102126252963613"><ele>309.0</ele><time>2026-04-18T12:40:00.999Z</time></trkpt><trkpt lat="43.488091314255215" lon="12.102406766971827"><ele>307.6666666666667</ele><time>2026-04-18T12:40:01.999Z</time></trkpt><trkpt lat="43.48815884031668" lon="12.102687894692208"><ele>306.33333333333337</ele><time>2026-04-18T12:40:02.999Z</time></trkpt><trkpt lat="43.488224936984196" lon="12.102968895326702"><ele>305.0</ele><time>2026-04-18T12:40:03.999Z</time></trkpt><trkpt lat="43.48829204391588" lon="12.103248315833616"><ele>304.33333333333337</ele><time>2026-04-18T12:40:04.999Z</time></trkpt><trkpt lat="43.4883557563311" lon="12.10351862205619"><ele>303.6666666666667</ele><time>2026-04-18T12:40:05.999Z</time></trkpt><trkpt lat="43.48841770398251" lon="12.103782873358227"><ele>303.0</ele><time>2026-04-18T12:40:06.999Z</time></trkpt><trkpt lat="43.48847375018756" lon="12.104030972296423"><ele>302.6666666666667</ele><time>2026-04-18T12:40:07.999Z</time></trkpt><trkpt lat="43.48852955477779" lon="12.104272277950185"><ele>302.33333333333337</ele><time>2026-04-18T12:40:08.999Z</time></trkpt><trkpt lat="43.48857732713528" lon="12.104509952331304"><ele>302.0</ele><time>2026-04-18T12:40:09.999Z</time></trkpt><trkpt lat="43.48860976503123" lon="12.104742717161526"><ele>302.33333333333337</ele><time>2026-04-18T12:40:10.999Z</time></trkpt><trkpt lat="43.4886186925049" lon="12.10497504215767"><ele>302.6666666666667</ele><time>2026-04-18T12:40:11.999Z</time></trkpt><trkpt lat="43.488589930541245" lon="12.10519866822015"><ele>303.0</ele><time>2026-04-18T12:40:12.999Z</time></trkpt><trkpt lat="43.48854860678074" lon="12.105429593088727"><ele>303.0</ele><time>2026-04-18T12:40:13.999Z</time></trkpt><trkpt lat="43.488491326544256" lon="12.10565085482107"><ele>303.0</ele><time>2026-04-18T12:40:14.999Z</time></trkpt><trkpt lat="43.488422889707905" lon="12.10586793946278"><ele>303.0</ele><time>2026-04-18T12:40:15.999Z</time></trkpt><trkpt lat="43.48834595782335" lon="12.106082430175379"><ele>304.0</ele><time>2026-04-18T12:40:16.999Z</time></trkpt><trkpt lat="43.488255971125334" lon="12.10628282671149"><ele>305.0</ele><time>2026-04-18T12:40:17.999Z</time></trkpt><trkpt lat="43.488153146544235" lon="12.106469323638134"><ele>306.0</ele><time>2026-04-18T12:40:18.999Z</time></trkpt><trkpt lat="43.488044466700664" lon="12.106647268638802"><ele>305.0</ele><time>2026-04-18T12:40:19.999Z</time></trkpt><trkpt lat="43.48794012667314" lon="12.106832317864912"><ele>304.0</ele><time>2026-04-18T12:40:20.999Z</time></trkpt><trkpt lat="43.487836197188386" lon="12.107018047963455"><ele>303.0</ele><time>2026-04-18T12:40:21.999Z</time></trkpt><trkpt lat="43.487737137158554" lon="12.107205243199884"><ele>303.0</ele><time>2026-04-18T12:40:22.999Z</time></trkpt><trkpt lat="43.48763919769474" lon="12.107389455509974"><ele>303.0</ele><time>2026-04-18T12:40:23.999Z</time></trkpt><trkpt lat="43.487542937484925" lon="12.107572240373493"><ele>303.0</ele><time>2026-04-18T12:40:24.999Z</time></trkpt><trkpt lat="43.487449415580194" lon="12.10775226357135"><ele>304.0</ele><time>2026-04-18T12:40:25.999Z</time></trkpt><trkpt lat="43.48736106224039" lon="12.107932119619818"><ele>305.0</ele><time>2026-04-18T12:40:26.999Z</time></trkpt><trkpt lat="43.4872841908159" lon="12.108110551266357"><ele>306.0</ele><time>2026-04-18T12:40:27.999Z</time></trkpt><trkpt lat="43.487226835744536" lon="12.10829481317334"><ele>306.25</ele><time>2026-04-18T12:40:28.999Z</time></trkpt><trkpt lat="43.487198263580915" lon="12.10849091861923"><ele>306.5</ele><time>2026-04-18T12:40:29.999Z</time></trkpt><trkpt lat="43.487200138413115" lon="12.10869213610443"><ele>306.75</ele><time>2026-04-18T12:40:30.999Z</time></trkpt><trkpt lat="43.48723001025577" lon="12.108892510846426"><ele>307.0</ele><time>2026-04-18T12:40:31.999Z</time></trkpt><trkpt lat="43.487291944681964" lon="12.109088477267658"><ele>307.0</ele><time>2026-04-18T12:40:32.999Z</time></trkpt><trkpt lat="43.48737345740553" lon="12.10926898431452"><ele>307.0</ele><time>2026-04-18T12:40:33.999Z</time></trkpt><trkpt lat="43.48747575474769" lon="12.109432911544829"><ele>307.0</ele><time>2026-04-18T12:40:34.999Z</time></trkpt><trkpt lat="43.48759443090083" lon="12.109581589915386"><ele>307.0</ele><time>2026-04-18T12:40:35.999Z</time></trkpt><trkpt lat="43.48771536371366" lon="12.10972915676904"><ele>307.0</ele><time>2026-04-18T12:40:36.999Z</time></trkpt><trkpt lat="43.487815895606886" lon="12.109890026244578"><ele>307.0</ele><time>2026-04-18T12:40:37.999Z</time></trkpt><trkpt lat="43.48789398234599" lon="12.110059424043358"><ele>307.25</ele><time>2026-04-18T12:40:38.999Z</time></trkpt><trkpt lat="43.48794703315253" lon="12.110239311432297"><ele>307.5</ele><time>2026-04-18T12:40:39.999Z</time></trkpt><trkpt lat="43.487977735069144" lon="12.110420507608245"><ele>307.75</ele><time>2026-04-18T12:40:40.999Z</time></trkpt><trkpt lat="43.48798896518752" lon="12.110597545395112"><ele>308.0</ele><time>2026-04-18T12:40:41.999Z</time></trkpt><trkpt lat="43.487988167199276" lon="12.11077143915931"><ele>307.5</ele><time>2026-04-18T12:40:42.999Z</time></trkpt><trkpt lat="43.48797912501815" lon="12.110947358224518"><ele>307.0</ele><time>2026-04-18T12:40:43.999Z</time></trkpt><trkpt lat="43.487981374320626" lon="12.111132783463363"><ele>306.5</ele><time>2026-04-18T12:40:44.999Z</time></trkpt><trkpt lat="43.488009560237415" lon="12.111328207170391"><ele>306.0</ele><time>2026-04-18T12:40:45.999Z</time></trkpt><trkpt lat="43.48806833789276" lon="12.111526130024737"><ele>305.3333333333333</ele><time>2026-04-18T12:40:46.999Z</time></trkpt><trkpt lat="43.4881431092951" lon="12.111729834929928"><ele>304.66666666666663</ele><time>2026-04-18T12:40:47.999Z</time></trkpt><trkpt lat="43.48821867797852" lon="12.111935924998383"><ele>304.0</ele><time>2026-04-18T12:40:48.999Z</time></trkpt><trkpt lat="43.4882905267921" lon="12.112148623055099"><ele>304.0</ele><time>2026-04-18T12:40:50Z</time></trkpt><trkpt lat="43.48836539464475" lon="12.112365119005643"><ele>304.0</ele><time>2026-04-18T12:40:51Z</time></trkpt><trkpt lat="43.48844170091007" lon="12.112587427160165"><ele>304.0</ele><time>2026-04-18T12:40:52Z</time></trkpt><trkpt lat="43.488518240656184" lon="12.112816993233302"><ele>303.3333333333333</ele><time>2026-04-18T12:40:53Z</time></trkpt><trkpt lat="43.48859322602768" lon="12.113054983348183"><ele>302.6666666666667</ele><time>2026-04-18T12:40:54Z</time></trkpt><trkpt lat="43.48866705053689" lon="12.113298386228772"><ele>302.0</ele><time>2026-04-18T12:40:55Z</time></trkpt><trkpt lat="43.488736474419" lon="12.11354534809569"><ele>301.6666666666667</ele><time>2026-04-18T12:40:56Z</time></trkpt><trkpt lat="43.48880040856759" lon="12.113795019006346"><ele>301.3333333333333</ele><time>2026-04-18T12:40:57Z</time></trkpt><trkpt lat="43.488862344916036" lon="12.114048315347251"><ele>301.0</ele><time>2026-04-18T12:40:58Z</time></trkpt><trkpt lat="43.4889258668243" lon="12.114300239873831"><ele>301.0</ele><time>2026-04-18T12:40:59Z</time></trkpt><trkpt lat="43.48898789751281" lon="12.1145518086701"><ele>301.0</ele><time>2026-04-18T12:41:00Z</time></trkpt><trkpt lat="43.489037738900926" lon="12.114803544972709"><ele>301.0</ele><time>2026-04-18T12:41:01Z</time></trkpt><trkpt lat="43.48905801185601" lon="12.115068207922059"><ele>301.66666666666663</ele><time>2026-04-18T12:41:02Z</time></trkpt><trkpt lat="43.48903681185956" lon="12.115338334201303"><ele>302.3333333333333</ele><time>2026-04-18T12:41:03Z</time></trkpt><trkpt lat="43.48898204786777" lon="12.115609488744099"><ele>303.0</ele><time>2026-04-18T12:41:04Z</time></trkpt><trkpt lat="43.48890848444582" lon="12.115877696089136"><ele>303.0</ele><time>2026-04-18T12:41:05Z</time></trkpt><trkpt lat="43.48883561779466" lon="12.116152708907876"><ele>303.0</ele><time>2026-04-18T12:41:06Z</time></trkpt><trkpt lat="43.48877064623059" lon="12.116429509809658"><ele>303.0</ele><time>2026-04-18T12:41:07Z</time></trkpt><trkpt lat="43.48870942645064" lon="12.116705995124757"><ele>302.6666666666667</ele><time>2026-04-18T12:41:08Z</time></trkpt><trkpt lat="43.48865300739188" lon="12.116974612014529"><ele>302.33333333333337</ele><time>2026-04-18T12:41:09Z</time></trkpt><trkpt lat="43.48859650798578" lon="12.117229876875397"><ele>302.0</ele><time>2026-04-18T12:41:10Z</time></trkpt><trkpt lat="43.48853873866668" lon="12.117474440783397"><ele>302.6666666666667</ele><time>2026-04-18T12:41:11Z</time></trkpt><trkpt lat="43.48847772734365" lon="12.117709398069202"><ele>303.3333333333333</ele><time>2026-04-18T12:41:12Z</time></trkpt><trkpt lat="43.48841414049655" lon="12.117939382505392"><ele>304.0</ele><time>2026-04-18T12:41:13Z</time></trkpt><trkpt lat="43.488350221965234" lon="12.118154730743177"><ele>304.0</ele><time>2026-04-18T12:41:14Z</time></trkpt><trkpt lat="43.48828573033079" lon="12.118357880847503"><ele>304.0</ele><time>2026-04-18T12:41:15Z</time></trkpt><trkpt lat="43.48822084486004" lon="12.118560872115019"><ele>304.0</ele><time>2026-04-18T12:41:16Z</time></trkpt><trkpt lat="43.488152507841015" lon="12.118775279750377"><ele>304.0</ele><time>2026-04-18T12:41:17Z</time></trkpt><trkpt lat="43.48808098858964" lon="12.118997306121173"><ele>304.0</ele><time>2026-04-18T12:41:18Z</time></trkpt><trkpt lat="43.48800276089205" lon="12.119222255103814"><ele>304.0</ele><time>2026-04-18T12:41:19Z</time></trkpt><trkpt lat="43.487932403795604" lon="12.119454558652617"><ele>303.0</ele><time>2026-04-18T12:41:20Z</time></trkpt><trkpt lat="43.487864079571246" lon="12.119716807313074"><ele>302.0</ele><time>2026-04-18T12:41:21Z</time></trkpt><trkpt lat="43.48780209168031" lon="12.120001269948057"><ele>301.0</ele><time>2026-04-18T12:41:22Z</time></trkpt><trkpt lat="43.48773799078556" lon="12.12029281483803"><ele>301.0</ele><time>2026-04-18T12:41:23Z</time></trkpt><trkpt lat="43.48767873497859" lon="12.120578999059672"><ele>301.0</ele><time>2026-04-18T12:41:24Z</time></trkpt><trkpt lat="43.48762067978793" lon="12.120846023747742"><ele>301.0</ele><time>2026-04-18T12:41:25Z</time></trkpt><trkpt lat="43.48756371531286" lon="12.121101894003292"><ele>301.3333333333333</ele><time>2026-04-18T12:41:26Z</time></trkpt><trkpt lat="43.48751248370322" lon="12.121342142121136"><ele>301.6666666666667</ele><time>2026-04-18T12:41:27Z</time></trkpt><trkpt lat="43.48746105202158" lon="12.121576552609168"><ele>302.0</ele><time>2026-04-18T12:41:28Z</time></trkpt><trkpt lat="43.4874009903354" lon="12.121817782984623"><ele>302.33333333333337</ele><time>2026-04-18T12:41:29Z</time></trkpt><trkpt lat="43.48733193851179" lon="12.122059974338852"><ele>302.6666666666667</ele><time>2026-04-18T12:41:30Z</time></trkpt><trkpt lat="43.487266475332596" lon="12.122299805044058"><ele>303.0</ele><time>2026-04-18T12:41:31Z</time></trkpt><trkpt lat="43.48720338891793" lon="12.122548634259957"><ele>302.3333333333333</ele><time>2026-04-18T12:41:32Z</time></trkpt><trkpt lat="43.48714127560739" lon="12.122804096747108"><ele>301.66666666666663</ele><time>2026-04-18T12:41:33Z</time></trkpt><trkpt lat="43.48707535480502" lon="12.123069527134792"><ele>301.0</ele><time>2026-04-18T12:41:34Z</time></trkpt><trkpt lat="43.487006523851555" lon="12.123337002603357"><ele>300.66666666666663</ele><time>2026-04-18T12:41:35Z</time></trkpt><trkpt lat="43.48693632247203" lon="12.123594641672906"><ele>300.3333333333333</ele><time>2026-04-18T12:41:36Z</time></trkpt><trkpt lat="43.48687220639639" lon="12.123831849665834"><ele>300.0</ele><time>2026-04-18T12:41:37Z</time></trkpt><trkpt lat="43.486812091927035" lon="12.124069465594665"><ele>301.0</ele><time>2026-04-18T12:41:38Z</time></trkpt><trkpt lat="43.4867565336598" lon="12.124278301416236"><ele>302.0</ele><time>2026-04-18T12:41:39Z</time></trkpt><trkpt lat="43.486702063125875" lon="12.124482468226535"><ele>303.0</ele><time>2026-04-18T12:41:40Z</time></trkpt><trkpt lat="43.48664850628446" lon="12.124675406924045"><ele>303.0</ele><time>2026-04-18T12:41:41Z</time></trkpt><trkpt lat="43.486598628481616" lon="12.124858803525472"><ele>303.0</ele><time>2026-04-18T12:41:42Z</time></trkpt><trkpt lat="43.48655695440178" lon="12.125036411663793"><ele>303.0</ele><time>2026-04-18T12:41:43Z</time></trkpt><trkpt lat="43.48652163908865" lon="12.125200164172629"><ele>303.0</ele><time>2026-04-18T12:41:44Z</time></trkpt><trkpt lat="43.48648516156161" lon="12.12533861327346"><ele>303.6</ele><time>2026-04-18T12:41:45Z</time></trkpt><trkpt lat="43.486453217623286" lon="12.125461874367499"><ele>304.20000000000005</ele><time>2026-04-18T12:41:46Z</time></trkpt><trkpt lat="43.48642550632926" lon="12.125571135113486"><ele>304.8</ele><time>2026-04-18T12:41:47Z</time></trkpt><trkpt lat="43.486396394375504" lon="12.125680003149673"><ele>305.40000000000003</ele><time>2026-04-18T12:41:48Z</time></trkpt><trkpt lat="43.48636610893371" lon="12.125801334114255"><ele>306.0</ele><time>2026-04-18T12:41:49Z</time></trkpt><trkpt lat="43.48633271009659" lon="12.12593321661654"><ele>305.8</ele><time>2026-04-18T12:41:50Z</time></trkpt><trkpt lat="43.486297890146034" lon="12.126070576124718"><ele>305.6</ele><time>2026-04-18T12:41:51Z</time></trkpt><trkpt lat="43.48626264732544" lon="12.126207354290491"><ele>305.4</ele><time>2026-04-18T12:41:52Z</time></trkpt><trkpt lat="43.486231648756544" lon="12.126348857376104"><ele>305.2</ele><time>2026-04-18T12:41:53Z</time></trkpt><trkpt lat="43.48620494148993" lon="12.12650064121254"><ele>305.0</ele><time>2026-04-18T12:41:54Z</time></trkpt><trkpt lat="43.48618368844552" lon="12.126649829749443"><ele>305.0</ele><time>2026-04-18T12:41:55Z</time></trkpt><trkpt lat="43.48616838241737" lon="12.126794029958255"><ele>305.0</ele><time>2026-04-18T12:41:56Z</time></trkpt><trkpt lat="43.486157910307035" lon="12.1269486476966"><ele>305.0</ele><time>2026-04-18T12:41:57Z</time></trkpt><trkpt lat="43.48615295720748" lon="12.127125892804468"><ele>305.0</ele><time>2026-04-18T12:41:58Z</time></trkpt><trkpt lat="43.48614267806607" lon="12.127321899807868"><ele>304.75</ele><time>2026-04-18T12:41:59Z</time></trkpt><trkpt lat="43.48612157645773" lon="12.127516494474593"><ele>304.5</ele><time>2026-04-18T12:42:00Z</time></trkpt><trkpt lat="43.48609684827624" lon="12.127707880003157"><ele>304.25</ele><time>2026-04-18T12:42:01Z</time></trkpt><trkpt lat="43.48607789139115" lon="12.127901903796086"><ele>304.0</ele><time>2026-04-18T12:42:02Z</time></trkpt><trkpt lat="43.486064468115785" lon="12.128088341295253"><ele>303.75</ele><time>2026-04-18T12:42:03Z</time></trkpt><trkpt lat="43.4860563130533" lon="12.128267936328637"><ele>303.5</ele><time>2026-04-18T12:42:04Z</time></trkpt><trkpt lat="43.486061418330756" lon="12.128444061069994"><ele>303.25</ele><time>2026-04-18T12:42:05Z</time></trkpt><trkpt lat="43.486091809344195" lon="12.128626306269588"><ele>303.0</ele><time>2026-04-18T12:42:06Z</time></trkpt><trkpt lat="43.48614424718519" lon="12.12881385403745"><ele>303.0</ele><time>2026-04-18T12:42:07Z</time></trkpt><trkpt lat="43.48621908614807" lon="12.128994947722191"><ele>303.0</ele><time>2026-04-18T12:42:08Z</time></trkpt><trkpt lat="43.48630320988307" lon="12.129154683983952"><ele>303.0</ele><time>2026-04-18T12:42:09Z</time></trkpt><trkpt lat="43.48638480295777" lon="12.129308894653002"><ele>303.0</ele><time>2026-04-18T12:42:10Z</time></trkpt><trkpt lat="43.48646285663391" lon="12.129469296839897"><ele>303.3333333333333</ele><time>2026-04-18T12:42:11Z</time></trkpt><trkpt lat="43.48654413212744" lon="12.129641333892991"><ele>303.66666666666663</ele><time>2026-04-18T12:42:12Z</time></trkpt><trkpt lat="43.48662649090014" lon="12.129821699901134"><ele>304.0</ele><time>2026-04-18T12:42:13Z</time></trkpt><trkpt lat="43.48670560321378" lon="12.130010218728575"><ele>304.0</ele><time>2026-04-18T12:42:14Z</time></trkpt><trkpt lat="43.48677974485442" lon="12.130207326617661"><ele>304.0</ele><time>2026-04-18T12:42:15Z</time></trkpt><trkpt lat="43.486835372286336" lon="12.13042088081924"><ele>304.0</ele><time>2026-04-18T12:42:16Z</time></trkpt><trkpt lat="43.486872128993426" lon="12.130646192927449"><ele>303.3333333333333</ele><time>2026-04-18T12:42:17Z</time></trkpt><trkpt lat="43.48689213748041" lon="12.130879772440029"><ele>302.6666666666667</ele><time>2026-04-18T12:42:18Z</time></trkpt><trkpt lat="43.4869066054379" lon="12.131111404668337"><ele>302.0</ele><time>2026-04-18T12:42:19Z</time></trkpt><trkpt lat="43.48692198648686" lon="12.131342764526119"><ele>302.0</ele><time>2026-04-18T12:42:20Z</time></trkpt><trkpt lat="43.486939149632924" lon="12.131568668819565"><ele>302.0</ele><time>2026-04-18T12:42:21Z</time></trkpt><trkpt lat="43.486958834369524" lon="12.131787327741705"><ele>302.0</ele><time>2026-04-18T12:42:22Z</time></trkpt><trkpt lat="43.486977933207754" lon="12.13199993028044"><ele>302.0</ele><time>2026-04-18T12:42:23Z</time></trkpt><trkpt lat="43.486997169788346" lon="12.132208949357233"><ele>302.0</ele><time>2026-04-18T12:42:24Z</time></trkpt><trkpt lat="43.48701474719091" lon="12.132418660198914"><ele>302.0</ele><time>2026-04-18T12:42:25Z</time></trkpt><trkpt lat="43.48703060840108" lon="12.132629187135255"><ele>301.33333333333337</ele><time>2026-04-18T12:42:26Z</time></trkpt><trkpt lat="43.4870451448234" lon="12.13284136821038"><ele>300.6666666666667</ele><time>2026-04-18T12:42:27Z</time></trkpt><trkpt lat="43.487060941847076" lon="12.133054629787232"><ele>300.0</ele><time>2026-04-18T12:42:28Z</time></trkpt><trkpt lat="43.487078142843565" lon="12.133267378303811"><ele>304.6666666666667</ele><time>2026-04-18T12:42:29Z</time></trkpt><trkpt lat="43.487095505295734" lon="12.133477671003059"><ele>309.33333333333337</ele><time>2026-04-18T12:42:30Z</time></trkpt><trkpt lat="43.487111696813315" lon="12.133688856907229"><ele>314.0</ele><time>2026-04-18T12:42:31Z</time></trkpt><trkpt lat="43.48712895347132" lon="12.13390401700459"><ele>312.33333333333337</ele><time>2026-04-18T12:42:32Z</time></trkpt><trkpt lat="43.487148972629086" lon="12.134128366152455"><ele>310.6666666666667</ele><time>2026-04-18T12:42:33Z</time></trkpt><trkpt lat="43.48717093983172" lon="12.134355292534181"><ele>309.0</ele><time>2026-04-18T12:42:34Z</time></trkpt><trkpt lat="43.487197172442045" lon="12.134584206633178"><ele>309.0</ele><time>2026-04-18T12:42:35Z</time></trkpt><trkpt lat="43.48723513320361" lon="12.134814284411581"><ele>309.0</ele><time>2026-04-18T12:42:36Z</time></trkpt><trkpt lat="43.48727954908327" lon="12.135042976500223"><ele>309.0</ele><time>2026-04-18T12:42:37Z</time></trkpt><trkpt lat="43.487329658504414" lon="12.135267205027402"><ele>308.0</ele><time>2026-04-18T12:42:38Z</time></trkpt><trkpt lat="43.487387565234826" lon="12.135483351509054"><ele>307.0</ele><time>2026-04-18T12:42:39Z</time></trkpt><trkpt lat="43.48745045576203" lon="12.135691007120414"><ele>306.0</ele><time>2026-04-18T12:42:40Z</time></trkpt><trkpt lat="43.48751423346706" lon="12.135897116155295"><ele>304.3333333333333</ele><time>2026-04-18T12:42:41Z</time></trkpt><trkpt lat="43.48757489111962" lon="12.136102018230142"><ele>302.66666666666663</ele><time>2026-04-18T12:42:42Z</time></trkpt><trkpt lat="43.487631906197414" lon="12.136307397812852"><ele>301.0</ele><time>2026-04-18T12:42:43Z</time></trkpt><trkpt lat="43.487691407716966" lon="12.136509284957482"><ele>300.0</ele><time>2026-04-18T12:42:44Z</time></trkpt><trkpt lat="43.487754433619976" lon="12.136711808379008"><ele>299.0</ele><time>2026-04-18T12:42:45Z</time></trkpt><trkpt lat="43.487828675387206" lon="12.136904057075798"><ele>298.0</ele><time>2026-04-18T12:42:46Z</time></trkpt><trkpt lat="43.48791458473985" lon="12.137083512471783"><ele>298.3333333333333</ele><time>2026-04-18T12:42:47Z</time></trkpt><trkpt lat="43.48800765510886" lon="12.13725432188697"><ele>298.6666666666667</ele><time>2026-04-18T12:42:48Z</time></trkpt><trkpt lat="43.48810392812242" lon="12.137419928466304"><ele>299.0</ele><time>2026-04-18T12:42:49Z</time></trkpt><trkpt lat="43.48820063684311" lon="12.137583939399846"><ele>299.0</ele><time>2026-04-18T12:42:50Z</time></trkpt><trkpt lat="43.488294431283016" lon="12.137745614438709"><ele>299.0</ele><time>2026-04-18T12:42:51Z</time></trkpt><trkpt lat="43.488385543726" lon="12.13790155866037"><ele>299.0</ele><time>2026-04-18T12:42:52Z</time></trkpt><trkpt lat="43.488482848775504" lon="12.138052812659117"><ele>299.0</ele><time>2026-04-18T12:42:53Z</time></trkpt><trkpt lat="43.48859985561934" lon="12.13818924332218"><ele>298.6666666666667</ele><time>2026-04-18T12:42:54Z</time></trkpt><trkpt lat="43.48874136460246" lon="12.13830040909384"><ele>298.3333333333333</ele><time>2026-04-18T12:42:55Z</time></trkpt><trkpt lat="43.48889130622127" lon="12.138412470524175"><ele>298.0</ele><time>2026-04-18T12:42:56Z</time></trkpt><trkpt lat="43.489035935596945" lon="12.138536203245723"><ele>298.0</ele><time>2026-04-18T12:42:57Z</time></trkpt><trkpt lat="43.48917509234088" lon="12.138659255681018"><ele>298.0</ele><time>2026-04-18T12:42:58Z</time></trkpt><trkpt lat="43.489306534338844" lon="12.138774841545079"><ele>298.0</ele><time>2026-04-18T12:42:59Z</time></trkpt><trkpt lat="43.4894312766727" lon="12.13888535298844"><ele>298.0</ele><time>2026-04-18T12:43:00Z</time></trkpt><trkpt lat="43.48955324497945" lon="12.138991441322327"><ele>298.0</ele><time>2026-04-18T12:43:01Z</time></trkpt><trkpt lat="43.48967068574733" lon="12.13909602600363"><ele>298.0</ele><time>2026-04-18T12:43:02Z</time></trkpt><trkpt lat="43.48978486017841" lon="12.139196764737285"><ele>298.0</ele><time>2026-04-18T12:43:03Z</time></trkpt><trkpt lat="43.489897734509434" lon="12.139299512176235"><ele>298.25</ele><time>2026-04-18T12:43:04Z</time></trkpt><trkpt lat="43.49001410798803" lon="12.139409260478871"><ele>298.5</ele><time>2026-04-18T12:43:05Z</time></trkpt><trkpt lat="43.490132638032755" lon="12.139531398684117"><ele>298.75</ele><time>2026-04-18T12:43:06Z</time></trkpt><trkpt lat="43.490246966054976" lon="12.139667418726491"><ele>299.0</ele><time>2026-04-18T12:43:07Z</time></trkpt><trkpt lat="43.49035989495391" lon="12.139812983477507"><ele>302.0</ele><time>2026-04-18T12:43:08Z</time></trkpt><trkpt lat="43.49046860291338" lon="12.139970401244707"><ele>305.0</ele><time>2026-04-18T12:43:09Z</time></trkpt><trkpt lat="43.49057125323292" lon="12.140128849671292"><ele>308.0</ele><time>2026-04-18T12:43:10Z</time></trkpt><trkpt lat="43.49066701078056" lon="12.140293901881183"><ele>308.0</ele><time>2026-04-18T12:43:11Z</time></trkpt><trkpt lat="43.49075963725099" lon="12.140461222873954"><ele>308.0</ele><time>2026-04-18T12:43:12Z</time></trkpt><trkpt lat="43.49084130962558" lon="12.140637609078118"><ele>308.0</ele><time>2026-04-18T12:43:13Z</time></trkpt><trkpt lat="43.49090059672515" lon="12.140828451691936"><ele>305.33333333333337</ele><time>2026-04-18T12:43:14Z</time></trkpt><trkpt lat="43.490930288443884" lon="12.141032364808396"><ele>302.6666666666667</ele><time>2026-04-18T12:43:15Z</time></trkpt><trkpt lat="43.49092845686597" lon="12.141247921760858"><ele>300.0</ele><time>2026-04-18T12:43:16Z</time></trkpt><trkpt lat="43.49089593853823" lon="12.141465097630705"><ele>298.6666666666667</ele><time>2026-04-18T12:43:17Z</time></trkpt><trkpt lat="43.4908362407477" lon="12.141678772747738"><ele>297.33333333333337</ele><time>2026-04-18T12:43:18Z</time></trkpt><trkpt lat="43.49076027881677" lon="12.14188657973897"><ele>296.0</ele><time>2026-04-18T12:43:19Z</time></trkpt><trkpt lat="43.49068324377929" lon="12.142087116140493"><ele>296.0</ele><time>2026-04-18T12:43:20Z</time></trkpt><trkpt lat="43.4906109437325" lon="12.142281164616127"><ele>296.0</ele><time>2026-04-18T12:43:21Z</time></trkpt><trkpt lat="43.490543311878966" lon="12.142469933636304"><ele>296.0</ele><time>2026-04-18T12:43:22Z</time></trkpt><trkpt lat="43.4904786486498" lon="12.142654635970636"><ele>295.25</ele><time>2026-04-18T12:43:23Z</time></trkpt><trkpt lat="43.490415663753275" lon="12.142834830578183"><ele>294.5</ele><time>2026-04-18T12:43:24Z</time></trkpt><trkpt lat="43.49035158161969" lon="12.143012649544884"><ele>293.75</ele><time>2026-04-18T12:43:25Z</time></trkpt><trkpt lat="43.490286884792475" lon="12.143190236709419"><ele>293.0</ele><time>2026-04-18T12:43:26Z</time></trkpt><trkpt lat="43.49022540174253" lon="12.143363437626917"><ele>293.0</ele><time>2026-04-18T12:43:27Z</time></trkpt><trkpt lat="43.49016403190272" lon="12.143541976889246"><ele>293.0</ele><time>2026-04-18T12:43:28Z</time></trkpt><trkpt lat="43.4900991266755" lon="12.1437298938074"><ele>293.0</ele><time>2026-04-18T12:43:29Z</time></trkpt><trkpt lat="43.49002931585228" lon="12.143923867815689"><ele>294.0</ele><time>2026-04-18T12:43:30Z</time></trkpt><trkpt lat="43.48995769915174" lon="12.144118068631883"><ele>295.0</ele><time>2026-04-18T12:43:31Z</time></trkpt><trkpt lat="43.48988681336066" lon="12.144313468509662"><ele>296.0</ele><time>2026-04-18T12:43:32Z</time></trkpt><trkpt lat="43.48981854324116" lon="12.144509226293014"><ele>296.0</ele><time>2026-04-18T12:43:33Z</time></trkpt><trkpt lat="43.48974943244761" lon="12.14470179544859"><ele>296.0</ele><time>2026-04-18T12:43:34Z</time></trkpt><trkpt lat="43.48967573683061" lon="12.144886825960752"><ele>296.0</ele><time>2026-04-18T12:43:35Z</time></trkpt><trkpt lat="43.489598323124504" lon="12.145061931813325"><ele>296.0</ele><time>2026-04-18T12:43:36Z</time></trkpt><trkpt lat="43.48951802788556" lon="12.145228279297784"><ele>296.0</ele><time>2026-04-18T12:43:37Z</time></trkpt><trkpt lat="43.489437232595115" lon="12.145387552398049"><ele>296.0</ele><time>2026-04-18T12:43:38Z</time></trkpt><trkpt lat="43.48935965366028" lon="12.14553659373431"><ele>296.0</ele><time>2026-04-18T12:43:39Z</time></trkpt><trkpt lat="43.489286635589664" lon="12.145679334288952"><ele>296.8</ele><time>2026-04-18T12:43:40Z</time></trkpt><trkpt lat="43.48921715313018" lon="12.145813179398028"><ele>297.6</ele><time>2026-04-18T12:43:41Z</time></trkpt><trkpt lat="43.48915094598657" lon="12.145939720179758"><ele>298.4</ele><time>2026-04-18T12:43:42Z</time></trkpt><trkpt lat="43.48908924308589" lon="12.146060278123818"><ele>299.2</ele><time>2026-04-18T12:43:43Z</time></trkpt><trkpt lat="43.48903771180144" lon="12.146179111999116"><ele>300.0</ele><time>2026-04-18T12:43:44Z</time></trkpt><trkpt lat="43.48900671057405" lon="12.146297367627247"><ele>300.0</ele><time>2026-04-18T12:43:45Z</time></trkpt><trkpt lat="43.48899207102146" lon="12.146421846543712"><ele>300.0</ele><time>2026-04-18T12:43:46Z</time></trkpt><trkpt lat="43.48899717610931" lon="12.146544447629921"><ele>300.0</ele><time>2026-04-18T12:43:47Z</time></trkpt><trkpt lat="43.489019741085535" lon="12.146669595624308"><ele>300.0</ele><time>2026-04-18T12:43:48Z</time></trkpt><trkpt lat="43.489058086621014" lon="12.14680036169339"><ele>300.0</ele><time>2026-04-18T12:43:49Z</time></trkpt><trkpt lat="43.489115879536946" lon="12.146931090899894"><ele>299.75</ele><time>2026-04-18T12:43:50Z</time></trkpt><trkpt lat="43.489180574778075" lon="12.147070208948424"><ele>299.5</ele><time>2026-04-18T12:43:51Z</time></trkpt><trkpt lat="43.48924762971667" lon="12.14721654537374"><ele>299.25</ele><time>2026-04-18T12:43:52Z</time></trkpt><trkpt lat="43.48931607871387" lon="12.147364487548211"><ele>299.0</ele><time>2026-04-18T12:43:53Z</time></trkpt><trkpt lat="43.48938778745527" lon="12.147521843603837"><ele>299.0</ele><time>2026-04-18T12:43:54Z</time></trkpt><trkpt lat="43.48946337016441" lon="12.14769590094145"><ele>299.0</ele><time>2026-04-18T12:43:55Z</time></trkpt><trkpt lat="43.489537230497355" lon="12.14787870120767"><ele>299.0</ele><time>2026-04-18T12:43:56Z</time></trkpt><trkpt lat="43.48961315879934" lon="12.148065696249589"><ele>304.6666666666667</ele><time>2026-04-18T12:43:57Z</time></trkpt><trkpt lat="43.48968217522888" lon="12.148258238322995"><ele>310.3333333333333</ele><time>2026-04-18T12:43:58Z</time></trkpt><trkpt lat="43.48974287540231" lon="12.148456126491702"><ele>316.0</ele><time>2026-04-18T12:43:59Z</time></trkpt><trkpt lat="43.48979271903128" lon="12.148662054260797"><ele>316.0</ele><time>2026-04-18T12:44:00Z</time></trkpt><trkpt lat="43.489832190154274" lon="12.148875624380763"><ele>316.0</ele><time>2026-04-18T12:44:01Z</time></trkpt><trkpt lat="43.48986517650457" lon="12.149093804662066"><ele>316.0</ele><time>2026-04-18T12:44:02Z</time></trkpt><trkpt lat="43.48989409783006" lon="12.149317278363831"><ele>313.66666666666663</ele><time>2026-04-18T12:44:03Z</time></trkpt><trkpt lat="43.48991716805983" lon="12.149541833920134"><ele>311.3333333333333</ele><time>2026-04-18T12:44:04Z</time></trkpt><trkpt lat="43.48993644932128" lon="12.149767689456985"><ele>309.0</ele><time>2026-04-18T12:44:05Z</time></trkpt><trkpt lat="43.489958273341884" lon="12.149994491564842"><ele>306.0</ele><time>2026-04-18T12:44:06Z</time></trkpt><trkpt lat="43.48998378571381" lon="12.150220698233488"><ele>303.0</ele><time>2026-04-18T12:44:07Z</time></trkpt><trkpt lat="43.49001584903961" lon="12.150450172335654"><ele>300.0</ele><time>2026-04-18T12:44:08Z</time></trkpt><trkpt lat="43.490057020875035" lon="12.150676874898608"><ele>298.6666666666667</ele><time>2026-04-18T12:44:09Z</time></trkpt><trkpt lat="43.49009850805681" lon="12.150900711694527"><ele>297.33333333333337</ele><time>2026-04-18T12:44:10Z</time></trkpt><trkpt lat="43.49014725721784" lon="12.151118231738595"><ele>296.0</ele><time>2026-04-18T12:44:11Z</time></trkpt><trkpt lat="43.490196378556575" lon="12.151318062254765"><ele>296.0</ele><time>2026-04-18T12:44:12Z</time></trkpt><trkpt lat="43.49024669109917" lon="12.151498645203052"><ele>296.0</ele><time>2026-04-18T12:44:13Z</time></trkpt><trkpt lat="43.49030503542229" lon="12.1516652025974"><ele>296.0</ele><time>2026-04-18T12:44:14Z</time></trkpt><trkpt lat="43.49035711099668" lon="12.151825584722793"><ele>296.0</ele><time>2026-04-18T12:44:15Z</time></trkpt><trkpt lat="43.490408417880204" lon="12.151985515196008"><ele>297.75</ele><time>2026-04-18T12:44:16Z</time></trkpt><trkpt lat="43.490464654824024" lon="12.152151345123368"><ele>299.5</ele><time>2026-04-18T12:44:17Z</time></trkpt><trkpt lat="43.49052256368212" lon="12.152324158048234"><ele>301.25</ele><time>2026-04-18T12:44:18Z</time></trkpt><trkpt lat="43.490578858574374" lon="12.152497302758839"><ele>303.0</ele><time>2026-04-18T12:44:19Z</time></trkpt><trkpt lat="43.49063298224943" lon="12.152664869091751"><ele>303.0</ele><time>2026-04-18T12:44:20Z</time></trkpt><trkpt lat="43.49068358214159" lon="12.1528154320673"><ele>303.0</ele><time>2026-04-18T12:44:21Z</time></trkpt><trkpt lat="43.490728755429956" lon="12.152955986823946"><ele>303.0</ele><time>2026-04-18T12:44:22Z</time></trkpt><trkpt lat="43.49076992938837" lon="12.15309511266823"><ele>303.0</ele><time>2026-04-18T12:44:23Z</time></trkpt><trkpt lat="43.49081462371369" lon="12.153238084893538"><ele>302.8</ele><time>2026-04-18T12:44:24Z</time></trkpt><trkpt lat="43.49085892739285" lon="12.153381696132442"><ele>302.6</ele><time>2026-04-18T12:44:25Z</time></trkpt><trkpt lat="43.490902010378065" lon="12.153522621699265"><ele>302.4</ele><time>2026-04-18T12:44:26Z</time></trkpt><trkpt lat="43.490945475495415" lon="12.153662281474105"><ele>302.2</ele><time>2026-04-18T12:44:27Z</time></trkpt><trkpt lat="43.49099169435986" lon="12.153803061747592"><ele>302.0</ele><time>2026-04-18T12:44:28Z</time></trkpt><trkpt lat="43.49103524806005" lon="12.153944801762126"><ele>301.75</ele><time>2026-04-18T12:44:29Z</time></trkpt><trkpt lat="43.49108106330917" lon="12.154096781624038"><ele>301.5</ele><time>2026-04-18T12:44:30Z</time></trkpt><trkpt lat="43.49112515973175" lon="12.154250380089364"><ele>301.25</ele><time>2026-04-18T12:44:31Z</time></trkpt><trkpt lat="43.49116607681514" lon="12.154414225782164"><ele>301.0</ele><time>2026-04-18T12:44:32Z</time></trkpt><trkpt lat="43.49120823700896" lon="12.154579121909455"><ele>301.0</ele><time>2026-04-18T12:44:33Z</time></trkpt><trkpt lat="43.491239121586425" lon="12.154745596573397"><ele>301.0</ele><time>2026-04-18T12:44:34Z</time></trkpt><trkpt lat="43.49126834167465" lon="12.154905920786337"><ele>301.0</ele><time>2026-04-18T12:44:35Z</time></trkpt><trkpt lat="43.491290150881625" lon="12.155059188411911"><ele>301.0</ele><time>2026-04-18T12:44:36Z</time></trkpt><trkpt lat="43.49130651849898" lon="12.155197777279053"><ele>301.75</ele><time>2026-04-18T12:44:37Z</time></trkpt><trkpt lat="43.49132031648178" lon="12.155332527429113"><ele>302.5</ele><time>2026-04-18T12:44:38Z</time></trkpt><trkpt lat="43.49133335940821" lon="12.155445346066921"><ele>303.25</ele><time>2026-04-18T12:44:39Z</time></trkpt><trkpt lat="43.491339143370475" lon="12.155579642382744"><ele>304.0</ele><time>2026-04-18T12:44:41Z</time></trkpt><trkpt lat="43.49152122205424" lon="12.155569374441594"><ele>304.0</ele><time>2026-04-18T12:44:43Z</time></trkpt><trkpt lat="43.4916005491365" lon="12.155542494363878"><ele>304.0</ele><time>2026-04-18T12:44:44Z</time></trkpt><trkpt lat="43.49169544326646" lon="12.155534084843602"><ele>304.0</ele><time>2026-04-18T12:44:45Z</time></trkpt><trkpt lat="43.49180100498008" lon="12.155556881997189"><ele>304.0</ele><time>2026-04-18T12:44:46Z</time></trkpt><trkpt lat="43.491922990943586" lon="12.155597993728996"><ele>304.0</ele><time>2026-04-18T12:44:47Z</time></trkpt><trkpt lat="43.49205665361608" lon="12.155641730437441"><ele>303.25</ele><time>2026-04-18T12:44:48Z</time></trkpt><trkpt lat="43.49219425881908" lon="12.155693523957257"><ele>302.5</ele><time>2026-04-18T12:44:49Z</time></trkpt><trkpt lat="43.492323031328944" lon="12.155741377142315"><ele>301.75</ele><time>2026-04-18T12:44:50Z</time></trkpt><trkpt lat="43.49244964551681" lon="12.155780307808971"><ele>301.0</ele><time>2026-04-18T12:44:51Z</time></trkpt><trkpt lat="43.492580965936995" lon="12.155781815073544"><ele>301.0</ele><time>2026-04-18T12:44:52Z</time></trkpt><trkpt lat="43.492708757286586" lon="12.15572574663447"><ele>301.0</ele><time>2026-04-18T12:44:53Z</time></trkpt><trkpt lat="43.492830484986335" lon="12.15563883020269"><ele>301.0</ele><time>2026-04-18T12:44:54Z</time></trkpt><trkpt lat="43.49295803485749" lon="12.155576051133174"><ele>301.0</ele><time>2026-04-18T12:44:55Z</time></trkpt><trkpt lat="43.493114820111686" lon="12.155575733042404"><ele>300.5</ele><time>2026-04-18T12:44:56Z</time></trkpt><trkpt lat="43.49323207710745" lon="12.155568448183502"><ele>300.0</ele><time>2026-04-18T12:44:57Z</time></trkpt><trkpt lat="43.49336839238045" lon="12.155631641753274"><ele>299.5</ele><time>2026-04-18T12:44:58Z</time></trkpt><trkpt lat="43.4935262532693" lon="12.155653903447593"><ele>299.0</ele><time>2026-04-18T12:44:59Z</time></trkpt><trkpt lat="43.49368244444673" lon="12.155705241528302"><ele>300.6666666666667</ele><time>2026-04-18T12:45:00Z</time></trkpt><trkpt lat="43.493835443478176" lon="12.155766736180263"><ele>302.3333333333333</ele><time>2026-04-18T12:45:01Z</time></trkpt><trkpt lat="43.493987412488835" lon="12.15583708096469"><ele>304.0</ele><time>2026-04-18T12:45:02Z</time></trkpt><trkpt lat="43.49413947180861" lon="12.15592167587498"><ele>304.0</ele><time>2026-04-18T12:45:03Z</time></trkpt><trkpt lat="43.49428596499844" lon="12.156017609679791"><ele>304.0</ele><time>2026-04-18T12:45:04Z</time></trkpt><trkpt lat="43.494419340586276" lon="12.156119836380586"><ele>304.0</ele><time>2026-04-18T12:45:05Z</time></trkpt><trkpt lat="43.49454774309948" lon="12.156223694682904"><ele>303.0</ele><time>2026-04-18T12:45:06Z</time></trkpt><trkpt lat="43.49467304820291" lon="12.156334527628047"><ele>302.0</ele><time>2026-04-18T12:45:07Z</time></trkpt><trkpt lat="43.49480411060176" lon="12.15644307114306"><ele>301.0</ele><time>2026-04-18T12:45:08Z</time></trkpt><trkpt lat="43.49493883113115" lon="12.156546525144481"><ele>301.0</ele><time>2026-04-18T12:45:09Z</time></trkpt><trkpt lat="43.49507691266369" lon="12.156634076270747"><ele>301.0</ele><time>2026-04-18T12:45:10Z</time></trkpt><trkpt lat="43.49522361891667" lon="12.156706338310059"><ele>301.0</ele><time>2026-04-18T12:45:11Z</time></trkpt><trkpt lat="43.49537149595293" lon="12.156763089777224"><ele>299.25</ele><time>2026-04-18T12:45:12Z</time></trkpt><trkpt lat="43.49551613144917" lon="12.156811798800657"><ele>297.5</ele><time>2026-04-18T12:45:13Z</time></trkpt><trkpt lat="43.49566027095558" lon="12.156852757103932"><ele>295.75</ele><time>2026-04-18T12:45:14Z</time></trkpt><trkpt lat="43.495802507714295" lon="12.156887900943005"><ele>294.0</ele><time>2026-04-18T12:45:15Z</time></trkpt><trkpt lat="43.4959442270992" lon="12.156927949064299"><ele>294.0</ele><time>2026-04-18T12:45:16Z</time></trkpt><trkpt lat="43.49607898284402" lon="12.157032346992688"><ele>294.0</ele><time>2026-04-18T12:45:16.999Z</time></trkpt><trkpt lat="43.49620627690713" lon="12.157170382042692"><ele>294.0</ele><time>2026-04-18T12:45:17.999Z</time></trkpt><trkpt lat="43.496335647292675" lon="12.157306540157336"><ele>292.75</ele><time>2026-04-18T12:45:18.999Z</time></trkpt><trkpt lat="43.49644348380275" lon="12.157455643488438"><ele>291.5</ele><time>2026-04-18T12:45:19.999Z</time></trkpt><trkpt lat="43.49654826896126" lon="12.157593717190684"><ele>290.25</ele><time>2026-04-18T12:45:20.999Z</time></trkpt><trkpt lat="43.496657782424215" lon="12.157733444047071"><ele>289.0</ele><time>2026-04-18T12:45:21.999Z</time></trkpt><trkpt lat="43.496768770922856" lon="12.157873445543332"><ele>289.0</ele><time>2026-04-18T12:45:22.999Z</time></trkpt><trkpt lat="43.49687118154673" lon="12.158000706361584"><ele>289.0</ele><time>2026-04-18T12:45:23.999Z</time></trkpt><trkpt lat="43.49696778951369" lon="12.158122626588789"><ele>289.0</ele><time>2026-04-18T12:45:24.999Z</time></trkpt><trkpt lat="43.49706907297601" lon="12.158241447587153"><ele>289.0</ele><time>2026-04-18T12:45:25.999Z</time></trkpt><trkpt lat="43.497178204226046" lon="12.158363367136475"><ele>288.3333333333333</ele><time>2026-04-18T12:45:26.999Z</time></trkpt><trkpt lat="43.49729249153296" lon="12.158504602606397"><ele>287.6666666666667</ele><time>2026-04-18T12:45:27.999Z</time></trkpt><trkpt lat="43.497417937645515" lon="12.15865927423304"><ele>287.0</ele><time>2026-04-18T12:45:28.999Z</time></trkpt><trkpt lat="43.497550010012404" lon="12.15883016154246"><ele>287.0</ele><time>2026-04-18T12:45:29.999Z</time></trkpt><trkpt lat="43.49768542238261" lon="12.159002967162778"><ele>287.0</ele><time>2026-04-18T12:45:30.999Z</time></trkpt><trkpt lat="43.49782158496709" lon="12.15917706051198"><ele>287.0</ele><time>2026-04-18T12:45:31.999Z</time></trkpt><trkpt lat="43.497953822495504" lon="12.159349178759314"><ele>287.0</ele><time>2026-04-18T12:45:32.999Z</time></trkpt><trkpt lat="43.49808881578297" lon="12.159520278752161"><ele>287.0</ele><time>2026-04-18T12:45:33.999Z</time></trkpt><trkpt lat="43.49822656104067" lon="12.15969155721527"><ele>287.0</ele><time>2026-04-18T12:45:34.999Z</time></trkpt><trkpt lat="43.49836874250916" lon="12.15986945076229"><ele>287.0</ele><time>2026-04-18T12:45:35.999Z</time></trkpt><trkpt lat="43.498508388537864" lon="12.160046001541073"><ele>287.0</ele><time>2026-04-18T12:45:36.999Z</time></trkpt><trkpt lat="43.498648970171224" lon="12.160224799895396"><ele>287.0</ele><time>2026-04-18T12:45:37.999Z</time></trkpt><trkpt lat="43.49879491147151" lon="12.160408204158989"><ele>287.33333333333337</ele><time>2026-04-18T12:45:38.999Z</time></trkpt><trkpt lat="43.49894355614247" lon="12.160591660999089"><ele>287.6666666666667</ele><time>2026-04-18T12:45:39.999Z</time></trkpt><trkpt lat="43.49909283801067" lon="12.160781146670129"><ele>288.0</ele><time>2026-04-18T12:45:40.999Z</time></trkpt><trkpt lat="43.49924441379984" lon="12.160973921861485"><ele>288.3333333333333</ele><time>2026-04-18T12:45:41.999Z</time></trkpt><trkpt lat="43.499397305362656" lon="12.161167501886768"><ele>288.66666666666663</ele><time>2026-04-18T12:45:42.999Z</time></trkpt><trkpt lat="43.49955127432555" lon="12.16136043149495"><ele>289.0</ele><time>2026-04-18T12:45:43.999Z</time></trkpt><trkpt lat="43.499703989379924" lon="12.161555434425974"><ele>289.0</ele><time>2026-04-18T12:45:44.999Z</time></trkpt><trkpt lat="43.499858076877004" lon="12.161751616535852"><ele>289.0</ele><time>2026-04-18T12:45:45.999Z</time></trkpt><trkpt lat="43.50001372660987" lon="12.161942534708565"><ele>289.0</ele><time>2026-04-18T12:45:46.999Z</time></trkpt><trkpt lat="43.500170774113606" lon="12.162132959068698"><ele>289.0</ele><time>2026-04-18T12:45:47.999Z</time></trkpt><trkpt lat="43.50032562487184" lon="12.16232636676586"><ele>289.0</ele><time>2026-04-18T12:45:48.999Z</time></trkpt><trkpt lat="43.500480881175456" lon="12.162517900894779"><ele>289.0</ele><time>2026-04-18T12:45:49.999Z</time></trkpt><trkpt lat="43.50063294201564" lon="12.162713181737981"><ele>289.0</ele><time>2026-04-18T12:45:50.999Z</time></trkpt><trkpt lat="43.50078558546393" lon="12.162904364518578"><ele>289.0</ele><time>2026-04-18T12:45:51.999Z</time></trkpt><trkpt lat="43.50093216501165" lon="12.163090715893771"><ele>289.0</ele><time>2026-04-18T12:45:52.999Z</time></trkpt><trkpt lat="43.50107542971291" lon="12.163266750744379"><ele>289.0</ele><time>2026-04-18T12:45:53.999Z</time></trkpt><trkpt lat="43.5012131827185" lon="12.163441965813394"><ele>289.0</ele><time>2026-04-18T12:45:54.999Z</time></trkpt><trkpt lat="43.501344067764656" lon="12.163605508613223"><ele>289.0</ele><time>2026-04-18T12:45:55.999Z</time></trkpt><trkpt lat="43.50146808292424" lon="12.163760135478537"><ele>288.66666666666663</ele><time>2026-04-18T12:45:56.999Z</time></trkpt><trkpt lat="43.50158526723897" lon="12.163910929958776"><ele>288.3333333333333</ele><time>2026-04-18T12:45:57.999Z</time></trkpt><trkpt lat="43.501700705875976" lon="12.164053597608103"><ele>288.0</ele><time>2026-04-18T12:45:58.999Z</time></trkpt><trkpt lat="43.50181216009224" lon="12.164196395744968"><ele>288.0</ele><time>2026-04-18T12:45:59.999Z</time></trkpt><trkpt lat="43.50191983269694" lon="12.164331097051544"><ele>288.0</ele><time>2026-04-18T12:46:00.999Z</time></trkpt><trkpt lat="43.50201926461085" lon="12.16445792819999"><ele>288.0</ele><time>2026-04-18T12:46:01.999Z</time></trkpt><trkpt lat="43.502110931988696" lon="12.164572739335815"><ele>288.0</ele><time>2026-04-18T12:46:02.999Z</time></trkpt><trkpt lat="43.50219216108613" lon="12.16467300443038"><ele>288.0</ele><time>2026-04-18T12:46:03.999Z</time></trkpt><trkpt lat="43.50227639369372" lon="12.164760463231698"><ele>288.0</ele><time>2026-04-18T12:46:04.999Z</time></trkpt><trkpt lat="43.502371065071955" lon="12.164822541084725"><ele>288.0</ele><time>2026-04-18T12:46:05.999Z</time></trkpt><trkpt lat="43.50246658079293" lon="12.164868519646646"><ele>288.0</ele><time>2026-04-18T12:46:06.999Z</time></trkpt><trkpt lat="43.50255495255677" lon="12.164930483881594"><ele>288.0</ele><time>2026-04-18T12:46:07.999Z</time></trkpt><trkpt lat="43.50261905397737" lon="12.164906525624927"><ele>288.25</ele><time>2026-04-18T12:46:08.999Z</time></trkpt><trkpt lat="43.50267177288043" lon="12.16522277387952"><ele>288.5</ele><time>2026-04-18T12:46:10.999Z</time></trkpt><trkpt lat="43.50265072933482" lon="12.165323105739557"><ele>288.75</ele><time>2026-04-18T12:46:11.999Z</time></trkpt><trkpt lat="43.502599310785975" lon="12.16543766857416"><ele>289.0</ele><time>2026-04-18T12:46:12.999Z</time></trkpt><trkpt lat="43.50254421370505" lon="12.165575963554945"><ele>288.3333333333333</ele><time>2026-04-18T12:46:13.999Z</time></trkpt><trkpt lat="43.50250066897186" lon="12.165755663351073"><ele>287.6666666666667</ele><time>2026-04-18T12:46:14.999Z</time></trkpt><trkpt lat="43.502475237051264" lon="12.165977349362551"><ele>287.0</ele><time>2026-04-18T12:46:15.999Z</time></trkpt><trkpt lat="43.502468020680936" lon="12.16621616219368"><ele>287.0</ele><time>2026-04-18T12:46:16.999Z</time></trkpt><trkpt lat="43.50245837206053" lon="12.166418392354112"><ele>287.0</ele><time>2026-04-18T12:46:17.999Z</time></trkpt><trkpt lat="43.50244459241317" lon="12.166604811418921"><ele>287.0</ele><time>2026-04-18T12:46:18.999Z</time></trkpt><trkpt lat="43.50241845720765" lon="12.166783787354602"><ele>287.0</ele><time>2026-04-18T12:46:19.999Z</time></trkpt><trkpt lat="43.50236488833827" lon="12.166949230628418"><ele>287.0</ele><time>2026-04-18T12:46:20.999Z</time></trkpt><trkpt lat="43.50229329998771" lon="12.167093595211277"><ele>287.0</ele><time>2026-04-18T12:46:21.999Z</time></trkpt><trkpt lat="43.5022351351431" lon="12.167220322231328"><ele>287.0</ele><time>2026-04-18T12:46:22.999Z</time></trkpt><trkpt lat="43.50219202832761" lon="12.167326793373093"><ele>287.0</ele><time>2026-04-18T12:46:23.999Z</time></trkpt><trkpt lat="43.50217293150322" lon="12.167425206499113"><ele>287.0</ele><time>2026-04-18T12:46:24.999Z</time></trkpt><trkpt lat="43.502186917485844" lon="12.167518165196139"><ele>287.0</ele><time>2026-04-18T12:46:25.999Z</time></trkpt><trkpt lat="43.50222902898645" lon="12.167605730023643"><ele>287.0</ele><time>2026-04-18T12:46:26.999Z</time></trkpt><trkpt lat="43.50230522574479" lon="12.167668719938282"><ele>287.0</ele><time>2026-04-18T12:46:27.999Z</time></trkpt><trkpt lat="43.50240230091606" lon="12.167719430787244"><ele>287.0</ele><time>2026-04-18T12:46:28.999Z</time></trkpt><trkpt lat="43.50250841782194" lon="12.167782967053935"><ele>287.0</ele><time>2026-04-18T12:46:29.999Z</time></trkpt><trkpt lat="43.50262362634538" lon="12.167852001952223"><ele>287.0</ele><time>2026-04-18T12:46:30.999Z</time></trkpt><trkpt lat="43.502749623275655" lon="12.167918516845972"><ele>287.0</ele><time>2026-04-18T12:46:31.999Z</time></trkpt><trkpt lat="43.50287528236861" lon="12.167985662510532"><ele>287.0</ele><time>2026-04-18T12:46:32.999Z</time></trkpt><trkpt lat="43.5030050441031" lon="12.168050899550037"><ele>287.0</ele><time>2026-04-18T12:46:33.999Z</time></trkpt><trkpt lat="43.50314016302765" lon="12.16813019481671"><ele>287.6666666666667</ele><time>2026-04-18T12:46:34.999Z</time></trkpt><trkpt lat="43.503285724852255" lon="12.168205874823906"><ele>288.3333333333333</ele><time>2026-04-18T12:46:35.999Z</time></trkpt><trkpt lat="43.503437630622564" lon="12.168283580809847"><ele>289.0</ele><time>2026-04-18T12:46:36.999Z</time></trkpt><trkpt lat="43.50358308142076" lon="12.168362273174713"><ele>289.0</ele><time>2026-04-18T12:46:37.999Z</time></trkpt><trkpt lat="43.50373400247433" lon="12.168440558704845"><ele>289.0</ele><time>2026-04-18T12:46:38.999Z</time></trkpt><trkpt lat="43.503871697169416" lon="12.168546704355608"><ele>289.0</ele><time>2026-04-18T12:46:39.999Z</time></trkpt><trkpt lat="43.50398286174103" lon="12.168701916296904"><ele>288.66666666666663</ele><time>2026-04-18T12:46:40.999Z</time></trkpt><trkpt lat="43.50407206329658" lon="12.168891847092992"><ele>288.3333333333333</ele><time>2026-04-18T12:46:41.999Z</time></trkpt><trkpt lat="43.50416185210831" lon="12.16908715965093"><ele>288.0</ele><time>2026-04-18T12:46:42.999Z</time></trkpt><trkpt lat="43.50425856057785" lon="12.169282608296177"><ele>287.6666666666667</ele><time>2026-04-18T12:46:43.999Z</time></trkpt><trkpt lat="43.50436198647877" lon="12.169479721583778"><ele>287.33333333333337</ele><time>2026-04-18T12:46:44.999Z</time></trkpt><trkpt lat="43.50446963757175" lon="12.169680419294325"><ele>287.0</ele><time>2026-04-18T12:46:45.999Z</time></trkpt><trkpt lat="43.50457741668243" lon="12.169887956695764"><ele>287.0</ele><time>2026-04-18T12:46:46.999Z</time></trkpt><trkpt lat="43.50468807111691" lon="12.170101029522318"><ele>287.0</ele><time>2026-04-18T12:46:47.999Z</time></trkpt><trkpt lat="43.50480106790838" lon="12.170317240090885"><ele>287.0</ele><time>2026-04-18T12:46:48.999Z</time></trkpt><trkpt lat="43.50491639786801" lon="12.1705348843032"><ele>287.0</ele><time>2026-04-18T12:46:49.999Z</time></trkpt><trkpt lat="43.50503599850232" lon="12.170750505424554"><ele>287.0</ele><time>2026-04-18T12:46:50.999Z</time></trkpt><trkpt lat="43.505166245745336" lon="12.170955086232059"><ele>287.0</ele><time>2026-04-18T12:46:51.999Z</time></trkpt><trkpt lat="43.505303784200365" lon="12.171150538513203"><ele>287.33333333333337</ele><time>2026-04-18T12:46:52.999Z</time></trkpt><trkpt lat="43.50544480350652" lon="12.171338235651953"><ele>287.6666666666667</ele><time>2026-04-18T12:46:53.999Z</time></trkpt><trkpt lat="43.50558509676089" lon="12.171525505914783"><ele>288.0</ele><time>2026-04-18T12:46:54.999Z</time></trkpt><trkpt lat="43.505726586214315" lon="12.171705851619633"><ele>288.0</ele><time>2026-04-18T12:46:55.999Z</time></trkpt><trkpt lat="43.50586547831395" lon="12.171885792940943"><ele>288.0</ele><time>2026-04-18T12:46:56.999Z</time></trkpt><trkpt lat="43.50600510873838" lon="12.17206551163325"><ele>288.0</ele><time>2026-04-18T12:46:57.999Z</time></trkpt><trkpt lat="43.50614827015832" lon="12.172244845725023"><ele>288.3333333333333</ele><time>2026-04-18T12:46:58.999Z</time></trkpt><trkpt lat="43.50629244494112" lon="12.17242738897012"><ele>288.66666666666663</ele><time>2026-04-18T12:46:59.999Z</time></trkpt><trkpt lat="43.50643713237781" lon="12.17261064452795"><ele>289.0</ele><time>2026-04-18T12:47:00.999Z</time></trkpt><trkpt lat="43.50658335818457" lon="12.172795392161465"><ele>289.0</ele><time>2026-04-18T12:47:01.999Z</time></trkpt><trkpt lat="43.50673576145937" lon="12.172977855679312"><ele>289.0</ele><time>2026-04-18T12:47:02.999Z</time></trkpt><trkpt lat="43.50690141925069" lon="12.17314635178735"><ele>289.0</ele><time>2026-04-18T12:47:03.999Z</time></trkpt><trkpt lat="43.50707867342839" lon="12.173306421485501"><ele>289.0</ele><time>2026-04-18T12:47:04.999Z</time></trkpt><trkpt lat="43.50725858993008" lon="12.173462704629738"><ele>289.0</ele><time>2026-04-18T12:47:05.999Z</time></trkpt><trkpt lat="43.50744129705504" lon="12.173617505373548"><ele>289.0</ele><time>2026-04-18T12:47:07Z</time></trkpt><trkpt lat="43.50762535522195" lon="12.173772531223436"><ele>289.0</ele><time>2026-04-18T12:47:08Z</time></trkpt><trkpt lat="43.507806155229424" lon="12.173930886430117"><ele>289.0</ele><time>2026-04-18T12:47:09Z</time></trkpt><trkpt lat="43.5079862647211" lon="12.17408969594456"><ele>289.0</ele><time>2026-04-18T12:47:10Z</time></trkpt><trkpt lat="43.50816425132278" lon="12.17424822479087"><ele>288.3333333333333</ele><time>2026-04-18T12:47:11Z</time></trkpt><trkpt lat="43.50833786610403" lon="12.174408041492072"><ele>287.6666666666667</ele><time>2026-04-18T12:47:12Z</time></trkpt><trkpt lat="43.5085083350163" lon="12.174568534303114"><ele>287.0</ele><time>2026-04-18T12:47:13Z</time></trkpt><trkpt lat="43.508680280910134" lon="12.174721954908643"><ele>287.0</ele><time>2026-04-18T12:47:14Z</time></trkpt><trkpt lat="43.50884991566154" lon="12.174874996053683"><ele>287.0</ele><time>2026-04-18T12:47:15Z</time></trkpt><trkpt lat="43.50902257803576" lon="12.175024612928853"><ele>287.0</ele><time>2026-04-18T12:47:16Z</time></trkpt><trkpt lat="43.50919333353866" lon="12.175172595836312"><ele>287.0</ele><time>2026-04-18T12:47:17Z</time></trkpt><trkpt lat="43.50936388443902" lon="12.175323364596458"><ele>287.0</ele><time>2026-04-18T12:47:18Z</time></trkpt><trkpt lat="43.50953159540743" lon="12.175479276207756"><ele>287.0</ele><time>2026-04-18T12:47:19Z</time></trkpt><trkpt lat="43.50969371014137" lon="12.175649072375885"><ele>287.6666666666667</ele><time>2026-04-18T12:47:20Z</time></trkpt><trkpt lat="43.5098287956282" lon="12.175857450934105"><ele>288.3333333333333</ele><time>2026-04-18T12:47:21Z</time></trkpt><trkpt lat="43.50997335832259" lon="12.176056540817815"><ele>289.0</ele><time>2026-04-18T12:47:22Z</time></trkpt><trkpt lat="43.51009055011698" lon="12.176282992349375"><ele>289.3333333333333</ele><time>2026-04-18T12:47:23Z</time></trkpt><trkpt lat="43.51019997396877" lon="12.176519620912389"><ele>289.6666666666667</ele><time>2026-04-18T12:47:24Z</time></trkpt><trkpt lat="43.51030426967383" lon="12.176758465518086"><ele>290.0</ele><time>2026-04-18T12:47:25Z</time></trkpt><trkpt lat="43.510408015415244" lon="12.176996912777465"><ele>289.6666666666667</ele><time>2026-04-18T12:47:26Z</time></trkpt><trkpt lat="43.51051429488875" lon="12.177234499865216"><ele>289.3333333333333</ele><time>2026-04-18T12:47:27Z</time></trkpt><trkpt lat="43.51062069311082" lon="12.177472223046527"><ele>289.0</ele><time>2026-04-18T12:47:28Z</time></trkpt><trkpt lat="43.5107290524136" lon="12.177705076006912"><ele>289.0</ele><time>2026-04-18T12:47:29Z</time></trkpt><trkpt lat="43.510837763467684" lon="12.177936899529872"><ele>289.0</ele><time>2026-04-18T12:47:30Z</time></trkpt><trkpt lat="43.51094229435696" lon="12.178165211601332"><ele>289.0</ele><time>2026-04-18T12:47:31Z</time></trkpt><trkpt lat="43.51104751770083" lon="12.178387064863204"><ele>289.3333333333333</ele><time>2026-04-18T12:47:32Z</time></trkpt><trkpt lat="43.51115146561224" lon="12.17860464124909"><ele>289.6666666666667</ele><time>2026-04-18T12:47:33Z</time></trkpt><trkpt lat="43.5112532143524" lon="12.178821669403872"><ele>290.0</ele><time>2026-04-18T12:47:34Z</time></trkpt><trkpt lat="43.5113589180517" lon="12.17904248799314"><ele>290.33333333333337</ele><time>2026-04-18T12:47:35Z</time></trkpt><trkpt lat="43.51146616558913" lon="12.179266117753961"><ele>290.6666666666667</ele><time>2026-04-18T12:47:36Z</time></trkpt><trkpt lat="43.51155723360272" lon="12.179506391351628"><ele>291.0</ele><time>2026-04-18T12:47:37Z</time></trkpt><trkpt lat="43.511662179500846" lon="12.179734008864951"><ele>291.0</ele><time>2026-04-18T12:47:38Z</time></trkpt><trkpt lat="43.511768024530014" lon="12.179961559089977"><ele>291.0</ele><time>2026-04-18T12:47:39Z</time></trkpt><trkpt lat="43.51188269355828" lon="12.180173031439478"><ele>291.0</ele><time>2026-04-18T12:47:40Z</time></trkpt><trkpt lat="43.5119817230419" lon="12.180391480090881"><ele>291.0</ele><time>2026-04-18T12:47:41Z</time></trkpt><trkpt lat="43.51207740928827" lon="12.180606329759552"><ele>291.0</ele><time>2026-04-18T12:47:42Z</time></trkpt><trkpt lat="43.51217013090405" lon="12.180813141160796"><ele>291.0</ele><time>2026-04-18T12:47:43Z</time></trkpt><trkpt lat="43.512253966477836" lon="12.181007120342587"><ele>291.0</ele><time>2026-04-18T12:47:44Z</time></trkpt><trkpt lat="43.51232762235846" lon="12.181205486129423"><ele>291.0</ele><time>2026-04-18T12:47:45Z</time></trkpt><trkpt lat="43.51243404552141" lon="12.181383902984424"><ele>291.0</ele><time>2026-04-18T12:47:46Z</time></trkpt><trkpt lat="43.51251458410728" lon="12.181556273847619"><ele>291.25</ele><time>2026-04-18T12:47:47Z</time></trkpt><trkpt lat="43.51259276675677" lon="12.181721895842356"><ele>291.5</ele><time>2026-04-18T12:47:48Z</time></trkpt><trkpt lat="43.512667901653174" lon="12.18188398556275"><ele>291.75</ele><time>2026-04-18T12:47:49Z</time></trkpt><trkpt lat="43.51273788052004" lon="12.182037023523138"><ele>292.0</ele><time>2026-04-18T12:47:50Z</time></trkpt><trkpt lat="43.512807606130885" lon="12.182185703802721"><ele>292.0</ele><time>2026-04-18T12:47:51Z</time></trkpt><trkpt lat="43.512879692952666" lon="12.182342129682405"><ele>292.0</ele><time>2026-04-18T12:47:52Z</time></trkpt><trkpt lat="43.51294840138812" lon="12.18249762131157"><ele>292.0</ele><time>2026-04-18T12:47:53Z</time></trkpt><trkpt lat="43.51301670685806" lon="12.182646502469492"><ele>292.0</ele><time>2026-04-18T12:47:54Z</time></trkpt><trkpt lat="43.51308117363981" lon="12.182792014922725"><ele>292.0</ele><time>2026-04-18T12:47:55Z</time></trkpt><trkpt lat="43.51314522497807" lon="12.182928447200457"><ele>292.0</ele><time>2026-04-18T12:47:56Z</time></trkpt><trkpt lat="43.51320758666877" lon="12.183063052323815"><ele>292.0</ele><time>2026-04-18T12:47:57Z</time></trkpt><trkpt lat="43.51327336335477" lon="12.183202213518493"><ele>292.0</ele><time>2026-04-18T12:47:58Z</time></trkpt><trkpt lat="43.513335177871134" lon="12.183339841025651"><ele>292.0</ele><time>2026-04-18T12:47:59Z</time></trkpt><trkpt lat="43.513395719896714" lon="12.183478594588575"><ele>292.0</ele><time>2026-04-18T12:48:00Z</time></trkpt><trkpt lat="43.51345952415721" lon="12.183608053130042"><ele>292.0</ele><time>2026-04-18T12:48:01Z</time></trkpt><trkpt lat="43.51351891436505" lon="12.183729225457263"><ele>292.0</ele><time>2026-04-18T12:48:02Z</time></trkpt><trkpt lat="43.51357629651108" lon="12.183852568431954"><ele>292.0</ele><time>2026-04-18T12:48:03Z</time></trkpt><trkpt lat="43.513629405410974" lon="12.183963954903998"><ele>292.66666666666663</ele><time>2026-04-18T12:48:04Z</time></trkpt><trkpt lat="43.51367381588123" lon="12.184075264568738"><ele>293.3333333333333</ele><time>2026-04-18T12:48:05Z</time></trkpt><trkpt lat="43.51372327126455" lon="12.18417196613163"><ele>294.0</ele><time>2026-04-18T12:48:06Z</time></trkpt><trkpt lat="43.51375964613745" lon="12.18425890886924"><ele>294.6666666666667</ele><time>2026-04-18T12:48:07Z</time></trkpt><trkpt lat="43.51380877351937" lon="12.184363596729956"><ele>295.33333333333337</ele><time>2026-04-18T12:48:08Z</time></trkpt><trkpt lat="43.51385719949745" lon="12.184464762567131"><ele>296.0</ele><time>2026-04-18T12:48:09Z</time></trkpt><trkpt lat="43.51390332067926" lon="12.184568124861222"><ele>296.2</ele><time>2026-04-18T12:48:10Z</time></trkpt><trkpt lat="43.51395683773322" lon="12.184693408711109"><ele>296.40000000000003</ele><time>2026-04-18T12:48:11Z</time></trkpt><trkpt lat="43.51401826258825" lon="12.18482072871827"><ele>296.6</ele><time>2026-04-18T12:48:12Z</time></trkpt><trkpt lat="43.51407681212541" lon="12.184952635401562"><ele>296.8</ele><time>2026-04-18T12:48:13Z</time></trkpt><trkpt lat="43.514136448014426" lon="12.185091519180723"><ele>297.0</ele><time>2026-04-18T12:48:14Z</time></trkpt><trkpt lat="43.51419307976599" lon="12.185220036203273"><ele>297.0</ele><time>2026-04-18T12:48:15Z</time></trkpt><trkpt lat="43.51424550306434" lon="12.185333936248904"><ele>297.0</ele><time>2026-04-18T12:48:16Z</time></trkpt><trkpt lat="43.514292043353755" lon="12.185442391073163"><ele>297.0</ele><time>2026-04-18T12:48:17Z</time></trkpt><trkpt lat="43.51434285942942" lon="12.185546676962554"><ele>297.0</ele><time>2026-04-18T12:48:18Z</time></trkpt><trkpt lat="43.51439014133265" lon="12.185654476316527"><ele>297.0</ele><time>2026-04-18T12:48:19Z</time></trkpt><trkpt lat="43.51444439690893" lon="12.185769203523577"><ele>297.0</ele><time>2026-04-18T12:48:20Z</time></trkpt><trkpt lat="43.51449923768971" lon="12.185888670055336"><ele>297.0</ele><time>2026-04-18T12:48:21Z</time></trkpt><trkpt lat="43.51455404091205" lon="12.186010513831775"><ele>297.0</ele><time>2026-04-18T12:48:22Z</time></trkpt><trkpt lat="43.51460624953691" lon="12.186124068719495"><ele>297.0</ele><time>2026-04-18T12:48:23Z</time></trkpt><trkpt lat="43.514650824243" lon="12.18622602873245"><ele>297.0</ele><time>2026-04-18T12:48:24Z</time></trkpt><trkpt lat="43.51468801817337" lon="12.186314977716236"><ele>296.8333333333333</ele><time>2026-04-18T12:48:25Z</time></trkpt><trkpt lat="43.51472535787791" lon="12.186397121906467"><ele>296.6666666666667</ele><time>2026-04-18T12:48:26Z</time></trkpt><trkpt lat="43.514761537278694" lon="12.186468353383257"><ele>296.5</ele><time>2026-04-18T12:48:27Z</time></trkpt><trkpt lat="43.51481485924762" lon="12.186585144958464"><ele>296.33333333333337</ele><time>2026-04-18T12:48:29Z</time></trkpt><trkpt lat="43.51486995341337" lon="12.186695746229704"><ele>296.1666666666667</ele><time>2026-04-18T12:48:31Z</time></trkpt><trkpt lat="43.51491304421016" lon="12.186780414661849"><ele>296.0</ele><time>2026-04-18T12:48:32Z</time></trkpt><trkpt lat="43.51496363946646" lon="12.186877118306253"><ele>296.0</ele><time>2026-04-18T12:48:33Z</time></trkpt><trkpt lat="43.51501660509244" lon="12.186985639615404"><ele>296.0</ele><time>2026-04-18T12:48:34Z</time></trkpt><trkpt lat="43.51506914814385" lon="12.187100029906402"><ele>296.0</ele><time>2026-04-18T12:48:35Z</time></trkpt><trkpt lat="43.51512451899528" lon="12.187221861704082"><ele>296.0</ele><time>2026-04-18T12:48:36Z</time></trkpt><trkpt lat="43.515178425796314" lon="12.187335159902958"><ele>296.0</ele><time>2026-04-18T12:48:37Z</time></trkpt><trkpt lat="43.51522777069692" lon="12.187438540162916"><ele>296.1666666666667</ele><time>2026-04-18T12:48:38Z</time></trkpt><trkpt lat="43.51527158866719" lon="12.187534469414073"><ele>296.33333333333337</ele><time>2026-04-18T12:48:39Z</time></trkpt><trkpt lat="43.51531177173672" lon="12.187620629592166"><ele>296.5</ele><time>2026-04-18T12:48:40Z</time></trkpt><trkpt lat="43.51534670737173" lon="12.187698773288773"><ele>296.6666666666667</ele><time>2026-04-18T12:48:41Z</time></trkpt><trkpt lat="43.515410658259746" lon="12.187830625653831"><ele>296.8333333333333</ele><time>2026-04-18T12:48:43Z</time></trkpt><trkpt lat="43.51545410550792" lon="12.18794570291493"><ele>297.0</ele><time>2026-04-18T12:48:45Z</time></trkpt><trkpt lat="43.51549680370101" lon="12.188017884230186"><ele>296.6</ele><time>2026-04-18T12:48:47Z</time></trkpt><trkpt lat="43.51562855487904" lon="12.1879354724484"><ele>296.2</ele><time>2026-04-18T12:48:48Z</time></trkpt><trkpt lat="43.515693330839305" lon="12.187906239060583"><ele>295.8</ele><time>2026-04-18T12:48:49Z</time></trkpt><trkpt lat="43.515769131401875" lon="12.187874474644532"><ele>295.4</ele><time>2026-04-18T12:48:50Z</time></trkpt><trkpt lat="43.51585038445117" lon="12.187842004881432"><ele>295.0</ele><time>2026-04-18T12:48:51Z</time></trkpt><trkpt lat="43.515939305980595" lon="12.187817853026772"><ele>295.0</ele><time>2026-04-18T12:48:52Z</time></trkpt><trkpt lat="43.51602961711686" lon="12.187799122342946"><ele>295.0</ele><time>2026-04-18T12:48:53Z</time></trkpt><trkpt lat="43.51611838865223" lon="12.187786437389253"><ele>295.0</ele><time>2026-04-18T12:48:54Z</time></trkpt><trkpt lat="43.516200920200255" lon="12.187773483764465"><ele>295.0</ele><time>2026-04-18T12:48:55Z</time></trkpt><trkpt lat="43.51628724451794" lon="12.1877684989273"><ele>295.0</ele><time>2026-04-18T12:48:56Z</time></trkpt><trkpt lat="43.51637635204017" lon="12.18775827546812"><ele>295.0</ele><time>2026-04-18T12:48:57Z</time></trkpt><trkpt lat="43.516468129601584" lon="12.187762600397445"><ele>294.8333333333333</ele><time>2026-04-18T12:48:58Z</time></trkpt><trkpt lat="43.51655356114784" lon="12.187724109366192"><ele>294.66666666666663</ele><time>2026-04-18T12:48:59Z</time></trkpt><trkpt lat="43.51662863678265" lon="12.187677317870241"><ele>294.5</ele><time>2026-04-18T12:49:00Z</time></trkpt><trkpt lat="43.516703050271964" lon="12.187623651897356"><ele>294.3333333333333</ele><time>2026-04-18T12:49:01Z</time></trkpt><trkpt lat="43.51677868535576" lon="12.187565582409968"><ele>294.1666666666667</ele><time>2026-04-18T12:49:02Z</time></trkpt><trkpt lat="43.516843461260656" lon="12.187492827616428"><ele>294.0</ele><time>2026-04-18T12:49:03Z</time></trkpt><trkpt lat="43.51691807957254" lon="12.187447951569846"><ele>294.0</ele><time>2026-04-18T12:49:04Z</time></trkpt><trkpt lat="43.51699216531705" lon="12.187405430746903"><ele>294.0</ele><time>2026-04-18T12:49:05Z</time></trkpt><trkpt lat="43.51706973065521" lon="12.187385531064525"><ele>294.0</ele><time>2026-04-18T12:49:06Z</time></trkpt><trkpt lat="43.5171475146731" lon="12.18739485618271"><ele>294.0</ele><time>2026-04-18T12:49:07Z</time></trkpt><trkpt lat="43.517213668123865" lon="12.18743518733704"><ele>294.0</ele><time>2026-04-18T12:49:08Z</time></trkpt><trkpt lat="43.51727299435035" lon="12.187486125161342"><ele>294.0</ele><time>2026-04-18T12:49:09Z</time></trkpt><trkpt lat="43.517335131284355" lon="12.187543840326732"><ele>294.42857142857144</ele><time>2026-04-18T12:49:10Z</time></trkpt><trkpt lat="43.517396468278946" lon="12.187597848452175"><ele>294.8571428571429</ele><time>2026-04-18T12:49:11Z</time></trkpt><trkpt lat="43.51746012088731" lon="12.187654598964798"><ele>295.2857142857143</ele><time>2026-04-18T12:49:12Z</time></trkpt><trkpt lat="43.51752414888425" lon="12.187692718743028"><ele>295.7142857142857</ele><time>2026-04-18T12:49:13Z</time></trkpt><trkpt lat="43.51758338487965" lon="12.1877417183769"><ele>296.14285714285717</ele><time>2026-04-18T12:49:14Z</time></trkpt><trkpt lat="43.517654317529676" lon="12.187715709918503"><ele>296.57142857142856</ele><time>2026-04-18T12:49:15Z</time></trkpt><trkpt lat="43.517716398871464" lon="12.187661461330148"><ele>297.0</ele><time>2026-04-18T12:49:16Z</time></trkpt><trkpt lat="43.517781746342074" lon="12.187640466684906"><ele>297.0</ele><time>2026-04-18T12:49:17Z</time></trkpt><trkpt lat="43.517847452420504" lon="12.18758779057359"><ele>297.0</ele><time>2026-04-18T12:49:18Z</time></trkpt><trkpt lat="43.51791345574253" lon="12.187534138426217"><ele>297.0</ele><time>2026-04-18T12:49:19Z</time></trkpt><trkpt lat="43.51798212924709" lon="12.187473767960954"><ele>297.0</ele><time>2026-04-18T12:49:20Z</time></trkpt><trkpt lat="43.51804430830205" lon="12.187410852213866"><ele>297.0</ele><time>2026-04-18T12:49:21Z</time></trkpt><trkpt lat="43.51812053648602" lon="12.18738283918254"><ele>297.0</ele><time>2026-04-18T12:49:22Z</time></trkpt><trkpt lat="43.51820576533854" lon="12.18738985931003"><ele>297.0</ele><time>2026-04-18T12:49:23Z</time></trkpt><trkpt lat="43.51829104780082" lon="12.187373876393197"><ele>297.0</ele><time>2026-04-18T12:49:24Z</time></trkpt><trkpt lat="43.51837510856487" lon="12.18733619234259"><ele>297.0</ele><time>2026-04-18T12:49:25Z</time></trkpt><trkpt lat="43.5184716980426" lon="12.187340020468511"><ele>297.0</ele><time>2026-04-18T12:49:26Z</time></trkpt><trkpt lat="43.51856707148648" lon="12.187322146394704"><ele>297.0</ele><time>2026-04-18T12:49:27Z</time></trkpt><trkpt lat="43.51866674896927" lon="12.187302488200645"><ele>296.8</ele><time>2026-04-18T12:49:28Z</time></trkpt><trkpt lat="43.51876169829447" lon="12.187275531791585"><ele>296.6</ele><time>2026-04-18T12:49:29Z</time></trkpt><trkpt lat="43.518851228043886" lon="12.187237641736544"><ele>296.40000000000003</ele><time>2026-04-18T12:49:30Z</time></trkpt><trkpt lat="43.518941546833936" lon="12.18719191466018"><ele>296.2</ele><time>2026-04-18T12:49:31Z</time></trkpt><trkpt lat="43.51904068645945" lon="12.187141187872635"><ele>296.0</ele><time>2026-04-18T12:49:32Z</time></trkpt><trkpt lat="43.51914101465751" lon="12.187091271990651"><ele>296.0</ele><time>2026-04-18T12:49:33Z</time></trkpt><trkpt lat="43.51923529734595" lon="12.18704694405733"><ele>296.0</ele><time>2026-04-18T12:49:34Z</time></trkpt><trkpt lat="43.51932366955841" lon="12.187008212402578"><ele>296.0</ele><time>2026-04-18T12:49:35Z</time></trkpt><trkpt lat="43.51940662355807" lon="12.186974639516206"><ele>296.0</ele><time>2026-04-18T12:49:36Z</time></trkpt><trkpt lat="43.51948456627766" lon="12.186948553089103"><ele>296.0</ele><time>2026-04-18T12:49:37Z</time></trkpt><trkpt lat="43.51955951792565" lon="12.186930629279477"><ele>296.0</ele><time>2026-04-18T12:49:38Z</time></trkpt><trkpt lat="43.51964477660386" lon="12.186913192217153"><ele>296.25</ele><time>2026-04-18T12:49:39Z</time></trkpt><trkpt lat="43.51975701574781" lon="12.186887402231877"><ele>296.5</ele><time>2026-04-18T12:49:40Z</time></trkpt><trkpt lat="43.519879970364" lon="12.186851162680009"><ele>296.75</ele><time>2026-04-18T12:49:41Z</time></trkpt><trkpt lat="43.520012268787994" lon="12.186809216167749"><ele>297.0</ele><time>2026-04-18T12:49:42Z</time></trkpt><trkpt lat="43.52014659955138" lon="12.186763875834261"><ele>297.0</ele><time>2026-04-18T12:49:43Z</time></trkpt><trkpt lat="43.52028228178731" lon="12.186716332739051"><ele>297.0</ele><time>2026-04-18T12:49:44Z</time></trkpt><trkpt lat="43.52041498465005" lon="12.186668053569388"><ele>297.0</ele><time>2026-04-18T12:49:45Z</time></trkpt><trkpt lat="43.52053946337854" lon="12.186622535682698"><ele>297.0</ele><time>2026-04-18T12:49:46Z</time></trkpt><trkpt lat="43.52065653514038" lon="12.186579726257913"><ele>297.25</ele><time>2026-04-18T12:49:47Z</time></trkpt><trkpt lat="43.52076424736699" lon="12.186540178898081"><ele>297.5</ele><time>2026-04-18T12:49:48Z</time></trkpt><trkpt lat="43.520870236151524" lon="12.186499665495681"><ele>297.75</ele><time>2026-04-18T12:49:49Z</time></trkpt><trkpt lat="43.520979001483035" lon="12.186457806117529"><ele>298.0</ele><time>2026-04-18T12:49:50Z</time></trkpt><trkpt lat="43.52109386630603" lon="12.186409213095912"><ele>297.8</ele><time>2026-04-18T12:49:51Z</time></trkpt><trkpt lat="43.521191815981624" lon="12.186363294103833"><ele>297.6</ele><time>2026-04-18T12:49:52Z</time></trkpt><trkpt lat="43.52129848827507" lon="12.186309478852758"><ele>297.4</ele><time>2026-04-18T12:49:53Z</time></trkpt><trkpt lat="43.52139680994777" lon="12.186235881893852"><ele>297.2</ele><time>2026-04-18T12:49:54Z</time></trkpt><trkpt lat="43.521505904458714" lon="12.186187927095421"><ele>297.0</ele><time>2026-04-18T12:49:55Z</time></trkpt><trkpt lat="43.52160715255277" lon="12.186134334427344"><ele>297.0</ele><time>2026-04-18T12:49:56Z</time></trkpt><trkpt lat="43.52171161643171" lon="12.186074463369893"><ele>297.0</ele><time>2026-04-18T12:49:57Z</time></trkpt><trkpt lat="43.521817625214624" lon="12.186021606554355"><ele>297.0</ele><time>2026-04-18T12:49:58Z</time></trkpt><trkpt lat="43.52190752057284" lon="12.185925052731019"><ele>297.0</ele><time>2026-04-18T12:49:59Z</time></trkpt><trkpt lat="43.52201352266254" lon="12.18586207147659"><ele>297.0</ele><time>2026-04-18T12:50:00Z</time></trkpt><trkpt lat="43.52211101447705" lon="12.185779118122184"><ele>297.0</ele><time>2026-04-18T12:50:01Z</time></trkpt><trkpt lat="43.52220564193681" lon="12.185698601999642"><ele>297.0</ele><time>2026-04-18T12:50:02Z</time></trkpt><trkpt lat="43.52229788829398" lon="12.185620111839091"><ele>297.0</ele><time>2026-04-18T12:50:03Z</time></trkpt><trkpt lat="43.52238084197246" lon="12.185549528664165"><ele>297.0</ele><time>2026-04-18T12:50:04Z</time></trkpt><trkpt lat="43.52245573444327" lon="12.185485804571194"><ele>297.0</ele><time>2026-04-18T12:50:05Z</time></trkpt><trkpt lat="43.522529689033014" lon="12.185422878384168"><ele>297.0</ele><time>2026-04-18T12:50:06Z</time></trkpt><trkpt lat="43.52259540614413" lon="12.185366961302494"><ele>297.0</ele><time>2026-04-18T12:50:07Z</time></trkpt><trkpt lat="43.52265133678845" lon="12.185319371340569"><ele>297.0</ele><time>2026-04-18T12:50:08Z</time></trkpt><trkpt lat="43.522739578258474" lon="12.185244288897303"><ele>297.0</ele><time>2026-04-18T12:50:10Z</time></trkpt><trkpt lat="43.52282019912129" lon="12.185178195998327"><ele>297.0</ele><time>2026-04-18T12:50:12Z</time></trkpt><trkpt lat="43.522876515611614" lon="12.185133670655832"><ele>296.8</ele><time>2026-04-18T12:50:14Z</time></trkpt><trkpt lat="43.52294300010661" lon="12.185081064990442"><ele>296.6</ele><time>2026-04-18T12:50:20Z</time></trkpt><trkpt lat="43.52299498257528" lon="12.18525673971498"><ele>296.40000000000003</ele><time>2026-04-18T12:50:22Z</time></trkpt><trkpt lat="43.523059344539526" lon="12.185387718142119"><ele>296.2</ele><time>2026-04-18T12:50:23Z</time></trkpt><trkpt lat="43.523098375793175" lon="12.185529558208215"><ele>296.0</ele><time>2026-04-18T12:50:24Z</time></trkpt><trkpt lat="43.523153581224335" lon="12.185682606549095"><ele>296.5</ele><time>2026-04-18T12:50:25Z</time></trkpt><trkpt lat="43.52321544772802" lon="12.185847602988423"><ele>297.0</ele><time>2026-04-18T12:50:26Z</time></trkpt><trkpt lat="43.52328419505772" lon="12.186026459788241"><ele>297.5</ele><time>2026-04-18T12:50:27Z</time></trkpt><trkpt lat="43.52335138688714" lon="12.186217342678026"><ele>298.0</ele><time>2026-04-18T12:50:28Z</time></trkpt><trkpt lat="43.52341918531695" lon="12.18640921395369"><ele>298.0</ele><time>2026-04-18T12:50:29Z</time></trkpt><trkpt lat="43.5234876182522" lon="12.186608822608848"><ele>298.0</ele><time>2026-04-18T12:50:30Z</time></trkpt><trkpt lat="43.52355760576124" lon="12.186813532581493"><ele>298.0</ele><time>2026-04-18T12:50:31Z</time></trkpt><trkpt lat="43.523632287597664" lon="12.187034223734248"><ele>298.0</ele><time>2026-04-18T12:50:32Z</time></trkpt><trkpt lat="43.5237093291387" lon="12.187236281004324"><ele>298.0</ele><time>2026-04-18T12:50:33Z</time></trkpt><trkpt lat="43.52378717231074" lon="12.187442099847875"><ele>298.0</ele><time>2026-04-18T12:50:34Z</time></trkpt><trkpt lat="43.52385929788324" lon="12.187642557400883"><ele>298.25</ele><time>2026-04-18T12:50:35Z</time></trkpt><trkpt lat="43.523923059182536" lon="12.187830355392936"><ele>298.5</ele><time>2026-04-18T12:50:36Z</time></trkpt><trkpt lat="43.5239821586921" lon="12.18801405085987"><ele>298.75</ele><time>2026-04-18T12:50:37Z</time></trkpt><trkpt lat="43.52404023024189" lon="12.18818974358903"><ele>299.0</ele><time>2026-04-18T12:50:38Z</time></trkpt><trkpt lat="43.524101930474025" lon="12.188371086754616"><ele>299.0</ele><time>2026-04-18T12:50:39Z</time></trkpt><trkpt lat="43.52416877579483" lon="12.188559194187981"><ele>299.0</ele><time>2026-04-18T12:50:40Z</time></trkpt><trkpt lat="43.52423688759192" lon="12.188750713931505"><ele>299.0</ele><time>2026-04-18T12:50:41Z</time></trkpt><trkpt lat="43.52430634414517" lon="12.188950180665548"><ele>299.33333333333337</ele><time>2026-04-18T12:50:42Z</time></trkpt><trkpt lat="43.52437209234876" lon="12.189156166443661"><ele>299.6666666666667</ele><time>2026-04-18T12:50:43Z</time></trkpt><trkpt lat="43.52444158860619" lon="12.189360696364206"><ele>300.0</ele><time>2026-04-18T12:50:44Z</time></trkpt><trkpt lat="43.52449681152877" lon="12.189571496546657"><ele>300.3333333333333</ele><time>2026-04-18T12:50:45Z</time></trkpt><trkpt lat="43.52457487384061" lon="12.189769762055041"><ele>300.66666666666663</ele><time>2026-04-18T12:50:46Z</time></trkpt><trkpt lat="43.52463786077893" lon="12.189960631316485"><ele>301.0</ele><time>2026-04-18T12:50:47Z</time></trkpt><trkpt lat="43.52469882898072" lon="12.190135005403604"><ele>301.75</ele><time>2026-04-18T12:50:48Z</time></trkpt><trkpt lat="43.52475654564887" lon="12.19030107385568"><ele>302.5</ele><time>2026-04-18T12:50:49Z</time></trkpt><trkpt lat="43.52481266918493" lon="12.190461205669559"><ele>303.25</ele><time>2026-04-18T12:50:50Z</time></trkpt><trkpt lat="43.524869193042" lon="12.190613218827506"><ele>304.0</ele><time>2026-04-18T12:50:51Z</time></trkpt><trkpt lat="43.524906919196255" lon="12.190766669982196"><ele>304.0</ele><time>2026-04-18T12:50:52Z</time></trkpt><trkpt lat="43.52495664844792" lon="12.190905417940218"><ele>304.0</ele><time>2026-04-18T12:50:53Z</time></trkpt><trkpt lat="43.525011752325725" lon="12.191033714441428"><ele>304.0</ele><time>2026-04-18T12:50:54Z</time></trkpt><trkpt lat="43.52505692058688" lon="12.191155378044567"><ele>304.0</ele><time>2026-04-18T12:50:55Z</time></trkpt><trkpt lat="43.525093945057705" lon="12.19125944345388"><ele>304.0</ele><time>2026-04-18T12:50:56Z</time></trkpt><trkpt lat="43.52512794958426" lon="12.191351511308469"><ele>304.0</ele><time>2026-04-18T12:50:57Z</time></trkpt><trkpt lat="43.525156074194136" lon="12.191430235014316"><ele>304.0</ele><time>2026-04-18T12:50:58Z</time></trkpt><trkpt lat="43.52522204183882" lon="12.191592393942004"><ele>304.0</ele><time>2026-04-18T12:51:00Z</time></trkpt><trkpt lat="43.5252508872627" lon="12.19169624509968"><ele>304.0</ele><time>2026-04-18T12:51:01Z</time></trkpt><trkpt lat="43.525289786098796" lon="12.191785710393104"><ele>304.0</ele><time>2026-04-18T12:51:02Z</time></trkpt><trkpt lat="43.52532636131021" lon="12.19188546225299"><ele>304.0</ele><time>2026-04-18T12:51:03Z</time></trkpt><trkpt lat="43.52535862646042" lon="12.191980308689859"><ele>304.0</ele><time>2026-04-18T12:51:04Z</time></trkpt><trkpt lat="43.5253988328358" lon="12.192084559524442"><ele>304.0</ele><time>2026-04-18T12:51:05Z</time></trkpt><trkpt lat="43.52542803650077" lon="12.19217446542192"><ele>304.0</ele><time>2026-04-18T12:51:06Z</time></trkpt><trkpt lat="43.52545214684375" lon="12.192255772221085"><ele>304.0</ele><time>2026-04-18T12:51:07Z</time></trkpt><trkpt lat="43.525500169240516" lon="12.192392899697992"><ele>304.0</ele><time>2026-04-18T12:51:09Z</time></trkpt><trkpt lat="43.52553555333484" lon="12.19248331608852"><ele>304.0</ele><time>2026-04-18T12:51:12Z</time></trkpt><trkpt lat="43.52563514042143" lon="12.19255641709204"><ele>304.0</ele><time>2026-04-18T12:51:19Z</time></trkpt><trkpt lat="43.52572336881158" lon="12.192437316607434"><ele>304.0</ele><time>2026-04-18T12:51:20Z</time></trkpt><trkpt lat="43.52580600787874" lon="12.192380659789382"><ele>304.0</ele><time>2026-04-18T12:51:21Z</time></trkpt><trkpt lat="43.52589856640317" lon="12.192307576243481"><ele>304.0</ele><time>2026-04-18T12:51:22Z</time></trkpt><trkpt lat="43.52601223600754" lon="12.192226078724225"><ele>304.0</ele><time>2026-04-18T12:51:23Z</time></trkpt><trkpt lat="43.52613636854034" lon="12.192140932822255"><ele>304.0</ele><time>2026-04-18T12:51:24Z</time></trkpt><trkpt lat="43.52627043328495" lon="12.19204235330557"><ele>304.0</ele><time>2026-04-18T12:51:25Z</time></trkpt><trkpt lat="43.52641411950391" lon="12.1919413758378"><ele>304.3333333333333</ele><time>2026-04-18T12:51:26Z</time></trkpt><trkpt lat="43.52656973348093" lon="12.191835108297845"><ele>304.6666666666667</ele><time>2026-04-18T12:51:27Z</time></trkpt><trkpt lat="43.52673321961622" lon="12.191722839731987"><ele>305.0</ele><time>2026-04-18T12:51:28Z</time></trkpt><trkpt lat="43.52690792207152" lon="12.191598916351593"><ele>305.0</ele><time>2026-04-18T12:51:29Z</time></trkpt><trkpt lat="43.52708026908292" lon="12.191479207467136"><ele>305.0</ele><time>2026-04-18T12:51:30Z</time></trkpt><trkpt lat="43.52725043148709" lon="12.191360429817765"><ele>305.0</ele><time>2026-04-18T12:51:31Z</time></trkpt><trkpt lat="43.52742294454743" lon="12.191237711062284"><ele>305.0</ele><time>2026-04-18T12:51:32Z</time></trkpt><trkpt lat="43.52759573957941" lon="12.191115284197826"><ele>305.0</ele><time>2026-04-18T12:51:33Z</time></trkpt><trkpt lat="43.52776793103483" lon="12.190996087266525"><ele>305.0</ele><time>2026-04-18T12:51:34Z</time></trkpt><trkpt lat="43.52793977785825" lon="12.190872904003063"><ele>304.6666666666667</ele><time>2026-04-18T12:51:35Z</time></trkpt><trkpt lat="43.528112619810926" lon="12.190752369363336"><ele>304.3333333333333</ele><time>2026-04-18T12:51:36Z</time></trkpt><trkpt lat="43.52828670705645" lon="12.190633133774934"><ele>304.0</ele><time>2026-04-18T12:51:37Z</time></trkpt><trkpt lat="43.52845919427846" lon="12.190512999082037"><ele>303.66666666666663</ele><time>2026-04-18T12:51:38Z</time></trkpt><trkpt lat="43.52862848278657" lon="12.19038502110557"><ele>303.3333333333333</ele><time>2026-04-18T12:51:39Z</time></trkpt><trkpt lat="43.52879901186147" lon="12.190257111384577"><ele>303.0</ele><time>2026-04-18T12:51:40Z</time></trkpt><trkpt lat="43.52897354726151" lon="12.190137023749083"><ele>303.0</ele><time>2026-04-18T12:51:41Z</time></trkpt><trkpt lat="43.52914543623193" lon="12.190017516126805"><ele>303.0</ele><time>2026-04-18T12:51:42Z</time></trkpt><trkpt lat="43.529314933309365" lon="12.189899035150962"><ele>303.0</ele><time>2026-04-18T12:51:43Z</time></trkpt><trkpt lat="43.529483267445315" lon="12.189779517881867"><ele>303.0</ele><time>2026-04-18T12:51:44Z</time></trkpt><trkpt lat="43.529650426651216" lon="12.189659342537608"><ele>303.0</ele><time>2026-04-18T12:51:45Z</time></trkpt><trkpt lat="43.5298156595396" lon="12.189544021692116"><ele>303.0</ele><time>2026-04-18T12:51:46Z</time></trkpt><trkpt lat="43.5299813871982" lon="12.189426024204538"><ele>303.0</ele><time>2026-04-18T12:51:47Z</time></trkpt><trkpt lat="43.53014272625906" lon="12.189310531624924"><ele>303.0</ele><time>2026-04-18T12:51:48Z</time></trkpt><trkpt lat="43.53030350522791" lon="12.189194151706351"><ele>303.0</ele><time>2026-04-18T12:51:49Z</time></trkpt><trkpt lat="43.53046419303811" lon="12.189078929396844"><ele>302.6666666666667</ele><time>2026-04-18T12:51:50Z</time></trkpt><trkpt lat="43.530626877833704" lon="12.188965361239651"><ele>302.33333333333337</ele><time>2026-04-18T12:51:51Z</time></trkpt><trkpt lat="43.53078962871051" lon="12.188852422916092"><ele>302.0</ele><time>2026-04-18T12:51:52Z</time></trkpt><trkpt lat="43.530951154387715" lon="12.18873703192152"><ele>302.0</ele><time>2026-04-18T12:51:53Z</time></trkpt><trkpt lat="43.53111006145765" lon="12.188623297831349"><ele>302.0</ele><time>2026-04-18T12:51:54Z</time></trkpt><trkpt lat="43.531270432601595" lon="12.18850873602414"><ele>302.0</ele><time>2026-04-18T12:51:55Z</time></trkpt><trkpt lat="43.53143328658772" lon="12.188391966260992"><ele>302.0</ele><time>2026-04-18T12:51:56Z</time></trkpt><trkpt lat="43.53159805739167" lon="12.18827568674914"><ele>302.0</ele><time>2026-04-18T12:51:57Z</time></trkpt><trkpt lat="43.531766811499224" lon="12.188158525440892"><ele>302.0</ele><time>2026-04-18T12:51:58Z</time></trkpt><trkpt lat="43.53193516252025" lon="12.188037050902128"><ele>302.0</ele><time>2026-04-18T12:51:59Z</time></trkpt><trkpt lat="43.532102745593434" lon="12.187916050806566"><ele>302.0</ele><time>2026-04-18T12:52:00Z</time></trkpt><trkpt lat="43.53227043496161" lon="12.187792857705142"><ele>302.0</ele><time>2026-04-18T12:52:00.999Z</time></trkpt><trkpt lat="43.532433166816645" lon="12.187677972439575"><ele>302.0</ele><time>2026-04-18T12:52:01.999Z</time></trkpt><trkpt lat="43.53259442185101" lon="12.187565999461103"><ele>302.0</ele><time>2026-04-18T12:52:02.999Z</time></trkpt><trkpt lat="43.53274999687519" lon="12.18745181815523"><ele>302.0</ele><time>2026-04-18T12:52:03.999Z</time></trkpt><trkpt lat="43.532904307472414" lon="12.187339237487432"><ele>303.33333333333337</ele><time>2026-04-18T12:52:04.999Z</time></trkpt><trkpt lat="43.533055419136154" lon="12.187245833837116"><ele>304.6666666666667</ele><time>2026-04-18T12:52:05.999Z</time></trkpt><trkpt lat="43.53320212398373" lon="12.187142329449872"><ele>306.0</ele><time>2026-04-18T12:52:06.999Z</time></trkpt><trkpt lat="43.53334154869546" lon="12.187043672513768"><ele>306.0</ele><time>2026-04-18T12:52:07.999Z</time></trkpt><trkpt lat="43.53347824280618" lon="12.186944408002038"><ele>306.0</ele><time>2026-04-18T12:52:08.999Z</time></trkpt><trkpt lat="43.533612198256805" lon="12.186846655271383"><ele>306.0</ele><time>2026-04-18T12:52:09.999Z</time></trkpt><trkpt lat="43.53374829514738" lon="12.1867455826117"><ele>306.0</ele><time>2026-04-18T12:52:10.999Z</time></trkpt><trkpt lat="43.533886394644156" lon="12.186647430882786"><ele>306.0</ele><time>2026-04-18T12:52:11.999Z</time></trkpt><trkpt lat="43.53402502261134" lon="12.186553260094984"><ele>306.0</ele><time>2026-04-18T12:52:12.999Z</time></trkpt><trkpt lat="43.534161437819286" lon="12.186461259112026"><ele>306.3333333333333</ele><time>2026-04-18T12:52:13.999Z</time></trkpt><trkpt lat="43.534296423718025" lon="12.186369879403843"><ele>306.66666666666663</ele><time>2026-04-18T12:52:14.999Z</time></trkpt><trkpt lat="43.53443579865528" lon="12.186274187975833"><ele>307.0</ele><time>2026-04-18T12:52:15.999Z</time></trkpt><trkpt lat="43.53457518201497" lon="12.186178629613895"><ele>307.66666666666663</ele><time>2026-04-18T12:52:16.999Z</time></trkpt><trkpt lat="43.53471775848991" lon="12.186083031203996"><ele>308.3333333333333</ele><time>2026-04-18T12:52:17.999Z</time></trkpt><trkpt lat="43.534860079806485" lon="12.185982137584224"><ele>309.0</ele><time>2026-04-18T12:52:18.999Z</time></trkpt><trkpt lat="43.534999669370976" lon="12.185862170662766"><ele>309.0</ele><time>2026-04-18T12:52:19.999Z</time></trkpt><trkpt lat="43.535135196026225" lon="12.185724064067772"><ele>309.0</ele><time>2026-04-18T12:52:20.999Z</time></trkpt><trkpt lat="43.535266680358994" lon="12.18557054133259"><ele>309.0</ele><time>2026-04-18T12:52:21.999Z</time></trkpt><trkpt lat="43.53540374556763" lon="12.185419336271249"><ele>310.0</ele><time>2026-04-18T12:52:22.999Z</time></trkpt><trkpt lat="43.53554090992697" lon="12.185261959441906"><ele>311.0</ele><time>2026-04-18T12:52:23.999Z</time></trkpt><trkpt lat="43.53569167042846" lon="12.185107262115764"><ele>312.0</ele><time>2026-04-18T12:52:24.999Z</time></trkpt><trkpt lat="43.53581952795142" lon="12.18493336737538"><ele>311.0</ele><time>2026-04-18T12:52:25.999Z</time></trkpt><trkpt lat="43.535963800739125" lon="12.184777599605614"><ele>310.0</ele><time>2026-04-18T12:52:26.999Z</time></trkpt><trkpt lat="43.536105356840615" lon="12.184621125045796"><ele>309.0</ele><time>2026-04-18T12:52:27.999Z</time></trkpt><trkpt lat="43.53625577575332" lon="12.18447944192939"><ele>309.0</ele><time>2026-04-18T12:52:28.999Z</time></trkpt><trkpt lat="43.53640510721127" lon="12.18434768039982"><ele>309.0</ele><time>2026-04-18T12:52:29.999Z</time></trkpt><trkpt lat="43.53655982208765" lon="12.184232431316254"><ele>309.0</ele><time>2026-04-18T12:52:30.999Z</time></trkpt><trkpt lat="43.536712732563664" lon="12.184136578128808"><ele>309.0</ele><time>2026-04-18T12:52:31.999Z</time></trkpt><trkpt lat="43.53687617813473" lon="12.184061235195031"><ele>309.0</ele><time>2026-04-18T12:52:32.999Z</time></trkpt><trkpt lat="43.53704600364953" lon="12.18400128661836"><ele>309.0</ele><time>2026-04-18T12:52:33.999Z</time></trkpt><trkpt lat="43.53722402345448" lon="12.183965225122531"><ele>309.0</ele><time>2026-04-18T12:52:34.999Z</time></trkpt><trkpt lat="43.537403470578504" lon="12.183914799791047"><ele>309.0</ele><time>2026-04-18T12:52:35.999Z</time></trkpt><trkpt lat="43.53757561377312" lon="12.183866426928777"><ele>309.0</ele><time>2026-04-18T12:52:36.999Z</time></trkpt><trkpt lat="43.53775339282157" lon="12.183792745935058"><ele>309.3333333333333</ele><time>2026-04-18T12:52:37.999Z</time></trkpt><trkpt lat="43.537924474439876" lon="12.18373187145452"><ele>309.66666666666663</ele><time>2026-04-18T12:52:38.999Z</time></trkpt><trkpt lat="43.538087161877144" lon="12.183633235994167"><ele>310.0</ele><time>2026-04-18T12:52:39.999Z</time></trkpt><trkpt lat="43.53825189965185" lon="12.18352208629547"><ele>310.0</ele><time>2026-04-18T12:52:40.999Z</time></trkpt><trkpt lat="43.53842016995588" lon="12.183405431816523"><ele>310.0</ele><time>2026-04-18T12:52:41.999Z</time></trkpt><trkpt lat="43.53860001316741" lon="12.183298445651856"><ele>310.0</ele><time>2026-04-18T12:52:42.999Z</time></trkpt><trkpt lat="43.53877689811476" lon="12.183172742333609"><ele>310.0</ele><time>2026-04-18T12:52:43.999Z</time></trkpt><trkpt lat="43.538952342584395" lon="12.183047933507833"><ele>310.0</ele><time>2026-04-18T12:52:44.999Z</time></trkpt><trkpt lat="43.53912558946424" lon="12.182923958274495"><ele>310.0</ele><time>2026-04-18T12:52:45.999Z</time></trkpt><trkpt lat="43.5392981562495" lon="12.18280046967927"><ele>310.0</ele><time>2026-04-18T12:52:46.999Z</time></trkpt><trkpt lat="43.53946931094216" lon="12.182678718084134"><ele>310.0</ele><time>2026-04-18T12:52:47.999Z</time></trkpt><trkpt lat="43.53962988926299" lon="12.182564457456278"><ele>310.0</ele><time>2026-04-18T12:52:48.999Z</time></trkpt><trkpt lat="43.53977893507923" lon="12.1824584028973"><ele>310.25</ele><time>2026-04-18T12:52:49.999Z</time></trkpt><trkpt lat="43.53991718994855" lon="12.182358761265515"><ele>310.5</ele><time>2026-04-18T12:52:50.999Z</time></trkpt><trkpt lat="43.54003708496966" lon="12.18225093499785"><ele>310.75</ele><time>2026-04-18T12:52:51.999Z</time></trkpt><trkpt lat="43.54017412453034" lon="12.182192778381536"><ele>311.0</ele><time>2026-04-18T12:52:52.999Z</time></trkpt><trkpt lat="43.54031761705712" lon="12.182152281238183"><ele>311.5</ele><time>2026-04-18T12:52:53.999Z</time></trkpt><trkpt lat="43.54046506192544" lon="12.182127259999428"><ele>312.0</ele><time>2026-04-18T12:52:54.999Z</time></trkpt><trkpt lat="43.540608021449216" lon="12.182135463131115"><ele>312.5</ele><time>2026-04-18T12:52:55.999Z</time></trkpt><trkpt lat="43.540738272358276" lon="12.182192218681717"><ele>313.0</ele><time>2026-04-18T12:52:56.999Z</time></trkpt><trkpt lat="43.540858298338726" lon="12.182240179347907"><ele>313.66666666666663</ele><time>2026-04-18T12:52:57.999Z</time></trkpt><trkpt lat="43.540927604373735" lon="12.182458121460819"><ele>314.3333333333333</ele><time>2026-04-18T12:52:58.999Z</time></trkpt><trkpt lat="43.54103064627007" lon="12.182592921219836"><ele>315.0</ele><time>2026-04-18T12:52:59.999Z</time></trkpt><trkpt lat="43.54113189106237" lon="12.182744492128043"><ele>315.25</ele><time>2026-04-18T12:53:00.999Z</time></trkpt><trkpt lat="43.54123528714994" lon="12.182884389289791"><ele>315.5</ele><time>2026-04-18T12:53:01.999Z</time></trkpt><trkpt lat="43.541339154917345" lon="12.183018164460604"><ele>315.75</ele><time>2026-04-18T12:53:02.999Z</time></trkpt><trkpt lat="43.54143595286111" lon="12.183136376859077"><ele>316.0</ele><time>2026-04-18T12:53:03.999Z</time></trkpt><trkpt lat="43.5415390591665" lon="12.18321329135088"><ele>316.75</ele><time>2026-04-18T12:53:04.999Z</time></trkpt><trkpt lat="43.541652625068636" lon="12.18325120717918"><ele>317.5</ele><time>2026-04-18T12:53:05.999Z</time></trkpt><trkpt lat="43.541772463450094" lon="12.18323773858874"><ele>318.25</ele><time>2026-04-18T12:53:06.999Z</time></trkpt><trkpt lat="43.54188486761093" lon="12.183210720111752"><ele>319.0</ele><time>2026-04-18T12:53:07.999Z</time></trkpt><trkpt lat="43.5419847313018" lon="12.183213173844592"><ele>319.0</ele><time>2026-04-18T12:53:08.999Z</time></trkpt><trkpt lat="43.542069819620764" lon="12.183253566743922"><ele>319.0</ele><time>2026-04-18T12:53:09.999Z</time></trkpt><trkpt lat="43.54215511794241" lon="12.183305184632879"><ele>319.0</ele><time>2026-04-18T12:53:10.999Z</time></trkpt><trkpt lat="43.542242489693365" lon="12.183367542915505"><ele>319.0</ele><time>2026-04-18T12:53:11.999Z</time></trkpt><trkpt lat="43.54232924221209" lon="12.183443398998733"><ele>319.0</ele><time>2026-04-18T12:53:12.999Z</time></trkpt><trkpt lat="43.5424134300732" lon="12.183541613235944"><ele>319.0</ele><time>2026-04-18T12:53:13.999Z</time></trkpt><trkpt lat="43.54248860522108" lon="12.183659233674113"><ele>319.0</ele><time>2026-04-18T12:53:14.999Z</time></trkpt><trkpt lat="43.542567712173465" lon="12.183795023410033"><ele>319.0</ele><time>2026-04-18T12:53:15.999Z</time></trkpt><trkpt lat="43.54264512517714" lon="12.183940730053164"><ele>319.0</ele><time>2026-04-18T12:53:16.999Z</time></trkpt><trkpt lat="43.54272195691907" lon="12.184085558941055"><ele>319.5</ele><time>2026-04-18T12:53:17.999Z</time></trkpt><trkpt lat="43.54281228397465" lon="12.184227177042922"><ele>320.0</ele><time>2026-04-18T12:53:18.999Z</time></trkpt><trkpt lat="43.54291642518967" lon="12.184363721914126"><ele>320.5</ele><time>2026-04-18T12:53:19.999Z</time></trkpt><trkpt lat="43.54304204819611" lon="12.184485658239927"><ele>321.0</ele><time>2026-04-18T12:53:20.999Z</time></trkpt><trkpt lat="43.543186350417244" lon="12.184596093966897"><ele>321.0</ele><time>2026-04-18T12:53:21.999Z</time></trkpt><trkpt lat="43.54333853189027" lon="12.184684061544989"><ele>321.0</ele><time>2026-04-18T12:53:22.999Z</time></trkpt><trkpt lat="43.54349695037911" lon="12.184745616137569"><ele>321.0</ele><time>2026-04-18T12:53:24Z</time></trkpt><trkpt lat="43.54366415096255" lon="12.184775527424547"><ele>321.6666666666667</ele><time>2026-04-18T12:53:25Z</time></trkpt><trkpt lat="43.543835429516754" lon="12.184771326004295"><ele>322.33333333333337</ele><time>2026-04-18T12:53:26Z</time></trkpt><trkpt lat="43.54400994106678" lon="12.18474446703531"><ele>323.0</ele><time>2026-04-18T12:53:27Z</time></trkpt><trkpt lat="43.54418148964234" lon="12.184710840565696"><ele>323.0</ele><time>2026-04-18T12:53:28Z</time></trkpt><trkpt lat="43.5443442946161" lon="12.18468821400837"><ele>323.0</ele><time>2026-04-18T12:53:29Z</time></trkpt><trkpt lat="43.54449564106019" lon="12.18467064841717"><ele>323.0</ele><time>2026-04-18T12:53:30Z</time></trkpt><trkpt lat="43.544635585038314" lon="12.184656349051597"><ele>323.79999999999995</ele><time>2026-04-18T12:53:31Z</time></trkpt><trkpt lat="43.54475880619793" lon="12.18463708499509"><ele>324.6</ele><time>2026-04-18T12:53:32Z</time></trkpt><trkpt lat="43.544865270463326" lon="12.184631892468394"><ele>325.4</ele><time>2026-04-18T12:53:33Z</time></trkpt><trkpt lat="43.54496454112287" lon="12.18465658314022"><ele>326.20000000000005</ele><time>2026-04-18T12:53:34Z</time></trkpt><trkpt lat="43.545052358193786" lon="12.184718725061794"><ele>327.0</ele><time>2026-04-18T12:53:35Z</time></trkpt><trkpt lat="43.545111865447296" lon="12.18482207225936"><ele>327.20000000000005</ele><time>2026-04-18T12:53:36Z</time></trkpt><trkpt lat="43.54517506113685" lon="12.184899619367535"><ele>327.4</ele><time>2026-04-18T12:53:37Z</time></trkpt><trkpt lat="43.545258984473215" lon="12.184913720843586"><ele>327.6</ele><time>2026-04-18T12:53:38Z</time></trkpt><trkpt lat="43.545347934114865" lon="12.18487831331249"><ele>327.79999999999995</ele><time>2026-04-18T12:53:39Z</time></trkpt><trkpt lat="43.54543830951264" lon="12.184809751068661"><ele>328.0</ele><time>2026-04-18T12:53:40Z</time></trkpt><trkpt lat="43.545542578804444" lon="12.184719677055911"><ele>328.0</ele><time>2026-04-18T12:53:41Z</time></trkpt><trkpt lat="43.54566429459352" lon="12.184638593599557"><ele>328.0</ele><time>2026-04-18T12:53:42Z</time></trkpt><trkpt lat="43.5458049369452" lon="12.184565198676106"><ele>328.0</ele><time>2026-04-18T12:53:43Z</time></trkpt><trkpt lat="43.54595573264738" lon="12.184503058510309"><ele>328.0</ele><time>2026-04-18T12:53:44Z</time></trkpt><trkpt lat="43.54612094652663" lon="12.184460037870393"><ele>329.0</ele><time>2026-04-18T12:53:45Z</time></trkpt><trkpt lat="43.54628448649498" lon="12.184442107079986"><ele>330.0</ele><time>2026-04-18T12:53:46Z</time></trkpt><trkpt lat="43.546441644662416" lon="12.184429845972469"><ele>331.0</ele><time>2026-04-18T12:53:47Z</time></trkpt><trkpt lat="43.546596881411176" lon="12.184416597401638"><ele>331.0</ele><time>2026-04-18T12:53:48Z</time></trkpt><trkpt lat="43.5467509725301" lon="12.18439923266943"><ele>331.0</ele><time>2026-04-18T12:53:49Z</time></trkpt><trkpt lat="43.54690085806915" lon="12.184383922995982"><ele>331.0</ele><time>2026-04-18T12:53:50Z</time></trkpt><trkpt lat="43.547043099882146" lon="12.184364160300198"><ele>331.0</ele><time>2026-04-18T12:53:51Z</time></trkpt><trkpt lat="43.54717886081384" lon="12.184344705681914"><ele>334.0</ele><time>2026-04-18T12:53:52Z</time></trkpt><trkpt lat="43.547314571806545" lon="12.184328027645282"><ele>337.0</ele><time>2026-04-18T12:53:53Z</time></trkpt><trkpt lat="43.547452650754906" lon="12.184305990362287"><ele>340.0</ele><time>2026-04-18T12:53:54Z</time></trkpt><trkpt lat="43.54758821422578" lon="12.184263924898804"><ele>343.0</ele><time>2026-04-18T12:53:55Z</time></trkpt><trkpt lat="43.54772524678816" lon="12.184206077131007"><ele>343.0</ele><time>2026-04-18T12:53:56Z</time></trkpt><trkpt lat="43.547861123811096" lon="12.184126026530777"><ele>343.0</ele><time>2026-04-18T12:53:57Z</time></trkpt><trkpt lat="43.54798838511815" lon="12.184028152881872"><ele>343.0</ele><time>2026-04-18T12:53:58Z</time></trkpt><trkpt lat="43.548118961252236" lon="12.183932687090174"><ele>343.0</ele><time>2026-04-18T12:53:59Z</time></trkpt><trkpt lat="43.548224083767465" lon="12.183784859199779"><ele>343.3333333333333</ele><time>2026-04-18T12:54:00Z</time></trkpt><trkpt lat="43.54833376085192" lon="12.183642491303132"><ele>343.6666666666667</ele><time>2026-04-18T12:54:01Z</time></trkpt><trkpt lat="43.54844353167539" lon="12.183495978694761"><ele>344.0</ele><time>2026-04-18T12:54:02Z</time></trkpt><trkpt lat="43.54855823626547" lon="12.183349214780415"><ele>344.0</ele><time>2026-04-18T12:54:03Z</time></trkpt><trkpt lat="43.54867028314887" lon="12.183197699155173"><ele>344.0</ele><time>2026-04-18T12:54:04Z</time></trkpt><trkpt lat="43.54878334560918" lon="12.183047707829886"><ele>344.0</ele><time>2026-04-18T12:54:05Z</time></trkpt><trkpt lat="43.548896923387964" lon="12.182908618439653"><ele>345.25</ele><time>2026-04-18T12:54:06Z</time></trkpt><trkpt lat="43.549008806259" lon="12.182774807725533"><ele>346.5</ele><time>2026-04-18T12:54:07Z</time></trkpt><trkpt lat="43.549124353705906" lon="12.182660933728709"><ele>347.75</ele><time>2026-04-18T12:54:08Z</time></trkpt><trkpt lat="43.54924304572601" lon="12.182576211235343"><ele>349.0</ele><time>2026-04-18T12:54:09Z</time></trkpt><trkpt lat="43.54936247930756" lon="12.18252103723901"><ele>349.0</ele><time>2026-04-18T12:54:10Z</time></trkpt><trkpt lat="43.549490874819845" lon="12.18249691040679"><ele>349.0</ele><time>2026-04-18T12:54:11Z</time></trkpt><trkpt lat="43.54962364724934" lon="12.182498925075567"><ele>349.0</ele><time>2026-04-18T12:54:12Z</time></trkpt><trkpt lat="43.54975828792623" lon="12.18252861115963"><ele>349.0</ele><time>2026-04-18T12:54:13Z</time></trkpt><trkpt lat="43.54989055136963" lon="12.182588914078341"><ele>349.0</ele><time>2026-04-18T12:54:14Z</time></trkpt><trkpt lat="43.550015062375344" lon="12.182670709730928"><ele>349.0</ele><time>2026-04-18T12:54:15Z</time></trkpt><trkpt lat="43.55014396029955" lon="12.182766786808596"><ele>349.0</ele><time>2026-04-18T12:54:16Z</time></trkpt><trkpt lat="43.550279371124454" lon="12.182895437959738"><ele>349.0</ele><time>2026-04-18T12:54:17Z</time></trkpt><trkpt lat="43.5504376663028" lon="12.183014308965125"><ele>349.0</ele><time>2026-04-18T12:54:18Z</time></trkpt><trkpt lat="43.550611405267674" lon="12.18314201967008"><ele>349.0</ele><time>2026-04-18T12:54:19Z</time></trkpt><trkpt lat="43.550794336711455" lon="12.1832774228474"><ele>349.0</ele><time>2026-04-18T12:54:20Z</time></trkpt><trkpt lat="43.55097623474358" lon="12.183413942541817"><ele>351.0</ele><time>2026-04-18T12:54:21Z</time></trkpt><trkpt lat="43.55115402041727" lon="12.183546716628527"><ele>353.0</ele><time>2026-04-18T12:54:22Z</time></trkpt><trkpt lat="43.55132820003915" lon="12.183653189640951"><ele>355.0</ele><time>2026-04-18T12:54:23Z</time></trkpt><trkpt lat="43.55147414119017" lon="12.183775983052508"><ele>355.75</ele><time>2026-04-18T12:54:24Z</time></trkpt><trkpt lat="43.551612115130375" lon="12.18388272354584"><ele>356.5</ele><time>2026-04-18T12:54:25Z</time></trkpt><trkpt lat="43.551742729722754" lon="12.183957806760498"><ele>357.25</ele><time>2026-04-18T12:54:26Z</time></trkpt><trkpt lat="43.551877407795466" lon="12.184002101450046"><ele>358.0</ele><time>2026-04-18T12:54:27Z</time></trkpt><trkpt lat="43.552022026470105" lon="12.183966221532462"><ele>360.0</ele><time>2026-04-18T12:54:28Z</time></trkpt><trkpt lat="43.552177058212095" lon="12.183923444101584"><ele>362.0</ele><time>2026-04-18T12:54:29Z</time></trkpt><trkpt lat="43.552340174062" lon="12.183906301808266"><ele>364.0</ele><time>2026-04-18T12:54:30Z</time></trkpt><trkpt lat="43.552508048200394" lon="12.183875635312534"><ele>364.0</ele><time>2026-04-18T12:54:31Z</time></trkpt><trkpt lat="43.55268069884841" lon="12.183844145818144"><ele>364.0</ele><time>2026-04-18T12:54:32Z</time></trkpt><trkpt lat="43.55285415627004" lon="12.183810794426385"><ele>364.0</ele><time>2026-04-18T12:54:33Z</time></trkpt><trkpt lat="43.553032566568874" lon="12.183776509830428"><ele>365.66666666666663</ele><time>2026-04-18T12:54:34Z</time></trkpt><trkpt lat="43.5532044458824" lon="12.183722332124082"><ele>367.3333333333333</ele><time>2026-04-18T12:54:35Z</time></trkpt><trkpt lat="43.55337599006858" lon="12.183692298291689"><ele>369.0</ele><time>2026-04-18T12:54:36Z</time></trkpt><trkpt lat="43.55354588934174" lon="12.183660337143417"><ele>372.0</ele><time>2026-04-18T12:54:37Z</time></trkpt><trkpt lat="43.5537112323622" lon="12.183626734152089"><ele>375.0</ele><time>2026-04-18T12:54:38Z</time></trkpt><trkpt lat="43.55387385713616" lon="12.183585629031995"><ele>378.0</ele><time>2026-04-18T12:54:39Z</time></trkpt><trkpt lat="43.554022780529436" lon="12.183528399964198"><ele>378.0</ele><time>2026-04-18T12:54:40Z</time></trkpt><trkpt lat="43.554152744563446" lon="12.183461217905993"><ele>378.0</ele><time>2026-04-18T12:54:41Z</time></trkpt><trkpt lat="43.554263606491105" lon="12.183389233889221"><ele>378.0</ele><time>2026-04-18T12:54:42Z</time></trkpt><trkpt lat="43.554370585247156" lon="12.183342196198808"><ele>378.0</ele><time>2026-04-18T12:54:43Z</time></trkpt><trkpt lat="43.55445954877384" lon="12.183283016879452"><ele>378.0</ele><time>2026-04-18T12:54:44Z</time></trkpt><trkpt lat="43.55453209020931" lon="12.183259543956531"><ele>378.0</ele><time>2026-04-18T12:54:45Z</time></trkpt><trkpt lat="43.554600078063146" lon="12.183266424127636"><ele>378.0</ele><time>2026-04-18T12:54:46Z</time></trkpt><trkpt lat="43.554651584697325" lon="12.18335531769756"><ele>378.0</ele><time>2026-04-18T12:54:47Z</time></trkpt><trkpt lat="43.554668298420914" lon="12.183470776933653"><ele>378.0</ele><time>2026-04-18T12:54:48Z</time></trkpt><trkpt lat="43.55463480764062" lon="12.18360088330511"><ele>378.0</ele><time>2026-04-18T12:54:49Z</time></trkpt><trkpt lat="43.55455897247468" lon="12.183728160334487"><ele>378.0</ele><time>2026-04-18T12:54:50Z</time></trkpt><trkpt lat="43.5544653811405" lon="12.183866314285698"><ele>378.0</ele><time>2026-04-18T12:54:51Z</time></trkpt><trkpt lat="43.554361492503965" lon="12.184022720549807"><ele>378.0</ele><time>2026-04-18T12:54:52Z</time></trkpt><trkpt lat="43.55425704072276" lon="12.184194267237164"><ele>380.0</ele><time>2026-04-18T12:54:53Z</time></trkpt><trkpt lat="43.554162941309485" lon="12.184360978904747"><ele>382.0</ele><time>2026-04-18T12:54:54Z</time></trkpt><trkpt lat="43.55407010305023" lon="12.184510290537741"><ele>384.0</ele><time>2026-04-18T12:54:55Z</time></trkpt><trkpt lat="43.55397225574786" lon="12.184648339250263"><ele>386.0</ele><time>2026-04-18T12:54:56Z</time></trkpt><trkpt lat="43.55383611596992" lon="12.184699675475061"><ele>384.75</ele><time>2026-04-18T12:54:57Z</time></trkpt><trkpt lat="43.553698183346874" lon="12.184751523807176"><ele>383.5</ele><time>2026-04-18T12:54:58Z</time></trkpt><trkpt lat="43.553564924113495" lon="12.18481008715827"><ele>382.25</ele><time>2026-04-18T12:54:59Z</time></trkpt><trkpt lat="43.55344487320889" lon="12.18484923470872"><ele>381.0</ele><time>2026-04-18T12:55:00Z</time></trkpt><trkpt lat="43.553341501946655" lon="12.1848923759848"><ele>383.0</ele><time>2026-04-18T12:55:01Z</time></trkpt><trkpt lat="43.553264079255946" lon="12.184958141266984"><ele>385.0</ele><time>2026-04-18T12:55:02Z</time></trkpt><trkpt lat="43.553217228208375" lon="12.185061179245379"><ele>387.0</ele><time>2026-04-18T12:55:03Z</time></trkpt><trkpt lat="43.553226514143134" lon="12.185179004550724"><ele>389.0</ele><time>2026-04-18T12:55:04Z</time></trkpt><trkpt lat="43.55327591297038" lon="12.185283302619485"><ele>391.0</ele><time>2026-04-18T12:55:05Z</time></trkpt><trkpt lat="43.55336046356533" lon="12.185350118336869"><ele>391.0</ele><time>2026-04-18T12:55:06Z</time></trkpt><trkpt lat="43.55347348282193" lon="12.18535422477439"><ele>391.0</ele><time>2026-04-18T12:55:07Z</time></trkpt><trkpt lat="43.553593667252464" lon="12.185309003776524"><ele>391.0</ele><time>2026-04-18T12:55:08Z</time></trkpt><trkpt lat="43.5537402301712" lon="12.185256688439186"><ele>391.0</ele><time>2026-04-18T12:55:09Z</time></trkpt><trkpt lat="43.553898233044045" lon="12.18522332688398"><ele>393.33333333333337</ele><time>2026-04-18T12:55:10Z</time></trkpt><trkpt lat="43.55404509305442" lon="12.185193125495278"><ele>395.66666666666663</ele><time>2026-04-18T12:55:11Z</time></trkpt><trkpt lat="43.55420532901003" lon="12.185163440141505"><ele>398.0</ele><time>2026-04-18T12:55:12Z</time></trkpt><trkpt lat="43.55436318834811" lon="12.185128756979639"><ele>398.0</ele><time>2026-04-18T12:55:13Z</time></trkpt><trkpt lat="43.55451370941299" lon="12.185098308165276"><ele>398.0</ele><time>2026-04-18T12:55:14Z</time></trkpt><trkpt lat="43.554666799898676" lon="12.18509447967767"><ele>398.0</ele><time>2026-04-18T12:55:15Z</time></trkpt><trkpt lat="43.554822593865154" lon="12.185123311529425"><ele>400.3333333333333</ele><time>2026-04-18T12:55:16Z</time></trkpt><trkpt lat="43.554981851322594" lon="12.185178662587516"><ele>402.66666666666663</ele><time>2026-04-18T12:55:17Z</time></trkpt><trkpt lat="43.55514736361998" lon="12.185239783902286"><ele>405.0</ele><time>2026-04-18T12:55:18Z</time></trkpt><trkpt lat="43.55531860515904" lon="12.185307491604556"><ele>405.0</ele><time>2026-04-18T12:55:19Z</time></trkpt><trkpt lat="43.55549855088906" lon="12.18536579528867"><ele>405.0</ele><time>2026-04-18T12:55:20Z</time></trkpt><trkpt lat="43.55567542288865" lon="12.185451878791614"><ele>405.0</ele><time>2026-04-18T12:55:21Z</time></trkpt><trkpt lat="43.55585537247266" lon="12.185519284346098"><ele>405.0</ele><time>2026-04-18T12:55:22Z</time></trkpt><trkpt lat="43.55598352532556" lon="12.185548478526668"><ele>405.0</ele><time>2026-04-18T12:55:23Z</time></trkpt><trkpt lat="43.556114319117185" lon="12.185595202892504"><ele>405.0</ele><time>2026-04-18T12:55:24Z</time></trkpt><trkpt lat="43.55622133630146" lon="12.18565738598459"><ele>405.0</ele><time>2026-04-18T12:55:25Z</time></trkpt><trkpt lat="43.556314064769154" lon="12.185701414765369"><ele>406.8</ele><time>2026-04-18T12:55:26Z</time></trkpt><trkpt lat="43.556386948471754" lon="12.185756841565413"><ele>408.6</ele><time>2026-04-18T12:55:27Z</time></trkpt><trkpt lat="43.556439926560515" lon="12.18584038655313"><ele>410.4</ele><time>2026-04-18T12:55:28Z</time></trkpt><trkpt lat="43.556427974770656" lon="12.185983651307732"><ele>412.2</ele><time>2026-04-18T12:55:29Z</time></trkpt><trkpt lat="43.556380743690724" lon="12.186102607188934"><ele>414.0</ele><time>2026-04-18T12:55:30Z</time></trkpt><trkpt lat="43.55628863906602" lon="12.186164919158568"><ele>414.5</ele><time>2026-04-18T12:55:31Z</time></trkpt><trkpt lat="43.55617246186796" lon="12.186185222906209"><ele>415.0</ele><time>2026-04-18T12:55:32Z</time></trkpt><trkpt lat="43.55603989275301" lon="12.186246391710368"><ele>415.5</ele><time>2026-04-18T12:55:33Z</time></trkpt><trkpt lat="43.555895285557526" lon="12.186346836026734"><ele>416.0</ele><time>2026-04-18T12:55:34Z</time></trkpt><trkpt lat="43.555747696729576" lon="12.186440822345785"><ele>418.66666666666663</ele><time>2026-04-18T12:55:35Z</time></trkpt><trkpt lat="43.55560729322655" lon="12.186558447200298"><ele>421.33333333333337</ele><time>2026-04-18T12:55:36Z</time></trkpt><trkpt lat="43.55546341439813" lon="12.18669587342999"><ele>424.0</ele><time>2026-04-18T12:55:37Z</time></trkpt><trkpt lat="43.55532190132195" lon="12.186839567027135"><ele>424.0</ele><time>2026-04-18T12:55:38Z</time></trkpt><trkpt lat="43.555189305865795" lon="12.186968907450689"><ele>424.0</ele><time>2026-04-18T12:55:39Z</time></trkpt><trkpt lat="43.55507691792833" lon="12.187074291048743"><ele>424.0</ele><time>2026-04-18T12:55:40Z</time></trkpt><trkpt lat="43.55497538820885" lon="12.187169704081503"><ele>424.0</ele><time>2026-04-18T12:55:41Z</time></trkpt><trkpt lat="43.55488338675126" lon="12.18725493723528"><ele>424.0</ele><time>2026-04-18T12:55:42Z</time></trkpt><trkpt lat="43.55480517839159" lon="12.1873320785946"><ele>424.0</ele><time>2026-04-18T12:55:43Z</time></trkpt><trkpt lat="43.55474344793876" lon="12.187414748526585"><ele>424.0</ele><time>2026-04-18T12:55:44Z</time></trkpt><trkpt lat="43.554723405669044" lon="12.187527357499803"><ele>424.0</ele><time>2026-04-18T12:55:45Z</time></trkpt><trkpt lat="43.554754354427885" lon="12.187654472598606"><ele>424.0</ele><time>2026-04-18T12:55:46Z</time></trkpt><trkpt lat="43.55477466296152" lon="12.18780868623749"><ele>426.0</ele><time>2026-04-18T12:55:47Z</time></trkpt><trkpt lat="43.554948971435884" lon="12.187781311560206"><ele>428.0</ele><time>2026-04-18T12:55:48Z</time></trkpt><trkpt lat="43.555078846003624" lon="12.187741574942775"><ele>430.0</ele><time>2026-04-18T12:55:49Z</time></trkpt><trkpt lat="43.55521847958949" lon="12.187670964635874"><ele>430.0</ele><time>2026-04-18T12:55:50Z</time></trkpt><trkpt lat="43.555366926454504" lon="12.187607389404052"><ele>430.0</ele><time>2026-04-18T12:55:51Z</time></trkpt><trkpt lat="43.555522167203314" lon="12.187576573825346"><ele>430.0</ele><time>2026-04-18T12:55:52Z</time></trkpt><trkpt lat="43.555661573538934" lon="12.187533015252125"><ele>431.25</ele><time>2026-04-18T12:55:53Z</time></trkpt><trkpt lat="43.55578635706195" lon="12.18750588698524"><ele>432.5</ele><time>2026-04-18T12:55:54Z</time></trkpt><trkpt lat="43.555900194355125" lon="12.1875194788947"><ele>433.75</ele><time>2026-04-18T12:55:55Z</time></trkpt><trkpt lat="43.555986242806966" lon="12.187631889051769"><ele>435.0</ele><time>2026-04-18T12:55:56Z</time></trkpt><trkpt lat="43.55609813105425" lon="12.18777252464993"><ele>435.0</ele><time>2026-04-18T12:55:57Z</time></trkpt><trkpt lat="43.55621850151119" lon="12.187904632746644"><ele>435.0</ele><time>2026-04-18T12:55:58Z</time></trkpt><trkpt lat="43.55631645198122" lon="12.188036037551644"><ele>435.0</ele><time>2026-04-18T12:55:59Z</time></trkpt><trkpt lat="43.556405569655865" lon="12.188150114830604"><ele>435.0</ele><time>2026-04-18T12:56:00Z</time></trkpt><trkpt lat="43.556474943559714" lon="12.188246131982917"><ele>436.8</ele><time>2026-04-18T12:56:01Z</time></trkpt><trkpt lat="43.55651335835537" lon="12.188354444396461"><ele>438.6</ele><time>2026-04-18T12:56:02Z</time></trkpt><trkpt lat="43.55653316975107" lon="12.1884630980066"><ele>440.4</ele><time>2026-04-18T12:56:03Z</time></trkpt><trkpt lat="43.55650449589053" lon="12.188593774843117"><ele>442.2</ele><time>2026-04-18T12:56:04Z</time></trkpt><trkpt lat="43.556428875556755" lon="12.188697812160825"><ele>444.0</ele><time>2026-04-18T12:56:05Z</time></trkpt><trkpt lat="43.556329972550145" lon="12.188748952749258"><ele>444.0</ele><time>2026-04-18T12:56:06Z</time></trkpt><trkpt lat="43.556205929593624" lon="12.188773588824398"><ele>444.0</ele><time>2026-04-18T12:56:07Z</time></trkpt><trkpt lat="43.55605583478974" lon="12.188808843080833"><ele>444.0</ele><time>2026-04-18T12:56:08Z</time></trkpt><trkpt lat="43.55588574861661" lon="12.188853436614536"><ele>444.33333333333337</ele><time>2026-04-18T12:56:09Z</time></trkpt><trkpt lat="43.555699199440184" lon="12.188900557377272"><ele>444.6666666666667</ele><time>2026-04-18T12:56:10Z</time></trkpt><trkpt lat="43.55552115359185" lon="12.188964160660289"><ele>445.0</ele><time>2026-04-18T12:56:11Z</time></trkpt><trkpt lat="43.55533009048424" lon="12.189007888265415"><ele>447.6666666666667</ele><time>2026-04-18T12:56:12Z</time></trkpt><trkpt lat="43.55513160130912" lon="12.189057357868341"><ele>450.33333333333337</ele><time>2026-04-18T12:56:13Z</time></trkpt><trkpt lat="43.55493704523808" lon="12.18908141481948"><ele>453.0</ele><time>2026-04-18T12:56:14Z</time></trkpt><trkpt lat="43.55475474102587" lon="12.189142928626588"><ele>453.0</ele><time>2026-04-18T12:56:15Z</time></trkpt><trkpt lat="43.554574762577886" lon="12.18917988527318"><ele>453.0</ele><time>2026-04-18T12:56:16Z</time></trkpt><trkpt lat="43.55440697188074" lon="12.189215724508959"><ele>453.0</ele><time>2026-04-18T12:56:17Z</time></trkpt><trkpt lat="43.55424752365972" lon="12.189248197952843"><ele>453.25</ele><time>2026-04-18T12:56:18Z</time></trkpt><trkpt lat="43.554122653564036" lon="12.189285358309009"><ele>453.5</ele><time>2026-04-18T12:56:19Z</time></trkpt><trkpt lat="43.553995022770685" lon="12.18938040496367"><ele>453.75</ele><time>2026-04-18T12:56:20Z</time></trkpt><trkpt lat="43.55388037972015" lon="12.189525555747462"><ele>454.0</ele><time>2026-04-18T12:56:21Z</time></trkpt><trkpt lat="43.55378135628673" lon="12.189706124946964"><ele>456.6666666666667</ele><time>2026-04-18T12:56:22Z</time></trkpt><trkpt lat="43.55367260336507" lon="12.189887754190408"><ele>459.33333333333337</ele><time>2026-04-18T12:56:23Z</time></trkpt><trkpt lat="43.55352562821569" lon="12.190020460768409"><ele>462.0</ele><time>2026-04-18T12:56:24Z</time></trkpt><trkpt lat="43.55336324036494" lon="12.190138984816514"><ele>462.0</ele><time>2026-04-18T12:56:25Z</time></trkpt><trkpt lat="43.553200626885335" lon="12.1902751364793"><ele>462.0</ele><time>2026-04-18T12:56:26Z</time></trkpt><trkpt lat="43.553027367864864" lon="12.190391478477187"><ele>462.0</ele><time>2026-04-18T12:56:27Z</time></trkpt><trkpt lat="43.55284874593728" lon="12.190511684193917"><ele>460.0</ele><time>2026-04-18T12:56:28Z</time></trkpt><trkpt lat="43.55266737208669" lon="12.19063592385322"><ele>458.0</ele><time>2026-04-18T12:56:29Z</time></trkpt><trkpt lat="43.55248727572543" lon="12.190767510443262"><ele>456.0</ele><time>2026-04-18T12:56:30Z</time></trkpt><trkpt lat="43.5523118628423" lon="12.19089822596823"><ele>457.0</ele><time>2026-04-18T12:56:31Z</time></trkpt><trkpt lat="43.55214034633559" lon="12.191031812961578"><ele>458.0</ele><time>2026-04-18T12:56:32Z</time></trkpt><trkpt lat="43.55196831809163" lon="12.191164616151186"><ele>459.0</ele><time>2026-04-18T12:56:33Z</time></trkpt><trkpt lat="43.55179830604944" lon="12.191294720926505"><ele>459.0</ele><time>2026-04-18T12:56:34Z</time></trkpt><trkpt lat="43.55164089195177" lon="12.191419292536265"><ele>459.0</ele><time>2026-04-18T12:56:35Z</time></trkpt><trkpt lat="43.551498495145346" lon="12.191536718171518"><ele>459.0</ele><time>2026-04-18T12:56:36Z</time></trkpt><trkpt lat="43.5513712292731" lon="12.191662356040723"><ele>462.0</ele><time>2026-04-18T12:56:37Z</time></trkpt><trkpt lat="43.551254503028616" lon="12.191810665076492"><ele>465.0</ele><time>2026-04-18T12:56:38Z</time></trkpt><trkpt lat="43.55114874638491" lon="12.191979776726036"><ele>468.0</ele><time>2026-04-18T12:56:39Z</time></trkpt><trkpt lat="43.551060815104826" lon="12.192181943711821"><ele>471.66666666666663</ele><time>2026-04-18T12:56:40Z</time></trkpt><trkpt lat="43.55098006162886" lon="12.192392750294042"><ele>475.3333333333333</ele><time>2026-04-18T12:56:41Z</time></trkpt><trkpt lat="43.550905960026235" lon="12.192613292112016"><ele>479.0</ele><time>2026-04-18T12:56:42Z</time></trkpt><trkpt lat="43.550832853393786" lon="12.192829834773264"><ele>479.0</ele><time>2026-04-18T12:56:43Z</time></trkpt><trkpt lat="43.55075765798285" lon="12.193037056171868"><ele>479.0</ele><time>2026-04-18T12:56:44Z</time></trkpt><trkpt lat="43.55069080087434" lon="12.193222325816096"><ele>479.0</ele><time>2026-04-18T12:56:45Z</time></trkpt><trkpt lat="43.55063638048805" lon="12.193396770916005"><ele>481.5</ele><time>2026-04-18T12:56:46Z</time></trkpt><trkpt lat="43.55060570678914" lon="12.193579174701366"><ele>484.0</ele><time>2026-04-18T12:56:47Z</time></trkpt><trkpt lat="43.55060999930938" lon="12.19376798070578"><ele>486.5</ele><time>2026-04-18T12:56:48Z</time></trkpt><trkpt lat="43.55063410511718" lon="12.193943995684286"><ele>489.0</ele><time>2026-04-18T12:56:49Z</time></trkpt><trkpt lat="43.55063636569165" lon="12.194109292157817"><ele>490.75</ele><time>2026-04-18T12:56:50Z</time></trkpt><trkpt lat="43.550588232130565" lon="12.194276650624293"><ele>492.5</ele><time>2026-04-18T12:56:51Z</time></trkpt><trkpt lat="43.55049359383171" lon="12.194433795427608"><ele>494.25</ele><time>2026-04-18T12:56:52Z</time></trkpt><trkpt lat="43.55036038460764" lon="12.194550895653036"><ele>496.0</ele><time>2026-04-18T12:56:53Z</time></trkpt><trkpt lat="43.55024165811868" lon="12.194696041620348"><ele>494.0</ele><time>2026-04-18T12:56:54Z</time></trkpt><trkpt lat="43.550108376705595" lon="12.194814185586425"><ele>492.0</ele><time>2026-04-18T12:56:55Z</time></trkpt><trkpt lat="43.54998896524799" lon="12.194959274465969"><ele>490.0</ele><time>2026-04-18T12:56:56Z</time></trkpt><trkpt lat="43.54989954622011" lon="12.195125400021599"><ele>490.0</ele><time>2026-04-18T12:56:57Z</time></trkpt><trkpt lat="43.549828259256245" lon="12.195295706627931"><ele>490.0</ele><time>2026-04-18T12:56:58Z</time></trkpt><trkpt lat="43.5497858718854" lon="12.195488534015793"><ele>490.0</ele><time>2026-04-18T12:56:59Z</time></trkpt><trkpt lat="43.54976934023876" lon="12.195704530252103"><ele>490.0</ele><time>2026-04-18T12:57:00Z</time></trkpt><trkpt lat="43.549778076989156" lon="12.195929790737154"><ele>494.0</ele><time>2026-04-18T12:57:01Z</time></trkpt><trkpt lat="43.549787555431145" lon="12.196165644658644"><ele>498.0</ele><time>2026-04-18T12:57:02Z</time></trkpt><trkpt lat="43.54979308774429" lon="12.196410013500499"><ele>502.0</ele><time>2026-04-18T12:57:03Z</time></trkpt><trkpt lat="43.54979141701916" lon="12.196661305416349"><ele>504.6666666666667</ele><time>2026-04-18T12:57:04Z</time></trkpt><trkpt lat="43.549788296046145" lon="12.196914426513274"><ele>507.33333333333337</ele><time>2026-04-18T12:57:05Z</time></trkpt><trkpt lat="43.54977838482662" lon="12.197160766290533"><ele>510.0</ele><time>2026-04-18T12:57:06Z</time></trkpt><trkpt lat="43.54974633209446" lon="12.197387985233505"><ele>513.3333333333334</ele><time>2026-04-18T12:57:07Z</time></trkpt><trkpt lat="43.54968226989915" lon="12.197598429164483"><ele>516.6666666666667</ele><time>2026-04-18T12:57:08Z</time></trkpt><trkpt lat="43.54959418215596" lon="12.19779693355512"><ele>520.0</ele><time>2026-04-18T12:57:09Z</time></trkpt><trkpt lat="43.54949845045584" lon="12.19798274985291"><ele>516.25</ele><time>2026-04-18T12:57:10Z</time></trkpt><trkpt lat="43.54940333056497" lon="12.198151610193483"><ele>512.5</ele><time>2026-04-18T12:57:11Z</time></trkpt><trkpt lat="43.549331128132245" lon="12.198316711370932"><ele>508.75</ele><time>2026-04-18T12:57:12Z</time></trkpt><trkpt lat="43.549286445585274" lon="12.198481889419941"><ele>505.0</ele><time>2026-04-18T12:57:13Z</time></trkpt><trkpt lat="43.54928286925197" lon="12.198667420597726"><ele>505.0</ele><time>2026-04-18T12:57:14Z</time></trkpt><trkpt lat="43.54930809988748" lon="12.198858919933206"><ele>505.0</ele><time>2026-04-18T12:57:15Z</time></trkpt><trkpt lat="43.54937401304466" lon="12.199054782555054"><ele>505.0</ele><time>2026-04-18T12:57:16Z</time></trkpt><trkpt lat="43.549453944095234" lon="12.19925500608915"><ele>510.33333333333337</ele><time>2026-04-18T12:57:17Z</time></trkpt><trkpt lat="43.549550113908694" lon="12.199451478460691"><ele>515.6666666666666</ele><time>2026-04-18T12:57:18Z</time></trkpt><trkpt lat="43.54965978715128" lon="12.19965385772641"><ele>521.0</ele><time>2026-04-18T12:57:19Z</time></trkpt><trkpt lat="43.54978736509751" lon="12.199850101460573"><ele>521.0</ele><time>2026-04-18T12:57:20Z</time></trkpt><trkpt lat="43.549926674967104" lon="12.200041037898538"><ele>521.0</ele><time>2026-04-18T12:57:21Z</time></trkpt><trkpt lat="43.550073921122056" lon="12.200230790510792"><ele>521.0</ele><time>2026-04-18T12:57:22Z</time></trkpt><trkpt lat="43.55021893428375" lon="12.200421713412448"><ele>521.0</ele><time>2026-04-18T12:57:23Z</time></trkpt><trkpt lat="43.55035616567466" lon="12.200610054137886"><ele>521.0</ele><time>2026-04-18T12:57:24Z</time></trkpt><trkpt lat="43.55048084007816" lon="12.200783041713454"><ele>521.0</ele><time>2026-04-18T12:57:25Z</time></trkpt><trkpt lat="43.550588016827575" lon="12.2009297788731"><ele>524.0</ele><time>2026-04-18T12:57:26Z</time></trkpt><trkpt lat="43.55067688682811" lon="12.20104940521831"><ele>527.0</ele><time>2026-04-18T12:57:27Z</time></trkpt><trkpt lat="43.550749703279294" lon="12.201150502160122"><ele>530.0</ele><time>2026-04-18T12:57:28Z</time></trkpt><trkpt lat="43.5508132664203" lon="12.201239381132673"><ele>533.0</ele><time>2026-04-18T12:57:29Z</time></trkpt><trkpt lat="43.550880847312264" lon="12.20130440678157"><ele>536.0</ele><time>2026-04-18T12:57:30Z</time></trkpt><trkpt lat="43.55095266141747" lon="12.20128800255056"><ele>536.0</ele><time>2026-04-18T12:57:31Z</time></trkpt><trkpt lat="43.5510033611043" lon="12.201209899118782"><ele>536.0</ele><time>2026-04-18T12:57:32Z</time></trkpt><trkpt lat="43.551021021374936" lon="12.201093956045849"><ele>536.0</ele><time>2026-04-18T12:57:33Z</time></trkpt><trkpt lat="43.55096522840224" lon="12.200962075311613"><ele>536.0</ele><time>2026-04-18T12:57:34Z</time></trkpt><trkpt lat="43.55087550506727" lon="12.200849172249075"><ele>536.0</ele><time>2026-04-18T12:57:35Z</time></trkpt><trkpt lat="43.55078650429649" lon="12.200722024578686"><ele>540.5</ele><time>2026-04-18T12:57:36Z</time></trkpt><trkpt lat="43.550697062880545" lon="12.200569345608521"><ele>545.0</ele><time>2026-04-18T12:57:37Z</time></trkpt><trkpt lat="43.55060736167231" lon="12.200396966214495"><ele>549.5</ele><time>2026-04-18T12:57:38Z</time></trkpt><trkpt lat="43.55051511927129" lon="12.200233296896492"><ele>554.0</ele><time>2026-04-18T12:57:39Z</time></trkpt><trkpt lat="43.55041327390991" lon="12.20005679679154"><ele>547.6666666666666</ele><time>2026-04-18T12:57:40Z</time></trkpt><trkpt lat="43.55033325266963" lon="12.199887163206125"><ele>541.3333333333334</ele><time>2026-04-18T12:57:41Z</time></trkpt><trkpt lat="43.55023986065321" lon="12.19970262568155"><ele>535.0</ele><time>2026-04-18T12:57:42Z</time></trkpt><trkpt lat="43.5501520012456" lon="12.199509259538729"><ele>535.0</ele><time>2026-04-18T12:57:43Z</time></trkpt><trkpt lat="43.55008244685261" lon="12.199323233427773"><ele>535.0</ele><time>2026-04-18T12:57:44Z</time></trkpt><trkpt lat="43.55003871271422" lon="12.1991404333237"><ele>535.0</ele><time>2026-04-18T12:57:45Z</time></trkpt><trkpt lat="43.550019948383195" lon="12.198982275491826"><ele>535.0</ele><time>2026-04-18T12:57:46Z</time></trkpt><trkpt lat="43.55009912387438" lon="12.198809223669057"><ele>534.25</ele><time>2026-04-18T12:57:47Z</time></trkpt><trkpt lat="43.550143563433075" lon="12.198640954636328"><ele>533.5</ele><time>2026-04-18T12:57:48Z</time></trkpt><trkpt lat="43.550230946880404" lon="12.19850535045669"><ele>532.75</ele><time>2026-04-18T12:57:49Z</time></trkpt><trkpt lat="43.55036050610184" lon="12.198418240781848"><ele>532.0</ele><time>2026-04-18T12:57:50Z</time></trkpt><trkpt lat="43.55048654853754" lon="12.198309476917743"><ele>535.6666666666667</ele><time>2026-04-18T12:57:51Z</time></trkpt><trkpt lat="43.55061143468754" lon="12.19820181937088"><ele>539.3333333333334</ele><time>2026-04-18T12:57:52Z</time></trkpt><trkpt lat="43.55076212989754" lon="12.198071901083647"><ele>543.0</ele><time>2026-04-18T12:57:53Z</time></trkpt><trkpt lat="43.5508770739632" lon="12.19796953309231"><ele>543.0</ele><time>2026-04-18T12:57:54Z</time></trkpt><trkpt lat="43.55097789426935" lon="12.197847589265603"><ele>543.0</ele><time>2026-04-18T12:57:55Z</time></trkpt><trkpt lat="43.55102583692508" lon="12.197680569523111"><ele>543.0</ele><time>2026-04-18T12:57:56Z</time></trkpt><trkpt lat="43.551058217412546" lon="12.197489885750132"><ele>543.0</ele><time>2026-04-18T12:57:57Z</time></trkpt><trkpt lat="43.551118960389815" lon="12.197265519998421"><ele>541.3333333333334</ele><time>2026-04-18T12:57:58Z</time></trkpt><trkpt lat="43.55116756818432" lon="12.197057815626033"><ele>539.6666666666667</ele><time>2026-04-18T12:57:59Z</time></trkpt><trkpt lat="43.55120530573637" lon="12.196851243801742"><ele>538.0</ele><time>2026-04-18T12:58:00Z</time></trkpt><trkpt lat="43.55126390309602" lon="12.196656149204088"><ele>542.6666666666667</ele><time>2026-04-18T12:58:01Z</time></trkpt><trkpt lat="43.55134045992591" lon="12.19649456016458"><ele>547.3333333333334</ele><time>2026-04-18T12:58:02Z</time></trkpt><trkpt lat="43.55137706016071" lon="12.196266926302386"><ele>552.0</ele><time>2026-04-18T12:58:03Z</time></trkpt><trkpt lat="43.55156145503364" lon="12.196164440357025"><ele>552.0</ele><time>2026-04-18T12:58:04Z</time></trkpt><trkpt lat="43.55171272134026" lon="12.196014812113933"><ele>552.0</ele><time>2026-04-18T12:58:05Z</time></trkpt><trkpt lat="43.55188582446569" lon="12.19587586471452"><ele>552.0</ele><time>2026-04-18T12:58:06Z</time></trkpt><trkpt lat="43.55206500933232" lon="12.195778984511115"><ele>552.6666666666666</ele><time>2026-04-18T12:58:07Z</time></trkpt><trkpt lat="43.55223878197223" lon="12.195697783152056"><ele>553.3333333333333</ele><time>2026-04-18T12:58:08Z</time></trkpt><trkpt lat="43.55239984633559" lon="12.19558323049919"><ele>554.0</ele><time>2026-04-18T12:58:09Z</time></trkpt><trkpt lat="43.55256059324121" lon="12.195468915047927"><ele>554.0</ele><time>2026-04-18T12:58:10Z</time></trkpt><trkpt lat="43.55272051279561" lon="12.195355187977963"><ele>554.0</ele><time>2026-04-18T12:58:11Z</time></trkpt><trkpt lat="43.55287913757256" lon="12.195242381562581"><ele>554.0</ele><time>2026-04-18T12:58:12Z</time></trkpt><trkpt lat="43.55304159508475" lon="12.195171545160566"><ele>558.3333333333333</ele><time>2026-04-18T12:58:13Z</time></trkpt><trkpt lat="43.55321404984288" lon="12.195135140696681"><ele>562.6666666666666</ele><time>2026-04-18T12:58:14Z</time></trkpt><trkpt lat="43.553397828129484" lon="12.195077107772335"><ele>567.0</ele><time>2026-04-18T12:58:15Z</time></trkpt><trkpt lat="43.553575192571785" lon="12.195041351341326"><ele>572.0</ele><time>2026-04-18T12:58:16Z</time></trkpt><trkpt lat="43.55374131344419" lon="12.194993933647384"><ele>577.0</ele><time>2026-04-18T12:58:17Z</time></trkpt><trkpt lat="43.55390097631793" lon="12.19494068703596"><ele>582.0</ele><time>2026-04-18T12:58:18Z</time></trkpt><trkpt lat="43.55405739320624" lon="12.194888064860022"><ele>582.0</ele><time>2026-04-18T12:58:19Z</time></trkpt><trkpt lat="43.55421736610275" lon="12.19485910624458"><ele>582.0</ele><time>2026-04-18T12:58:20Z</time></trkpt><trkpt lat="43.55436661994629" lon="12.19476709253344"><ele>582.0</ele><time>2026-04-18T12:58:21Z</time></trkpt><trkpt lat="43.55451693887155" lon="12.19467691600417"><ele>578.6666666666666</ele><time>2026-04-18T12:58:22Z</time></trkpt><trkpt lat="43.5546663304603" lon="12.19458717551206"><ele>575.3333333333333</ele><time>2026-04-18T12:58:23Z</time></trkpt><trkpt lat="43.55482267264544" lon="12.19452007759197"><ele>572.0</ele><time>2026-04-18T12:58:24Z</time></trkpt><trkpt lat="43.554991422795446" lon="12.19448642743575"><ele>572.0</ele><time>2026-04-18T12:58:25Z</time></trkpt><trkpt lat="43.555171179461" lon="12.19447851228668"><ele>572.0</ele><time>2026-04-18T12:58:26Z</time></trkpt><trkpt lat="43.55535688873413" lon="12.194469316634542"><ele>572.0</ele><time>2026-04-18T12:58:27Z</time></trkpt><trkpt lat="43.55554789792461" lon="12.19445187643714"><ele>574.0</ele><time>2026-04-18T12:58:28Z</time></trkpt><trkpt lat="43.55574619864519" lon="12.194427470897336"><ele>576.0</ele><time>2026-04-18T12:58:29Z</time></trkpt><trkpt lat="43.55594349492453" lon="12.194429496972106"><ele>578.0</ele><time>2026-04-18T12:58:30Z</time></trkpt><trkpt lat="43.55613159863187" lon="12.194413591310841"><ele>581.0</ele><time>2026-04-18T12:58:31Z</time></trkpt><trkpt lat="43.55631900204272" lon="12.194401611226798"><ele>584.0</ele><time>2026-04-18T12:58:32Z</time></trkpt><trkpt lat="43.55651205649176" lon="12.194383531499952"><ele>587.0</ele><time>2026-04-18T12:58:33Z</time></trkpt><trkpt lat="43.5567024750128" lon="12.194393616911405"><ele>587.0</ele><time>2026-04-18T12:58:34Z</time></trkpt><trkpt lat="43.556892425314615" lon="12.194406740378941"><ele>587.0</ele><time>2026-04-18T12:58:35Z</time></trkpt><trkpt lat="43.557075883868286" lon="12.194422943152048"><ele>587.0</ele><time>2026-04-18T12:58:36Z</time></trkpt><trkpt lat="43.55724476289299" lon="12.194442557995332"><ele>587.25</ele><time>2026-04-18T12:58:37Z</time></trkpt><trkpt lat="43.557402615134734" lon="12.19447032034262"><ele>587.5</ele><time>2026-04-18T12:58:38Z</time></trkpt><trkpt lat="43.557542283356476" lon="12.194489501244343"><ele>587.75</ele><time>2026-04-18T12:58:39Z</time></trkpt><trkpt lat="43.55766049172986" lon="12.194502893829455"><ele>588.0</ele><time>2026-04-18T12:58:40Z</time></trkpt><trkpt lat="43.557758472556365" lon="12.194517274045864"><ele>588.0</ele><time>2026-04-18T12:58:41Z</time></trkpt><trkpt lat="43.55784112041592" lon="12.194550686829196"><ele>588.0</ele><time>2026-04-18T12:58:42Z</time></trkpt><trkpt lat="43.557900070189774" lon="12.194628614176414"><ele>588.0</ele><time>2026-04-18T12:58:43Z</time></trkpt><trkpt lat="43.55791378767716" lon="12.194746522461395"><ele>588.0</ele><time>2026-04-18T12:58:44Z</time></trkpt><trkpt lat="43.557867873641925" lon="12.194853805667044"><ele>588.0</ele><time>2026-04-18T12:58:45Z</time></trkpt><trkpt lat="43.5577788585141" lon="12.19490245778506"><ele>588.0</ele><time>2026-04-18T12:58:45.999Z</time></trkpt><trkpt lat="43.55766980308704" lon="12.19484729139235"><ele>588.0</ele><time>2026-04-18T12:58:46.999Z</time></trkpt><trkpt lat="43.55754131057459" lon="12.194839452991674"><ele>588.0</ele><time>2026-04-18T12:58:47.999Z</time></trkpt><trkpt lat="43.5573959527225" lon="12.194807845590047"><ele>588.0</ele><time>2026-04-18T12:58:48.999Z</time></trkpt><trkpt lat="43.55724419420852" lon="12.194793312771354"><ele>588.0</ele><time>2026-04-18T12:58:49.999Z</time></trkpt><trkpt lat="43.55709040000589" lon="12.19478651836525"><ele>587.6666666666666</ele><time>2026-04-18T12:58:50.999Z</time></trkpt><trkpt lat="43.55693014765355" lon="12.194787269196807"><ele>587.3333333333333</ele><time>2026-04-18T12:58:51.999Z</time></trkpt><trkpt lat="43.55676928454101" lon="12.194795921508977"><ele>587.0</ele><time>2026-04-18T12:58:52.999Z</time></trkpt><trkpt lat="43.55660586384644" lon="12.194816226921173"><ele>594.6666666666666</ele><time>2026-04-18T12:58:53.999Z</time></trkpt><trkpt lat="43.55643809952481" lon="12.19486351430827"><ele>602.3333333333334</ele><time>2026-04-18T12:58:54.999Z</time></trkpt><trkpt lat="43.55626980747712" lon="12.194933800584964"><ele>610.0</ele><time>2026-04-18T12:58:55.999Z</time></trkpt><trkpt lat="43.556096951074665" lon="12.195016605678394"><ele>610.0</ele><time>2026-04-18T12:58:56.999Z</time></trkpt><trkpt lat="43.55592792514688" lon="12.195108635512325"><ele>610.0</ele><time>2026-04-18T12:58:57.999Z</time></trkpt><trkpt lat="43.55576617801216" lon="12.195199210429955"><ele>610.0</ele><time>2026-04-18T12:58:58.999Z</time></trkpt><trkpt lat="43.55560664111698" lon="12.195286516019923"><ele>610.0</ele><time>2026-04-18T12:58:59.999Z</time></trkpt><trkpt lat="43.55544696945908" lon="12.195369805860077"><ele>610.0</ele><time>2026-04-18T12:59:00.999Z</time></trkpt><trkpt lat="43.55528991043246" lon="12.195461033552574"><ele>610.0</ele><time>2026-04-18T12:59:01.999Z</time></trkpt><trkpt lat="43.55514102542086" lon="12.195567275603999"><ele>614.6666666666667</ele><time>2026-04-18T12:59:02.999Z</time></trkpt><trkpt lat="43.55499457773059" lon="12.195683366270476"><ele>619.3333333333334</ele><time>2026-04-18T12:59:03.999Z</time></trkpt><trkpt lat="43.55485031757473" lon="12.195800119514091"><ele>624.0</ele><time>2026-04-18T12:59:04.999Z</time></trkpt><trkpt lat="43.55470365949336" lon="12.19590973438313"><ele>624.0</ele><time>2026-04-18T12:59:05.999Z</time></trkpt><trkpt lat="43.554558149401224" lon="12.196021054117415"><ele>624.0</ele><time>2026-04-18T12:59:06.999Z</time></trkpt><trkpt lat="43.554415884318125" lon="12.196134174620614"><ele>624.0</ele><time>2026-04-18T12:59:07.999Z</time></trkpt><trkpt lat="43.55427475380813" lon="12.196243843161062"><ele>627.6666666666666</ele><time>2026-04-18T12:59:08.999Z</time></trkpt><trkpt lat="43.554138233259614" lon="12.196370117228023"><ele>631.3333333333333</ele><time>2026-04-18T12:59:09.999Z</time></trkpt><trkpt lat="43.554014400800085" lon="12.196538148874948"><ele>635.0</ele><time>2026-04-18T12:59:10.999Z</time></trkpt><trkpt lat="43.55389854647865" lon="12.19673094790135"><ele>635.0</ele><time>2026-04-18T12:59:11.999Z</time></trkpt><trkpt lat="43.553787166006174" lon="12.196928218247107"><ele>635.0</ele><time>2026-04-18T12:59:12.999Z</time></trkpt><trkpt lat="43.553649587286536" lon="12.197085092881863"><ele>635.0</ele><time>2026-04-18T12:59:13.999Z</time></trkpt><trkpt lat="43.55351190476087" lon="12.197229575386004"><ele>637.0</ele><time>2026-04-18T12:59:14.999Z</time></trkpt><trkpt lat="43.55336595394427" lon="12.197354124183349"><ele>639.0</ele><time>2026-04-18T12:59:15.999Z</time></trkpt><trkpt lat="43.55322766172668" lon="12.197477797159738"><ele>641.0</ele><time>2026-04-18T12:59:16.999Z</time></trkpt><trkpt lat="43.55308591257057" lon="12.197574103976024"><ele>641.0</ele><time>2026-04-18T12:59:17.999Z</time></trkpt><trkpt lat="43.55296751423613" lon="12.197672540639767"><ele>641.0</ele><time>2026-04-18T12:59:18.999Z</time></trkpt><trkpt lat="43.55287403225219" lon="12.197781181553827"><ele>641.0</ele><time>2026-04-18T12:59:19.999Z</time></trkpt><trkpt lat="43.55280257100338" lon="12.197915524608245"><ele>641.0</ele><time>2026-04-18T12:59:20.999Z</time></trkpt><trkpt lat="43.55275541347883" lon="12.198082427645517"><ele>636.0</ele><time>2026-04-18T12:59:21.999Z</time></trkpt><trkpt lat="43.5527294282622" lon="12.198278780177652"><ele>631.0</ele><time>2026-04-18T12:59:22.999Z</time></trkpt><trkpt lat="43.55271388715686" lon="12.198486501891685"><ele>626.0</ele><time>2026-04-18T12:59:23.999Z</time></trkpt><trkpt lat="43.552708522701224" lon="12.198696254129135"><ele>621.0</ele><time>2026-04-18T12:59:24.999Z</time></trkpt><trkpt lat="43.55271009579774" lon="12.198888992709207"><ele>622.5</ele><time>2026-04-18T12:59:25.999Z</time></trkpt><trkpt lat="43.5527283354597" lon="12.199065332642071"><ele>624.0</ele><time>2026-04-18T12:59:26.999Z</time></trkpt><trkpt lat="43.55277277005755" lon="12.199233988564158"><ele>625.5</ele><time>2026-04-18T12:59:27.999Z</time></trkpt><trkpt lat="43.55284867161436" lon="12.199377397639502"><ele>627.0</ele><time>2026-04-18T12:59:28.999Z</time></trkpt><trkpt lat="43.552955424119006" lon="12.199486643602523"><ele>634.25</ele><time>2026-04-18T12:59:29.999Z</time></trkpt><trkpt lat="43.55308429909998" lon="12.199565210294036"><ele>641.5</ele><time>2026-04-18T12:59:30.999Z</time></trkpt><trkpt lat="43.553230034270946" lon="12.199606314162125"><ele>648.75</ele><time>2026-04-18T12:59:31.999Z</time></trkpt><trkpt lat="43.553385470720094" lon="12.199595412387135"><ele>656.0</ele><time>2026-04-18T12:59:32.999Z</time></trkpt><trkpt lat="43.553549646356245" lon="12.199568364325371"><ele>661.0</ele><time>2026-04-18T12:59:33.999Z</time></trkpt><trkpt lat="43.553718146615914" lon="12.199547732653194"><ele>666.0</ele><time>2026-04-18T12:59:34.999Z</time></trkpt><trkpt lat="43.553891363335126" lon="12.199551987139806"><ele>671.0</ele><time>2026-04-18T12:59:35.999Z</time></trkpt><trkpt lat="43.554061166171" lon="12.199572233183888"><ele>671.0</ele><time>2026-04-18T12:59:36.999Z</time></trkpt><trkpt lat="43.55422805800221" lon="12.199596760781558"><ele>671.0</ele><time>2026-04-18T12:59:37.999Z</time></trkpt><trkpt lat="43.55439342457379" lon="12.199621520344168"><ele>671.0</ele><time>2026-04-18T12:59:38.999Z</time></trkpt><trkpt lat="43.55456469363187" lon="12.199637639207072"><ele>674.0</ele><time>2026-04-18T12:59:39.999Z</time></trkpt><trkpt lat="43.55474215111761" lon="12.199631201929671"><ele>677.0</ele><time>2026-04-18T12:59:40.999Z</time></trkpt><trkpt lat="43.55492621620907" lon="12.199605198449275"><ele>680.0</ele><time>2026-04-18T12:59:42Z</time></trkpt><trkpt lat="43.55511514154354" lon="12.199584977462239"><ele>680.0</ele><time>2026-04-18T12:59:43Z</time></trkpt><trkpt lat="43.555311112501805" lon="12.199591329959915"><ele>680.0</ele><time>2026-04-18T12:59:44Z</time></trkpt><trkpt lat="43.555512532855026" lon="12.199646100205031"><ele>680.0</ele><time>2026-04-18T12:59:45Z</time></trkpt><trkpt lat="43.55572541171416" lon="12.199677485161512"><ele>681.0</ele><time>2026-04-18T12:59:46Z</time></trkpt><trkpt lat="43.55592593766172" lon="12.199737929284218"><ele>682.0</ele><time>2026-04-18T12:59:47Z</time></trkpt><trkpt lat="43.55612210675688" lon="12.199788593824177"><ele>683.0</ele><time>2026-04-18T12:59:48Z</time></trkpt><trkpt lat="43.556315547374325" lon="12.199825077040272"><ele>677.0</ele><time>2026-04-18T12:59:49Z</time></trkpt><trkpt lat="43.55650495481632" lon="12.199848031482208"><ele>671.0</ele><time>2026-04-18T12:59:50Z</time></trkpt><trkpt lat="43.55667941420375" lon="12.199872622402362"><ele>665.0</ele><time>2026-04-18T12:59:51Z</time></trkpt><trkpt lat="43.55684415580632" lon="12.199931379870339"><ele>665.0</ele><time>2026-04-18T12:59:52Z</time></trkpt><trkpt lat="43.557010577113964" lon="12.199987089467657"><ele>665.0</ele><time>2026-04-18T12:59:53Z</time></trkpt><trkpt lat="43.55717068396949" lon="12.200061355993174"><ele>665.0</ele><time>2026-04-18T12:59:54Z</time></trkpt><trkpt lat="43.55733092706813" lon="12.200155942849506"><ele>667.3333333333333</ele><time>2026-04-18T12:59:55Z</time></trkpt><trkpt lat="43.5574877565903" lon="12.200280274451275"><ele>669.6666666666666</ele><time>2026-04-18T12:59:56Z</time></trkpt><trkpt lat="43.55762423065798" lon="12.20043953294223"><ele>672.0</ele><time>2026-04-18T12:59:57Z</time></trkpt><trkpt lat="43.557752815549534" lon="12.200607672413595"><ele>675.6666666666666</ele><time>2026-04-18T12:59:58Z</time></trkpt><trkpt lat="43.55788769077414" lon="12.200746780890311"><ele>679.3333333333333</ele><time>2026-04-18T12:59:59Z</time></trkpt><trkpt lat="43.55802416976145" lon="12.200875073323218"><ele>683.0</ele><time>2026-04-18T13:00:00Z</time></trkpt><trkpt lat="43.558157843594365" lon="12.200992594997443"><ele>683.0</ele><time>2026-04-18T13:00:01Z</time></trkpt><trkpt lat="43.55828357574664" lon="12.201097453420767"><ele>683.0</ele><time>2026-04-18T13:00:02Z</time></trkpt><trkpt lat="43.55838552425508" lon="12.201226154987436"><ele>683.0</ele><time>2026-04-18T13:00:03Z</time></trkpt><trkpt lat="43.55846809199453" lon="12.20139074882552"><ele>683.0</ele><time>2026-04-18T13:00:04Z</time></trkpt><trkpt lat="43.55853177619876" lon="12.201583657879754"><ele>680.0</ele><time>2026-04-18T13:00:05Z</time></trkpt><trkpt lat="43.55857793562652" lon="12.201795240999898"><ele>677.0</ele><time>2026-04-18T13:00:06Z</time></trkpt><trkpt lat="43.558593295825396" lon="12.202025239281538"><ele>674.0</ele><time>2026-04-18T13:00:07Z</time></trkpt><trkpt lat="43.558601397338464" lon="12.202259097655617"><ele>672.6666666666666</ele><time>2026-04-18T13:00:08Z</time></trkpt><trkpt lat="43.55862590292064" lon="12.202481759145979"><ele>671.3333333333334</ele><time>2026-04-18T13:00:09Z</time></trkpt><trkpt lat="43.558634905011814" lon="12.202689262954223"><ele>670.0</ele><time>2026-04-18T13:00:10Z</time></trkpt><trkpt lat="43.55865861992997" lon="12.202873906222974"><ele>673.25</ele><time>2026-04-18T13:00:11Z</time></trkpt><trkpt lat="43.558701382390424" lon="12.203035826657533"><ele>676.5</ele><time>2026-04-18T13:00:12Z</time></trkpt><trkpt lat="43.55876755972441" lon="12.203167953828302"><ele>679.75</ele><time>2026-04-18T13:00:13Z</time></trkpt><trkpt lat="43.55887383962068" lon="12.203264690010144"><ele>683.0</ele><time>2026-04-18T13:00:14Z</time></trkpt><trkpt lat="43.559007520639106" lon="12.203310730017563"><ele>683.0</ele><time>2026-04-18T13:00:15Z</time></trkpt><trkpt lat="43.55915707130189" lon="12.203296039139227"><ele>683.0</ele><time>2026-04-18T13:00:16Z</time></trkpt><trkpt lat="43.55932037431963" lon="12.20325138402038"><ele>683.0</ele><time>2026-04-18T13:00:17Z</time></trkpt><trkpt lat="43.55949472428852" lon="12.203212737063954"><ele>684.6666666666666</ele><time>2026-04-18T13:00:18Z</time></trkpt><trkpt lat="43.559674448723946" lon="12.203195260836152"><ele>686.3333333333334</ele><time>2026-04-18T13:00:19Z</time></trkpt><trkpt lat="43.55985215943431" lon="12.20317418774851"><ele>688.0</ele><time>2026-04-18T13:00:20Z</time></trkpt><trkpt lat="43.560037794078866" lon="12.203155045417331"><ele>688.0</ele><time>2026-04-18T13:00:21Z</time></trkpt><trkpt lat="43.56022138980385" lon="12.203139370264893"><ele>688.0</ele><time>2026-04-18T13:00:22Z</time></trkpt><trkpt lat="43.56040032235882" lon="12.203154726882357"><ele>688.0</ele><time>2026-04-18T13:00:23Z</time></trkpt><trkpt lat="43.560577240828955" lon="12.20323858893855"><ele>688.6666666666667</ele><time>2026-04-18T13:00:24Z</time></trkpt><trkpt lat="43.560755848595896" lon="12.203333193434634"><ele>689.3333333333334</ele><time>2026-04-18T13:00:25Z</time></trkpt><trkpt lat="43.56092472187323" lon="12.203421730806909"><ele>690.0</ele><time>2026-04-18T13:00:26Z</time></trkpt><trkpt lat="43.56110193397679" lon="12.203514394808032"><ele>690.6666666666666</ele><time>2026-04-18T13:00:27Z</time></trkpt><trkpt lat="43.56128156653035" lon="12.20360832440365"><ele>691.3333333333333</ele><time>2026-04-18T13:00:28Z</time></trkpt><trkpt lat="43.561443053772926" lon="12.20369276584511"><ele>692.0</ele><time>2026-04-18T13:00:29Z</time></trkpt><trkpt lat="43.56158475129641" lon="12.203767632602318"><ele>692.0</ele><time>2026-04-18T13:00:30Z</time></trkpt><trkpt lat="43.56170868205089" lon="12.203841022841297"><ele>692.0</ele><time>2026-04-18T13:00:31Z</time></trkpt><trkpt lat="43.56180980595447" lon="12.203933908264055"><ele>692.0</ele><time>2026-04-18T13:00:32Z</time></trkpt><trkpt lat="43.56185983396942" lon="12.204067624810659"><ele>692.0</ele><time>2026-04-18T13:00:33Z</time></trkpt><trkpt lat="43.561853860494594" lon="12.204220741480984"><ele>694.0</ele><time>2026-04-18T13:00:34Z</time></trkpt><trkpt lat="43.56186252171259" lon="12.204397524476457"><ele>696.0</ele><time>2026-04-18T13:00:35Z</time></trkpt><trkpt lat="43.56187435006722" lon="12.204661778812099"><ele>698.0</ele><time>2026-04-18T13:00:36Z</time></trkpt><trkpt lat="43.56188354747926" lon="12.204870956210739"><ele>699.6666666666666</ele><time>2026-04-18T13:00:37Z</time></trkpt><trkpt lat="43.561894202632324" lon="12.20510428018846"><ele>701.3333333333334</ele><time>2026-04-18T13:00:38Z</time></trkpt><trkpt lat="43.5619063588706" lon="12.205358934586902"><ele>703.0</ele><time>2026-04-18T13:00:39Z</time></trkpt><trkpt lat="43.561920320479175" lon="12.205651408622593"><ele>703.0</ele><time>2026-04-18T13:00:40Z</time></trkpt><trkpt lat="43.561932249329764" lon="12.205901721470187"><ele>703.0</ele><time>2026-04-18T13:00:41Z</time></trkpt><trkpt lat="43.56194424587392" lon="12.206154217832713"><ele>703.0</ele><time>2026-04-18T13:00:42Z</time></trkpt><trkpt lat="43.56195737561981" lon="12.206410188509691"><ele>701.3333333333334</ele><time>2026-04-18T13:00:43Z</time></trkpt><trkpt lat="43.561975974583575" lon="12.206662238947283"><ele>699.6666666666666</ele><time>2026-04-18T13:00:44Z</time></trkpt><trkpt lat="43.562003438752" lon="12.206933486111494"><ele>698.0</ele><time>2026-04-18T13:00:45Z</time></trkpt><trkpt lat="43.56204456668648" lon="12.207203953336961"><ele>708.3333333333333</ele><time>2026-04-18T13:00:46Z</time></trkpt><trkpt lat="43.56210195032531" lon="12.207487967266516"><ele>718.6666666666666</ele><time>2026-04-18T13:00:47Z</time></trkpt><trkpt lat="43.56216135429686" lon="12.2077543570846"><ele>729.0</ele><time>2026-04-18T13:00:48Z</time></trkpt><trkpt lat="43.56221992313774" lon="12.20801669848577"><ele>728.6666666666666</ele><time>2026-04-18T13:00:49Z</time></trkpt><trkpt lat="43.5622800231906" lon="12.208285898486325"><ele>728.3333333333333</ele><time>2026-04-18T13:00:50Z</time></trkpt><trkpt lat="43.56233935124979" lon="12.208551640568274"><ele>728.0</ele><time>2026-04-18T13:00:51Z</time></trkpt><trkpt lat="43.562396599782346" lon="12.208808445848037"><ele>726.3333333333333</ele><time>2026-04-18T13:00:52Z</time></trkpt><trkpt lat="43.56245206790121" lon="12.209057820924874"><ele>724.6666666666666</ele><time>2026-04-18T13:00:53Z</time></trkpt><trkpt lat="43.56250682951017" lon="12.209262945677768"><ele>723.0</ele><time>2026-04-18T13:00:54Z</time></trkpt><trkpt lat="43.56256047817289" lon="12.209491953125537"><ele>723.0</ele><time>2026-04-18T13:00:55Z</time></trkpt><trkpt lat="43.56261409254191" lon="12.209706610085666"><ele>723.0</ele><time>2026-04-18T13:00:56Z</time></trkpt><trkpt lat="43.56264322212338" lon="12.209909479707159"><ele>723.0</ele><time>2026-04-18T13:00:57Z</time></trkpt><trkpt lat="43.56270020800636" lon="12.210087999936071"><ele>723.0</ele><time>2026-04-18T13:00:58Z</time></trkpt><trkpt lat="43.56276258574907" lon="12.210252288361817"><ele>723.0</ele><time>2026-04-18T13:00:59Z</time></trkpt><trkpt lat="43.562846710336245" lon="12.210403895348506"><ele>723.0</ele><time>2026-04-18T13:01:00Z</time></trkpt><trkpt lat="43.56295957384812" lon="12.210539408670092"><ele>723.0</ele><time>2026-04-18T13:01:01Z</time></trkpt><trkpt lat="43.56307409863261" lon="12.210651553313205"><ele>725.0</ele><time>2026-04-18T13:01:02Z</time></trkpt><trkpt lat="43.563187625079166" lon="12.210718635228464"><ele>727.0</ele><time>2026-04-18T13:01:03Z</time></trkpt><trkpt lat="43.56331141634498" lon="12.21073524950177"><ele>729.0</ele><time>2026-04-18T13:01:04Z</time></trkpt><trkpt lat="43.56343952462259" lon="12.210690042476251"><ele>731.0</ele><time>2026-04-18T13:01:05Z</time></trkpt><trkpt lat="43.563565568910406" lon="12.210597528907309"><ele>735.0</ele><time>2026-04-18T13:01:06Z</time></trkpt><trkpt lat="43.56369473254755" lon="12.210512476580702"><ele>739.0</ele><time>2026-04-18T13:01:07Z</time></trkpt><trkpt lat="43.563841629864136" lon="12.210430052256301"><ele>743.0</ele><time>2026-04-18T13:01:08Z</time></trkpt><trkpt lat="43.56398286712933" lon="12.210346754310526"><ele>743.3333333333333</ele><time>2026-04-18T13:01:09Z</time></trkpt><trkpt lat="43.56412447770829" lon="12.210243872971654"><ele>743.6666666666666</ele><time>2026-04-18T13:01:10Z</time></trkpt><trkpt lat="43.56425737657121" lon="12.210113965889953"><ele>744.0</ele><time>2026-04-18T13:01:11Z</time></trkpt><trkpt lat="43.56438447245689" lon="12.209953068732947"><ele>747.6666666666666</ele><time>2026-04-18T13:01:12Z</time></trkpt><trkpt lat="43.56451321734617" lon="12.209803722976618"><ele>751.3333333333333</ele><time>2026-04-18T13:01:13Z</time></trkpt><trkpt lat="43.564656888575676" lon="12.209715429444948"><ele>755.0</ele><time>2026-04-18T13:01:14Z</time></trkpt><trkpt lat="43.564811008351555" lon="12.209621198801464"><ele>755.0</ele><time>2026-04-18T13:01:15Z</time></trkpt><trkpt lat="43.56497420343082" lon="12.209544843645494"><ele>755.0</ele><time>2026-04-18T13:01:16Z</time></trkpt><trkpt lat="43.56513081400463" lon="12.209441739076667"><ele>755.0</ele><time>2026-04-18T13:01:17Z</time></trkpt><trkpt lat="43.56528352915691" lon="12.209320632587497"><ele>754.0</ele><time>2026-04-18T13:01:18Z</time></trkpt><trkpt lat="43.565423263600245" lon="12.20919266691799"><ele>753.0</ele><time>2026-04-18T13:01:19Z</time></trkpt><trkpt lat="43.56554794453065" lon="12.209062047658218"><ele>752.0</ele><time>2026-04-18T13:01:20Z</time></trkpt><trkpt lat="43.565649214540244" lon="12.208926905853751"><ele>752.0</ele><time>2026-04-18T13:01:21Z</time></trkpt><trkpt lat="43.565737439861735" lon="12.208797433674546"><ele>752.0</ele><time>2026-04-18T13:01:22Z</time></trkpt><trkpt lat="43.56582649394669" lon="12.208677037268105"><ele>752.0</ele><time>2026-04-18T13:01:23Z</time></trkpt><trkpt lat="43.56591277657895" lon="12.208579685954886"><ele>752.0</ele><time>2026-04-18T13:01:24Z</time></trkpt><trkpt lat="43.566018081506904" lon="12.208528462634247"><ele>752.0</ele><time>2026-04-18T13:01:25Z</time></trkpt><trkpt lat="43.56613624462116" lon="12.208568652290934"><ele>752.0</ele><time>2026-04-18T13:01:26Z</time></trkpt><trkpt lat="43.56625952355266" lon="12.208647050291178"><ele>752.0</ele><time>2026-04-18T13:01:27Z</time></trkpt><trkpt lat="43.566399960687185" lon="12.208696344239986"><ele>752.0</ele><time>2026-04-18T13:01:28Z</time></trkpt><trkpt lat="43.566544488284656" lon="12.208776816625644"><ele>750.6666666666666</ele><time>2026-04-18T13:01:29Z</time></trkpt><trkpt lat="43.56669498340932" lon="12.208845404879607"><ele>749.3333333333334</ele><time>2026-04-18T13:01:30Z</time></trkpt><trkpt lat="43.56685169254176" lon="12.20891257582755"><ele>748.0</ele><time>2026-04-18T13:01:31Z</time></trkpt><trkpt lat="43.567000209229676" lon="12.20899751870001"><ele>752.5</ele><time>2026-04-18T13:01:32Z</time></trkpt><trkpt lat="43.567137113289924" lon="12.209062482296314"><ele>757.0</ele><time>2026-04-18T13:01:33Z</time></trkpt><trkpt lat="43.567259382390944" lon="12.209125021532534"><ele>761.5</ele><time>2026-04-18T13:01:34Z</time></trkpt><trkpt lat="43.56735778270585" lon="12.209190398341805"><ele>766.0</ele><time>2026-04-18T13:01:35Z</time></trkpt><trkpt lat="43.56743012742268" lon="12.209287626528237"><ele>766.0</ele><time>2026-04-18T13:01:36Z</time></trkpt><trkpt lat="43.567443293334065" lon="12.209434403011032"><ele>766.0</ele><time>2026-04-18T13:01:37Z</time></trkpt><trkpt lat="43.56744902720524" lon="12.209603834404655"><ele>766.0</ele><time>2026-04-18T13:01:38Z</time></trkpt><trkpt lat="43.56746734885359" lon="12.209778200696372"><ele>766.0</ele><time>2026-04-18T13:01:39Z</time></trkpt><trkpt lat="43.5675059768969" lon="12.209947874670453"><ele>763.0</ele><time>2026-04-18T13:01:40Z</time></trkpt><trkpt lat="43.56760137339436" lon="12.210105463944991"><ele>760.0</ele><time>2026-04-18T13:01:41Z</time></trkpt><trkpt lat="43.56772609629935" lon="12.210249765994998"><ele>757.0</ele><time>2026-04-18T13:01:42Z</time></trkpt><trkpt lat="43.56786615195202" lon="12.210398601243933"><ele>760.0</ele><time>2026-04-18T13:01:43Z</time></trkpt><trkpt lat="43.56799541227487" lon="12.21056027860105"><ele>763.0</ele><time>2026-04-18T13:01:44Z</time></trkpt><trkpt lat="43.568147508634446" lon="12.210724540367028"><ele>766.0</ele><time>2026-04-18T13:01:45Z</time></trkpt><trkpt lat="43.56828446282475" lon="12.210858214184594"><ele>766.0</ele><time>2026-04-18T13:01:46Z</time></trkpt><trkpt lat="43.56843576344075" lon="12.210965099965867"><ele>766.0</ele><time>2026-04-18T13:01:47Z</time></trkpt><trkpt lat="43.568577371807116" lon="12.211073511638348"><ele>766.0</ele><time>2026-04-18T13:01:48Z</time></trkpt><trkpt lat="43.56872888225101" lon="12.211153651533634"><ele>769.3333333333334</ele><time>2026-04-18T13:01:49Z</time></trkpt><trkpt lat="43.568889815320404" lon="12.211188132361599"><ele>772.6666666666667</ele><time>2026-04-18T13:01:50Z</time></trkpt><trkpt lat="43.569047609444276" lon="12.211180895328141"><ele>776.0</ele><time>2026-04-18T13:01:51Z</time></trkpt><trkpt lat="43.56918894212144" lon="12.211124409824164"><ele>776.0</ele><time>2026-04-18T13:01:52Z</time></trkpt><trkpt lat="43.56931373983272" lon="12.211027918279669"><ele>776.0</ele><time>2026-04-18T13:01:53Z</time></trkpt><trkpt lat="43.56942587227556" lon="12.210890092186965"><ele>776.0</ele><time>2026-04-18T13:01:54Z</time></trkpt><trkpt lat="43.56953547268218" lon="12.210734945679667"><ele>783.0</ele><time>2026-04-18T13:01:55Z</time></trkpt><trkpt lat="43.569667523413074" lon="12.210633464269046"><ele>790.0</ele><time>2026-04-18T13:01:56Z</time></trkpt><trkpt lat="43.56980172840351" lon="12.210551528697584"><ele>797.0</ele><time>2026-04-18T13:01:57Z</time></trkpt><trkpt lat="43.56994103712329" lon="12.210525148328893"><ele>804.0</ele><time>2026-04-18T13:01:58Z</time></trkpt><trkpt lat="43.57008405986131" lon="12.210542658162618"><ele>804.0</ele><time>2026-04-18T13:01:59Z</time></trkpt><trkpt lat="43.5702401147209" lon="12.210570740045185"><ele>804.0</ele><time>2026-04-18T13:02:00Z</time></trkpt><trkpt lat="43.57039859830513" lon="12.210595420886925"><ele>804.0</ele><time>2026-04-18T13:02:01Z</time></trkpt><trkpt lat="43.57056415982482" lon="12.210624264548905"><ele>805.3333333333333</ele><time>2026-04-18T13:02:02Z</time></trkpt><trkpt lat="43.57073085078164" lon="12.210639236826939"><ele>806.6666666666666</ele><time>2026-04-18T13:02:03Z</time></trkpt><trkpt lat="43.57089991643203" lon="12.210633025641114"><ele>808.0</ele><time>2026-04-18T13:02:04Z</time></trkpt><trkpt lat="43.57106681711428" lon="12.21059715223951"><ele>808.0</ele><time>2026-04-18T13:02:05Z</time></trkpt><trkpt lat="43.57122627208702" lon="12.21053187389495"><ele>808.0</ele><time>2026-04-18T13:02:06Z</time></trkpt><trkpt lat="43.57136676293767" lon="12.210450559719089"><ele>808.0</ele><time>2026-04-18T13:02:07Z</time></trkpt><trkpt lat="43.57150603956603" lon="12.210434394215774"><ele>808.0</ele><time>2026-04-18T13:02:08Z</time></trkpt><trkpt lat="43.57164305381272" lon="12.210466510147624"><ele>808.0</ele><time>2026-04-18T13:02:09Z</time></trkpt><trkpt lat="43.57179623130809" lon="12.21050319239368"><ele>808.0</ele><time>2026-04-18T13:02:10Z</time></trkpt><trkpt lat="43.57195298519416" lon="12.210527374014056"><ele>810.0</ele><time>2026-04-18T13:02:11Z</time></trkpt><trkpt lat="43.57210054794057" lon="12.210572831561976"><ele>812.0</ele><time>2026-04-18T13:02:12Z</time></trkpt><trkpt lat="43.57223565863547" lon="12.2106095345992"><ele>814.0</ele><time>2026-04-18T13:02:13Z</time></trkpt><trkpt lat="43.57235106635579" lon="12.210707730988487"><ele>816.0</ele><time>2026-04-18T13:02:14Z</time></trkpt><trkpt lat="43.57245272524201" lon="12.210829465912685"><ele>809.6666666666667</ele><time>2026-04-18T13:02:15Z</time></trkpt><trkpt lat="43.572505146296066" lon="12.211013827861574"><ele>803.3333333333334</ele><time>2026-04-18T13:02:16Z</time></trkpt><trkpt lat="43.57260319807856" lon="12.21117790949321"><ele>797.0</ele><time>2026-04-18T13:02:17Z</time></trkpt><trkpt lat="43.57270456717533" lon="12.211343604918707"><ele>801.6666666666667</ele><time>2026-04-18T13:02:18Z</time></trkpt><trkpt lat="43.57281388032246" lon="12.211504052717157"><ele>806.3333333333333</ele><time>2026-04-18T13:02:19Z</time></trkpt><trkpt lat="43.57293114216644" lon="12.211670921933026"><ele>811.0</ele><time>2026-04-18T13:02:20Z</time></trkpt><trkpt lat="43.57304440981936" lon="12.211843588774034"><ele>811.0</ele><time>2026-04-18T13:02:21Z</time></trkpt><trkpt lat="43.57315612929067" lon="12.21201988386548"><ele>811.0</ele><time>2026-04-18T13:02:22Z</time></trkpt><trkpt lat="43.573264552872374" lon="12.212203033754518"><ele>811.0</ele><time>2026-04-18T13:02:23Z</time></trkpt><trkpt lat="43.57334798139019" lon="12.212412628762875"><ele>807.0</ele><time>2026-04-18T13:02:24Z</time></trkpt><trkpt lat="43.57341671910019" lon="12.212626756074892"><ele>803.0</ele><time>2026-04-18T13:02:25Z</time></trkpt><trkpt lat="43.573456267769174" lon="12.212852936360125"><ele>799.0</ele><time>2026-04-18T13:02:26Z</time></trkpt><trkpt lat="43.573481132490684" lon="12.213086423801656"><ele>796.6666666666666</ele><time>2026-04-18T13:02:27Z</time></trkpt><trkpt lat="43.57348954997708" lon="12.213324949596903"><ele>794.3333333333333</ele><time>2026-04-18T13:02:28Z</time></trkpt><trkpt lat="43.57350310880209" lon="12.213552739581788"><ele>792.0</ele><time>2026-04-18T13:02:29Z</time></trkpt><trkpt lat="43.57350133173149" lon="12.21375989888141"><ele>792.0</ele><time>2026-04-18T13:02:30Z</time></trkpt><trkpt lat="43.57350327968602" lon="12.21394737466865"><ele>792.0</ele><time>2026-04-18T13:02:31Z</time></trkpt><trkpt lat="43.57352653002908" lon="12.214120800503425"><ele>792.0</ele><time>2026-04-18T13:02:32Z</time></trkpt><trkpt lat="43.57359247731176" lon="12.214281905910106"><ele>792.0</ele><time>2026-04-18T13:02:33Z</time></trkpt><trkpt lat="43.573690606416534" lon="12.214421772973619"><ele>797.25</ele><time>2026-04-18T13:02:34Z</time></trkpt><trkpt lat="43.5738055244725" lon="12.21453619044431"><ele>802.5</ele><time>2026-04-18T13:02:35Z</time></trkpt><trkpt lat="43.57392657107396" lon="12.214624889673019"><ele>807.75</ele><time>2026-04-18T13:02:36Z</time></trkpt><trkpt lat="43.57405932823265" lon="12.2146735368177"><ele>813.0</ele><time>2026-04-18T13:02:37Z</time></trkpt><trkpt lat="43.574202701100596" lon="12.214665141910192"><ele>813.0</ele><time>2026-04-18T13:02:38Z</time></trkpt><trkpt lat="43.57434916420683" lon="12.214595750513778"><ele>813.0</ele><time>2026-04-18T13:02:39Z</time></trkpt><trkpt lat="43.574496706558016" lon="12.214502715989795"><ele>813.0</ele><time>2026-04-18T13:02:40Z</time></trkpt><trkpt lat="43.57464755422052" lon="12.214413496854926"><ele>816.3333333333333</ele><time>2026-04-18T13:02:41Z</time></trkpt><trkpt lat="43.574803895950296" lon="12.214372322844419"><ele>819.6666666666666</ele><time>2026-04-18T13:02:42Z</time></trkpt><trkpt lat="43.57495485061669" lon="12.214362999749726"><ele>823.0</ele><time>2026-04-18T13:02:43Z</time></trkpt><trkpt lat="43.575119063290735" lon="12.214396647148114"><ele>823.0</ele><time>2026-04-18T13:02:44Z</time></trkpt><trkpt lat="43.575290492222685" lon="12.214473273900554"><ele>823.0</ele><time>2026-04-18T13:02:45Z</time></trkpt><trkpt lat="43.57547184771483" lon="12.214562616914279"><ele>823.0</ele><time>2026-04-18T13:02:46Z</time></trkpt><trkpt lat="43.57567014957141" lon="12.214644928259593"><ele>826.3333333333333</ele><time>2026-04-18T13:02:47Z</time></trkpt><trkpt lat="43.57585699648822" lon="12.21474228481679"><ele>829.6666666666667</ele><time>2026-04-18T13:02:48Z</time></trkpt><trkpt lat="43.57603218344643" lon="12.214825024279449"><ele>833.0</ele><time>2026-04-18T13:02:49Z</time></trkpt><trkpt lat="43.57619148942651" lon="12.214894885578003"><ele>833.0</ele><time>2026-04-18T13:02:50Z</time></trkpt><trkpt lat="43.576329948013075" lon="12.214979547593371"><ele>833.0</ele><time>2026-04-18T13:02:51Z</time></trkpt><trkpt lat="43.57645930156887" lon="12.215020830328061"><ele>833.0</ele><time>2026-04-18T13:02:52Z</time></trkpt><trkpt lat="43.5765492724599" lon="12.215133975528238"><ele>833.0</ele><time>2026-04-18T13:02:53Z</time></trkpt><trkpt lat="43.57661864388161" lon="12.215257481829127"><ele>833.0</ele><time>2026-04-18T13:02:54Z</time></trkpt><trkpt lat="43.576648604057496" lon="12.215419591465764"><ele>833.0</ele><time>2026-04-18T13:02:55Z</time></trkpt><trkpt lat="43.57664973594653" lon="12.215604932271516"><ele>833.0</ele><time>2026-04-18T13:02:56Z</time></trkpt><trkpt lat="43.576662265352084" lon="12.215790479299738"><ele>833.0</ele><time>2026-04-18T13:02:57Z</time></trkpt><trkpt lat="43.57668716179931" lon="12.215967608164048"><ele>829.3333333333334</ele><time>2026-04-18T13:02:58Z</time></trkpt><trkpt lat="43.57676376199396" lon="12.21612916010729"><ele>825.6666666666667</ele><time>2026-04-18T13:02:59Z</time></trkpt><trkpt lat="43.576862991297965" lon="12.216290157058669"><ele>822.0</ele><time>2026-04-18T13:03:00Z</time></trkpt><trkpt lat="43.57698368319471" lon="12.216440180147542"><ele>827.0</ele><time>2026-04-18T13:03:01Z</time></trkpt><trkpt lat="43.57712229674898" lon="12.216568822235217"><ele>832.0</ele><time>2026-04-18T13:03:02Z</time></trkpt><trkpt lat="43.57726526190953" lon="12.216672986105564"><ele>837.0</ele><time>2026-04-18T13:03:03Z</time></trkpt><trkpt lat="43.57738479165997" lon="12.216800576950101"><ele>837.0</ele><time>2026-04-18T13:03:04Z</time></trkpt><trkpt lat="43.57748945582033" lon="12.216918299927642"><ele>837.0</ele><time>2026-04-18T13:03:05Z</time></trkpt><trkpt lat="43.57755515708074" lon="12.217066213970051"><ele>837.0</ele><time>2026-04-18T13:03:06Z</time></trkpt><trkpt lat="43.57757375424016" lon="12.217243148277104"><ele>837.0</ele><time>2026-04-18T13:03:07Z</time></trkpt><trkpt lat="43.57755167820758" lon="12.217430993293226"><ele>832.5</ele><time>2026-04-18T13:03:08Z</time></trkpt><trkpt lat="43.57753545673252" lon="12.21763014065763"><ele>828.0</ele><time>2026-04-18T13:03:09Z</time></trkpt><trkpt lat="43.57750350306458" lon="12.217803444903497"><ele>823.5</ele><time>2026-04-18T13:03:10Z</time></trkpt><trkpt lat="43.57749083547347" lon="12.21795123856916"><ele>819.0</ele><time>2026-04-18T13:03:11Z</time></trkpt><trkpt lat="43.57750809270167" lon="12.218067885292927"><ele>819.0</ele><time>2026-04-18T13:03:12Z</time></trkpt><trkpt lat="43.577561861547366" lon="12.218153349966263"><ele>819.0</ele><time>2026-04-18T13:03:13Z</time></trkpt><trkpt lat="43.57765650775004" lon="12.218169048464638"><ele>819.0</ele><time>2026-04-18T13:03:14Z</time></trkpt><trkpt lat="43.577759595065764" lon="12.21813853772105"><ele>819.0</ele><time>2026-04-18T13:03:15Z</time></trkpt><trkpt lat="43.57787288022559" lon="12.21808881714168"><ele>819.0</ele><time>2026-04-18T13:03:16Z</time></trkpt><trkpt lat="43.577998899269446" lon="12.218040423683785"><ele>827.25</ele><time>2026-04-18T13:03:17Z</time></trkpt><trkpt lat="43.578128811645065" lon="12.217990283819299"><ele>835.5</ele><time>2026-04-18T13:03:18Z</time></trkpt><trkpt lat="43.578251471708434" lon="12.21795133233947"><ele>843.75</ele><time>2026-04-18T13:03:19Z</time></trkpt><trkpt lat="43.57837228246923" lon="12.217955711717774"><ele>852.0</ele><time>2026-04-18T13:03:20Z</time></trkpt><trkpt lat="43.57849422820584" lon="12.218029921848721"><ele>850.0</ele><time>2026-04-18T13:03:21Z</time></trkpt><trkpt lat="43.578588935886" lon="12.218178032506565"><ele>848.0</ele><time>2026-04-18T13:03:22Z</time></trkpt><trkpt lat="43.578699409248905" lon="12.218306997829556"><ele>846.0</ele><time>2026-04-18T13:03:23Z</time></trkpt><trkpt lat="43.57879046547399" lon="12.218445165498535"><ele>844.0</ele><time>2026-04-18T13:03:24Z</time></trkpt><trkpt lat="43.57887853492387" lon="12.218535185494655"><ele>844.0</ele><time>2026-04-18T13:03:25Z</time></trkpt><trkpt lat="43.578974977468555" lon="12.21858769782239"><ele>844.0</ele><time>2026-04-18T13:03:26Z</time></trkpt><trkpt lat="43.579093655983606" lon="12.21854439098391"><ele>844.0</ele><time>2026-04-18T13:03:27Z</time></trkpt><trkpt lat="43.57920624821253" lon="12.218490515477043"><ele>844.0</ele><time>2026-04-18T13:03:28Z</time></trkpt><trkpt lat="43.57931879894587" lon="12.218395129993043"><ele>844.0</ele><time>2026-04-18T13:03:29Z</time></trkpt><trkpt lat="43.57944379032296" lon="12.218326633212412"><ele>844.0</ele><time>2026-04-18T13:03:30Z</time></trkpt><trkpt lat="43.57955979144625" lon="12.218253753855487"><ele>844.0</ele><time>2026-04-18T13:03:31Z</time></trkpt><trkpt lat="43.579661699451215" lon="12.218189729395217"><ele>844.0</ele><time>2026-04-18T13:03:32Z</time></trkpt><trkpt lat="43.57975737878027" lon="12.218170764355355"><ele>847.25</ele><time>2026-04-18T13:03:33Z</time></trkpt><trkpt lat="43.579861556409135" lon="12.218191137705423"><ele>850.5</ele><time>2026-04-18T13:03:34Z</time></trkpt><trkpt lat="43.579940941642725" lon="12.21834083318508"><ele>853.75</ele><time>2026-04-18T13:03:35Z</time></trkpt><trkpt lat="43.58002134973178" lon="12.218508429529795"><ele>857.0</ele><time>2026-04-18T13:03:36Z</time></trkpt><trkpt lat="43.580119236056255" lon="12.218702054912955"><ele>857.0</ele><time>2026-04-18T13:03:37Z</time></trkpt><trkpt lat="43.58020285464801" lon="12.218922193082399"><ele>857.0</ele><time>2026-04-18T13:03:38Z</time></trkpt><trkpt lat="43.58028790849886" lon="12.21913586754447"><ele>857.0</ele><time>2026-04-18T13:03:39Z</time></trkpt><trkpt lat="43.58036732291532" lon="12.219339969042425"><ele>859.75</ele><time>2026-04-18T13:03:40Z</time></trkpt><trkpt lat="43.58043258160713" lon="12.219531970163532"><ele>862.5</ele><time>2026-04-18T13:03:41Z</time></trkpt><trkpt lat="43.5804883683343" lon="12.219707813316285"><ele>865.25</ele><time>2026-04-18T13:03:42Z</time></trkpt><trkpt lat="43.58053392904015" lon="12.219848023302296"><ele>868.0</ele><time>2026-04-18T13:03:43Z</time></trkpt><trkpt lat="43.58058318672915" lon="12.21996450816685"><ele>861.2</ele><time>2026-04-18T13:03:44Z</time></trkpt><trkpt lat="43.580646635532496" lon="12.220039277949933"><ele>854.4</ele><time>2026-04-18T13:03:45Z</time></trkpt><trkpt lat="43.580726777975016" lon="12.220059609020137"><ele>847.6</ele><time>2026-04-18T13:03:46Z</time></trkpt><trkpt lat="43.580816926594565" lon="12.22000832635251"><ele>840.8000000000001</ele><time>2026-04-18T13:03:47Z</time></trkpt><trkpt lat="43.580920565264606" lon="12.219945452258335"><ele>834.0</ele><time>2026-04-18T13:03:48Z</time></trkpt><trkpt lat="43.58102788891655" lon="12.219874061834613"><ele>842.5</ele><time>2026-04-18T13:03:49Z</time></trkpt><trkpt lat="43.58115379194872" lon="12.219804710485816"><ele>851.0</ele><time>2026-04-18T13:03:50Z</time></trkpt><trkpt lat="43.581281747836165" lon="12.219735311785954"><ele>859.5</ele><time>2026-04-18T13:03:51Z</time></trkpt><trkpt lat="43.58140721716686" lon="12.219661137992407"><ele>868.0</ele><time>2026-04-18T13:03:52Z</time></trkpt><trkpt lat="43.58153368693567" lon="12.219590687446596"><ele>870.5999999999999</ele><time>2026-04-18T13:03:53Z</time></trkpt><trkpt lat="43.58165641578099" lon="12.219555681493404"><ele>873.1999999999999</ele><time>2026-04-18T13:03:54Z</time></trkpt><trkpt lat="43.58176917708688" lon="12.219576262427813"><ele>875.8</ele><time>2026-04-18T13:03:55Z</time></trkpt><trkpt lat="43.581863888691935" lon="12.219643733903256"><ele>878.4</ele><time>2026-04-18T13:03:56Z</time></trkpt><trkpt lat="43.58193585383875" lon="12.219727121855113"><ele>881.0</ele><time>2026-04-18T13:03:57Z</time></trkpt><trkpt lat="43.582007025475505" lon="12.219870512840025"><ele>879.25</ele><time>2026-04-18T13:03:58Z</time></trkpt><trkpt lat="43.58207794048025" lon="12.219849907039007"><ele>877.5</ele><time>2026-04-18T13:03:59Z</time></trkpt><trkpt lat="43.582036152341104" lon="12.22000258878959"><ele>875.75</ele><time>2026-04-18T13:04:00Z</time></trkpt><trkpt lat="43.582028233877956" lon="12.220197056891688"><ele>874.0</ele><time>2026-04-18T13:04:01Z</time></trkpt><trkpt lat="43.58202521242562" lon="12.220409995998159"><ele>874.0</ele><time>2026-04-18T13:04:02Z</time></trkpt><trkpt lat="43.58204118620019" lon="12.220636598645868"><ele>874.0</ele><time>2026-04-18T13:04:03Z</time></trkpt><trkpt lat="43.5820429021758" lon="12.220874376960586"><ele>874.0</ele><time>2026-04-18T13:04:04Z</time></trkpt><trkpt lat="43.58206688399239" lon="12.22110666661599"><ele>871.75</ele><time>2026-04-18T13:04:05Z</time></trkpt><trkpt lat="43.5821055087451" lon="12.221312025829825"><ele>869.5</ele><time>2026-04-18T13:04:06Z</time></trkpt><trkpt lat="43.58214507706063" lon="12.221484820503262"><ele>867.25</ele><time>2026-04-18T13:04:07Z</time></trkpt><trkpt lat="43.58217942143427" lon="12.221625200790578"><ele>865.0</ele><time>2026-04-18T13:04:08.001Z</time></trkpt><trkpt lat="43.58222689792856" lon="12.221731379772596"><ele>860.6</ele><time>2026-04-18T13:04:09Z</time></trkpt><trkpt lat="43.58230137513631" lon="12.221789773536512"><ele>856.2</ele><time>2026-04-18T13:04:10Z</time></trkpt><trkpt lat="43.58238422871663" lon="12.221766322213572"><ele>851.8</ele><time>2026-04-18T13:04:11Z</time></trkpt><trkpt lat="43.582473451890046" lon="12.221686367899721"><ele>847.4</ele><time>2026-04-18T13:04:12Z</time></trkpt><trkpt lat="43.58257474712823" lon="12.221607513079299"><ele>843.0</ele><time>2026-04-18T13:04:13Z</time></trkpt><trkpt lat="43.582678821085786" lon="12.221553819110188"><ele>843.0</ele><time>2026-04-18T13:04:14Z</time></trkpt><trkpt lat="43.58280711400955" lon="12.221484282978517"><ele>843.0</ele><time>2026-04-18T13:04:15Z</time></trkpt><trkpt lat="43.58294845270352" lon="12.221434297521261"><ele>843.0</ele><time>2026-04-18T13:04:16Z</time></trkpt><trkpt lat="43.58308747583333" lon="12.22140213609672"><ele>843.0</ele><time>2026-04-18T13:04:17Z</time></trkpt><trkpt lat="43.58321716898621" lon="12.221433627054935"><ele>843.25</ele><time>2026-04-18T13:04:18Z</time></trkpt><trkpt lat="43.58333522958175" lon="12.221502269483492"><ele>843.5</ele><time>2026-04-18T13:04:19Z</time></trkpt><trkpt lat="43.583449897725515" lon="12.221532992353795"><ele>843.75</ele><time>2026-04-18T13:04:20Z</time></trkpt><trkpt lat="43.58356458476606" lon="12.221523070117014"><ele>844.0</ele><time>2026-04-18T13:04:21Z</time></trkpt><trkpt lat="43.58366900762539" lon="12.221451257168797"><ele>850.8000000000001</ele><time>2026-04-18T13:04:22Z</time></trkpt><trkpt lat="43.5837727284679" lon="12.22142987332741"><ele>857.6</ele><time>2026-04-18T13:04:23Z</time></trkpt><trkpt lat="43.583872817947" lon="12.221440446938287"><ele>864.4</ele><time>2026-04-18T13:04:24Z</time></trkpt><trkpt lat="43.58397276962368" lon="12.221477559497929"><ele>871.2</ele><time>2026-04-18T13:04:25Z</time></trkpt><trkpt lat="43.58403905971884" lon="12.221616246507716"><ele>878.0</ele><time>2026-04-18T13:04:26Z</time></trkpt><trkpt lat="43.58409005719027" lon="12.221784866697824"><ele>878.0</ele><time>2026-04-18T13:04:27Z</time></trkpt><trkpt lat="43.584101148736764" lon="12.221993801113753"><ele>878.0</ele><time>2026-04-18T13:04:28Z</time></trkpt><trkpt lat="43.584090070935765" lon="12.222202019681431"><ele>878.0</ele><time>2026-04-18T13:04:29Z</time></trkpt><trkpt lat="43.58409651312468" lon="12.222408214286267"><ele>872.75</ele><time>2026-04-18T13:04:30Z</time></trkpt><trkpt lat="43.584138489314874" lon="12.222616509966244"><ele>867.5</ele><time>2026-04-18T13:04:31Z</time></trkpt><trkpt lat="43.58420547704424" lon="12.222807775084858"><ele>862.25</ele><time>2026-04-18T13:04:32Z</time></trkpt><trkpt lat="43.58427342036969" lon="12.222968835104398"><ele>857.0</ele><time>2026-04-18T13:04:33Z</time></trkpt><trkpt lat="43.58434055865982" lon="12.22310333231788"><ele>854.5</ele><time>2026-04-18T13:04:34Z</time></trkpt><trkpt lat="43.58437139164133" lon="12.223261812596013"><ele>852.0</ele><time>2026-04-18T13:04:35Z</time></trkpt><trkpt lat="43.58436473742608" lon="12.223444729052444"><ele>849.5</ele><time>2026-04-18T13:04:36Z</time></trkpt><trkpt lat="43.58428594838125" lon="12.2236230598612"><ele>847.0</ele><time>2026-04-18T13:04:37Z</time></trkpt><trkpt lat="43.58422448770107" lon="12.223823192603643"><ele>849.0</ele><time>2026-04-18T13:04:38Z</time></trkpt><trkpt lat="43.584162342007744" lon="12.22401589421249"><ele>851.0</ele><time>2026-04-18T13:04:39Z</time></trkpt><trkpt lat="43.58412175095597" lon="12.224204054652365"><ele>853.0</ele><time>2026-04-18T13:04:40Z</time></trkpt><trkpt lat="43.58406348921428" lon="12.224371647243057"><ele>855.0</ele><time>2026-04-18T13:04:41Z</time></trkpt><trkpt lat="43.58397603430643" lon="12.224511461911755"><ele>855.0</ele><time>2026-04-18T13:04:42Z</time></trkpt><trkpt lat="43.58390716154839" lon="12.224636753767179"><ele>855.0</ele><time>2026-04-18T13:04:43Z</time></trkpt><trkpt lat="43.58388317090965" lon="12.224770738147717"><ele>855.0</ele><time>2026-04-18T13:04:44Z</time></trkpt><trkpt lat="43.58391642894485" lon="12.224894125949259"><ele>855.0</ele><time>2026-04-18T13:04:45Z</time></trkpt><trkpt lat="43.583989394584826" lon="12.224989224948382"><ele>855.0</ele><time>2026-04-18T13:04:46Z</time></trkpt><trkpt lat="43.58410410528473" lon="12.225059433083898"><ele>855.75</ele><time>2026-04-18T13:04:47Z</time></trkpt><trkpt lat="43.58423058577678" lon="12.225096729928264"><ele>856.5</ele><time>2026-04-18T13:04:48Z</time></trkpt><trkpt lat="43.584368816527515" lon="12.225142050828724"><ele>857.25</ele><time>2026-04-18T13:04:49Z</time></trkpt><trkpt lat="43.58451399403469" lon="12.225210202633246"><ele>858.0</ele><time>2026-04-18T13:04:50Z</time></trkpt><trkpt lat="43.58463829958152" lon="12.22530781399632"><ele>854.5</ele><time>2026-04-18T13:04:51Z</time></trkpt><trkpt lat="43.58474378224893" lon="12.22543142898411"><ele>851.0</ele><time>2026-04-18T13:04:52Z</time></trkpt><trkpt lat="43.584835216938465" lon="12.225561528790536"><ele>847.5</ele><time>2026-04-18T13:04:53Z</time></trkpt><trkpt lat="43.58492515502443" lon="12.225681707454795"><ele>844.0</ele><time>2026-04-18T13:04:54Z</time></trkpt><trkpt lat="43.58503570956462" lon="12.225718011607363"><ele>844.0</ele><time>2026-04-18T13:04:55Z</time></trkpt><trkpt lat="43.585164213712716" lon="12.225714105292257"><ele>844.0</ele><time>2026-04-18T13:04:56Z</time></trkpt><trkpt lat="43.58529742187978" lon="12.225660524282706"><ele>844.0</ele><time>2026-04-18T13:04:57Z</time></trkpt><trkpt lat="43.58543211427506" lon="12.225584389144093"><ele>844.0</ele><time>2026-04-18T13:04:58Z</time></trkpt><trkpt lat="43.58557933799405" lon="12.225540989786147"><ele>860.3333333333333</ele><time>2026-04-18T13:04:59Z</time></trkpt><trkpt lat="43.58572861218576" lon="12.225476816627564"><ele>876.6666666666667</ele><time>2026-04-18T13:05:00Z</time></trkpt><trkpt lat="43.58588150509937" lon="12.225414315109395"><ele>893.0</ele><time>2026-04-18T13:05:01Z</time></trkpt><trkpt lat="43.58603511661164" lon="12.225368326205663"><ele>894.0</ele><time>2026-04-18T13:05:02Z</time></trkpt><trkpt lat="43.58618839179642" lon="12.225351601842453"><ele>895.0</ele><time>2026-04-18T13:05:03Z</time></trkpt><trkpt lat="43.586331174043465" lon="12.225335151462675"><ele>896.0</ele><time>2026-04-18T13:05:04Z</time></trkpt><trkpt lat="43.5864673672959" lon="12.225379816303997"><ele>897.0</ele><time>2026-04-18T13:05:05Z</time></trkpt><trkpt lat="43.58659763104978" lon="12.225461198118804"><ele>897.0</ele><time>2026-04-18T13:05:06Z</time></trkpt><trkpt lat="43.58672218398561" lon="12.225584153661185"><ele>897.0</ele><time>2026-04-18T13:05:07Z</time></trkpt><trkpt lat="43.58682502936144" lon="12.225730094706822"><ele>897.0</ele><time>2026-04-18T13:05:08Z</time></trkpt><trkpt lat="43.58689571906188" lon="12.225885019471335"><ele>897.0</ele><time>2026-04-18T13:05:09Z</time></trkpt><trkpt lat="43.58692656138175" lon="12.22604478953281"><ele>892.0</ele><time>2026-04-18T13:05:10Z</time></trkpt><trkpt lat="43.58690291277799" lon="12.226209325862209"><ele>887.0</ele><time>2026-04-18T13:05:11Z</time></trkpt><trkpt lat="43.586837837282395" lon="12.226367796674188"><ele>882.0</ele><time>2026-04-18T13:05:12Z</time></trkpt><trkpt lat="43.586773353091374" lon="12.226527227983878"><ele>877.0</ele><time>2026-04-18T13:05:13Z</time></trkpt><trkpt lat="43.58674353592817" lon="12.226713524533272"><ele>875.25</ele><time>2026-04-18T13:05:14Z</time></trkpt><trkpt lat="43.58675312114416" lon="12.226920230567384"><ele>873.5</ele><time>2026-04-18T13:05:15Z</time></trkpt><trkpt lat="43.58679347357232" lon="12.227123697500248"><ele>871.75</ele><time>2026-04-18T13:05:16Z</time></trkpt><trkpt lat="43.586826829713246" lon="12.227298052956309"><ele>870.0</ele><time>2026-04-18T13:05:17Z</time></trkpt><trkpt lat="43.58685237393424" lon="12.227469780574143"><ele>869.6</ele><time>2026-04-18T13:05:18Z</time></trkpt><trkpt lat="43.58687515274135" lon="12.227621142998363"><ele>869.2</ele><time>2026-04-18T13:05:19Z</time></trkpt><trkpt lat="43.586924898672365" lon="12.2277365196794"><ele>868.8</ele><time>2026-04-18T13:05:20Z</time></trkpt><trkpt lat="43.58700781330847" lon="12.227814714711467"><ele>868.4</ele><time>2026-04-18T13:05:21Z</time></trkpt><trkpt lat="43.5871248950722" lon="12.227835823593082"><ele>868.0</ele><time>2026-04-18T13:05:22Z</time></trkpt><trkpt lat="43.58725877565564" lon="12.227822896457132"><ele>875.5</ele><time>2026-04-18T13:05:23Z</time></trkpt><trkpt lat="43.587407045904115" lon="12.22783902930021"><ele>883.0</ele><time>2026-04-18T13:05:24Z</time></trkpt><trkpt lat="43.58755871623479" lon="12.227847209775454"><ele>890.5</ele><time>2026-04-18T13:05:25Z</time></trkpt><trkpt lat="43.58769625811994" lon="12.227879349736924"><ele>898.0</ele><time>2026-04-18T13:05:26Z</time></trkpt><trkpt lat="43.587826730456634" lon="12.22793886782878"><ele>902.0</ele><time>2026-04-18T13:05:27Z</time></trkpt><trkpt lat="43.58793697454712" lon="12.228038010287156"><ele>906.0</ele><time>2026-04-18T13:05:28Z</time></trkpt><trkpt lat="43.58805111365661" lon="12.228079681536121"><ele>910.0</ele><time>2026-04-18T13:05:29Z</time></trkpt><trkpt lat="43.588163283722864" lon="12.228070894461256"><ele>914.0</ele><time>2026-04-18T13:05:30Z</time></trkpt><trkpt lat="43.58827052263127" lon="12.228032322353679"><ele>914.0</ele><time>2026-04-18T13:05:30.999Z</time></trkpt><trkpt lat="43.58838886592004" lon="12.228038375249659"><ele>914.0</ele><time>2026-04-18T13:05:31.999Z</time></trkpt><trkpt lat="43.58849381293701" lon="12.228116761091142"><ele>914.0</ele><time>2026-04-18T13:05:32.999Z</time></trkpt><trkpt lat="43.58859682299801" lon="12.228238753969162"><ele>914.0</ele><time>2026-04-18T13:05:33.999Z</time></trkpt><trkpt lat="43.58868003881981" lon="12.228384589748716"><ele>912.5</ele><time>2026-04-18T13:05:34.999Z</time></trkpt><trkpt lat="43.58873931512008" lon="12.228554459934436"><ele>911.0</ele><time>2026-04-18T13:05:35.999Z</time></trkpt><trkpt lat="43.5888023806969" lon="12.228701953222"><ele>909.5</ele><time>2026-04-18T13:05:36.999Z</time></trkpt><trkpt lat="43.58887407213017" lon="12.228821184934716"><ele>908.0</ele><time>2026-04-18T13:05:37.999Z</time></trkpt><trkpt lat="43.58900202707941" lon="12.228913400471283"><ele>908.0</ele><time>2026-04-18T13:05:38.999Z</time></trkpt><trkpt lat="43.589130891568324" lon="12.228919150180284"><ele>908.0</ele><time>2026-04-18T13:05:39.999Z</time></trkpt><trkpt lat="43.58926463791326" lon="12.22891819525878"><ele>908.0</ele><time>2026-04-18T13:05:40.999Z</time></trkpt><trkpt lat="43.58938783169058" lon="12.22892458091574"><ele>908.0</ele><time>2026-04-18T13:05:41.999Z</time></trkpt><trkpt lat="43.58950146702334" lon="12.228986174464428"><ele>907.5</ele><time>2026-04-18T13:05:42.999Z</time></trkpt><trkpt lat="43.58960264305071" lon="12.229114922692284"><ele>907.0</ele><time>2026-04-18T13:05:43.999Z</time></trkpt><trkpt lat="43.58968544841055" lon="12.229273526827013"><ele>906.5</ele><time>2026-04-18T13:05:44.999Z</time></trkpt><trkpt lat="43.589748451657506" lon="12.229442163701636"><ele>906.0</ele><time>2026-04-18T13:05:45.999Z</time></trkpt><trkpt lat="43.58978328318054" lon="12.229609675283776"><ele>906.0</ele><time>2026-04-18T13:05:46.999Z</time></trkpt><trkpt lat="43.58977545044264" lon="12.229773574542083"><ele>906.0</ele><time>2026-04-18T13:05:47.999Z</time></trkpt><trkpt lat="43.589727250634255" lon="12.229925373478173"><ele>906.0</ele><time>2026-04-18T13:05:48.999Z</time></trkpt><trkpt lat="43.5896415523334" lon="12.230063862875092"><ele>906.0</ele><time>2026-04-18T13:05:49.999Z</time></trkpt><trkpt lat="43.58954096771891" lon="12.2301945131523"><ele>903.0</ele><time>2026-04-18T13:05:50.999Z</time></trkpt><trkpt lat="43.58943551164454" lon="12.23032289401322"><ele>900.0</ele><time>2026-04-18T13:05:51.999Z</time></trkpt><trkpt lat="43.589323726119034" lon="12.23045278063392"><ele>897.0</ele><time>2026-04-18T13:05:52.999Z</time></trkpt><trkpt lat="43.58921501813733" lon="12.230586122899423"><ele>894.0</ele><time>2026-04-18T13:05:53.999Z</time></trkpt><trkpt lat="43.58911808477022" lon="12.23070627560581"><ele>894.0</ele><time>2026-04-18T13:05:54.999Z</time></trkpt><trkpt lat="43.589039899027384" lon="12.230805274314395"><ele>894.0</ele><time>2026-04-18T13:05:55.999Z</time></trkpt><trkpt lat="43.588989412228486" lon="12.230904402776135"><ele>894.0</ele><time>2026-04-18T13:05:56.999Z</time></trkpt><trkpt lat="43.58898734756226" lon="12.23100634402009"><ele>894.0</ele><time>2026-04-18T13:05:57.999Z</time></trkpt><trkpt lat="43.589033986998416" lon="12.23109701481219"><ele>894.0</ele><time>2026-04-18T13:05:58.999Z</time></trkpt><trkpt lat="43.58905654455787" lon="12.231178769697438"><ele>894.0</ele><time>2026-04-18T13:06:00Z</time></trkpt><trkpt lat="43.58921597251237" lon="12.231142854799335"><ele>894.0</ele><time>2026-04-18T13:06:01Z</time></trkpt><trkpt lat="43.5893113060732" lon="12.231059858093863"><ele>894.0</ele><time>2026-04-18T13:06:02Z</time></trkpt><trkpt lat="43.58939206454417" lon="12.230935749889706"><ele>894.0</ele><time>2026-04-18T13:06:03Z</time></trkpt><trkpt lat="43.58949608196444" lon="12.23080120255583"><ele>894.0</ele><time>2026-04-18T13:06:04Z</time></trkpt><trkpt lat="43.58960730829514" lon="12.23066354616549"><ele>895.75</ele><time>2026-04-18T13:06:05Z</time></trkpt><trkpt lat="43.589718778598694" lon="12.230535116005738"><ele>897.5</ele><time>2026-04-18T13:06:06Z</time></trkpt><trkpt lat="43.58983875506868" lon="12.230438052809076"><ele>899.25</ele><time>2026-04-18T13:06:07Z</time></trkpt><trkpt lat="43.58996913588294" lon="12.23037241644837"><ele>901.0</ele><time>2026-04-18T13:06:08Z</time></trkpt><trkpt lat="43.59009142248552" lon="12.23030924744324"><ele>901.0</ele><time>2026-04-18T13:06:09Z</time></trkpt><trkpt lat="43.59020149253602" lon="12.230229471030794"><ele>901.0</ele><time>2026-04-18T13:06:10Z</time></trkpt><trkpt lat="43.59029639141835" lon="12.230125883860344"><ele>901.0</ele><time>2026-04-18T13:06:11Z</time></trkpt><trkpt lat="43.590369033022924" lon="12.229981947353881"><ele>901.0</ele><time>2026-04-18T13:06:12Z</time></trkpt><trkpt lat="43.59039784479816" lon="12.22979238122239"><ele>902.6666666666666</ele><time>2026-04-18T13:06:13Z</time></trkpt><trkpt lat="43.59038443571588" lon="12.229579013663722"><ele>904.3333333333333</ele><time>2026-04-18T13:06:14Z</time></trkpt><trkpt lat="43.59035555030706" lon="12.229372273010508"><ele>906.0</ele><time>2026-04-18T13:06:15Z</time></trkpt><trkpt lat="43.590309234203154" lon="12.229163052416423"><ele>912.0</ele><time>2026-04-18T13:06:16Z</time></trkpt><trkpt lat="43.590249733155716" lon="12.22895488448129"><ele>918.0</ele><time>2026-04-18T13:06:17Z</time></trkpt><trkpt lat="43.5901893444817" lon="12.228750558732763"><ele>924.0</ele><time>2026-04-18T13:06:18Z</time></trkpt><trkpt lat="43.590136702588524" lon="12.2285612766143"><ele>924.0</ele><time>2026-04-18T13:06:19Z</time></trkpt><trkpt lat="43.59008478709432" lon="12.228393123571324"><ele>924.0</ele><time>2026-04-18T13:06:20Z</time></trkpt><trkpt lat="43.59001772204648" lon="12.228253927491204"><ele>924.0</ele><time>2026-04-18T13:06:21Z</time></trkpt><trkpt lat="43.58992113396629" lon="12.228146034934722"><ele>924.0</ele><time>2026-04-18T13:06:22Z</time></trkpt><trkpt lat="43.589797914298856" lon="12.22808700189201"><ele>925.8000000000001</ele><time>2026-04-18T13:06:23Z</time></trkpt><trkpt lat="43.58967474906742" lon="12.22806573515099"><ele>927.6000000000001</ele><time>2026-04-18T13:06:24Z</time></trkpt><trkpt lat="43.58956561261366" lon="12.228053898750302"><ele>929.4</ele><time>2026-04-18T13:06:25Z</time></trkpt><trkpt lat="43.58948322305134" lon="12.22801035809978"><ele>931.2</ele><time>2026-04-18T13:06:26Z</time></trkpt><trkpt lat="43.5894187150548" lon="12.227976776374451"><ele>933.0</ele><time>2026-04-18T13:06:27Z</time></trkpt><trkpt lat="43.589401183484306" lon="12.227881118960951"><ele>933.0</ele><time>2026-04-18T13:06:28Z</time></trkpt><trkpt lat="43.58944198544609" lon="12.227794420907076"><ele>933.0</ele><time>2026-04-18T13:06:29Z</time></trkpt><trkpt lat="43.589518457517286" lon="12.227751181348982"><ele>933.0</ele><time>2026-04-18T13:06:30Z</time></trkpt><trkpt lat="43.58961449025617" lon="12.22780160604983"><ele>933.0</ele><time>2026-04-18T13:06:31Z</time></trkpt><trkpt lat="43.58971659556692" lon="12.227841108025505"><ele>933.0</ele><time>2026-04-18T13:06:32Z</time></trkpt><trkpt lat="43.58983865729955" lon="12.22788808299039"><ele>930.75</ele><time>2026-04-18T13:06:33Z</time></trkpt><trkpt lat="43.58997003240292" lon="12.227949681642"><ele>928.5</ele><time>2026-04-18T13:06:34Z</time></trkpt><trkpt lat="43.590083827628774" lon="12.228063314657366"><ele>926.25</ele><time>2026-04-18T13:06:35Z</time></trkpt><trkpt lat="43.590189355027526" lon="12.228210925066257"><ele>924.0</ele><time>2026-04-18T13:06:36Z</time></trkpt><trkpt lat="43.59029690165361" lon="12.22837274079837"><ele>934.6666666666667</ele><time>2026-04-18T13:06:37Z</time></trkpt><trkpt lat="43.590369659730015" lon="12.22857862462532"><ele>945.3333333333334</ele><time>2026-04-18T13:06:38Z</time></trkpt><trkpt lat="43.59046568604468" lon="12.228762738466239"><ele>956.0</ele><time>2026-04-18T13:06:39Z</time></trkpt><trkpt lat="43.59055927406788" lon="12.228932574500114"><ele>951.0</ele><time>2026-04-18T13:06:40Z</time></trkpt><trkpt lat="43.59066964456404" lon="12.229108503374256"><ele>946.0</ele><time>2026-04-18T13:06:41Z</time></trkpt><trkpt lat="43.590769079453686" lon="12.22930307278909"><ele>941.0</ele><time>2026-04-18T13:06:42Z</time></trkpt><trkpt lat="43.590823617655076" lon="12.229523636655223"><ele>941.0</ele><time>2026-04-18T13:06:43Z</time></trkpt><trkpt lat="43.59088613974464" lon="12.229735003770262"><ele>941.0</ele><time>2026-04-18T13:06:44Z</time></trkpt><trkpt lat="43.59095656136574" lon="12.229931305896066"><ele>941.0</ele><time>2026-04-18T13:06:45Z</time></trkpt><trkpt lat="43.59099488549164" lon="12.23012362091356"><ele>942.0</ele><time>2026-04-18T13:06:46Z</time></trkpt><trkpt lat="43.59100334313221" lon="12.23032045591958"><ele>943.0</ele><time>2026-04-18T13:06:47Z</time></trkpt><trkpt lat="43.59096142635742" lon="12.23051263228776"><ele>944.0</ele><time>2026-04-18T13:06:48Z</time></trkpt><trkpt lat="43.590916402215925" lon="12.230704999050687"><ele>945.0</ele><time>2026-04-18T13:06:49Z</time></trkpt><trkpt lat="43.590855451424325" lon="12.230894676377783"><ele>945.0</ele><time>2026-04-18T13:06:50Z</time></trkpt><trkpt lat="43.59079844630543" lon="12.231073818818023"><ele>945.0</ele><time>2026-04-18T13:06:51Z</time></trkpt><trkpt lat="43.590722201514424" lon="12.231213875642577"><ele>945.0</ele><time>2026-04-18T13:06:52Z</time></trkpt><trkpt lat="43.5906235362777" lon="12.231295972737627"><ele>945.0</ele><time>2026-04-18T13:06:53Z</time></trkpt><trkpt lat="43.59054031833377" lon="12.231386455443575"><ele>947.0</ele><time>2026-04-18T13:06:54Z</time></trkpt><trkpt lat="43.59045967765252" lon="12.231477869168685"><ele>949.0</ele><time>2026-04-18T13:06:55Z</time></trkpt><trkpt lat="43.590396520062484" lon="12.231583651512253"><ele>951.0</ele><time>2026-04-18T13:06:56Z</time></trkpt><trkpt lat="43.590358570469846" lon="12.231690885919043"><ele>953.0</ele><time>2026-04-18T13:06:57Z</time></trkpt><trkpt lat="43.59036140084201" lon="12.231798870079853"><ele>955.0</ele><time>2026-04-18T13:06:58Z</time></trkpt><trkpt lat="43.590406054313185" lon="12.231882224432729"><ele>957.0</ele><time>2026-04-18T13:06:59Z</time></trkpt><trkpt lat="43.5904923913555" lon="12.231901280760788"><ele>957.0</ele><time>2026-04-18T13:07:00Z</time></trkpt><trkpt lat="43.59058955011908" lon="12.231858292616726"><ele>957.0</ele><time>2026-04-18T13:07:01Z</time></trkpt><trkpt lat="43.590677773955136" lon="12.23175400758109"><ele>957.0</ele><time>2026-04-18T13:07:02Z</time></trkpt><trkpt lat="43.59076457686568" lon="12.231602103673284"><ele>957.0</ele><time>2026-04-18T13:07:03Z</time></trkpt><trkpt lat="43.590864650624866" lon="12.231429435969302"><ele>953.0</ele><time>2026-04-18T13:07:04Z</time></trkpt><trkpt lat="43.59097382370046" lon="12.231235974934297"><ele>949.0</ele><time>2026-04-18T13:07:05Z</time></trkpt><trkpt lat="43.591071232970435" lon="12.231044759104439"><ele>945.0</ele><time>2026-04-18T13:07:06Z</time></trkpt><trkpt lat="43.59116565331174" lon="12.23085094588029"><ele>954.0</ele><time>2026-04-18T13:07:07Z</time></trkpt><trkpt lat="43.5912571194489" lon="12.230660126395499"><ele>963.0</ele><time>2026-04-18T13:07:08Z</time></trkpt><trkpt lat="43.59134899392044" lon="12.230487783786781"><ele>972.0</ele><time>2026-04-18T13:07:09Z</time></trkpt><trkpt lat="43.59144385846162" lon="12.230342863660928"><ele>972.0</ele><time>2026-04-18T13:07:10Z</time></trkpt><trkpt lat="43.59150467784455" lon="12.23020173332626"><ele>972.0</ele><time>2026-04-18T13:07:11Z</time></trkpt><trkpt lat="43.5915361573675" lon="12.230041753015641"><ele>972.0</ele><time>2026-04-18T13:07:12Z</time></trkpt><trkpt lat="43.591483243296246" lon="12.229869003015551"><ele>972.0</ele><time>2026-04-18T13:07:13Z</time></trkpt><trkpt lat="43.591440567942904" lon="12.229670423070003"><ele>973.75</ele><time>2026-04-18T13:07:14Z</time></trkpt><trkpt lat="43.591446164106756" lon="12.22947052779234"><ele>975.5</ele><time>2026-04-18T13:07:15Z</time></trkpt><trkpt lat="43.59146961067723" lon="12.22926692252517"><ele>977.25</ele><time>2026-04-18T13:07:16Z</time></trkpt><trkpt lat="43.59148001326376" lon="12.229063064602466"><ele>979.0</ele><time>2026-04-18T13:07:17Z</time></trkpt><trkpt lat="43.591442624875036" lon="12.228868256021878"><ele>982.0</ele><time>2026-04-18T13:07:18Z</time></trkpt><trkpt lat="43.59138288803691" lon="12.228701286273301"><ele>985.0</ele><time>2026-04-18T13:07:19Z</time></trkpt><trkpt lat="43.591301182633245" lon="12.228550722778168"><ele>988.0</ele><time>2026-04-18T13:07:20Z</time></trkpt><trkpt lat="43.59121949238685" lon="12.228410761057031"><ele>991.0</ele><time>2026-04-18T13:07:21Z</time></trkpt><trkpt lat="43.59114614262771" lon="12.22828059837253"><ele>990.5999999999999</ele><time>2026-04-18T13:07:22Z</time></trkpt><trkpt lat="43.591108518508456" lon="12.228152748599443"><ele>990.1999999999999</ele><time>2026-04-18T13:07:23Z</time></trkpt><trkpt lat="43.59107310330108" lon="12.228050945988812"><ele>989.8000000000001</ele><time>2026-04-18T13:07:24Z</time></trkpt><trkpt lat="43.59110485919363" lon="12.227904041790053"><ele>989.4000000000001</ele><time>2026-04-18T13:07:26Z</time></trkpt><trkpt lat="43.59118526134625" lon="12.22789711834259"><ele>989.0</ele><time>2026-04-18T13:07:27Z</time></trkpt><trkpt lat="43.59126738758401" lon="12.227954975832178"><ele>989.5</ele><time>2026-04-18T13:07:28Z</time></trkpt><trkpt lat="43.591320914684964" lon="12.22809763100857"><ele>990.0</ele><time>2026-04-18T13:07:29Z</time></trkpt><trkpt lat="43.591424653913805" lon="12.228234187832182"><ele>990.5</ele><time>2026-04-18T13:07:30Z</time></trkpt><trkpt lat="43.59151191170765" lon="12.228406136192852"><ele>991.0</ele><time>2026-04-18T13:07:31Z</time></trkpt><trkpt lat="43.59161203722006" lon="12.228533435602866"><ele>991.0</ele><time>2026-04-18T13:07:32Z</time></trkpt><trkpt lat="43.59169669970245" lon="12.228698446621893"><ele>991.0</ele><time>2026-04-18T13:07:33Z</time></trkpt><trkpt lat="43.59174681605699" lon="12.228883082203652"><ele>991.0</ele><time>2026-04-18T13:07:33.999Z</time></trkpt><trkpt lat="43.59176891766845" lon="12.229085382230428"><ele>991.0</ele><time>2026-04-18T13:07:34.999Z</time></trkpt><trkpt lat="43.591775573769226" lon="12.2292932232241"><ele>988.0</ele><time>2026-04-18T13:07:35.999Z</time></trkpt><trkpt lat="43.591801259865186" lon="12.229490934361744"><ele>985.0</ele><time>2026-04-18T13:07:36.999Z</time></trkpt><trkpt lat="43.59186290469479" lon="12.22967609916332"><ele>982.0</ele><time>2026-04-18T13:07:37.999Z</time></trkpt><trkpt lat="43.59193902463973" lon="12.229858062282787"><ele>979.0</ele><time>2026-04-18T13:07:38.999Z</time></trkpt><trkpt lat="43.59199470042717" lon="12.230051122832643"><ele>978.3333333333333</ele><time>2026-04-18T13:07:39.999Z</time></trkpt><trkpt lat="43.59199293492761" lon="12.230267840097781"><ele>977.6666666666667</ele><time>2026-04-18T13:07:40.999Z</time></trkpt><trkpt lat="43.591998724676984" lon="12.230491383316059"><ele>977.0</ele><time>2026-04-18T13:07:41.999Z</time></trkpt><trkpt lat="43.59197450909637" lon="12.23070290682453"><ele>977.0</ele><time>2026-04-18T13:07:42.999Z</time></trkpt><trkpt lat="43.59192741247507" lon="12.230884718529833"><ele>977.0</ele><time>2026-04-18T13:07:43.999Z</time></trkpt><trkpt lat="43.59184858008756" lon="12.231036161300478"><ele>977.0</ele><time>2026-04-18T13:07:44.999Z</time></trkpt><trkpt lat="43.59172063892443" lon="12.23114339132226"><ele>977.0</ele><time>2026-04-18T13:07:45.999Z</time></trkpt><trkpt lat="43.59162538349694" lon="12.231302209458294"><ele>977.0</ele><time>2026-04-18T13:07:46.999Z</time></trkpt><trkpt lat="43.59154206621017" lon="12.231453930774482"><ele>977.0</ele><time>2026-04-18T13:07:47.999Z</time></trkpt><trkpt lat="43.59148153151316" lon="12.23161595796596"><ele>977.0</ele><time>2026-04-18T13:07:48.999Z</time></trkpt><trkpt lat="43.59144523850536" lon="12.231792873191079"><ele>977.0</ele><time>2026-04-18T13:07:49.999Z</time></trkpt><trkpt lat="43.59143269749207" lon="12.231984091295251"><ele>980.75</ele><time>2026-04-18T13:07:50.999Z</time></trkpt><trkpt lat="43.59143825665102" lon="12.232182301105013"><ele>984.5</ele><time>2026-04-18T13:07:51.999Z</time></trkpt><trkpt lat="43.59143890293834" lon="12.232363550348307"><ele>988.25</ele><time>2026-04-18T13:07:52.999Z</time></trkpt><trkpt lat="43.591430290102174" lon="12.232513878313343"><ele>992.0</ele><time>2026-04-18T13:07:53.999Z</time></trkpt><trkpt lat="43.59142496323777" lon="12.232640618914074"><ele>993.5000000000001</ele><time>2026-04-18T13:07:54.999Z</time></trkpt><trkpt lat="43.59143084472705" lon="12.232747815529406"><ele>995.0</ele><time>2026-04-18T13:07:55.999Z</time></trkpt><trkpt lat="43.591472921062376" lon="12.232824338428957"><ele>996.5</ele><time>2026-04-18T13:07:56.999Z</time></trkpt><trkpt lat="43.59152512719025" lon="12.232883778997651"><ele>998.0</ele><time>2026-04-18T13:07:57.999Z</time></trkpt><trkpt lat="43.59161747763168" lon="12.232857579714636"><ele>999.5000000000001</ele><time>2026-04-18T13:07:58.999Z</time></trkpt><trkpt lat="43.59168238022736" lon="12.232760583150672"><ele>1001.0</ele><time>2026-04-18T13:07:59.999Z</time></trkpt><trkpt lat="43.59167915260524" lon="12.232586411751468"><ele>1001.0</ele><time>2026-04-18T13:08:00.999Z</time></trkpt><trkpt lat="43.591680254083506" lon="12.232434076236165"><ele>1001.0</ele><time>2026-04-18T13:08:01.999Z</time></trkpt><trkpt lat="43.591683611805735" lon="12.232260051188142"><ele>1001.0</ele><time>2026-04-18T13:08:02.999Z</time></trkpt><trkpt lat="43.59169271704801" lon="12.232087771075092"><ele>1001.0</ele><time>2026-04-18T13:08:03.999Z</time></trkpt><trkpt lat="43.59171541298713" lon="12.23192224362131"><ele>998.75</ele><time>2026-04-18T13:08:04.999Z</time></trkpt><trkpt lat="43.59178773319082" lon="12.231796683194137"><ele>996.5</ele><time>2026-04-18T13:08:06Z</time></trkpt><trkpt lat="43.59185842222504" lon="12.231657370299065"><ele>994.25</ele><time>2026-04-18T13:08:07Z</time></trkpt><trkpt lat="43.591910040750804" lon="12.23150596517869"><ele>992.0</ele><time>2026-04-18T13:08:08Z</time></trkpt><trkpt lat="43.591999094611054" lon="12.231392055132954"><ele>998.75</ele><time>2026-04-18T13:08:09Z</time></trkpt><trkpt lat="43.5920988995397" lon="12.231341776991403"><ele>1005.5</ele><time>2026-04-18T13:08:10Z</time></trkpt><trkpt lat="43.59220084417204" lon="12.231238967915461"><ele>1012.25</ele><time>2026-04-18T13:08:11Z</time></trkpt><trkpt lat="43.59228498239298" lon="12.231080289646236"><ele>1019.0</ele><time>2026-04-18T13:08:12Z</time></trkpt><trkpt lat="43.59231178546962" lon="12.230885298924706"><ele>1019.0</ele><time>2026-04-18T13:08:13Z</time></trkpt><trkpt lat="43.59234298812035" lon="12.230725950236252"><ele>1019.0000000000001</ele><time>2026-04-18T13:08:14Z</time></trkpt><trkpt lat="43.59238318275443" lon="12.230603030519442"><ele>1019.0000000000001</ele><time>2026-04-18T13:08:15Z</time></trkpt><trkpt lat="43.592408440179646" lon="12.230508945754107"><ele>1019.0</ele><time>2026-04-18T13:08:16Z</time></trkpt><trkpt lat="43.59249119543006" lon="12.230403840199745"><ele>1019.0</ele><time>2026-04-18T13:08:18Z</time></trkpt><trkpt lat="43.59255997761938" lon="12.230465281937978"><ele>1019.0</ele><time>2026-04-18T13:08:19Z</time></trkpt><trkpt lat="43.5925832514049" lon="12.230577709056359"><ele>1019.0000000000001</ele><time>2026-04-18T13:08:20Z</time></trkpt><trkpt lat="43.59256088393435" lon="12.230709668656543"><ele>1019.0000000000001</ele><time>2026-04-18T13:08:21Z</time></trkpt><trkpt lat="43.59253086653687" lon="12.23086000839794"><ele>1019.0</ele><time>2026-04-18T13:08:22Z</time></trkpt><trkpt lat="43.59248934626311" lon="12.231030431949208"><ele>1019.0</ele><time>2026-04-18T13:08:23Z</time></trkpt><trkpt lat="43.59244184020188" lon="12.231199881253987"><ele>1019.0</ele><time>2026-04-18T13:08:24Z</time></trkpt><trkpt lat="43.592364484323745" lon="12.231358876125077"><ele>1019.0</ele><time>2026-04-18T13:08:25Z</time></trkpt><trkpt lat="43.592264882350825" lon="12.231516667230546"><ele>1019.0</ele><time>2026-04-18T13:08:26Z</time></trkpt><trkpt lat="43.592183510676" lon="12.231676179056272"><ele>1019.0</ele><time>2026-04-18T13:08:27Z</time></trkpt><trkpt lat="43.592137866507564" lon="12.231865672434814"><ele>1024.0</ele><time>2026-04-18T13:08:28Z</time></trkpt><trkpt lat="43.59212334200717" lon="12.232080841612065"><ele>1029.0</ele><time>2026-04-18T13:08:29Z</time></trkpt><trkpt lat="43.59211318170608" lon="12.232290427339416"><ele>1034.0</ele><time>2026-04-18T13:08:30Z</time></trkpt><trkpt lat="43.592120463393655" lon="12.232486161319796"><ele>1036.0</ele><time>2026-04-18T13:08:31Z</time></trkpt><trkpt lat="43.59215769753496" lon="12.232670772306543"><ele>1038.0</ele><time>2026-04-18T13:08:32Z</time></trkpt><trkpt lat="43.59221283715019" lon="12.23284274117466"><ele>1040.0</ele><time>2026-04-18T13:08:33Z</time></trkpt><trkpt lat="43.59224869936411" lon="12.233027455323176"><ele>1042.0</ele><time>2026-04-18T13:08:34Z</time></trkpt><trkpt lat="43.59226213399486" lon="12.233214485233924"><ele>1042.0</ele><time>2026-04-18T13:08:35Z</time></trkpt><trkpt lat="43.59230046365189" lon="12.233379847677524"><ele>1042.0</ele><time>2026-04-18T13:08:36Z</time></trkpt><trkpt lat="43.59237024136007" lon="12.233529503837921"><ele>1042.0</ele><time>2026-04-18T13:08:37Z</time></trkpt><trkpt lat="43.592461645590994" lon="12.233671886823311"><ele>1042.0</ele><time>2026-04-18T13:08:38Z</time></trkpt><trkpt lat="43.5925596687302" lon="12.2338351601355"><ele>1042.0</ele><time>2026-04-18T13:08:39Z</time></trkpt><trkpt lat="43.592666021141845" lon="12.233950918188402"><ele>1042.0</ele><time>2026-04-18T13:08:40Z</time></trkpt><trkpt lat="43.59278867107979" lon="12.234045994789899"><ele>1042.0</ele><time>2026-04-18T13:08:41Z</time></trkpt><trkpt lat="43.59292368273741" lon="12.2341062522799"><ele>1042.0</ele><time>2026-04-18T13:08:42Z</time></trkpt><trkpt lat="43.59306020919762" lon="12.234163640271252"><ele>1047.0</ele><time>2026-04-18T13:08:43Z</time></trkpt><trkpt lat="43.593176404667744" lon="12.234290040049626"><ele>1052.0</ele><time>2026-04-18T13:08:44Z</time></trkpt><trkpt lat="43.593277830339986" lon="12.234451827539887"><ele>1057.0</ele><time>2026-04-18T13:08:45Z</time></trkpt><trkpt lat="43.59337170220143" lon="12.234615070057925"><ele>1057.0</ele><time>2026-04-18T13:08:46Z</time></trkpt><trkpt lat="43.593479174199246" lon="12.234762066550179"><ele>1057.0</ele><time>2026-04-18T13:08:47Z</time></trkpt><trkpt lat="43.5936049596374" lon="12.234894911584373"><ele>1057.0</ele><time>2026-04-18T13:08:48Z</time></trkpt><trkpt lat="43.59374257885432" lon="12.235019685944575"><ele>1056.3333333333333</ele><time>2026-04-18T13:08:49Z</time></trkpt><trkpt lat="43.5938819902277" lon="12.235135428161279"><ele>1055.6666666666667</ele><time>2026-04-18T13:08:50Z</time></trkpt><trkpt lat="43.59402229740317" lon="12.23524798179568"><ele>1055.0</ele><time>2026-04-18T13:08:51Z</time></trkpt><trkpt lat="43.594164872613646" lon="12.23533905506271"><ele>1055.0</ele><time>2026-04-18T13:08:52Z</time></trkpt><trkpt lat="43.59431443764129" lon="12.23540054406722"><ele>1055.0</ele><time>2026-04-18T13:08:53Z</time></trkpt><trkpt lat="43.59446117375525" lon="12.235441679742749"><ele>1055.0</ele><time>2026-04-18T13:08:54Z</time></trkpt><trkpt lat="43.594605068504656" lon="12.235463623207574"><ele>1054.75</ele><time>2026-04-18T13:08:55Z</time></trkpt><trkpt lat="43.59474066951016" lon="12.23551296951428"><ele>1054.5</ele><time>2026-04-18T13:08:56Z</time></trkpt><trkpt lat="43.594877469407585" lon="12.235544120417329"><ele>1054.25</ele><time>2026-04-18T13:08:57Z</time></trkpt><trkpt lat="43.59500828393391" lon="12.235574039743023"><ele>1054.0</ele><time>2026-04-18T13:08:58Z</time></trkpt><trkpt lat="43.595130112403794" lon="12.235574381180475"><ele>1054.0</ele><time>2026-04-18T13:08:59Z</time></trkpt><trkpt lat="43.595240351251675" lon="12.235584966030634"><ele>1054.0</ele><time>2026-04-18T13:09:00Z</time></trkpt><trkpt lat="43.59535089185465" lon="12.235610532722967"><ele>1054.0</ele><time>2026-04-18T13:09:01Z</time></trkpt><trkpt lat="43.595470712856574" lon="12.235615903477251"><ele>1054.0</ele><time>2026-04-18T13:09:02Z</time></trkpt><trkpt lat="43.595601794135526" lon="12.235621331380852"><ele>1051.0</ele><time>2026-04-18T13:09:03Z</time></trkpt><trkpt lat="43.59574017771881" lon="12.235623590421758"><ele>1048.0</ele><time>2026-04-18T13:09:04Z</time></trkpt><trkpt lat="43.59587714279976" lon="12.23561573797163"><ele>1045.0</ele><time>2026-04-18T13:09:05Z</time></trkpt><trkpt lat="43.59601092691378" lon="12.235565451077147"><ele>1042.0</ele><time>2026-04-18T13:09:06Z</time></trkpt><trkpt lat="43.596140136991714" lon="12.235521510244887"><ele>1038.25</ele><time>2026-04-18T13:09:07Z</time></trkpt><trkpt lat="43.59626512414087" lon="12.235485173694112"><ele>1034.5</ele><time>2026-04-18T13:09:08Z</time></trkpt><trkpt lat="43.596383491210034" lon="12.235465571237693"><ele>1030.75</ele><time>2026-04-18T13:09:09Z</time></trkpt><trkpt lat="43.59649095559631" lon="12.235475680684857"><ele>1027.0</ele><time>2026-04-18T13:09:10Z</time></trkpt><trkpt lat="43.59658385312835" lon="12.235554225377872"><ele>1030.5</ele><time>2026-04-18T13:09:11Z</time></trkpt><trkpt lat="43.59666430164685" lon="12.235675450458109"><ele>1034.0</ele><time>2026-04-18T13:09:12Z</time></trkpt><trkpt lat="43.59672414092038" lon="12.235828884418584"><ele>1037.5</ele><time>2026-04-18T13:09:13Z</time></trkpt><trkpt lat="43.596713667843964" lon="12.23599393338482"><ele>1041.0</ele><time>2026-04-18T13:09:14Z</time></trkpt><trkpt lat="43.59668199524035" lon="12.236132617471034"><ele>1041.0</ele><time>2026-04-18T13:09:15Z</time></trkpt><trkpt lat="43.59666842512751" lon="12.236268142757732"><ele>1041.0</ele><time>2026-04-18T13:09:16Z</time></trkpt><trkpt lat="43.596661991078086" lon="12.236387841896759"><ele>1041.0</ele><time>2026-04-18T13:09:17Z</time></trkpt><trkpt lat="43.596682898136336" lon="12.236489615977115"><ele>1041.0</ele><time>2026-04-18T13:09:18Z</time></trkpt><trkpt lat="43.596754725349314" lon="12.23654645031062"><ele>1041.0</ele><time>2026-04-18T13:09:19Z</time></trkpt><trkpt lat="43.59683405465808" lon="12.236575901944274"><ele>1041.0</ele><time>2026-04-18T13:09:20Z</time></trkpt><trkpt lat="43.59694865333306" lon="12.236577008072024"><ele>1038.75</ele><time>2026-04-18T13:09:21Z</time></trkpt><trkpt lat="43.5970738735604" lon="12.236564006625368"><ele>1036.5</ele><time>2026-04-18T13:09:22Z</time></trkpt><trkpt lat="43.5972061268322" lon="12.236569874567776"><ele>1034.25</ele><time>2026-04-18T13:09:23Z</time></trkpt><trkpt lat="43.59733288401605" lon="12.236552579156436"><ele>1032.0</ele><time>2026-04-18T13:09:24Z</time></trkpt><trkpt lat="43.59744444429105" lon="12.2365382680573"><ele>1032.0</ele><time>2026-04-18T13:09:25Z</time></trkpt><trkpt lat="43.59754303717219" lon="12.23653993807091"><ele>1032.0</ele><time>2026-04-18T13:09:26Z</time></trkpt><trkpt lat="43.597630873191136" lon="12.236576171386384"><ele>1032.0</ele><time>2026-04-18T13:09:27Z</time></trkpt><trkpt lat="43.59770149523176" lon="12.23667684306794"><ele>1032.0</ele><time>2026-04-18T13:09:28Z</time></trkpt><trkpt lat="43.59772737236465" lon="12.2368179443986"><ele>1032.0</ele><time>2026-04-18T13:09:29Z</time></trkpt><trkpt lat="43.59772272980749" lon="12.236979661625234"><ele>1032.0</ele><time>2026-04-18T13:09:30Z</time></trkpt><trkpt lat="43.59774540586496" lon="12.237146613238851"><ele>1032.0</ele><time>2026-04-18T13:09:31Z</time></trkpt><trkpt lat="43.59775251007376" lon="12.237302967330535"><ele>1032.0</ele><time>2026-04-18T13:09:32Z</time></trkpt><trkpt lat="43.597781515854216" lon="12.237439493512095"><ele>1032.0</ele><time>2026-04-18T13:09:33Z</time></trkpt><trkpt lat="43.59784134894052" lon="12.237546335542344"><ele>1032.0</ele><time>2026-04-18T13:09:34Z</time></trkpt><trkpt lat="43.59793260261824" lon="12.237628085183175"><ele>1026.0</ele><time>2026-04-18T13:09:35Z</time></trkpt><trkpt lat="43.598040714699174" lon="12.237689266447843"><ele>1020.0</ele><time>2026-04-18T13:09:36Z</time></trkpt><trkpt lat="43.598124337398595" lon="12.237810557140502"><ele>1014.0</ele><time>2026-04-18T13:09:37Z</time></trkpt><trkpt lat="43.598186800053426" lon="12.237947930302825"><ele>1008.0</ele><time>2026-04-18T13:09:38Z</time></trkpt><trkpt lat="43.5982418260799" lon="12.238126269471623"><ele>1011.0</ele><time>2026-04-18T13:09:39Z</time></trkpt><trkpt lat="43.59825938463292" lon="12.238319345317736"><ele>1014.0</ele><time>2026-04-18T13:09:40Z</time></trkpt><trkpt lat="43.598270719523406" lon="12.23853839841377"><ele>1017.0</ele><time>2026-04-18T13:09:41Z</time></trkpt><trkpt lat="43.59828280447532" lon="12.238742598526409"><ele>1020.0</ele><time>2026-04-18T13:09:42Z</time></trkpt><trkpt lat="43.59829239428267" lon="12.23892337434425"><ele>1020.3333333333334</ele><time>2026-04-18T13:09:43Z</time></trkpt><trkpt lat="43.598303511377026" lon="12.239077614945044"><ele>1020.6666666666667</ele><time>2026-04-18T13:09:44Z</time></trkpt><trkpt lat="43.59831696650214" lon="12.239202918894375"><ele>1021.0</ele><time>2026-04-18T13:09:45Z</time></trkpt><trkpt lat="43.5983388046319" lon="12.239300891986552"><ele>1021.3333333333334</ele><time>2026-04-18T13:09:46Z</time></trkpt><trkpt lat="43.598379536753036" lon="12.23937931113873"><ele>1021.6666666666667</ele><time>2026-04-18T13:09:47Z</time></trkpt><trkpt lat="43.59844780868867" lon="12.239425233127966"><ele>1022.0</ele><time>2026-04-18T13:09:48Z</time></trkpt><trkpt lat="43.59853872822222" lon="12.239420263892429"><ele>1022.0</ele><time>2026-04-18T13:09:49Z</time></trkpt><trkpt lat="43.59863412511164" lon="12.239394696984622"><ele>1022.0</ele><time>2026-04-18T13:09:50Z</time></trkpt><trkpt lat="43.59873476977181" lon="12.239325838018527"><ele>1022.0</ele><time>2026-04-18T13:09:51Z</time></trkpt><trkpt lat="43.59883066737523" lon="12.23921186448738"><ele>1022.0</ele><time>2026-04-18T13:09:52Z</time></trkpt><trkpt lat="43.59891241530546" lon="12.23907119722464"><ele>1020.75</ele><time>2026-04-18T13:09:53Z</time></trkpt><trkpt lat="43.59898809224879" lon="12.238909938054233"><ele>1019.5</ele><time>2026-04-18T13:09:54Z</time></trkpt><trkpt lat="43.59905683014603" lon="12.238732629368394"><ele>1018.25</ele><time>2026-04-18T13:09:55Z</time></trkpt><trkpt lat="43.599114009630014" lon="12.238548567163267"><ele>1017.0</ele><time>2026-04-18T13:09:56Z</time></trkpt><trkpt lat="43.59914939705556" lon="12.238357810827791"><ele>1017.0</ele><time>2026-04-18T13:09:57Z</time></trkpt><trkpt lat="43.599176660025066" lon="12.238164510077583"><ele>1017.0</ele><time>2026-04-18T13:09:58Z</time></trkpt><trkpt lat="43.599198038354885" lon="12.237970240162632"><ele>1017.0</ele><time>2026-04-18T13:09:59Z</time></trkpt><trkpt lat="43.599231335203434" lon="12.237781526484365"><ele>1017.0</ele><time>2026-04-18T13:10:00Z</time></trkpt><trkpt lat="43.59928061436773" lon="12.237603837111159"><ele>1013.75</ele><time>2026-04-18T13:10:01Z</time></trkpt><trkpt lat="43.59934073304543" lon="12.237435964012853"><ele>1010.5</ele><time>2026-04-18T13:10:02Z</time></trkpt><trkpt lat="43.59941518068044" lon="12.237275352318623"><ele>1007.25</ele><time>2026-04-18T13:10:03Z</time></trkpt><trkpt lat="43.59952028402165" lon="12.237134402131435"><ele>1004.0</ele><time>2026-04-18T13:10:04Z</time></trkpt><trkpt lat="43.59963050054438" lon="12.236990584379956"><ele>1003.25</ele><time>2026-04-18T13:10:05Z</time></trkpt><trkpt lat="43.59971792525724" lon="12.236853091637142"><ele>1002.5</ele><time>2026-04-18T13:10:06Z</time></trkpt><trkpt lat="43.59981747791772" lon="12.236754864059922"><ele>1001.75</ele><time>2026-04-18T13:10:07Z</time></trkpt><trkpt lat="43.5998934097906" lon="12.236629311868272"><ele>1001.0</ele><time>2026-04-18T13:10:08Z</time></trkpt><trkpt lat="43.599977145611035" lon="12.236538783314499"><ele>999.8</ele><time>2026-04-18T13:10:09Z</time></trkpt><trkpt lat="43.600048350862956" lon="12.236446839318539"><ele>998.5999999999999</ele><time>2026-04-18T13:10:10Z</time></trkpt><trkpt lat="43.60009413697681" lon="12.236348731068118"><ele>997.4</ele><time>2026-04-18T13:10:11Z</time></trkpt><trkpt lat="43.60011689250778" lon="12.23623169920239"><ele>996.2</ele><time>2026-04-18T13:10:12.001Z</time></trkpt><trkpt lat="43.600117141248326" lon="12.236100275465459"><ele>995.0</ele><time>2026-04-18T13:10:13.001Z</time></trkpt><trkpt lat="43.60007939480338" lon="12.23596772661936"><ele>995.0</ele><time>2026-04-18T13:10:14.001Z</time></trkpt><trkpt lat="43.60002665000531" lon="12.235848593907487"><ele>995.0</ele><time>2026-04-18T13:10:15.001Z</time></trkpt><trkpt lat="43.59996969216622" lon="12.23573422323234"><ele>995.0</ele><time>2026-04-18T13:10:16.001Z</time></trkpt><trkpt lat="43.599942072514914" lon="12.235607261458274"><ele>995.0</ele><time>2026-04-18T13:10:17.001Z</time></trkpt><trkpt lat="43.59988714682887" lon="12.235498301086121"><ele>995.0</ele><time>2026-04-18T13:10:18.001Z</time></trkpt><trkpt lat="43.59985644680541" lon="12.235381138334027"><ele>993.3333333333334</ele><time>2026-04-18T13:10:19.001Z</time></trkpt><trkpt lat="43.59984974679633" lon="12.235265683183218"><ele>991.6666666666667</ele><time>2026-04-18T13:10:20.001Z</time></trkpt><trkpt lat="43.59987840290924" lon="12.235159375324065"><ele>990.0</ele><time>2026-04-18T13:10:21.001Z</time></trkpt><trkpt lat="43.599948756752106" lon="12.23508440764836"><ele>988.3333333333333</ele><time>2026-04-18T13:10:22.001Z</time></trkpt><trkpt lat="43.60004093642188" lon="12.235057973733769"><ele>986.6666666666666</ele><time>2026-04-18T13:10:23.001Z</time></trkpt><trkpt lat="43.600133888560244" lon="12.235105236429769"><ele>985.0</ele><time>2026-04-18T13:10:24.001Z</time></trkpt><trkpt lat="43.60022459194979" lon="12.235144889689622"><ele>984.9999999999999</ele><time>2026-04-18T13:10:25.001Z</time></trkpt><trkpt lat="43.60031253420358" lon="12.235161923835998"><ele>985.0</ele><time>2026-04-18T13:10:26.001Z</time></trkpt><trkpt lat="43.60038563954972" lon="12.235202932503631"><ele>985.0</ele><time>2026-04-18T13:10:27.001Z</time></trkpt><trkpt lat="43.6004582438826" lon="12.235227674037116"><ele>985.0</ele><time>2026-04-18T13:10:28.001Z</time></trkpt><trkpt lat="43.60052619878776" lon="12.235214552253796"><ele>984.9999999999999</ele><time>2026-04-18T13:10:29.001Z</time></trkpt><trkpt lat="43.60058727349175" lon="12.235183317484156"><ele>985.0</ele><time>2026-04-18T13:10:30.001Z</time></trkpt><trkpt lat="43.600617607443446" lon="12.235075379091333"><ele>985.0</ele><time>2026-04-18T13:10:31.001Z</time></trkpt><trkpt lat="43.60060157354634" lon="12.234956837907243"><ele>985.0</ele><time>2026-04-18T13:10:32.001Z</time></trkpt><trkpt lat="43.60054198873375" lon="12.234871604744963"><ele>985.0</ele><time>2026-04-18T13:10:33.001Z</time></trkpt><trkpt lat="43.60043596171865" lon="12.234843126822947"><ele>985.0</ele><time>2026-04-18T13:10:34.001Z</time></trkpt><trkpt lat="43.6003319183494" lon="12.23481289483521"><ele>985.0</ele><time>2026-04-18T13:10:35.001Z</time></trkpt><trkpt lat="43.600225935482925" lon="12.234775343437256"><ele>985.0</ele><time>2026-04-18T13:10:36.001Z</time></trkpt><trkpt lat="43.60012992024573" lon="12.234732172717877"><ele>985.0</ele><time>2026-04-18T13:10:37.001Z</time></trkpt><trkpt lat="43.600036607222776" lon="12.234706510178752"><ele>985.0</ele><time>2026-04-18T13:10:38.001Z</time></trkpt><trkpt lat="43.59993620119459" lon="12.234716865581825"><ele>985.0</ele><time>2026-04-18T13:10:39.001Z</time></trkpt><trkpt lat="43.59982942968512" lon="12.234764210364414"><ele>985.0</ele><time>2026-04-18T13:10:40.001Z</time></trkpt><trkpt lat="43.59972591514585" lon="12.234838194842467"><ele>985.0</ele><time>2026-04-18T13:10:41.001Z</time></trkpt><trkpt lat="43.59962891842536" lon="12.234923102120044"><ele>985.0</ele><time>2026-04-18T13:10:42.001Z</time></trkpt><trkpt lat="43.59954837966066" lon="12.235021460156153"><ele>985.0</ele><time>2026-04-18T13:10:43.001Z</time></trkpt><trkpt lat="43.59948599425625" lon="12.23514830679908"><ele>985.0</ele><time>2026-04-18T13:10:44Z</time></trkpt><trkpt lat="43.59944526467538" lon="12.235293450108603"><ele>985.0</ele><time>2026-04-18T13:10:45Z</time></trkpt><trkpt lat="43.59941761949233" lon="12.235443302648928"><ele>982.75</ele><time>2026-04-18T13:10:46Z</time></trkpt><trkpt lat="43.59937640910224" lon="12.235602230693253"><ele>980.5</ele><time>2026-04-18T13:10:47Z</time></trkpt><trkpt lat="43.599307149484034" lon="12.235748333068159"><ele>978.25</ele><time>2026-04-18T13:10:48Z</time></trkpt><trkpt lat="43.59923059939919" lon="12.235874327678872"><ele>976.0</ele><time>2026-04-18T13:10:49Z</time></trkpt><trkpt lat="43.59915705447478" lon="12.235974651015997"><ele>975.9999999999999</ele><time>2026-04-18T13:10:50Z</time></trkpt><trkpt lat="43.59910253497044" lon="12.236072728125757"><ele>976.0</ele><time>2026-04-18T13:10:51Z</time></trkpt><trkpt lat="43.599052095920115" lon="12.236153267528042"><ele>975.9999999999999</ele><time>2026-04-18T13:10:52Z</time></trkpt><trkpt lat="43.598995711672835" lon="12.236207321955538"><ele>975.9999999999999</ele><time>2026-04-18T13:10:53Z</time></trkpt><trkpt lat="43.598930013079105" lon="12.236225629332095"><ele>976.0</ele><time>2026-04-18T13:10:54Z</time></trkpt><trkpt lat="43.59886969976753" lon="12.23619951573637"><ele>975.9999999999999</ele><time>2026-04-18T13:10:55Z</time></trkpt><trkpt lat="43.59882672116683" lon="12.236115335090899"><ele>975.9999999999999</ele><time>2026-04-18T13:10:56Z</time></trkpt><trkpt lat="43.598819988493226" lon="12.23600487141592"><ele>976.0</ele><time>2026-04-18T13:10:57Z</time></trkpt><trkpt lat="43.59888119623366" lon="12.235922508446691"><ele>975.9999999999999</ele><time>2026-04-18T13:10:58Z</time></trkpt><trkpt lat="43.59894065477558" lon="12.235804224874414"><ele>975.9999999999999</ele><time>2026-04-18T13:10:59Z</time></trkpt><trkpt lat="43.599028750817645" lon="12.235694541755361"><ele>976.0</ele><time>2026-04-18T13:11:00Z</time></trkpt><trkpt lat="43.59912739306884" lon="12.235584011536652"><ele>976.0</ele><time>2026-04-18T13:11:01Z</time></trkpt><trkpt lat="43.59922916419534" lon="12.235453774688677"><ele>973.6666666666666</ele><time>2026-04-18T13:11:02Z</time></trkpt><trkpt lat="43.59933610209749" lon="12.235303218862377"><ele>971.3333333333333</ele><time>2026-04-18T13:11:03Z</time></trkpt><trkpt lat="43.599326018371826" lon="12.235018784248439"><ele>969.0</ele><time>2026-04-18T13:11:04Z</time></trkpt><trkpt lat="43.599387949500894" lon="12.234822151396543"><ele>967.75</ele><time>2026-04-18T13:11:05Z</time></trkpt><trkpt lat="43.59943786204638" lon="12.234632043418545"><ele>966.5</ele><time>2026-04-18T13:11:06Z</time></trkpt><trkpt lat="43.59948570179465" lon="12.234475266334792"><ele>965.25</ele><time>2026-04-18T13:11:07Z</time></trkpt><trkpt lat="43.59954256213103" lon="12.23433565954158"><ele>964.0</ele><time>2026-04-18T13:11:08Z</time></trkpt><trkpt lat="43.59962014953294" lon="12.234276782026903"><ele>964.0</ele><time>2026-04-18T13:11:09Z</time></trkpt><trkpt lat="43.59970771162612" lon="12.234251870945313"><ele>964.0</ele><time>2026-04-18T13:11:10Z</time></trkpt><trkpt lat="43.5998200758739" lon="12.234252089215877"><ele>964.0</ele><time>2026-04-18T13:11:11Z</time></trkpt><trkpt lat="43.599967993067274" lon="12.234252700335478"><ele>964.0</ele><time>2026-04-18T13:11:12Z</time></trkpt><trkpt lat="43.6001222299887" lon="12.234250934209273"><ele>964.0</ele><time>2026-04-18T13:11:13Z</time></trkpt><trkpt lat="43.600277148725475" lon="12.234241052283743"><ele>964.0</ele><time>2026-04-18T13:11:14Z</time></trkpt><trkpt lat="43.60042335136884" lon="12.234195242029434"><ele>964.0</ele><time>2026-04-18T13:11:15Z</time></trkpt><trkpt lat="43.60054969158376" lon="12.234084764854677"><ele>959.6666666666666</ele><time>2026-04-18T13:11:16Z</time></trkpt><trkpt lat="43.60067773796243" lon="12.23396881403902"><ele>955.3333333333333</ele><time>2026-04-18T13:11:17Z</time></trkpt><trkpt lat="43.600801935452054" lon="12.233832562443473"><ele>951.0</ele><time>2026-04-18T13:11:18Z</time></trkpt><trkpt lat="43.600928256633004" lon="12.233695830417647"><ele>951.0</ele><time>2026-04-18T13:11:19Z</time></trkpt><trkpt lat="43.60107769822055" lon="12.233600957530262"><ele>951.0</ele><time>2026-04-18T13:11:20Z</time></trkpt><trkpt lat="43.60121553914638" lon="12.233498244315758"><ele>951.0</ele><time>2026-04-18T13:11:21Z</time></trkpt><trkpt lat="43.601334171733704" lon="12.233411375166243"><ele>952.4</ele><time>2026-04-18T13:11:22Z</time></trkpt><trkpt lat="43.60143338152029" lon="12.233317940883273"><ele>953.8</ele><time>2026-04-18T13:11:23Z</time></trkpt><trkpt lat="43.60152911647385" lon="12.233250097498418"><ele>955.1999999999999</ele><time>2026-04-18T13:11:24Z</time></trkpt><trkpt lat="43.60161292398109" lon="12.23318328819293"><ele>956.5999999999999</ele><time>2026-04-18T13:11:25Z</time></trkpt><trkpt lat="43.6016821169098" lon="12.233114974236727"><ele>958.0</ele><time>2026-04-18T13:11:26Z</time></trkpt><trkpt lat="43.60173006939239" lon="12.233027724688155"><ele>955.0</ele><time>2026-04-18T13:11:27Z</time></trkpt><trkpt lat="43.60172696878206" lon="12.232903663050667"><ele>952.0</ele><time>2026-04-18T13:11:28Z</time></trkpt><trkpt lat="43.60168861292504" lon="12.232800958339203"><ele>949.0</ele><time>2026-04-18T13:11:29Z</time></trkpt><trkpt lat="43.601609639896196" lon="12.232741199629702"><ele>946.0</ele><time>2026-04-18T13:11:30Z</time></trkpt><trkpt lat="43.60152162432062" lon="12.232740471551537"><ele>943.0</ele><time>2026-04-18T13:11:31Z</time></trkpt><trkpt lat="43.60143007533366" lon="12.232788882263295"><ele>943.0</ele><time>2026-04-18T13:11:32Z</time></trkpt><trkpt lat="43.601355437040375" lon="12.232879562048987"><ele>943.0</ele><time>2026-04-18T13:11:33Z</time></trkpt><trkpt lat="43.60128631351606" lon="12.232998140043494"><ele>943.0</ele><time>2026-04-18T13:11:34Z</time></trkpt><trkpt lat="43.601202525144174" lon="12.233108657312329"><ele>943.0</ele><time>2026-04-18T13:11:35Z</time></trkpt><trkpt lat="43.60109610791813" lon="12.233178014057748"><ele>943.0</ele><time>2026-04-18T13:11:36Z</time></trkpt><trkpt lat="43.60096731348758" lon="12.233165022590809"><ele>941.5</ele><time>2026-04-18T13:11:37Z</time></trkpt><trkpt lat="43.60083059844887" lon="12.233138568888148"><ele>940.0</ele><time>2026-04-18T13:11:38Z</time></trkpt><trkpt lat="43.6006940262068" lon="12.233109523544945"><ele>938.5</ele><time>2026-04-18T13:11:39Z</time></trkpt><trkpt lat="43.60055539319314" lon="12.233070890880335"><ele>937.0</ele><time>2026-04-18T13:11:40Z</time></trkpt><trkpt lat="43.60043765605007" lon="12.23295949116547"><ele>934.5</ele><time>2026-04-18T13:11:41Z</time></trkpt><trkpt lat="43.60032048682648" lon="12.232894999349659"><ele>932.0</ele><time>2026-04-18T13:11:42Z</time></trkpt><trkpt lat="43.60021513695394" lon="12.2328529768603"><ele>929.5</ele><time>2026-04-18T13:11:43Z</time></trkpt><trkpt lat="43.60009970606673" lon="12.232850435753091"><ele>927.0</ele><time>2026-04-18T13:11:44Z</time></trkpt><trkpt lat="43.59997701572837" lon="12.23287804454342"><ele>927.0</ele><time>2026-04-18T13:11:45Z</time></trkpt><trkpt lat="43.59985677684496" lon="12.232939352317432"><ele>927.0</ele><time>2026-04-18T13:11:46Z</time></trkpt><trkpt lat="43.5997503639801" lon="12.233024298395629"><ele>927.0</ele><time>2026-04-18T13:11:47Z</time></trkpt><trkpt lat="43.599648972656944" lon="12.233122434490626"><ele>927.0</ele><time>2026-04-18T13:11:48Z</time></trkpt><trkpt lat="43.5995531879545" lon="12.233214457981866"><ele>929.0</ele><time>2026-04-18T13:11:49Z</time></trkpt><trkpt lat="43.59945373261102" lon="12.23328751613473"><ele>931.0</ele><time>2026-04-18T13:11:50Z</time></trkpt><trkpt lat="43.59934722729718" lon="12.233329891993533"><ele>933.0</ele><time>2026-04-18T13:11:51Z</time></trkpt><trkpt lat="43.599227563789874" lon="12.233329222649013"><ele>935.0</ele><time>2026-04-18T13:11:52Z</time></trkpt><trkpt lat="43.599123049913466" lon="12.233258101117084"><ele>935.0</ele><time>2026-04-18T13:11:53Z</time></trkpt><trkpt lat="43.59903535680977" lon="12.233178509270791"><ele>935.0</ele><time>2026-04-18T13:11:54Z</time></trkpt><trkpt lat="43.59895225421149" lon="12.233069715676637"><ele>935.0</ele><time>2026-04-18T13:11:55Z</time></trkpt><trkpt lat="43.59888834465171" lon="12.232931895412806"><ele>935.0</ele><time>2026-04-18T13:11:56Z</time></trkpt><trkpt lat="43.598867073456084" lon="12.232785554574477"><ele>935.0</ele><time>2026-04-18T13:11:57Z</time></trkpt><trkpt lat="43.598859571027916" lon="12.232635548891567"><ele>931.75</ele><time>2026-04-18T13:11:58Z</time></trkpt><trkpt lat="43.59889476418834" lon="12.232471727255927"><ele>928.5</ele><time>2026-04-18T13:11:59Z</time></trkpt><trkpt lat="43.598937309274355" lon="12.23229543373346"><ele>925.25</ele><time>2026-04-18T13:12:00Z</time></trkpt><trkpt lat="43.59896830891036" lon="12.232111447730807"><ele>922.0</ele><time>2026-04-18T13:12:01Z</time></trkpt><trkpt lat="43.59900062571771" lon="12.231939168872653"><ele>921.0</ele><time>2026-04-18T13:12:02Z</time></trkpt><trkpt lat="43.599031788574564" lon="12.231768643481836"><ele>920.0</ele><time>2026-04-18T13:12:03Z</time></trkpt><trkpt lat="43.599012137006184" lon="12.231592266355369"><ele>919.0</ele><time>2026-04-18T13:12:04Z</time></trkpt><trkpt lat="43.59900025465379" lon="12.231419494557032"><ele>918.0</ele><time>2026-04-18T13:12:05Z</time></trkpt><trkpt lat="43.598998901444354" lon="12.231242635150776"><ele>917.2</ele><time>2026-04-18T13:12:06Z</time></trkpt><trkpt lat="43.5990184333068" lon="12.231096369949999"><ele>916.4</ele><time>2026-04-18T13:12:07Z</time></trkpt><trkpt lat="43.599051879169764" lon="12.230973994343936"><ele>915.6000000000001</ele><time>2026-04-18T13:12:08Z</time></trkpt><trkpt lat="43.59906221503294" lon="12.2308620696571"><ele>914.8000000000001</ele><time>2026-04-18T13:12:09Z</time></trkpt><trkpt lat="43.59903323558153" lon="12.230756460154337"><ele>914.0</ele><time>2026-04-18T13:12:10Z</time></trkpt><trkpt lat="43.59895903115289" lon="12.230664685244284"><ele>911.25</ele><time>2026-04-18T13:12:11Z</time></trkpt><trkpt lat="43.59885133184564" lon="12.230596577105599"><ele>908.5</ele><time>2026-04-18T13:12:12Z</time></trkpt><trkpt lat="43.598729706591115" lon="12.230531282717939"><ele>905.75</ele><time>2026-04-18T13:12:13Z</time></trkpt><trkpt lat="43.598603705684724" lon="12.230448426342049"><ele>903.0</ele><time>2026-04-18T13:12:14Z</time></trkpt><trkpt lat="43.5985080977449" lon="12.230360714138321"><ele>908.2</ele><time>2026-04-18T13:12:15Z</time></trkpt><trkpt lat="43.59844774579294" lon="12.230263123607257"><ele>913.4</ele><time>2026-04-18T13:12:15.999Z</time></trkpt><trkpt lat="43.59842358676322" lon="12.230137627059042"><ele>918.6000000000001</ele><time>2026-04-18T13:12:16.999Z</time></trkpt><trkpt lat="43.59843174523563" lon="12.229995107006571"><ele>923.8000000000001</ele><time>2026-04-18T13:12:18Z</time></trkpt><trkpt lat="43.598472109970416" lon="12.229850271987589"><ele>929.0</ele><time>2026-04-18T13:12:19Z</time></trkpt><trkpt lat="43.59854078087307" lon="12.22971915499999"><ele>927.25</ele><time>2026-04-18T13:12:20Z</time></trkpt><trkpt lat="43.598642924400394" lon="12.229603535221187"><ele>925.5</ele><time>2026-04-18T13:12:21Z</time></trkpt><trkpt lat="43.598697009069966" lon="12.22946535021832"><ele>923.75</ele><time>2026-04-18T13:12:22Z</time></trkpt><trkpt lat="43.59874749391486" lon="12.229329638187492"><ele>922.0</ele><time>2026-04-18T13:12:23Z</time></trkpt><trkpt lat="43.599016005871924" lon="12.229309534481946"><ele>922.0</ele><time>2026-04-18T13:12:24Z</time></trkpt><trkpt lat="43.59913989578644" lon="12.229177794889788"><ele>922.0</ele><time>2026-04-18T13:12:25Z</time></trkpt><trkpt lat="43.599260356870914" lon="12.229055184315113"><ele>922.0</ele><time>2026-04-18T13:12:26Z</time></trkpt><trkpt lat="43.59937944533007" lon="12.228969119318506"><ele>922.0</ele><time>2026-04-18T13:12:27Z</time></trkpt><trkpt lat="43.59950013660933" lon="12.22893678987322"><ele>917.8</ele><time>2026-04-18T13:12:28Z</time></trkpt><trkpt lat="43.59961034190007" lon="12.228929453617896"><ele>913.6</ele><time>2026-04-18T13:12:29Z</time></trkpt><trkpt lat="43.599705868654986" lon="12.228924033493133"><ele>909.3999999999999</ele><time>2026-04-18T13:12:30Z</time></trkpt><trkpt lat="43.59978469149598" lon="12.228878853174617"><ele>905.1999999999999</ele><time>2026-04-18T13:12:31Z</time></trkpt><trkpt lat="43.599831374165305" lon="12.228770633944153"><ele>901.0</ele><time>2026-04-18T13:12:32Z</time></trkpt><trkpt lat="43.599836056276956" lon="12.228626732687953"><ele>901.0</ele><time>2026-04-18T13:12:33Z</time></trkpt><trkpt lat="43.59981300255007" lon="12.228473641179479"><ele>900.9999999999999</ele><time>2026-04-18T13:12:34Z</time></trkpt><trkpt lat="43.59980253377054" lon="12.228337578894767"><ele>900.9999999999999</ele><time>2026-04-18T13:12:35Z</time></trkpt><trkpt lat="43.599829697852584" lon="12.228226324480527"><ele>901.0</ele><time>2026-04-18T13:12:36Z</time></trkpt><trkpt lat="43.599881840880194" lon="12.228126547166417"><ele>901.0</ele><time>2026-04-18T13:12:37Z</time></trkpt><trkpt lat="43.59997088404729" lon="12.228045722589156"><ele>900.0</ele><time>2026-04-18T13:12:38Z</time></trkpt><trkpt lat="43.60007649986617" lon="12.228013567128892"><ele>899.0</ele><time>2026-04-18T13:12:39Z</time></trkpt><trkpt lat="43.60018996353144" lon="12.228036782791834"><ele>898.0</ele><time>2026-04-18T13:12:40Z</time></trkpt><trkpt lat="43.600297757034234" lon="12.228112665477525"><ele>897.0</ele><time>2026-04-18T13:12:41Z</time></trkpt><trkpt lat="43.600401137853666" lon="12.228219679839325"><ele>897.0</ele><time>2026-04-18T13:12:42Z</time></trkpt><trkpt lat="43.600515406107036" lon="12.228310874349113"><ele>897.0</ele><time>2026-04-18T13:12:43Z</time></trkpt><trkpt lat="43.600648368708605" lon="12.228372852185998"><ele>897.0</ele><time>2026-04-18T13:12:44Z</time></trkpt><trkpt lat="43.60078584768573" lon="12.228400919291461"><ele>897.0</ele><time>2026-04-18T13:12:45Z</time></trkpt><trkpt lat="43.60091926634876" lon="12.228404111207029"><ele>897.0</ele><time>2026-04-18T13:12:46Z</time></trkpt><trkpt lat="43.60104307159462" lon="12.228392896198894"><ele>897.0</ele><time>2026-04-18T13:12:47Z</time></trkpt><trkpt lat="43.601164808292665" lon="12.22835720363686"><ele>897.0</ele><time>2026-04-18T13:12:48Z</time></trkpt><trkpt lat="43.60127358355498" lon="12.228293376543725"><ele>897.0</ele><time>2026-04-18T13:12:49Z</time></trkpt><trkpt lat="43.60136503545118" lon="12.22822741710002"><ele>894.25</ele><time>2026-04-18T13:12:50Z</time></trkpt><trkpt lat="43.601459928943875" lon="12.228176261438968"><ele>891.5</ele><time>2026-04-18T13:12:51Z</time></trkpt><trkpt lat="43.60158981596895" lon="12.228061067433963"><ele>888.75</ele><time>2026-04-18T13:12:52Z</time></trkpt><trkpt lat="43.60171456322484" lon="12.228099335978321"><ele>886.0</ele><time>2026-04-18T13:12:53Z</time></trkpt><trkpt lat="43.60184094588019" lon="12.22817820350198"><ele>886.0</ele><time>2026-04-18T13:12:54Z</time></trkpt><trkpt lat="43.60197944354841" lon="12.228231167081525"><ele>886.0</ele><time>2026-04-18T13:12:55Z</time></trkpt><trkpt lat="43.6021254358407" lon="12.228220592163357"><ele>886.0</ele><time>2026-04-18T13:12:56Z</time></trkpt><trkpt lat="43.60225370439314" lon="12.228178340208519"><ele>886.0</ele><time>2026-04-18T13:12:57Z</time></trkpt><trkpt lat="43.60235879846045" lon="12.228130524504397"><ele>885.0</ele><time>2026-04-18T13:12:58Z</time></trkpt><trkpt lat="43.60244459988149" lon="12.228063891886942"><ele>883.9999999999999</ele><time>2026-04-18T13:12:59Z</time></trkpt><trkpt lat="43.602503241963724" lon="12.227989711110332"><ele>882.9999999999999</ele><time>2026-04-18T13:13:00Z</time></trkpt><trkpt lat="43.60252668575025" lon="12.227857252656559"><ele>882.0</ele><time>2026-04-18T13:13:01Z</time></trkpt><trkpt lat="43.602505953017214" lon="12.227695450928428"><ele>881.0</ele><time>2026-04-18T13:13:02Z</time></trkpt><trkpt lat="43.60248052392866" lon="12.227530099736894"><ele>881.0</ele><time>2026-04-18T13:13:03Z</time></trkpt><trkpt lat="43.60247698258497" lon="12.227350822858117"><ele>881.0</ele><time>2026-04-18T13:13:04Z</time></trkpt><trkpt lat="43.602492094677686" lon="12.227171909317686"><ele>881.0</ele><time>2026-04-18T13:13:05Z</time></trkpt><trkpt lat="43.60252391005705" lon="12.226988028635947"><ele>881.0</ele><time>2026-04-18T13:13:06Z</time></trkpt><trkpt lat="43.602557400583656" lon="12.226806414607893"><ele>882.5</ele><time>2026-04-18T13:13:07Z</time></trkpt><trkpt lat="43.602598361387315" lon="12.226630838880073"><ele>884.0</ele><time>2026-04-18T13:13:08Z</time></trkpt><trkpt lat="43.602636205317644" lon="12.226477360802143"><ele>885.5</ele><time>2026-04-18T13:13:09Z</time></trkpt><trkpt lat="43.60268010200855" lon="12.226346111966627"><ele>887.0</ele><time>2026-04-18T13:13:10Z</time></trkpt><trkpt lat="43.60273769520483" lon="12.226239370209855"><ele>887.2</ele><time>2026-04-18T13:13:11Z</time></trkpt><trkpt lat="43.60280995069221" lon="12.226162359120869"><ele>887.4000000000001</ele><time>2026-04-18T13:13:12Z</time></trkpt><trkpt lat="43.60289806078369" lon="12.226130756204965"><ele>887.5999999999999</ele><time>2026-04-18T13:13:13Z</time></trkpt><trkpt lat="43.60299183163522" lon="12.226141805431883"><ele>887.8</ele><time>2026-04-18T13:13:14Z</time></trkpt><trkpt lat="43.603094722435664" lon="12.226205914952892"><ele>888.0</ele><time>2026-04-18T13:13:15Z</time></trkpt><trkpt lat="43.60318963746131" lon="12.226327306170807"><ele>884.25</ele><time>2026-04-18T13:13:16Z</time></trkpt><trkpt lat="43.60326629761381" lon="12.226488295340845"><ele>880.5</ele><time>2026-04-18T13:13:17Z</time></trkpt><trkpt lat="43.60332035353701" lon="12.226683018842127"><ele>876.75</ele><time>2026-04-18T13:13:18Z</time></trkpt><trkpt lat="43.603362654304554" lon="12.226882646030647"><ele>873.0</ele><time>2026-04-18T13:13:19Z</time></trkpt><trkpt lat="43.60342279398088" lon="12.227064388404116"><ele>873.0</ele><time>2026-04-18T13:13:20Z</time></trkpt><trkpt lat="43.60351525526002" lon="12.227218887775118"><ele>873.0</ele><time>2026-04-18T13:13:21Z</time></trkpt><trkpt lat="43.6036409062617" lon="12.227351033345371"><ele>873.0</ele><time>2026-04-18T13:13:22Z</time></trkpt><trkpt lat="43.60378462051648" lon="12.227468633466488"><ele>870.3333333333333</ele><time>2026-04-18T13:13:23Z</time></trkpt><trkpt lat="43.6039314867028" lon="12.227575149337659"><ele>867.6666666666666</ele><time>2026-04-18T13:13:24Z</time></trkpt><trkpt lat="43.60408708483198" lon="12.227666797633942"><ele>865.0</ele><time>2026-04-18T13:13:25Z</time></trkpt><trkpt lat="43.60425234724841" lon="12.227756725948616"><ele>865.0</ele><time>2026-04-18T13:13:26Z</time></trkpt><trkpt lat="43.60441347446931" lon="12.227837618612226"><ele>865.0</ele><time>2026-04-18T13:13:27Z</time></trkpt><trkpt lat="43.60456936949867" lon="12.2279072506134"><ele>865.0</ele><time>2026-04-18T13:13:28Z</time></trkpt><trkpt lat="43.60472734879809" lon="12.227941881105414"><ele>869.0</ele><time>2026-04-18T13:13:29Z</time></trkpt><trkpt lat="43.60486430811897" lon="12.227988081883456"><ele>873.0</ele><time>2026-04-18T13:13:30Z</time></trkpt><trkpt lat="43.604986789637984" lon="12.228039513878882"><ele>877.0</ele><time>2026-04-18T13:13:31Z</time></trkpt><trkpt lat="43.60510862386523" lon="12.228071724606854"><ele>881.0</ele><time>2026-04-18T13:13:32Z</time></trkpt><trkpt lat="43.60523553799383" lon="12.228053482903848"><ele>878.0</ele><time>2026-04-18T13:13:33Z</time></trkpt><trkpt lat="43.605366009811405" lon="12.227988831039134"><ele>875.0</ele><time>2026-04-18T13:13:34Z</time></trkpt><trkpt lat="43.605493137674344" lon="12.227883467139925"><ele>872.0</ele><time>2026-04-18T13:13:35Z</time></trkpt><trkpt lat="43.60561059321958" lon="12.22779622562708"><ele>869.0</ele><time>2026-04-18T13:13:36Z</time></trkpt><trkpt lat="43.60572698404809" lon="12.227756208579361"><ele>869.0</ele><time>2026-04-18T13:13:37Z</time></trkpt><trkpt lat="43.60586224001351" lon="12.227785928184804"><ele>869.0</ele><time>2026-04-18T13:13:38Z</time></trkpt><trkpt lat="43.606004123853026" lon="12.227828741473818"><ele>869.0</ele><time>2026-04-18T13:13:39Z</time></trkpt><trkpt lat="43.60614864407071" lon="12.22785500017543"><ele>869.0</ele><time>2026-04-18T13:13:40Z</time></trkpt><trkpt lat="43.606290305339726" lon="12.227868737691514"><ele>866.25</ele><time>2026-04-18T13:13:41Z</time></trkpt><trkpt lat="43.60642913121445" lon="12.227883499748138"><ele>863.5</ele><time>2026-04-18T13:13:42Z</time></trkpt><trkpt lat="43.606560784949934" lon="12.22789347462189"><ele>860.75</ele><time>2026-04-18T13:13:43Z</time></trkpt><trkpt lat="43.606684163827616" lon="12.22789888820116"><ele>858.0</ele><time>2026-04-18T13:13:44Z</time></trkpt><trkpt lat="43.606800375607584" lon="12.227884859228746"><ele>858.0</ele><time>2026-04-18T13:13:45Z</time></trkpt><trkpt lat="43.60691491385911" lon="12.227837291421526"><ele>858.0</ele><time>2026-04-18T13:13:46Z</time></trkpt><trkpt lat="43.6070177288461" lon="12.227733719752191"><ele>858.0</ele><time>2026-04-18T13:13:47Z</time></trkpt><trkpt lat="43.60710392210338" lon="12.227581734117665"><ele>858.0</ele><time>2026-04-18T13:13:48Z</time></trkpt><trkpt lat="43.60718491847328" lon="12.227399510226945"><ele>852.0</ele><time>2026-04-18T13:13:49Z</time></trkpt><trkpt lat="43.60727786321085" lon="12.227209989821382"><ele>846.0</ele><time>2026-04-18T13:13:50Z</time></trkpt><trkpt lat="43.60737144877029" lon="12.22703118670737"><ele>840.0</ele><time>2026-04-18T13:13:51Z</time></trkpt><trkpt lat="43.60745571464185" lon="12.226854600529695"><ele>840.0</ele><time>2026-04-18T13:13:52Z</time></trkpt><trkpt lat="43.60752038260706" lon="12.226678981828112"><ele>840.0</ele><time>2026-04-18T13:13:53Z</time></trkpt><trkpt lat="43.607568778431535" lon="12.226505189681527"><ele>840.0</ele><time>2026-04-18T13:13:53.999Z</time></trkpt><trkpt lat="43.60762785914595" lon="12.226341851584392"><ele>840.0</ele><time>2026-04-18T13:13:54.999Z</time></trkpt><trkpt lat="43.60771542670771" lon="12.226199243281302"><ele>838.0</ele><time>2026-04-18T13:13:55.999Z</time></trkpt><trkpt lat="43.607816248773474" lon="12.226086997627938"><ele>836.0</ele><time>2026-04-18T13:13:56.999Z</time></trkpt><trkpt lat="43.607919432162404" lon="12.226004370401045"><ele>834.0</ele><time>2026-04-18T13:13:57.999Z</time></trkpt><trkpt lat="43.608020069322144" lon="12.225968300233458"><ele>832.0</ele><time>2026-04-18T13:13:58.999Z</time></trkpt><trkpt lat="43.60811362932795" lon="12.225986020667841"><ele>830.0</ele><time>2026-04-18T13:13:59.999Z</time></trkpt><trkpt lat="43.608205029784216" lon="12.226056554604247"><ele>830.0</ele><time>2026-04-18T13:14:00.999Z</time></trkpt><trkpt lat="43.60829416278207" lon="12.226169343924969"><ele>830.0</ele><time>2026-04-18T13:14:01.999Z</time></trkpt><trkpt lat="43.60839216811889" lon="12.226298820428797"><ele>830.0</ele><time>2026-04-18T13:14:02.999Z</time></trkpt><trkpt lat="43.60850232204955" lon="12.226427390546874"><ele>830.0</ele><time>2026-04-18T13:14:03.999Z</time></trkpt><trkpt lat="43.60861369028674" lon="12.226546057845493"><ele>829.25</ele><time>2026-04-18T13:14:04.999Z</time></trkpt><trkpt lat="43.608718222794046" lon="12.22665374395032"><ele>828.5</ele><time>2026-04-18T13:14:05.999Z</time></trkpt><trkpt lat="43.60881032321051" lon="12.226752771657797"><ele>827.75</ele><time>2026-04-18T13:14:06.999Z</time></trkpt><trkpt lat="43.608885284761314" lon="12.226853448059313"><ele>827.0</ele><time>2026-04-18T13:14:07.999Z</time></trkpt><trkpt lat="43.608929005730936" lon="12.226978195466335"><ele>827.0</ele><time>2026-04-18T13:14:08.999Z</time></trkpt><trkpt lat="43.608933065650234" lon="12.227120503209159"><ele>827.0</ele><time>2026-04-18T13:14:09.999Z</time></trkpt><trkpt lat="43.60888763263061" lon="12.227267241668658"><ele>827.0</ele><time>2026-04-18T13:14:10.999Z</time></trkpt><trkpt lat="43.60880603032061" lon="12.227397909583866"><ele>827.0</ele><time>2026-04-18T13:14:11.999Z</time></trkpt><trkpt lat="43.608716307065" lon="12.227509155670306"><ele>826.6</ele><time>2026-04-18T13:14:12.999Z</time></trkpt><trkpt lat="43.60864873209553" lon="12.227612666970684"><ele>826.2</ele><time>2026-04-18T13:14:13.999Z</time></trkpt><trkpt lat="43.60861252481369" lon="12.227730187962113"><ele>825.8</ele><time>2026-04-18T13:14:14.999Z</time></trkpt><trkpt lat="43.60861866373219" lon="12.227862210589622"><ele>825.4</ele><time>2026-04-18T13:14:15.999Z</time></trkpt><trkpt lat="43.60867307052096" lon="12.22798451066093"><ele>825.0</ele><time>2026-04-18T13:14:16.999Z</time></trkpt><trkpt lat="43.608764943087714" lon="12.228084357165597"><ele>822.0</ele><time>2026-04-18T13:14:17.999Z</time></trkpt><trkpt lat="43.6088785851764" lon="12.22815517248059"><ele>819.0</ele><time>2026-04-18T13:14:18.999Z</time></trkpt><trkpt lat="43.60901653780407" lon="12.228172253255115"><ele>816.0</ele><time>2026-04-18T13:14:19.999Z</time></trkpt><trkpt lat="43.60915004779467" lon="12.228190121232327"><ele>813.0</ele><time>2026-04-18T13:14:20.999Z</time></trkpt><trkpt lat="43.60927348419246" lon="12.22823471049923"><ele>813.0</ele><time>2026-04-18T13:14:21.999Z</time></trkpt><trkpt lat="43.60939006425063" lon="12.228329653870118"><ele>813.0</ele><time>2026-04-18T13:14:23.001Z</time></trkpt><trkpt lat="43.60948680935688" lon="12.228469978978813"><ele>813.0</ele><time>2026-04-18T13:14:24.001Z</time></trkpt><trkpt lat="43.60956780222223" lon="12.228646972435135"><ele>813.0</ele><time>2026-04-18T13:14:25.001Z</time></trkpt><trkpt lat="43.609630352074355" lon="12.228853699779721"><ele>815.0</ele><time>2026-04-18T13:14:26.001Z</time></trkpt><trkpt lat="43.60969314151093" lon="12.229059893966578"><ele>817.0</ele><time>2026-04-18T13:14:27.001Z</time></trkpt><trkpt lat="43.60976919602345" lon="12.229233106715945"><ele>819.0</ele><time>2026-04-18T13:14:28.001Z</time></trkpt><trkpt lat="43.60986628090564" lon="12.229381025188871"><ele>819.0</ele><time>2026-04-18T13:14:29.001Z</time></trkpt><trkpt lat="43.6099851746332" lon="12.229503209120411"><ele>819.0</ele><time>2026-04-18T13:14:30.001Z</time></trkpt><trkpt lat="43.6100988309693" lon="12.22962062529409"><ele>819.0</ele><time>2026-04-18T13:14:31Z</time></trkpt><trkpt lat="43.61018402453903" lon="12.229785780079196"><ele>819.0</ele><time>2026-04-18T13:14:32Z</time></trkpt><trkpt lat="43.61022728365588" lon="12.229988840889535"><ele>814.25</ele><time>2026-04-18T13:14:33Z</time></trkpt><trkpt lat="43.61025652960864" lon="12.230183398502765"><ele>809.5</ele><time>2026-04-18T13:14:34Z</time></trkpt><trkpt lat="43.61030126925611" lon="12.230333538649774"><ele>804.75</ele><time>2026-04-18T13:14:35Z</time></trkpt><trkpt lat="43.61035948120385" lon="12.230452502235941"><ele>800.0</ele><time>2026-04-18T13:14:36Z</time></trkpt><trkpt lat="43.61042070294931" lon="12.23053647025566"><ele>800.0000000000001</ele><time>2026-04-18T13:14:37Z</time></trkpt><trkpt lat="43.61049134473383" lon="12.230569610898874"><ele>800.0</ele><time>2026-04-18T13:14:38Z</time></trkpt><trkpt lat="43.61056488384018" lon="12.230540817378417"><ele>800.0</ele><time>2026-04-18T13:14:39Z</time></trkpt><trkpt lat="43.610625358360736" lon="12.230444859976338"><ele>800.0</ele><time>2026-04-18T13:14:40Z</time></trkpt><trkpt lat="43.610654457847204" lon="12.230312109469471"><ele>800.0000000000001</ele><time>2026-04-18T13:14:41Z</time></trkpt><trkpt lat="43.61066334808973" lon="12.23016783327515"><ele>800.0</ele><time>2026-04-18T13:14:42Z</time></trkpt><trkpt lat="43.61069214924809" lon="12.230058451906432"><ele>800.0</ele><time>2026-04-18T13:14:43Z</time></trkpt><trkpt lat="43.6107718244009" lon="12.22997370176363"><ele>800.0</ele><time>2026-04-18T13:14:44Z</time></trkpt><trkpt lat="43.610875561538606" lon="12.229957575262837"><ele>800.0</ele><time>2026-04-18T13:14:45Z</time></trkpt><trkpt lat="43.61098065885454" lon="12.23001557054768"><ele>800.0</ele><time>2026-04-18T13:14:46Z</time></trkpt><trkpt lat="43.611074969858315" lon="12.23013471079385"><ele>800.0</ele><time>2026-04-18T13:14:47Z</time></trkpt><trkpt lat="43.61115226160075" lon="12.23028145160161"><ele>800.0</ele><time>2026-04-18T13:14:48Z</time></trkpt><trkpt lat="43.61122174433206" lon="12.230416484195814"><ele>800.0</ele><time>2026-04-18T13:14:49Z</time></trkpt><trkpt lat="43.611285463300575" lon="12.230520861043138"><ele>800.0</ele><time>2026-04-18T13:14:50Z</time></trkpt><trkpt lat="43.61132747354467" lon="12.230620270358184"><ele>800.0</ele><time>2026-04-18T13:14:51Z</time></trkpt><trkpt lat="43.611325459609596" lon="12.230725805787564"><ele>800.0</ele><time>2026-04-18T13:14:52Z</time></trkpt><trkpt lat="43.61127476000291" lon="12.230827033766879"><ele>799.25</ele><time>2026-04-18T13:14:53Z</time></trkpt><trkpt lat="43.61118538713083" lon="12.23089326206495"><ele>798.5</ele><time>2026-04-18T13:14:54Z</time></trkpt><trkpt lat="43.61107285541197" lon="12.230920704421804"><ele>797.75</ele><time>2026-04-18T13:14:55Z</time></trkpt><trkpt lat="43.61095036620422" lon="12.230939227918071"><ele>797.0</ele><time>2026-04-18T13:14:56Z</time></trkpt><trkpt lat="43.61082356671059" lon="12.23096507153382"><ele>793.5</ele><time>2026-04-18T13:14:57Z</time></trkpt><trkpt lat="43.61069540466274" lon="12.231004044168962"><ele>790.0</ele><time>2026-04-18T13:14:58Z</time></trkpt><trkpt lat="43.61056854107351" lon="12.231046022435422"><ele>786.5</ele><time>2026-04-18T13:14:59Z</time></trkpt><trkpt lat="43.610449084741404" lon="12.231067630449939"><ele>783.0</ele><time>2026-04-18T13:15:00Z</time></trkpt><trkpt lat="43.61033544123586" lon="12.23103251945818"><ele>781.5</ele><time>2026-04-18T13:15:01Z</time></trkpt><trkpt lat="43.61023692827145" lon="12.230942341172971"><ele>780.0</ele><time>2026-04-18T13:15:02Z</time></trkpt><trkpt lat="43.610155955311654" lon="12.230809490737151"><ele>778.5</ele><time>2026-04-18T13:15:03Z</time></trkpt><trkpt lat="43.61008107215183" lon="12.230669259637148"><ele>777.0</ele><time>2026-04-18T13:15:04Z</time></trkpt><trkpt lat="43.61000878137932" lon="12.230541075603762"><ele>781.2</ele><time>2026-04-18T13:15:05Z</time></trkpt><trkpt lat="43.60994049042311" lon="12.230434997696896"><ele>785.4000000000001</ele><time>2026-04-18T13:15:06Z</time></trkpt><trkpt lat="43.60986822860405" lon="12.23036112943602"><ele>789.5999999999999</ele><time>2026-04-18T13:15:07Z</time></trkpt><trkpt lat="43.60978760796616" lon="12.230335099072626"><ele>793.8</ele><time>2026-04-18T13:15:08Z</time></trkpt><trkpt lat="43.609701902932066" lon="12.230368264151043"><ele>798.0</ele><time>2026-04-18T13:15:09Z</time></trkpt><trkpt lat="43.60963455398838" lon="12.230452500294698"><ele>798.0</ele><time>2026-04-18T13:15:10Z</time></trkpt><trkpt lat="43.6096041664069" lon="12.230571790095851"><ele>798.0</ele><time>2026-04-18T13:15:11Z</time></trkpt><trkpt lat="43.60962614552008" lon="12.230704454742785"><ele>798.0</ele><time>2026-04-18T13:15:12Z</time></trkpt><trkpt lat="43.60970158422472" lon="12.230815316209407"><ele>798.0</ele><time>2026-04-18T13:15:13Z</time></trkpt><trkpt lat="43.60980375808818" lon="12.230917999516643"><ele>798.0</ele><time>2026-04-18T13:15:14Z</time></trkpt><trkpt lat="43.60991743759435" lon="12.23102459558297"><ele>791.0</ele><time>2026-04-18T13:15:15Z</time></trkpt><trkpt lat="43.610035259048196" lon="12.231147006347392"><ele>784.0</ele><time>2026-04-18T13:15:16Z</time></trkpt><trkpt lat="43.61016262089372" lon="12.231283148313489"><ele>777.0</ele><time>2026-04-18T13:15:17Z</time></trkpt><trkpt lat="43.61029791655648" lon="12.231411790063426"><ele>773.3333333333334</ele><time>2026-04-18T13:15:18Z</time></trkpt><trkpt lat="43.610446315998594" lon="12.231529500157214"><ele>769.6666666666667</ele><time>2026-04-18T13:15:19Z</time></trkpt><trkpt lat="43.61060197581774" lon="12.231641407742712"><ele>766.0</ele><time>2026-04-18T13:15:20Z</time></trkpt><trkpt lat="43.61075241973207" lon="12.231762083857886"><ele>766.0</ele><time>2026-04-18T13:15:21Z</time></trkpt><trkpt lat="43.61089737630613" lon="12.231900341324916"><ele>766.0</ele><time>2026-04-18T13:15:22Z</time></trkpt><trkpt lat="43.61103626046245" lon="12.232067284172068"><ele>766.0</ele><time>2026-04-18T13:15:23Z</time></trkpt><trkpt lat="43.611156037009366" lon="12.232248917244663"><ele>769.3333333333334</ele><time>2026-04-18T13:15:24Z</time></trkpt><trkpt lat="43.6112614765156" lon="12.232435587962403"><ele>772.6666666666667</ele><time>2026-04-18T13:15:25Z</time></trkpt><trkpt lat="43.611347874959286" lon="12.232631328413257"><ele>776.0</ele><time>2026-04-18T13:15:26Z</time></trkpt><trkpt lat="43.61141123871784" lon="12.232835658242104"><ele>776.0</ele><time>2026-04-18T13:15:27Z</time></trkpt><trkpt lat="43.61144704336267" lon="12.233039262718219"><ele>776.0</ele><time>2026-04-18T13:15:28Z</time></trkpt><trkpt lat="43.61144644513121" lon="12.233213041070544"><ele>776.0</ele><time>2026-04-18T13:15:29Z</time></trkpt><trkpt lat="43.61141880136893" lon="12.233360132838017"><ele>776.0</ele><time>2026-04-18T13:15:30Z</time></trkpt><trkpt lat="43.6114008717977" lon="12.233477087074917"><ele>772.0</ele><time>2026-04-18T13:15:31Z</time></trkpt><trkpt lat="43.61143247776493" lon="12.23358674078428"><ele>768.0</ele><time>2026-04-18T13:15:32Z</time></trkpt><trkpt lat="43.611503536986994" lon="12.233672878923906"><ele>764.0</ele><time>2026-04-18T13:15:33Z</time></trkpt><trkpt lat="43.611599424039376" lon="12.233709061155212"><ele>760.0</ele><time>2026-04-18T13:15:34Z</time></trkpt><trkpt lat="43.6116934982321" lon="12.233683081926431"><ele>756.0</ele><time>2026-04-18T13:15:35Z</time></trkpt><trkpt lat="43.61176508618778" lon="12.233592173133033"><ele>756.0</ele><time>2026-04-18T13:15:36Z</time></trkpt><trkpt lat="43.61181471124976" lon="12.233463595482684"><ele>756.0</ele><time>2026-04-18T13:15:37Z</time></trkpt><trkpt lat="43.611879220149625" lon="12.233372857314043"><ele>756.0</ele><time>2026-04-18T13:15:38Z</time></trkpt><trkpt lat="43.61197351371139" lon="12.233370271241537"><ele>756.0</ele><time>2026-04-18T13:15:39Z</time></trkpt><trkpt lat="43.612052146291376" lon="12.233437335895763"><ele>756.0</ele><time>2026-04-18T13:15:40Z</time></trkpt><trkpt lat="43.61209249208795" lon="12.233542594267984"><ele>753.0</ele><time>2026-04-18T13:15:41Z</time></trkpt><trkpt lat="43.61208741156236" lon="12.233671342021031"><ele>750.0</ele><time>2026-04-18T13:15:42Z</time></trkpt><trkpt lat="43.6120500344753" lon="12.23381235756308"><ele>747.0</ele><time>2026-04-18T13:15:43Z</time></trkpt><trkpt lat="43.61199597580426" lon="12.233963343575057"><ele>744.0</ele><time>2026-04-18T13:15:44Z</time></trkpt><trkpt lat="43.61194910523924" lon="12.23411845812216"><ele>741.0</ele><time>2026-04-18T13:15:45Z</time></trkpt><trkpt lat="43.611928809201565" lon="12.234286518743453"><ele>741.0</ele><time>2026-04-18T13:15:46Z</time></trkpt><trkpt lat="43.611945961566136" lon="12.234462724712836"><ele>741.0</ele><time>2026-04-18T13:15:47Z</time></trkpt><trkpt lat="43.61197806360262" lon="12.234628570320721"><ele>741.0</ele><time>2026-04-18T13:15:48Z</time></trkpt><trkpt lat="43.6120070997999" lon="12.234797188919966"><ele>741.0</ele><time>2026-04-18T13:15:49Z</time></trkpt><trkpt lat="43.611982304466345" lon="12.234988054147951"><ele>738.6666666666666</ele><time>2026-04-18T13:15:50Z</time></trkpt><trkpt lat="43.61192296200247" lon="12.23517774634462"><ele>736.3333333333333</ele><time>2026-04-18T13:15:51Z</time></trkpt><trkpt lat="43.61183237941906" lon="12.235349092949251"><ele>734.0</ele><time>2026-04-18T13:15:52Z</time></trkpt><trkpt lat="43.611718532953056" lon="12.23551245947992"><ele>735.0</ele><time>2026-04-18T13:15:53Z</time></trkpt><trkpt lat="43.61160380147264" lon="12.235653734334527"><ele>736.0</ele><time>2026-04-18T13:15:54Z</time></trkpt><trkpt lat="43.611508283105955" lon="12.235775394926486"><ele>737.0</ele><time>2026-04-18T13:15:55Z</time></trkpt><trkpt lat="43.61144624102194" lon="12.235902131570384"><ele>738.0</ele><time>2026-04-18T13:15:56Z</time></trkpt><trkpt lat="43.611424407245465" lon="12.236047438026942"><ele>738.0</ele><time>2026-04-18T13:15:57Z</time></trkpt><trkpt lat="43.61144586698989" lon="12.2362211057827"><ele>738.0</ele><time>2026-04-18T13:15:58Z</time></trkpt><trkpt lat="43.611489984816004" lon="12.236406097858485"><ele>738.0</ele><time>2026-04-18T13:15:59Z</time></trkpt><trkpt lat="43.6115244412268" lon="12.236594629447787"><ele>738.0</ele><time>2026-04-18T13:16:00Z</time></trkpt><trkpt lat="43.61154314893795" lon="12.236780701722095"><ele>737.8</ele><time>2026-04-18T13:16:01Z</time></trkpt><trkpt lat="43.611541442664475" lon="12.236971475825182"><ele>737.5999999999999</ele><time>2026-04-18T13:16:02Z</time></trkpt><trkpt lat="43.611515630465256" lon="12.23713489944584"><ele>737.4000000000001</ele><time>2026-04-18T13:16:03Z</time></trkpt><trkpt lat="43.61151328080996" lon="12.237271061775388"><ele>737.2</ele><time>2026-04-18T13:16:04Z</time></trkpt><trkpt lat="43.61155881581337" lon="12.237373145473642"><ele>737.0</ele><time>2026-04-18T13:16:05Z</time></trkpt><trkpt lat="43.61163299406948" lon="12.237436820938715"><ele>734.5</ele><time>2026-04-18T13:16:06Z</time></trkpt><trkpt lat="43.61172177324484" lon="12.23748902435648"><ele>732.0</ele><time>2026-04-18T13:16:07Z</time></trkpt><trkpt lat="43.6118006068156" lon="12.23758971811793"><ele>729.5</ele><time>2026-04-18T13:16:08Z</time></trkpt><trkpt lat="43.611847026324355" lon="12.237743174442095"><ele>727.0</ele><time>2026-04-18T13:16:09Z</time></trkpt><trkpt lat="43.61185683965428" lon="12.237933938655015"><ele>727.0</ele><time>2026-04-18T13:16:10Z</time></trkpt><trkpt lat="43.6118308947879" lon="12.238128734911013"><ele>727.0</ele><time>2026-04-18T13:16:11Z</time></trkpt><trkpt lat="43.61177070300452" lon="12.238321053537932"><ele>727.0</ele><time>2026-04-18T13:16:12Z</time></trkpt><trkpt lat="43.611693464011196" lon="12.23849400188189"><ele>727.0</ele><time>2026-04-18T13:16:13Z</time></trkpt><trkpt lat="43.611632292427856" lon="12.23866350281352"><ele>726.25</ele><time>2026-04-18T13:16:14Z</time></trkpt><trkpt lat="43.61161277423881" lon="12.238862013068944"><ele>725.5</ele><time>2026-04-18T13:16:15Z</time></trkpt><trkpt lat="43.611629735135" lon="12.239065939043968"><ele>724.75</ele><time>2026-04-18T13:16:16Z</time></trkpt><trkpt lat="43.611664418629765" lon="12.239266886931217"><ele>724.0</ele><time>2026-04-18T13:16:17Z</time></trkpt><trkpt lat="43.61171511021024" lon="12.239449545298424"><ele>722.5</ele><time>2026-04-18T13:16:18Z</time></trkpt><trkpt lat="43.611776994585355" lon="12.239606206079536"><ele>721.0</ele><time>2026-04-18T13:16:19Z</time></trkpt><trkpt lat="43.61185851503347" lon="12.23973673629642"><ele>719.5</ele><time>2026-04-18T13:16:20Z</time></trkpt><trkpt lat="43.61196558442724" lon="12.239848340717028"><ele>718.0</ele><time>2026-04-18T13:16:21Z</time></trkpt><trkpt lat="43.61210066397635" lon="12.239930029124276"><ele>717.3333333333334</ele><time>2026-04-18T13:16:22Z</time></trkpt><trkpt lat="43.61224592571734" lon="12.239997628834864"><ele>716.6666666666666</ele><time>2026-04-18T13:16:23Z</time></trkpt><trkpt lat="43.612397267322784" lon="12.240077384381022"><ele>716.0</ele><time>2026-04-18T13:16:24Z</time></trkpt><trkpt lat="43.61254880977499" lon="12.240161058076525"><ele>716.0</ele><time>2026-04-18T13:16:25Z</time></trkpt><trkpt lat="43.612685342754006" lon="12.240242544901667"><ele>716.0</ele><time>2026-04-18T13:16:26Z</time></trkpt><trkpt lat="43.61280780718441" lon="12.240329541415385"><ele>716.0</ele><time>2026-04-18T13:16:27Z</time></trkpt><trkpt lat="43.61291698576893" lon="12.240451028994608"><ele>716.0</ele><time>2026-04-18T13:16:28Z</time></trkpt><trkpt lat="43.61299558902632" lon="12.240605101320792"><ele>716.0</ele><time>2026-04-18T13:16:29.001Z</time></trkpt><trkpt lat="43.613036297132616" lon="12.240790001955782"><ele>716.0</ele><time>2026-04-18T13:16:30.001Z</time></trkpt><trkpt lat="43.6130456279381" lon="12.240983637290263"><ele>716.0</ele><time>2026-04-18T13:16:31.001Z</time></trkpt><trkpt lat="43.613030849234455" lon="12.24115040081399"><ele>716.0</ele><time>2026-04-18T13:16:32.001Z</time></trkpt><trkpt lat="43.61302352651152" lon="12.241281799541266"><ele>716.0</ele><time>2026-04-18T13:16:33.001Z</time></trkpt><trkpt lat="43.613061078349496" lon="12.241396883717346"><ele>716.0</ele><time>2026-04-18T13:16:34.001Z</time></trkpt><trkpt lat="43.61314499766766" lon="12.241480897123571"><ele>716.0</ele><time>2026-04-18T13:16:35.001Z</time></trkpt><trkpt lat="43.61325899674201" lon="12.241515497561734"><ele>716.0</ele><time>2026-04-18T13:16:36.001Z</time></trkpt><trkpt lat="43.613371910734315" lon="12.241588642978368"><ele>716.0</ele><time>2026-04-18T13:16:37.001Z</time></trkpt><trkpt lat="43.61346937210825" lon="12.241705173512146"><ele>711.0</ele><time>2026-04-18T13:16:38.001Z</time></trkpt><trkpt lat="43.6135849090157" lon="12.24179769132306"><ele>706.0</ele><time>2026-04-18T13:16:39.001Z</time></trkpt><trkpt lat="43.61372178714693" lon="12.241832779013412"><ele>701.0</ele><time>2026-04-18T13:16:40.001Z</time></trkpt><trkpt lat="43.61386363734055" lon="12.241827490713751"><ele>696.0</ele><time>2026-04-18T13:16:41.001Z</time></trkpt><trkpt lat="43.613995542026" lon="12.241816401359735"><ele>695.75</ele><time>2026-04-18T13:16:42.001Z</time></trkpt><trkpt lat="43.61411573954537" lon="12.241848343911412"><ele>695.5</ele><time>2026-04-18T13:16:43.001Z</time></trkpt><trkpt lat="43.614220026746594" lon="12.241933375577839"><ele>695.25</ele><time>2026-04-18T13:16:44.001Z</time></trkpt><trkpt lat="43.61429777500017" lon="12.242068271596473"><ele>695.0</ele><time>2026-04-18T13:16:45.001Z</time></trkpt><trkpt lat="43.61434941293781" lon="12.24223903695762"><ele>693.0</ele><time>2026-04-18T13:16:46.001Z</time></trkpt><trkpt lat="43.61436785051986" lon="12.242441923405385"><ele>691.0</ele><time>2026-04-18T13:16:47.001Z</time></trkpt><trkpt lat="43.614362876796115" lon="12.242647214583954"><ele>689.0</ele><time>2026-04-18T13:16:48.001Z</time></trkpt><trkpt lat="43.614342880514066" lon="12.242826129285044"><ele>687.0</ele><time>2026-04-18T13:16:49.001Z</time></trkpt><trkpt lat="43.61431539885219" lon="12.242988543771968"><ele>687.0</ele><time>2026-04-18T13:16:50.001Z</time></trkpt><trkpt lat="43.61429677416766" lon="12.243126444195243"><ele>687.0</ele><time>2026-04-18T13:16:51.001Z</time></trkpt><trkpt lat="43.61429690069314" lon="12.243237475407009"><ele>687.0</ele><time>2026-04-18T13:16:52.001Z</time></trkpt><trkpt lat="43.61433412488932" lon="12.243323343346717"><ele>687.0</ele><time>2026-04-18T13:16:53.001Z</time></trkpt><trkpt lat="43.61441454680868" lon="12.243376479254128"><ele>687.0</ele><time>2026-04-18T13:16:54.001Z</time></trkpt><trkpt lat="43.61452660526914" lon="12.243395322438799"><ele>687.0</ele><time>2026-04-18T13:16:55Z</time></trkpt><trkpt lat="43.61465250549966" lon="12.243383814585163"><ele>687.0</ele><time>2026-04-18T13:16:56Z</time></trkpt><trkpt lat="43.61477281738841" lon="12.243385286344267"><ele>687.0</ele><time>2026-04-18T13:16:57Z</time></trkpt><trkpt lat="43.61486768169667" lon="12.243403530938778"><ele>687.0</ele><time>2026-04-18T13:16:58Z</time></trkpt><trkpt lat="43.61496939402526" lon="12.243476191504817"><ele>687.0</ele><time>2026-04-18T13:16:59Z</time></trkpt><trkpt lat="43.61505521045311" lon="12.243606979871593"><ele>687.0</ele><time>2026-04-18T13:17:00Z</time></trkpt><trkpt lat="43.6150949197944" lon="12.243724703628178"><ele>687.0</ele><time>2026-04-18T13:17:01Z</time></trkpt><trkpt lat="43.61515998665597" lon="12.24400147940034"><ele>687.0</ele><time>2026-04-18T13:17:02Z</time></trkpt><trkpt lat="43.61521432597114" lon="12.24423748216656"><ele>686.3333333333334</ele><time>2026-04-18T13:17:03Z</time></trkpt><trkpt lat="43.61527651135102" lon="12.24448546826539"><ele>685.6666666666667</ele><time>2026-04-18T13:17:04Z</time></trkpt><trkpt lat="43.615348268605764" lon="12.24472991412601"><ele>685.0</ele><time>2026-04-18T13:17:05Z</time></trkpt><trkpt lat="43.61542149677036" lon="12.244981931340673"><ele>685.0</ele><time>2026-04-18T13:17:06Z</time></trkpt><trkpt lat="43.615488323498866" lon="12.245220482217643"><ele>685.0</ele><time>2026-04-18T13:17:07Z</time></trkpt><trkpt lat="43.61555229436623" lon="12.245454440224991"><ele>685.0</ele><time>2026-04-18T13:17:08Z</time></trkpt><trkpt lat="43.615611866485075" lon="12.245671771190608"><ele>678.3333333333334</ele><time>2026-04-18T13:17:09Z</time></trkpt><trkpt lat="43.61566520082254" lon="12.245878145336622"><ele>671.6666666666666</ele><time>2026-04-18T13:17:10Z</time></trkpt><trkpt lat="43.61572097245313" lon="12.246080509244434"><ele>665.0</ele><time>2026-04-18T13:17:11Z</time></trkpt><trkpt lat="43.61578122332034" lon="12.246274786871505"><ele>665.0</ele><time>2026-04-18T13:17:12Z</time></trkpt><trkpt lat="43.6158357018827" lon="12.246459475254076"><ele>665.0</ele><time>2026-04-18T13:17:13Z</time></trkpt><trkpt lat="43.61588627838544" lon="12.246630512473473"><ele>665.0</ele><time>2026-04-18T13:17:14Z</time></trkpt><trkpt lat="43.61593077606165" lon="12.246787852557372"><ele>665.0</ele><time>2026-04-18T13:17:15Z</time></trkpt><trkpt lat="43.61596564217911" lon="12.246953524771557"><ele>664.25</ele><time>2026-04-18T13:17:16Z</time></trkpt><trkpt lat="43.61595455679208" lon="12.24712734648472"><ele>663.5</ele><time>2026-04-18T13:17:17Z</time></trkpt><trkpt lat="43.6159054176055" lon="12.2472954630074"><ele>662.75</ele><time>2026-04-18T13:17:18Z</time></trkpt><trkpt lat="43.615818082052726" lon="12.24744544584988"><ele>662.0</ele><time>2026-04-18T13:17:19Z</time></trkpt><trkpt lat="43.615698831455596" lon="12.247556393004954"><ele>662.0</ele><time>2026-04-18T13:17:20Z</time></trkpt><trkpt lat="43.615550522612814" lon="12.247593523084921"><ele>662.0</ele><time>2026-04-18T13:17:21Z</time></trkpt><trkpt lat="43.61544489185212" lon="12.247633277248967"><ele>662.0</ele><time>2026-04-18T13:17:22Z</time></trkpt><trkpt lat="43.61536805679158" lon="12.247690058160732"><ele>662.0</ele><time>2026-04-18T13:17:23Z</time></trkpt><trkpt lat="43.615318543869655" lon="12.247774352956323"><ele>662.0</ele><time>2026-04-18T13:17:24Z</time></trkpt><trkpt lat="43.61530339045144" lon="12.247887996361566"><ele>662.0</ele><time>2026-04-18T13:17:25Z</time></trkpt><trkpt lat="43.61533731400558" lon="12.248011481028868"><ele>662.0</ele><time>2026-04-18T13:17:26Z</time></trkpt><trkpt lat="43.615410783917156" lon="12.248123269603594"><ele>662.0</ele><time>2026-04-18T13:17:27Z</time></trkpt><trkpt lat="43.61551534500376" lon="12.248214439308287"><ele>662.0</ele><time>2026-04-18T13:17:28Z</time></trkpt><trkpt lat="43.6156162499717" lon="12.248310963926171"><ele>661.25</ele><time>2026-04-18T13:17:29Z</time></trkpt><trkpt lat="43.61569188578004" lon="12.248434099621344"><ele>660.5</ele><time>2026-04-18T13:17:30Z</time></trkpt><trkpt lat="43.61574208602571" lon="12.248575002359397"><ele>659.75</ele><time>2026-04-18T13:17:31Z</time></trkpt><trkpt lat="43.61576708675437" lon="12.248723616780042"><ele>659.0</ele><time>2026-04-18T13:17:32Z</time></trkpt><trkpt lat="43.615753860305176" lon="12.248877418766513"><ele>658.0</ele><time>2026-04-18T13:17:33Z</time></trkpt><trkpt lat="43.615708096711245" lon="12.249025606436803"><ele>657.0</ele><time>2026-04-18T13:17:34Z</time></trkpt><trkpt lat="43.61564159544944" lon="12.249166369894505"><ele>656.0</ele><time>2026-04-18T13:17:35Z</time></trkpt><trkpt lat="43.61555356138228" lon="12.2492930452624"><ele>655.0</ele><time>2026-04-18T13:17:36Z</time></trkpt><trkpt lat="43.61544866312272" lon="12.24939597016822"><ele>655.0</ele><time>2026-04-18T13:17:37Z</time></trkpt><trkpt lat="43.61534267264857" lon="12.249477098651223"><ele>655.0</ele><time>2026-04-18T13:17:38Z</time></trkpt><trkpt lat="43.615255202156874" lon="12.249553193414567"><ele>655.0</ele><time>2026-04-18T13:17:39Z</time></trkpt><trkpt lat="43.61519642892702" lon="12.24964649120313"><ele>655.0</ele><time>2026-04-18T13:17:40Z</time></trkpt><trkpt lat="43.615168870849885" lon="12.24976496295705"><ele>655.0</ele><time>2026-04-18T13:17:41Z</time></trkpt><trkpt lat="43.61518194260882" lon="12.24990436902623"><ele>653.5</ele><time>2026-04-18T13:17:42Z</time></trkpt><trkpt lat="43.61524135511367" lon="12.250047742721307"><ele>652.0</ele><time>2026-04-18T13:17:43Z</time></trkpt><trkpt lat="43.61532694006897" lon="12.250170441424943"><ele>650.5</ele><time>2026-04-18T13:17:44Z</time></trkpt><trkpt lat="43.61543088993583" lon="12.2502787398995"><ele>649.0</ele><time>2026-04-18T13:17:45Z</time></trkpt><trkpt lat="43.61555300490114" lon="12.250355187380519"><ele>649.0</ele><time>2026-04-18T13:17:46Z</time></trkpt><trkpt lat="43.61569607632269" lon="12.250393245435486"><ele>649.0</ele><time>2026-04-18T13:17:47Z</time></trkpt><trkpt lat="43.615843346035724" lon="12.250449348960023"><ele>649.0</ele><time>2026-04-18T13:17:48Z</time></trkpt><trkpt lat="43.615973095210116" lon="12.250558155035051"><ele>647.6666666666667</ele><time>2026-04-18T13:17:49Z</time></trkpt><trkpt lat="43.61608913140349" lon="12.250715324932207"><ele>646.3333333333334</ele><time>2026-04-18T13:17:50Z</time></trkpt><trkpt lat="43.61620124390436" lon="12.250873013023199"><ele>645.0</ele><time>2026-04-18T13:17:51Z</time></trkpt><trkpt lat="43.61629625934128" lon="12.251038143298054"><ele>645.0</ele><time>2026-04-18T13:17:52Z</time></trkpt><trkpt lat="43.61636960095751" lon="12.251214421296602"><ele>645.0</ele><time>2026-04-18T13:17:53Z</time></trkpt><trkpt lat="43.61639020853218" lon="12.251409962658403"><ele>645.0</ele><time>2026-04-18T13:17:54Z</time></trkpt><trkpt lat="43.616407977576486" lon="12.251584002821824"><ele>645.0</ele><time>2026-04-18T13:17:55Z</time></trkpt><trkpt lat="43.61637655601837" lon="12.251744020496027"><ele>643.2</ele><time>2026-04-18T13:17:56Z</time></trkpt><trkpt lat="43.61635442957053" lon="12.251894839109081"><ele>641.4</ele><time>2026-04-18T13:17:57Z</time></trkpt><trkpt lat="43.61638023740133" lon="12.252019652486371"><ele>639.6</ele><time>2026-04-18T13:17:58Z</time></trkpt><trkpt lat="43.616427331851284" lon="12.252125469292368"><ele>637.8</ele><time>2026-04-18T13:17:59Z</time></trkpt><trkpt lat="43.61652283599548" lon="12.25221873563131"><ele>636.0</ele><time>2026-04-18T13:18:00Z</time></trkpt><trkpt lat="43.616642565110716" lon="12.252310210992205"><ele>635.75</ele><time>2026-04-18T13:18:01Z</time></trkpt><trkpt lat="43.61677198572862" lon="12.252401978245722"><ele>635.5</ele><time>2026-04-18T13:18:02Z</time></trkpt><trkpt lat="43.61688490442739" lon="12.25252579365821"><ele>635.25</ele><time>2026-04-18T13:18:03Z</time></trkpt><trkpt lat="43.617000751002344" lon="12.252663538284256"><ele>635.0</ele><time>2026-04-18T13:18:04Z</time></trkpt><trkpt lat="43.6171234097914" lon="12.252792019105927"><ele>635.0</ele><time>2026-04-18T13:18:05Z</time></trkpt><trkpt lat="43.61722847063338" lon="12.252940836115359"><ele>635.0</ele><time>2026-04-18T13:18:06Z</time></trkpt><trkpt lat="43.61734774407245" lon="12.253047295231982"><ele>635.0</ele><time>2026-04-18T13:18:07Z</time></trkpt><trkpt lat="43.61748245006052" lon="12.253138740125893"><ele>635.0</ele><time>2026-04-18T13:18:08Z</time></trkpt><trkpt lat="43.61763153866999" lon="12.253194762775545"><ele>635.0</ele><time>2026-04-18T13:18:09Z</time></trkpt><trkpt lat="43.61777090587546" lon="12.253275314672452"><ele>635.0</ele><time>2026-04-18T13:18:10Z</time></trkpt><trkpt lat="43.61789157637151" lon="12.253403274366226"><ele>635.0</ele><time>2026-04-18T13:18:11Z</time></trkpt><trkpt lat="43.617998174627054" lon="12.253575967833708"><ele>635.0</ele><time>2026-04-18T13:18:12Z</time></trkpt><trkpt lat="43.618102352144334" lon="12.253763353048404"><ele>635.0</ele><time>2026-04-18T13:18:13Z</time></trkpt><trkpt lat="43.61821375386864" lon="12.253923365529342"><ele>635.0</ele><time>2026-04-18T13:18:14Z</time></trkpt><trkpt lat="43.6182975767785" lon="12.25407304585508"><ele>630.4</ele><time>2026-04-18T13:18:15Z</time></trkpt><trkpt lat="43.61836514322061" lon="12.254222559860617"><ele>625.8</ele><time>2026-04-18T13:18:16Z</time></trkpt><trkpt lat="43.61844912630274" lon="12.254327238689207"><ele>621.2</ele><time>2026-04-18T13:18:17Z</time></trkpt><trkpt lat="43.618525344860466" lon="12.254418350461325"><ele>616.6</ele><time>2026-04-18T13:18:18Z</time></trkpt><trkpt lat="43.61861130566299" lon="12.254472418903195"><ele>612.0</ele><time>2026-04-18T13:18:19Z</time></trkpt><trkpt lat="43.6187086933754" lon="12.254484235166885"><ele>611.75</ele><time>2026-04-18T13:18:20Z</time></trkpt><trkpt lat="43.61881601131311" lon="12.254444196296463"><ele>611.5</ele><time>2026-04-18T13:18:21Z</time></trkpt><trkpt lat="43.61892499981231" lon="12.254362971833343"><ele>611.25</ele><time>2026-04-18T13:18:22Z</time></trkpt><trkpt lat="43.619046144761015" lon="12.254273903531335"><ele>611.0</ele><time>2026-04-18T13:18:23Z</time></trkpt><trkpt lat="43.6191813447288" lon="12.254185332639398"><ele>611.0</ele><time>2026-04-18T13:18:24Z</time></trkpt><trkpt lat="43.61932770845922" lon="12.254093916804017"><ele>611.0</ele><time>2026-04-18T13:18:25Z</time></trkpt><trkpt lat="43.619478072526135" lon="12.253994135160234"><ele>611.0</ele><time>2026-04-18T13:18:26Z</time></trkpt><trkpt lat="43.61963075858386" lon="12.25391809657238"><ele>615.3333333333333</ele><time>2026-04-18T13:18:27Z</time></trkpt><trkpt lat="43.61977179551293" lon="12.253830628533942"><ele>619.6666666666666</ele><time>2026-04-18T13:18:28Z</time></trkpt><trkpt lat="43.61990450120481" lon="12.253736506108575"><ele>624.0</ele><time>2026-04-18T13:18:29Z</time></trkpt><trkpt lat="43.62005826176654" lon="12.253732745101718"><ele>624.0</ele><time>2026-04-18T13:18:30Z</time></trkpt><trkpt lat="43.62021186727751" lon="12.253745615377767"><ele>624.0</ele><time>2026-04-18T13:18:31Z</time></trkpt><trkpt lat="43.620368973585094" lon="12.253791699583841"><ele>624.0</ele><time>2026-04-18T13:18:32Z</time></trkpt><trkpt lat="43.62052013223834" lon="12.253872655663974"><ele>619.0</ele><time>2026-04-18T13:18:33Z</time></trkpt><trkpt lat="43.620649994073574" lon="12.253980198739022"><ele>614.0</ele><time>2026-04-18T13:18:34Z</time></trkpt><trkpt lat="43.62077481559076" lon="12.25409767359896"><ele>609.0</ele><time>2026-04-18T13:18:35.001Z</time></trkpt><trkpt lat="43.620890876440214" lon="12.254214460151331"><ele>604.0</ele><time>2026-04-18T13:18:36.001Z</time></trkpt><trkpt lat="43.621005540637526" lon="12.25433482637849"><ele>604.0</ele><time>2026-04-18T13:18:37.001Z</time></trkpt><trkpt lat="43.62112092712344" lon="12.254430923607089"><ele>604.0</ele><time>2026-04-18T13:18:38.001Z</time></trkpt><trkpt lat="43.62122388469695" lon="12.254545839704681"><ele>604.0</ele><time>2026-04-18T13:18:39.001Z</time></trkpt><trkpt lat="43.62132411077563" lon="12.254658745203665"><ele>604.0</ele><time>2026-04-18T13:18:40.001Z</time></trkpt><trkpt lat="43.621429205034765" lon="12.25475721170045"><ele>604.2</ele><time>2026-04-18T13:18:41.001Z</time></trkpt><trkpt lat="43.6215419218272" lon="12.254814106400902"><ele>604.4</ele><time>2026-04-18T13:18:42.001Z</time></trkpt><trkpt lat="43.62165033237086" lon="12.25481636268331"><ele>604.6</ele><time>2026-04-18T13:18:43.001Z</time></trkpt><trkpt lat="43.62174856047892" lon="12.254775757845358"><ele>604.8</ele><time>2026-04-18T13:18:44.001Z</time></trkpt><trkpt lat="43.621852947671485" lon="12.254709669754618"><ele>605.0</ele><time>2026-04-18T13:18:45.001Z</time></trkpt><trkpt lat="43.62196835241111" lon="12.254647857572158"><ele>602.75</ele><time>2026-04-18T13:18:46.001Z</time></trkpt><trkpt lat="43.62209181819864" lon="12.254585280861201"><ele>600.5</ele><time>2026-04-18T13:18:47.001Z</time></trkpt><trkpt lat="43.622215611514356" lon="12.254524747491207"><ele>598.25</ele><time>2026-04-18T13:18:48.001Z</time></trkpt><trkpt lat="43.62233048859607" lon="12.254465778157966"><ele>596.0</ele><time>2026-04-18T13:18:49.001Z</time></trkpt><trkpt lat="43.62243829658503" lon="12.254420422313553"><ele>596.0</ele><time>2026-04-18T13:18:50.001Z</time></trkpt><trkpt lat="43.62253544225507" lon="12.254374574021227"><ele>596.0</ele><time>2026-04-18T13:18:51.001Z</time></trkpt><trkpt lat="43.62261944341859" lon="12.25436715621319"><ele>596.0</ele><time>2026-04-18T13:18:52.001Z</time></trkpt><trkpt lat="43.62269673899849" lon="12.25441382923215"><ele>596.0</ele><time>2026-04-18T13:18:53.001Z</time></trkpt><trkpt lat="43.62274116254141" lon="12.254532830250879"><ele>596.0</ele><time>2026-04-18T13:18:54.001Z</time></trkpt><trkpt lat="43.622821508545506" lon="12.254647053337525"><ele>595.25</ele><time>2026-04-18T13:18:55.001Z</time></trkpt><trkpt lat="43.622893052937165" lon="12.254788114195925"><ele>594.5</ele><time>2026-04-18T13:18:56.001Z</time></trkpt><trkpt lat="43.62297869080893" lon="12.254939543153714"><ele>593.75</ele><time>2026-04-18T13:18:57.001Z</time></trkpt><trkpt lat="43.623067230664866" lon="12.255103499071609"><ele>593.0</ele><time>2026-04-18T13:18:58.001Z</time></trkpt><trkpt lat="43.62316372474599" lon="12.255266682240618"><ele>593.0</ele><time>2026-04-18T13:18:59.001Z</time></trkpt><trkpt lat="43.62326420531786" lon="12.255433672598322"><ele>593.0</ele><time>2026-04-18T13:19:00.001Z</time></trkpt><trkpt lat="43.623361112147656" lon="12.255600288235684"><ele>593.0</ele><time>2026-04-18T13:19:01.001Z</time></trkpt><trkpt lat="43.62344554275988" lon="12.255761676558398"><ele>593.5</ele><time>2026-04-18T13:19:02.001Z</time></trkpt><trkpt lat="43.6235301840869" lon="12.255915324588154"><ele>594.0</ele><time>2026-04-18T13:19:03Z</time></trkpt><trkpt lat="43.623616072181065" lon="12.256057699896726"><ele>594.5</ele><time>2026-04-18T13:19:04Z</time></trkpt><trkpt lat="43.623711838552154" lon="12.256184976874893"><ele>595.0</ele><time>2026-04-18T13:19:05Z</time></trkpt><trkpt lat="43.62382295586536" lon="12.256292253457062"><ele>595.0</ele><time>2026-04-18T13:19:06Z</time></trkpt><trkpt lat="43.62395371603454" lon="12.256368168193921"><ele>595.0</ele><time>2026-04-18T13:19:07Z</time></trkpt><trkpt lat="43.62409825122536" lon="12.25641682323229"><ele>595.0</ele><time>2026-04-18T13:19:07.999Z</time></trkpt><trkpt lat="43.62425017641094" lon="12.256443019365635"><ele>595.0</ele><time>2026-04-18T13:19:08.999Z</time></trkpt><trkpt lat="43.6244034457487" lon="12.256486314180192"><ele>594.0</ele><time>2026-04-18T13:19:09.999Z</time></trkpt><trkpt lat="43.624553500131135" lon="12.256532311994823"><ele>593.0</ele><time>2026-04-18T13:19:10.999Z</time></trkpt><trkpt lat="43.62468909986951" lon="12.256572245677223"><ele>592.0</ele><time>2026-04-18T13:19:11.999Z</time></trkpt><trkpt lat="43.62480754906326" lon="12.256628957547777"><ele>591.0</ele><time>2026-04-18T13:19:12.999Z</time></trkpt><trkpt lat="43.62490655897041" lon="12.256739460144226"><ele>591.0</ele><time>2026-04-18T13:19:13.999Z</time></trkpt><trkpt lat="43.62494113250227" lon="12.256917026008772"><ele>591.0</ele><time>2026-04-18T13:19:14.999Z</time></trkpt><trkpt lat="43.62498359292988" lon="12.257103714087869"><ele>591.0</ele><time>2026-04-18T13:19:15.999Z</time></trkpt><trkpt lat="43.62502877577554" lon="12.257300060091692"><ele>591.0</ele><time>2026-04-18T13:19:16.999Z</time></trkpt><trkpt lat="43.62507174290201" lon="12.2574993004431"><ele>588.75</ele><time>2026-04-18T13:19:17.999Z</time></trkpt><trkpt lat="43.62510596626035" lon="12.257692364071872"><ele>586.5</ele><time>2026-04-18T13:19:18.999Z</time></trkpt><trkpt lat="43.625102805988476" lon="12.257878234867114"><ele>584.25</ele><time>2026-04-18T13:19:19.999Z</time></trkpt><trkpt lat="43.6251107395961" lon="12.258068916703923"><ele>582.0</ele><time>2026-04-18T13:19:20.999Z</time></trkpt><trkpt lat="43.625083500071014" lon="12.258245767172639"><ele>581.0</ele><time>2026-04-18T13:19:21.999Z</time></trkpt><trkpt lat="43.625071393099596" lon="12.25841160320027"><ele>580.0</ele><time>2026-04-18T13:19:22.999Z</time></trkpt><trkpt lat="43.625084885456396" lon="12.258565239526133"><ele>579.0</ele><time>2026-04-18T13:19:23.999Z</time></trkpt><trkpt lat="43.6251027603565" lon="12.258704391590225"><ele>578.0</ele><time>2026-04-18T13:19:24.999Z</time></trkpt><trkpt lat="43.62518166693211" lon="12.258805000673712"><ele>577.0</ele><time>2026-04-18T13:19:25.999Z</time></trkpt><trkpt lat="43.62527311910834" lon="12.258872501600973"><ele>582.5</ele><time>2026-04-18T13:19:26.999Z</time></trkpt><trkpt lat="43.62538126154879" lon="12.258898821433949"><ele>588.0</ele><time>2026-04-18T13:19:27.999Z</time></trkpt><trkpt lat="43.62549748919764" lon="12.258898665041404"><ele>593.5</ele><time>2026-04-18T13:19:28.999Z</time></trkpt><trkpt lat="43.625621749003486" lon="12.258899602736973"><ele>599.0</ele><time>2026-04-18T13:19:29.999Z</time></trkpt><trkpt lat="43.62575541327521" lon="12.258918472703003"><ele>597.75</ele><time>2026-04-18T13:19:30.999Z</time></trkpt><trkpt lat="43.625885766649574" lon="12.258963258859911"><ele>596.5</ele><time>2026-04-18T13:19:31.999Z</time></trkpt><trkpt lat="43.62599307786267" lon="12.259075590163206"><ele>595.25</ele><time>2026-04-18T13:19:32.999Z</time></trkpt><trkpt lat="43.62609942673757" lon="12.259186506674052"><ele>594.0</ele><time>2026-04-18T13:19:33.999Z</time></trkpt><trkpt lat="43.62617641509902" lon="12.259356388748678"><ele>594.0</ele><time>2026-04-18T13:19:34.999Z</time></trkpt><trkpt lat="43.626242812643575" lon="12.259549863283778"><ele>594.0</ele><time>2026-04-18T13:19:35.999Z</time></trkpt><trkpt lat="43.62626542682598" lon="12.25978519567209"><ele>594.0</ele><time>2026-04-18T13:19:36.999Z</time></trkpt><trkpt lat="43.62630536405718" lon="12.260028856763116"><ele>592.3333333333334</ele><time>2026-04-18T13:19:37.999Z</time></trkpt><trkpt lat="43.62635574417752" lon="12.260281615235867"><ele>590.6666666666667</ele><time>2026-04-18T13:19:38.999Z</time></trkpt><trkpt lat="43.62642930888511" lon="12.260539244172849"><ele>589.0</ele><time>2026-04-18T13:19:39.999Z</time></trkpt><trkpt lat="43.626506325871986" lon="12.260792923505324"><ele>585.0</ele><time>2026-04-18T13:19:40.999Z</time></trkpt><trkpt lat="43.62658285218689" lon="12.261043244371146"><ele>581.0</ele><time>2026-04-18T13:19:41.999Z</time></trkpt><trkpt lat="43.62665845754847" lon="12.261289253358543"><ele>577.0</ele><time>2026-04-18T13:19:42.999Z</time></trkpt><trkpt lat="43.62673140265155" lon="12.261526606287743"><ele>575.0</ele><time>2026-04-18T13:19:43.999Z</time></trkpt><trkpt lat="43.626817205739194" lon="12.261748133988615"><ele>573.0</ele><time>2026-04-18T13:19:44.999Z</time></trkpt><trkpt lat="43.626885240515975" lon="12.26197141403575"><ele>571.0</ele><time>2026-04-18T13:19:45.999Z</time></trkpt><trkpt lat="43.62694301239514" lon="12.26220020344184"><ele>573.0</ele><time>2026-04-18T13:19:46.999Z</time></trkpt><trkpt lat="43.62704607069955" lon="12.262432228102366"><ele>575.0</ele><time>2026-04-18T13:19:47.999Z</time></trkpt><trkpt lat="43.62717971112115" lon="12.262652240220461"><ele>577.0</ele><time>2026-04-18T13:19:48.999Z</time></trkpt><trkpt lat="43.627281248538516" lon="12.262796075437162"><ele>577.0</ele><time>2026-04-18T13:19:49.999Z</time></trkpt><trkpt lat="43.627405406570624" lon="12.26299816183526"><ele>577.0</ele><time>2026-04-18T13:19:50.999Z</time></trkpt><trkpt lat="43.627532649185994" lon="12.263197787385806"><ele>577.0</ele><time>2026-04-18T13:19:51.999Z</time></trkpt><trkpt lat="43.62765437447181" lon="12.263391976478536"><ele>578.3333333333334</ele><time>2026-04-18T13:19:52.999Z</time></trkpt><trkpt lat="43.62776430936425" lon="12.263569060663356"><ele>579.6666666666666</ele><time>2026-04-18T13:19:53.999Z</time></trkpt><trkpt lat="43.62786549640731" lon="12.263739097793659"><ele>581.0</ele><time>2026-04-18T13:19:54.999Z</time></trkpt><trkpt lat="43.62796429356617" lon="12.263901186098265"><ele>576.3333333333333</ele><time>2026-04-18T13:19:55.999Z</time></trkpt><trkpt lat="43.62807512886925" lon="12.264058400402863"><ele>571.6666666666666</ele><time>2026-04-18T13:19:56.999Z</time></trkpt><trkpt lat="43.6281993677452" lon="12.26419143470992"><ele>567.0</ele><time>2026-04-18T13:19:57.999Z</time></trkpt><trkpt lat="43.62832997472513" lon="12.264334399007854"><ele>567.0</ele><time>2026-04-18T13:19:58.999Z</time></trkpt><trkpt lat="43.62847610836409" lon="12.264472140270417"><ele>567.0</ele><time>2026-04-18T13:19:59.999Z</time></trkpt><trkpt lat="43.62862613962886" lon="12.26461355526706"><ele>567.0</ele><time>2026-04-18T13:20:00.999Z</time></trkpt><trkpt lat="43.628779363215976" lon="12.264736175528974"><ele>567.6666666666666</ele><time>2026-04-18T13:20:01.999Z</time></trkpt><trkpt lat="43.628915431802085" lon="12.264867896091927"><ele>568.3333333333333</ele><time>2026-04-18T13:20:02.999Z</time></trkpt><trkpt lat="43.62904364929665" lon="12.26498240207411"><ele>569.0</ele><time>2026-04-18T13:20:03.999Z</time></trkpt><trkpt lat="43.62914391351668" lon="12.265105008973967"><ele>569.0</ele><time>2026-04-18T13:20:04.999Z</time></trkpt><trkpt lat="43.62923935664254" lon="12.265222375736712"><ele>569.0</ele><time>2026-04-18T13:20:05.999Z</time></trkpt><trkpt lat="43.62930777612129" lon="12.265361115288881"><ele>569.0</ele><time>2026-04-18T13:20:06.999Z</time></trkpt><trkpt lat="43.6293479141993" lon="12.265515427608113"><ele>569.0</ele><time>2026-04-18T13:20:07.999Z</time></trkpt><trkpt lat="43.62935066521134" lon="12.265681757495628"><ele>567.25</ele><time>2026-04-18T13:20:08.999Z</time></trkpt><trkpt lat="43.62931358415374" lon="12.265835641570185"><ele>565.5</ele><time>2026-04-18T13:20:09.999Z</time></trkpt><trkpt lat="43.629256386695786" lon="12.265970895276498"><ele>563.75</ele><time>2026-04-18T13:20:10.999Z</time></trkpt><trkpt lat="43.62916638317926" lon="12.2660667797291"><ele>562.0</ele><time>2026-04-18T13:20:11.999Z</time></trkpt><trkpt lat="43.62906466704846" lon="12.266139886133859"><ele>562.0</ele><time>2026-04-18T13:20:12.999Z</time></trkpt><trkpt lat="43.62897881130505" lon="12.266218500563816"><ele>562.0</ele><time>2026-04-18T13:20:13.999Z</time></trkpt><trkpt lat="43.62892946405931" lon="12.26631170973013"><ele>562.0</ele><time>2026-04-18T13:20:14.999Z</time></trkpt><trkpt lat="43.6289287175087" lon="12.266435102597713"><ele>562.0</ele><time>2026-04-18T13:20:15.999Z</time></trkpt><trkpt lat="43.62895668721906" lon="12.266530618911398"><ele>562.0</ele><time>2026-04-18T13:20:16.999Z</time></trkpt><trkpt lat="43.629029038230186" lon="12.266606780670784"><ele>562.0</ele><time>2026-04-18T13:20:17.999Z</time></trkpt><trkpt lat="43.629144057586885" lon="12.266674439458109"><ele>561.0</ele><time>2026-04-18T13:20:18.999Z</time></trkpt><trkpt lat="43.629285909611674" lon="12.26675336636166"><ele>560.0</ele><time>2026-04-18T13:20:19.999Z</time></trkpt><trkpt lat="43.62944196059263" lon="12.2668592813714"><ele>559.0</ele><time>2026-04-18T13:20:20.999Z</time></trkpt><trkpt lat="43.629594354904235" lon="12.2669652318947"><ele>563.3333333333334</ele><time>2026-04-18T13:20:21.999Z</time></trkpt><trkpt lat="43.629757482719704" lon="12.267081181399728"><ele>567.6666666666666</ele><time>2026-04-18T13:20:22.999Z</time></trkpt><trkpt lat="43.629914241549" lon="12.267186999263416"><ele>572.0</ele><time>2026-04-18T13:20:23.999Z</time></trkpt><trkpt lat="43.630090634956126" lon="12.267252536951451"><ele>567.0</ele><time>2026-04-18T13:20:24.999Z</time></trkpt><trkpt lat="43.63025184582648" lon="12.267285451007531"><ele>562.0</ele><time>2026-04-18T13:20:25.999Z</time></trkpt><trkpt lat="43.63039970553055" lon="12.267327586019006"><ele>557.0</ele><time>2026-04-18T13:20:26.999Z</time></trkpt><trkpt lat="43.63053276947153" lon="12.267381417085225"><ele>557.0</ele><time>2026-04-18T13:20:27.999Z</time></trkpt><trkpt lat="43.63063239457746" lon="12.267513928582282"><ele>557.0</ele><time>2026-04-18T13:20:28.999Z</time></trkpt><trkpt lat="43.63072704496528" lon="12.267667537987627"><ele>557.0</ele><time>2026-04-18T13:20:29.999Z</time></trkpt><trkpt lat="43.63081509741211" lon="12.26785518912902"><ele>557.0</ele><time>2026-04-18T13:20:30.999Z</time></trkpt><trkpt lat="43.63088024894716" lon="12.2680678137466"><ele>554.6666666666666</ele><time>2026-04-18T13:20:31.999Z</time></trkpt><trkpt lat="43.630930868713186" lon="12.268306076494824"><ele>552.3333333333334</ele><time>2026-04-18T13:20:32.999Z</time></trkpt><trkpt lat="43.63095813449159" lon="12.26853612784603"><ele>550.0</ele><time>2026-04-18T13:20:33.999Z</time></trkpt><trkpt lat="43.63095482937888" lon="12.268757418115646"><ele>550.0</ele><time>2026-04-18T13:20:34.999Z</time></trkpt><trkpt lat="43.63092629960107" lon="12.268972643007855"><ele>550.0</ele><time>2026-04-18T13:20:35.999Z</time></trkpt><trkpt lat="43.63092667083034" lon="12.269187318916403"><ele>550.0</ele><time>2026-04-18T13:20:36.999Z</time></trkpt><trkpt lat="43.63094394441201" lon="12.269395351016444"><ele>550.0</ele><time>2026-04-18T13:20:37.999Z</time></trkpt><trkpt lat="43.63099018264301" lon="12.269606866851502"><ele>550.0</ele><time>2026-04-18T13:20:38.999Z</time></trkpt><trkpt lat="43.6310527945133" lon="12.269815635383154"><ele>550.0</ele><time>2026-04-18T13:20:39.999Z</time></trkpt><trkpt lat="43.63113719013873" lon="12.270014461977219"><ele>555.0</ele><time>2026-04-18T13:20:41Z</time></trkpt><trkpt lat="43.63125269537964" lon="12.270192350173954"><ele>560.0</ele><time>2026-04-18T13:20:42Z</time></trkpt><trkpt lat="43.63139196590186" lon="12.270359585630963"><ele>565.0</ele><time>2026-04-18T13:20:43Z</time></trkpt><trkpt lat="43.63153438411557" lon="12.27052808147413"><ele>562.0</ele><time>2026-04-18T13:20:44Z</time></trkpt><trkpt lat="43.63168482584123" lon="12.270706347630176"><ele>559.0</ele><time>2026-04-18T13:20:45Z</time></trkpt><trkpt lat="43.631837240963684" lon="12.27088934504029"><ele>556.0</ele><time>2026-04-18T13:20:46Z</time></trkpt><trkpt lat="43.63199097814679" lon="12.271075536333145"><ele>556.0</ele><time>2026-04-18T13:20:47Z</time></trkpt><trkpt lat="43.63214637910691" lon="12.271261156225167"><ele>556.0</ele><time>2026-04-18T13:20:48Z</time></trkpt><trkpt lat="43.63230286015056" lon="12.271451288899797"><ele>556.0</ele><time>2026-04-18T13:20:49Z</time></trkpt><trkpt lat="43.63246005838541" lon="12.271646392805877"><ele>551.6666666666667</ele><time>2026-04-18T13:20:50Z</time></trkpt><trkpt lat="43.63260050392626" lon="12.271869237410774"><ele>547.3333333333334</ele><time>2026-04-18T13:20:51Z</time></trkpt><trkpt lat="43.63274002733834" lon="12.272092884051439"><ele>543.0</ele><time>2026-04-18T13:20:52Z</time></trkpt><trkpt lat="43.632877319016316" lon="12.272318505815994"><ele>543.0</ele><time>2026-04-18T13:20:53Z</time></trkpt><trkpt lat="43.63300998916853" lon="12.272542382454533"><ele>543.0</ele><time>2026-04-18T13:20:54Z</time></trkpt><trkpt lat="43.63314256910131" lon="12.272758389057666"><ele>543.0</ele><time>2026-04-18T13:20:55Z</time></trkpt><trkpt lat="43.633274612374656" lon="12.272973998894189"><ele>540.3333333333334</ele><time>2026-04-18T13:20:56Z</time></trkpt><trkpt lat="43.63340571796346" lon="12.27318989253564"><ele>537.6666666666667</ele><time>2026-04-18T13:20:57Z</time></trkpt><trkpt lat="43.63353509921426" lon="12.273402946630165"><ele>535.0</ele><time>2026-04-18T13:20:58Z</time></trkpt><trkpt lat="43.633662655218664" lon="12.27361360689588"><ele>536.6666666666667</ele><time>2026-04-18T13:20:59Z</time></trkpt><trkpt lat="43.63378515367343" lon="12.273816659677463"><ele>538.3333333333334</ele><time>2026-04-18T13:21:00Z</time></trkpt><trkpt lat="43.633901112437435" lon="12.274008872383286"><ele>540.0</ele><time>2026-04-18T13:21:01Z</time></trkpt><trkpt lat="43.634014353248794" lon="12.274195636458659"><ele>540.0</ele><time>2026-04-18T13:21:02Z</time></trkpt><trkpt lat="43.63412629193375" lon="12.274373937822872"><ele>540.0</ele><time>2026-04-18T13:21:03Z</time></trkpt><trkpt lat="43.63425131363518" lon="12.27452872632624"><ele>540.0</ele><time>2026-04-18T13:21:04Z</time></trkpt><trkpt lat="43.63439498093153" lon="12.274644117464828"><ele>538.3333333333334</ele><time>2026-04-18T13:21:05Z</time></trkpt><trkpt lat="43.63454402666882" lon="12.274766284468987"><ele>536.6666666666667</ele><time>2026-04-18T13:21:06Z</time></trkpt><trkpt lat="43.6346820515163" lon="12.274909470228682"><ele>535.0</ele><time>2026-04-18T13:21:07Z</time></trkpt><trkpt lat="43.634834642909766" lon="12.27504274072191"><ele>535.0</ele><time>2026-04-18T13:21:08Z</time></trkpt><trkpt lat="43.63498941477709" lon="12.275156162870063"><ele>535.0</ele><time>2026-04-18T13:21:09Z</time></trkpt><trkpt lat="43.63511785853532" lon="12.27531445025779"><ele>535.0</ele><time>2026-04-18T13:21:10Z</time></trkpt><trkpt lat="43.635284434185856" lon="12.275435405728997"><ele>534.0</ele><time>2026-04-18T13:21:11Z</time></trkpt><trkpt lat="43.63543661937007" lon="12.275569605697223"><ele>533.0</ele><time>2026-04-18T13:21:12Z</time></trkpt><trkpt lat="43.63559274430102" lon="12.275705444441545"><ele>532.0</ele><time>2026-04-18T13:21:13Z</time></trkpt><trkpt lat="43.63574326112336" lon="12.275836199588307"><ele>532.0</ele><time>2026-04-18T13:21:14Z</time></trkpt><trkpt lat="43.6358809506593" lon="12.275965981538109"><ele>532.0</ele><time>2026-04-18T13:21:15Z</time></trkpt><trkpt lat="43.63598440706815" lon="12.276121171714307"><ele>532.0</ele><time>2026-04-18T13:21:16Z</time></trkpt><trkpt lat="43.63606717711008" lon="12.276291144605462"><ele>530.75</ele><time>2026-04-18T13:21:17Z</time></trkpt><trkpt lat="43.63613199876081" lon="12.27647069981898"><ele>529.5</ele><time>2026-04-18T13:21:18Z</time></trkpt><trkpt lat="43.63616405040611" lon="12.276665961698491"><ele>528.25</ele><time>2026-04-18T13:21:19Z</time></trkpt><trkpt lat="43.63618936387161" lon="12.276876698492684"><ele>527.0</ele><time>2026-04-18T13:21:20Z</time></trkpt><trkpt lat="43.63621419501761" lon="12.277080585654197"><ele>528.25</ele><time>2026-04-18T13:21:21Z</time></trkpt><trkpt lat="43.63623725191823" lon="12.277259703614213"><ele>529.5</ele><time>2026-04-18T13:21:22Z</time></trkpt><trkpt lat="43.63627612729213" lon="12.27742133977299"><ele>530.75</ele><time>2026-04-18T13:21:23Z</time></trkpt><trkpt lat="43.636295536092035" lon="12.277583191038277"><ele>532.0</ele><time>2026-04-18T13:21:24Z</time></trkpt><trkpt lat="43.63636190453555" lon="12.277723405784222"><ele>532.0</ele><time>2026-04-18T13:21:25Z</time></trkpt><trkpt lat="43.63647663826564" lon="12.277817656898982"><ele>532.0</ele><time>2026-04-18T13:21:26Z</time></trkpt><trkpt lat="43.63659808547248" lon="12.277908137278285"><ele>532.0</ele><time>2026-04-18T13:21:27Z</time></trkpt><trkpt lat="43.63673877773057" lon="12.277988455743996"><ele>532.0</ele><time>2026-04-18T13:21:28Z</time></trkpt><trkpt lat="43.636894890780795" lon="12.278066944012664"><ele>529.3333333333334</ele><time>2026-04-18T13:21:29Z</time></trkpt><trkpt lat="43.63705886978903" lon="12.278149254300654"><ele>526.6666666666666</ele><time>2026-04-18T13:21:30Z</time></trkpt><trkpt lat="43.63721889012506" lon="12.278239108616244"><ele>524.0</ele><time>2026-04-18T13:21:31Z</time></trkpt><trkpt lat="43.63738053512856" lon="12.278336585350187"><ele>524.0</ele><time>2026-04-18T13:21:32Z</time></trkpt><trkpt lat="43.63754901080496" lon="12.278430774822942"><ele>524.0</ele><time>2026-04-18T13:21:33Z</time></trkpt><trkpt lat="43.63771864925871" lon="12.278521778142167"><ele>524.0</ele><time>2026-04-18T13:21:34Z</time></trkpt><trkpt lat="43.637886734767335" lon="12.278616598418422"><ele>524.6666666666666</ele><time>2026-04-18T13:21:35Z</time></trkpt><trkpt lat="43.63805830869218" lon="12.278714084489328"><ele>525.3333333333334</ele><time>2026-04-18T13:21:36Z</time></trkpt><trkpt lat="43.63823455773019" lon="12.278813996366367"><ele>526.0</ele><time>2026-04-18T13:21:36.999Z</time></trkpt><trkpt lat="43.63841352421311" lon="12.278912093483413"><ele>524.0</ele><time>2026-04-18T13:21:37.999Z</time></trkpt><trkpt lat="43.63859304412911" lon="12.279011831568768"><ele>522.0</ele><time>2026-04-18T13:21:38.999Z</time></trkpt><trkpt lat="43.63877480680593" lon="12.279112809501834"><ele>520.0</ele><time>2026-04-18T13:21:39.999Z</time></trkpt><trkpt lat="43.63894397060965" lon="12.279228633518086"><ele>520.0</ele><time>2026-04-18T13:21:40.999Z</time></trkpt><trkpt lat="43.63911065306758" lon="12.279321647684322"><ele>520.0</ele><time>2026-04-18T13:21:41.999Z</time></trkpt><trkpt lat="43.639277504076375" lon="12.279391445296287"><ele>520.0</ele><time>2026-04-18T13:21:42.999Z</time></trkpt><trkpt lat="43.63943273248878" lon="12.279482688330528"><ele>524.3333333333334</ele><time>2026-04-18T13:21:43.999Z</time></trkpt><trkpt lat="43.639583063048065" lon="12.27956102721"><ele>528.6666666666666</ele><time>2026-04-18T13:21:44.999Z</time></trkpt><trkpt lat="43.63972380750996" lon="12.279663996156733"><ele>533.0</ele><time>2026-04-18T13:21:45.999Z</time></trkpt><trkpt lat="43.63986657008546" lon="12.279743861858277"><ele>531.25</ele><time>2026-04-18T13:21:46.999Z</time></trkpt><trkpt lat="43.64000539849286" lon="12.279821526663541"><ele>529.5</ele><time>2026-04-18T13:21:47.999Z</time></trkpt><trkpt lat="43.64014071292307" lon="12.2798972256447"><ele>527.75</ele><time>2026-04-18T13:21:48.999Z</time></trkpt><trkpt lat="43.6402789159313" lon="12.279951388590645"><ele>526.0</ele><time>2026-04-18T13:21:49.999Z</time></trkpt><trkpt lat="43.64040829887501" lon="12.280026183356267"><ele>526.0</ele><time>2026-04-18T13:21:50.999Z</time></trkpt><trkpt lat="43.640534656697454" lon="12.280096321819137"><ele>526.0</ele><time>2026-04-18T13:21:51.999Z</time></trkpt><trkpt lat="43.640658540198025" lon="12.280163913327307"><ele>526.0</ele><time>2026-04-18T13:21:52.999Z</time></trkpt><trkpt lat="43.640779162686556" lon="12.280232625427486"><ele>526.0</ele><time>2026-04-18T13:21:53.999Z</time></trkpt><trkpt lat="43.64089772120627" lon="12.28029880237071"><ele>526.0</ele><time>2026-04-18T13:21:54.999Z</time></trkpt><trkpt lat="43.6410137228825" lon="12.28036042914235"><ele>526.0</ele><time>2026-04-18T13:21:55.999Z</time></trkpt><trkpt lat="43.641120166332605" lon="12.280443329019217"><ele>526.0</ele><time>2026-04-18T13:21:56.999Z</time></trkpt><trkpt lat="43.64123834461742" lon="12.280484831268781"><ele>526.0</ele><time>2026-04-18T13:21:57.999Z</time></trkpt><trkpt lat="43.641347777397165" lon="12.280545578903922"><ele>523.0</ele><time>2026-04-18T13:21:58.999Z</time></trkpt><trkpt lat="43.641450210320535" lon="12.280627038177718"><ele>520.0</ele><time>2026-04-18T13:21:59.999Z</time></trkpt><trkpt lat="43.641556745279814" lon="12.28068633944085"><ele>517.0</ele><time>2026-04-18T13:22:00.999Z</time></trkpt><trkpt lat="43.64167599427051" lon="12.280728643712857"><ele>514.0</ele><time>2026-04-18T13:22:01.999Z</time></trkpt><trkpt lat="43.64181074906804" lon="12.280804912309307"><ele>514.0</ele><time>2026-04-18T13:22:02.999Z</time></trkpt><trkpt lat="43.641947176679444" lon="12.280879000407849"><ele>514.0</ele><time>2026-04-18T13:22:03.999Z</time></trkpt><trkpt lat="43.64209426165373" lon="12.280961253717763"><ele>514.0</ele><time>2026-04-18T13:22:04.999Z</time></trkpt><trkpt lat="43.642233163814595" lon="12.281062023552352"><ele>513.0</ele><time>2026-04-18T13:22:05.999Z</time></trkpt><trkpt lat="43.64237097230874" lon="12.281138779512775"><ele>512.0</ele><time>2026-04-18T13:22:06.999Z</time></trkpt><trkpt lat="43.64250354217242" lon="12.281224187467355"><ele>511.0</ele><time>2026-04-18T13:22:07.999Z</time></trkpt><trkpt lat="43.64261323335424" lon="12.281352063205306"><ele>510.0</ele><time>2026-04-18T13:22:08.999Z</time></trkpt><trkpt lat="43.64272536043404" lon="12.281523305789262"><ele>515.6666666666666</ele><time>2026-04-18T13:22:09.999Z</time></trkpt><trkpt lat="43.642832026338866" lon="12.2817048584572"><ele>521.3333333333333</ele><time>2026-04-18T13:22:10.999Z</time></trkpt><trkpt lat="43.64295348599627" lon="12.281878396408173"><ele>527.0</ele><time>2026-04-18T13:22:11.999Z</time></trkpt><trkpt lat="43.643059246928956" lon="12.282052073102195"><ele>527.0</ele><time>2026-04-18T13:22:12.999Z</time></trkpt><trkpt lat="43.64317477039827" lon="12.282198756700785"><ele>527.0</ele><time>2026-04-18T13:22:13.999Z</time></trkpt><trkpt lat="43.64331626714767" lon="12.28232563256781"><ele>527.0</ele><time>2026-04-18T13:22:14.999Z</time></trkpt><trkpt lat="43.643479402148586" lon="12.282446156209593"><ele>524.0</ele><time>2026-04-18T13:22:15.999Z</time></trkpt><trkpt lat="43.64366662152279" lon="12.282560145997525"><ele>521.0</ele><time>2026-04-18T13:22:16.999Z</time></trkpt><trkpt lat="43.64387009014121" lon="12.28268402927524"><ele>518.0</ele><time>2026-04-18T13:22:17.999Z</time></trkpt><trkpt lat="43.644083983737616" lon="12.282814388193096"><ele>518.0</ele><time>2026-04-18T13:22:18.999Z</time></trkpt><trkpt lat="43.64429101531496" lon="12.28294106334874"><ele>518.0</ele><time>2026-04-18T13:22:19.999Z</time></trkpt><trkpt lat="43.644488911822364" lon="12.283062149051728"><ele>518.0</ele><time>2026-04-18T13:22:20.999Z</time></trkpt><trkpt lat="43.64468452950327" lon="12.283181840405968"><ele>514.6666666666666</ele><time>2026-04-18T13:22:21.999Z</time></trkpt><trkpt lat="43.64488286810362" lon="12.283303196627902"><ele>511.33333333333337</ele><time>2026-04-18T13:22:22.999Z</time></trkpt><trkpt lat="43.64508122155914" lon="12.283424561917581"><ele>508.0</ele><time>2026-04-18T13:22:23.999Z</time></trkpt><trkpt lat="43.64528103623184" lon="12.283546821277143"><ele>511.33333333333337</ele><time>2026-04-18T13:22:24.999Z</time></trkpt><trkpt lat="43.64548125147537" lon="12.283669177352534"><ele>514.6666666666666</ele><time>2026-04-18T13:22:25.999Z</time></trkpt><trkpt lat="43.64568170493393" lon="12.283791636561226"><ele>518.0</ele><time>2026-04-18T13:22:26.999Z</time></trkpt><trkpt lat="43.64588171380032" lon="12.283913824155345"><ele>516.6666666666666</ele><time>2026-04-18T13:22:27.999Z</time></trkpt><trkpt lat="43.646081093342254" lon="12.284036102741803"><ele>515.3333333333334</ele><time>2026-04-18T13:22:28.999Z</time></trkpt><trkpt lat="43.64628177291636" lon="12.284159357374325"><ele>514.0</ele><time>2026-04-18T13:22:29.999Z</time></trkpt><trkpt lat="43.64648363823061" lon="12.284283341950218"><ele>514.0</ele><time>2026-04-18T13:22:30.999Z</time></trkpt><trkpt lat="43.64668645680937" lon="12.284407910348056"><ele>514.0</ele><time>2026-04-18T13:22:31.999Z</time></trkpt><trkpt lat="43.64688975260354" lon="12.284532848464629"><ele>514.0</ele><time>2026-04-18T13:22:32.999Z</time></trkpt><trkpt lat="43.647093948873284" lon="12.284658409908047"><ele>509.6666666666667</ele><time>2026-04-18T13:22:33.999Z</time></trkpt><trkpt lat="43.647298974261346" lon="12.2847844811808"><ele>505.33333333333337</ele><time>2026-04-18T13:22:34.999Z</time></trkpt><trkpt lat="43.64750400447666" lon="12.284909611311736"><ele>501.0</ele><time>2026-04-18T13:22:35.999Z</time></trkpt><trkpt lat="43.64771064211499" lon="12.285034969678362"><ele>503.0</ele><time>2026-04-18T13:22:36.999Z</time></trkpt><trkpt lat="43.6479165680498" lon="12.285159731851806"><ele>505.0</ele><time>2026-04-18T13:22:37.999Z</time></trkpt><trkpt lat="43.648123822448454" lon="12.285285298883656"><ele>505.0</ele><time>2026-04-18T13:22:38.999Z</time></trkpt><trkpt lat="43.64832950895183" lon="12.285409777713333"><ele>505.0</ele><time>2026-04-18T13:22:39.999Z</time></trkpt><trkpt lat="43.64852212081442" lon="12.285526184881718"><ele>505.0</ele><time>2026-04-18T13:22:40.999Z</time></trkpt><trkpt lat="43.64870611884728" lon="12.285637313038826"><ele>501.6666666666667</ele><time>2026-04-18T13:22:41.999Z</time></trkpt><trkpt lat="43.64888224538224" lon="12.285743507377095"><ele>498.33333333333337</ele><time>2026-04-18T13:22:42.999Z</time></trkpt><trkpt lat="43.64905210596505" lon="12.285845923729461"><ele>495.0</ele><time>2026-04-18T13:22:43.999Z</time></trkpt><trkpt lat="43.64921241558439" lon="12.285942581380278"><ele>495.0</ele><time>2026-04-18T13:22:44.999Z</time></trkpt><trkpt lat="43.64936787997067" lon="12.286039196805245"><ele>495.0</ele><time>2026-04-18T13:22:45.999Z</time></trkpt><trkpt lat="43.6495149431093" lon="12.286145796939813"><ele>495.0</ele><time>2026-04-18T13:22:47Z</time></trkpt><trkpt lat="43.64963986147413" lon="12.28629375377356"><ele>495.33333333333337</ele><time>2026-04-18T13:22:48Z</time></trkpt><trkpt lat="43.649744013375525" lon="12.286479143760957"><ele>495.6666666666667</ele><time>2026-04-18T13:22:49Z</time></trkpt><trkpt lat="43.649841182388435" lon="12.286684634984837"><ele>496.0</ele><time>2026-04-18T13:22:50Z</time></trkpt><trkpt lat="43.649936637151185" lon="12.286885927606999"><ele>496.0</ele><time>2026-04-18T13:22:51Z</time></trkpt><trkpt lat="43.65002463067937" lon="12.287078236285625"><ele>496.0</ele><time>2026-04-18T13:22:52Z</time></trkpt><trkpt lat="43.65010533310298" lon="12.28726805391726"><ele>496.0</ele><time>2026-04-18T13:22:53Z</time></trkpt><trkpt lat="43.65016510717327" lon="12.287459584219103"><ele>495.5</ele><time>2026-04-18T13:22:54Z</time></trkpt><trkpt lat="43.65018559791513" lon="12.287662046585924"><ele>495.0</ele><time>2026-04-18T13:22:55Z</time></trkpt><trkpt lat="43.650200419409266" lon="12.287864267477964"><ele>494.5</ele><time>2026-04-18T13:22:56Z</time></trkpt><trkpt lat="43.650228323895504" lon="12.288062048553746"><ele>494.0</ele><time>2026-04-18T13:22:57Z</time></trkpt><trkpt lat="43.650234765676124" lon="12.288244159160245"><ele>494.0</ele><time>2026-04-18T13:22:58Z</time></trkpt><trkpt lat="43.65023278090667" lon="12.28841152496417"><ele>494.0</ele><time>2026-04-18T13:22:59Z</time></trkpt><trkpt lat="43.65024041184277" lon="12.288548117776115"><ele>494.0</ele><time>2026-04-18T13:23:00Z</time></trkpt><trkpt lat="43.650378700882946" lon="12.288643066416563"><ele>494.0</ele><time>2026-04-18T13:23:01Z</time></trkpt><trkpt lat="43.650474601773034" lon="12.288713741397316"><ele>491.5</ele><time>2026-04-18T13:23:02Z</time></trkpt><trkpt lat="43.650606425676614" lon="12.28873761770313"><ele>489.0</ele><time>2026-04-18T13:23:03Z</time></trkpt><trkpt lat="43.650741882592904" lon="12.288775085889558"><ele>486.5</ele><time>2026-04-18T13:23:04Z</time></trkpt><trkpt lat="43.65088338205935" lon="12.28882648436238"><ele>484.0</ele><time>2026-04-18T13:23:05Z</time></trkpt><trkpt lat="43.651027666033904" lon="12.288901917391078"><ele>484.6666666666667</ele><time>2026-04-18T13:23:06Z</time></trkpt><trkpt lat="43.65116626101414" lon="12.289017310531436"><ele>485.33333333333337</ele><time>2026-04-18T13:23:07Z</time></trkpt><trkpt lat="43.651310093739" lon="12.289158320085606"><ele>486.0</ele><time>2026-04-18T13:23:08Z</time></trkpt><trkpt lat="43.651449789760946" lon="12.289307895731906"><ele>486.0</ele><time>2026-04-18T13:23:09Z</time></trkpt><trkpt lat="43.651604755359365" lon="12.289443239647122"><ele>486.0</ele><time>2026-04-18T13:23:10Z</time></trkpt><trkpt lat="43.651761054191546" lon="12.289597612246322"><ele>486.0</ele><time>2026-04-18T13:23:11Z</time></trkpt><trkpt lat="43.651916652001596" lon="12.289750723238862"><ele>485.0</ele><time>2026-04-18T13:23:12Z</time></trkpt><trkpt lat="43.652070769153184" lon="12.289905516965241"><ele>484.0</ele><time>2026-04-18T13:23:13Z</time></trkpt><trkpt lat="43.65222722609598" lon="12.290057367374033"><ele>483.0</ele><time>2026-04-18T13:23:14Z</time></trkpt><trkpt lat="43.65238806087184" lon="12.290207008869574"><ele>483.0</ele><time>2026-04-18T13:23:15Z</time></trkpt><trkpt lat="43.65254997740488" lon="12.29036223871631"><ele>483.0</ele><time>2026-04-18T13:23:16Z</time></trkpt><trkpt lat="43.65271277956007" lon="12.290528223028193"><ele>483.0</ele><time>2026-04-18T13:23:17Z</time></trkpt><trkpt lat="43.652878566682574" lon="12.290693315652085"><ele>481.33333333333337</ele><time>2026-04-18T13:23:18Z</time></trkpt><trkpt lat="43.65304438047011" lon="12.290853994724936"><ele>479.6666666666667</ele><time>2026-04-18T13:23:19Z</time></trkpt><trkpt lat="43.653213369298854" lon="12.291015698359667"><ele>478.0</ele><time>2026-04-18T13:23:20Z</time></trkpt><trkpt lat="43.65338095948262" lon="12.291180592500595"><ele>478.0</ele><time>2026-04-18T13:23:21Z</time></trkpt><trkpt lat="43.65355223701627" lon="12.291342009030936"><ele>478.0</ele><time>2026-04-18T13:23:22Z</time></trkpt><trkpt lat="43.653729276728754" lon="12.2915016959791"><ele>478.0</ele><time>2026-04-18T13:23:23Z</time></trkpt><trkpt lat="43.65390957530511" lon="12.291652246808972"><ele>478.33333333333337</ele><time>2026-04-18T13:23:24Z</time></trkpt><trkpt lat="43.654085405625274" lon="12.291789768138669"><ele>478.66666666666663</ele><time>2026-04-18T13:23:25Z</time></trkpt><trkpt lat="43.654258578689884" lon="12.291928040373804"><ele>479.0</ele><time>2026-04-18T13:23:26Z</time></trkpt><trkpt lat="43.654425713850294" lon="12.29205615719202"><ele>477.66666666666663</ele><time>2026-04-18T13:23:27Z</time></trkpt><trkpt lat="43.65458749366627" lon="12.292182108276485"><ele>476.33333333333337</ele><time>2026-04-18T13:23:28Z</time></trkpt><trkpt lat="43.65474426418649" lon="12.29231056852413"><ele>475.0</ele><time>2026-04-18T13:23:29Z</time></trkpt><trkpt lat="43.65489204171575" lon="12.292441705166281"><ele>475.33333333333337</ele><time>2026-04-18T13:23:30Z</time></trkpt><trkpt lat="43.655044039114784" lon="12.292567846952027"><ele>475.66666666666663</ele><time>2026-04-18T13:23:31Z</time></trkpt><trkpt lat="43.65519238766081" lon="12.29269104812787"><ele>476.0</ele><time>2026-04-18T13:23:32Z</time></trkpt><trkpt lat="43.65533846730659" lon="12.292832737543428"><ele>476.0</ele><time>2026-04-18T13:23:33Z</time></trkpt><trkpt lat="43.65548045470125" lon="12.292986243894322"><ele>476.0</ele><time>2026-04-18T13:23:34Z</time></trkpt><trkpt lat="43.65561960955189" lon="12.293150113117656"><ele>476.0</ele><time>2026-04-18T13:23:35Z</time></trkpt><trkpt lat="43.65575856785148" lon="12.293317814098437"><ele>477.66666666666663</ele><time>2026-04-18T13:23:36Z</time></trkpt><trkpt lat="43.65589577470123" lon="12.29348292714616"><ele>479.33333333333337</ele><time>2026-04-18T13:23:37Z</time></trkpt><trkpt lat="43.656029665702434" lon="12.293638117869445"><ele>481.0</ele><time>2026-04-18T13:23:38Z</time></trkpt><trkpt lat="43.656155772121" lon="12.29378986632486"><ele>479.0</ele><time>2026-04-18T13:23:39Z</time></trkpt><trkpt lat="43.65626777511095" lon="12.293951084660257"><ele>477.0</ele><time>2026-04-18T13:23:40Z</time></trkpt><trkpt lat="43.65637644220132" lon="12.294116585582772"><ele>475.0</ele><time>2026-04-18T13:23:41Z</time></trkpt><trkpt lat="43.65647852326456" lon="12.294289531049408"><ele>475.0</ele><time>2026-04-18T13:23:42Z</time></trkpt><trkpt lat="43.65657634435837" lon="12.294464144530982"><ele>475.0</ele><time>2026-04-18T13:23:43Z</time></trkpt><trkpt lat="43.656667784489734" lon="12.294638569940679"><ele>475.0</ele><time>2026-04-18T13:23:44Z</time></trkpt><trkpt lat="43.656760465694425" lon="12.294809225942668"><ele>473.33333333333337</ele><time>2026-04-18T13:23:45Z</time></trkpt><trkpt lat="43.65685430938171" lon="12.294978677786151"><ele>471.66666666666663</ele><time>2026-04-18T13:23:46Z</time></trkpt><trkpt lat="43.656950959483126" lon="12.29515211629312"><ele>470.0</ele><time>2026-04-18T13:23:47Z</time></trkpt><trkpt lat="43.65704778560669" lon="12.295329243422364"><ele>470.0</ele><time>2026-04-18T13:23:48Z</time></trkpt><trkpt lat="43.65714437120644" lon="12.295506354275357"><ele>470.0</ele><time>2026-04-18T13:23:49Z</time></trkpt><trkpt lat="43.65723639673998" lon="12.295693414400674"><ele>470.0</ele><time>2026-04-18T13:23:50Z</time></trkpt><trkpt lat="43.65731517321485" lon="12.295894100843556"><ele>469.66666666666663</ele><time>2026-04-18T13:23:51Z</time></trkpt><trkpt lat="43.65737706854275" lon="12.296109788089199"><ele>469.33333333333337</ele><time>2026-04-18T13:23:52Z</time></trkpt><trkpt lat="43.657429108045335" lon="12.296333126362164"><ele>469.0</ele><time>2026-04-18T13:23:53Z</time></trkpt><trkpt lat="43.657482957947565" lon="12.296558133579344"><ele>469.6666666666667</ele><time>2026-04-18T13:23:54Z</time></trkpt><trkpt lat="43.657540928449286" lon="12.296785611543509"><ele>470.33333333333337</ele><time>2026-04-18T13:23:55Z</time></trkpt><trkpt lat="43.65759878063784" lon="12.297012507133212"><ele>471.0</ele><time>2026-04-18T13:23:56Z</time></trkpt><trkpt lat="43.657658084447384" lon="12.29724312544443"><ele>471.0</ele><time>2026-04-18T13:23:57Z</time></trkpt><trkpt lat="43.65771683491743" lon="12.297473715639741"><ele>471.0</ele><time>2026-04-18T13:23:58Z</time></trkpt><trkpt lat="43.65778458513675" lon="12.297696478600036"><ele>471.0</ele><time>2026-04-18T13:23:59Z</time></trkpt><trkpt lat="43.65777421213758" lon="12.297969729489122"><ele>473.0</ele><time>2026-04-18T13:24:00Z</time></trkpt><trkpt lat="43.657783664647965" lon="12.29820626606517"><ele>475.0</ele><time>2026-04-18T13:24:01Z</time></trkpt><trkpt lat="43.65777161121869" lon="12.298454313646742"><ele>477.0</ele><time>2026-04-18T13:24:02Z</time></trkpt><trkpt lat="43.65775625278051" lon="12.298704274831284"><ele>476.33333333333337</ele><time>2026-04-18T13:24:03Z</time></trkpt><trkpt lat="43.65773983225423" lon="12.298952699132617"><ele>475.6666666666667</ele><time>2026-04-18T13:24:04Z</time></trkpt><trkpt lat="43.65772165290889" lon="12.299205201222076"><ele>475.0</ele><time>2026-04-18T13:24:05Z</time></trkpt><trkpt lat="43.65770352387747" lon="12.299457004711533"><ele>475.0</ele><time>2026-04-18T13:24:06Z</time></trkpt><trkpt lat="43.65768568014571" lon="12.29970335314546"><ele>475.0</ele><time>2026-04-18T13:24:07Z</time></trkpt><trkpt lat="43.657668209674235" lon="12.299941969123735"><ele>475.0</ele><time>2026-04-18T13:24:08Z</time></trkpt><trkpt lat="43.65765081275321" lon="12.300179580695652"><ele>475.33333333333337</ele><time>2026-04-18T13:24:09Z</time></trkpt><trkpt lat="43.65763745067868" lon="12.300418530487612"><ele>475.66666666666663</ele><time>2026-04-18T13:24:10Z</time></trkpt><trkpt lat="43.65763295038889" lon="12.30064955664906"><ele>476.0</ele><time>2026-04-18T13:24:11Z</time></trkpt><trkpt lat="43.65763570348829" lon="12.30088641065024"><ele>475.0</ele><time>2026-04-18T13:24:12Z</time></trkpt><trkpt lat="43.65763960923581" lon="12.301118887645869"><ele>474.0</ele><time>2026-04-18T13:24:13Z</time></trkpt><trkpt lat="43.6576457007745" lon="12.301357086634123"><ele>473.0</ele><time>2026-04-18T13:24:14Z</time></trkpt><trkpt lat="43.657651841339344" lon="12.301597203021405"><ele>472.66666666666663</ele><time>2026-04-18T13:24:15Z</time></trkpt><trkpt lat="43.657657964990854" lon="12.30183665808161"><ele>472.33333333333337</ele><time>2026-04-18T13:24:16Z</time></trkpt><trkpt lat="43.657664321342644" lon="12.302077135647124"><ele>472.0</ele><time>2026-04-18T13:24:17Z</time></trkpt><trkpt lat="43.65767030780336" lon="12.302314406622884"><ele>474.33333333333337</ele><time>2026-04-18T13:24:18Z</time></trkpt><trkpt lat="43.6576763387897" lon="12.302553442616471"><ele>476.66666666666663</ele><time>2026-04-18T13:24:19Z</time></trkpt><trkpt lat="43.6576827518252" lon="12.302797715320862"><ele>479.0</ele><time>2026-04-18T13:24:20Z</time></trkpt><trkpt lat="43.6576893646016" lon="12.303044179975988"><ele>479.3333333333333</ele><time>2026-04-18T13:24:21Z</time></trkpt><trkpt lat="43.657696230442674" lon="12.303300076894482"><ele>479.66666666666663</ele><time>2026-04-18T13:24:21.999Z</time></trkpt><trkpt lat="43.65770291078157" lon="12.303549059846098"><ele>480.0</ele><time>2026-04-18T13:24:22.999Z</time></trkpt><trkpt lat="43.657709292035655" lon="12.303796969925555"><ele>478.33333333333337</ele><time>2026-04-18T13:24:23.999Z</time></trkpt><trkpt lat="43.65771566706224" lon="12.304048748264192"><ele>476.6666666666667</ele><time>2026-04-18T13:24:24.999Z</time></trkpt><trkpt lat="43.65772219045188" lon="12.304306386130033"><ele>475.0</ele><time>2026-04-18T13:24:25.999Z</time></trkpt><trkpt lat="43.657728791909676" lon="12.304567107066413"><ele>474.0</ele><time>2026-04-18T13:24:26.999Z</time></trkpt><trkpt lat="43.65773512073948" lon="12.304828288453425"><ele>473.0</ele><time>2026-04-18T13:24:27.999Z</time></trkpt><trkpt lat="43.657741630539384" lon="12.305089038309582"><ele>472.0</ele><time>2026-04-18T13:24:28.999Z</time></trkpt><trkpt lat="43.65774814919686" lon="12.305350142969438"><ele>471.0</ele><time>2026-04-18T13:24:29.999Z</time></trkpt><trkpt lat="43.657754694134404" lon="12.30561230046103"><ele>470.0</ele><time>2026-04-18T13:24:30.999Z</time></trkpt><trkpt lat="43.657761110597704" lon="12.30587353077259"><ele>469.0</ele><time>2026-04-18T13:24:31.999Z</time></trkpt><trkpt lat="43.65776461992132" lon="12.306110005067284"><ele>469.0</ele><time>2026-04-18T13:24:32.999Z</time></trkpt><trkpt lat="43.65776019859499" lon="12.30629993860917"><ele>469.0</ele><time>2026-04-18T13:24:33.999Z</time></trkpt><trkpt lat="43.65774335201234" lon="12.30646012597122"><ele>469.0</ele><time>2026-04-18T13:24:34.999Z</time></trkpt><trkpt lat="43.65771330269601" lon="12.306609123063598"><ele>469.0</ele><time>2026-04-18T13:24:35.999Z</time></trkpt><trkpt lat="43.65767294751448" lon="12.306759303704096"><ele>468.25</ele><time>2026-04-18T13:24:36.999Z</time></trkpt><trkpt lat="43.65762753641638" lon="12.306922575219573"><ele>467.5</ele><time>2026-04-18T13:24:37.999Z</time></trkpt><trkpt lat="43.65757587540441" lon="12.307093239895456"><ele>466.75</ele><time>2026-04-18T13:24:38.999Z</time></trkpt><trkpt lat="43.65752256970208" lon="12.307274543517229"><ele>466.0</ele><time>2026-04-18T13:24:39.999Z</time></trkpt><trkpt lat="43.65746453017969" lon="12.307472078290598"><ele>464.33333333333337</ele><time>2026-04-18T13:24:40.999Z</time></trkpt><trkpt lat="43.657403030550576" lon="12.307681599755147"><ele>462.66666666666663</ele><time>2026-04-18T13:24:41.999Z</time></trkpt><trkpt lat="43.65733777482008" lon="12.307903917524902"><ele>461.0</ele><time>2026-04-18T13:24:42.999Z</time></trkpt><trkpt lat="43.65727170528469" lon="12.308129205837362"><ele>459.3333333333333</ele><time>2026-04-18T13:24:43.999Z</time></trkpt><trkpt lat="43.65720556758279" lon="12.30835539680153"><ele>457.66666666666663</ele><time>2026-04-18T13:24:44.999Z</time></trkpt><trkpt lat="43.657137103803926" lon="12.308588342066349"><ele>456.0</ele><time>2026-04-18T13:24:45.999Z</time></trkpt><trkpt lat="43.65706712841359" lon="12.30882596566553"><ele>453.0</ele><time>2026-04-18T13:24:46.999Z</time></trkpt><trkpt lat="43.65699577019213" lon="12.309070025345724"><ele>450.0</ele><time>2026-04-18T13:24:47.999Z</time></trkpt><trkpt lat="43.6569239138244" lon="12.309316301713181"><ele>447.0</ele><time>2026-04-18T13:24:48.999Z</time></trkpt><trkpt lat="43.6568501508492" lon="12.309567287572122"><ele>455.33333333333337</ele><time>2026-04-18T13:24:49.999Z</time></trkpt><trkpt lat="43.656778022147286" lon="12.309814505214778"><ele>463.6666666666667</ele><time>2026-04-18T13:24:50.999Z</time></trkpt><trkpt lat="43.65670660812947" lon="12.310058432111596"><ele>472.0</ele><time>2026-04-18T13:24:51.999Z</time></trkpt><trkpt lat="43.656637598341106" lon="12.310297382688852"><ele>472.0</ele><time>2026-04-18T13:24:53Z</time></trkpt><trkpt lat="43.65658223475152" lon="12.310556846139074"><ele>472.0</ele><time>2026-04-18T13:24:54Z</time></trkpt><trkpt lat="43.65654357047664" lon="12.310820448147854"><ele>472.0</ele><time>2026-04-18T13:24:55Z</time></trkpt><trkpt lat="43.65651321569763" lon="12.311089712612636"><ele>469.6666666666667</ele><time>2026-04-18T13:24:56Z</time></trkpt><trkpt lat="43.65648757330013" lon="12.311363219886086"><ele>467.33333333333337</ele><time>2026-04-18T13:24:57Z</time></trkpt><trkpt lat="43.656462727553865" lon="12.311639162821779"><ele>465.0</ele><time>2026-04-18T13:24:58Z</time></trkpt><trkpt lat="43.656437410173396" lon="12.311920343681885"><ele>462.0</ele><time>2026-04-18T13:24:59Z</time></trkpt><trkpt lat="43.65641182921506" lon="12.312205170441462"><ele>459.0</ele><time>2026-04-18T13:25:00Z</time></trkpt><trkpt lat="43.65638667806483" lon="12.312492210536597"><ele>456.0</ele><time>2026-04-18T13:25:01Z</time></trkpt><trkpt lat="43.65636162062132" lon="12.312781431644234"><ele>455.33333333333337</ele><time>2026-04-18T13:25:02Z</time></trkpt><trkpt lat="43.65633666575878" lon="12.313070578740197"><ele>454.6666666666667</ele><time>2026-04-18T13:25:03Z</time></trkpt><trkpt lat="43.65631121843727" lon="12.313360353320416"><ele>454.0</ele><time>2026-04-18T13:25:04Z</time></trkpt><trkpt lat="43.65632170378285" lon="12.313652760189134"><ele>454.33333333333337</ele><time>2026-04-18T13:25:05Z</time></trkpt><trkpt lat="43.65629506305107" lon="12.313936598339343"><ele>454.66666666666663</ele><time>2026-04-18T13:25:06Z</time></trkpt><trkpt lat="43.6562683738791" lon="12.314218285120768"><ele>455.0</ele><time>2026-04-18T13:25:07Z</time></trkpt><trkpt lat="43.65624399591169" lon="12.31450009225424"><ele>455.3333333333333</ele><time>2026-04-18T13:25:08Z</time></trkpt><trkpt lat="43.65622025496103" lon="12.314775268032045"><ele>455.66666666666663</ele><time>2026-04-18T13:25:09Z</time></trkpt><trkpt lat="43.65616188140203" lon="12.31503677216571"><ele>456.0</ele><time>2026-04-18T13:25:10Z</time></trkpt><trkpt lat="43.65613800993818" lon="12.315302739897731"><ele>458.0</ele><time>2026-04-18T13:25:11Z</time></trkpt><trkpt lat="43.65611568151688" lon="12.315559296611603"><ele>460.0</ele><time>2026-04-18T13:25:12Z</time></trkpt><trkpt lat="43.65609492529293" lon="12.31579941356187"><ele>462.0</ele><time>2026-04-18T13:25:13Z</time></trkpt><trkpt lat="43.65606677521862" lon="12.316025311588527"><ele>462.0</ele><time>2026-04-18T13:25:14Z</time></trkpt><trkpt lat="43.6560230830022" lon="12.31624395980587"><ele>462.0</ele><time>2026-04-18T13:25:15Z</time></trkpt><trkpt lat="43.65594996906971" lon="12.316454572112052"><ele>462.0</ele><time>2026-04-18T13:25:16Z</time></trkpt><trkpt lat="43.655854303194786" lon="12.316675256751825"><ele>460.0</ele><time>2026-04-18T13:25:17Z</time></trkpt><trkpt lat="43.6557519623124" lon="12.316908438407456"><ele>458.0</ele><time>2026-04-18T13:25:18Z</time></trkpt><trkpt lat="43.65564249148163" lon="12.317155485494972"><ele>456.0</ele><time>2026-04-18T13:25:19Z</time></trkpt><trkpt lat="43.655529350444226" lon="12.317410815236627"><ele>452.5</ele><time>2026-04-18T13:25:20Z</time></trkpt><trkpt lat="43.65541300053286" lon="12.31767338671785"><ele>449.0</ele><time>2026-04-18T13:25:21Z</time></trkpt><trkpt lat="43.65529363102416" lon="12.317942772272396"><ele>449.5</ele><time>2026-04-18T13:25:22Z</time></trkpt><trkpt lat="43.65517208169848" lon="12.318217077316996"><ele>450.0</ele><time>2026-04-18T13:25:23Z</time></trkpt><trkpt lat="43.655050171464175" lon="12.31849325836192"><ele>450.0</ele><time>2026-04-18T13:25:24Z</time></trkpt><trkpt lat="43.65492823139427" lon="12.318771551094631"><ele>450.0</ele><time>2026-04-18T13:25:25Z</time></trkpt><trkpt lat="43.65482167116938" lon="12.319052059956114"><ele>449.0</ele><time>2026-04-18T13:25:26Z</time></trkpt><trkpt lat="43.65468954638254" lon="12.31928084434245"><ele>448.0</ele><time>2026-04-18T13:25:27Z</time></trkpt><trkpt lat="43.65455339494373" lon="12.319497452846198"><ele>447.0</ele><time>2026-04-18T13:25:28Z</time></trkpt><trkpt lat="43.65443448663734" lon="12.319895912452697"><ele>447.0</ele><time>2026-04-18T13:25:29Z</time></trkpt><trkpt lat="43.65431064354808" lon="12.32017461027287"><ele>447.0</ele><time>2026-04-18T13:25:30Z</time></trkpt><trkpt lat="43.65419025286834" lon="12.320445450806817"><ele>445.0</ele><time>2026-04-18T13:25:31Z</time></trkpt><trkpt lat="43.65407812960838" lon="12.320697692334024"><ele>443.0</ele><time>2026-04-18T13:25:32Z</time></trkpt><trkpt lat="43.653972075064594" lon="12.320933394458024"><ele>441.0</ele><time>2026-04-18T13:25:33Z</time></trkpt><trkpt lat="43.65386691487325" lon="12.321166023708576"><ele>441.0</ele><time>2026-04-18T13:25:34Z</time></trkpt><trkpt lat="43.653760388488394" lon="12.321389204554428"><ele>441.0</ele><time>2026-04-18T13:25:35Z</time></trkpt><trkpt lat="43.65364177550451" lon="12.321588311881923"><ele>441.0</ele><time>2026-04-18T13:25:36Z</time></trkpt><trkpt lat="43.653529352312404" lon="12.32178575091566"><ele>442.66666666666663</ele><time>2026-04-18T13:25:37Z</time></trkpt><trkpt lat="43.6534207490771" lon="12.321998288574505"><ele>444.3333333333333</ele><time>2026-04-18T13:25:38Z</time></trkpt><trkpt lat="43.65334280703133" lon="12.322248921386102"><ele>446.0</ele><time>2026-04-18T13:25:39Z</time></trkpt><trkpt lat="43.653273487664656" lon="12.322514203641305"><ele>446.0</ele><time>2026-04-18T13:25:40Z</time></trkpt><trkpt lat="43.65321461148745" lon="12.322795904968078"><ele>446.0</ele><time>2026-04-18T13:25:41Z</time></trkpt><trkpt lat="43.65313321131954" lon="12.323075612526594"><ele>446.0</ele><time>2026-04-18T13:25:42Z</time></trkpt><trkpt lat="43.65305579298208" lon="12.323354910029103"><ele>445.66666666666663</ele><time>2026-04-18T13:25:43Z</time></trkpt><trkpt lat="43.652963078980996" lon="12.323631165621263"><ele>445.33333333333337</ele><time>2026-04-18T13:25:44Z</time></trkpt><trkpt lat="43.65285867725261" lon="12.323907629880523"><ele>445.0</ele><time>2026-04-18T13:25:45Z</time></trkpt><trkpt lat="43.65274483988033" lon="12.324176767660454"><ele>445.0</ele><time>2026-04-18T13:25:46Z</time></trkpt><trkpt lat="43.6526280756762" lon="12.324453810641279"><ele>445.0</ele><time>2026-04-18T13:25:47Z</time></trkpt><trkpt lat="43.65250951737488" lon="12.324735110447193"><ele>440.5</ele><time>2026-04-18T13:25:48Z</time></trkpt><trkpt lat="43.65239253420058" lon="12.325011337731748"><ele>436.0</ele><time>2026-04-18T13:25:48.999Z</time></trkpt><trkpt lat="43.65227608282284" lon="12.325288648449554"><ele>433.0</ele><time>2026-04-18T13:25:49.999Z</time></trkpt><trkpt lat="43.65216011696507" lon="12.325566628184077"><ele>430.0</ele><time>2026-04-18T13:25:50.999Z</time></trkpt><trkpt lat="43.6520461233893" lon="12.325839880793575"><ele>431.33333333333337</ele><time>2026-04-18T13:25:51.999Z</time></trkpt><trkpt lat="43.65193291868707" lon="12.326111238021715"><ele>432.66666666666663</ele><time>2026-04-18T13:25:52.999Z</time></trkpt><trkpt lat="43.65182185752484" lon="12.326377445870465"><ele>434.0</ele><time>2026-04-18T13:25:53.999Z</time></trkpt><trkpt lat="43.65171374230096" lon="12.326636592455838"><ele>434.0</ele><time>2026-04-18T13:25:54.999Z</time></trkpt><trkpt lat="43.65160691561524" lon="12.326896126438646"><ele>434.0</ele><time>2026-04-18T13:25:55.999Z</time></trkpt><trkpt lat="43.65152277764331" lon="12.327167851118178"><ele>434.0</ele><time>2026-04-18T13:25:56.999Z</time></trkpt><trkpt lat="43.65141624747593" lon="12.327415733258608"><ele>433.66666666666663</ele><time>2026-04-18T13:25:57.999Z</time></trkpt><trkpt lat="43.65131206705636" lon="12.32766199797446"><ele>433.33333333333337</ele><time>2026-04-18T13:25:58.999Z</time></trkpt><trkpt lat="43.65120905451162" lon="12.327907866801867"><ele>433.0</ele><time>2026-04-18T13:25:59.999Z</time></trkpt><trkpt lat="43.65110917594123" lon="12.328150292416538"><ele>433.0</ele><time>2026-04-18T13:26:00.999Z</time></trkpt><trkpt lat="43.65100948469728" lon="12.32838847027409"><ele>433.0</ele><time>2026-04-18T13:26:01.999Z</time></trkpt><trkpt lat="43.65090809792783" lon="12.328620650148917"><ele>433.0</ele><time>2026-04-18T13:26:02.999Z</time></trkpt><trkpt lat="43.65079591095302" lon="12.328845829457826"><ele>432.0</ele><time>2026-04-18T13:26:03.999Z</time></trkpt><trkpt lat="43.65067544223859" lon="12.32906162931564"><ele>431.0</ele><time>2026-04-18T13:26:04.999Z</time></trkpt><trkpt lat="43.65053609301437" lon="12.329257467664199"><ele>430.0</ele><time>2026-04-18T13:26:05.999Z</time></trkpt><trkpt lat="43.65038714222366" lon="12.329440746757376"><ele>430.6666666666667</ele><time>2026-04-18T13:26:06.999Z</time></trkpt><trkpt lat="43.65023705587499" lon="12.329620337805778"><ele>431.33333333333337</ele><time>2026-04-18T13:26:07.999Z</time></trkpt><trkpt lat="43.65009599496082" lon="12.329788943884893"><ele>432.0</ele><time>2026-04-18T13:26:08.999Z</time></trkpt><trkpt lat="43.64996336310103" lon="12.329952605336826"><ele>432.0</ele><time>2026-04-18T13:26:09.999Z</time></trkpt><trkpt lat="43.649838504659556" lon="12.330110522099579"><ele>432.0</ele><time>2026-04-18T13:26:10.999Z</time></trkpt><trkpt lat="43.64971356845616" lon="12.330262221601076"><ele>432.0</ele><time>2026-04-18T13:26:11.999Z</time></trkpt><trkpt lat="43.649592397920514" lon="12.330410020780914"><ele>432.0</ele><time>2026-04-18T13:26:12.999Z</time></trkpt><trkpt lat="43.649475358708884" lon="12.330557991259067"><ele>432.0</ele><time>2026-04-18T13:26:13.999Z</time></trkpt><trkpt lat="43.649359925565264" lon="12.330702362293698"><ele>432.0</ele><time>2026-04-18T13:26:14.999Z</time></trkpt><trkpt lat="43.64924459642972" lon="12.330841994880648"><ele>433.33333333333337</ele><time>2026-04-18T13:26:15.999Z</time></trkpt><trkpt lat="43.64913056359437" lon="12.330985002584246"><ele>434.6666666666667</ele><time>2026-04-18T13:26:16.999Z</time></trkpt><trkpt lat="43.64901693866128" lon="12.331126058204822"><ele>436.0</ele><time>2026-04-18T13:26:17.999Z</time></trkpt><trkpt lat="43.648906310983875" lon="12.331261446601543"><ele>435.0</ele><time>2026-04-18T13:26:18.999Z</time></trkpt><trkpt lat="43.64879390887407" lon="12.331399614861313"><ele>434.0</ele><time>2026-04-18T13:26:19.999Z</time></trkpt><trkpt lat="43.648683616835235" lon="12.33154117848227"><ele>433.0</ele><time>2026-04-18T13:26:20.999Z</time></trkpt><trkpt lat="43.64857070205528" lon="12.331676661810164"><ele>433.0</ele><time>2026-04-18T13:26:21.999Z</time></trkpt><trkpt lat="43.6484598192859" lon="12.331815092029558"><ele>433.0</ele><time>2026-04-18T13:26:22.999Z</time></trkpt><trkpt lat="43.648350156400056" lon="12.331953969630124"><ele>433.0</ele><time>2026-04-18T13:26:23.999Z</time></trkpt><trkpt lat="43.648239936136974" lon="12.332089996506424"><ele>433.0</ele><time>2026-04-18T13:26:24.999Z</time></trkpt><trkpt lat="43.64813855955471" lon="12.332217159033119"><ele>433.0</ele><time>2026-04-18T13:26:25.999Z</time></trkpt><trkpt lat="43.64804844403778" lon="12.332326755735657"><ele>433.0</ele><time>2026-04-18T13:26:26.999Z</time></trkpt><trkpt lat="43.647961697295244" lon="12.33243307514424"><ele>433.0</ele><time>2026-04-18T13:26:27.999Z</time></trkpt><trkpt lat="43.64787513165339" lon="12.332542083282778"><ele>433.0</ele><time>2026-04-18T13:26:28.999Z</time></trkpt><trkpt lat="43.647788675820344" lon="12.332647974017611"><ele>433.0</ele><time>2026-04-18T13:26:29.999Z</time></trkpt><trkpt lat="43.647703074764294" lon="12.332751507786456"><ele>432.99999999999994</ele><time>2026-04-18T13:26:30.999Z</time></trkpt><trkpt lat="43.647618274528995" lon="12.332851814831992"><ele>432.99999999999994</ele><time>2026-04-18T13:26:31.999Z</time></trkpt><trkpt lat="43.64753714362359" lon="12.33295067528097"><ele>433.0</ele><time>2026-04-18T13:26:32.999Z</time></trkpt><trkpt lat="43.64745602878789" lon="12.333051101931542"><ele>433.0</ele><time>2026-04-18T13:26:33.999Z</time></trkpt><trkpt lat="43.647367600728955" lon="12.33315717432291"><ele>431.75</ele><time>2026-04-18T13:26:34.999Z</time></trkpt><trkpt lat="43.64727744259846" lon="12.333271808472297"><ele>430.5</ele><time>2026-04-18T13:26:35.999Z</time></trkpt><trkpt lat="43.64718543704027" lon="12.333392486500758"><ele>429.25</ele><time>2026-04-18T13:26:36.999Z</time></trkpt><trkpt lat="43.64709074409592" lon="12.333514486967772"><ele>428.0</ele><time>2026-04-18T13:26:37.999Z</time></trkpt><trkpt lat="43.646992666614715" lon="12.333637040333134"><ele>428.5</ele><time>2026-04-18T13:26:38.999Z</time></trkpt><trkpt lat="43.64689045551571" lon="12.333762438904612"><ele>429.0</ele><time>2026-04-18T13:26:39.999Z</time></trkpt><trkpt lat="43.6467870842877" lon="12.333886947877605"><ele>429.5</ele><time>2026-04-18T13:26:40.999Z</time></trkpt><trkpt lat="43.646683407269954" lon="12.334015052670125"><ele>430.0</ele><time>2026-04-18T13:26:41.999Z</time></trkpt><trkpt lat="43.64658034806198" lon="12.334142974226964"><ele>430.0</ele><time>2026-04-18T13:26:42.999Z</time></trkpt><trkpt lat="43.64648019107472" lon="12.33426771054147"><ele>430.0</ele><time>2026-04-18T13:26:43.999Z</time></trkpt><trkpt lat="43.64638644528911" lon="12.334386074691224"><ele>430.0</ele><time>2026-04-18T13:26:44.999Z</time></trkpt><trkpt lat="43.64630007411723" lon="12.334492362058304"><ele>430.0</ele><time>2026-04-18T13:26:45.999Z</time></trkpt><trkpt lat="43.646225124962186" lon="12.334586425689718"><ele>430.00000000000006</ele><time>2026-04-18T13:26:46.999Z</time></trkpt><trkpt lat="43.64616026405886" lon="12.33466941865584"><ele>430.0</ele><time>2026-04-18T13:26:47.999Z</time></trkpt><trkpt lat="43.646097935256904" lon="12.334746613555456"><ele>430.0</ele><time>2026-04-18T13:26:48.999Z</time></trkpt><trkpt lat="43.646040221087354" lon="12.334822248131296"><ele>430.0</ele><time>2026-04-18T13:26:49.999Z</time></trkpt><trkpt lat="43.645980749241936" lon="12.334897697736688"><ele>430.00000000000006</ele><time>2026-04-18T13:26:50.999Z</time></trkpt><trkpt lat="43.645926465649545" lon="12.334981295252675"><ele>430.0</ele><time>2026-04-18T13:26:51.999Z</time></trkpt><trkpt lat="43.64587134665456" lon="12.33506923128028"><ele>429.8</ele><time>2026-04-18T13:26:52.999Z</time></trkpt><trkpt lat="43.64581958044282" lon="12.335170108231894"><ele>429.6</ele><time>2026-04-18T13:26:53.999Z</time></trkpt><trkpt lat="43.64577154701643" lon="12.33528607440251"><ele>429.4</ele><time>2026-04-18T13:26:54.999Z</time></trkpt><trkpt lat="43.64572826345477" lon="12.335409377644915"><ele>429.2</ele><time>2026-04-18T13:26:55.999Z</time></trkpt><trkpt lat="43.64569166788064" lon="12.335540454325534"><ele>429.0</ele><time>2026-04-18T13:26:56.999Z</time></trkpt><trkpt lat="43.645663118908416" lon="12.335673888932233"><ele>428.79999999999995</ele><time>2026-04-18T13:26:57.999Z</time></trkpt><trkpt lat="43.64564111582803" lon="12.335807999089234"><ele>428.59999999999997</ele><time>2026-04-18T13:26:59Z</time></trkpt><trkpt lat="43.64562801679149" lon="12.335947723970873"><ele>428.4</ele><time>2026-04-18T13:27:00Z</time></trkpt><trkpt lat="43.645623936158934" lon="12.336085780010917"><ele>428.2</ele><time>2026-04-18T13:27:01Z</time></trkpt><trkpt lat="43.64562940462716" lon="12.336221872016068"><ele>428.0</ele><time>2026-04-18T13:27:02Z</time></trkpt><trkpt lat="43.64564158954239" lon="12.336366327997712"><ele>427.4</ele><time>2026-04-18T13:27:03Z</time></trkpt><trkpt lat="43.6456541737346" lon="12.33651409950756"><ele>426.79999999999995</ele><time>2026-04-18T13:27:04Z</time></trkpt><trkpt lat="43.64567208915811" lon="12.336664306238818"><ele>426.2</ele><time>2026-04-18T13:27:05Z</time></trkpt><trkpt lat="43.64567886169815" lon="12.336818745211486"><ele>425.6</ele><time>2026-04-18T13:27:06Z</time></trkpt><trkpt lat="43.645711104773845" lon="12.336970762124018"><ele>425.0</ele><time>2026-04-18T13:27:07Z</time></trkpt><trkpt lat="43.64578161034813" lon="12.337104062619447"><ele>425.25</ele><time>2026-04-18T13:27:08Z</time></trkpt><trkpt lat="43.645833980598425" lon="12.33724863605394"><ele>425.5</ele><time>2026-04-18T13:27:09Z</time></trkpt><trkpt lat="43.64593603142996" lon="12.337355200887563"><ele>425.75</ele><time>2026-04-18T13:27:10Z</time></trkpt><trkpt lat="43.64602864242465" lon="12.337468856498315"><ele>426.0</ele><time>2026-04-18T13:27:11Z</time></trkpt><trkpt lat="43.646140976624544" lon="12.337557327845714"><ele>426.0</ele><time>2026-04-18T13:27:12Z</time></trkpt><trkpt lat="43.646264086746896" lon="12.337635312249564"><ele>426.0</ele><time>2026-04-18T13:27:13Z</time></trkpt><trkpt lat="43.64638324466571" lon="12.337718466305475"><ele>426.0</ele><time>2026-04-18T13:27:14Z</time></trkpt><trkpt lat="43.64650294406003" lon="12.33780815299017"><ele>426.0</ele><time>2026-04-18T13:27:15Z</time></trkpt><trkpt lat="43.646620750923496" lon="12.33789551698621"><ele>426.0</ele><time>2026-04-18T13:27:16Z</time></trkpt><trkpt lat="43.64673622395735" lon="12.33799579540201"><ele>426.0</ele><time>2026-04-18T13:27:17Z</time></trkpt><trkpt lat="43.64684805560821" lon="12.338104362988936"><ele>426.0</ele><time>2026-04-18T13:27:18Z</time></trkpt><trkpt lat="43.64694271188732" lon="12.33823931628558"><ele>426.0</ele><time>2026-04-18T13:27:19Z</time></trkpt><trkpt lat="43.64705347487434" lon="12.338381276428196"><ele>423.33333333333337</ele><time>2026-04-18T13:27:20Z</time></trkpt><trkpt lat="43.64715703314997" lon="12.338542569018603"><ele>420.6666666666667</ele><time>2026-04-18T13:27:21Z</time></trkpt><trkpt lat="43.64725492562728" lon="12.338715479855168"><ele>418.0</ele><time>2026-04-18T13:27:22Z</time></trkpt><trkpt lat="43.64733746865528" lon="12.338888894027217"><ele>416.6666666666667</ele><time>2026-04-18T13:27:23Z</time></trkpt><trkpt lat="43.647412975151504" lon="12.339067037036921"><ele>415.33333333333337</ele><time>2026-04-18T13:27:24Z</time></trkpt><trkpt lat="43.647482380554955" lon="12.33925720012926"><ele>414.0</ele><time>2026-04-18T13:27:25Z</time></trkpt><trkpt lat="43.647543513730106" lon="12.33946014692419"><ele>414.0</ele><time>2026-04-18T13:27:26Z</time></trkpt><trkpt lat="43.647587936170325" lon="12.339676897858629"><ele>414.0</ele><time>2026-04-18T13:27:27Z</time></trkpt><trkpt lat="43.64762393655064" lon="12.339908840564336"><ele>414.0</ele><time>2026-04-18T13:27:28Z</time></trkpt><trkpt lat="43.64767129732869" lon="12.34012962719364"><ele>412.66666666666663</ele><time>2026-04-18T13:27:29Z</time></trkpt><trkpt lat="43.64769107540376" lon="12.340363859327956"><ele>411.3333333333333</ele><time>2026-04-18T13:27:30Z</time></trkpt><trkpt lat="43.64770109589994" lon="12.340611255224038"><ele>410.0</ele><time>2026-04-18T13:27:31Z</time></trkpt><trkpt lat="43.647708948291914" lon="12.340861640725784"><ele>409.0</ele><time>2026-04-18T13:27:32Z</time></trkpt><trkpt lat="43.6476901452787" lon="12.341112314589216"><ele>408.0</ele><time>2026-04-18T13:27:33Z</time></trkpt><trkpt lat="43.64769662081056" lon="12.341355844119029"><ele>407.0</ele><time>2026-04-18T13:27:34Z</time></trkpt><trkpt lat="43.64770500047768" lon="12.341595367444777"><ele>407.0</ele><time>2026-04-18T13:27:35Z</time></trkpt><trkpt lat="43.64771339412132" lon="12.34182021486014"><ele>407.0</ele><time>2026-04-18T13:27:36Z</time></trkpt><trkpt lat="43.647721750528646" lon="12.342038926910284"><ele>407.0</ele><time>2026-04-18T13:27:37Z</time></trkpt><trkpt lat="43.64772982069927" lon="12.342253561406007"><ele>408.0</ele><time>2026-04-18T13:27:38Z</time></trkpt><trkpt lat="43.6477383255166" lon="12.342481690613056"><ele>409.0</ele><time>2026-04-18T13:27:39Z</time></trkpt><trkpt lat="43.64774667856667" lon="12.342711203912108"><ele>410.0</ele><time>2026-04-18T13:27:40Z</time></trkpt><trkpt lat="43.64775447222502" lon="12.342945137379017"><ele>410.0</ele><time>2026-04-18T13:27:41Z</time></trkpt><trkpt lat="43.64777324442656" lon="12.343162889000817"><ele>410.0</ele><time>2026-04-18T13:27:41.999Z</time></trkpt><trkpt lat="43.64775649663046" lon="12.343398849589642"><ele>410.0</ele><time>2026-04-18T13:27:42.999Z</time></trkpt><trkpt lat="43.64769920972" lon="12.343626801060745"><ele>410.0</ele><time>2026-04-18T13:27:43.999Z</time></trkpt><trkpt lat="43.64763516713049" lon="12.343848533991643"><ele>410.0</ele><time>2026-04-18T13:27:44.999Z</time></trkpt><trkpt lat="43.64754362428325" lon="12.344055574137375"><ele>410.0</ele><time>2026-04-18T13:27:45.999Z</time></trkpt><trkpt lat="43.64744168693525" lon="12.344267055450608"><ele>410.3333333333333</ele><time>2026-04-18T13:27:46.999Z</time></trkpt><trkpt lat="43.647349168024" lon="12.344480635353694"><ele>410.66666666666663</ele><time>2026-04-18T13:27:47.999Z</time></trkpt><trkpt lat="43.647236043334814" lon="12.344695346103592"><ele>411.0</ele><time>2026-04-18T13:27:48.999Z</time></trkpt><trkpt lat="43.64712948687432" lon="12.344912664140038"><ele>410.66666666666663</ele><time>2026-04-18T13:27:49.999Z</time></trkpt><trkpt lat="43.647022329653474" lon="12.3451285798301"><ele>410.3333333333333</ele><time>2026-04-18T13:27:50.999Z</time></trkpt><trkpt lat="43.64691515865998" lon="12.34534452327432"><ele>410.0</ele><time>2026-04-18T13:27:51.999Z</time></trkpt><trkpt lat="43.64681298370612" lon="12.345558910291658"><ele>408.0</ele><time>2026-04-18T13:27:52.999Z</time></trkpt><trkpt lat="43.646729483370976" lon="12.345777304532458"><ele>406.0</ele><time>2026-04-18T13:27:53.999Z</time></trkpt><trkpt lat="43.64666265193575" lon="12.345969745486553"><ele>404.0</ele><time>2026-04-18T13:27:54.999Z</time></trkpt><trkpt lat="43.6466375234058" lon="12.346165676150305"><ele>404.3333333333333</ele><time>2026-04-18T13:27:55.999Z</time></trkpt><trkpt lat="43.646645279277166" lon="12.346383636258093"><ele>404.66666666666663</ele><time>2026-04-18T13:27:56.999Z</time></trkpt><trkpt lat="43.64666504833909" lon="12.346618855887506"><ele>405.0</ele><time>2026-04-18T13:27:57.999Z</time></trkpt><trkpt lat="43.64668477588201" lon="12.346870389160253"><ele>405.0</ele><time>2026-04-18T13:27:58.999Z</time></trkpt><trkpt lat="43.64669440613943" lon="12.347134163523524"><ele>405.0</ele><time>2026-04-18T13:27:59.999Z</time></trkpt><trkpt lat="43.646708318398964" lon="12.3474044484429"><ele>405.0</ele><time>2026-04-18T13:28:00.999Z</time></trkpt><trkpt lat="43.64672065274979" lon="12.347678372717134"><ele>405.66666666666663</ele><time>2026-04-18T13:28:01.999Z</time></trkpt><trkpt lat="43.64672872130917" lon="12.347944041058023"><ele>406.3333333333333</ele><time>2026-04-18T13:28:02.999Z</time></trkpt><trkpt lat="43.64673742584201" lon="12.348200977737221"><ele>407.0</ele><time>2026-04-18T13:28:03.999Z</time></trkpt><trkpt lat="43.64675205501416" lon="12.348448333345553"><ele>407.0</ele><time>2026-04-18T13:28:04.999Z</time></trkpt><trkpt lat="43.64678412984843" lon="12.348690360854839"><ele>407.0</ele><time>2026-04-18T13:28:05.999Z</time></trkpt><trkpt lat="43.646843567596285" lon="12.348930506527902"><ele>407.0</ele><time>2026-04-18T13:28:06.999Z</time></trkpt><trkpt lat="43.64692564229478" lon="12.349175894189933"><ele>405.3333333333333</ele><time>2026-04-18T13:28:07.999Z</time></trkpt><trkpt lat="43.64701673284273" lon="12.349413901102745"><ele>403.66666666666663</ele><time>2026-04-18T13:28:08.999Z</time></trkpt><trkpt lat="43.647105613161195" lon="12.349655695660582"><ele>402.0</ele><time>2026-04-18T13:28:09.999Z</time></trkpt><trkpt lat="43.647193911484834" lon="12.34990458140845"><ele>402.0</ele><time>2026-04-18T13:28:10.999Z</time></trkpt><trkpt lat="43.647266331151364" lon="12.350156448270434"><ele>402.0</ele><time>2026-04-18T13:28:11.999Z</time></trkpt><trkpt lat="43.64733729528959" lon="12.350394340693734"><ele>402.0</ele><time>2026-04-18T13:28:12.999Z</time></trkpt><trkpt lat="43.6473857654545" lon="12.350645395543815"><ele>402.0</ele><time>2026-04-18T13:28:13.999Z</time></trkpt><trkpt lat="43.64741085411072" lon="12.350919227459787"><ele>402.0</ele><time>2026-04-18T13:28:14.999Z</time></trkpt><trkpt lat="43.64743282060066" lon="12.35121465961785"><ele>402.0</ele><time>2026-04-18T13:28:15.999Z</time></trkpt><trkpt lat="43.6474548316413" lon="12.351525375324828"><ele>402.0</ele><time>2026-04-18T13:28:16.999Z</time></trkpt><trkpt lat="43.64747774583418" lon="12.351848840214588"><ele>402.0</ele><time>2026-04-18T13:28:17.999Z</time></trkpt><trkpt lat="43.64750122775064" lon="12.352180319332941"><ele>403.0</ele><time>2026-04-18T13:28:18.999Z</time></trkpt><trkpt lat="43.64752523733373" lon="12.352519247236831"><ele>404.0</ele><time>2026-04-18T13:28:19.999Z</time></trkpt><trkpt lat="43.647548818770005" lon="12.352852131166783"><ele>405.0</ele><time>2026-04-18T13:28:20.999Z</time></trkpt><trkpt lat="43.6475722594933" lon="12.353183028827827"><ele>406.0</ele><time>2026-04-18T13:28:21.999Z</time></trkpt><trkpt lat="43.64759535796698" lon="12.353509095060659"><ele>406.0</ele><time>2026-04-18T13:28:22.999Z</time></trkpt><trkpt lat="43.64761865455655" lon="12.353837958060906"><ele>406.0</ele><time>2026-04-18T13:28:23.999Z</time></trkpt><trkpt lat="43.6476422245005" lon="12.354164714628807"><ele>405.0</ele><time>2026-04-18T13:28:24.999Z</time></trkpt><trkpt lat="43.647665728594035" lon="12.354487515446102"><ele>404.0</ele><time>2026-04-18T13:28:25.999Z</time></trkpt><trkpt lat="43.64769281878426" lon="12.35481316048453"><ele>403.5</ele><time>2026-04-18T13:28:26.999Z</time></trkpt><trkpt lat="43.64773480609873" lon="12.3551310180479"><ele>403.0</ele><time>2026-04-18T13:28:27.999Z</time></trkpt><trkpt lat="43.64779989698897" lon="12.355445582799764"><ele>401.5</ele><time>2026-04-18T13:28:28.999Z</time></trkpt><trkpt lat="43.64783818224681" lon="12.355769993946652"><ele>400.0</ele><time>2026-04-18T13:28:29.999Z</time></trkpt><trkpt lat="43.64789222825901" lon="12.356092368923155"><ele>399.5</ele><time>2026-04-18T13:28:30.999Z</time></trkpt><trkpt lat="43.6479451139924" lon="12.35641321026641"><ele>399.0</ele><time>2026-04-18T13:28:31.999Z</time></trkpt><trkpt lat="43.647999131581315" lon="12.356743555997246"><ele>399.0</ele><time>2026-04-18T13:28:32.999Z</time></trkpt><trkpt lat="43.64805269975229" lon="12.357071067969004"><ele>399.0</ele><time>2026-04-18T13:28:33.999Z</time></trkpt><trkpt lat="43.648106264669146" lon="12.35739857238303"><ele>399.0</ele><time>2026-04-18T13:28:34.999Z</time></trkpt><trkpt lat="43.64816019328254" lon="12.357729552990179"><ele>399.0</ele><time>2026-04-18T13:28:35.999Z</time></trkpt><trkpt lat="43.64821429742221" lon="12.358062266499456"><ele>398.0</ele><time>2026-04-18T13:28:36.999Z</time></trkpt><trkpt lat="43.64826842751828" lon="12.358395139630655"><ele>397.0</ele><time>2026-04-18T13:28:37.999Z</time></trkpt><trkpt lat="43.64832288939618" lon="12.358724903874629"><ele>396.5</ele><time>2026-04-18T13:28:38.999Z</time></trkpt><trkpt lat="43.648377889187195" lon="12.359049731788527"><ele>396.0</ele><time>2026-04-18T13:28:39.999Z</time></trkpt><trkpt lat="43.64842991972306" lon="12.359369563016763"><ele>396.0</ele><time>2026-04-18T13:28:40.999Z</time></trkpt><trkpt lat="43.648478499481214" lon="12.3596693220148"><ele>396.0</ele><time>2026-04-18T13:28:41.999Z</time></trkpt><trkpt lat="43.64852142799082" lon="12.359957100063097"><ele>396.0</ele><time>2026-04-18T13:28:42.999Z</time></trkpt><trkpt lat="43.64855103281335" lon="12.360231091198267"><ele>396.0</ele><time>2026-04-18T13:28:43.999Z</time></trkpt><trkpt lat="43.64856416524338" lon="12.360499439861117"><ele>396.0</ele><time>2026-04-18T13:28:44.999Z</time></trkpt><trkpt lat="43.64860483406133" lon="12.360755117691602"><ele>396.0</ele><time>2026-04-18T13:28:45.999Z</time></trkpt><trkpt lat="43.64863838160573" lon="12.36101452907972"><ele>395.66666666666663</ele><time>2026-04-18T13:28:46.999Z</time></trkpt><trkpt lat="43.64871127723096" lon="12.361270093412415"><ele>395.3333333333333</ele><time>2026-04-18T13:28:47.999Z</time></trkpt><trkpt lat="43.64881025010257" lon="12.361524070020776"><ele>395.0</ele><time>2026-04-18T13:28:48.999Z</time></trkpt><trkpt lat="43.64890464587407" lon="12.361791789676209"><ele>395.0</ele><time>2026-04-18T13:28:49.999Z</time></trkpt><trkpt lat="43.64900300487582" lon="12.362063750807993"><ele>395.0</ele><time>2026-04-18T13:28:50.999Z</time></trkpt><trkpt lat="43.64908565273818" lon="12.362355938680517"><ele>395.0</ele><time>2026-04-18T13:28:51.999Z</time></trkpt><trkpt lat="43.649165775946706" lon="12.362660811690196"><ele>395.5</ele><time>2026-04-18T13:28:52.999Z</time></trkpt><trkpt lat="43.64924603205599" lon="12.362973368230586"><ele>396.0</ele><time>2026-04-18T13:28:53.999Z</time></trkpt><trkpt lat="43.649326390467394" lon="12.36328812927764"><ele>396.5</ele><time>2026-04-18T13:28:54.999Z</time></trkpt><trkpt lat="43.649406827478074" lon="12.363602880150605"><ele>397.0</ele><time>2026-04-18T13:28:55.999Z</time></trkpt><trkpt lat="43.64948755260544" lon="12.363916860723903"><ele>393.5</ele><time>2026-04-18T13:28:56.999Z</time></trkpt><trkpt lat="43.64956853595316" lon="12.364232047364618"><ele>390.0</ele><time>2026-04-18T13:28:57.999Z</time></trkpt><trkpt lat="43.649648551877384" lon="12.364545425611214"><ele>389.5</ele><time>2026-04-18T13:28:58.999Z</time></trkpt><trkpt lat="43.64972815481201" lon="12.364857186362409"><ele>389.0</ele><time>2026-04-18T13:28:59.999Z</time></trkpt><trkpt lat="43.649806681145336" lon="12.365164730731347"><ele>389.0</ele><time>2026-04-18T13:29:00.999Z</time></trkpt><trkpt lat="43.64988534416454" lon="12.36547281038655"><ele>389.0</ele><time>2026-04-18T13:29:01.999Z</time></trkpt><trkpt lat="43.649962119826625" lon="12.365768812327218"><ele>391.5</ele><time>2026-04-18T13:29:02.999Z</time></trkpt><trkpt lat="43.650042151228234" lon="12.366073756213062"><ele>394.0</ele><time>2026-04-18T13:29:03.999Z</time></trkpt><trkpt lat="43.65012970741899" lon="12.366372047337189"><ele>392.5</ele><time>2026-04-18T13:29:05Z</time></trkpt><trkpt lat="43.650237262555784" lon="12.366657935095882"><ele>391.0</ele><time>2026-04-18T13:29:06Z</time></trkpt><trkpt lat="43.65035005371186" lon="12.3669394455715"><ele>392.0</ele><time>2026-04-18T13:29:07Z</time></trkpt><trkpt lat="43.650464371214554" lon="12.367224766636802"><ele>393.0</ele><time>2026-04-18T13:29:08Z</time></trkpt><trkpt lat="43.650575431988834" lon="12.367501958154243"><ele>393.0</ele><time>2026-04-18T13:29:09Z</time></trkpt><trkpt lat="43.6506838304042" lon="12.367729827839229"><ele>393.0</ele><time>2026-04-18T13:29:10Z</time></trkpt><trkpt lat="43.65077673792809" lon="12.367991347524864"><ele>393.0</ele><time>2026-04-18T13:29:11Z</time></trkpt><trkpt lat="43.6508832901594" lon="12.368313599084663"><ele>393.5</ele><time>2026-04-18T13:29:12Z</time></trkpt><trkpt lat="43.651043717296936" lon="12.368618400424133"><ele>394.0</ele><time>2026-04-18T13:29:13Z</time></trkpt><trkpt lat="43.65114610870969" lon="12.36892381838513"><ele>393.0</ele><time>2026-04-18T13:29:14Z</time></trkpt><trkpt lat="43.651258696412626" lon="12.369213965883931"><ele>392.0</ele><time>2026-04-18T13:29:15Z</time></trkpt><trkpt lat="43.65136157925183" lon="12.369504307043268"><ele>391.5</ele><time>2026-04-18T13:29:16Z</time></trkpt><trkpt lat="43.651451265206795" lon="12.369811029221264"><ele>391.0</ele><time>2026-04-18T13:29:17Z</time></trkpt><trkpt lat="43.651534405143465" lon="12.37011369716494"><ele>391.0</ele><time>2026-04-18T13:29:18Z</time></trkpt><trkpt lat="43.65161745996721" lon="12.370416055238993"><ele>391.0</ele><time>2026-04-18T13:29:19Z</time></trkpt><trkpt lat="43.65170127851559" lon="12.370721192590173"><ele>392.5</ele><time>2026-04-18T13:29:20Z</time></trkpt><trkpt lat="43.65178537905854" lon="12.371027354709916"><ele>394.0</ele><time>2026-04-18T13:29:21Z</time></trkpt><trkpt lat="43.65186965347831" lon="12.371334149816494"><ele>395.0</ele><time>2026-04-18T13:29:22Z</time></trkpt><trkpt lat="43.65195558828458" lon="12.371642430932882"><ele>396.0</ele><time>2026-04-18T13:29:23Z</time></trkpt><trkpt lat="43.6520591846194" lon="12.37193895206312"><ele>392.5</ele><time>2026-04-18T13:29:24Z</time></trkpt><trkpt lat="43.65214383748826" lon="12.372243927091617"><ele>389.0</ele><time>2026-04-18T13:29:25Z</time></trkpt><trkpt lat="43.65222823489031" lon="12.372551454035843"><ele>389.0</ele><time>2026-04-18T13:29:26Z</time></trkpt><trkpt lat="43.652303356249696" lon="12.372857582255708"><ele>389.0</ele><time>2026-04-18T13:29:27Z</time></trkpt><trkpt lat="43.65235507123501" lon="12.37314966736079"><ele>388.3333333333333</ele><time>2026-04-18T13:29:28Z</time></trkpt><trkpt lat="43.65238662365027" lon="12.373451865686306"><ele>387.66666666666663</ele><time>2026-04-18T13:29:29Z</time></trkpt><trkpt lat="43.65239989786971" lon="12.373757524302784"><ele>387.0</ele><time>2026-04-18T13:29:30Z</time></trkpt><trkpt lat="43.652408312022665" lon="12.374062843297855"><ele>386.33333333333337</ele><time>2026-04-18T13:29:31Z</time></trkpt><trkpt lat="43.65242002569654" lon="12.374355529801324"><ele>385.6666666666667</ele><time>2026-04-18T13:29:32Z</time></trkpt><trkpt lat="43.65243326665484" lon="12.374629506325046"><ele>385.0</ele><time>2026-04-18T13:29:33Z</time></trkpt><trkpt lat="43.652443818263" lon="12.374892405627323"><ele>385.0</ele><time>2026-04-18T13:29:34Z</time></trkpt><trkpt lat="43.652456387668295" lon="12.375146772486522"><ele>385.0</ele><time>2026-04-18T13:29:35Z</time></trkpt><trkpt lat="43.652478209279586" lon="12.375391758654448"><ele>385.0</ele><time>2026-04-18T13:29:36Z</time></trkpt><trkpt lat="43.652528535002745" lon="12.375597898280345"><ele>385.0</ele><time>2026-04-18T13:29:37Z</time></trkpt><trkpt lat="43.6526216483504" lon="12.375842235657972"><ele>385.0</ele><time>2026-04-18T13:29:38Z</time></trkpt><trkpt lat="43.65273199041159" lon="12.37610064041194"><ele>385.0</ele><time>2026-04-18T13:29:39Z</time></trkpt><trkpt lat="43.65282076417968" lon="12.3763294310765"><ele>383.6666666666667</ele><time>2026-04-18T13:29:40Z</time></trkpt><trkpt lat="43.65291191239989" lon="12.376581645776328"><ele>382.33333333333337</ele><time>2026-04-18T13:29:41Z</time></trkpt><trkpt lat="43.653002557041155" lon="12.376827930957077"><ele>381.0</ele><time>2026-04-18T13:29:42Z</time></trkpt><trkpt lat="43.65309339488082" lon="12.377068696029164"><ele>384.0</ele><time>2026-04-18T13:29:43Z</time></trkpt><trkpt lat="43.653180177744325" lon="12.37730459370873"><ele>387.0</ele><time>2026-04-18T13:29:44Z</time></trkpt><trkpt lat="43.653255837985725" lon="12.377525235487502"><ele>390.0</ele><time>2026-04-18T13:29:45Z</time></trkpt><trkpt lat="43.653318196405586" lon="12.377751979220417"><ele>390.0</ele><time>2026-04-18T13:29:46Z</time></trkpt><trkpt lat="43.653370811730525" lon="12.377994368183897"><ele>390.0</ele><time>2026-04-18T13:29:47Z</time></trkpt><trkpt lat="43.65341556902455" lon="12.378245310623111"><ele>390.0</ele><time>2026-04-18T13:29:48Z</time></trkpt><trkpt lat="43.65346723773844" lon="12.378504926570995"><ele>390.33333333333337</ele><time>2026-04-18T13:29:49Z</time></trkpt><trkpt lat="43.653543216969794" lon="12.378768217895841"><ele>390.6666666666667</ele><time>2026-04-18T13:29:50Z</time></trkpt><trkpt lat="43.65362837883305" lon="12.379031505061057"><ele>391.0</ele><time>2026-04-18T13:29:51Z</time></trkpt><trkpt lat="43.653717337259266" lon="12.379296909801708"><ele>389.33333333333337</ele><time>2026-04-18T13:29:52Z</time></trkpt><trkpt lat="43.653806375880684" lon="12.379566743073408"><ele>387.66666666666663</ele><time>2026-04-18T13:29:53Z</time></trkpt><trkpt lat="43.65389587883738" lon="12.379840430335287"><ele>386.0</ele><time>2026-04-18T13:29:54Z</time></trkpt><trkpt lat="43.65398138397404" lon="12.38011152102815"><ele>386.0</ele><time>2026-04-18T13:29:55Z</time></trkpt><trkpt lat="43.654069837335506" lon="12.380386013125916"><ele>386.0</ele><time>2026-04-18T13:29:56Z</time></trkpt><trkpt lat="43.65416115948533" lon="12.380657768531687"><ele>386.0</ele><time>2026-04-18T13:29:57Z</time></trkpt><trkpt lat="43.654250840701316" lon="12.380930035418178"><ele>386.0</ele><time>2026-04-18T13:29:58Z</time></trkpt><trkpt lat="43.65433772937272" lon="12.381203312902194"><ele>386.0</ele><time>2026-04-18T13:29:59Z</time></trkpt><trkpt lat="43.65442913628939" lon="12.381477594456083"><ele>386.0</ele><time>2026-04-18T13:30:00Z</time></trkpt><trkpt lat="43.654513262770585" lon="12.3817533613554"><ele>386.0</ele><time>2026-04-18T13:30:01Z</time></trkpt><trkpt lat="43.65460239491833" lon="12.38202780377264"><ele>386.0</ele><time>2026-04-18T13:30:02Z</time></trkpt><trkpt lat="43.65469275037002" lon="12.382302889740624"><ele>386.0</ele><time>2026-04-18T13:30:03Z</time></trkpt><trkpt lat="43.654782551864564" lon="12.382577717684496"><ele>386.0</ele><time>2026-04-18T13:30:04Z</time></trkpt><trkpt lat="43.65487042548692" lon="12.382850851652098"><ele>386.0</ele><time>2026-04-18T13:30:05Z</time></trkpt><trkpt lat="43.65495984554834" lon="12.38312222345579"><ele>386.0</ele><time>2026-04-18T13:30:06Z</time></trkpt><trkpt lat="43.6550469079986" lon="12.383392172482585"><ele>386.0</ele><time>2026-04-18T13:30:07Z</time></trkpt><trkpt lat="43.65513240960812" lon="12.383659872823841"><ele>386.0</ele><time>2026-04-18T13:30:08Z</time></trkpt><trkpt lat="43.655214183519924" lon="12.383924711470996"><ele>386.0</ele><time>2026-04-18T13:30:09Z</time></trkpt><trkpt lat="43.6552996622153" lon="12.384190163338527"><ele>386.3333333333333</ele><time>2026-04-18T13:30:10Z</time></trkpt><trkpt lat="43.65538381755955" lon="12.384453758030178"><ele>386.66666666666663</ele><time>2026-04-18T13:30:11Z</time></trkpt><trkpt lat="43.65546829137964" lon="12.38471851157162"><ele>387.0</ele><time>2026-04-18T13:30:12Z</time></trkpt><trkpt lat="43.65555294968161" lon="12.38498314630941"><ele>387.0</ele><time>2026-04-18T13:30:13Z</time></trkpt><trkpt lat="43.65563846866045" lon="12.385248095528038"><ele>387.0</ele><time>2026-04-18T13:30:14Z</time></trkpt><trkpt lat="43.655722783868555" lon="12.3855132401099"><ele>387.0</ele><time>2026-04-18T13:30:15Z</time></trkpt><trkpt lat="43.65580922224182" lon="12.385780632573823"><ele>387.66666666666663</ele><time>2026-04-18T13:30:16Z</time></trkpt><trkpt lat="43.655893017564594" lon="12.386048707782415"><ele>388.3333333333333</ele><time>2026-04-18T13:30:17Z</time></trkpt><trkpt lat="43.655982907304924" lon="12.386318739715922"><ele>389.0</ele><time>2026-04-18T13:30:18Z</time></trkpt><trkpt lat="43.656071501627494" lon="12.386586604122686"><ele>389.0</ele><time>2026-04-18T13:30:19Z</time></trkpt><trkpt lat="43.656156615888534" lon="12.386854783773611"><ele>389.0</ele><time>2026-04-18T13:30:20Z</time></trkpt><trkpt lat="43.65624237037046" lon="12.387125493854334"><ele>389.0</ele><time>2026-04-18T13:30:21Z</time></trkpt><trkpt lat="43.65632790595008" lon="12.387389102935161"><ele>389.0</ele><time>2026-04-18T13:30:22Z</time></trkpt><trkpt lat="43.656415182715065" lon="12.387652422211394"><ele>389.0</ele><time>2026-04-18T13:30:23Z</time></trkpt><trkpt lat="43.656492134532314" lon="12.38790052109752"><ele>389.0</ele><time>2026-04-18T13:30:24Z</time></trkpt><trkpt lat="43.656570818610525" lon="12.388142272043465"><ele>389.0</ele><time>2026-04-18T13:30:25Z</time></trkpt><trkpt lat="43.65664295921605" lon="12.38836789718358"><ele>389.0</ele><time>2026-04-18T13:30:26Z</time></trkpt><trkpt lat="43.65671345781012" lon="12.388590105796993"><ele>389.0</ele><time>2026-04-18T13:30:27Z</time></trkpt><trkpt lat="43.656782368979414" lon="12.388802019875369"><ele>389.0</ele><time>2026-04-18T13:30:28Z</time></trkpt><trkpt lat="43.65684997424942" lon="12.389009047195026"><ele>389.0</ele><time>2026-04-18T13:30:29Z</time></trkpt><trkpt lat="43.65689707360714" lon="12.389217511881613"><ele>389.0</ele><time>2026-04-18T13:30:30Z</time></trkpt><trkpt lat="43.65696893022462" lon="12.389390597645257"><ele>387.75</ele><time>2026-04-18T13:30:31Z</time></trkpt><trkpt lat="43.657025808503406" lon="12.38955989436663"><ele>386.5</ele><time>2026-04-18T13:30:32Z</time></trkpt><trkpt lat="43.65709732840485" lon="12.389709932780836"><ele>385.25</ele><time>2026-04-18T13:30:33Z</time></trkpt><trkpt lat="43.657195969764054" lon="12.389837443725822"><ele>384.0</ele><time>2026-04-18T13:30:34Z</time></trkpt><trkpt lat="43.65731866421829" lon="12.38994007724343"><ele>383.75</ele><time>2026-04-18T13:30:35Z</time></trkpt><trkpt lat="43.657455220997065" lon="12.390023510519"><ele>383.5</ele><time>2026-04-18T13:30:35.999Z</time></trkpt><trkpt lat="43.65759357191485" lon="12.390100227913214"><ele>383.25</ele><time>2026-04-18T13:30:36.999Z</time></trkpt><trkpt lat="43.65772187518542" lon="12.390180799138205"><ele>383.0</ele><time>2026-04-18T13:30:37.999Z</time></trkpt><trkpt lat="43.65783756957444" lon="12.390282715794607"><ele>381.5</ele><time>2026-04-18T13:30:38.999Z</time></trkpt><trkpt lat="43.657954034863266" lon="12.390367567383917"><ele>380.0</ele><time>2026-04-18T13:30:39.999Z</time></trkpt><trkpt lat="43.65806525157674" lon="12.390465339234714"><ele>378.5</ele><time>2026-04-18T13:30:40.999Z</time></trkpt><trkpt lat="43.65816797137422" lon="12.390602259893505"><ele>377.0</ele><time>2026-04-18T13:30:41.999Z</time></trkpt><trkpt lat="43.65824735432853" lon="12.390790795336823"><ele>376.6666666666667</ele><time>2026-04-18T13:30:42.999Z</time></trkpt><trkpt lat="43.658323254158375" lon="12.391019289318866"><ele>376.3333333333333</ele><time>2026-04-18T13:30:43.999Z</time></trkpt><trkpt lat="43.65840061292678" lon="12.391277232134707"><ele>376.0</ele><time>2026-04-18T13:30:44.999Z</time></trkpt><trkpt lat="43.65848531248422" lon="12.391551471849152"><ele>375.66666666666663</ele><time>2026-04-18T13:30:45.999Z</time></trkpt><trkpt lat="43.65857252615837" lon="12.391836673555794"><ele>375.3333333333333</ele><time>2026-04-18T13:30:46.999Z</time></trkpt><trkpt lat="43.65865722641261" lon="12.392116022925299"><ele>375.0</ele><time>2026-04-18T13:30:47.999Z</time></trkpt><trkpt lat="43.65874079088424" lon="12.392392452154466"><ele>375.0</ele><time>2026-04-18T13:30:48.999Z</time></trkpt><trkpt lat="43.658822973922845" lon="12.392663310015296"><ele>375.0</ele><time>2026-04-18T13:30:49.999Z</time></trkpt><trkpt lat="43.65890337348974" lon="12.392926415842444"><ele>375.0</ele><time>2026-04-18T13:30:50.999Z</time></trkpt><trkpt lat="43.658995017337915" lon="12.393182394664901"><ele>375.3333333333333</ele><time>2026-04-18T13:30:51.999Z</time></trkpt><trkpt lat="43.659073917447984" lon="12.393441693391457"><ele>375.66666666666663</ele><time>2026-04-18T13:30:52.999Z</time></trkpt><trkpt lat="43.65915391682976" lon="12.393703015703093"><ele>376.0</ele><time>2026-04-18T13:30:53.999Z</time></trkpt><trkpt lat="43.65923193561771" lon="12.39396338649459"><ele>376.3333333333333</ele><time>2026-04-18T13:30:54.999Z</time></trkpt><trkpt lat="43.659311195810695" lon="12.394223307913261"><ele>376.6666666666667</ele><time>2026-04-18T13:30:55.999Z</time></trkpt><trkpt lat="43.65939039969036" lon="12.394482236983631"><ele>377.0</ele><time>2026-04-18T13:30:56.999Z</time></trkpt><trkpt lat="43.659468915505634" lon="12.394740189808699"><ele>375.6666666666667</ele><time>2026-04-18T13:30:57.999Z</time></trkpt><trkpt lat="43.65954749861951" lon="12.394999480248226"><ele>374.3333333333333</ele><time>2026-04-18T13:30:58.999Z</time></trkpt><trkpt lat="43.659626882582046" lon="12.395261862983457"><ele>373.0</ele><time>2026-04-18T13:30:59.999Z</time></trkpt><trkpt lat="43.65970741294257" lon="12.39552215145004"><ele>372.66666666666663</ele><time>2026-04-18T13:31:00.999Z</time></trkpt><trkpt lat="43.65978678605648" lon="12.395784128667275"><ele>372.3333333333333</ele><time>2026-04-18T13:31:01.999Z</time></trkpt><trkpt lat="43.65986650581259" lon="12.396045143039936"><ele>372.0</ele><time>2026-04-18T13:31:02.999Z</time></trkpt><trkpt lat="43.65994310514825" lon="12.396305159631622"><ele>371.6666666666667</ele><time>2026-04-18T13:31:03.999Z</time></trkpt><trkpt lat="43.66002037007505" lon="12.396564683504254"><ele>371.33333333333337</ele><time>2026-04-18T13:31:04.999Z</time></trkpt><trkpt lat="43.660098670605706" lon="12.396820516585562"><ele>371.0</ele><time>2026-04-18T13:31:05.999Z</time></trkpt><trkpt lat="43.66017847322783" lon="12.397074652172973"><ele>371.33333333333337</ele><time>2026-04-18T13:31:06.999Z</time></trkpt><trkpt lat="43.66025495739894" lon="12.397329222049157"><ele>371.6666666666667</ele><time>2026-04-18T13:31:07.999Z</time></trkpt><trkpt lat="43.66033131675174" lon="12.397578810153279"><ele>372.0</ele><time>2026-04-18T13:31:08.999Z</time></trkpt><trkpt lat="43.66040640498432" lon="12.397825188159382"><ele>371.3333333333333</ele><time>2026-04-18T13:31:09.999Z</time></trkpt><trkpt lat="43.66048090109249" lon="12.398069639933077"><ele>370.66666666666663</ele><time>2026-04-18T13:31:11Z</time></trkpt><trkpt lat="43.66055597078369" lon="12.398311331436087"><ele>370.0</ele><time>2026-04-18T13:31:12Z</time></trkpt><trkpt lat="43.66062890166788" lon="12.39855025878956"><ele>370.0</ele><time>2026-04-18T13:31:13Z</time></trkpt><trkpt lat="43.66070182526794" lon="12.398786584550901"><ele>370.0</ele><time>2026-04-18T13:31:14Z</time></trkpt><trkpt lat="43.66077519540994" lon="12.39902083988768"><ele>370.0</ele><time>2026-04-18T13:31:15Z</time></trkpt><trkpt lat="43.66084682442832" lon="12.39925405381939"><ele>370.0</ele><time>2026-04-18T13:31:16Z</time></trkpt><trkpt lat="43.66092004713338" lon="12.399487111963042"><ele>370.0</ele><time>2026-04-18T13:31:17Z</time></trkpt><trkpt lat="43.660992817833396" lon="12.399720962824025"><ele>370.0</ele><time>2026-04-18T13:31:18Z</time></trkpt><trkpt lat="43.66106759105765" lon="12.39995657180007"><ele>368.66666666666663</ele><time>2026-04-18T13:31:19Z</time></trkpt><trkpt lat="43.66113966833475" lon="12.400185873974818"><ele>367.3333333333333</ele><time>2026-04-18T13:31:20Z</time></trkpt><trkpt lat="43.66121186970616" lon="12.400404686490253"><ele>366.0</ele><time>2026-04-18T13:31:21Z</time></trkpt><trkpt lat="43.66127741571125" lon="12.400609349673303"><ele>366.0</ele><time>2026-04-18T13:31:22Z</time></trkpt><trkpt lat="43.66133568518458" lon="12.400793443437424"><ele>366.0</ele><time>2026-04-18T13:31:23Z</time></trkpt><trkpt lat="43.661377052533005" lon="12.400980200827062"><ele>366.0</ele><time>2026-04-18T13:31:24Z</time></trkpt><trkpt lat="43.66144471168993" lon="12.401137715508607"><ele>366.0</ele><time>2026-04-18T13:31:25Z</time></trkpt><trkpt lat="43.661497796011666" lon="12.401301175111355"><ele>366.25</ele><time>2026-04-18T13:31:26Z</time></trkpt><trkpt lat="43.66154920356642" lon="12.401460941939908"><ele>366.5</ele><time>2026-04-18T13:31:27Z</time></trkpt><trkpt lat="43.66159993312353" lon="12.401618254114894"><ele>366.75</ele><time>2026-04-18T13:31:28Z</time></trkpt><trkpt lat="43.66165153144087" lon="12.401779716761116"><ele>367.0</ele><time>2026-04-18T13:31:29Z</time></trkpt><trkpt lat="43.66170524875713" lon="12.401946619677092"><ele>367.0</ele><time>2026-04-18T13:31:30Z</time></trkpt><trkpt lat="43.661760110280575" lon="12.402118039912112"><ele>367.0</ele><time>2026-04-18T13:31:31Z</time></trkpt><trkpt lat="43.66181830309824" lon="12.402293629613704"><ele>367.0</ele><time>2026-04-18T13:31:32Z</time></trkpt><trkpt lat="43.66187879184166" lon="12.402471987918346"><ele>367.0</ele><time>2026-04-18T13:31:33Z</time></trkpt><trkpt lat="43.661943672653194" lon="12.40265181940227"><ele>367.0</ele><time>2026-04-18T13:31:34Z</time></trkpt><trkpt lat="43.66201326870771" lon="12.402831473295587"><ele>367.0</ele><time>2026-04-18T13:31:35Z</time></trkpt><trkpt lat="43.662082758120505" lon="12.403010600058714"><ele>367.0</ele><time>2026-04-18T13:31:36Z</time></trkpt><trkpt lat="43.6621542404556" lon="12.403188912660664"><ele>367.0</ele><time>2026-04-18T13:31:37Z</time></trkpt><trkpt lat="43.66222516443418" lon="12.40336611889322"><ele>367.0</ele><time>2026-04-18T13:31:38Z</time></trkpt><trkpt lat="43.6622959448162" lon="12.403542535822705"><ele>367.0</ele><time>2026-04-18T13:31:39Z</time></trkpt><trkpt lat="43.66235116543145" lon="12.403730625140673"><ele>367.0</ele><time>2026-04-18T13:31:40Z</time></trkpt><trkpt lat="43.662420237533595" lon="12.403906383829003"><ele>367.0</ele><time>2026-04-18T13:31:41Z</time></trkpt><trkpt lat="43.662502828001884" lon="12.40407019966153"><ele>366.75</ele><time>2026-04-18T13:31:42Z</time></trkpt><trkpt lat="43.662554978865714" lon="12.404249242345644"><ele>366.5</ele><time>2026-04-18T13:31:43Z</time></trkpt><trkpt lat="43.662618872754614" lon="12.404411824709264"><ele>366.25</ele><time>2026-04-18T13:31:44Z</time></trkpt><trkpt lat="43.662681970224554" lon="12.404572380346725"><ele>366.0</ele><time>2026-04-18T13:31:45Z</time></trkpt><trkpt lat="43.66274273500796" lon="12.404730067105648"><ele>365.5</ele><time>2026-04-18T13:31:46Z</time></trkpt><trkpt lat="43.66280460066659" lon="12.404889661529788"><ele>365.0</ele><time>2026-04-18T13:31:47Z</time></trkpt><trkpt lat="43.66286503411421" lon="12.405045561301403"><ele>364.5</ele><time>2026-04-18T13:31:47.999Z</time></trkpt><trkpt lat="43.66292494325261" lon="12.405200108454242"><ele>364.0</ele><time>2026-04-18T13:31:48.999Z</time></trkpt><trkpt lat="43.663002533411934" lon="12.405338730076974"><ele>364.0</ele><time>2026-04-18T13:31:49.999Z</time></trkpt><trkpt lat="43.663060764711815" lon="12.405490891227648"><ele>364.0</ele><time>2026-04-18T13:31:50.999Z</time></trkpt><trkpt lat="43.663116002436766" lon="12.405642963094191"><ele>364.0</ele><time>2026-04-18T13:31:51.999Z</time></trkpt><trkpt lat="43.663172169968796" lon="12.40579173848428"><ele>364.0</ele><time>2026-04-18T13:31:52.999Z</time></trkpt><trkpt lat="43.66322798025432" lon="12.405932901088276"><ele>364.0</ele><time>2026-04-18T13:31:53.999Z</time></trkpt><trkpt lat="43.663269073020935" lon="12.4060788532162"><ele>364.0</ele><time>2026-04-18T13:31:54.999Z</time></trkpt><trkpt lat="43.663326664980154" lon="12.406211951031858"><ele>364.0</ele><time>2026-04-18T13:31:55.999Z</time></trkpt><trkpt lat="43.663385914822726" lon="12.406329664398344"><ele>364.0</ele><time>2026-04-18T13:31:56.999Z</time></trkpt><trkpt lat="43.663424270901906" lon="12.406433134713543"><ele>364.0</ele><time>2026-04-18T13:31:57.999Z</time></trkpt><trkpt lat="43.66345964975989" lon="12.406532681631273"><ele>364.0</ele><time>2026-04-18T13:31:58.999Z</time></trkpt><trkpt lat="43.663490575639734" lon="12.406619699105665"><ele>364.0</ele><time>2026-04-18T13:31:59.999Z</time></trkpt><trkpt lat="43.6635623196509" lon="12.40675611346251"><ele>364.0</ele><time>2026-04-18T13:32:01.999Z</time></trkpt><trkpt lat="43.66369011577718" lon="12.406738857377086"><ele>364.0</ele><time>2026-04-18T13:32:03.999Z</time></trkpt><trkpt lat="43.66373628952568" lon="12.406658889821422"><ele>364.0</ele><time>2026-04-18T13:32:04.999Z</time></trkpt><trkpt lat="43.663842200779804" lon="12.406711842948598"><ele>363.75</ele><time>2026-04-18T13:32:05.999Z</time></trkpt><trkpt lat="43.66393199313775" lon="12.406789555679167"><ele>363.5</ele><time>2026-04-18T13:32:06.999Z</time></trkpt><trkpt lat="43.66404706465784" lon="12.406869798815743"><ele>363.25</ele><time>2026-04-18T13:32:07.999Z</time></trkpt><trkpt lat="43.66416902287255" lon="12.406954844275546"><ele>363.0</ele><time>2026-04-18T13:32:08.999Z</time></trkpt><trkpt lat="43.664289906229335" lon="12.407037532393518"><ele>363.0</ele><time>2026-04-18T13:32:09.999Z</time></trkpt><trkpt lat="43.66442771092267" lon="12.407129067629736"><ele>363.0</ele><time>2026-04-18T13:32:10.999Z</time></trkpt><trkpt lat="43.66456894452912" lon="12.40719769972199"><ele>363.0</ele><time>2026-04-18T13:32:11.999Z</time></trkpt><trkpt lat="43.66471205356816" lon="12.407299920059687"><ele>362.5</ele><time>2026-04-18T13:32:12.999Z</time></trkpt><trkpt lat="43.66484775895693" lon="12.407394141407488"><ele>362.0</ele><time>2026-04-18T13:32:13.999Z</time></trkpt><trkpt lat="43.66497183038283" lon="12.407502012076314"><ele>361.5</ele><time>2026-04-18T13:32:14.999Z</time></trkpt><trkpt lat="43.66511259787999" lon="12.407571231251428"><ele>361.0</ele><time>2026-04-18T13:32:15.999Z</time></trkpt><trkpt lat="43.665242095915" lon="12.407662428937675"><ele>361.0</ele><time>2026-04-18T13:32:16.999Z</time></trkpt><trkpt lat="43.66537043910041" lon="12.407752523232677"><ele>361.0</ele><time>2026-04-18T13:32:17.999Z</time></trkpt><trkpt lat="43.665498366631844" lon="12.407841579985247"><ele>361.0</ele><time>2026-04-18T13:32:18.999Z</time></trkpt><trkpt lat="43.66562670451594" lon="12.407928533061103"><ele>361.0</ele><time>2026-04-18T13:32:19.999Z</time></trkpt><trkpt lat="43.66575716785811" lon="12.408016440677937"><ele>360.25</ele><time>2026-04-18T13:32:20.999Z</time></trkpt><trkpt lat="43.6658847853794" lon="12.408106293836578"><ele>359.5</ele><time>2026-04-18T13:32:21.999Z</time></trkpt><trkpt lat="43.66601243391769" lon="12.408193885100246"><ele>358.75</ele><time>2026-04-18T13:32:22.999Z</time></trkpt><trkpt lat="43.66614089780449" lon="12.408279746947684"><ele>358.0</ele><time>2026-04-18T13:32:23.999Z</time></trkpt><trkpt lat="43.666270127126026" lon="12.408370536066705"><ele>356.66666666666663</ele><time>2026-04-18T13:32:24.999Z</time></trkpt><trkpt lat="43.66639861481381" lon="12.408471190343246"><ele>355.3333333333333</ele><time>2026-04-18T13:32:25.999Z</time></trkpt><trkpt lat="43.666530283114" lon="12.408599159394724"><ele>354.0</ele><time>2026-04-18T13:32:26.999Z</time></trkpt><trkpt lat="43.666630530581685" lon="12.40879855274389"><ele>354.0</ele><time>2026-04-18T13:32:27.999Z</time></trkpt><trkpt lat="43.66668127491416" lon="12.409031532322492"><ele>354.0</ele><time>2026-04-18T13:32:28.999Z</time></trkpt><trkpt lat="43.66670220839229" lon="12.409283914972049"><ele>354.0</ele><time>2026-04-18T13:32:29.999Z</time></trkpt><trkpt lat="43.66669296170008" lon="12.409184512967073"><ele>354.0</ele><time>2026-04-18T13:32:30.999Z</time></trkpt><trkpt lat="43.666709017706765" lon="12.409357115010275"><ele>354.0</ele><time>2026-04-18T13:32:31.999Z</time></trkpt><trkpt lat="43.66672472588885" lon="12.4095259780045"><ele>354.0</ele><time>2026-04-18T13:32:32.999Z</time></trkpt><trkpt lat="43.66674053857034" lon="12.409698102552493"><ele>354.0</ele><time>2026-04-18T13:32:33.999Z</time></trkpt><trkpt lat="43.66675563942358" lon="12.409865422539845"><ele>354.0</ele><time>2026-04-18T13:32:34.998Z</time></trkpt><trkpt lat="43.66676981710709" lon="12.410022872870464"><ele>354.4</ele><time>2026-04-18T13:32:35.998Z</time></trkpt><trkpt lat="43.666783705416925" lon="12.41017710956446"><ele>354.79999999999995</ele><time>2026-04-18T13:32:36.998Z</time></trkpt><trkpt lat="43.666797433375336" lon="12.410324221304228"><ele>355.20000000000005</ele><time>2026-04-18T13:32:37.998Z</time></trkpt><trkpt lat="43.666810128898106" lon="12.410461397130847"><ele>355.6</ele><time>2026-04-18T13:32:38.998Z</time></trkpt><trkpt lat="43.666822341609" lon="12.410597167504603"><ele>356.0</ele><time>2026-04-18T13:32:39.998Z</time></trkpt><trkpt lat="43.66683472212666" lon="12.410735656565835"><ele>356.0</ele><time>2026-04-18T13:32:40.998Z</time></trkpt><trkpt lat="43.66684673032414" lon="12.410869980825128"><ele>356.0</ele><time>2026-04-18T13:32:41.998Z</time></trkpt><trkpt lat="43.66685774381719" lon="12.41099819780447"><ele>356.0</ele><time>2026-04-18T13:32:42.998Z</time></trkpt><trkpt lat="43.66686815151638" lon="12.411119963603996"><ele>356.0</ele><time>2026-04-18T13:32:43.998Z</time></trkpt><trkpt lat="43.666873905260594" lon="12.411219220645027"><ele>356.0</ele><time>2026-04-18T13:32:44.998Z</time></trkpt><trkpt lat="43.666868493028645" lon="12.411369525144284"><ele>355.6</ele><time>2026-04-18T13:32:46.998Z</time></trkpt><trkpt lat="43.66678694079195" lon="12.411468906579127"><ele>355.20000000000005</ele><time>2026-04-18T13:32:48.998Z</time></trkpt><trkpt lat="43.666725767326994" lon="12.411583833792381"><ele>354.79999999999995</ele><time>2026-04-18T13:32:50.998Z</time></trkpt><trkpt lat="43.66674800145792" lon="12.411672299971322"><ele>354.4</ele><time>2026-04-18T13:32:51.998Z</time></trkpt><trkpt lat="43.66681975747616" lon="12.411747030178866"><ele>354.0</ele><time>2026-04-18T13:32:52.998Z</time></trkpt><trkpt lat="43.66689082235144" lon="12.411797986819922"><ele>354.0</ele><time>2026-04-18T13:32:53.998Z</time></trkpt><trkpt lat="43.66694249935793" lon="12.41190955692544"><ele>354.0</ele><time>2026-04-18T13:32:54.998Z</time></trkpt><trkpt lat="43.666978286957224" lon="12.41202868713003"><ele>354.0</ele><time>2026-04-18T13:32:55.998Z</time></trkpt><trkpt lat="43.66696210895036" lon="12.412174542625541"><ele>354.0</ele><time>2026-04-18T13:32:56.998Z</time></trkpt><trkpt lat="43.66697460503345" lon="12.412316077457774"><ele>354.0</ele><time>2026-04-18T13:32:57.998Z</time></trkpt><trkpt lat="43.66698662338071" lon="12.412452201306685"><ele>354.79999999999995</ele><time>2026-04-18T13:32:58.998Z</time></trkpt><trkpt lat="43.66699853810898" lon="12.41258715151628"><ele>355.59999999999997</ele><time>2026-04-18T13:32:59.998Z</time></trkpt><trkpt lat="43.66701048507189" lon="12.412722466844857"><ele>356.4</ele><time>2026-04-18T13:33:00.998Z</time></trkpt><trkpt lat="43.66702340387278" lon="12.412868789523088"><ele>357.2</ele><time>2026-04-18T13:33:01.998Z</time></trkpt><trkpt lat="43.667036405588796" lon="12.413016051326624"><ele>358.0</ele><time>2026-04-18T13:33:02.998Z</time></trkpt><trkpt lat="43.66704914985207" lon="12.413160397124377"><ele>358.0</ele><time>2026-04-18T13:33:03.998Z</time></trkpt><trkpt lat="43.667062191309725" lon="12.413310127113503"><ele>358.0</ele><time>2026-04-18T13:33:04.998Z</time></trkpt><trkpt lat="43.66707551677547" lon="12.4134634103609"><ele>358.0</ele><time>2026-04-18T13:33:05.998Z</time></trkpt><trkpt lat="43.66708920174578" lon="12.413620103984712"><ele>358.0</ele><time>2026-04-18T13:33:06.998Z</time></trkpt><trkpt lat="43.66712884387885" lon="12.413772832938728"><ele>357.59999999999997</ele><time>2026-04-18T13:33:07.998Z</time></trkpt><trkpt lat="43.66714429543582" lon="12.413919534909418"><ele>357.2</ele><time>2026-04-18T13:33:08.998Z</time></trkpt><trkpt lat="43.66714542303923" lon="12.414052461162523"><ele>356.8</ele><time>2026-04-18T13:33:09.998Z</time></trkpt><trkpt lat="43.66715680278148" lon="12.414178266415188"><ele>356.4</ele><time>2026-04-18T13:33:10.998Z</time></trkpt><trkpt lat="43.6671698518617" lon="12.414302738532905"><ele>356.0</ele><time>2026-04-18T13:33:11.998Z</time></trkpt><trkpt lat="43.667181701323464" lon="12.414430049623968"><ele>356.0</ele><time>2026-04-18T13:33:12.998Z</time></trkpt><trkpt lat="43.66720035318386" lon="12.414561219798673"><ele>356.0</ele><time>2026-04-18T13:33:13.998Z</time></trkpt><trkpt lat="43.667222119030995" lon="12.414691146825154"><ele>356.0</ele><time>2026-04-18T13:33:14.998Z</time></trkpt><trkpt lat="43.667250721822" lon="12.414822044840978"><ele>356.0</ele><time>2026-04-18T13:33:15.998Z</time></trkpt><trkpt lat="43.66728025479662" lon="12.414939768607901"><ele>356.0</ele><time>2026-04-18T13:33:16.999Z</time></trkpt><trkpt lat="43.667304484404745" lon="12.415054577611013"><ele>356.20000000000005</ele><time>2026-04-18T13:33:17.999Z</time></trkpt><trkpt lat="43.66733453938916" lon="12.41517104729804"><ele>356.40000000000003</ele><time>2026-04-18T13:33:18.999Z</time></trkpt><trkpt lat="43.66737288877139" lon="12.415300461253649"><ele>356.6</ele><time>2026-04-18T13:33:19.999Z</time></trkpt><trkpt lat="43.667411841862375" lon="12.415452366850927"><ele>356.8</ele><time>2026-04-18T13:33:20.999Z</time></trkpt><trkpt lat="43.66745585851852" lon="12.415622172834084"><ele>357.0</ele><time>2026-04-18T13:33:21.999Z</time></trkpt><trkpt lat="43.66747941519453" lon="12.415818031792032"><ele>357.25</ele><time>2026-04-18T13:33:22.999Z</time></trkpt><trkpt lat="43.66753548787578" lon="12.41599332085166"><ele>357.5</ele><time>2026-04-18T13:33:23.999Z</time></trkpt><trkpt lat="43.667597833823024" lon="12.416157764981598"><ele>357.75</ele><time>2026-04-18T13:33:24.999Z</time></trkpt><trkpt lat="43.66767348977426" lon="12.41630102582403"><ele>358.0</ele><time>2026-04-18T13:33:25.999Z</time></trkpt><trkpt lat="43.66771584234051" lon="12.416454652286964"><ele>357.59999999999997</ele><time>2026-04-18T13:33:26.999Z</time></trkpt><trkpt lat="43.66777034212284" lon="12.416591972819012"><ele>357.2</ele><time>2026-04-18T13:33:27.999Z</time></trkpt><trkpt lat="43.66782161519071" lon="12.41672156219435"><ele>356.8</ele><time>2026-04-18T13:33:28.999Z</time></trkpt><trkpt lat="43.66787088844417" lon="12.416846908044773"><ele>356.4</ele><time>2026-04-18T13:33:29.999Z</time></trkpt><trkpt lat="43.667918818912085" lon="12.416970502633957"><ele>356.0</ele><time>2026-04-18T13:33:30.999Z</time></trkpt><trkpt lat="43.66796834986085" lon="12.417098602282628"><ele>356.6</ele><time>2026-04-18T13:33:31.999Z</time></trkpt><trkpt lat="43.66802859974971" lon="12.417224358244347"><ele>357.20000000000005</ele><time>2026-04-18T13:33:32.999Z</time></trkpt><trkpt lat="43.66807806706527" lon="12.417365118812032"><ele>357.79999999999995</ele><time>2026-04-18T13:33:33.999Z</time></trkpt><trkpt lat="43.668131463965246" lon="12.417500816807319"><ele>358.4</ele><time>2026-04-18T13:33:34.999Z</time></trkpt><trkpt lat="43.66818769197713" lon="12.417635646619829"><ele>359.0</ele><time>2026-04-18T13:33:35.999Z</time></trkpt><trkpt lat="43.66824391911283" lon="12.417768901478246"><ele>359.0</ele><time>2026-04-18T13:33:36.999Z</time></trkpt><trkpt lat="43.66829741855245" lon="12.41789823703114"><ele>359.0</ele><time>2026-04-18T13:33:37.999Z</time></trkpt><trkpt lat="43.66835573590405" lon="12.4180235717423"><ele>359.0</ele><time>2026-04-18T13:33:38.999Z</time></trkpt><trkpt lat="43.66841642747282" lon="12.418143290987597"><ele>359.0</ele><time>2026-04-18T13:33:39.999Z</time></trkpt><trkpt lat="43.668478827978426" lon="12.418257491091328"><ele>359.0</ele><time>2026-04-18T13:33:40.999Z</time></trkpt><trkpt lat="43.668544154937486" lon="12.418375366606435"><ele>358.75</ele><time>2026-04-18T13:33:41.999Z</time></trkpt><trkpt lat="43.66861282084701" lon="12.41849411788024"><ele>358.5</ele><time>2026-04-18T13:33:42.999Z</time></trkpt><trkpt lat="43.668686159764036" lon="12.418619331112168"><ele>358.25</ele><time>2026-04-18T13:33:43.999Z</time></trkpt><trkpt lat="43.668763935177424" lon="12.41874684703316"><ele>358.0</ele><time>2026-04-18T13:33:44.999Z</time></trkpt><trkpt lat="43.668846047057635" lon="12.418885846721706"><ele>356.75</ele><time>2026-04-18T13:33:45.999Z</time></trkpt><trkpt lat="43.66893884069723" lon="12.419035968182099"><ele>355.5</ele><time>2026-04-18T13:33:46.999Z</time></trkpt><trkpt lat="43.66902053819112" lon="12.419188329200352"><ele>354.25</ele><time>2026-04-18T13:33:47.999Z</time></trkpt><trkpt lat="43.66910267430687" lon="12.419327957358254"><ele>353.0</ele><time>2026-04-18T13:33:48.999Z</time></trkpt><trkpt lat="43.66917431769913" lon="12.419479666750842"><ele>353.0</ele><time>2026-04-18T13:33:49.999Z</time></trkpt><trkpt lat="43.669200108898735" lon="12.419668483637851"><ele>353.0</ele><time>2026-04-18T13:33:50.999Z</time></trkpt><trkpt lat="43.669237045834116" lon="12.419859405998814"><ele>353.0</ele><time>2026-04-18T13:33:51.999Z</time></trkpt><trkpt lat="43.66925489528341" lon="12.420065365042877"><ele>353.0</ele><time>2026-04-18T13:33:52.999Z</time></trkpt><trkpt lat="43.66927678721163" lon="12.420290341928851"><ele>353.0</ele><time>2026-04-18T13:33:53.999Z</time></trkpt><trkpt lat="43.669301599506746" lon="12.420529450778702"><ele>353.0</ele><time>2026-04-18T13:33:54.999Z</time></trkpt><trkpt lat="43.66932989366376" lon="12.420779598615"><ele>353.0</ele><time>2026-04-18T13:33:55.999Z</time></trkpt><trkpt lat="43.66936266728457" lon="12.421031382559791"><ele>353.0</ele><time>2026-04-18T13:33:56.999Z</time></trkpt><trkpt lat="43.66937391628308" lon="12.421282059774544"><ele>353.0</ele><time>2026-04-18T13:33:57.999Z</time></trkpt><trkpt lat="43.66941708144605" lon="12.421533219197972"><ele>353.0</ele><time>2026-04-18T13:33:58.999Z</time></trkpt><trkpt lat="43.669428505468815" lon="12.42179820071766"><ele>354.0</ele><time>2026-04-18T13:33:59.999Z</time></trkpt><trkpt lat="43.66947235941768" lon="12.422060220402946"><ele>355.0</ele><time>2026-04-18T13:34:00.999Z</time></trkpt><trkpt lat="43.66949783117362" lon="12.422329484630422"><ele>356.0</ele><time>2026-04-18T13:34:01.999Z</time></trkpt><trkpt lat="43.66951469023278" lon="12.422602705671139"><ele>356.0</ele><time>2026-04-18T13:34:02.999Z</time></trkpt><trkpt lat="43.66950160096173" lon="12.42287883914846"><ele>356.0</ele><time>2026-04-18T13:34:03.999Z</time></trkpt><trkpt lat="43.66949692144844" lon="12.423159533938748"><ele>356.0</ele><time>2026-04-18T13:34:04.999Z</time></trkpt><trkpt lat="43.66950181092881" lon="12.423443556371515"><ele>355.0</ele><time>2026-04-18T13:34:05.999Z</time></trkpt><trkpt lat="43.66949035447672" lon="12.423727598043937"><ele>354.0</ele><time>2026-04-18T13:34:06.999Z</time></trkpt><trkpt lat="43.66948278017278" lon="12.424014373390582"><ele>353.0</ele><time>2026-04-18T13:34:07.999Z</time></trkpt><trkpt lat="43.66945934461519" lon="12.424299277188041"><ele>352.0</ele><time>2026-04-18T13:34:08.999Z</time></trkpt><trkpt lat="43.66945107300832" lon="12.424579304914635"><ele>351.0</ele><time>2026-04-18T13:34:09.999Z</time></trkpt><trkpt lat="43.669450696472225" lon="12.42486416476928"><ele>350.0</ele><time>2026-04-18T13:34:10.999Z</time></trkpt><trkpt lat="43.66949034839203" lon="12.425160771593422"><ele>350.0</ele><time>2026-04-18T13:34:11.999Z</time></trkpt><trkpt lat="43.66953171036807" lon="12.425461654459436"><ele>350.0</ele><time>2026-04-18T13:34:12.999Z</time></trkpt><trkpt lat="43.669593246595205" lon="12.425754146716425"><ele>350.0</ele><time>2026-04-18T13:34:13.999Z</time></trkpt><trkpt lat="43.66963798219776" lon="12.426046218091212"><ele>350.0</ele><time>2026-04-18T13:34:14.999Z</time></trkpt><trkpt lat="43.669693415821264" lon="12.426331642326959"><ele>350.0</ele><time>2026-04-18T13:34:15.999Z</time></trkpt><trkpt lat="43.669749896944566" lon="12.426617978351732"><ele>350.0</ele><time>2026-04-18T13:34:16.999Z</time></trkpt><trkpt lat="43.669805682081815" lon="12.426900785161017"><ele>349.33333333333337</ele><time>2026-04-18T13:34:17.999Z</time></trkpt><trkpt lat="43.66987683172631" lon="12.42717820967567"><ele>348.6666666666667</ele><time>2026-04-18T13:34:18.999Z</time></trkpt><trkpt lat="43.669932781636604" lon="12.427458137468788"><ele>348.0</ele><time>2026-04-18T13:34:19.999Z</time></trkpt><trkpt lat="43.66998365611584" lon="12.427724376274284"><ele>348.0</ele><time>2026-04-18T13:34:20.999Z</time></trkpt><trkpt lat="43.67002859044732" lon="12.42797682134087"><ele>348.0</ele><time>2026-04-18T13:34:21.999Z</time></trkpt><trkpt lat="43.67006956036765" lon="12.428214906840998"><ele>348.0</ele><time>2026-04-18T13:34:22.999Z</time></trkpt><trkpt lat="43.6701075700426" lon="12.428445839887612"><ele>348.0</ele><time>2026-04-18T13:34:23.999Z</time></trkpt><trkpt lat="43.670142746259444" lon="12.428661369549452"><ele>348.0</ele><time>2026-04-18T13:34:24.999Z</time></trkpt><trkpt lat="43.67017663983368" lon="12.428859647601755"><ele>348.0</ele><time>2026-04-18T13:34:25.999Z</time></trkpt><trkpt lat="43.67019080590907" lon="12.429054406255073"><ele>348.0</ele><time>2026-04-18T13:34:26.999Z</time></trkpt><trkpt lat="43.670234742354054" lon="12.429238140027138"><ele>347.75</ele><time>2026-04-18T13:34:27.999Z</time></trkpt><trkpt lat="43.67026067406919" lon="12.429428509393322"><ele>347.5</ele><time>2026-04-18T13:34:28.999Z</time></trkpt><trkpt lat="43.670291718158495" lon="12.429619406631698"><ele>347.25</ele><time>2026-04-18T13:34:29.999Z</time></trkpt><trkpt lat="43.670324930292345" lon="12.429807999907268"><ele>347.0</ele><time>2026-04-18T13:34:30.999Z</time></trkpt><trkpt lat="43.67033964297022" lon="12.429990199157112"><ele>346.6</ele><time>2026-04-18T13:34:31.999Z</time></trkpt><trkpt lat="43.67036569834334" lon="12.430150532420189"><ele>346.20000000000005</ele><time>2026-04-18T13:34:32.999Z</time></trkpt><trkpt lat="43.670389429928335" lon="12.430296566137626"><ele>345.8</ele><time>2026-04-18T13:34:33.999Z</time></trkpt><trkpt lat="43.6704122611961" lon="12.430434843548605"><ele>345.4</ele><time>2026-04-18T13:34:34.999Z</time></trkpt><trkpt lat="43.67043292377843" lon="12.430562964827363"><ele>345.0</ele><time>2026-04-18T13:34:35.999Z</time></trkpt><trkpt lat="43.67045158451142" lon="12.430680997771699"><ele>344.6</ele><time>2026-04-18T13:34:36.999Z</time></trkpt><trkpt lat="43.670467047395974" lon="12.430776151478376"><ele>344.2</ele><time>2026-04-18T13:34:37.999Z</time></trkpt><trkpt lat="43.670484569687844" lon="12.430882141945437"><ele>343.79999999999995</ele><time>2026-04-18T13:34:39.999Z</time></trkpt><trkpt lat="43.67067343464144" lon="12.430782882279109"><ele>343.4</ele><time>2026-04-18T13:34:41.999Z</time></trkpt><trkpt lat="43.670739214462685" lon="12.430714079380824"><ele>343.0</ele><time>2026-04-18T13:34:42.999Z</time></trkpt><trkpt lat="43.670821399702824" lon="12.430645335355905"><ele>343.0</ele><time>2026-04-18T13:34:43.999Z</time></trkpt><trkpt lat="43.67092168699339" lon="12.430576317857717"><ele>343.0</ele><time>2026-04-18T13:34:44.999Z</time></trkpt><trkpt lat="43.671038618910146" lon="12.43052817569823"><ele>343.0</ele><time>2026-04-18T13:34:45.999Z</time></trkpt><trkpt lat="43.67115865123785" lon="12.430507694247817"><ele>343.0</ele><time>2026-04-18T13:34:46.999Z</time></trkpt><trkpt lat="43.67128289830119" lon="12.430514466178762"><ele>343.5</ele><time>2026-04-18T13:34:47.999Z</time></trkpt><trkpt lat="43.67140390918563" lon="12.430552058619142"><ele>344.0</ele><time>2026-04-18T13:34:48.999Z</time></trkpt><trkpt lat="43.67151439464578" lon="12.430586357069435"><ele>344.5</ele><time>2026-04-18T13:34:49.999Z</time></trkpt><trkpt lat="43.67162529093939" lon="12.43056999980744"><ele>345.0</ele><time>2026-04-18T13:34:50.999Z</time></trkpt><trkpt lat="43.67174375801557" lon="12.430540159179765"><ele>344.6666666666667</ele><time>2026-04-18T13:34:51.999Z</time></trkpt><trkpt lat="43.67184083123052" lon="12.43037318872516"><ele>344.33333333333337</ele><time>2026-04-18T13:34:52.999Z</time></trkpt><trkpt lat="43.67194801105021" lon="12.430212646747128"><ele>344.0</ele><time>2026-04-18T13:34:53.999Z</time></trkpt><trkpt lat="43.67206836132009" lon="12.430038714610513"><ele>344.0</ele><time>2026-04-18T13:34:54.999Z</time></trkpt><trkpt lat="43.672190976198166" lon="12.42988356687841"><ele>344.0</ele><time>2026-04-18T13:34:55.999Z</time></trkpt><trkpt lat="43.67230898401414" lon="12.429722496981913"><ele>344.0</ele><time>2026-04-18T13:34:56.999Z</time></trkpt><trkpt lat="43.67242806536915" lon="12.429562880102631"><ele>344.6666666666667</ele><time>2026-04-18T13:34:57.999Z</time></trkpt><trkpt lat="43.67254340250554" lon="12.429407723356901"><ele>345.3333333333333</ele><time>2026-04-18T13:34:58.999Z</time></trkpt><trkpt lat="43.672666111664704" lon="12.429277659042155"><ele>346.0</ele><time>2026-04-18T13:34:59.999Z</time></trkpt><trkpt lat="43.672767639918185" lon="12.42914624935666"><ele>347.0</ele><time>2026-04-18T13:35:00.999Z</time></trkpt><trkpt lat="43.67285959478953" lon="12.42902695482685"><ele>348.0</ele><time>2026-04-18T13:35:01.999Z</time></trkpt><trkpt lat="43.67293804537913" lon="12.42891921510533"><ele>349.0</ele><time>2026-04-18T13:35:02.999Z</time></trkpt><trkpt lat="43.67302879852947" lon="12.428875317091316"><ele>350.0</ele><time>2026-04-18T13:35:03.999Z</time></trkpt><trkpt lat="43.673121837924356" lon="12.428920001173719"><ele>351.0</ele><time>2026-04-18T13:35:04.999Z</time></trkpt><trkpt lat="43.67320782430939" lon="12.429002112931613"><ele>351.0</ele><time>2026-04-18T13:35:05.999Z</time></trkpt><trkpt lat="43.67327934920677" lon="12.42910660900373"><ele>351.0</ele><time>2026-04-18T13:35:06.999Z</time></trkpt><trkpt lat="43.67335817270437" lon="12.429268782322355"><ele>351.0</ele><time>2026-04-18T13:35:07.999Z</time></trkpt><trkpt lat="43.67345531835426" lon="12.42942228995024"><ele>351.0</ele><time>2026-04-18T13:35:08.999Z</time></trkpt><trkpt lat="43.67355023400611" lon="12.429576253788813"><ele>350.75</ele><time>2026-04-18T13:35:09.999Z</time></trkpt><trkpt lat="43.6736538529831" lon="12.42972359153213"><ele>350.5</ele><time>2026-04-18T13:35:10.999Z</time></trkpt><trkpt lat="43.673746446300335" lon="12.42986873777792"><ele>350.25</ele><time>2026-04-18T13:35:11.999Z</time></trkpt><trkpt lat="43.67388156159065" lon="12.429953076435673"><ele>350.0</ele><time>2026-04-18T13:35:12.999Z</time></trkpt><trkpt lat="43.67404337261479" lon="12.429963936620664"><ele>350.0</ele><time>2026-04-18T13:35:13.999Z</time></trkpt><trkpt lat="43.674192362999946" lon="12.429931122443426"><ele>350.0</ele><time>2026-04-18T13:35:14.999Z</time></trkpt><trkpt lat="43.67433288744475" lon="12.429921838017533"><ele>350.0</ele><time>2026-04-18T13:35:15.999Z</time></trkpt><trkpt lat="43.6744433413941" lon="12.429962605118943"><ele>350.0</ele><time>2026-04-18T13:35:16.999Z</time></trkpt><trkpt lat="43.674523277774725" lon="12.430079508705647"><ele>350.75</ele><time>2026-04-18T13:35:17.999Z</time></trkpt><trkpt lat="43.67462007449708" lon="12.430213053767273"><ele>351.5</ele><time>2026-04-18T13:35:18.999Z</time></trkpt><trkpt lat="43.67472360290985" lon="12.430367176771684"><ele>352.25</ele><time>2026-04-18T13:35:19.999Z</time></trkpt><trkpt lat="43.674831869512744" lon="12.430528618905731"><ele>353.0</ele><time>2026-04-18T13:35:20.999Z</time></trkpt><trkpt lat="43.67493288359527" lon="12.43067924585703"><ele>353.0</ele><time>2026-04-18T13:35:21.999Z</time></trkpt><trkpt lat="43.67504394480073" lon="12.430773288522664"><ele>353.0</ele><time>2026-04-18T13:35:23Z</time></trkpt><trkpt lat="43.67515495886423" lon="12.430822735549109"><ele>353.0</ele><time>2026-04-18T13:35:24Z</time></trkpt><trkpt lat="43.67529309021497" lon="12.430807775992044"><ele>353.0</ele><time>2026-04-18T13:35:25Z</time></trkpt><trkpt lat="43.67543744124195" lon="12.430766788986938"><ele>354.6666666666667</ele><time>2026-04-18T13:35:26Z</time></trkpt><trkpt lat="43.67559116414109" lon="12.43081973344203"><ele>356.3333333333333</ele><time>2026-04-18T13:35:27Z</time></trkpt><trkpt lat="43.67575061464998" lon="12.430917532572854"><ele>358.0</ele><time>2026-04-18T13:35:28Z</time></trkpt><trkpt lat="43.67591566473004" lon="12.431031545409544"><ele>358.0</ele><time>2026-04-18T13:35:29Z</time></trkpt><trkpt lat="43.676069577788596" lon="12.431142889693179"><ele>358.0</ele><time>2026-04-18T13:35:30Z</time></trkpt><trkpt lat="43.67623480021608" lon="12.431243529647103"><ele>358.0</ele><time>2026-04-18T13:35:31Z</time></trkpt><trkpt lat="43.67641169771881" lon="12.431366934208521"><ele>359.0</ele><time>2026-04-18T13:35:32Z</time></trkpt><trkpt lat="43.67660864802004" lon="12.431437080762025"><ele>360.0</ele><time>2026-04-18T13:35:33Z</time></trkpt><trkpt lat="43.67679905246653" lon="12.431504438313704"><ele>361.0</ele><time>2026-04-18T13:35:34Z</time></trkpt><trkpt lat="43.67698037880125" lon="12.431614410460487"><ele>362.66666666666663</ele><time>2026-04-18T13:35:35Z</time></trkpt><trkpt lat="43.67716721103116" lon="12.431729040410946"><ele>364.3333333333333</ele><time>2026-04-18T13:35:36Z</time></trkpt><trkpt lat="43.67735069386159" lon="12.431845825586928"><ele>366.0</ele><time>2026-04-18T13:35:37Z</time></trkpt><trkpt lat="43.67753398078915" lon="12.431964962082212"><ele>366.0</ele><time>2026-04-18T13:35:38Z</time></trkpt><trkpt lat="43.67771049315199" lon="12.432064079266773"><ele>366.0</ele><time>2026-04-18T13:35:39Z</time></trkpt><trkpt lat="43.67788270431918" lon="12.432182695585565"><ele>366.0</ele><time>2026-04-18T13:35:40Z</time></trkpt><trkpt lat="43.6780525735714" lon="12.432308668182449"><ele>367.0</ele><time>2026-04-18T13:35:41Z</time></trkpt><trkpt lat="43.67820479297632" lon="12.432452228041269"><ele>368.0</ele><time>2026-04-18T13:35:42Z</time></trkpt><trkpt lat="43.67835505065995" lon="12.432592998575243"><ele>369.0</ele><time>2026-04-18T13:35:43Z</time></trkpt><trkpt lat="43.67852233647861" lon="12.432766829991294"><ele>369.6666666666667</ele><time>2026-04-18T13:35:44Z</time></trkpt><trkpt lat="43.6786818054473" lon="12.432927353759444"><ele>370.33333333333337</ele><time>2026-04-18T13:35:45Z</time></trkpt><trkpt lat="43.678826512885514" lon="12.433115636914893"><ele>371.0</ele><time>2026-04-18T13:35:46Z</time></trkpt><trkpt lat="43.678971408607154" lon="12.433307005666093"><ele>371.0</ele><time>2026-04-18T13:35:47Z</time></trkpt><trkpt lat="43.679116815305754" lon="12.433500002077928"><ele>371.0</ele><time>2026-04-18T13:35:48Z</time></trkpt><trkpt lat="43.67926435345995" lon="12.433694498654116"><ele>371.0</ele><time>2026-04-18T13:35:49Z</time></trkpt><trkpt lat="43.679405984671824" lon="12.433880915070224"><ele>371.6666666666667</ele><time>2026-04-18T13:35:50Z</time></trkpt><trkpt lat="43.67952518292081" lon="12.434068960865453"><ele>372.3333333333333</ele><time>2026-04-18T13:35:51Z</time></trkpt><trkpt lat="43.67964662362616" lon="12.434228662839704"><ele>373.0</ele><time>2026-04-18T13:35:52Z</time></trkpt><trkpt lat="43.67977534097021" lon="12.434365056710773"><ele>373.0</ele><time>2026-04-18T13:35:53Z</time></trkpt><trkpt lat="43.679892860476045" lon="12.434515296709884"><ele>373.0</ele><time>2026-04-18T13:35:54Z</time></trkpt><trkpt lat="43.68001918796824" lon="12.434660259069675"><ele>373.0</ele><time>2026-04-18T13:35:55Z</time></trkpt><trkpt lat="43.68014993700411" lon="12.43481267782697"><ele>371.3333333333333</ele><time>2026-04-18T13:35:56Z</time></trkpt><trkpt lat="43.680317065674174" lon="12.434905087846316"><ele>369.6666666666667</ele><time>2026-04-18T13:35:57Z</time></trkpt><trkpt lat="43.68046776343822" lon="12.435013858860923"><ele>368.0</ele><time>2026-04-18T13:35:58Z</time></trkpt><trkpt lat="43.6806221005594" lon="12.435114290648661"><ele>368.0</ele><time>2026-04-18T13:35:59Z</time></trkpt><trkpt lat="43.68079220772296" lon="12.435181257211529"><ele>368.0</ele><time>2026-04-18T13:36:00Z</time></trkpt><trkpt lat="43.680979522180074" lon="12.435225051087528"><ele>368.0</ele><time>2026-04-18T13:36:01Z</time></trkpt><trkpt lat="43.6811653444173" lon="12.435247659934443"><ele>367.6666666666667</ele><time>2026-04-18T13:36:02Z</time></trkpt><trkpt lat="43.68132363390545" lon="12.435253902816475"><ele>367.3333333333333</ele><time>2026-04-18T13:36:03Z</time></trkpt><trkpt lat="43.68150351309984" lon="12.435349757361715"><ele>367.0</ele><time>2026-04-18T13:36:04Z</time></trkpt><trkpt lat="43.68167585707783" lon="12.43533652672715"><ele>367.0</ele><time>2026-04-18T13:36:05Z</time></trkpt><trkpt lat="43.68179184692107" lon="12.435227226795922"><ele>367.0</ele><time>2026-04-18T13:36:06Z</time></trkpt><trkpt lat="43.68191759806526" lon="12.435166394707393"><ele>367.0</ele><time>2026-04-18T13:36:07Z</time></trkpt><trkpt lat="43.68203172418084" lon="12.4350804837604"><ele>367.0</ele><time>2026-04-18T13:36:08Z</time></trkpt><trkpt lat="43.68213646319278" lon="12.4349947938908"><ele>366.0</ele><time>2026-04-18T13:36:09Z</time></trkpt><trkpt lat="43.682250789625144" lon="12.434947023612436"><ele>365.0</ele><time>2026-04-18T13:36:10Z</time></trkpt><trkpt lat="43.68236232429043" lon="12.434970332821592"><ele>364.0</ele><time>2026-04-18T13:36:11Z</time></trkpt><trkpt lat="43.6824756609433" lon="12.43498310378173"><ele>363.0</ele><time>2026-04-18T13:36:12Z</time></trkpt><trkpt lat="43.68257086016984" lon="12.43511179765"><ele>363.0</ele><time>2026-04-18T13:36:13Z</time></trkpt><trkpt lat="43.682656626596795" lon="12.435235049000003"><ele>363.0</ele><time>2026-04-18T13:36:14Z</time></trkpt><trkpt lat="43.682716026736536" lon="12.435388242954167"><ele>363.0</ele><time>2026-04-18T13:36:15Z</time></trkpt><trkpt lat="43.68273426517341" lon="12.435558705914106"><ele>363.0</ele><time>2026-04-18T13:36:16Z</time></trkpt><trkpt lat="43.682726090472464" lon="12.43573000082115"><ele>363.25</ele><time>2026-04-18T13:36:17Z</time></trkpt><trkpt lat="43.68270424207575" lon="12.435890640773414"><ele>363.5</ele><time>2026-04-18T13:36:18Z</time></trkpt><trkpt lat="43.68268486037686" lon="12.436055718842923"><ele>363.75</ele><time>2026-04-18T13:36:19Z</time></trkpt><trkpt lat="43.6826760300668" lon="12.436219933699316"><ele>364.0</ele><time>2026-04-18T13:36:20Z</time></trkpt><trkpt lat="43.68267657432876" lon="12.436401013848634"><ele>364.75</ele><time>2026-04-18T13:36:21Z</time></trkpt><trkpt lat="43.682688552026335" lon="12.436574890040516"><ele>365.5</ele><time>2026-04-18T13:36:22Z</time></trkpt><trkpt lat="43.6827149737487" lon="12.436753234395173"><ele>366.25</ele><time>2026-04-18T13:36:23Z</time></trkpt><trkpt lat="43.68277968268166" lon="12.436930747861085"><ele>367.0</ele><time>2026-04-18T13:36:24Z</time></trkpt><trkpt lat="43.682836672967106" lon="12.43710074427109"><ele>371.0</ele><time>2026-04-18T13:36:25Z</time></trkpt><trkpt lat="43.68291203848923" lon="12.437272322182308"><ele>375.0</ele><time>2026-04-18T13:36:26Z</time></trkpt><trkpt lat="43.68297021529477" lon="12.437459756176295"><ele>379.0</ele><time>2026-04-18T13:36:27Z</time></trkpt><trkpt lat="43.68304831666232" lon="12.437650243206049"><ele>379.0</ele><time>2026-04-18T13:36:28Z</time></trkpt><trkpt lat="43.68312775782907" lon="12.437841439531354"><ele>379.0</ele><time>2026-04-18T13:36:29Z</time></trkpt><trkpt lat="43.68321078382233" lon="12.438035237633121"><ele>379.0</ele><time>2026-04-18T13:36:30Z</time></trkpt><trkpt lat="43.68330029247889" lon="12.438211967526204"><ele>378.25</ele><time>2026-04-18T13:36:31Z</time></trkpt><trkpt lat="43.68335829328564" lon="12.438391992235589"><ele>377.5</ele><time>2026-04-18T13:36:32Z</time></trkpt><trkpt lat="43.68340900702288" lon="12.438563655337976"><ele>376.75</ele><time>2026-04-18T13:36:33Z</time></trkpt><trkpt lat="43.68346384081498" lon="12.438740467756338"><ele>376.0</ele><time>2026-04-18T13:36:33.999Z</time></trkpt><trkpt lat="43.683521925663754" lon="12.43892227679537"><ele>378.0</ele><time>2026-04-18T13:36:34.999Z</time></trkpt><trkpt lat="43.683630522819925" lon="12.439066509262064"><ele>380.0</ele><time>2026-04-18T13:36:35.999Z</time></trkpt><trkpt lat="43.683740438062806" lon="12.439212216474939"><ele>382.0</ele><time>2026-04-18T13:36:36.999Z</time></trkpt><trkpt lat="43.68384969436572" lon="12.439372173638526"><ele>382.0</ele><time>2026-04-18T13:36:37.999Z</time></trkpt><trkpt lat="43.683975169573024" lon="12.439516119610154"><ele>382.0</ele><time>2026-04-18T13:36:38.999Z</time></trkpt><trkpt lat="43.68410215764148" lon="12.439667828178889"><ele>382.0</ele><time>2026-04-18T13:36:39.999Z</time></trkpt><trkpt lat="43.68422705030561" lon="12.439823400132298"><ele>382.66666666666663</ele><time>2026-04-18T13:36:40.999Z</time></trkpt><trkpt lat="43.684344905017056" lon="12.439985731952994"><ele>383.3333333333333</ele><time>2026-04-18T13:36:41.999Z</time></trkpt><trkpt lat="43.68444663852121" lon="12.440158772199343"><ele>384.0</ele><time>2026-04-18T13:36:42.999Z</time></trkpt><trkpt lat="43.68452968290275" lon="12.440338385952732"><ele>382.75</ele><time>2026-04-18T13:36:43.999Z</time></trkpt><trkpt lat="43.6846144341948" lon="12.440504734942932"><ele>381.5</ele><time>2026-04-18T13:36:44.999Z</time></trkpt><trkpt lat="43.684700134424794" lon="12.44064814894804"><ele>380.25</ele><time>2026-04-18T13:36:45.999Z</time></trkpt><trkpt lat="43.684803088833554" lon="12.440753018432687"><ele>379.0</ele><time>2026-04-18T13:36:46.999Z</time></trkpt><trkpt lat="43.68492493953275" lon="12.440813353403565"><ele>379.0</ele><time>2026-04-18T13:36:47.999Z</time></trkpt><trkpt lat="43.68506506139077" lon="12.440832813469726"><ele>379.0</ele><time>2026-04-18T13:36:48.999Z</time></trkpt><trkpt lat="43.6852169473371" lon="12.440832474953886"><ele>379.0</ele><time>2026-04-18T13:36:49.999Z</time></trkpt><trkpt lat="43.685372089694944" lon="12.440875125116452"><ele>381.3333333333333</ele><time>2026-04-18T13:36:50.999Z</time></trkpt><trkpt lat="43.685529193035684" lon="12.440877990369613"><ele>383.66666666666663</ele><time>2026-04-18T13:36:51.999Z</time></trkpt><trkpt lat="43.6856857892061" lon="12.440920612144202"><ele>386.0</ele><time>2026-04-18T13:36:52.999Z</time></trkpt><trkpt lat="43.68585161830146" lon="12.440944355310757"><ele>386.0</ele><time>2026-04-18T13:36:53.999Z</time></trkpt><trkpt lat="43.68602174467584" lon="12.440945991454045"><ele>386.0</ele><time>2026-04-18T13:36:54.999Z</time></trkpt><trkpt lat="43.68619634002448" lon="12.440973747288211"><ele>386.0</ele><time>2026-04-18T13:36:55.999Z</time></trkpt><trkpt lat="43.686376337126056" lon="12.440999537895657"><ele>388.3333333333333</ele><time>2026-04-18T13:36:56.999Z</time></trkpt><trkpt lat="43.68656136597941" lon="12.441023000329333"><ele>390.66666666666663</ele><time>2026-04-18T13:36:57.999Z</time></trkpt><trkpt lat="43.686747841699955" lon="12.441078086391451"><ele>393.0</ele><time>2026-04-18T13:36:58.999Z</time></trkpt><trkpt lat="43.68693164811057" lon="12.441134462777125"><ele>393.0</ele><time>2026-04-18T13:36:59.999Z</time></trkpt><trkpt lat="43.6871069862271" lon="12.441205387850196"><ele>393.0</ele><time>2026-04-18T13:37:00.999Z</time></trkpt><trkpt lat="43.68728223174239" lon="12.441283386162294"><ele>393.0</ele><time>2026-04-18T13:37:01.999Z</time></trkpt><trkpt lat="43.68745394626246" lon="12.441371620955783"><ele>393.0</ele><time>2026-04-18T13:37:02.999Z</time></trkpt><trkpt lat="43.68762398356767" lon="12.44146511260547"><ele>393.0</ele><time>2026-04-18T13:37:03.999Z</time></trkpt><trkpt lat="43.68779344596717" lon="12.441556802223074"><ele>393.0</ele><time>2026-04-18T13:37:04.999Z</time></trkpt><trkpt lat="43.68797191105427" lon="12.441603705386587"><ele>395.33333333333337</ele><time>2026-04-18T13:37:05.999Z</time></trkpt><trkpt lat="43.688144407936186" lon="12.441665217919628"><ele>397.6666666666667</ele><time>2026-04-18T13:37:06.999Z</time></trkpt><trkpt lat="43.68831220141009" lon="12.441733927684071"><ele>400.0</ele><time>2026-04-18T13:37:07.999Z</time></trkpt><trkpt lat="43.68846685446844" lon="12.44184513400085"><ele>401.6666666666667</ele><time>2026-04-18T13:37:08.999Z</time></trkpt><trkpt lat="43.688624431605845" lon="12.441942280187623"><ele>403.33333333333337</ele><time>2026-04-18T13:37:09.999Z</time></trkpt><trkpt lat="43.68877848685059" lon="12.442040377868231"><ele>405.0</ele><time>2026-04-18T13:37:10.999Z</time></trkpt><trkpt lat="43.68893826743725" lon="12.442110768106932"><ele>405.25</ele><time>2026-04-18T13:37:11.999Z</time></trkpt><trkpt lat="43.68908275552646" lon="12.44218757009121"><ele>405.5</ele><time>2026-04-18T13:37:12.999Z</time></trkpt><trkpt lat="43.68921111614077" lon="12.442271082703952"><ele>405.75</ele><time>2026-04-18T13:37:13.999Z</time></trkpt><trkpt lat="43.68933979356144" lon="12.442326988059545"><ele>406.0</ele><time>2026-04-18T13:37:14.999Z</time></trkpt><trkpt lat="43.68946654637727" lon="12.442381510592265"><ele>404.5</ele><time>2026-04-18T13:37:15.999Z</time></trkpt><trkpt lat="43.68960515670667" lon="12.442421040341394"><ele>403.0</ele><time>2026-04-18T13:37:16.999Z</time></trkpt><trkpt lat="43.689745808933665" lon="12.442492398260528"><ele>401.5</ele><time>2026-04-18T13:37:17.999Z</time></trkpt><trkpt lat="43.689896202293085" lon="12.442556109483794"><ele>400.0</ele><time>2026-04-18T13:37:18.999Z</time></trkpt><trkpt lat="43.69005671660963" lon="12.442612319200796"><ele>400.0</ele><time>2026-04-18T13:37:19.999Z</time></trkpt><trkpt lat="43.69022507381167" lon="12.442657179296857"><ele>400.0</ele><time>2026-04-18T13:37:20.999Z</time></trkpt><trkpt lat="43.690393520525994" lon="12.4426879610841"><ele>400.0</ele><time>2026-04-18T13:37:21.999Z</time></trkpt><trkpt lat="43.69055909533821" lon="12.442710846996729"><ele>399.0</ele><time>2026-04-18T13:37:22.999Z</time></trkpt><trkpt lat="43.69072327960399" lon="12.442727489535184"><ele>398.0</ele><time>2026-04-18T13:37:23.999Z</time></trkpt><trkpt lat="43.690885135328884" lon="12.442774899838717"><ele>397.0</ele><time>2026-04-18T13:37:24.999Z</time></trkpt><trkpt lat="43.69105495681693" lon="12.442804080892236"><ele>394.6666666666667</ele><time>2026-04-18T13:37:25.999Z</time></trkpt><trkpt lat="43.69122442633937" lon="12.4428689381625"><ele>392.33333333333337</ele><time>2026-04-18T13:37:26.999Z</time></trkpt><trkpt lat="43.6913916096494" lon="12.442968714487748"><ele>390.0</ele><time>2026-04-18T13:37:27.999Z</time></trkpt><trkpt lat="43.69155396645011" lon="12.443095871073895"><ele>388.66666666666663</ele><time>2026-04-18T13:37:29Z</time></trkpt><trkpt lat="43.691712642396666" lon="12.44323175719703"><ele>387.3333333333333</ele><time>2026-04-18T13:37:30Z</time></trkpt><trkpt lat="43.69187443193756" lon="12.443369068895437"><ele>386.0</ele><time>2026-04-18T13:37:31Z</time></trkpt><trkpt lat="43.692038039265036" lon="12.443507614123678"><ele>384.3333333333333</ele><time>2026-04-18T13:37:32Z</time></trkpt><trkpt lat="43.692204924090994" lon="12.44364765498942"><ele>382.66666666666663</ele><time>2026-04-18T13:37:33Z</time></trkpt><trkpt lat="43.692374221334966" lon="12.443787253332474"><ele>381.0</ele><time>2026-04-18T13:37:34Z</time></trkpt><trkpt lat="43.69254317651715" lon="12.443930303464436"><ele>380.0</ele><time>2026-04-18T13:37:35Z</time></trkpt><trkpt lat="43.69271381888431" lon="12.444073982998988"><ele>379.0</ele><time>2026-04-18T13:37:36Z</time></trkpt><trkpt lat="43.69288550156026" lon="12.444217589894025"><ele>378.0</ele><time>2026-04-18T13:37:37Z</time></trkpt><trkpt lat="43.69305781260344" lon="12.444361010320643"><ele>376.3333333333333</ele><time>2026-04-18T13:37:38Z</time></trkpt><trkpt lat="43.693230265702965" lon="12.444502745878202"><ele>374.66666666666663</ele><time>2026-04-18T13:37:39Z</time></trkpt><trkpt lat="43.6934019824482" lon="12.444644138026653"><ele>373.0</ele><time>2026-04-18T13:37:40Z</time></trkpt><trkpt lat="43.69357584456902" lon="12.44478233994108"><ele>374.66666666666663</ele><time>2026-04-18T13:37:41Z</time></trkpt><trkpt lat="43.6937491999968" lon="12.444915642200808"><ele>376.3333333333333</ele><time>2026-04-18T13:37:42Z</time></trkpt><trkpt lat="43.69392449348926" lon="12.445043640499007"><ele>378.0</ele><time>2026-04-18T13:37:43Z</time></trkpt><trkpt lat="43.694106115126075" lon="12.44516397452391"><ele>378.0</ele><time>2026-04-18T13:37:44Z</time></trkpt><trkpt lat="43.69429144007083" lon="12.445272491380658"><ele>378.0</ele><time>2026-04-18T13:37:45Z</time></trkpt><trkpt lat="43.69448302743196" lon="12.445373163064335"><ele>378.0</ele><time>2026-04-18T13:37:46Z</time></trkpt><trkpt lat="43.69467800450057" lon="12.445464666292855"><ele>376.3333333333333</ele><time>2026-04-18T13:37:47Z</time></trkpt><trkpt lat="43.69487515332958" lon="12.445546949711948"><ele>374.66666666666663</ele><time>2026-04-18T13:37:48Z</time></trkpt><trkpt lat="43.69507684635477" lon="12.445611950017293"><ele>373.0</ele><time>2026-04-18T13:37:49Z</time></trkpt><trkpt lat="43.69527933622813" lon="12.445663643006382"><ele>376.66666666666663</ele><time>2026-04-18T13:37:50Z</time></trkpt><trkpt lat="43.69548291876739" lon="12.445708463786152"><ele>380.3333333333333</ele><time>2026-04-18T13:37:51Z</time></trkpt><trkpt lat="43.695688624680116" lon="12.445738956490917"><ele>384.0</ele><time>2026-04-18T13:37:52Z</time></trkpt><trkpt lat="43.695899156992276" lon="12.445755335976171"><ele>392.0</ele><time>2026-04-18T13:37:53Z</time></trkpt><trkpt lat="43.69611405009275" lon="12.445761055360657"><ele>400.0</ele><time>2026-04-18T13:37:54Z</time></trkpt><trkpt lat="43.69632486259496" lon="12.445757022633778"><ele>408.0</ele><time>2026-04-18T13:37:55Z</time></trkpt><trkpt lat="43.696536532719215" lon="12.445747295786564"><ele>408.0</ele><time>2026-04-18T13:37:56Z</time></trkpt><trkpt lat="43.696750177492824" lon="12.445738156127474"><ele>408.0</ele><time>2026-04-18T13:37:57Z</time></trkpt><trkpt lat="43.69696170510868" lon="12.445733562368183"><ele>408.0</ele><time>2026-04-18T13:37:58Z</time></trkpt><trkpt lat="43.69716793935372" lon="12.445678801040213"><ele>408.33333333333337</ele><time>2026-04-18T13:37:59Z</time></trkpt><trkpt lat="43.69737511844906" lon="12.44562785417459"><ele>408.6666666666667</ele><time>2026-04-18T13:38:00Z</time></trkpt><trkpt lat="43.69759045006108" lon="12.445571405443946"><ele>409.0</ele><time>2026-04-18T13:38:01.059Z</time></trkpt><trkpt lat="43.697791604785806" lon="12.445518400606739"><ele>409.0</ele><time>2026-04-18T13:38:02.06Z</time></trkpt><trkpt lat="43.69799529931022" lon="12.445463102536175"><ele>409.0</ele><time>2026-04-18T13:38:03.057Z</time></trkpt><trkpt lat="43.6996512" lon="12.4449345"><ele>353.0</ele><time>2026-04-18T13:38:06.666Z</time></trkpt><trkpt lat="43.71702467998558" lon="12.438358072160748"><ele>353.0</ele><time>2026-04-18T13:39:35.999Z</time></trkpt><trkpt lat="43.71718216232809" lon="12.438192175516997"><ele>353.0</ele><time>2026-04-18T13:39:36.999Z</time></trkpt><trkpt lat="43.71727180486471" lon="12.438025012744774"><ele>353.0</ele><time>2026-04-18T13:39:37.998Z</time></trkpt><trkpt lat="43.71737498522949" lon="12.437882144325814"><ele>354.25</ele><time>2026-04-18T13:39:38.998Z</time></trkpt><trkpt lat="43.717448367509085" lon="12.437730496978222"><ele>355.5</ele><time>2026-04-18T13:39:39.998Z</time></trkpt><trkpt lat="43.71753534901109" lon="12.437585848537651"><ele>356.75</ele><time>2026-04-18T13:39:40.998Z</time></trkpt><trkpt lat="43.71762608666541" lon="12.437439928732243"><ele>358.0</ele><time>2026-04-18T13:39:42Z</time></trkpt><trkpt lat="43.717717436242395" lon="12.437295807760838"><ele>356.0</ele><time>2026-04-18T13:39:43Z</time></trkpt><trkpt lat="43.717806734781334" lon="12.437149343806363"><ele>354.0</ele><time>2026-04-18T13:39:44Z</time></trkpt><trkpt lat="43.71789424403569" lon="12.436995133072266"><ele>352.0</ele><time>2026-04-18T13:39:45Z</time></trkpt><trkpt lat="43.71798342528959" lon="12.436834177807247"><ele>350.0</ele><time>2026-04-18T13:39:46Z</time></trkpt><trkpt lat="43.71807394593154" lon="12.436666797115901"><ele>350.0</ele><time>2026-04-18T13:39:47Z</time></trkpt><trkpt lat="43.71816808476554" lon="12.436494583030223"><ele>350.0</ele><time>2026-04-18T13:39:48Z</time></trkpt><trkpt lat="43.718268974949694" lon="12.436322254178492"><ele>350.0</ele><time>2026-04-18T13:39:49Z</time></trkpt><trkpt lat="43.71837045408763" lon="12.436151292094541"><ele>351.33333333333337</ele><time>2026-04-18T13:39:50Z</time></trkpt><trkpt lat="43.71847834864824" lon="12.435981008780036"><ele>352.6666666666667</ele><time>2026-04-18T13:39:51Z</time></trkpt><trkpt lat="43.71856427921202" lon="12.435802249248226"><ele>354.0</ele><time>2026-04-18T13:39:52Z</time></trkpt><trkpt lat="43.718665624253916" lon="12.435625601087427"><ele>350.6666666666667</ele><time>2026-04-18T13:39:53Z</time></trkpt><trkpt lat="43.718765619585895" lon="12.435447155139528"><ele>347.33333333333337</ele><time>2026-04-18T13:39:54Z</time></trkpt><trkpt lat="43.71886724053232" lon="12.435260548748433"><ele>344.0</ele><time>2026-04-18T13:39:55Z</time></trkpt><trkpt lat="43.7189693433151" lon="12.435077316993622"><ele>344.0</ele><time>2026-04-18T13:39:56Z</time></trkpt><trkpt lat="43.71907609840626" lon="12.43490125486123"><ele>344.0</ele><time>2026-04-18T13:39:57Z</time></trkpt><trkpt lat="43.719176827006585" lon="12.434724110394775"><ele>344.0</ele><time>2026-04-18T13:39:58Z</time></trkpt><trkpt lat="43.719273226689026" lon="12.43455722395275"><ele>345.0</ele><time>2026-04-18T13:39:59Z</time></trkpt><trkpt lat="43.71937286345056" lon="12.4343890209186"><ele>346.0</ele><time>2026-04-18T13:40:00Z</time></trkpt><trkpt lat="43.719467316417195" lon="12.434228767098922"><ele>347.0</ele><time>2026-04-18T13:40:01Z</time></trkpt><trkpt lat="43.71955971865462" lon="12.43407030547329"><ele>342.33333333333337</ele><time>2026-04-18T13:40:02Z</time></trkpt><trkpt lat="43.71965268579504" lon="12.433909417850302"><ele>337.6666666666667</ele><time>2026-04-18T13:40:03Z</time></trkpt><trkpt lat="43.71974676238955" lon="12.433747421042929"><ele>333.0</ele><time>2026-04-18T13:40:04Z</time></trkpt><trkpt lat="43.71984048957403" lon="12.43357874923523"><ele>333.0</ele><time>2026-04-18T13:40:05Z</time></trkpt><trkpt lat="43.719935479481194" lon="12.433403486888519"><ele>333.0</ele><time>2026-04-18T13:40:06Z</time></trkpt><trkpt lat="43.72003835014968" lon="12.43322411805937"><ele>333.0</ele><time>2026-04-18T13:40:07Z</time></trkpt><trkpt lat="43.720155678213274" lon="12.433052636032834"><ele>329.3333333333333</ele><time>2026-04-18T13:40:08Z</time></trkpt><trkpt lat="43.72027704470228" lon="12.432879744666934"><ele>325.66666666666663</ele><time>2026-04-18T13:40:09Z</time></trkpt><trkpt lat="43.72040620665648" lon="12.432705168783329"><ele>322.0</ele><time>2026-04-18T13:40:10Z</time></trkpt><trkpt lat="43.72054341295362" lon="12.432534347696182"><ele>322.0</ele><time>2026-04-18T13:40:11Z</time></trkpt><trkpt lat="43.72068521232067" lon="12.432363955672482"><ele>322.0</ele><time>2026-04-18T13:40:12Z</time></trkpt><trkpt lat="43.720832231466765" lon="12.432209710436172"><ele>322.0</ele><time>2026-04-18T13:40:13Z</time></trkpt><trkpt lat="43.72099209467415" lon="12.432093028908021"><ele>320.0</ele><time>2026-04-18T13:40:14Z</time></trkpt><trkpt lat="43.72114479493356" lon="12.431970716262336"><ele>318.0</ele><time>2026-04-18T13:40:15Z</time></trkpt><trkpt lat="43.72130367502587" lon="12.4318833944711"><ele>316.0</ele><time>2026-04-18T13:40:15.999Z</time></trkpt><trkpt lat="43.72146468121747" lon="12.431802378705747"><ele>316.0</ele><time>2026-04-18T13:40:16.999Z</time></trkpt><trkpt lat="43.72163686108903" lon="12.431746216595657"><ele>316.0</ele><time>2026-04-18T13:40:17.999Z</time></trkpt><trkpt lat="43.72178272486679" lon="12.431521480746861"><ele>316.0</ele><time>2026-04-18T13:40:18.999Z</time></trkpt><trkpt lat="43.72196475147513" lon="12.43142952025263"><ele>315.0</ele><time>2026-04-18T13:40:19.999Z</time></trkpt><trkpt lat="43.72215422476031" lon="12.431352954468368"><ele>314.0</ele><time>2026-04-18T13:40:20.999Z</time></trkpt><trkpt lat="43.72235270523574" lon="12.431288359440996"><ele>313.0</ele><time>2026-04-18T13:40:21.999Z</time></trkpt><trkpt lat="43.722553844801745" lon="12.431235956593515"><ele>310.66666666666663</ele><time>2026-04-18T13:40:22.999Z</time></trkpt><trkpt lat="43.7227580281883" lon="12.431196503608708"><ele>308.3333333333333</ele><time>2026-04-18T13:40:23.999Z</time></trkpt><trkpt lat="43.72296871501604" lon="12.431166216303412"><ele>306.0</ele><time>2026-04-18T13:40:24.999Z</time></trkpt><trkpt lat="43.72317610974914" lon="12.431135132772217"><ele>306.0</ele><time>2026-04-18T13:40:25.999Z</time></trkpt><trkpt lat="43.72337583361529" lon="12.431125201256567"><ele>306.0</ele><time>2026-04-18T13:40:26.999Z</time></trkpt><trkpt lat="43.72357426071634" lon="12.431117540867053"><ele>306.0</ele><time>2026-04-18T13:40:27.999Z</time></trkpt><trkpt lat="43.72376964413381" lon="12.431144952676094"><ele>304.6666666666667</ele><time>2026-04-18T13:40:28.999Z</time></trkpt><trkpt lat="43.72397076374697" lon="12.431166681699834"><ele>303.33333333333337</ele><time>2026-04-18T13:40:29.999Z</time></trkpt><trkpt lat="43.72417795609998" lon="12.431172355889617"><ele>302.0</ele><time>2026-04-18T13:40:30.999Z</time></trkpt><trkpt lat="43.724391724265665" lon="12.43119963363885"><ele>299.0</ele><time>2026-04-18T13:40:31.999Z</time></trkpt><trkpt lat="43.72460786227755" lon="12.431226453037844"><ele>296.0</ele><time>2026-04-18T13:40:32.999Z</time></trkpt><trkpt lat="43.724823992764065" lon="12.43125460009943"><ele>293.0</ele><time>2026-04-18T13:40:33.999Z</time></trkpt><trkpt lat="43.7250438159966" lon="12.431279866391398"><ele>291.33333333333337</ele><time>2026-04-18T13:40:34.999Z</time></trkpt><trkpt lat="43.72526128945355" lon="12.431306865190287"><ele>289.6666666666667</ele><time>2026-04-18T13:40:35.999Z</time></trkpt><trkpt lat="43.72547690751776" lon="12.431336287465166"><ele>288.0</ele><time>2026-04-18T13:40:36.999Z</time></trkpt><trkpt lat="43.72569041025535" lon="12.431394190039965"><ele>287.3333333333333</ele><time>2026-04-18T13:40:37.999Z</time></trkpt><trkpt lat="43.725898974048604" lon="12.431417435982679"><ele>286.66666666666663</ele><time>2026-04-18T13:40:38.999Z</time></trkpt><trkpt lat="43.72611163327153" lon="12.431444008486519"><ele>286.0</ele><time>2026-04-18T13:40:39.999Z</time></trkpt><trkpt lat="43.7263273120842" lon="12.431470958298345"><ele>284.3333333333333</ele><time>2026-04-18T13:40:40.999Z</time></trkpt><trkpt lat="43.72653343176414" lon="12.431496257286906"><ele>282.6666666666667</ele><time>2026-04-18T13:40:41.999Z</time></trkpt><trkpt lat="43.72673643892575" lon="12.43152068242116"><ele>281.0</ele><time>2026-04-18T13:40:42.999Z</time></trkpt><trkpt lat="43.72693454952142" lon="12.431545138633046"><ele>281.0</ele><time>2026-04-18T13:40:43.999Z</time></trkpt><trkpt lat="43.72712913160362" lon="12.43156954805507"><ele>281.0</ele><time>2026-04-18T13:40:44.999Z</time></trkpt><trkpt lat="43.7273217086825" lon="12.431593705957795"><ele>281.0</ele><time>2026-04-18T13:40:45.999Z</time></trkpt><trkpt lat="43.72750981140689" lon="12.431616711312175"><ele>281.0</ele><time>2026-04-18T13:40:46.999Z</time></trkpt><trkpt lat="43.72769829722213" lon="12.43161409665959"><ele>281.0</ele><time>2026-04-18T13:40:47.999Z</time></trkpt><trkpt lat="43.72788091828214" lon="12.43165892355647"><ele>281.0</ele><time>2026-04-18T13:40:48.999Z</time></trkpt><trkpt lat="43.728064572489366" lon="12.431681191958324"><ele>283.33333333333337</ele><time>2026-04-18T13:40:49.999Z</time></trkpt><trkpt lat="43.72824939001048" lon="12.431703601415007"><ele>285.6666666666667</ele><time>2026-04-18T13:40:50.999Z</time></trkpt><trkpt lat="43.728434442644264" lon="12.431725873789588"><ele>288.0</ele><time>2026-04-18T13:40:51.999Z</time></trkpt><trkpt lat="43.72861990091799" lon="12.431747632442358"><ele>289.3333333333333</ele><time>2026-04-18T13:40:52.999Z</time></trkpt><trkpt lat="43.728801864764705" lon="12.43176920824226"><ele>290.66666666666663</ele><time>2026-04-18T13:40:53.999Z</time></trkpt><trkpt lat="43.72897461179126" lon="12.43179068116278"><ele>292.0</ele><time>2026-04-18T13:40:54.999Z</time></trkpt><trkpt lat="43.729137007076105" lon="12.43181088628338"><ele>292.0</ele><time>2026-04-18T13:40:55.999Z</time></trkpt><trkpt lat="43.72928234321654" lon="12.43182866215152"><ele>292.0</ele><time>2026-04-18T13:40:56.999Z</time></trkpt><trkpt lat="43.72940820675729" lon="12.431821360107632"><ele>292.0</ele><time>2026-04-18T13:40:57.999Z</time></trkpt><trkpt lat="43.72951803383703" lon="12.431856509756608"><ele>292.0</ele><time>2026-04-18T13:40:58.999Z</time></trkpt><trkpt lat="43.729614011173574" lon="12.431867518293092"><ele>292.16666666666663</ele><time>2026-04-18T13:40:59.999Z</time></trkpt><trkpt lat="43.72970194595099" lon="12.431877418787861"><ele>292.3333333333333</ele><time>2026-04-18T13:41:00.999Z</time></trkpt><trkpt lat="43.7297835459458" lon="12.431886366742104"><ele>292.5</ele><time>2026-04-18T13:41:01.999Z</time></trkpt><trkpt lat="43.72985650398903" lon="12.431896906260688"><ele>292.6666666666667</ele><time>2026-04-18T13:41:02.999Z</time></trkpt><trkpt lat="43.72992532370196" lon="12.431901506196636"><ele>292.83333333333337</ele><time>2026-04-18T13:41:03.999Z</time></trkpt><trkpt lat="43.72998391331976" lon="12.43193816306759"><ele>293.0</ele><time>2026-04-18T13:41:04.999Z</time></trkpt><trkpt lat="43.730075576281386" lon="12.43199327901234"><ele>293.0</ele><time>2026-04-18T13:41:06.999Z</time></trkpt><trkpt lat="43.73014940572" lon="12.431879910872125"><ele>293.0</ele><time>2026-04-18T13:41:08.999Z</time></trkpt><trkpt lat="43.730126855660885" lon="12.431788381405212"><ele>293.0</ele><time>2026-04-18T13:41:09.999Z</time></trkpt><trkpt lat="43.73009740873536" lon="12.431619794824899"><ele>293.0</ele><time>2026-04-18T13:41:11.999Z</time></trkpt><trkpt lat="43.73006387434864" lon="12.431526085602764"><ele>293.0</ele><time>2026-04-18T13:41:12.999Z</time></trkpt><trkpt lat="43.730018000490006" lon="12.431447764859668"><ele>293.0</ele><time>2026-04-18T13:41:13.999Z</time></trkpt><trkpt lat="43.72995427910126" lon="12.43139555881079"><ele>293.0</ele><time>2026-04-18T13:41:14.999Z</time></trkpt><trkpt lat="43.72986696549334" lon="12.431379369084205"><ele>293.0</ele><time>2026-04-18T13:41:15.999Z</time></trkpt><trkpt lat="43.729779120958774" lon="12.43138684525827"><ele>293.0</ele><time>2026-04-18T13:41:16.999Z</time></trkpt><trkpt lat="43.729698476804124" lon="12.431411533119622"><ele>293.0</ele><time>2026-04-18T13:41:17.999Z</time></trkpt><trkpt lat="43.72962207717418" lon="12.431426831742787"><ele>293.0</ele><time>2026-04-18T13:41:18.999Z</time></trkpt><trkpt lat="43.729554723107015" lon="12.43143091881453"><ele>293.0</ele><time>2026-04-18T13:41:19.999Z</time></trkpt><trkpt lat="43.72944070042455" lon="12.431445747156404"><ele>293.0</ele><time>2026-04-18T13:41:21.999Z</time></trkpt><trkpt lat="43.72931602241439" lon="12.431471624944592"><ele>293.0</ele><time>2026-04-18T13:41:23.999Z</time></trkpt><trkpt lat="43.72924959993858" lon="12.431481117439489"><ele>293.0</ele><time>2026-04-18T13:41:24.999Z</time></trkpt><trkpt lat="43.72913740763948" lon="12.431485899018655"><ele>293.0</ele><time>2026-04-18T13:41:26.999Z</time></trkpt><trkpt lat="43.72904477108797" lon="12.431503768122404"><ele>292.8</ele><time>2026-04-18T13:43:47.999Z</time></trkpt><trkpt lat="43.72894002307762" lon="12.431599191084246"><ele>292.6</ele><time>2026-04-18T13:43:49.999Z</time></trkpt><trkpt lat="43.7288897831643" lon="12.4316653684169"><ele>292.4</ele><time>2026-04-18T13:43:50.999Z</time></trkpt><trkpt lat="43.72884503449381" lon="12.431733950170957"><ele>292.2</ele><time>2026-04-18T13:43:51.999Z</time></trkpt><trkpt lat="43.72877372744916" lon="12.43184815660277"><ele>292.0</ele><time>2026-04-18T13:43:54Z</time></trkpt><trkpt lat="43.728668462475945" lon="12.431862392152494"><ele>292.0</ele><time>2026-04-18T13:43:56Z</time></trkpt><trkpt lat="43.72860406585812" lon="12.431861262503904"><ele>292.0</ele><time>2026-04-18T13:43:57Z</time></trkpt><trkpt lat="43.72853824356944" lon="12.431871137789402"><ele>292.0</ele><time>2026-04-18T13:43:58Z</time></trkpt><trkpt lat="43.72846705072269" lon="12.43191522512737"><ele>292.0</ele><time>2026-04-18T13:43:59Z</time></trkpt><trkpt lat="43.72838870323954" lon="12.431987416947614"><ele>292.0</ele><time>2026-04-18T13:44:00Z</time></trkpt><trkpt lat="43.728308082327494" lon="12.432071907535066"><ele>292.0</ele><time>2026-04-18T13:44:01Z</time></trkpt><trkpt lat="43.72822459347833" lon="12.432135807259723"><ele>293.0</ele><time>2026-04-18T13:44:02Z</time></trkpt><trkpt lat="43.72812929291262" lon="12.43223314109326"><ele>294.0</ele><time>2026-04-18T13:44:03Z</time></trkpt><trkpt lat="43.72804095174746" lon="12.432353585679845"><ele>295.0</ele><time>2026-04-18T13:44:04Z</time></trkpt><trkpt lat="43.727987305949206" lon="12.432441153790169"><ele>296.0</ele><time>2026-04-18T13:44:05Z</time></trkpt><trkpt lat="43.72792463549612" lon="12.432580913148014"><ele>297.0</ele><time>2026-04-18T13:44:06Z</time></trkpt><trkpt lat="43.72787081741441" lon="12.43273241245409"><ele>297.0</ele><time>2026-04-18T13:44:07Z</time></trkpt><trkpt lat="43.72783090669032" lon="12.432905411018845"><ele>297.0</ele><time>2026-04-18T13:44:08Z</time></trkpt><trkpt lat="43.72780407649321" lon="12.433090630983125"><ele>297.0</ele><time>2026-04-18T13:44:09Z</time></trkpt><trkpt lat="43.727796327766754" lon="12.433287917975008"><ele>297.0</ele><time>2026-04-18T13:44:10Z</time></trkpt><trkpt lat="43.72779755341695" lon="12.433486145805382"><ele>296.0</ele><time>2026-04-18T13:44:11Z</time></trkpt><trkpt lat="43.72779062859954" lon="12.433687627139596"><ele>295.0</ele><time>2026-04-18T13:44:12Z</time></trkpt><trkpt lat="43.72775564549141" lon="12.433890141726781"><ele>294.0</ele><time>2026-04-18T13:44:13Z</time></trkpt><trkpt lat="43.72772352303697" lon="12.434098812557783"><ele>294.0</ele><time>2026-04-18T13:44:14Z</time></trkpt><trkpt lat="43.7276765252737" lon="12.434298250365426"><ele>294.0</ele><time>2026-04-18T13:44:15Z</time></trkpt><trkpt lat="43.727609348668715" lon="12.43445925268542"><ele>294.0</ele><time>2026-04-18T13:44:16Z</time></trkpt><trkpt lat="43.72752926168812" lon="12.434610880456992"><ele>294.0</ele><time>2026-04-18T13:44:17Z</time></trkpt><trkpt lat="43.72743078791387" lon="12.434754580583247"><ele>297.0</ele><time>2026-04-18T13:44:18Z</time></trkpt><trkpt lat="43.72731567963305" lon="12.434884809069986"><ele>300.0</ele><time>2026-04-18T13:44:19Z</time></trkpt><trkpt lat="43.72719264322631" lon="12.435007157506952"><ele>303.0</ele><time>2026-04-18T13:44:20Z</time></trkpt><trkpt lat="43.72707107009398" lon="12.435141045000385"><ele>303.0</ele><time>2026-04-18T13:44:21Z</time></trkpt><trkpt lat="43.72693440029983" lon="12.435238662421764"><ele>303.0</ele><time>2026-04-18T13:44:22Z</time></trkpt><trkpt lat="43.72680387729479" lon="12.435332970770187"><ele>303.0</ele><time>2026-04-18T13:44:23Z</time></trkpt><trkpt lat="43.72668324401087" lon="12.435429759253493"><ele>303.0</ele><time>2026-04-18T13:44:24Z</time></trkpt><trkpt lat="43.726579413724295" lon="12.435538572403564"><ele>301.25</ele><time>2026-04-18T13:44:25Z</time></trkpt><trkpt lat="43.72647922317306" lon="12.435669897583432"><ele>299.5</ele><time>2026-04-18T13:44:26Z</time></trkpt><trkpt lat="43.726409510766636" lon="12.435825954887918"><ele>297.75</ele><time>2026-04-18T13:44:27Z</time></trkpt><trkpt lat="43.7263487038063" lon="12.435994703312604"><ele>296.0</ele><time>2026-04-18T13:44:28Z</time></trkpt><trkpt lat="43.72629966460085" lon="12.436164877162943"><ele>297.0</ele><time>2026-04-18T13:44:29Z</time></trkpt><trkpt lat="43.72625994426269" lon="12.436353485160685"><ele>298.0</ele><time>2026-04-18T13:44:30Z</time></trkpt><trkpt lat="43.72624253430468" lon="12.436557455163957"><ele>299.0</ele><time>2026-04-18T13:44:31Z</time></trkpt><trkpt lat="43.72623920037158" lon="12.436780198606645"><ele>299.0</ele><time>2026-04-18T13:44:32Z</time></trkpt><trkpt lat="43.726249014202025" lon="12.437022546686245"><ele>299.0</ele><time>2026-04-18T13:44:33Z</time></trkpt><trkpt lat="43.726255448523474" lon="12.437282412248477"><ele>299.0</ele><time>2026-04-18T13:44:34Z</time></trkpt><trkpt lat="43.72625685996067" lon="12.437553203227587"><ele>298.33333333333337</ele><time>2026-04-18T13:44:35Z</time></trkpt><trkpt lat="43.72625850515501" lon="12.437826383817539"><ele>297.6666666666667</ele><time>2026-04-18T13:44:36Z</time></trkpt><trkpt lat="43.72626732918028" lon="12.438106352507447"><ele>297.0</ele><time>2026-04-18T13:44:37Z</time></trkpt><trkpt lat="43.726278485054344" lon="12.4383892993392"><ele>295.0</ele><time>2026-04-18T13:44:38Z</time></trkpt><trkpt lat="43.72628955179964" lon="12.438674601244141"><ele>293.0</ele><time>2026-04-18T13:44:39Z</time></trkpt><trkpt lat="43.72629634484028" lon="12.438957397762884"><ele>291.0</ele><time>2026-04-18T13:44:40Z</time></trkpt><trkpt lat="43.7263021061107" lon="12.439235803066946"><ele>290.3333333333333</ele><time>2026-04-18T13:44:41Z</time></trkpt><trkpt lat="43.72630747407097" lon="12.439502168525634"><ele>289.66666666666663</ele><time>2026-04-18T13:44:42Z</time></trkpt><trkpt lat="43.72631779301838" lon="12.439759077935419"><ele>289.0</ele><time>2026-04-18T13:44:43Z</time></trkpt><trkpt lat="43.72633293896847" lon="12.440019234217944"><ele>287.3333333333333</ele><time>2026-04-18T13:44:44Z</time></trkpt><trkpt lat="43.726362339895374" lon="12.440276684292808"><ele>285.6666666666667</ele><time>2026-04-18T13:44:45Z</time></trkpt><trkpt lat="43.72641512667309" lon="12.44052792073657"><ele>284.0</ele><time>2026-04-18T13:44:46Z</time></trkpt><trkpt lat="43.72648544196446" lon="12.440768910136358"><ele>283.0</ele><time>2026-04-18T13:44:47Z</time></trkpt><trkpt lat="43.726545749421426" lon="12.441005457382804"><ele>282.0</ele><time>2026-04-18T13:44:48Z</time></trkpt><trkpt lat="43.726614785254256" lon="12.44121788455627"><ele>281.0</ele><time>2026-04-18T13:44:49Z</time></trkpt><trkpt lat="43.72667970285022" lon="12.441413982254476"><ele>280.0</ele><time>2026-04-18T13:44:50Z</time></trkpt><trkpt lat="43.72674365663337" lon="12.44159983057357"><ele>279.0</ele><time>2026-04-18T13:44:51Z</time></trkpt><trkpt lat="43.726818495575564" lon="12.44176303658801"><ele>278.0</ele><time>2026-04-18T13:44:52Z</time></trkpt><trkpt lat="43.726872579595295" lon="12.441927299341158"><ele>277.0</ele><time>2026-04-18T13:44:53Z</time></trkpt><trkpt lat="43.72692193944221" lon="12.442072526827054"><ele>278.5</ele><time>2026-04-18T13:44:54Z</time></trkpt><trkpt lat="43.726960627612414" lon="12.44219853897813"><ele>280.0</ele><time>2026-04-18T13:44:55Z</time></trkpt><trkpt lat="43.72698534027138" lon="12.442316521653938"><ele>281.5</ele><time>2026-04-18T13:44:56Z</time></trkpt><trkpt lat="43.726992035649836" lon="12.442433625629974"><ele>283.0</ele><time>2026-04-18T13:44:57Z</time></trkpt><trkpt lat="43.72701130524506" lon="12.442538768475574"><ele>284.5</ele><time>2026-04-18T13:44:58Z</time></trkpt><trkpt lat="43.72706282133966" lon="12.442621949408553"><ele>286.0</ele><time>2026-04-18T13:44:59Z</time></trkpt><trkpt lat="43.72714186136525" lon="12.44267896035131"><ele>286.0</ele><time>2026-04-18T13:45:00Z</time></trkpt><trkpt lat="43.727238086331" lon="12.442747248943327"><ele>286.0</ele><time>2026-04-18T13:45:01Z</time></trkpt><trkpt lat="43.72734026482557" lon="12.442843250281557"><ele>286.0</ele><time>2026-04-18T13:45:02Z</time></trkpt><trkpt lat="43.72745998362628" lon="12.442961168000672"><ele>286.0</ele><time>2026-04-18T13:45:03Z</time></trkpt><trkpt lat="43.72759824178964" lon="12.443098254982335"><ele>283.66666666666663</ele><time>2026-04-18T13:45:04Z</time></trkpt><trkpt lat="43.727750043817174" lon="12.443247957459402"><ele>281.3333333333333</ele><time>2026-04-18T13:45:05Z</time></trkpt><trkpt lat="43.72790358932598" lon="12.443397103863227"><ele>279.0</ele><time>2026-04-18T13:45:06Z</time></trkpt><trkpt lat="43.72806955749088" lon="12.443549347313516"><ele>279.0</ele><time>2026-04-18T13:45:07Z</time></trkpt><trkpt lat="43.728236706135284" lon="12.443702371105912"><ele>279.0</ele><time>2026-04-18T13:45:08Z</time></trkpt><trkpt lat="43.728402631987436" lon="12.443855180778177"><ele>279.0</ele><time>2026-04-18T13:45:09Z</time></trkpt><trkpt lat="43.72856727766046" lon="12.44400897660634"><ele>278.0</ele><time>2026-04-18T13:45:10Z</time></trkpt><trkpt lat="43.72873402731067" lon="12.444162887774805"><ele>277.0</ele><time>2026-04-18T13:45:11Z</time></trkpt><trkpt lat="43.72890261297082" lon="12.44430592199257"><ele>276.0</ele><time>2026-04-18T13:45:12Z</time></trkpt><trkpt lat="43.72907553753785" lon="12.444433398182806"><ele>276.0</ele><time>2026-04-18T13:45:13Z</time></trkpt><trkpt lat="43.72925377152633" lon="12.444540683207485"><ele>276.0</ele><time>2026-04-18T13:45:14Z</time></trkpt><trkpt lat="43.729424427777964" lon="12.444654596588439"><ele>276.0</ele><time>2026-04-18T13:45:15Z</time></trkpt><trkpt lat="43.72959937150224" lon="12.44474444410756"><ele>275.3333333333333</ele><time>2026-04-18T13:45:16Z</time></trkpt><trkpt lat="43.72977846375281" lon="12.444808421120477"><ele>274.66666666666663</ele><time>2026-04-18T13:45:17Z</time></trkpt><trkpt lat="43.729951452843956" lon="12.444889829807844"><ele>274.0</ele><time>2026-04-18T13:45:18Z</time></trkpt><trkpt lat="43.7301232517819" lon="12.444970683987213"><ele>275.0</ele><time>2026-04-18T13:45:19Z</time></trkpt><trkpt lat="43.730292207000936" lon="12.445049148055416"><ele>276.0</ele><time>2026-04-18T13:45:20Z</time></trkpt><trkpt lat="43.730459096893576" lon="12.445130206484455"><ele>277.0</ele><time>2026-04-18T13:45:21Z</time></trkpt><trkpt lat="43.730622499508016" lon="12.445207151090523"><ele>277.0</ele><time>2026-04-18T13:45:22Z</time></trkpt><trkpt lat="43.73078196513129" lon="12.445277701058075"><ele>277.0</ele><time>2026-04-18T13:45:23Z</time></trkpt><trkpt lat="43.73094183034368" lon="12.445344337558392"><ele>277.0</ele><time>2026-04-18T13:45:24Z</time></trkpt><trkpt lat="43.73110289485059" lon="12.445406624258021"><ele>276.66666666666663</ele><time>2026-04-18T13:45:25Z</time></trkpt><trkpt lat="43.731265605461594" lon="12.44546164207722"><ele>276.3333333333333</ele><time>2026-04-18T13:45:26Z</time></trkpt><trkpt lat="43.73142842843244" lon="12.445509544030807"><ele>276.0</ele><time>2026-04-18T13:45:27Z</time></trkpt><trkpt lat="43.7315925861021" lon="12.44555206708518"><ele>275.3333333333333</ele><time>2026-04-18T13:45:28Z</time></trkpt><trkpt lat="43.73175973514569" lon="12.44559035957748"><ele>274.66666666666663</ele><time>2026-04-18T13:45:29Z</time></trkpt><trkpt lat="43.73192766888383" lon="12.445632664543009"><ele>274.0</ele><time>2026-04-18T13:45:30Z</time></trkpt><trkpt lat="43.732097327868516" lon="12.445677043236163"><ele>273.66666666666663</ele><time>2026-04-18T13:45:31Z</time></trkpt><trkpt lat="43.73227026448269" lon="12.445726148029252"><ele>273.3333333333333</ele><time>2026-04-18T13:45:32Z</time></trkpt><trkpt lat="43.73244255146351" lon="12.445769637009816"><ele>273.0</ele><time>2026-04-18T13:45:33Z</time></trkpt><trkpt lat="43.732616978506094" lon="12.445807511113895"><ele>272.0</ele><time>2026-04-18T13:45:34Z</time></trkpt><trkpt lat="43.732792743767625" lon="12.445861062827126"><ele>271.0</ele><time>2026-04-18T13:45:35Z</time></trkpt><trkpt lat="43.732971861678855" lon="12.445905364123218"><ele>270.0</ele><time>2026-04-18T13:45:36Z</time></trkpt><trkpt lat="43.73315160259018" lon="12.445944314739965"><ele>270.0</ele><time>2026-04-18T13:45:37Z</time></trkpt><trkpt lat="43.7333340636658" lon="12.445978407541972"><ele>270.0</ele><time>2026-04-18T13:45:38Z</time></trkpt><trkpt lat="43.73351741649806" lon="12.446007946851772"><ele>270.0</ele><time>2026-04-18T13:45:39Z</time></trkpt><trkpt lat="43.73370429164596" lon="12.446038869884998"><ele>269.6666666666667</ele><time>2026-04-18T13:45:40Z</time></trkpt><trkpt lat="43.73389057350628" lon="12.446070440561439"><ele>269.33333333333337</ele><time>2026-04-18T13:45:41Z</time></trkpt><trkpt lat="43.73407410285652" lon="12.446101046656915"><ele>269.0</ele><time>2026-04-18T13:45:42Z</time></trkpt><trkpt lat="43.73425355145878" lon="12.446126507817981"><ele>269.6666666666667</ele><time>2026-04-18T13:45:43Z</time></trkpt><trkpt lat="43.734425862241345" lon="12.446149961955784"><ele>270.3333333333333</ele><time>2026-04-18T13:45:44Z</time></trkpt><trkpt lat="43.73459205893068" lon="12.446170747452642"><ele>271.0</ele><time>2026-04-18T13:45:45Z</time></trkpt><trkpt lat="43.73475296485993" lon="12.446187451845528"><ele>271.0</ele><time>2026-04-18T13:45:46Z</time></trkpt><trkpt lat="43.7349086468089" lon="12.446187619298254"><ele>271.0</ele><time>2026-04-18T13:45:47Z</time></trkpt><trkpt lat="43.73506173248791" lon="12.446173603620208"><ele>271.0</ele><time>2026-04-18T13:45:48Z</time></trkpt><trkpt lat="43.73520566107997" lon="12.446142549290556"><ele>270.2</ele><time>2026-04-18T13:45:49Z</time></trkpt><trkpt lat="43.7353355822746" lon="12.44609898488761"><ele>269.40000000000003</ele><time>2026-04-18T13:45:50Z</time></trkpt><trkpt lat="43.735448683767906" lon="12.446048295528847"><ele>268.6</ele><time>2026-04-18T13:45:51Z</time></trkpt><trkpt lat="43.73554202410851" lon="12.445998564097764"><ele>267.8</ele><time>2026-04-18T13:45:52Z</time></trkpt><trkpt lat="43.73562523111276" lon="12.445951862881559"><ele>267.0</ele><time>2026-04-18T13:45:53Z</time></trkpt><trkpt lat="43.73570224757231" lon="12.445897118731539"><ele>267.0</ele><time>2026-04-18T13:45:54Z</time></trkpt><trkpt lat="43.73578160205306" lon="12.445868099112298"><ele>267.0</ele><time>2026-04-18T13:45:55Z</time></trkpt><trkpt lat="43.73584705027911" lon="12.44581848961401"><ele>267.0</ele><time>2026-04-18T13:45:56Z</time></trkpt><trkpt lat="43.73590403879416" lon="12.44577230516607"><ele>267.0</ele><time>2026-04-18T13:45:57Z</time></trkpt><trkpt lat="43.73600211037646" lon="12.445690191320006"><ele>267.0</ele><time>2026-04-18T13:45:59Z</time></trkpt><trkpt lat="43.73607382174826" lon="12.445628208220542"><ele>267.0</ele><time>2026-04-18T13:46:01Z</time></trkpt><trkpt lat="43.736144678925235" lon="12.44556566231493"><ele>267.5</ele><time>2026-04-18T13:46:04Z</time></trkpt><trkpt lat="43.736203311282694" lon="12.44551390880118"><ele>268.0</ele><time>2026-04-18T13:46:07.999Z</time></trkpt><trkpt lat="43.73627424816999" lon="12.445451292572498"><ele>268.5</ele><time>2026-04-18T13:47:41.999Z</time></trkpt><trkpt lat="43.73632798174199" lon="12.445403861684298"><ele>269.0</ele><time>2026-04-18T13:47:42.999Z</time></trkpt><trkpt lat="43.73639000623589" lon="12.445349112417981"><ele>269.5</ele><time>2026-04-18T13:47:43.999Z</time></trkpt><trkpt lat="43.736456447661915" lon="12.445290464332032"><ele>270.0</ele><time>2026-04-18T13:47:44.999Z</time></trkpt><trkpt lat="43.73653003777027" lon="12.445225505969997"><ele>270.0</ele><time>2026-04-18T13:47:45.999Z</time></trkpt><trkpt lat="43.73661610565892" lon="12.445150314316376"><ele>270.0</ele><time>2026-04-18T13:47:46.999Z</time></trkpt><trkpt lat="43.736716801543515" lon="12.4450626876288"><ele>270.0</ele><time>2026-04-18T13:47:47.999Z</time></trkpt><trkpt lat="43.73682592977367" lon="12.444967723115923"><ele>270.0</ele><time>2026-04-18T13:47:48.999Z</time></trkpt><trkpt lat="43.73693728208385" lon="12.444850216525678"><ele>269.0</ele><time>2026-04-18T13:47:49.999Z</time></trkpt><trkpt lat="43.737059303922926" lon="12.444775319651608"><ele>268.0</ele><time>2026-04-18T13:47:50.999Z</time></trkpt><trkpt lat="43.737184690762135" lon="12.444690508187447"><ele>267.0</ele><time>2026-04-18T13:47:51.999Z</time></trkpt><trkpt lat="43.73732510243278" lon="12.44461300725834"><ele>266.0</ele><time>2026-04-18T13:47:52.999Z</time></trkpt><trkpt lat="43.73747166798802" lon="12.444544926556473"><ele>269.0</ele><time>2026-04-18T13:47:53.999Z</time></trkpt><trkpt lat="43.737632795488935" lon="12.444486393882642"><ele>272.0</ele><time>2026-04-18T13:47:54.999Z</time></trkpt><trkpt lat="43.73779017714715" lon="12.444443968120138"><ele>275.0</ele><time>2026-04-18T13:47:55.999Z</time></trkpt><trkpt lat="43.73794904727648" lon="12.444419248229574"><ele>275.0</ele><time>2026-04-18T13:47:56.999Z</time></trkpt><trkpt lat="43.73810468548826" lon="12.444405531620271"><ele>275.0</ele><time>2026-04-18T13:47:57.999Z</time></trkpt><trkpt lat="43.73826134444979" lon="12.444409604803782"><ele>275.0</ele><time>2026-04-18T13:47:58.999Z</time></trkpt><trkpt lat="43.73841708208118" lon="12.444427315473142"><ele>276.6666666666667</ele><time>2026-04-18T13:47:59.999Z</time></trkpt><trkpt lat="43.73857603340654" lon="12.44445423469022"><ele>278.3333333333333</ele><time>2026-04-18T13:48:00.999Z</time></trkpt><trkpt lat="43.738730611302934" lon="12.444498834817441"><ele>280.0</ele><time>2026-04-18T13:48:01.999Z</time></trkpt><trkpt lat="43.73888171938035" lon="12.444559603772438"><ele>276.3333333333333</ele><time>2026-04-18T13:48:02.999Z</time></trkpt><trkpt lat="43.7390316617859" lon="12.44463149230016"><ele>272.6666666666667</ele><time>2026-04-18T13:48:03.999Z</time></trkpt><trkpt lat="43.739180335497075" lon="12.444718465243596"><ele>269.0</ele><time>2026-04-18T13:48:05Z</time></trkpt><trkpt lat="43.73933697710558" lon="12.444819740201513"><ele>272.0</ele><time>2026-04-18T13:48:06Z</time></trkpt><trkpt lat="43.7394976595895" lon="12.444942535849899"><ele>275.0</ele><time>2026-04-18T13:48:07Z</time></trkpt><trkpt lat="43.739656603717805" lon="12.445073861954443"><ele>278.0</ele><time>2026-04-18T13:48:08Z</time></trkpt><trkpt lat="43.739811534254976" lon="12.445210066029642"><ele>278.0</ele><time>2026-04-18T13:48:09Z</time></trkpt><trkpt lat="43.739966407074476" lon="12.44534837875628"><ele>278.0</ele><time>2026-04-18T13:48:10Z</time></trkpt><trkpt lat="43.74012865569822" lon="12.445494000156181"><ele>278.0</ele><time>2026-04-18T13:48:11Z</time></trkpt><trkpt lat="43.740290017333635" lon="12.445638825460007"><ele>277.6666666666667</ele><time>2026-04-18T13:48:12Z</time></trkpt><trkpt lat="43.74044519483163" lon="12.445778100361606"><ele>277.3333333333333</ele><time>2026-04-18T13:48:13Z</time></trkpt><trkpt lat="43.74060708054152" lon="12.445923395993617"><ele>277.0</ele><time>2026-04-18T13:48:14Z</time></trkpt><trkpt lat="43.7407724623804" lon="12.446052748636475"><ele>277.0</ele><time>2026-04-18T13:48:15Z</time></trkpt><trkpt lat="43.74093727515327" lon="12.44621341444448"><ele>277.0</ele><time>2026-04-18T13:48:16Z</time></trkpt><trkpt lat="43.74111523993004" lon="12.44637209805906"><ele>277.0</ele><time>2026-04-18T13:48:17Z</time></trkpt><trkpt lat="43.741297635693" lon="12.446537850036254"><ele>276.0</ele><time>2026-04-18T13:48:18Z</time></trkpt><trkpt lat="43.741479969011415" lon="12.446701129243559"><ele>275.0</ele><time>2026-04-18T13:48:19Z</time></trkpt><trkpt lat="43.74166396100734" lon="12.446869946767446"><ele>274.0</ele><time>2026-04-18T13:48:20Z</time></trkpt><trkpt lat="43.74184745540564" lon="12.447038234622399"><ele>272.0</ele><time>2026-04-18T13:48:21Z</time></trkpt><trkpt lat="43.742033152377815" lon="12.447207538716624"><ele>270.0</ele><time>2026-04-18T13:48:22Z</time></trkpt><trkpt lat="43.74221689334373" lon="12.447367675468147"><ele>268.0</ele><time>2026-04-18T13:48:23Z</time></trkpt><trkpt lat="43.742404819834434" lon="12.447512391980363"><ele>268.0</ele><time>2026-04-18T13:48:24Z</time></trkpt><trkpt lat="43.742601084154884" lon="12.447636265029546"><ele>268.0</ele><time>2026-04-18T13:48:25Z</time></trkpt><trkpt lat="43.742806388332035" lon="12.447736733771565"><ele>268.0</ele><time>2026-04-18T13:48:26Z</time></trkpt><trkpt lat="43.74301548747331" lon="12.447816509108158"><ele>271.66666666666663</ele><time>2026-04-18T13:48:27Z</time></trkpt><trkpt lat="43.743228258250014" lon="12.447879249670354"><ele>275.3333333333333</ele><time>2026-04-18T13:48:28Z</time></trkpt><trkpt lat="43.743442662584776" lon="12.447915804368968"><ele>279.0</ele><time>2026-04-18T13:48:29Z</time></trkpt><trkpt lat="43.74366093986974" lon="12.447929355628865"><ele>280.3333333333333</ele><time>2026-04-18T13:48:30Z</time></trkpt><trkpt lat="43.74387723129011" lon="12.447930635952787"><ele>281.66666666666663</ele><time>2026-04-18T13:48:31Z</time></trkpt><trkpt lat="43.744094528318286" lon="12.447913164672839"><ele>283.0</ele><time>2026-04-18T13:48:32Z</time></trkpt><trkpt lat="43.744310643860864" lon="12.44789398318203"><ele>284.66666666666663</ele><time>2026-04-18T13:48:33Z</time></trkpt><trkpt lat="43.74452766314789" lon="12.447882551738868"><ele>286.3333333333333</ele><time>2026-04-18T13:48:34Z</time></trkpt><trkpt lat="43.74473994195117" lon="12.447866650323842"><ele>288.0</ele><time>2026-04-18T13:48:35Z</time></trkpt><trkpt lat="43.74494968802228" lon="12.447856964601943"><ele>288.0</ele><time>2026-04-18T13:48:36Z</time></trkpt><trkpt lat="43.745160041421414" lon="12.447836216220361"><ele>288.0</ele><time>2026-04-18T13:48:37Z</time></trkpt><trkpt lat="43.74537223838525" lon="12.447813388391983"><ele>288.0</ele><time>2026-04-18T13:48:38Z</time></trkpt><trkpt lat="43.745584593474526" lon="12.447801511344064"><ele>288.0</ele><time>2026-04-18T13:48:39Z</time></trkpt><trkpt lat="43.745800014676384" lon="12.447790677227719"><ele>288.0</ele><time>2026-04-18T13:48:40Z</time></trkpt><trkpt lat="43.74601493060425" lon="12.44778942254793"><ele>288.0</ele><time>2026-04-18T13:48:41Z</time></trkpt><trkpt lat="43.74623408005814" lon="12.447789080728374"><ele>288.0</ele><time>2026-04-18T13:48:42Z</time></trkpt><trkpt lat="43.746454429778524" lon="12.44778571025315"><ele>288.0</ele><time>2026-04-18T13:48:43Z</time></trkpt><trkpt lat="43.746676616148754" lon="12.447783175437703"><ele>288.0</ele><time>2026-04-18T13:48:44Z</time></trkpt><trkpt lat="43.746896599238546" lon="12.44778106269218"><ele>288.0</ele><time>2026-04-18T13:48:45Z</time></trkpt><trkpt lat="43.74711839623752" lon="12.447782378419031"><ele>288.0</ele><time>2026-04-18T13:48:46Z</time></trkpt><trkpt lat="43.74733770401059" lon="12.447795551417254"><ele>288.0</ele><time>2026-04-18T13:48:47Z</time></trkpt><trkpt lat="43.74755557678155" lon="12.447820015616514"><ele>288.0</ele><time>2026-04-18T13:48:48Z</time></trkpt><trkpt lat="43.74777287311999" lon="12.447853181318877"><ele>288.0</ele><time>2026-04-18T13:48:49Z</time></trkpt><trkpt lat="43.74798423071892" lon="12.447919666987191"><ele>288.0</ele><time>2026-04-18T13:48:50Z</time></trkpt><trkpt lat="43.74819381229475" lon="12.448002281164483"><ele>286.0</ele><time>2026-04-18T13:48:51Z</time></trkpt><trkpt lat="43.74839915846663" lon="12.448106721641539"><ele>284.0</ele><time>2026-04-18T13:48:52Z</time></trkpt><trkpt lat="43.748603451740074" lon="12.448218514069149"><ele>282.0</ele><time>2026-04-18T13:48:53Z</time></trkpt><trkpt lat="43.748807170459486" lon="12.448327736429595"><ele>281.6666666666667</ele><time>2026-04-18T13:48:54Z</time></trkpt><trkpt lat="43.74901025883503" lon="12.448447543091088"><ele>281.33333333333337</ele><time>2026-04-18T13:48:55Z</time></trkpt><trkpt lat="43.74920956111556" lon="12.448569767597567"><ele>281.0</ele><time>2026-04-18T13:48:56Z</time></trkpt><trkpt lat="43.74941136504931" lon="12.44868510338187"><ele>280.0</ele><time>2026-04-18T13:48:56.999Z</time></trkpt><trkpt lat="43.749613046537185" lon="12.448803818364818"><ele>279.0</ele><time>2026-04-18T13:48:57.999Z</time></trkpt><trkpt lat="43.7498120478251" lon="12.448919407538988"><ele>278.0</ele><time>2026-04-18T13:48:58.999Z</time></trkpt><trkpt lat="43.750009330296706" lon="12.449026090927404"><ele>278.0</ele><time>2026-04-18T13:48:59.999Z</time></trkpt><trkpt lat="43.75021086531657" lon="12.449109261728726"><ele>278.0</ele><time>2026-04-18T13:49:00.999Z</time></trkpt><trkpt lat="43.75041913683543" lon="12.449169044395981"><ele>278.0</ele><time>2026-04-18T13:49:01.999Z</time></trkpt><trkpt lat="43.750630084969615" lon="12.449208793047125"><ele>278.0</ele><time>2026-04-18T13:49:02.999Z</time></trkpt><trkpt lat="43.750842387885164" lon="12.449231218586172"><ele>278.0</ele><time>2026-04-18T13:49:03.999Z</time></trkpt><trkpt lat="43.751055912164624" lon="12.449245315373455"><ele>278.0</ele><time>2026-04-18T13:49:04.999Z</time></trkpt><trkpt lat="43.75126645831811" lon="12.449253526931777"><ele>278.0</ele><time>2026-04-18T13:49:05.999Z</time></trkpt><trkpt lat="43.75147874316627" lon="12.449254233984348"><ele>278.0</ele><time>2026-04-18T13:49:06.999Z</time></trkpt><trkpt lat="43.75169137782454" lon="12.449245472680825"><ele>278.0</ele><time>2026-04-18T13:49:07.999Z</time></trkpt><trkpt lat="43.75190695097452" lon="12.449234302178672"><ele>278.0</ele><time>2026-04-18T13:49:08.999Z</time></trkpt><trkpt lat="43.752120107523346" lon="12.449226164644848"><ele>278.0</ele><time>2026-04-18T13:49:09.999Z</time></trkpt><trkpt lat="43.75233376104223" lon="12.449220674049595"><ele>278.0</ele><time>2026-04-18T13:49:10.999Z</time></trkpt><trkpt lat="43.75254614561738" lon="12.449216364811582"><ele>278.33333333333337</ele><time>2026-04-18T13:49:11.999Z</time></trkpt><trkpt lat="43.752757811326994" lon="12.449211141263373"><ele>278.6666666666667</ele><time>2026-04-18T13:49:12.999Z</time></trkpt><trkpt lat="43.75296609811358" lon="12.449211949159308"><ele>279.0</ele><time>2026-04-18T13:49:13.999Z</time></trkpt><trkpt lat="43.753163082138784" lon="12.44922614603337"><ele>279.0</ele><time>2026-04-18T13:49:14.999Z</time></trkpt><trkpt lat="43.75335316913432" lon="12.449259705373436"><ele>279.0</ele><time>2026-04-18T13:49:15.999Z</time></trkpt><trkpt lat="43.753542789171924" lon="12.449318795875959"><ele>279.0</ele><time>2026-04-18T13:49:16.999Z</time></trkpt><trkpt lat="43.75373326035675" lon="12.449409080248902"><ele>281.0</ele><time>2026-04-18T13:49:17.999Z</time></trkpt><trkpt lat="43.753918938172674" lon="12.449523674200975"><ele>283.0</ele><time>2026-04-18T13:49:18.999Z</time></trkpt><trkpt lat="43.75409864096162" lon="12.449668040521441"><ele>285.0</ele><time>2026-04-18T13:49:19.999Z</time></trkpt><trkpt lat="43.754273699568046" lon="12.449825837212012"><ele>280.3333333333333</ele><time>2026-04-18T13:49:20.999Z</time></trkpt><trkpt lat="43.7544480047076" lon="12.449992685391724"><ele>275.66666666666663</ele><time>2026-04-18T13:49:21.999Z</time></trkpt><trkpt lat="43.75461988504222" lon="12.450155707086473"><ele>271.0</ele><time>2026-04-18T13:49:22.999Z</time></trkpt><trkpt lat="43.75479252245752" lon="12.450310574390974"><ele>271.0</ele><time>2026-04-18T13:49:23.999Z</time></trkpt><trkpt lat="43.75495757077491" lon="12.450456657969175"><ele>271.0</ele><time>2026-04-18T13:49:24.999Z</time></trkpt><trkpt lat="43.75511805703032" lon="12.45060024635814"><ele>271.0</ele><time>2026-04-18T13:49:25.999Z</time></trkpt><trkpt lat="43.755271921855595" lon="12.450741397179963"><ele>269.0</ele><time>2026-04-18T13:49:26.999Z</time></trkpt><trkpt lat="43.755421765954296" lon="12.450878426590862"><ele>267.0</ele><time>2026-04-18T13:49:27.999Z</time></trkpt><trkpt lat="43.75556738858454" lon="12.451009108980584"><ele>265.0</ele><time>2026-04-18T13:49:28.999Z</time></trkpt><trkpt lat="43.75569946701136" lon="12.451130615854824"><ele>265.0</ele><time>2026-04-18T13:49:29.999Z</time></trkpt><trkpt lat="43.75582405564415" lon="12.45124783422118"><ele>265.0</ele><time>2026-04-18T13:49:30.999Z</time></trkpt><trkpt lat="43.75594647381318" lon="12.451358591343842"><ele>265.0</ele><time>2026-04-18T13:49:31.999Z</time></trkpt><trkpt lat="43.75605902145186" lon="12.45146382101767"><ele>265.0</ele><time>2026-04-18T13:49:32.999Z</time></trkpt><trkpt lat="43.75617027246044" lon="12.451563581660213"><ele>262.25</ele><time>2026-04-18T13:49:33.999Z</time></trkpt><trkpt lat="43.75628048871229" lon="12.451661826762736"><ele>259.5</ele><time>2026-04-18T13:49:34.999Z</time></trkpt><trkpt lat="43.75638932889968" lon="12.451764787681197"><ele>256.75</ele><time>2026-04-18T13:49:35.999Z</time></trkpt><trkpt lat="43.75649580555784" lon="12.45185770928572"><ele>254.0</ele><time>2026-04-18T13:49:36.999Z</time></trkpt><trkpt lat="43.756602775596136" lon="12.451953637767874"><ele>254.0</ele><time>2026-04-18T13:49:37.999Z</time></trkpt><trkpt lat="43.75671336115329" lon="12.452057723107341"><ele>254.0</ele><time>2026-04-18T13:49:38.999Z</time></trkpt><trkpt lat="43.756825868758014" lon="12.452164479870085"><ele>254.0</ele><time>2026-04-18T13:49:39.999Z</time></trkpt><trkpt lat="43.75693507245432" lon="12.452266331147289"><ele>254.0</ele><time>2026-04-18T13:49:40.999Z</time></trkpt><trkpt lat="43.757038970964906" lon="12.452357228590571"><ele>255.0</ele><time>2026-04-18T13:49:41.999Z</time></trkpt><trkpt lat="43.75713048719723" lon="12.452438968690624"><ele>255.99999999999997</ele><time>2026-04-18T13:49:42.999Z</time></trkpt><trkpt lat="43.75721598013815" lon="12.452519939041055"><ele>257.0</ele><time>2026-04-18T13:49:43.999Z</time></trkpt><trkpt lat="43.757299993589115" lon="12.452606058802543"><ele>258.0</ele><time>2026-04-18T13:49:44.999Z</time></trkpt><trkpt lat="43.75739966932768" lon="12.452709910424169"><ele>259.0</ele><time>2026-04-18T13:49:45.999Z</time></trkpt><trkpt lat="43.7574824110864" lon="12.452776270195896"><ele>259.0</ele><time>2026-04-18T13:49:46.999Z</time></trkpt><trkpt lat="43.75755589818294" lon="12.452860364143678"><ele>259.0</ele><time>2026-04-18T13:49:47.999Z</time></trkpt><trkpt lat="43.75764422164375" lon="12.452951416683412"><ele>259.0</ele><time>2026-04-18T13:49:48.999Z</time></trkpt><trkpt lat="43.7577417863069" lon="12.453053007089187"><ele>259.0</ele><time>2026-04-18T13:49:49.999Z</time></trkpt><trkpt lat="43.757838609722505" lon="12.453162118766326"><ele>257.75</ele><time>2026-04-18T13:49:50.999Z</time></trkpt><trkpt lat="43.757935921780486" lon="12.453272906614002"><ele>256.5</ele><time>2026-04-18T13:49:51.999Z</time></trkpt><trkpt lat="43.75804040204369" lon="12.453381759695757"><ele>255.25</ele><time>2026-04-18T13:49:52.999Z</time></trkpt><trkpt lat="43.7581445351454" lon="12.453492280737951"><ele>254.0</ele><time>2026-04-18T13:49:53.999Z</time></trkpt><trkpt lat="43.75824497814792" lon="12.453602886693089"><ele>254.0</ele><time>2026-04-18T13:49:54.999Z</time></trkpt><trkpt lat="43.75833338566202" lon="12.45370312449596"><ele>253.99999999999997</ele><time>2026-04-18T13:49:55.999Z</time></trkpt><trkpt lat="43.75840793431094" lon="12.453796189680471"><ele>253.99999999999997</ele><time>2026-04-18T13:49:56.999Z</time></trkpt><trkpt lat="43.75847453038803" lon="12.453878329341387"><ele>254.0</ele><time>2026-04-18T13:49:57.999Z</time></trkpt><trkpt lat="43.758532186258336" lon="12.453951128910587"><ele>254.0</ele><time>2026-04-18T13:49:58.999Z</time></trkpt><trkpt lat="43.75858002094237" lon="12.454020884960734"><ele>253.33333333333334</ele><time>2026-04-18T13:49:59.999Z</time></trkpt><trkpt lat="43.75862114680124" lon="12.454099687500152"><ele>252.66666666666669</ele><time>2026-04-18T13:50:00.999Z</time></trkpt><trkpt lat="43.75865106854748" lon="12.454195489693468"><ele>252.0</ele><time>2026-04-18T13:50:01.999Z</time></trkpt><trkpt lat="43.758681667523064" lon="12.454299114639305"><ele>251.33333333333331</ele><time>2026-04-18T13:50:02.999Z</time></trkpt><trkpt lat="43.75872981368384" lon="12.454381292743543"><ele>250.66666666666666</ele><time>2026-04-18T13:50:03.999Z</time></trkpt><trkpt lat="43.7588006199545" lon="12.454444870194868"><ele>250.0</ele><time>2026-04-18T13:50:04.999Z</time></trkpt><trkpt lat="43.75889036846298" lon="12.454485736137789"><ele>250.0</ele><time>2026-04-18T13:50:05.999Z</time></trkpt><trkpt lat="43.758999995912305" lon="12.454513052934066"><ele>250.0</ele><time>2026-04-18T13:50:06.999Z</time></trkpt><trkpt lat="43.75912176712566" lon="12.454534957248931"><ele>250.0</ele><time>2026-04-18T13:50:07.999Z</time></trkpt><trkpt lat="43.759250822040386" lon="12.454671454734841"><ele>250.0</ele><time>2026-04-18T13:50:08.999Z</time></trkpt><trkpt lat="43.75938429609031" lon="12.454789852674372"><ele>250.0</ele><time>2026-04-18T13:50:09.999Z</time></trkpt><trkpt lat="43.75952287495483" lon="12.454905663020742"><ele>250.0</ele><time>2026-04-18T13:50:11Z</time></trkpt><trkpt lat="43.759677424890526" lon="12.455022281308095"><ele>250.0</ele><time>2026-04-18T13:50:12Z</time></trkpt><trkpt lat="43.75983214893144" lon="12.455135701886542"><ele>250.0</ele><time>2026-04-18T13:50:13Z</time></trkpt><trkpt lat="43.75999277315062" lon="12.455249014053368"><ele>250.0</ele><time>2026-04-18T13:50:14Z</time></trkpt><trkpt lat="43.760157637450625" lon="12.455369907630535"><ele>250.0</ele><time>2026-04-18T13:50:15Z</time></trkpt><trkpt lat="43.76032880036625" lon="12.455465689164173"><ele>250.0</ele><time>2026-04-18T13:50:16Z</time></trkpt><trkpt lat="43.76050522969513" lon="12.45556247239899"><ele>250.0</ele><time>2026-04-18T13:50:17Z</time></trkpt><trkpt lat="43.760686246925935" lon="12.455647333170882"><ele>250.0</ele><time>2026-04-18T13:50:18Z</time></trkpt><trkpt lat="43.76086850025807" lon="12.455728213391016"><ele>250.0</ele><time>2026-04-18T13:50:19Z</time></trkpt><trkpt lat="43.76105231603776" lon="12.455800613347481"><ele>250.0</ele><time>2026-04-18T13:50:20Z</time></trkpt><trkpt lat="43.761238062181995" lon="12.455868873084926"><ele>250.0</ele><time>2026-04-18T13:50:21Z</time></trkpt><trkpt lat="43.76142664917537" lon="12.455942117682932"><ele>250.0</ele><time>2026-04-18T13:50:22Z</time></trkpt><trkpt lat="43.76161913504153" lon="12.456014812780706"><ele>250.0</ele><time>2026-04-18T13:50:23Z</time></trkpt><trkpt lat="43.76181422728611" lon="12.456088080231098"><ele>250.0</ele><time>2026-04-18T13:50:24Z</time></trkpt><trkpt lat="43.762010586112524" lon="12.456158651321573"><ele>249.33333333333331</ele><time>2026-04-18T13:50:25Z</time></trkpt><trkpt lat="43.7622073164105" lon="12.456226422302379"><ele>248.66666666666669</ele><time>2026-04-18T13:50:26Z</time></trkpt><trkpt lat="43.7623995933196" lon="12.456293988459542"><ele>248.0</ele><time>2026-04-18T13:50:27Z</time></trkpt><trkpt lat="43.762586409058734" lon="12.456373728770123"><ele>251.33333333333334</ele><time>2026-04-18T13:50:28Z</time></trkpt><trkpt lat="43.76276491916265" lon="12.4564713803504"><ele>254.66666666666669</ele><time>2026-04-18T13:50:29Z</time></trkpt><trkpt lat="43.762936484960505" lon="12.456589341995484"><ele>258.0</ele><time>2026-04-18T13:50:30Z</time></trkpt><trkpt lat="43.763102734259206" lon="12.456716053902424"><ele>258.0</ele><time>2026-04-18T13:50:31Z</time></trkpt><trkpt lat="43.763257566963624" lon="12.456860250157796"><ele>258.0</ele><time>2026-04-18T13:50:32Z</time></trkpt><trkpt lat="43.763392755094" lon="12.457015645033433"><ele>258.0</ele><time>2026-04-18T13:50:33Z</time></trkpt><trkpt lat="43.76351111784233" lon="12.457175702180713"><ele>257.3333333333333</ele><time>2026-04-18T13:50:34Z</time></trkpt><trkpt lat="43.763621154003765" lon="12.457344402513748"><ele>256.66666666666663</ele><time>2026-04-18T13:50:35Z</time></trkpt><trkpt lat="43.763729737504974" lon="12.457515963389042"><ele>256.0</ele><time>2026-04-18T13:50:36Z</time></trkpt><trkpt lat="43.76383948526013" lon="12.457683363010982"><ele>256.0</ele><time>2026-04-18T13:50:37Z</time></trkpt><trkpt lat="43.76394615161504" lon="12.457850947652998"><ele>256.0</ele><time>2026-04-18T13:50:38Z</time></trkpt><trkpt lat="43.76404855098884" lon="12.458017294303684"><ele>256.0</ele><time>2026-04-18T13:50:39Z</time></trkpt><trkpt lat="43.764153910166975" lon="12.458188442446712"><ele>255.0</ele><time>2026-04-18T13:50:40Z</time></trkpt><trkpt lat="43.76426291541362" lon="12.458361835573653"><ele>254.0</ele><time>2026-04-18T13:50:41Z</time></trkpt><trkpt lat="43.76437438105582" lon="12.45853819108865"><ele>253.0</ele><time>2026-04-18T13:50:42Z</time></trkpt><trkpt lat="43.76448775199994" lon="12.458712026257219"><ele>250.75</ele><time>2026-04-18T13:50:43Z</time></trkpt><trkpt lat="43.7646030057904" lon="12.45887122258687"><ele>248.5</ele><time>2026-04-18T13:50:44Z</time></trkpt><trkpt lat="43.76471544254266" lon="12.458998278496955"><ele>246.25</ele><time>2026-04-18T13:50:45Z</time></trkpt><trkpt lat="43.764829957078376" lon="12.459107273761516"><ele>244.0</ele><time>2026-04-18T13:50:46Z</time></trkpt><trkpt lat="43.76494801320012" lon="12.459211603064945"><ele>244.0</ele><time>2026-04-18T13:50:47Z</time></trkpt><trkpt lat="43.76507092701998" lon="12.459303152001084"><ele>244.0</ele><time>2026-04-18T13:50:48Z</time></trkpt><trkpt lat="43.7652049918199" lon="12.459389447701925"><ele>244.0</ele><time>2026-04-18T13:50:49Z</time></trkpt><trkpt lat="43.76534739694754" lon="12.459464613781309"><ele>244.0</ele><time>2026-04-18T13:50:50Z</time></trkpt><trkpt lat="43.765492445157385" lon="12.459523218563238"><ele>244.33333333333331</ele><time>2026-04-18T13:50:51Z</time></trkpt><trkpt lat="43.76564267753817" lon="12.459568664106225"><ele>244.66666666666669</ele><time>2026-04-18T13:50:52Z</time></trkpt><trkpt lat="43.76579512391148" lon="12.459603875582474"><ele>245.0</ele><time>2026-04-18T13:50:53Z</time></trkpt><trkpt lat="43.76595105027612" lon="12.459634193455637"><ele>244.0</ele><time>2026-04-18T13:50:54Z</time></trkpt><trkpt lat="43.76610650022972" lon="12.459662570240932"><ele>243.0</ele><time>2026-04-18T13:50:55Z</time></trkpt><trkpt lat="43.766261012347364" lon="12.459686966292224"><ele>242.0</ele><time>2026-04-18T13:50:56Z</time></trkpt><trkpt lat="43.76641551973469" lon="12.459713097673983"><ele>242.0</ele><time>2026-04-18T13:50:57Z</time></trkpt><trkpt lat="43.76656661747648" lon="12.459739201818204"><ele>242.0</ele><time>2026-04-18T13:50:58Z</time></trkpt><trkpt lat="43.76671737159645" lon="12.459763121983503"><ele>242.0</ele><time>2026-04-18T13:50:59Z</time></trkpt><trkpt lat="43.766866724598486" lon="12.45978766830733"><ele>241.75</ele><time>2026-04-18T13:51:00Z</time></trkpt><trkpt lat="43.76701453457494" lon="12.459816135798274"><ele>241.5</ele><time>2026-04-18T13:51:01Z</time></trkpt><trkpt lat="43.76716131551388" lon="12.459844424962457"><ele>241.25</ele><time>2026-04-18T13:51:02Z</time></trkpt><trkpt lat="43.76730895258632" lon="12.459868414323752"><ele>241.0</ele><time>2026-04-18T13:51:03Z</time></trkpt><trkpt lat="43.76745821794407" lon="12.459891632285316"><ele>241.0</ele><time>2026-04-18T13:51:04Z</time></trkpt><trkpt lat="43.76760987950655" lon="12.459918166303908"><ele>241.0</ele><time>2026-04-18T13:51:05Z</time></trkpt><trkpt lat="43.76776332245539" lon="12.459944519528724"><ele>241.0</ele><time>2026-04-18T13:51:06Z</time></trkpt><trkpt lat="43.76791770466739" lon="12.459969759627723"><ele>242.0</ele><time>2026-04-18T13:51:07Z</time></trkpt><trkpt lat="43.768073679435226" lon="12.459996429241102"><ele>243.0</ele><time>2026-04-18T13:51:08Z</time></trkpt><trkpt lat="43.768227989157836" lon="12.460022692205152"><ele>244.0</ele><time>2026-04-18T13:51:09Z</time></trkpt><trkpt lat="43.768382533775075" lon="12.460050090327004"><ele>245.0</ele><time>2026-04-18T13:51:10Z</time></trkpt><trkpt lat="43.76853811692088" lon="12.460080690550223"><ele>246.0</ele><time>2026-04-18T13:51:11Z</time></trkpt><trkpt lat="43.76869499104923" lon="12.460110644498467"><ele>247.0</ele><time>2026-04-18T13:51:12Z</time></trkpt><trkpt lat="43.76885309448163" lon="12.460137583873326"><ele>247.0</ele><time>2026-04-18T13:51:13Z</time></trkpt><trkpt lat="43.76901123156767" lon="12.460159334033019"><ele>247.0</ele><time>2026-04-18T13:51:14Z</time></trkpt><trkpt lat="43.76916858775828" lon="12.460210788874862"><ele>247.0</ele><time>2026-04-18T13:51:15Z</time></trkpt><trkpt lat="43.76933092601691" lon="12.460239407626622"><ele>248.0</ele><time>2026-04-18T13:51:16Z</time></trkpt><trkpt lat="43.769495122035046" lon="12.46026834600612"><ele>249.0</ele><time>2026-04-18T13:51:17Z</time></trkpt><trkpt lat="43.76966404823836" lon="12.460277972291525"><ele>250.0</ele><time>2026-04-18T13:51:18Z</time></trkpt><trkpt lat="43.76983350548896" lon="12.460315888974922"><ele>250.0</ele><time>2026-04-18T13:51:19Z</time></trkpt><trkpt lat="43.770006131835494" lon="12.460365759877343"><ele>250.0</ele><time>2026-04-18T13:51:20Z</time></trkpt><trkpt lat="43.77017860053885" lon="12.460432869954147"><ele>250.0</ele><time>2026-04-18T13:51:21Z</time></trkpt><trkpt lat="43.770336557233406" lon="12.460543577024913"><ele>245.66666666666666</ele><time>2026-04-18T13:51:22Z</time></trkpt><trkpt lat="43.770483988618416" lon="12.460653962187665"><ele>241.33333333333331</ele><time>2026-04-18T13:51:23Z</time></trkpt><trkpt lat="43.770655252442445" lon="12.460820484932139"><ele>237.0</ele><time>2026-04-18T13:51:24Z</time></trkpt><trkpt lat="43.77079782195502" lon="12.460986813530901"><ele>237.0</ele><time>2026-04-18T13:51:25Z</time></trkpt><trkpt lat="43.77092768416379" lon="12.46117877765126"><ele>237.0</ele><time>2026-04-18T13:51:26Z</time></trkpt><trkpt lat="43.771059631220346" lon="12.461370342558569"><ele>237.0</ele><time>2026-04-18T13:51:27Z</time></trkpt><trkpt lat="43.77118403714113" lon="12.46156805069406"><ele>234.33333333333331</ele><time>2026-04-18T13:51:28Z</time></trkpt><trkpt lat="43.771311661536494" lon="12.46177298487212"><ele>231.66666666666666</ele><time>2026-04-18T13:51:29Z</time></trkpt><trkpt lat="43.771440113762345" lon="12.461979248515012"><ele>229.0</ele><time>2026-04-18T13:51:30Z</time></trkpt><trkpt lat="43.77158026722437" lon="12.462171598870217"><ele>227.66666666666666</ele><time>2026-04-18T13:51:31Z</time></trkpt><trkpt lat="43.771709369366256" lon="12.462381687042487"><ele>226.33333333333331</ele><time>2026-04-18T13:51:32Z</time></trkpt><trkpt lat="43.77183611582914" lon="12.462586836187725"><ele>225.0</ele><time>2026-04-18T13:51:33Z</time></trkpt><trkpt lat="43.77196181225016" lon="12.462794767586674"><ele>228.66666666666669</ele><time>2026-04-18T13:51:34Z</time></trkpt><trkpt lat="43.77207702048966" lon="12.46299814247525"><ele>232.33333333333334</ele><time>2026-04-18T13:51:35Z</time></trkpt><trkpt lat="43.77219741925982" lon="12.463194365140248"><ele>236.0</ele><time>2026-04-18T13:51:36Z</time></trkpt><trkpt lat="43.772318198771806" lon="12.463390909003829"><ele>236.0</ele><time>2026-04-18T13:51:37Z</time></trkpt><trkpt lat="43.77242704231365" lon="12.463596238766176"><ele>236.0</ele><time>2026-04-18T13:51:38Z</time></trkpt><trkpt lat="43.77251983365997" lon="12.463821059469199"><ele>236.0</ele><time>2026-04-18T13:51:39Z</time></trkpt><trkpt lat="43.77260159056085" lon="12.46405264355653"><ele>235.33333333333334</ele><time>2026-04-18T13:51:40Z</time></trkpt><trkpt lat="43.7726695502207" lon="12.464298710168444"><ele>234.66666666666669</ele><time>2026-04-18T13:51:41Z</time></trkpt><trkpt lat="43.77273251318379" lon="12.464542246050053"><ele>234.0</ele><time>2026-04-18T13:51:41.999Z</time></trkpt><trkpt lat="43.77279558848827" lon="12.464769762180158"><ele>238.0</ele><time>2026-04-18T13:51:42.999Z</time></trkpt><trkpt lat="43.77286907650349" lon="12.464989174276877"><ele>242.0</ele><time>2026-04-18T13:51:43.999Z</time></trkpt><trkpt lat="43.77296164796845" lon="12.465196006449766"><ele>246.0</ele><time>2026-04-18T13:51:44.999Z</time></trkpt><trkpt lat="43.773088447165904" lon="12.465387280168763"><ele>243.66666666666669</ele><time>2026-04-18T13:51:45.999Z</time></trkpt><trkpt lat="43.773214928033" lon="12.465576412453288"><ele>241.33333333333334</ele><time>2026-04-18T13:51:46.999Z</time></trkpt><trkpt lat="43.7733441244228" lon="12.465763417868596"><ele>239.0</ele><time>2026-04-18T13:51:47.999Z</time></trkpt><trkpt lat="43.77347266097313" lon="12.46595225900317"><ele>240.0</ele><time>2026-04-18T13:51:48.999Z</time></trkpt><trkpt lat="43.77360099728833" lon="12.466144861760398"><ele>241.0</ele><time>2026-04-18T13:51:49.999Z</time></trkpt><trkpt lat="43.77373035042259" lon="12.466336122415125"><ele>242.0</ele><time>2026-04-18T13:51:50.999Z</time></trkpt><trkpt lat="43.77385973899324" lon="12.466529611591296"><ele>242.0</ele><time>2026-04-18T13:51:51.999Z</time></trkpt><trkpt lat="43.773987977220706" lon="12.466722308730388"><ele>242.0</ele><time>2026-04-18T13:51:52.999Z</time></trkpt><trkpt lat="43.77412005776008" lon="12.466911628617224"><ele>242.0</ele><time>2026-04-18T13:51:53.999Z</time></trkpt><trkpt lat="43.774249255205056" lon="12.467098347943745"><ele>242.33333333333334</ele><time>2026-04-18T13:51:54.999Z</time></trkpt><trkpt lat="43.77437675717362" lon="12.467277265984023"><ele>242.66666666666669</ele><time>2026-04-18T13:51:55.999Z</time></trkpt><trkpt lat="43.774500129810946" lon="12.467449959821224"><ele>243.0</ele><time>2026-04-18T13:51:56.999Z</time></trkpt><trkpt lat="43.77462593355731" lon="12.467621476400062"><ele>243.0</ele><time>2026-04-18T13:51:57.999Z</time></trkpt><trkpt lat="43.774752183595304" lon="12.467792163039265"><ele>243.0</ele><time>2026-04-18T13:51:58.999Z</time></trkpt><trkpt lat="43.77487590239035" lon="12.467960704782147"><ele>243.0</ele><time>2026-04-18T13:51:59.999Z</time></trkpt><trkpt lat="43.77500187113474" lon="12.468126775911884"><ele>240.33333333333331</ele><time>2026-04-18T13:52:00.999Z</time></trkpt><trkpt lat="43.77512932118026" lon="12.468291039437842"><ele>237.66666666666666</ele><time>2026-04-18T13:52:01.999Z</time></trkpt><trkpt lat="43.775256380365725" lon="12.468459130755418"><ele>235.0</ele><time>2026-04-18T13:52:02.999Z</time></trkpt><trkpt lat="43.775388961727785" lon="12.468627162979631"><ele>236.66666666666666</ele><time>2026-04-18T13:52:03.999Z</time></trkpt><trkpt lat="43.77551534585765" lon="12.468798357334945"><ele>238.33333333333331</ele><time>2026-04-18T13:52:04.999Z</time></trkpt><trkpt lat="43.775643105017274" lon="12.468976223365223"><ele>240.0</ele><time>2026-04-18T13:52:05.999Z</time></trkpt><trkpt lat="43.775768029025315" lon="12.469161783842662"><ele>240.0</ele><time>2026-04-18T13:52:06.999Z</time></trkpt><trkpt lat="43.775884466532965" lon="12.46936099768948"><ele>240.0</ele><time>2026-04-18T13:52:07.999Z</time></trkpt><trkpt lat="43.77599120324039" lon="12.46957274019321"><ele>240.0</ele><time>2026-04-18T13:52:08.999Z</time></trkpt><trkpt lat="43.776091817666064" lon="12.469792047424052"><ele>243.33333333333331</ele><time>2026-04-18T13:52:09.999Z</time></trkpt><trkpt lat="43.776188463011515" lon="12.470010158679179"><ele>246.66666666666666</ele><time>2026-04-18T13:52:10.999Z</time></trkpt><trkpt lat="43.77628129666696" lon="12.470221896277446"><ele>250.0</ele><time>2026-04-18T13:52:11.999Z</time></trkpt><trkpt lat="43.776369861072524" lon="12.470425960792785"><ele>246.66666666666666</ele><time>2026-04-18T13:52:12.999Z</time></trkpt><trkpt lat="43.776459558757836" lon="12.470623469324881"><ele>243.33333333333331</ele><time>2026-04-18T13:52:13.999Z</time></trkpt><trkpt lat="43.77654912072437" lon="12.470809937866381"><ele>240.0</ele><time>2026-04-18T13:52:14.999Z</time></trkpt><trkpt lat="43.77663492792183" lon="12.47099209435391"><ele>240.0</ele><time>2026-04-18T13:52:15.999Z</time></trkpt><trkpt lat="43.77671780657912" lon="12.47117628115607"><ele>240.0</ele><time>2026-04-18T13:52:17Z</time></trkpt><trkpt lat="43.776803685156025" lon="12.471358333075548"><ele>240.0</ele><time>2026-04-18T13:52:18Z</time></trkpt><trkpt lat="43.77688738135625" lon="12.471539890958631"><ele>243.33333333333331</ele><time>2026-04-18T13:52:19Z</time></trkpt><trkpt lat="43.77696967279579" lon="12.471720837081271"><ele>246.66666666666666</ele><time>2026-04-18T13:52:20Z</time></trkpt><trkpt lat="43.777055427132545" lon="12.471901346981292"><ele>250.0</ele><time>2026-04-18T13:52:21Z</time></trkpt><trkpt lat="43.77713867001115" lon="12.47207950883674"><ele>244.33333333333331</ele><time>2026-04-18T13:52:22Z</time></trkpt><trkpt lat="43.777222174731065" lon="12.472262616173822"><ele>238.66666666666669</ele><time>2026-04-18T13:52:23Z</time></trkpt><trkpt lat="43.777307782654226" lon="12.472441703482371"><ele>233.0</ele><time>2026-04-18T13:52:24Z</time></trkpt><trkpt lat="43.77739424185991" lon="12.472618621229781"><ele>233.0</ele><time>2026-04-18T13:52:25Z</time></trkpt><trkpt lat="43.77747993217993" lon="12.47279505761193"><ele>233.0</ele><time>2026-04-18T13:52:26Z</time></trkpt><trkpt lat="43.77757189580969" lon="12.47296994611584"><ele>233.0</ele><time>2026-04-18T13:52:27Z</time></trkpt><trkpt lat="43.77768142387424" lon="12.473136784658516"><ele>234.66666666666669</ele><time>2026-04-18T13:52:28Z</time></trkpt><trkpt lat="43.77780967950954" lon="12.473291695403192"><ele>236.33333333333331</ele><time>2026-04-18T13:52:29Z</time></trkpt><trkpt lat="43.77794553109401" lon="12.473435908856318"><ele>238.0</ele><time>2026-04-18T13:52:30Z</time></trkpt><trkpt lat="43.778077530924016" lon="12.47357523314538"><ele>238.0</ele><time>2026-04-18T13:52:31Z</time></trkpt><trkpt lat="43.778204167827425" lon="12.473711863020329"><ele>238.0</ele><time>2026-04-18T13:52:32Z</time></trkpt><trkpt lat="43.7783314947917" lon="12.473848331616813"><ele>238.0</ele><time>2026-04-18T13:52:33Z</time></trkpt><trkpt lat="43.77845383372316" lon="12.473976454625129"><ele>234.25</ele><time>2026-04-18T13:52:34Z</time></trkpt><trkpt lat="43.77856966058396" lon="12.474102024432117"><ele>230.5</ele><time>2026-04-18T13:52:35Z</time></trkpt><trkpt lat="43.77868008253984" lon="12.474226444093432"><ele>226.75</ele><time>2026-04-18T13:52:36Z</time></trkpt><trkpt lat="43.778785642508524" lon="12.474364392294303"><ele>223.0</ele><time>2026-04-18T13:52:37Z</time></trkpt><trkpt lat="43.77887946810782" lon="12.474530430967832"><ele>222.0</ele><time>2026-04-18T13:52:38Z</time></trkpt><trkpt lat="43.7789277076793" lon="12.47473790689622"><ele>221.0</ele><time>2026-04-18T13:52:39Z</time></trkpt><trkpt lat="43.77897396499772" lon="12.474935417776408"><ele>220.0</ele><time>2026-04-18T13:52:40Z</time></trkpt><trkpt lat="43.779016840422685" lon="12.475124230155245"><ele>220.0</ele><time>2026-04-18T13:52:41Z</time></trkpt><trkpt lat="43.77906900288711" lon="12.47529217380648"><ele>220.0</ele><time>2026-04-18T13:52:42Z</time></trkpt><trkpt lat="43.779105139453726" lon="12.475455120787041"><ele>220.0</ele><time>2026-04-18T13:52:43Z</time></trkpt><trkpt lat="43.77913834847219" lon="12.475595159466797"><ele>220.0</ele><time>2026-04-18T13:52:44Z</time></trkpt><trkpt lat="43.77916673110714" lon="12.475713321303688"><ele>219.66666666666666</ele><time>2026-04-18T13:52:45Z</time></trkpt><trkpt lat="43.779192163318775" lon="12.475822980682088"><ele>219.33333333333331</ele><time>2026-04-18T13:52:46Z</time></trkpt><trkpt lat="43.77921490597177" lon="12.475927599617401"><ele>219.0</ele><time>2026-04-18T13:52:47Z</time></trkpt><trkpt lat="43.779230341573204" lon="12.476024668308233"><ele>218.66666666666669</ele><time>2026-04-18T13:52:48Z</time></trkpt><trkpt lat="43.77923501546879" lon="12.476116420771811"><ele>218.33333333333334</ele><time>2026-04-18T13:52:49Z</time></trkpt><trkpt lat="43.77922753241008" lon="12.476217407510587"><ele>218.0</ele><time>2026-04-18T13:52:50Z</time></trkpt><trkpt lat="43.77921171379915" lon="12.47633785329385"><ele>219.5</ele><time>2026-04-18T13:52:51Z</time></trkpt><trkpt lat="43.77918793996301" lon="12.476480121141545"><ele>221.0</ele><time>2026-04-18T13:52:52Z</time></trkpt><trkpt lat="43.77915294222127" lon="12.476633145956209"><ele>222.5</ele><time>2026-04-18T13:52:52.999Z</time></trkpt><trkpt lat="43.77908045600773" lon="12.476770635348334"><ele>224.0</ele><time>2026-04-18T13:52:53.999Z</time></trkpt><trkpt lat="43.779014025829746" lon="12.47691369546319"><ele>224.0</ele><time>2026-04-18T13:52:54.999Z</time></trkpt><trkpt lat="43.778945864458635" lon="12.47705301698627"><ele>224.0</ele><time>2026-04-18T13:52:55.999Z</time></trkpt><trkpt lat="43.7788880740735" lon="12.477203309512527"><ele>224.0</ele><time>2026-04-18T13:52:56.999Z</time></trkpt><trkpt lat="43.77881336956152" lon="12.477339851186164"><ele>224.0</ele><time>2026-04-18T13:52:57.999Z</time></trkpt><trkpt lat="43.77873873707511" lon="12.477482433400109"><ele>225.75</ele><time>2026-04-18T13:52:58.999Z</time></trkpt><trkpt lat="43.77866606449824" lon="12.477630766904943"><ele>227.5</ele><time>2026-04-18T13:52:59.999Z</time></trkpt><trkpt lat="43.778593626246625" lon="12.4777823758607"><ele>229.25</ele><time>2026-04-18T13:53:00.999Z</time></trkpt><trkpt lat="43.778530308688204" lon="12.47794649458162"><ele>231.0</ele><time>2026-04-18T13:53:01.999Z</time></trkpt><trkpt lat="43.778476847616616" lon="12.478115274299922"><ele>231.0</ele><time>2026-04-18T13:53:02.999Z</time></trkpt><trkpt lat="43.77844273910701" lon="12.478296314271452"><ele>231.0</ele><time>2026-04-18T13:53:03.999Z</time></trkpt><trkpt lat="43.77842217336354" lon="12.47848634390181"><ele>231.0</ele><time>2026-04-18T13:53:04.999Z</time></trkpt><trkpt lat="43.77841544784352" lon="12.478680056110552"><ele>231.0</ele><time>2026-04-18T13:53:05.999Z</time></trkpt><trkpt lat="43.77842442623085" lon="12.478879926462518"><ele>230.5</ele><time>2026-04-18T13:53:06.999Z</time></trkpt><trkpt lat="43.77844029512493" lon="12.479077774816437"><ele>230.0</ele><time>2026-04-18T13:53:07.999Z</time></trkpt><trkpt lat="43.77845563934117" lon="12.47927484465732"><ele>229.5</ele><time>2026-04-18T13:53:08.999Z</time></trkpt><trkpt lat="43.778471198426196" lon="12.479465484588845"><ele>229.0</ele><time>2026-04-18T13:53:09.999Z</time></trkpt><trkpt lat="43.77849693348955" lon="12.479652695262498"><ele>233.25</ele><time>2026-04-18T13:53:10.999Z</time></trkpt><trkpt lat="43.77854556387876" lon="12.479837428625226"><ele>237.5</ele><time>2026-04-18T13:53:11.999Z</time></trkpt><trkpt lat="43.77861955637755" lon="12.480013909675879"><ele>241.75</ele><time>2026-04-18T13:53:12.999Z</time></trkpt><trkpt lat="43.77870830911259" lon="12.48018373928067"><ele>246.0</ele><time>2026-04-18T13:53:13.999Z</time></trkpt><trkpt lat="43.77879915413588" lon="12.480348909686814"><ele>245.25</ele><time>2026-04-18T13:53:14.999Z</time></trkpt><trkpt lat="43.77888910894282" lon="12.480507799702533"><ele>244.5</ele><time>2026-04-18T13:53:15.999Z</time></trkpt><trkpt lat="43.77897317377496" lon="12.480664536976375"><ele>243.75</ele><time>2026-04-18T13:53:16.999Z</time></trkpt><trkpt lat="43.77905504705624" lon="12.480817403978348"><ele>243.0</ele><time>2026-04-18T13:53:17.999Z</time></trkpt><trkpt lat="43.77913500517642" lon="12.480960968062297"><ele>243.0</ele><time>2026-04-18T13:53:18.999Z</time></trkpt><trkpt lat="43.77921525088127" lon="12.481103924257983"><ele>243.0</ele><time>2026-04-18T13:53:19.999Z</time></trkpt><trkpt lat="43.77929637556784" lon="12.481250185690907"><ele>243.0</ele><time>2026-04-18T13:53:20.999Z</time></trkpt><trkpt lat="43.77937764998151" lon="12.481392422617683"><ele>243.0</ele><time>2026-04-18T13:53:21.999Z</time></trkpt><trkpt lat="43.77945718425517" lon="12.481535594215698"><ele>243.5</ele><time>2026-04-18T13:53:22.999Z</time></trkpt><trkpt lat="43.77953390871482" lon="12.481680794399368"><ele>244.0</ele><time>2026-04-18T13:53:23.999Z</time></trkpt><trkpt lat="43.77960995630585" lon="12.481825029730475"><ele>244.5</ele><time>2026-04-18T13:53:24.999Z</time></trkpt><trkpt lat="43.77968673526942" lon="12.481965249398352"><ele>245.0</ele><time>2026-04-18T13:53:25.999Z</time></trkpt><trkpt lat="43.77976282607355" lon="12.482104457534424"><ele>243.0</ele><time>2026-04-18T13:53:26.999Z</time></trkpt><trkpt lat="43.779837423736936" lon="12.482245496788233"><ele>241.0</ele><time>2026-04-18T13:53:27.999Z</time></trkpt><trkpt lat="43.77991122445039" lon="12.482383617371555"><ele>239.0</ele><time>2026-04-18T13:53:28.999Z</time></trkpt><trkpt lat="43.779986493393714" lon="12.482524169743979"><ele>237.0</ele><time>2026-04-18T13:53:29.999Z</time></trkpt><trkpt lat="43.78006271831747" lon="12.482666882558714"><ele>237.0</ele><time>2026-04-18T13:53:30.999Z</time></trkpt><trkpt lat="43.78014343398462" lon="12.482810675371576"><ele>237.0</ele><time>2026-04-18T13:53:31.999Z</time></trkpt><trkpt lat="43.78023044849198" lon="12.482951948927294"><ele>237.0</ele><time>2026-04-18T13:53:32.999Z</time></trkpt><trkpt lat="43.78032617948579" lon="12.48308010454376"><ele>237.0</ele><time>2026-04-18T13:53:33.999Z</time></trkpt><trkpt lat="43.78042790195945" lon="12.483184133359636"><ele>237.2</ele><time>2026-04-18T13:53:34.999Z</time></trkpt><trkpt lat="43.78053121210156" lon="12.483265602100785"><ele>237.39999999999998</ele><time>2026-04-18T13:53:35.999Z</time></trkpt><trkpt lat="43.78062330606032" lon="12.483330728931133"><ele>237.60000000000002</ele><time>2026-04-18T13:53:36.999Z</time></trkpt><trkpt lat="43.7806910678113" lon="12.483405514677177"><ele>237.8</ele><time>2026-04-18T13:53:37.999Z</time></trkpt><trkpt lat="43.78076612948785" lon="12.483466359975786"><ele>238.0</ele><time>2026-04-18T13:53:38.999Z</time></trkpt><trkpt lat="43.78083204614531" lon="12.483519524137416"><ele>237.99999999999997</ele><time>2026-04-18T13:53:39.999Z</time></trkpt><trkpt lat="43.780891027826385" lon="12.483567094453775"><ele>238.0</ele><time>2026-04-18T13:53:40.999Z</time></trkpt><trkpt lat="43.78095993496281" lon="12.483619391418133"><ele>238.0</ele><time>2026-04-18T13:53:41.999Z</time></trkpt><trkpt lat="43.781030952911294" lon="12.483673226856364"><ele>238.0</ele><time>2026-04-18T13:53:42.999Z</time></trkpt><trkpt lat="43.78110284432094" lon="12.483726557808046"><ele>237.99999999999997</ele><time>2026-04-18T13:53:43.999Z</time></trkpt><trkpt lat="43.78117899350365" lon="12.483782649380043"><ele>238.0</ele><time>2026-04-18T13:53:44.999Z</time></trkpt><trkpt lat="43.78125431261302" lon="12.483838129431803"><ele>238.2</ele><time>2026-04-18T13:53:45.999Z</time></trkpt><trkpt lat="43.78132688877984" lon="12.483891589036261"><ele>238.4</ele><time>2026-04-18T13:53:46.999Z</time></trkpt><trkpt lat="43.7814148304195" lon="12.483931919093253"><ele>238.59999999999997</ele><time>2026-04-18T13:53:47.999Z</time></trkpt><trkpt lat="43.78150264884282" lon="12.483998526803406"><ele>238.79999999999998</ele><time>2026-04-18T13:53:48.999Z</time></trkpt><trkpt lat="43.78159509031216" lon="12.484071630120429"><ele>239.0</ele><time>2026-04-18T13:53:49.999Z</time></trkpt><trkpt lat="43.78168905807389" lon="12.484147354067236"><ele>239.0</ele><time>2026-04-18T13:53:50.999Z</time></trkpt><trkpt lat="43.78178129037756" lon="12.484219124395242"><ele>238.99999999999997</ele><time>2026-04-18T13:53:51.999Z</time></trkpt><trkpt lat="43.78187749213343" lon="12.48429361289445"><ele>238.99999999999997</ele><time>2026-04-18T13:53:52.999Z</time></trkpt><trkpt lat="43.78197515623008" lon="12.484373380132636"><ele>239.0</ele><time>2026-04-18T13:53:53.999Z</time></trkpt><trkpt lat="43.7820744602513" lon="12.484454201547473"><ele>239.0</ele><time>2026-04-18T13:53:54.999Z</time></trkpt><trkpt lat="43.78217001745767" lon="12.48453075490885"><ele>238.5</ele><time>2026-04-18T13:53:55.999Z</time></trkpt><trkpt lat="43.78226799112117" lon="12.484628813168356"><ele>238.0</ele><time>2026-04-18T13:53:56.999Z</time></trkpt><trkpt lat="43.78236031388523" lon="12.484735343944887"><ele>237.5</ele><time>2026-04-18T13:53:57.999Z</time></trkpt><trkpt lat="43.78245593266521" lon="12.484850759595062"><ele>237.0</ele><time>2026-04-18T13:53:58.999Z</time></trkpt><trkpt lat="43.78255156201952" lon="12.4849700433317"><ele>237.0</ele><time>2026-04-18T13:53:59.999Z</time></trkpt><trkpt lat="43.78264955400483" lon="12.485089721287462"><ele>237.0</ele><time>2026-04-18T13:54:00.999Z</time></trkpt><trkpt lat="43.78274801963115" lon="12.48521225378482"><ele>237.0</ele><time>2026-04-18T13:54:01.999Z</time></trkpt><trkpt lat="43.78284913971145" lon="12.485328597061894"><ele>237.0</ele><time>2026-04-18T13:54:02.999Z</time></trkpt><trkpt lat="43.78295493670524" lon="12.485422561605267"><ele>236.75</ele><time>2026-04-18T13:54:03.999Z</time></trkpt><trkpt lat="43.783027931851954" lon="12.485575869716422"><ele>236.5</ele><time>2026-04-18T13:54:04.999Z</time></trkpt><trkpt lat="43.78312118231479" lon="12.485691875533364"><ele>236.25</ele><time>2026-04-18T13:54:05.999Z</time></trkpt><trkpt lat="43.78325019992483" lon="12.485835654547376"><ele>236.0</ele><time>2026-04-18T13:54:06.999Z</time></trkpt><trkpt lat="43.78335078450011" lon="12.48596417920069"><ele>236.0</ele><time>2026-04-18T13:54:07.999Z</time></trkpt><trkpt lat="43.783454475674105" lon="12.48609667809253"><ele>236.0</ele><time>2026-04-18T13:54:08.999Z</time></trkpt><trkpt lat="43.78355943599986" lon="12.486225825029269"><ele>236.0</ele><time>2026-04-18T13:54:09.999Z</time></trkpt><trkpt lat="43.78366808017998" lon="12.48635457203633"><ele>236.0</ele><time>2026-04-18T13:54:10.999Z</time></trkpt><trkpt lat="43.78377515664137" lon="12.486485328132693"><ele>236.0</ele><time>2026-04-18T13:54:11.999Z</time></trkpt><trkpt lat="43.783881958196346" lon="12.486618210507086"><ele>236.0</ele><time>2026-04-18T13:54:12.999Z</time></trkpt><trkpt lat="43.783984132439244" lon="12.486746129044118"><ele>236.0</ele><time>2026-04-18T13:54:13.999Z</time></trkpt><trkpt lat="43.784091453461194" lon="12.4868799007381"><ele>236.0</ele><time>2026-04-18T13:54:14.999Z</time></trkpt><trkpt lat="43.78420415037777" lon="12.487020482197735"><ele>235.66666666666669</ele><time>2026-04-18T13:54:15.999Z</time></trkpt><trkpt lat="43.78432068811702" lon="12.487163488597908"><ele>235.33333333333331</ele><time>2026-04-18T13:54:16.999Z</time></trkpt><trkpt lat="43.78443153870278" lon="12.487298093143881"><ele>235.0</ele><time>2026-04-18T13:54:17.999Z</time></trkpt><trkpt lat="43.7845420231645" lon="12.487440173061533"><ele>234.75</ele><time>2026-04-18T13:54:18.999Z</time></trkpt><trkpt lat="43.784650039747476" lon="12.487576262532365"><ele>234.5</ele><time>2026-04-18T13:54:19.999Z</time></trkpt><trkpt lat="43.784760551309944" lon="12.48771418014575"><ele>234.25</ele><time>2026-04-18T13:54:20.999Z</time></trkpt><trkpt lat="43.784868913877816" lon="12.487851268089827"><ele>234.0</ele><time>2026-04-18T13:54:21.999Z</time></trkpt><trkpt lat="43.7849775910808" lon="12.487987557196536"><ele>233.5</ele><time>2026-04-18T13:54:23Z</time></trkpt><trkpt lat="43.78508483939296" lon="12.488121249558084"><ele>233.0</ele><time>2026-04-18T13:54:24Z</time></trkpt><trkpt lat="43.78519319143554" lon="12.488259062055493"><ele>232.5</ele><time>2026-04-18T13:54:25Z</time></trkpt><trkpt lat="43.78530191236112" lon="12.48838923956136"><ele>232.0</ele><time>2026-04-18T13:54:26Z</time></trkpt><trkpt lat="43.78541396881673" lon="12.488526812425238"><ele>231.0</ele><time>2026-04-18T13:54:27Z</time></trkpt><trkpt lat="43.785524499496184" lon="12.488665874173993"><ele>230.0</ele><time>2026-04-18T13:54:28Z</time></trkpt><trkpt lat="43.78563008005678" lon="12.488800838623076"><ele>229.0</ele><time>2026-04-18T13:54:29Z</time></trkpt><trkpt lat="43.78574058751115" lon="12.488939429353216"><ele>228.0</ele><time>2026-04-18T13:54:30Z</time></trkpt><trkpt lat="43.785852755323916" lon="12.489076998281957"><ele>228.0</ele><time>2026-04-18T13:54:31Z</time></trkpt><trkpt lat="43.78596452567435" lon="12.489215560812605"><ele>228.0</ele><time>2026-04-18T13:54:32Z</time></trkpt><trkpt lat="43.78607558213935" lon="12.48935596033353"><ele>228.0</ele><time>2026-04-18T13:54:33Z</time></trkpt><trkpt lat="43.78618912007379" lon="12.489498089004435"><ele>227.33333333333331</ele><time>2026-04-18T13:54:34Z</time></trkpt><trkpt lat="43.786303914539786" lon="12.489634990898137"><ele>226.66666666666666</ele><time>2026-04-18T13:54:35Z</time></trkpt><trkpt lat="43.78642131931627" lon="12.489767022547028"><ele>226.0</ele><time>2026-04-18T13:54:36Z</time></trkpt><trkpt lat="43.78655509109963" lon="12.489887867193541"><ele>226.0</ele><time>2026-04-18T13:54:37Z</time></trkpt><trkpt lat="43.786692962684704" lon="12.489981661744148"><ele>226.0</ele><time>2026-04-18T13:54:38Z</time></trkpt><trkpt lat="43.786825484350366" lon="12.49004457578704"><ele>226.0</ele><time>2026-04-18T13:54:39Z</time></trkpt><trkpt lat="43.786943695368876" lon="12.490095220013474"><ele>226.0</ele><time>2026-04-18T13:54:40Z</time></trkpt><trkpt lat="43.78703506365549" lon="12.490144977096861"><ele>226.16666666666666</ele><time>2026-04-18T13:54:41Z</time></trkpt><trkpt lat="43.78711588091886" lon="12.490195268234057"><ele>226.33333333333331</ele><time>2026-04-18T13:54:42Z</time></trkpt><trkpt lat="43.787178944238306" lon="12.490263164429258"><ele>226.5</ele><time>2026-04-18T13:54:43Z</time></trkpt><trkpt lat="43.78721697161775" lon="12.490347454794755"><ele>226.66666666666669</ele><time>2026-04-18T13:54:44Z</time></trkpt><trkpt lat="43.78723136348533" lon="12.490449395177334"><ele>226.83333333333334</ele><time>2026-04-18T13:54:45Z</time></trkpt><trkpt lat="43.787225799251324" lon="12.490567556989184"><ele>227.0</ele><time>2026-04-18T13:54:46Z</time></trkpt><trkpt lat="43.78723287780635" lon="12.490680990034711"><ele>226.39999999999998</ele><time>2026-04-18T13:54:47Z</time></trkpt><trkpt lat="43.787272965078266" lon="12.490771233325715"><ele>225.79999999999998</ele><time>2026-04-18T13:54:48Z</time></trkpt><trkpt lat="43.787340846225604" lon="12.490837656021396"><ele>225.2</ele><time>2026-04-18T13:54:49Z</time></trkpt><trkpt lat="43.78743180212689" lon="12.490882256860376"><ele>224.6</ele><time>2026-04-18T13:54:50Z</time></trkpt><trkpt lat="43.78753800446342" lon="12.49090888128755"><ele>224.0</ele><time>2026-04-18T13:54:51Z</time></trkpt><trkpt lat="43.787652278424005" lon="12.490917265124995"><ele>224.5</ele><time>2026-04-18T13:54:52Z</time></trkpt><trkpt lat="43.787758119567606" lon="12.490945037688642"><ele>225.0</ele><time>2026-04-18T13:54:53Z</time></trkpt><trkpt lat="43.7878664329959" lon="12.491031389410772"><ele>225.5</ele><time>2026-04-18T13:54:54Z</time></trkpt><trkpt lat="43.787975205616476" lon="12.491144898557138"><ele>226.0</ele><time>2026-04-18T13:54:55Z</time></trkpt><trkpt lat="43.788086566662265" lon="12.491243534317837"><ele>226.0</ele><time>2026-04-18T13:54:56Z</time></trkpt><trkpt lat="43.78821042661684" lon="12.491323317739088"><ele>226.0</ele><time>2026-04-18T13:54:57Z</time></trkpt><trkpt lat="43.78833392545012" lon="12.491400565948036"><ele>226.0</ele><time>2026-04-18T13:54:58Z</time></trkpt><trkpt lat="43.78846299498329" lon="12.491464052919376"><ele>226.0</ele><time>2026-04-18T13:54:59Z</time></trkpt><trkpt lat="43.788599832812594" lon="12.491530412691027"><ele>226.0</ele><time>2026-04-18T13:55:00Z</time></trkpt><trkpt lat="43.78873351095944" lon="12.491596880089626"><ele>226.0</ele><time>2026-04-18T13:55:01Z</time></trkpt><trkpt lat="43.78887037137307" lon="12.49166432359429"><ele>226.0</ele><time>2026-04-18T13:55:02Z</time></trkpt><trkpt lat="43.789011908938235" lon="12.491730386989067"><ele>226.0</ele><time>2026-04-18T13:55:03Z</time></trkpt><trkpt lat="43.78915665303029" lon="12.49178396570171"><ele>226.0</ele><time>2026-04-18T13:55:04Z</time></trkpt><trkpt lat="43.78930461444199" lon="12.49182269598768"><ele>226.0</ele><time>2026-04-18T13:55:05Z</time></trkpt><trkpt lat="43.789455951208524" lon="12.491854307284818"><ele>226.0</ele><time>2026-04-18T13:55:06Z</time></trkpt><trkpt lat="43.78960965108815" lon="12.491878813535422"><ele>225.33333333333331</ele><time>2026-04-18T13:55:07Z</time></trkpt><trkpt lat="43.789764674150454" lon="12.491909543623434"><ele>224.66666666666669</ele><time>2026-04-18T13:55:08Z</time></trkpt><trkpt lat="43.78992208842545" lon="12.491959606532172"><ele>224.0</ele><time>2026-04-18T13:55:09Z</time></trkpt><trkpt lat="43.7900740444796" lon="12.491949840899203"><ele>222.66666666666669</ele><time>2026-04-18T13:55:10Z</time></trkpt><trkpt lat="43.79023552562724" lon="12.491982310911183"><ele>221.33333333333331</ele><time>2026-04-18T13:55:11Z</time></trkpt><trkpt lat="43.79038679090488" lon="12.492036091807385"><ele>220.0</ele><time>2026-04-18T13:55:12Z</time></trkpt><trkpt lat="43.79054442164101" lon="12.49206697631365"><ele>220.0</ele><time>2026-04-18T13:55:13Z</time></trkpt><trkpt lat="43.79069946126787" lon="12.492078374716272"><ele>220.0</ele><time>2026-04-18T13:55:14Z</time></trkpt><trkpt lat="43.790848910301854" lon="12.49210597626522"><ele>220.0</ele><time>2026-04-18T13:55:15Z</time></trkpt><trkpt lat="43.790994191703824" lon="12.49213393318192"><ele>220.0</ele><time>2026-04-18T13:55:16Z</time></trkpt><trkpt lat="43.79113829934678" lon="12.492157478679568"><ele>220.0</ele><time>2026-04-18T13:55:17Z</time></trkpt><trkpt lat="43.79128551890417" lon="12.492189177384839"><ele>220.0</ele><time>2026-04-18T13:55:17.999Z</time></trkpt><trkpt lat="43.79145058478921" lon="12.492221741737401"><ele>220.0</ele><time>2026-04-18T13:55:18.999Z</time></trkpt><trkpt lat="43.791624410818834" lon="12.492272215568462"><ele>220.0</ele><time>2026-04-18T13:55:19.999Z</time></trkpt><trkpt lat="43.791804203328496" lon="12.492267877063526"><ele>220.0</ele><time>2026-04-18T13:55:20.999Z</time></trkpt><trkpt lat="43.79198001787438" lon="12.492294469460557"><ele>219.66666666666666</ele><time>2026-04-18T13:55:21.999Z</time></trkpt><trkpt lat="43.7921581557267" lon="12.492329189633463"><ele>219.33333333333331</ele><time>2026-04-18T13:55:22.999Z</time></trkpt><trkpt lat="43.79233350749451" lon="12.492366090804593"><ele>219.0</ele><time>2026-04-18T13:55:23.999Z</time></trkpt><trkpt lat="43.79250982323452" lon="12.492398656954617"><ele>217.66666666666669</ele><time>2026-04-18T13:55:24.999Z</time></trkpt><trkpt lat="43.79268947465804" lon="12.49243024019898"><ele>216.33333333333334</ele><time>2026-04-18T13:55:25.999Z</time></trkpt><trkpt lat="43.79286508035869" lon="12.492457128748082"><ele>215.0</ele><time>2026-04-18T13:55:26.999Z</time></trkpt><trkpt lat="43.793043544448714" lon="12.492493136719498"><ele>215.0</ele><time>2026-04-18T13:55:27.999Z</time></trkpt><trkpt lat="43.793227820271376" lon="12.492525199887087"><ele>215.0</ele><time>2026-04-18T13:55:28.999Z</time></trkpt><trkpt lat="43.79341485462566" lon="12.49255652314007"><ele>215.0</ele><time>2026-04-18T13:55:29.999Z</time></trkpt><trkpt lat="43.793599647295224" lon="12.492591319476826"><ele>213.66666666666669</ele><time>2026-04-18T13:55:30.999Z</time></trkpt><trkpt lat="43.79379891135923" lon="12.492631050837785"><ele>212.33333333333331</ele><time>2026-04-18T13:55:31.999Z</time></trkpt><trkpt lat="43.793999571051444" lon="12.492668607912599"><ele>211.0</ele><time>2026-04-18T13:55:32.999Z</time></trkpt><trkpt lat="43.79420663432546" lon="12.492702389779323"><ele>211.0</ele><time>2026-04-18T13:55:33.999Z</time></trkpt><trkpt lat="43.79442701238883" lon="12.492741900343848"><ele>211.0</ele><time>2026-04-18T13:55:34.999Z</time></trkpt><trkpt lat="43.79465303077878" lon="12.492780401385502"><ele>211.0</ele><time>2026-04-18T13:55:35.999Z</time></trkpt><trkpt lat="43.7948752109566" lon="12.492813553774672"><ele>211.0</ele><time>2026-04-18T13:55:36.999Z</time></trkpt><trkpt lat="43.79509382520389" lon="12.492844739361287"><ele>211.0</ele><time>2026-04-18T13:55:37.999Z</time></trkpt><trkpt lat="43.795308207175" lon="12.492880532749442"><ele>209.66666666666666</ele><time>2026-04-18T13:55:38.999Z</time></trkpt><trkpt lat="43.79551615311243" lon="12.4929432794319"><ele>208.33333333333331</ele><time>2026-04-18T13:55:39.999Z</time></trkpt><trkpt lat="43.79572212663298" lon="12.49296985609255"><ele>207.0</ele><time>2026-04-18T13:55:40.999Z</time></trkpt><trkpt lat="43.795921383316774" lon="12.493042669427405"><ele>207.33333333333331</ele><time>2026-04-18T13:55:41.999Z</time></trkpt><trkpt lat="43.79611343311489" lon="12.493139958123777"><ele>207.66666666666666</ele><time>2026-04-18T13:55:42.999Z</time></trkpt><trkpt lat="43.79629795041781" lon="12.493255764809755"><ele>208.0</ele><time>2026-04-18T13:55:43.999Z</time></trkpt><trkpt lat="43.79647486509038" lon="12.493368578917336"><ele>208.0</ele><time>2026-04-18T13:55:44.999Z</time></trkpt><trkpt lat="43.79664237285599" lon="12.493469511572007"><ele>208.0</ele><time>2026-04-18T13:55:45.999Z</time></trkpt><trkpt lat="43.79679883474399" lon="12.493560095658133"><ele>208.0</ele><time>2026-04-18T13:55:46.999Z</time></trkpt><trkpt lat="43.796961858724934" lon="12.493612259438176"><ele>207.33333333333331</ele><time>2026-04-18T13:55:47.999Z</time></trkpt><trkpt lat="43.79713567893863" lon="12.493618557022579"><ele>206.66666666666669</ele><time>2026-04-18T13:55:48.999Z</time></trkpt><trkpt lat="43.797312284841226" lon="12.493572198579542"><ele>206.0</ele><time>2026-04-18T13:55:49.999Z</time></trkpt><trkpt lat="43.79748239181111" lon="12.493548948456915"><ele>206.0</ele><time>2026-04-18T13:55:50.999Z</time></trkpt><trkpt lat="43.79766446470879" lon="12.493534268981117"><ele>206.0</ele><time>2026-04-18T13:55:51.999Z</time></trkpt><trkpt lat="43.797826279696146" lon="12.493576616519022"><ele>206.0</ele><time>2026-04-18T13:55:52.999Z</time></trkpt><trkpt lat="43.79796652554293" lon="12.49368641290922"><ele>203.0</ele><time>2026-04-18T13:55:53.999Z</time></trkpt><trkpt lat="43.79809813177708" lon="12.49378243257403"><ele>200.0</ele><time>2026-04-18T13:55:54.999Z</time></trkpt><trkpt lat="43.79828375735506" lon="12.493988603955792"><ele>197.0</ele><time>2026-04-18T13:55:55.999Z</time></trkpt><trkpt lat="43.79839842008386" lon="12.494183005558778"><ele>197.0</ele><time>2026-04-18T13:55:56.999Z</time></trkpt><trkpt lat="43.79848525211585" lon="12.494403690560505"><ele>197.0</ele><time>2026-04-18T13:55:57.999Z</time></trkpt><trkpt lat="43.79854109684862" lon="12.494654177456978"><ele>197.0</ele><time>2026-04-18T13:55:58.999Z</time></trkpt><trkpt lat="43.79860144094641" lon="12.494905345865346"><ele>197.0</ele><time>2026-04-18T13:55:59.999Z</time></trkpt><trkpt lat="43.798679741345715" lon="12.495130748979646"><ele>197.0</ele><time>2026-04-18T13:56:00.999Z</time></trkpt><trkpt lat="43.798771273051855" lon="12.495329627956405"><ele>197.0</ele><time>2026-04-18T13:56:01.999Z</time></trkpt><trkpt lat="43.79890113112788" lon="12.495504659232324"><ele>197.0</ele><time>2026-04-18T13:56:02.999Z</time></trkpt><trkpt lat="43.799049355582994" lon="12.495641153315182"><ele>197.0</ele><time>2026-04-18T13:56:03.999Z</time></trkpt><trkpt lat="43.79920158056368" lon="12.495765126697982"><ele>197.0</ele><time>2026-04-18T13:56:04.999Z</time></trkpt><trkpt lat="43.79935166751013" lon="12.495889371158036"><ele>197.66666666666669</ele><time>2026-04-18T13:56:05.999Z</time></trkpt><trkpt lat="43.79949955865592" lon="12.496015783915386"><ele>198.33333333333331</ele><time>2026-04-18T13:56:06.999Z</time></trkpt><trkpt lat="43.79964610610347" lon="12.496145713159338"><ele>199.0</ele><time>2026-04-18T13:56:07.999Z</time></trkpt><trkpt lat="43.79978738371238" lon="12.496268424946347"><ele>199.0</ele><time>2026-04-18T13:56:08.999Z</time></trkpt><trkpt lat="43.799934939973475" lon="12.496390114795359"><ele>199.0</ele><time>2026-04-18T13:56:09.999Z</time></trkpt><trkpt lat="43.80007844281888" lon="12.496510308610304"><ele>199.0</ele><time>2026-04-18T13:56:10.999Z</time></trkpt><trkpt lat="43.80021435356176" lon="12.496631573731712"><ele>199.0</ele><time>2026-04-18T13:56:11.999Z</time></trkpt><trkpt lat="43.80035199023287" lon="12.496759888542254"><ele>199.0</ele><time>2026-04-18T13:56:12.999Z</time></trkpt><trkpt lat="43.80049403971343" lon="12.49688368713389"><ele>199.0</ele><time>2026-04-18T13:56:13.999Z</time></trkpt><trkpt lat="43.80063218115251" lon="12.497004887392272"><ele>199.0</ele><time>2026-04-18T13:56:14.999Z</time></trkpt><trkpt lat="43.80077120298656" lon="12.49712201571621"><ele>199.0</ele><time>2026-04-18T13:56:15.999Z</time></trkpt><trkpt lat="43.80091108456193" lon="12.497240963379557"><ele>199.0</ele><time>2026-04-18T13:56:16.999Z</time></trkpt><trkpt lat="43.8010485715984" lon="12.49735851389697"><ele>199.0</ele><time>2026-04-18T13:56:17.999Z</time></trkpt><trkpt lat="43.80118797098106" lon="12.497478118046434"><ele>199.0</ele><time>2026-04-18T13:56:18.999Z</time></trkpt><trkpt lat="43.80132878598285" lon="12.497601294311565"><ele>199.0</ele><time>2026-04-18T13:56:19.999Z</time></trkpt><trkpt lat="43.80146501241509" lon="12.497721767820854"><ele>199.0</ele><time>2026-04-18T13:56:20.999Z</time></trkpt><trkpt lat="43.80159359513327" lon="12.497862542322753"><ele>199.0</ele><time>2026-04-18T13:56:21.999Z</time></trkpt><trkpt lat="43.80172905609121" lon="12.497982689650888"><ele>199.0</ele><time>2026-04-18T13:56:22.999Z</time></trkpt><trkpt lat="43.801861528341895" lon="12.498100186130094"><ele>197.0</ele><time>2026-04-18T13:56:23.999Z</time></trkpt><trkpt lat="43.801997421523744" lon="12.498220090425976"><ele>195.0</ele><time>2026-04-18T13:56:24.999Z</time></trkpt><trkpt lat="43.80214344265611" lon="12.49831987600468"><ele>193.0</ele><time>2026-04-18T13:56:25.999Z</time></trkpt><trkpt lat="43.80227883261193" lon="12.49844047500693"><ele>193.0</ele><time>2026-04-18T13:56:26.999Z</time></trkpt><trkpt lat="43.80241462992082" lon="12.498559297503974"><ele>193.0</ele><time>2026-04-18T13:56:27.999Z</time></trkpt><trkpt lat="43.80254928765769" lon="12.49868018289789"><ele>193.0</ele><time>2026-04-18T13:56:29Z</time></trkpt><trkpt lat="43.80268451336309" lon="12.498800758784922"><ele>193.33333333333331</ele><time>2026-04-18T13:56:30Z</time></trkpt><trkpt lat="43.80282113234696" lon="12.498925133399116"><ele>193.66666666666669</ele><time>2026-04-18T13:56:31Z</time></trkpt><trkpt lat="43.802957927573175" lon="12.499044746160955"><ele>194.0</ele><time>2026-04-18T13:56:32Z</time></trkpt><trkpt lat="43.80309533959156" lon="12.499165809227087"><ele>194.0</ele><time>2026-04-18T13:56:33Z</time></trkpt><trkpt lat="43.803234117012444" lon="12.499288152740263"><ele>194.0</ele><time>2026-04-18T13:56:34Z</time></trkpt><trkpt lat="43.803373409458466" lon="12.49940925431585"><ele>194.0</ele><time>2026-04-18T13:56:35Z</time></trkpt><trkpt lat="43.803511188240066" lon="12.49953328094755"><ele>192.33333333333334</ele><time>2026-04-18T13:56:36Z</time></trkpt><trkpt lat="43.803651414506156" lon="12.499658089511424"><ele>190.66666666666669</ele><time>2026-04-18T13:56:37Z</time></trkpt><trkpt lat="43.80378714276372" lon="12.499786329544555"><ele>189.0</ele><time>2026-04-18T13:56:38Z</time></trkpt><trkpt lat="43.80392658136413" lon="12.499908634428136"><ele>189.0</ele><time>2026-04-18T13:56:39Z</time></trkpt><trkpt lat="43.80406337694313" lon="12.500033893079467"><ele>189.0</ele><time>2026-04-18T13:56:40Z</time></trkpt><trkpt lat="43.80420269292191" lon="12.500145764370215"><ele>189.0</ele><time>2026-04-18T13:56:41Z</time></trkpt><trkpt lat="43.804345725536116" lon="12.500242145399842"><ele>189.33333333333334</ele><time>2026-04-18T13:56:42Z</time></trkpt><trkpt lat="43.80449125360976" lon="12.50032889848538"><ele>189.66666666666669</ele><time>2026-04-18T13:56:43Z</time></trkpt><trkpt lat="43.80463868847863" lon="12.500404399900992"><ele>190.0</ele><time>2026-04-18T13:56:44Z</time></trkpt><trkpt lat="43.804791752863075" lon="12.500478791288122"><ele>188.66666666666669</ele><time>2026-04-18T13:56:45Z</time></trkpt><trkpt lat="43.804947396552436" lon="12.50054144963847"><ele>187.33333333333334</ele><time>2026-04-18T13:56:46Z</time></trkpt><trkpt lat="43.80510324671755" lon="12.500610482211298"><ele>186.0</ele><time>2026-04-18T13:56:47Z</time></trkpt><trkpt lat="43.805263547225536" lon="12.500681989072861"><ele>186.0</ele><time>2026-04-18T13:56:48Z</time></trkpt><trkpt lat="43.80542516168937" lon="12.500749443352378"><ele>186.0</ele><time>2026-04-18T13:56:49Z</time></trkpt><trkpt lat="43.8055933681232" lon="12.500807001686976"><ele>186.0</ele><time>2026-04-18T13:56:50Z</time></trkpt><trkpt lat="43.805764087730765" lon="12.50084788273347"><ele>186.0</ele><time>2026-04-18T13:56:51Z</time></trkpt><trkpt lat="43.805943935146075" lon="12.500877222875916"><ele>186.0</ele><time>2026-04-18T13:56:52Z</time></trkpt><trkpt lat="43.80612603338373" lon="12.500885391889645"><ele>186.0</ele><time>2026-04-18T13:56:53Z</time></trkpt><trkpt lat="43.806311769051916" lon="12.500896323602452"><ele>187.33333333333334</ele><time>2026-04-18T13:56:54Z</time></trkpt><trkpt lat="43.80649702419983" lon="12.500900090924535"><ele>188.66666666666669</ele><time>2026-04-18T13:56:55Z</time></trkpt><trkpt lat="43.80668160962624" lon="12.500907000831795"><ele>190.0</ele><time>2026-04-18T13:56:56Z</time></trkpt><trkpt lat="43.8068625253041" lon="12.500927313925587"><ele>192.66666666666669</ele><time>2026-04-18T13:56:57Z</time></trkpt><trkpt lat="43.80704217753953" lon="12.500969183036315"><ele>195.33333333333334</ele><time>2026-04-18T13:56:58Z</time></trkpt><trkpt lat="43.807213058759714" lon="12.501065102712122"><ele>198.0</ele><time>2026-04-18T13:56:59Z</time></trkpt><trkpt lat="43.80738096515845" lon="12.501158222554894"><ele>195.66666666666666</ele><time>2026-04-18T13:57:00Z</time></trkpt><trkpt lat="43.80754699801983" lon="12.501256052203876"><ele>193.33333333333331</ele><time>2026-04-18T13:57:01Z</time></trkpt><trkpt lat="43.807697095425155" lon="12.501400423240321"><ele>191.0</ele><time>2026-04-18T13:57:02Z</time></trkpt><trkpt lat="43.807837203606944" lon="12.501563530980077"><ele>191.0</ele><time>2026-04-18T13:57:03Z</time></trkpt><trkpt lat="43.80796789968704" lon="12.501738575841"><ele>191.0</ele><time>2026-04-18T13:57:04Z</time></trkpt><trkpt lat="43.80807853871728" lon="12.501927628819379"><ele>191.0</ele><time>2026-04-18T13:57:05Z</time></trkpt><trkpt lat="43.80820654052459" lon="12.502080591739395"><ele>188.33333333333331</ele><time>2026-04-18T13:57:06Z</time></trkpt><trkpt lat="43.80832118298032" lon="12.502247521691187"><ele>185.66666666666666</ele><time>2026-04-18T13:57:07Z</time></trkpt><trkpt lat="43.80843224779975" lon="12.502404095997745"><ele>183.0</ele><time>2026-04-18T13:57:08Z</time></trkpt><trkpt lat="43.80853943138485" lon="12.502561088720396"><ele>188.0</ele><time>2026-04-18T13:57:09Z</time></trkpt><trkpt lat="43.808639488931604" lon="12.502732481656249"><ele>193.0</ele><time>2026-04-18T13:57:10Z</time></trkpt><trkpt lat="43.80872405117689" lon="12.502929406619371"><ele>198.0</ele><time>2026-04-18T13:57:11Z</time></trkpt><trkpt lat="43.80876083842688" lon="12.503158324758617"><ele>198.0</ele><time>2026-04-18T13:57:12Z</time></trkpt><trkpt lat="43.80877552701872" lon="12.503406349849843"><ele>198.0</ele><time>2026-04-18T13:57:13Z</time></trkpt><trkpt lat="43.80876906886874" lon="12.503666695272567"><ele>198.0</ele><time>2026-04-18T13:57:14Z</time></trkpt><trkpt lat="43.80877571836151" lon="12.503944588866402"><ele>198.0</ele><time>2026-04-18T13:57:15Z</time></trkpt><trkpt lat="43.80876226909804" lon="12.504225871376004"><ele>198.0</ele><time>2026-04-18T13:57:16Z</time></trkpt><trkpt lat="43.808753889889246" lon="12.504509778093853"><ele>198.0</ele><time>2026-04-18T13:57:17Z</time></trkpt><trkpt lat="43.808747097047174" lon="12.504782507789338"><ele>197.0</ele><time>2026-04-18T13:57:18Z</time></trkpt><trkpt lat="43.80874104556964" lon="12.505041186144595"><ele>196.0</ele><time>2026-04-18T13:57:19Z</time></trkpt><trkpt lat="43.8087343864532" lon="12.505292082189062"><ele>195.0</ele><time>2026-04-18T13:57:20Z</time></trkpt><trkpt lat="43.80871255839002" lon="12.505541508812804"><ele>194.0</ele><time>2026-04-18T13:57:21Z</time></trkpt><trkpt lat="43.808719717527765" lon="12.50578805605851"><ele>193.0</ele><time>2026-04-18T13:57:22Z</time></trkpt><trkpt lat="43.808712674032904" lon="12.506027066760224"><ele>192.0</ele><time>2026-04-18T13:57:23Z</time></trkpt><trkpt lat="43.8087053283265" lon="12.50625951782447"><ele>192.0</ele><time>2026-04-18T13:57:24Z</time></trkpt><trkpt lat="43.808698214745284" lon="12.50648578742144"><ele>192.0</ele><time>2026-04-18T13:57:25Z</time></trkpt><trkpt lat="43.80869222366424" lon="12.506707254380913"><ele>192.0</ele><time>2026-04-18T13:57:26Z</time></trkpt><trkpt lat="43.808685024313434" lon="12.506921564742468"><ele>192.25</ele><time>2026-04-18T13:57:27Z</time></trkpt><trkpt lat="43.80867873535244" lon="12.507132247342906"><ele>192.5</ele><time>2026-04-18T13:57:28Z</time></trkpt><trkpt lat="43.80867346021911" lon="12.5073379174234"><ele>192.75</ele><time>2026-04-18T13:57:29Z</time></trkpt><trkpt lat="43.80866694062549" lon="12.507538719314327"><ele>193.0</ele><time>2026-04-18T13:57:30Z</time></trkpt><trkpt lat="43.808661251167976" lon="12.507734454550386"><ele>191.5</ele><time>2026-04-18T13:57:31Z</time></trkpt><trkpt lat="43.80865556928473" lon="12.507924701990095"><ele>190.0</ele><time>2026-04-18T13:57:32Z</time></trkpt><trkpt lat="43.80865812194349" lon="12.50811162737865"><ele>188.5</ele><time>2026-04-18T13:57:33Z</time></trkpt><trkpt lat="43.80867573848098" lon="12.508296511094269"><ele>187.0</ele><time>2026-04-18T13:57:34Z</time></trkpt><trkpt lat="43.808717796103195" lon="12.50848246917687"><ele>187.0</ele><time>2026-04-18T13:57:35Z</time></trkpt><trkpt lat="43.8087802200575" lon="12.5086627404082"><ele>187.0</ele><time>2026-04-18T13:57:36Z</time></trkpt><trkpt lat="43.80886382162777" lon="12.50883171193727"><ele>187.0</ele><time>2026-04-18T13:57:37Z</time></trkpt><trkpt lat="43.80896500111962" lon="12.508986918434418"><ele>187.0</ele><time>2026-04-18T13:57:38Z</time></trkpt><trkpt lat="43.8090861156488" lon="12.509129059720083"><ele>187.0</ele><time>2026-04-18T13:57:39Z</time></trkpt><trkpt lat="43.80922926052057" lon="12.509257578066293"><ele>187.0</ele><time>2026-04-18T13:57:40Z</time></trkpt><trkpt lat="43.80938917553353" lon="12.509388492384751"><ele>187.0</ele><time>2026-04-18T13:57:41Z</time></trkpt><trkpt lat="43.809550853074235" lon="12.5095280452165"><ele>183.33333333333334</ele><time>2026-04-18T13:57:42Z</time></trkpt><trkpt lat="43.80971029266085" lon="12.509670696250714"><ele>179.66666666666666</ele><time>2026-04-18T13:57:43Z</time></trkpt><trkpt lat="43.809872094852935" lon="12.50980973165608"><ele>176.0</ele><time>2026-04-18T13:57:44Z</time></trkpt><trkpt lat="43.810033321810906" lon="12.509959075875187"><ele>179.0</ele><time>2026-04-18T13:57:45Z</time></trkpt><trkpt lat="43.81020148494916" lon="12.510095835720607"><ele>182.0</ele><time>2026-04-18T13:57:46Z</time></trkpt><trkpt lat="43.81035760395524" lon="12.510240326722531"><ele>185.0</ele><time>2026-04-18T13:57:47Z</time></trkpt><trkpt lat="43.810511346335154" lon="12.510383236204154"><ele>181.33333333333331</ele><time>2026-04-18T13:57:48Z</time></trkpt><trkpt lat="43.81067127622704" lon="12.510525017164788"><ele>177.66666666666666</ele><time>2026-04-18T13:57:49Z</time></trkpt><trkpt lat="43.810837173449464" lon="12.510660735137389"><ele>174.0</ele><time>2026-04-18T13:57:50Z</time></trkpt><trkpt lat="43.811010546758745" lon="12.510782659805018"><ele>174.0</ele><time>2026-04-18T13:57:51Z</time></trkpt><trkpt lat="43.81118329583311" lon="12.510883728095209"><ele>174.0</ele><time>2026-04-18T13:57:52Z</time></trkpt><trkpt lat="43.81135692544111" lon="12.510965658314072"><ele>174.0</ele><time>2026-04-18T13:57:53Z</time></trkpt><trkpt lat="43.811529102177445" lon="12.51103577905493"><ele>174.0</ele><time>2026-04-18T13:57:54Z</time></trkpt><trkpt lat="43.81169821286426" lon="12.51109353461961"><ele>174.0</ele><time>2026-04-18T13:57:55Z</time></trkpt><trkpt lat="43.8118597861311" lon="12.511141534162643"><ele>174.0</ele><time>2026-04-18T13:57:56Z</time></trkpt><trkpt lat="43.812019063368616" lon="12.511192254802786"><ele>172.66666666666666</ele><time>2026-04-18T13:57:57Z</time></trkpt><trkpt lat="43.81217836279501" lon="12.511246284433904"><ele>171.33333333333331</ele><time>2026-04-18T13:57:58Z</time></trkpt><trkpt lat="43.812337618561614" lon="12.511318756939941"><ele>170.0</ele><time>2026-04-18T13:57:59Z</time></trkpt><trkpt lat="43.81249474780802" lon="12.511410974488701"><ele>170.0</ele><time>2026-04-18T13:58:00Z</time></trkpt><trkpt lat="43.81264404681912" lon="12.511529701651915"><ele>170.0</ele><time>2026-04-18T13:58:01Z</time></trkpt><trkpt lat="43.81278447089069" lon="12.511675633274713"><ele>170.0</ele><time>2026-04-18T13:58:02Z</time></trkpt><trkpt lat="43.8129011660096" lon="12.511863308199263"><ele>171.66666666666666</ele><time>2026-04-18T13:58:03Z</time></trkpt><trkpt lat="43.81300650164529" lon="12.512056308303109"><ele>173.33333333333334</ele><time>2026-04-18T13:58:04Z</time></trkpt><trkpt lat="43.81309610047132" lon="12.512279276455962"><ele>175.0</ele><time>2026-04-18T13:58:05Z</time></trkpt><trkpt lat="43.81317816624105" lon="12.512517010287496"><ele>175.0</ele><time>2026-04-18T13:58:06Z</time></trkpt><trkpt lat="43.81323334109319" lon="12.512791987747782"><ele>175.0</ele><time>2026-04-18T13:58:07Z</time></trkpt><trkpt lat="43.81329962450138" lon="12.513081166579884"><ele>175.0</ele><time>2026-04-18T13:58:08Z</time></trkpt><trkpt lat="43.813368687164164" lon="12.513382911537986"><ele>173.0</ele><time>2026-04-18T13:58:09Z</time></trkpt><trkpt lat="43.81344027774246" lon="12.513694188750916"><ele>171.0</ele><time>2026-04-18T13:58:10Z</time></trkpt><trkpt lat="43.813513800379695" lon="12.514013558920759"><ele>176.5</ele><time>2026-04-18T13:58:11Z</time></trkpt><trkpt lat="43.81358868475606" lon="12.514338844705788"><ele>182.0</ele><time>2026-04-18T13:58:12Z</time></trkpt><trkpt lat="43.813654295611244" lon="12.51462384707324"><ele>182.0</ele><time>2026-04-18T13:58:13Z</time></trkpt><trkpt lat="43.81372667218561" lon="12.51493884094159"><ele>182.0</ele><time>2026-04-18T13:58:14Z</time></trkpt><trkpt lat="43.81379583160441" lon="12.5152400744524"><ele>180.5</ele><time>2026-04-18T13:58:15Z</time></trkpt><trkpt lat="43.81387881169122" lon="12.51553759466517"><ele>179.0</ele><time>2026-04-18T13:58:16Z</time></trkpt><trkpt lat="43.81394477945329" lon="12.515836443841266"><ele>179.0</ele><time>2026-04-18T13:58:17Z</time></trkpt><trkpt lat="43.8140155063854" lon="12.516135331342712"><ele>179.0</ele><time>2026-04-18T13:58:18Z</time></trkpt><trkpt lat="43.814084626317296" lon="12.516421763299011"><ele>179.0</ele><time>2026-04-18T13:58:19Z</time></trkpt><trkpt lat="43.81413658851145" lon="12.51671862929322"><ele>179.33333333333331</ele><time>2026-04-18T13:58:20Z</time></trkpt><trkpt lat="43.814203176806295" lon="12.51700644099678"><ele>179.66666666666666</ele><time>2026-04-18T13:58:21Z</time></trkpt><trkpt lat="43.814269373498114" lon="12.51729332541153"><ele>180.0</ele><time>2026-04-18T13:58:22Z</time></trkpt><trkpt lat="43.814330626221036" lon="12.517559910851595"><ele>180.0</ele><time>2026-04-18T13:58:23Z</time></trkpt><trkpt lat="43.81438762632001" lon="12.517812641376572"><ele>180.0</ele><time>2026-04-18T13:58:24Z</time></trkpt><trkpt lat="43.814437217826836" lon="12.518058369657519"><ele>180.0</ele><time>2026-04-18T13:58:25Z</time></trkpt><trkpt lat="43.81446202222871" lon="12.518310363083916"><ele>182.0</ele><time>2026-04-18T13:58:26Z</time></trkpt><trkpt lat="43.814445576999084" lon="12.518541950357953"><ele>184.0</ele><time>2026-04-18T13:58:27Z</time></trkpt><trkpt lat="43.814389258173925" lon="12.518782159988476"><ele>186.0</ele><time>2026-04-18T13:58:28Z</time></trkpt><trkpt lat="43.81432890594531" lon="12.519037477299639"><ele>181.66666666666666</ele><time>2026-04-18T13:58:29Z</time></trkpt><trkpt lat="43.81426967738901" lon="12.519297633660317"><ele>177.33333333333331</ele><time>2026-04-18T13:58:30Z</time></trkpt><trkpt lat="43.81422658822147" lon="12.519575158046552"><ele>173.0</ele><time>2026-04-18T13:58:31Z</time></trkpt><trkpt lat="43.814217273301914" lon="12.519870701506317"><ele>172.66666666666666</ele><time>2026-04-18T13:58:32Z</time></trkpt><trkpt lat="43.81419891225868" lon="12.520158007956718"><ele>172.33333333333334</ele><time>2026-04-18T13:58:33Z</time></trkpt><trkpt lat="43.81420725247399" lon="12.520453826681601"><ele>172.0</ele><time>2026-04-18T13:58:34Z</time></trkpt><trkpt lat="43.81424335880336" lon="12.520750674598416"><ele>170.66666666666669</ele><time>2026-04-18T13:58:35Z</time></trkpt><trkpt lat="43.814298523833806" lon="12.521040617877942"><ele>169.33333333333334</ele><time>2026-04-18T13:58:36Z</time></trkpt><trkpt lat="43.81433686925579" lon="12.52132323876364"><ele>168.0</ele><time>2026-04-18T13:58:37Z</time></trkpt><trkpt lat="43.814393760565885" lon="12.521607564631633"><ele>171.66666666666666</ele><time>2026-04-18T13:58:38Z</time></trkpt><trkpt lat="43.814447694509155" lon="12.521881063728028"><ele>175.33333333333331</ele><time>2026-04-18T13:58:39Z</time></trkpt><trkpt lat="43.81448495456079" lon="12.522166601544322"><ele>179.0</ele><time>2026-04-18T13:58:40Z</time></trkpt><trkpt lat="43.814496650054984" lon="12.522455493220312"><ele>179.0</ele><time>2026-04-18T13:58:41Z</time></trkpt><trkpt lat="43.81450719604273" lon="12.522747257131263"><ele>179.0</ele><time>2026-04-18T13:58:42Z</time></trkpt><trkpt lat="43.8144639984699" lon="12.52303712789629"><ele>179.0</ele><time>2026-04-18T13:58:43Z</time></trkpt><trkpt lat="43.8143998700653" lon="12.523326345598901"><ele>175.0</ele><time>2026-04-18T13:58:44Z</time></trkpt><trkpt lat="43.81431076283368" lon="12.523608318652633"><ele>171.0</ele><time>2026-04-18T13:58:45Z</time></trkpt><trkpt lat="43.814195072130026" lon="12.52387576765821"><ele>167.0</ele><time>2026-04-18T13:58:46Z</time></trkpt><trkpt lat="43.81405840269712" lon="12.524129183423263"><ele>167.0</ele><time>2026-04-18T13:58:47Z</time></trkpt><trkpt lat="43.81394893618118" lon="12.524399049403174"><ele>167.0</ele><time>2026-04-18T13:58:48Z</time></trkpt><trkpt lat="43.81376337958351" lon="12.52462219755568"><ele>166.0</ele><time>2026-04-18T13:58:49Z</time></trkpt><trkpt lat="43.81362034020986" lon="12.524872504402449"><ele>165.0</ele><time>2026-04-18T13:58:50Z</time></trkpt><trkpt lat="43.81348233983693" lon="12.525124382567848"><ele>165.0</ele><time>2026-04-18T13:58:51Z</time></trkpt><trkpt lat="43.81334495261296" lon="12.52537600333466"><ele>165.0</ele><time>2026-04-18T13:58:52Z</time></trkpt><trkpt lat="43.81320781155871" lon="12.525625401512324"><ele>166.0</ele><time>2026-04-18T13:58:53Z</time></trkpt><trkpt lat="43.81307018277243" lon="12.525865736089044"><ele>167.0</ele><time>2026-04-18T13:58:54Z</time></trkpt><trkpt lat="43.81293579437675" lon="12.526098723220217"><ele>168.0</ele><time>2026-04-18T13:58:55Z</time></trkpt><trkpt lat="43.8128072533718" lon="12.526327923743871"><ele>169.0</ele><time>2026-04-18T13:58:56Z</time></trkpt><trkpt lat="43.81267961111494" lon="12.526550929407493"><ele>170.0</ele><time>2026-04-18T13:58:57Z</time></trkpt><trkpt lat="43.812556163078284" lon="12.526771497133694"><ele>171.0</ele><time>2026-04-18T13:58:58Z</time></trkpt><trkpt lat="43.812434343447165" lon="12.526989252119282"><ele>168.66666666666666</ele><time>2026-04-18T13:58:59Z</time></trkpt><trkpt lat="43.812315770727515" lon="12.527202725334487"><ele>166.33333333333331</ele><time>2026-04-18T13:59:00Z</time></trkpt><trkpt lat="43.812197615436176" lon="12.52741185762911"><ele>164.0</ele><time>2026-04-18T13:59:01Z</time></trkpt><trkpt lat="43.812082529050286" lon="12.527614506300521"><ele>164.0</ele><time>2026-04-18T13:59:02Z</time></trkpt><trkpt lat="43.8119716713076" lon="12.52781102726676"><ele>164.0</ele><time>2026-04-18T13:59:03Z</time></trkpt><trkpt lat="43.81186755737328" lon="12.52799652025617"><ele>164.0</ele><time>2026-04-18T13:59:04Z</time></trkpt><trkpt lat="43.81176811918481" lon="12.52817517399165"><ele>165.0</ele><time>2026-04-18T13:59:05Z</time></trkpt><trkpt lat="43.811671215478434" lon="12.528352065523832"><ele>166.0</ele><time>2026-04-18T13:59:06Z</time></trkpt><trkpt lat="43.81158019297974" lon="12.52853272132539"><ele>167.0</ele><time>2026-04-18T13:59:07Z</time></trkpt><trkpt lat="43.81149370631804" lon="12.528719468271133"><ele>167.33333333333331</ele><time>2026-04-18T13:59:08Z</time></trkpt><trkpt lat="43.811411608800135" lon="12.528912948842972"><ele>167.66666666666666</ele><time>2026-04-18T13:59:09Z</time></trkpt><trkpt lat="43.81133090562064" lon="12.529108547949784"><ele>168.0</ele><time>2026-04-18T13:59:10Z</time></trkpt><trkpt lat="43.81125164830519" lon="12.529308368359573"><ele>168.0</ele><time>2026-04-18T13:59:11Z</time></trkpt><trkpt lat="43.811175322475854" lon="12.529503504291606"><ele>168.0</ele><time>2026-04-18T13:59:12Z</time></trkpt><trkpt lat="43.811110445263104" lon="12.529701123401463"><ele>168.0</ele><time>2026-04-18T13:59:13Z</time></trkpt><trkpt lat="43.81107346743087" lon="12.52990762476132"><ele>168.33333333333334</ele><time>2026-04-18T13:59:14Z</time></trkpt><trkpt lat="43.81107529334476" lon="12.530124712291524"><ele>168.66666666666669</ele><time>2026-04-18T13:59:15Z</time></trkpt><trkpt lat="43.81111059418992" lon="12.530350424313074"><ele>169.0</ele><time>2026-04-18T13:59:16Z</time></trkpt><trkpt lat="43.81117327504919" lon="12.530583346905187"><ele>169.33333333333334</ele><time>2026-04-18T13:59:17Z</time></trkpt><trkpt lat="43.811253984391506" lon="12.530828013952057"><ele>169.66666666666666</ele><time>2026-04-18T13:59:18Z</time></trkpt><trkpt lat="43.81134139488785" lon="12.531082185273815"><ele>170.0</ele><time>2026-04-18T13:59:19Z</time></trkpt><trkpt lat="43.81142971208708" lon="12.531348816696365"><ele>168.66666666666666</ele><time>2026-04-18T13:59:20Z</time></trkpt><trkpt lat="43.81151500000599" lon="12.531628291292618"><ele>167.33333333333334</ele><time>2026-04-18T13:59:21Z</time></trkpt><trkpt lat="43.8115993802442" lon="12.53191185938264"><ele>166.0</ele><time>2026-04-18T13:59:22Z</time></trkpt><trkpt lat="43.8116860603227" lon="12.532201460645037"><ele>167.5</ele><time>2026-04-18T13:59:23Z</time></trkpt><trkpt lat="43.811776332251206" lon="12.532494027047743"><ele>169.0</ele><time>2026-04-18T13:59:24Z</time></trkpt><trkpt lat="43.81186512965527" lon="12.532786460187467"><ele>165.0</ele><time>2026-04-18T13:59:25Z</time></trkpt><trkpt lat="43.811954445357294" lon="12.53308024183849"><ele>161.0</ele><time>2026-04-18T13:59:26Z</time></trkpt><trkpt lat="43.812044168978794" lon="12.533374514578492"><ele>161.0</ele><time>2026-04-18T13:59:27Z</time></trkpt><trkpt lat="43.81213277975111" lon="12.533668777138063"><ele>161.0</ele><time>2026-04-18T13:59:28Z</time></trkpt><trkpt lat="43.81221642097351" lon="12.533965336294946"><ele>157.5</ele><time>2026-04-18T13:59:29Z</time></trkpt><trkpt lat="43.81228754600838" lon="12.534265755773932"><ele>154.0</ele><time>2026-04-18T13:59:30Z</time></trkpt><trkpt lat="43.81234340533555" lon="12.534569698060894"><ele>153.5</ele><time>2026-04-18T13:59:31Z</time></trkpt><trkpt lat="43.81238803941224" lon="12.53488187176204"><ele>153.0</ele><time>2026-04-18T13:59:32Z</time></trkpt><trkpt lat="43.812417885083256" lon="12.53519856950279"><ele>152.0</ele><time>2026-04-18T13:59:33Z</time></trkpt><trkpt lat="43.81243610111555" lon="12.535517992116556"><ele>151.0</ele><time>2026-04-18T13:59:34Z</time></trkpt><trkpt lat="43.81244041637496" lon="12.53584039245534"><ele>151.0</ele><time>2026-04-18T13:59:35Z</time></trkpt><trkpt lat="43.81242949331147" lon="12.536162897658425"><ele>151.0</ele><time>2026-04-18T13:59:36Z</time></trkpt><trkpt lat="43.812411517924666" lon="12.536484405772095"><ele>151.0</ele><time>2026-04-18T13:59:37Z</time></trkpt><trkpt lat="43.812392898340995" lon="12.53680672954895"><ele>151.0</ele><time>2026-04-18T13:59:37.999Z</time></trkpt><trkpt lat="43.81237650060255" lon="12.537127584647978"><ele>151.5</ele><time>2026-04-18T13:59:38.999Z</time></trkpt><trkpt lat="43.81236023616235" lon="12.53745101824907"><ele>152.0</ele><time>2026-04-18T13:59:39.999Z</time></trkpt><trkpt lat="43.81234626795797" lon="12.537768939539022"><ele>151.5</ele><time>2026-04-18T13:59:40.999Z</time></trkpt><trkpt lat="43.81233008436538" lon="12.538083455218697"><ele>151.0</ele><time>2026-04-18T13:59:41.999Z</time></trkpt><trkpt lat="43.812313282751326" lon="12.538395330708981"><ele>151.0</ele><time>2026-04-18T13:59:42.999Z</time></trkpt><trkpt lat="43.81229718531519" lon="12.538705661508445"><ele>151.0</ele><time>2026-04-18T13:59:43.999Z</time></trkpt><trkpt lat="43.812281143786336" lon="12.539011618926551"><ele>151.0</ele><time>2026-04-18T13:59:44.999Z</time></trkpt><trkpt lat="43.81226481381134" lon="12.539318764744296"><ele>151.0</ele><time>2026-04-18T13:59:45.999Z</time></trkpt><trkpt lat="43.812246710913044" lon="12.539623540237413"><ele>151.0</ele><time>2026-04-18T13:59:46.999Z</time></trkpt><trkpt lat="43.81222803729804" lon="12.539926478396291"><ele>151.0</ele><time>2026-04-18T13:59:47.999Z</time></trkpt><trkpt lat="43.8122036731684" lon="12.54022832087499"><ele>152.0</ele><time>2026-04-18T13:59:48.999Z</time></trkpt><trkpt lat="43.81216351279473" lon="12.540525035477662"><ele>153.0</ele><time>2026-04-18T13:59:49.999Z</time></trkpt><trkpt lat="43.8121044274434" lon="12.540812633807034"><ele>154.0</ele><time>2026-04-18T13:59:50.999Z</time></trkpt><trkpt lat="43.812033852014274" lon="12.541073695430335"><ele>153.0</ele><time>2026-04-18T13:59:51.999Z</time></trkpt><trkpt lat="43.81195733107825" lon="12.541315362405827"><ele>152.0</ele><time>2026-04-18T13:59:52.999Z</time></trkpt><trkpt lat="43.81187074952971" lon="12.541544418371371"><ele>151.0</ele><time>2026-04-18T13:59:53.999Z</time></trkpt><trkpt lat="43.81176455846187" lon="12.541771026182484"><ele>151.0</ele><time>2026-04-18T13:59:54.999Z</time></trkpt><trkpt lat="43.81164257891219" lon="12.541985025994677"><ele>151.0</ele><time>2026-04-18T13:59:55.999Z</time></trkpt><trkpt lat="43.8115198571392" lon="12.542195346263323"><ele>151.0</ele><time>2026-04-18T13:59:56.999Z</time></trkpt><trkpt lat="43.81139321166811" lon="12.542403757305763"><ele>152.33333333333334</ele><time>2026-04-18T13:59:57.999Z</time></trkpt><trkpt lat="43.81126707810036" lon="12.542612923396245"><ele>153.66666666666666</ele><time>2026-04-18T13:59:58.999Z</time></trkpt><trkpt lat="43.81114119966944" lon="12.542822766736483"><ele>155.0</ele><time>2026-04-18T13:59:59.999Z</time></trkpt><trkpt lat="43.81102161056289" lon="12.543034177600635"><ele>154.33333333333331</ele><time>2026-04-18T14:00:00.999Z</time></trkpt><trkpt lat="43.81092055098188" lon="12.543256791867806"><ele>153.66666666666666</ele><time>2026-04-18T14:00:01.999Z</time></trkpt><trkpt lat="43.81083148138221" lon="12.543489802089395"><ele>153.0</ele><time>2026-04-18T14:00:02.999Z</time></trkpt><trkpt lat="43.81075859031011" lon="12.543736370648"><ele>154.33333333333334</ele><time>2026-04-18T14:00:03.999Z</time></trkpt><trkpt lat="43.81069134518317" lon="12.543987135595417"><ele>155.66666666666669</ele><time>2026-04-18T14:00:04.999Z</time></trkpt><trkpt lat="43.81062331432913" lon="12.54423626256025"><ele>157.0</ele><time>2026-04-18T14:00:05.999Z</time></trkpt><trkpt lat="43.810554597075416" lon="12.54448296789791"><ele>159.0</ele><time>2026-04-18T14:00:06.999Z</time></trkpt><trkpt lat="43.81046373250261" lon="12.544716230814942"><ele>161.0</ele><time>2026-04-18T14:00:07.999Z</time></trkpt><trkpt lat="43.8103964728093" lon="12.544960784919992"><ele>163.0</ele><time>2026-04-18T14:00:08.999Z</time></trkpt><trkpt lat="43.81033093789423" lon="12.545197769003337"><ele>163.33333333333334</ele><time>2026-04-18T14:00:09.999Z</time></trkpt><trkpt lat="43.81026447708623" lon="12.545428621139958"><ele>163.66666666666666</ele><time>2026-04-18T14:00:10.999Z</time></trkpt><trkpt lat="43.81020203964454" lon="12.545654407301425"><ele>164.0</ele><time>2026-04-18T14:00:11.999Z</time></trkpt><trkpt lat="43.81015242043713" lon="12.545879029065583"><ele>162.0</ele><time>2026-04-18T14:00:12.999Z</time></trkpt><trkpt lat="43.81013671239839" lon="12.546110444737996"><ele>160.0</ele><time>2026-04-18T14:00:13.999Z</time></trkpt><trkpt lat="43.810117611486305" lon="12.546341376446243"><ele>158.0</ele><time>2026-04-18T14:00:14.999Z</time></trkpt><trkpt lat="43.81015656347183" lon="12.546572909361336"><ele>160.0</ele><time>2026-04-18T14:00:15.999Z</time></trkpt><trkpt lat="43.810179840267736" lon="12.546810704024622"><ele>162.0</ele><time>2026-04-18T14:00:16.999Z</time></trkpt><trkpt lat="43.8102442126358" lon="12.547039419857457"><ele>164.0</ele><time>2026-04-18T14:00:17.999Z</time></trkpt><trkpt lat="43.8102670202692" lon="12.547284739850388"><ele>164.33333333333331</ele><time>2026-04-18T14:00:18.999Z</time></trkpt><trkpt lat="43.81029433189814" lon="12.547527000602967"><ele>164.66666666666666</ele><time>2026-04-18T14:00:19.999Z</time></trkpt><trkpt lat="43.81031227140982" lon="12.547779747511589"><ele>165.0</ele><time>2026-04-18T14:00:20.999Z</time></trkpt><trkpt lat="43.81031269719319" lon="12.548035085225536"><ele>165.66666666666666</ele><time>2026-04-18T14:00:21.999Z</time></trkpt><trkpt lat="43.810283299919455" lon="12.548285585508657"><ele>166.33333333333331</ele><time>2026-04-18T14:00:22.999Z</time></trkpt><trkpt lat="43.81023831067143" lon="12.548544105092384"><ele>167.0</ele><time>2026-04-18T14:00:23.999Z</time></trkpt><trkpt lat="43.81019899011119" lon="12.548808480180242"><ele>167.66666666666666</ele><time>2026-04-18T14:00:24.999Z</time></trkpt><trkpt lat="43.81019967052393" lon="12.549089243023671"><ele>168.33333333333334</ele><time>2026-04-18T14:00:25.999Z</time></trkpt><trkpt lat="43.81020604489114" lon="12.549377129480359"><ele>169.0</ele><time>2026-04-18T14:00:26.999Z</time></trkpt><trkpt lat="43.810206472599816" lon="12.549673851852754"><ele>170.0</ele><time>2026-04-18T14:00:27.999Z</time></trkpt><trkpt lat="43.810218254054504" lon="12.54996650584841"><ele>171.0</ele><time>2026-04-18T14:00:28.999Z</time></trkpt><trkpt lat="43.81022647671469" lon="12.550259678177547"><ele>172.0</ele><time>2026-04-18T14:00:29.999Z</time></trkpt><trkpt lat="43.81022590512094" lon="12.55054921071718"><ele>172.0</ele><time>2026-04-18T14:00:30.999Z</time></trkpt><trkpt lat="43.81021095963844" lon="12.55082970677414"><ele>172.0</ele><time>2026-04-18T14:00:31.999Z</time></trkpt><trkpt lat="43.81019229071583" lon="12.55109867756989"><ele>172.0</ele><time>2026-04-18T14:00:32.999Z</time></trkpt><trkpt lat="43.81017758801505" lon="12.551344217934055"><ele>170.66666666666669</ele><time>2026-04-18T14:00:33.999Z</time></trkpt><trkpt lat="43.81019412309414" lon="12.551571274010545"><ele>169.33333333333334</ele><time>2026-04-18T14:00:34.999Z</time></trkpt><trkpt lat="43.8102196943532" lon="12.551782869320474"><ele>168.0</ele><time>2026-04-18T14:00:35.999Z</time></trkpt><trkpt lat="43.810269941395354" lon="12.55197832138209"><ele>165.0</ele><time>2026-04-18T14:00:36.999Z</time></trkpt><trkpt lat="43.81035988599136" lon="12.552152783848443"><ele>162.0</ele><time>2026-04-18T14:00:37.999Z</time></trkpt><trkpt lat="43.81048345134833" lon="12.552311287755135"><ele>159.0</ele><time>2026-04-18T14:00:38.999Z</time></trkpt><trkpt lat="43.81062444926362" lon="12.552454040449264"><ele>159.0</ele><time>2026-04-18T14:00:39.999Z</time></trkpt><trkpt lat="43.810774472970394" lon="12.552592888466517"><ele>159.0</ele><time>2026-04-18T14:00:41Z</time></trkpt><trkpt lat="43.81090445516161" lon="12.552774275078075"><ele>159.0</ele><time>2026-04-18T14:00:42Z</time></trkpt><trkpt lat="43.81102647612784" lon="12.552972419712683"><ele>157.33333333333334</ele><time>2026-04-18T14:00:43Z</time></trkpt><trkpt lat="43.81113368887254" lon="12.553186318031416"><ele>155.66666666666669</ele><time>2026-04-18T14:00:44Z</time></trkpt><trkpt lat="43.81120821452195" lon="12.5534003945942"><ele>154.0</ele><time>2026-04-18T14:00:45Z</time></trkpt><trkpt lat="43.81126282183477" lon="12.553619020757607"><ele>153.66666666666669</ele><time>2026-04-18T14:00:46Z</time></trkpt><trkpt lat="43.81130625089937" lon="12.553841834551253"><ele>153.33333333333334</ele><time>2026-04-18T14:00:47Z</time></trkpt><trkpt lat="43.81134361649491" lon="12.554068016512225"><ele>153.0</ele><time>2026-04-18T14:00:48Z</time></trkpt><trkpt lat="43.81137810158683" lon="12.55428998766037"><ele>153.0</ele><time>2026-04-18T14:00:49Z</time></trkpt><trkpt lat="43.81141466186519" lon="12.554508040792784"><ele>153.0</ele><time>2026-04-18T14:00:50Z</time></trkpt><trkpt lat="43.811451983728034" lon="12.554725773627597"><ele>153.0</ele><time>2026-04-18T14:00:51Z</time></trkpt><trkpt lat="43.811516777546665" lon="12.55493298488064"><ele>152.0</ele><time>2026-04-18T14:00:52Z</time></trkpt><trkpt lat="43.81155690427277" lon="12.555144955624613"><ele>151.0</ele><time>2026-04-18T14:00:53Z</time></trkpt><trkpt lat="43.811595726081855" lon="12.555357326777454"><ele>150.0</ele><time>2026-04-18T14:00:54Z</time></trkpt><trkpt lat="43.811632644310905" lon="12.555572763242873"><ele>148.66666666666666</ele><time>2026-04-18T14:00:55Z</time></trkpt><trkpt lat="43.811665353992645" lon="12.555789660655783"><ele>147.33333333333331</ele><time>2026-04-18T14:00:56Z</time></trkpt><trkpt lat="43.811704036800904" lon="12.556008691184095"><ele>146.0</ele><time>2026-04-18T14:00:57Z</time></trkpt><trkpt lat="43.81174207272119" lon="12.55622817195332"><ele>145.66666666666666</ele><time>2026-04-18T14:00:58Z</time></trkpt><trkpt lat="43.81177828840346" lon="12.55644841910292"><ele>145.33333333333334</ele><time>2026-04-18T14:00:59Z</time></trkpt><trkpt lat="43.81181517744582" lon="12.556667457545172"><ele>145.0</ele><time>2026-04-18T14:01:00Z</time></trkpt><trkpt lat="43.81185106843706" lon="12.556886871292884"><ele>145.66666666666669</ele><time>2026-04-18T14:01:01Z</time></trkpt><trkpt lat="43.81188578706798" lon="12.557104867317165"><ele>146.33333333333334</ele><time>2026-04-18T14:01:02Z</time></trkpt><trkpt lat="43.81191146964452" lon="12.557324851232943"><ele>147.0</ele><time>2026-04-18T14:01:03Z</time></trkpt><trkpt lat="43.81193393484235" lon="12.557545793880404"><ele>147.0</ele><time>2026-04-18T14:01:04Z</time></trkpt><trkpt lat="43.81195551002475" lon="12.557769103805832"><ele>147.0</ele><time>2026-04-18T14:01:05Z</time></trkpt><trkpt lat="43.81197523404769" lon="12.557992183317312"><ele>147.0</ele><time>2026-04-18T14:01:06Z</time></trkpt><trkpt lat="43.811991201720176" lon="12.558215699333134"><ele>146.66666666666666</ele><time>2026-04-18T14:01:07Z</time></trkpt><trkpt lat="43.81198712500917" lon="12.558437888126761"><ele>146.33333333333331</ele><time>2026-04-18T14:01:08Z</time></trkpt><trkpt lat="43.811996147520205" lon="12.558652577113039"><ele>146.0</ele><time>2026-04-18T14:01:09Z</time></trkpt><trkpt lat="43.81200301763526" lon="12.558867576433261"><ele>145.66666666666666</ele><time>2026-04-18T14:01:10Z</time></trkpt><trkpt lat="43.81200891574683" lon="12.55908157736079"><ele>145.33333333333334</ele><time>2026-04-18T14:01:11Z</time></trkpt><trkpt lat="43.81201214999381" lon="12.559294296073382"><ele>145.0</ele><time>2026-04-18T14:01:12Z</time></trkpt><trkpt lat="43.81202525631674" lon="12.559506540664337"><ele>147.33333333333334</ele><time>2026-04-18T14:01:13Z</time></trkpt><trkpt lat="43.81200722279023" lon="12.559716595162786"><ele>149.66666666666666</ele><time>2026-04-18T14:01:14Z</time></trkpt><trkpt lat="43.81197005089189" lon="12.559921234021953"><ele>152.0</ele><time>2026-04-18T14:01:15Z</time></trkpt><trkpt lat="43.81190857869161" lon="12.56011243313415"><ele>152.0</ele><time>2026-04-18T14:01:16Z</time></trkpt><trkpt lat="43.81182077708521" lon="12.560291786065621"><ele>152.0</ele><time>2026-04-18T14:01:17Z</time></trkpt><trkpt lat="43.8117214292071" lon="12.56046444567438"><ele>152.0</ele><time>2026-04-18T14:01:18Z</time></trkpt><trkpt lat="43.811612390484754" lon="12.56062930101303"><ele>152.0</ele><time>2026-04-18T14:01:19Z</time></trkpt><trkpt lat="43.811509590067104" lon="12.560809970628645"><ele>152.0</ele><time>2026-04-18T14:01:20Z</time></trkpt><trkpt lat="43.81140543166823" lon="12.560993027075005"><ele>152.0</ele><time>2026-04-18T14:01:21Z</time></trkpt><trkpt lat="43.811299776780814" lon="12.561176224487104"><ele>154.33333333333331</ele><time>2026-04-18T14:01:22Z</time></trkpt><trkpt lat="43.81120527137219" lon="12.561368039597369"><ele>156.66666666666666</ele><time>2026-04-18T14:01:23Z</time></trkpt><trkpt lat="43.8111097363265" lon="12.561537579147759"><ele>159.0</ele><time>2026-04-18T14:01:24Z</time></trkpt><trkpt lat="43.81102299360498" lon="12.561686226796537"><ele>158.0</ele><time>2026-04-18T14:01:25Z</time></trkpt><trkpt lat="43.810979841389496" lon="12.561860906337944"><ele>157.0</ele><time>2026-04-18T14:01:26Z</time></trkpt><trkpt lat="43.810975370732926" lon="12.562041195359729"><ele>156.0</ele><time>2026-04-18T14:01:27Z</time></trkpt><trkpt lat="43.81101534715013" lon="12.562207135072487"><ele>155.0</ele><time>2026-04-18T14:01:28Z</time></trkpt><trkpt lat="43.81109033857027" lon="12.56235427380908"><ele>155.0</ele><time>2026-04-18T14:01:29Z</time></trkpt><trkpt lat="43.81121731834215" lon="12.562446691716156"><ele>155.0</ele><time>2026-04-18T14:01:30Z</time></trkpt><trkpt lat="43.811362686361434" lon="12.562520140481054"><ele>155.0</ele><time>2026-04-18T14:01:31Z</time></trkpt><trkpt lat="43.811519343323354" lon="12.562577414569253"><ele>155.0</ele><time>2026-04-18T14:01:32Z</time></trkpt><trkpt lat="43.81168718486547" lon="12.562644260910648"><ele>155.0</ele><time>2026-04-18T14:01:33Z</time></trkpt><trkpt lat="43.81185523064083" lon="12.562692305952929"><ele>155.0</ele><time>2026-04-18T14:01:34Z</time></trkpt><trkpt lat="43.812017866728176" lon="12.562738956827316"><ele>154.66666666666666</ele><time>2026-04-18T14:01:35Z</time></trkpt><trkpt lat="43.81217736864868" lon="12.562784785774303"><ele>154.33333333333334</ele><time>2026-04-18T14:01:36Z</time></trkpt><trkpt lat="43.8123183338814" lon="12.562860899483182"><ele>154.0</ele><time>2026-04-18T14:01:37Z</time></trkpt><trkpt lat="43.812438338000405" lon="12.562974816495748"><ele>154.0</ele><time>2026-04-18T14:01:38Z</time></trkpt><trkpt lat="43.81254279534924" lon="12.563123037306283"><ele>154.0</ele><time>2026-04-18T14:01:39Z</time></trkpt><trkpt lat="43.812597322486425" lon="12.563336212407354"><ele>154.0</ele><time>2026-04-18T14:01:40Z</time></trkpt><trkpt lat="43.8126209561597" lon="12.563558454302713"><ele>153.33333333333334</ele><time>2026-04-18T14:01:41Z</time></trkpt><trkpt lat="43.81260121821239" lon="12.563784319087082"><ele>152.66666666666666</ele><time>2026-04-18T14:01:42Z</time></trkpt><trkpt lat="43.81260909388664" lon="12.564019844080773"><ele>152.0</ele><time>2026-04-18T14:01:43Z</time></trkpt><trkpt lat="43.812685438731954" lon="12.564263573299558"><ele>155.33333333333331</ele><time>2026-04-18T14:01:44Z</time></trkpt><trkpt lat="43.812692595149294" lon="12.564397282166262"><ele>158.66666666666666</ele><time>2026-04-18T14:01:45Z</time></trkpt><trkpt lat="43.812776453536465" lon="12.564624043348084"><ele>162.0</ele><time>2026-04-18T14:01:46Z</time></trkpt><trkpt lat="43.81287940405568" lon="12.564831047543391"><ele>162.0</ele><time>2026-04-18T14:01:47Z</time></trkpt><trkpt lat="43.81297113420022" lon="12.565054129193808"><ele>162.0</ele><time>2026-04-18T14:01:48Z</time></trkpt><trkpt lat="43.813037748505614" lon="12.565282771662853"><ele>162.0</ele><time>2026-04-18T14:01:49Z</time></trkpt><trkpt lat="43.81305570117612" lon="12.565541113935964"><ele>161.0</ele><time>2026-04-18T14:01:50Z</time></trkpt><trkpt lat="43.81306906662633" lon="12.565799351369495"><ele>160.0</ele><time>2026-04-18T14:01:51Z</time></trkpt><trkpt lat="43.81306468021736" lon="12.566076384326221"><ele>159.0</ele><time>2026-04-18T14:01:52Z</time></trkpt><trkpt lat="43.81307498156132" lon="12.566351138671916"><ele>156.0</ele><time>2026-04-18T14:01:53Z</time></trkpt><trkpt lat="43.81308149771735" lon="12.566627333521014"><ele>153.0</ele><time>2026-04-18T14:01:54Z</time></trkpt><trkpt lat="43.81311825408816" lon="12.566897343938717"><ele>150.0</ele><time>2026-04-18T14:01:55Z</time></trkpt><trkpt lat="43.813176602017954" lon="12.567167929748534"><ele>148.66666666666666</ele><time>2026-04-18T14:01:56Z</time></trkpt><trkpt lat="43.81323951373788" lon="12.567442271047412"><ele>147.33333333333331</ele><time>2026-04-18T14:01:57Z</time></trkpt><trkpt lat="43.813299008457484" lon="12.567710631860976"><ele>146.0</ele><time>2026-04-18T14:01:58Z</time></trkpt><trkpt lat="43.81335632054391" lon="12.567986623175692"><ele>145.66666666666666</ele><time>2026-04-18T14:01:59Z</time></trkpt><trkpt lat="43.8134093115366" lon="12.56825748309615"><ele>145.33333333333334</ele><time>2026-04-18T14:02:00Z</time></trkpt><trkpt lat="43.813430018478826" lon="12.56853933060912"><ele>145.0</ele><time>2026-04-18T14:02:01Z</time></trkpt><trkpt lat="43.81344251954284" lon="12.568816189929462"><ele>144.66666666666669</ele><time>2026-04-18T14:02:02Z</time></trkpt><trkpt lat="43.813432668007124" lon="12.569080196637016"><ele>144.33333333333334</ele><time>2026-04-18T14:02:03Z</time></trkpt><trkpt lat="43.813409143393315" lon="12.569342440988793"><ele>144.0</ele><time>2026-04-18T14:02:04Z</time></trkpt><trkpt lat="43.81337901667406" lon="12.569607889123592"><ele>145.0</ele><time>2026-04-18T14:02:05Z</time></trkpt><trkpt lat="43.813350720843914" lon="12.56985874882198"><ele>146.0</ele><time>2026-04-18T14:02:06Z</time></trkpt><trkpt lat="43.81332419741091" lon="12.570093895047258"><ele>147.0</ele><time>2026-04-18T14:02:07Z</time></trkpt><trkpt lat="43.81329838483058" lon="12.57032105136626"><ele>147.25</ele><time>2026-04-18T14:02:07.999Z</time></trkpt><trkpt lat="43.81327280740875" lon="12.570544173625715"><ele>147.5</ele><time>2026-04-18T14:02:08.999Z</time></trkpt><trkpt lat="43.81325043940006" lon="12.57073929905425"><ele>147.75</ele><time>2026-04-18T14:02:09.999Z</time></trkpt><trkpt lat="43.813247035307995" lon="12.570919499395586"><ele>148.0</ele><time>2026-04-18T14:02:10.999Z</time></trkpt><trkpt lat="43.81322671673532" lon="12.571086099405191"><ele>147.8</ele><time>2026-04-18T14:02:11.999Z</time></trkpt><trkpt lat="43.81320777052483" lon="12.571247038466117"><ele>147.60000000000002</ele><time>2026-04-18T14:02:12.999Z</time></trkpt><trkpt lat="43.81316668919198" lon="12.571380535164932"><ele>147.39999999999998</ele><time>2026-04-18T14:02:13.999Z</time></trkpt><trkpt lat="43.81310581918606" lon="12.571493260846896"><ele>147.2</ele><time>2026-04-18T14:02:14.999Z</time></trkpt><trkpt lat="43.81302882120335" lon="12.571584469322161"><ele>147.0</ele><time>2026-04-18T14:02:15.999Z</time></trkpt><trkpt lat="43.81291568631326" lon="12.571572315082255"><ele>147.0</ele><time>2026-04-18T14:02:16.999Z</time></trkpt><trkpt lat="43.81283969566773" lon="12.571645274632576"><ele>147.0</ele><time>2026-04-18T14:02:17.999Z</time></trkpt><trkpt lat="43.81300146579829" lon="12.571920156014942"><ele>147.0</ele><time>2026-04-18T14:02:18.999Z</time></trkpt><trkpt lat="43.81305911618156" lon="12.57201550750803"><ele>147.0</ele><time>2026-04-18T14:02:19.999Z</time></trkpt><trkpt lat="43.81314295441121" lon="12.572092467239475"><ele>146.25</ele><time>2026-04-18T14:02:20.999Z</time></trkpt><trkpt lat="43.813242951495944" lon="12.572149756342498"><ele>145.5</ele><time>2026-04-18T14:02:21.999Z</time></trkpt><trkpt lat="43.813271056705645" lon="12.572354385173787"><ele>144.75</ele><time>2026-04-18T14:02:22.999Z</time></trkpt><trkpt lat="43.81331219571516" lon="12.572548605607734"><ele>144.0</ele><time>2026-04-18T14:02:23.999Z</time></trkpt><trkpt lat="43.81337155940325" lon="12.572754462556295"><ele>143.0</ele><time>2026-04-18T14:02:24.999Z</time></trkpt><trkpt lat="43.813409130194636" lon="12.572973001112224"><ele>142.0</ele><time>2026-04-18T14:02:25.999Z</time></trkpt><trkpt lat="43.81346032065173" lon="12.573212285293799"><ele>141.0</ele><time>2026-04-18T14:02:26.999Z</time></trkpt><trkpt lat="43.81350935715958" lon="12.573446363872954"><ele>145.66666666666666</ele><time>2026-04-18T14:02:27.999Z</time></trkpt><trkpt lat="43.81356266835761" lon="12.57368273262616"><ele>150.33333333333331</ele><time>2026-04-18T14:02:28.999Z</time></trkpt><trkpt lat="43.8136165597905" lon="12.573934643792382"><ele>155.0</ele><time>2026-04-18T14:02:29.999Z</time></trkpt><trkpt lat="43.81367454178114" lon="12.574194192326424"><ele>155.0</ele><time>2026-04-18T14:02:30.999Z</time></trkpt><trkpt lat="43.813727012554175" lon="12.574455248677264"><ele>155.0</ele><time>2026-04-18T14:02:31.999Z</time></trkpt><trkpt lat="43.81377907667" lon="12.574700920276195"><ele>155.0</ele><time>2026-04-18T14:02:32.999Z</time></trkpt><trkpt lat="43.81383383774683" lon="12.574947894764453"><ele>155.0</ele><time>2026-04-18T14:02:33.999Z</time></trkpt><trkpt lat="43.81388983921641" lon="12.575196428360005"><ele>155.0</ele><time>2026-04-18T14:02:34.999Z</time></trkpt><trkpt lat="43.813940019785434" lon="12.5754383767053"><ele>155.0</ele><time>2026-04-18T14:02:35.999Z</time></trkpt><trkpt lat="43.81399333834229" lon="12.575695260841668"><ele>155.0</ele><time>2026-04-18T14:02:36.999Z</time></trkpt><trkpt lat="43.81404521075558" lon="12.575950361796528"><ele>155.0</ele><time>2026-04-18T14:02:37.999Z</time></trkpt><trkpt lat="43.81410298660736" lon="12.576211933232418"><ele>155.0</ele><time>2026-04-18T14:02:38.999Z</time></trkpt><trkpt lat="43.81414408280004" lon="12.576477863652146"><ele>154.33333333333331</ele><time>2026-04-18T14:02:39.999Z</time></trkpt><trkpt lat="43.81421306749483" lon="12.576740095020256"><ele>153.66666666666666</ele><time>2026-04-18T14:02:40.999Z</time></trkpt><trkpt lat="43.81426772022033" lon="12.577000052702449"><ele>153.0</ele><time>2026-04-18T14:02:41.999Z</time></trkpt><trkpt lat="43.81432029639564" lon="12.57725844985634"><ele>157.33333333333334</ele><time>2026-04-18T14:02:42.999Z</time></trkpt><trkpt lat="43.81437539418847" lon="12.577512537913009"><ele>161.66666666666669</ele><time>2026-04-18T14:02:43.999Z</time></trkpt><trkpt lat="43.81443052849174" lon="12.577767643755074"><ele>166.0</ele><time>2026-04-18T14:02:44.999Z</time></trkpt><trkpt lat="43.81448256376314" lon="12.57802034660287"><ele>166.0</ele><time>2026-04-18T14:02:45.999Z</time></trkpt><trkpt lat="43.81453599087814" lon="12.578266549550627"><ele>166.0</ele><time>2026-04-18T14:02:47Z</time></trkpt><trkpt lat="43.81458523179478" lon="12.578501291520556"><ele>166.0</ele><time>2026-04-18T14:02:48Z</time></trkpt><trkpt lat="43.81463424429096" lon="12.578722530861594"><ele>165.66666666666669</ele><time>2026-04-18T14:02:49Z</time></trkpt><trkpt lat="43.814680652924565" lon="12.578937814111564"><ele>165.33333333333334</ele><time>2026-04-18T14:02:50Z</time></trkpt><trkpt lat="43.814716382201176" lon="12.579143148746425"><ele>165.0</ele><time>2026-04-18T14:02:51Z</time></trkpt><trkpt lat="43.8147155923945" lon="12.579351591869829"><ele>164.75</ele><time>2026-04-18T14:02:52Z</time></trkpt><trkpt lat="43.81470452983188" lon="12.579559355571549"><ele>164.5</ele><time>2026-04-18T14:02:53Z</time></trkpt><trkpt lat="43.81467226175955" lon="12.579761349279929"><ele>164.25</ele><time>2026-04-18T14:02:54Z</time></trkpt><trkpt lat="43.81465362950234" lon="12.579958022556621"><ele>164.0</ele><time>2026-04-18T14:02:55Z</time></trkpt><trkpt lat="43.81463524386307" lon="12.58015670936072"><ele>164.33333333333331</ele><time>2026-04-18T14:02:56Z</time></trkpt><trkpt lat="43.814643307118274" lon="12.580364032226065"><ele>164.66666666666666</ele><time>2026-04-18T14:02:57Z</time></trkpt><trkpt lat="43.81466359324909" lon="12.580574368962198"><ele>165.0</ele><time>2026-04-18T14:02:58Z</time></trkpt><trkpt lat="43.81469063404897" lon="12.580782763748653"><ele>165.0</ele><time>2026-04-18T14:02:59Z</time></trkpt><trkpt lat="43.814717178736466" lon="12.58099736734992"><ele>165.0</ele><time>2026-04-18T14:03:00Z</time></trkpt><trkpt lat="43.814743651183306" lon="12.58120492231145"><ele>165.0</ele><time>2026-04-18T14:03:01Z</time></trkpt><trkpt lat="43.814783679265176" lon="12.581406325588933"><ele>164.25</ele><time>2026-04-18T14:03:02Z</time></trkpt><trkpt lat="43.814829671258416" lon="12.581598893459441"><ele>163.5</ele><time>2026-04-18T14:03:03Z</time></trkpt><trkpt lat="43.81487861686347" lon="12.581789776455752"><ele>162.75</ele><time>2026-04-18T14:03:04Z</time></trkpt><trkpt lat="43.814932583217484" lon="12.581973464337047"><ele>162.0</ele><time>2026-04-18T14:03:05Z</time></trkpt><trkpt lat="43.814986707935404" lon="12.582157929080088"><ele>162.0</ele><time>2026-04-18T14:03:06Z</time></trkpt><trkpt lat="43.815043646626364" lon="12.582343231554047"><ele>162.0</ele><time>2026-04-18T14:03:07Z</time></trkpt><trkpt lat="43.81509781929546" lon="12.58252328987985"><ele>162.0</ele><time>2026-04-18T14:03:08Z</time></trkpt><trkpt lat="43.815152447982115" lon="12.582708714487172"><ele>162.0</ele><time>2026-04-18T14:03:09Z</time></trkpt><trkpt lat="43.81520543180952" lon="12.582888845043858"><ele>163.25</ele><time>2026-04-18T14:03:10Z</time></trkpt><trkpt lat="43.81525745512214" lon="12.583070549505695"><ele>164.5</ele><time>2026-04-18T14:03:11Z</time></trkpt><trkpt lat="43.81531091861051" lon="12.583256404720519"><ele>165.75</ele><time>2026-04-18T14:03:12Z</time></trkpt><trkpt lat="43.81536760675375" lon="12.583445464827506"><ele>167.0</ele><time>2026-04-18T14:03:13Z</time></trkpt><trkpt lat="43.815422064401595" lon="12.583642240694235"><ele>165.66666666666666</ele><time>2026-04-18T14:03:14Z</time></trkpt><trkpt lat="43.815482938626936" lon="12.583836536660588"><ele>164.33333333333334</ele><time>2026-04-18T14:03:15Z</time></trkpt><trkpt lat="43.81554875996693" lon="12.584028461192416"><ele>163.0</ele><time>2026-04-18T14:03:16Z</time></trkpt><trkpt lat="43.81561948266684" lon="12.584210058775023"><ele>163.0</ele><time>2026-04-18T14:03:17Z</time></trkpt><trkpt lat="43.815691548583416" lon="12.584376274424278"><ele>163.0</ele><time>2026-04-18T14:03:18Z</time></trkpt><trkpt lat="43.815757362216814" lon="12.5845295524344"><ele>163.0</ele><time>2026-04-18T14:03:19Z</time></trkpt><trkpt lat="43.81581663561894" lon="12.584657669574705"><ele>163.0</ele><time>2026-04-18T14:03:20Z</time></trkpt><trkpt lat="43.81586581491569" lon="12.584771010553071"><ele>162.5</ele><time>2026-04-18T14:03:21Z</time></trkpt><trkpt lat="43.81590027895845" lon="12.584863300818334"><ele>162.0</ele><time>2026-04-18T14:03:22Z</time></trkpt><trkpt lat="43.815925598432216" lon="12.584971641836763"><ele>161.5</ele><time>2026-04-18T14:03:24Z</time></trkpt><trkpt lat="43.81596773071142" lon="12.585052434962407"><ele>161.0</ele><time>2026-04-18T14:03:27Z</time></trkpt><trkpt lat="43.8160466698035" lon="12.584979215893625"><ele>160.5</ele><time>2026-04-18T14:03:30Z</time></trkpt><trkpt lat="43.81604273212322" lon="12.584888825839563"><ele>160.0</ele><time>2026-04-18T14:03:31Z</time></trkpt><trkpt lat="43.81601436053638" lon="12.58478033147186"><ele>160.0</ele><time>2026-04-18T14:03:32Z</time></trkpt><trkpt lat="43.81597517623822" lon="12.584663065611801"><ele>160.0</ele><time>2026-04-18T14:03:33Z</time></trkpt><trkpt lat="43.81593645672819" lon="12.584538580015737"><ele>160.0</ele><time>2026-04-18T14:03:34Z</time></trkpt><trkpt lat="43.81589399444198" lon="12.584411243265622"><ele>160.0</ele><time>2026-04-18T14:03:35Z</time></trkpt><trkpt lat="43.81585193416674" lon="12.584259334161557"><ele>160.0</ele><time>2026-04-18T14:03:36Z</time></trkpt><trkpt lat="43.81581080124596" lon="12.584094777016373"><ele>160.75</ele><time>2026-04-18T14:03:37Z</time></trkpt><trkpt lat="43.815777653976895" lon="12.58393697179973"><ele>161.5</ele><time>2026-04-18T14:03:38Z</time></trkpt><trkpt lat="43.8157600623809" lon="12.583769800801269"><ele>162.25</ele><time>2026-04-18T14:03:39Z</time></trkpt><trkpt lat="43.815750451085236" lon="12.583579532013603"><ele>163.0</ele><time>2026-04-18T14:03:40Z</time></trkpt><trkpt lat="43.815746376119826" lon="12.583372299243294"><ele>164.0</ele><time>2026-04-18T14:03:41Z</time></trkpt><trkpt lat="43.81575126566519" lon="12.583165050065631"><ele>165.0</ele><time>2026-04-18T14:03:42Z</time></trkpt><trkpt lat="43.815747785880575" lon="12.582972801844726"><ele>166.0</ele><time>2026-04-18T14:03:43Z</time></trkpt><trkpt lat="43.815747864715895" lon="12.582806972609239"><ele>167.0</ele><time>2026-04-18T14:03:44Z</time></trkpt><trkpt lat="43.815745506634784" lon="12.582651345686363"><ele>167.8</ele><time>2026-04-18T14:03:45Z</time></trkpt><trkpt lat="43.815743157171184" lon="12.582515346026799"><ele>168.6</ele><time>2026-04-18T14:03:46Z</time></trkpt><trkpt lat="43.81574863923082" lon="12.582393057949366"><ele>169.4</ele><time>2026-04-18T14:03:47Z</time></trkpt><trkpt lat="43.81577175538054" lon="12.58228185483229"><ele>170.20000000000002</ele><time>2026-04-18T14:03:48Z</time></trkpt><trkpt lat="43.81582072340742" lon="12.582184596677237"><ele>171.0</ele><time>2026-04-18T14:03:49Z</time></trkpt><trkpt lat="43.81590897489212" lon="12.582126552073062"><ele>175.0</ele><time>2026-04-18T14:03:50Z</time></trkpt><trkpt lat="43.81600730390548" lon="12.582121315179204"><ele>179.0</ele><time>2026-04-18T14:03:51Z</time></trkpt><trkpt lat="43.81610471236545" lon="12.582180655239592"><ele>183.0</ele><time>2026-04-18T14:03:52Z</time></trkpt><trkpt lat="43.816167571716925" lon="12.582319962052335"><ele>187.0</ele><time>2026-04-18T14:03:53Z</time></trkpt><trkpt lat="43.81620651619486" lon="12.582463912319099"><ele>191.0</ele><time>2026-04-18T14:03:54Z</time></trkpt><trkpt lat="43.816251549081535" lon="12.582625270868938"><ele>191.0</ele><time>2026-04-18T14:03:55Z</time></trkpt><trkpt lat="43.81630759950796" lon="12.582795799738513"><ele>191.0</ele><time>2026-04-18T14:03:56Z</time></trkpt><trkpt lat="43.81635701931127" lon="12.582982476332472"><ele>191.0</ele><time>2026-04-18T14:03:57Z</time></trkpt><trkpt lat="43.816414974084765" lon="12.58317554337297"><ele>191.0</ele><time>2026-04-18T14:03:58Z</time></trkpt><trkpt lat="43.816471253617955" lon="12.583360494922676"><ele>190.25</ele><time>2026-04-18T14:03:59Z</time></trkpt><trkpt lat="43.81652560466948" lon="12.583550844027044"><ele>189.5</ele><time>2026-04-18T14:04:00Z</time></trkpt><trkpt lat="43.81657903449378" lon="12.583771456225042"><ele>188.75</ele><time>2026-04-18T14:04:01Z</time></trkpt><trkpt lat="43.81663716416793" lon="12.5839373596072"><ele>188.0</ele><time>2026-04-18T14:04:02Z</time></trkpt><trkpt lat="43.81669256199523" lon="12.584123993065706"><ele>187.25</ele><time>2026-04-18T14:04:03Z</time></trkpt><trkpt lat="43.81674346635942" lon="12.584309381946394"><ele>186.5</ele><time>2026-04-18T14:04:04Z</time></trkpt><trkpt lat="43.816790726711936" lon="12.584491477762956"><ele>185.75</ele><time>2026-04-18T14:04:05Z</time></trkpt><trkpt lat="43.81683560720295" lon="12.584656258380909"><ele>185.0</ele><time>2026-04-18T14:04:06Z</time></trkpt><trkpt lat="43.816887589774964" lon="12.58480540661512"><ele>188.25</ele><time>2026-04-18T14:04:07Z</time></trkpt><trkpt lat="43.816959527872385" lon="12.584939745317241"><ele>191.5</ele><time>2026-04-18T14:04:08Z</time></trkpt><trkpt lat="43.81706221413256" lon="12.585052249333877"><ele>194.75</ele><time>2026-04-18T14:04:09Z</time></trkpt><trkpt lat="43.81718959516873" lon="12.58515152429238"><ele>198.0</ele><time>2026-04-18T14:04:10Z</time></trkpt><trkpt lat="43.81731945411757" lon="12.585253238801224"><ele>197.5</ele><time>2026-04-18T14:04:11Z</time></trkpt><trkpt lat="43.817447650920634" lon="12.585356663951444"><ele>197.0</ele><time>2026-04-18T14:04:12Z</time></trkpt><trkpt lat="43.81756683459867" lon="12.585458713188354"><ele>196.5</ele><time>2026-04-18T14:04:13Z</time></trkpt><trkpt lat="43.817681712237885" lon="12.585561499638489"><ele>196.0</ele><time>2026-04-18T14:04:14Z</time></trkpt><trkpt lat="43.81779280523773" lon="12.585662959775485"><ele>196.0</ele><time>2026-04-18T14:04:15Z</time></trkpt><trkpt lat="43.817904629021534" lon="12.585760738896864"><ele>196.0</ele><time>2026-04-18T14:04:16Z</time></trkpt><trkpt lat="43.81800888239337" lon="12.585850780894225"><ele>196.0</ele><time>2026-04-18T14:04:17Z</time></trkpt><trkpt lat="43.818103403163434" lon="12.58593407963524"><ele>196.0</ele><time>2026-04-18T14:04:18Z</time></trkpt><trkpt lat="43.81818893076839" lon="12.586003893364854"><ele>196.0</ele><time>2026-04-18T14:04:19Z</time></trkpt><trkpt lat="43.8182748065056" lon="12.586046214261552"><ele>196.0</ele><time>2026-04-18T14:04:20Z</time></trkpt><trkpt lat="43.81837252339947" lon="12.586047800083143"><ele>196.0</ele><time>2026-04-18T14:04:21Z</time></trkpt><trkpt lat="43.818466598937135" lon="12.586000317721087"><ele>196.0</ele><time>2026-04-18T14:04:22Z</time></trkpt><trkpt lat="43.8185449947861" lon="12.585905170687926"><ele>196.0</ele><time>2026-04-18T14:04:23Z</time></trkpt><trkpt lat="43.8185967372238" lon="12.585770951838686"><ele>196.5</ele><time>2026-04-18T14:04:24Z</time></trkpt><trkpt lat="43.818624249948954" lon="12.585604281118819"><ele>197.0</ele><time>2026-04-18T14:04:25Z</time></trkpt><trkpt lat="43.818635577078716" lon="12.585410799913566"><ele>197.5</ele><time>2026-04-18T14:04:26Z</time></trkpt><trkpt lat="43.8186456649337" lon="12.585200896182023"><ele>198.0</ele><time>2026-04-18T14:04:27Z</time></trkpt><trkpt lat="43.81866834603189" lon="12.58497971922886"><ele>198.0</ele><time>2026-04-18T14:04:28Z</time></trkpt><trkpt lat="43.818694245040604" lon="12.584755360895247"><ele>198.0</ele><time>2026-04-18T14:04:29Z</time></trkpt><trkpt lat="43.818710406846954" lon="12.584535890246919"><ele>198.0</ele><time>2026-04-18T14:04:30Z</time></trkpt><trkpt lat="43.81873313208376" lon="12.584334930392151"><ele>199.5</ele><time>2026-04-18T14:04:31Z</time></trkpt><trkpt lat="43.81876198773399" lon="12.584149628656828"><ele>201.0</ele><time>2026-04-18T14:04:32Z</time></trkpt><trkpt lat="43.818830440153306" lon="12.583987585469469"><ele>202.5</ele><time>2026-04-18T14:04:33Z</time></trkpt><trkpt lat="43.8189081480317" lon="12.583834720572428"><ele>204.0</ele><time>2026-04-18T14:04:34Z</time></trkpt><trkpt lat="43.8190142873263" lon="12.58371895799428"><ele>206.25</ele><time>2026-04-18T14:04:35Z</time></trkpt><trkpt lat="43.819133821794125" lon="12.58361487043996"><ele>208.5</ele><time>2026-04-18T14:04:36Z</time></trkpt><trkpt lat="43.81925340458972" lon="12.583503671028824"><ele>210.75</ele><time>2026-04-18T14:04:37Z</time></trkpt><trkpt lat="43.819385600069275" lon="12.583426782567262"><ele>213.0</ele><time>2026-04-18T14:04:38Z</time></trkpt><trkpt lat="43.81951096260837" lon="12.583360652672134"><ele>213.75</ele><time>2026-04-18T14:04:39Z</time></trkpt><trkpt lat="43.81963406929222" lon="12.583319238537824"><ele>214.5</ele><time>2026-04-18T14:04:40Z</time></trkpt><trkpt lat="43.81975836384635" lon="12.583353511202766"><ele>215.25</ele><time>2026-04-18T14:04:41Z</time></trkpt><trkpt lat="43.819892275432245" lon="12.58338903019664"><ele>216.0</ele><time>2026-04-18T14:04:42Z</time></trkpt><trkpt lat="43.82002960258749" lon="12.58342590001598"><ele>219.25</ele><time>2026-04-18T14:04:43Z</time></trkpt><trkpt lat="43.820166752596194" lon="12.583476917179416"><ele>222.5</ele><time>2026-04-18T14:04:44Z</time></trkpt><trkpt lat="43.82030139445463" lon="12.58351986800191"><ele>225.75</ele><time>2026-04-18T14:04:45Z</time></trkpt><trkpt lat="43.82042222621024" lon="12.583559181659812"><ele>229.0</ele><time>2026-04-18T14:04:46Z</time></trkpt><trkpt lat="43.820526461337394" lon="12.58362396987323"><ele>227.25</ele><time>2026-04-18T14:04:47Z</time></trkpt><trkpt lat="43.82058443254433" lon="12.5837505620861"><ele>225.5</ele><time>2026-04-18T14:04:48Z</time></trkpt><trkpt lat="43.82063504212508" lon="12.583883612795123"><ele>223.75</ele><time>2026-04-18T14:04:49Z</time></trkpt><trkpt lat="43.82065751045966" lon="12.58403789776502"><ele>222.0</ele><time>2026-04-18T14:04:50Z</time></trkpt><trkpt lat="43.82069074151317" lon="12.58420549684316"><ele>222.0</ele><time>2026-04-18T14:04:51Z</time></trkpt><trkpt lat="43.82070194701792" lon="12.584380028106107"><ele>222.0</ele><time>2026-04-18T14:04:52Z</time></trkpt><trkpt lat="43.820720644255545" lon="12.584538316283288"><ele>222.0</ele><time>2026-04-18T14:04:53.001Z</time></trkpt><trkpt lat="43.820748395484756" lon="12.584666211179488"><ele>222.0</ele><time>2026-04-18T14:04:54.001Z</time></trkpt><trkpt lat="43.82078085728846" lon="12.584764899588103"><ele>222.0</ele><time>2026-04-18T14:04:55.001Z</time></trkpt><trkpt lat="43.820824901166226" lon="12.5848337315446"><ele>221.6</ele><time>2026-04-18T14:04:56.001Z</time></trkpt><trkpt lat="43.8209521084904" lon="12.584878388001648"><ele>221.2</ele><time>2026-04-18T14:04:58.001Z</time></trkpt><trkpt lat="43.82102890746304" lon="12.584836226404521"><ele>220.8</ele><time>2026-04-18T14:04:59.001Z</time></trkpt><trkpt lat="43.821091607296005" lon="12.584745735418442"><ele>220.4</ele><time>2026-04-18T14:05:00.001Z</time></trkpt><trkpt lat="43.82111873301446" lon="12.584618060363775"><ele>220.0</ele><time>2026-04-18T14:05:01.001Z</time></trkpt><trkpt lat="43.82110949962894" lon="12.584466513171021"><ele>225.25</ele><time>2026-04-18T14:05:02.001Z</time></trkpt><trkpt lat="43.821080840972364" lon="12.584297603864158"><ele>230.5</ele><time>2026-04-18T14:05:03.001Z</time></trkpt><trkpt lat="43.82105419988314" lon="12.584110612550468"><ele>235.75</ele><time>2026-04-18T14:05:04.001Z</time></trkpt><trkpt lat="43.82104492772981" lon="12.583912784568211"><ele>241.0</ele><time>2026-04-18T14:05:05.001Z</time></trkpt><trkpt lat="43.82100605923647" lon="12.583723134596658"><ele>241.75</ele><time>2026-04-18T14:05:06.001Z</time></trkpt><trkpt lat="43.820993302989656" lon="12.583518775778584"><ele>242.5</ele><time>2026-04-18T14:05:07.001Z</time></trkpt><trkpt lat="43.82095763030022" lon="12.583323862413963"><ele>243.25</ele><time>2026-04-18T14:05:08.001Z</time></trkpt><trkpt lat="43.820904976436246" lon="12.583126182645838"><ele>244.0</ele><time>2026-04-18T14:05:09.001Z</time></trkpt><trkpt lat="43.82083817684867" lon="12.582923527613133"><ele>243.0</ele><time>2026-04-18T14:05:10.001Z</time></trkpt><trkpt lat="43.82076067166365" lon="12.58271841996198"><ele>242.0</ele><time>2026-04-18T14:05:11.001Z</time></trkpt><trkpt lat="43.82068129164814" lon="12.582510443630955"><ele>241.0</ele><time>2026-04-18T14:05:12.001Z</time></trkpt><trkpt lat="43.82060183955904" lon="12.582298880860922"><ele>241.0</ele><time>2026-04-18T14:05:13.001Z</time></trkpt><trkpt lat="43.82052471621643" lon="12.582085403982195"><ele>241.0</ele><time>2026-04-18T14:05:14.001Z</time></trkpt><trkpt lat="43.8204476262624" lon="12.581871380308547"><ele>241.0</ele><time>2026-04-18T14:05:15Z</time></trkpt><trkpt lat="43.82037421692541" lon="12.581668703926805"><ele>243.66666666666666</ele><time>2026-04-18T14:05:16Z</time></trkpt><trkpt lat="43.82029884801537" lon="12.58146400317188"><ele>246.33333333333331</ele><time>2026-04-18T14:05:17Z</time></trkpt><trkpt lat="43.82022363169302" lon="12.581258798703503"><ele>249.0</ele><time>2026-04-18T14:05:18Z</time></trkpt><trkpt lat="43.82014564260327" lon="12.581055815413094"><ele>249.0</ele><time>2026-04-18T14:05:19Z</time></trkpt><trkpt lat="43.82005769264464" lon="12.580858481575051"><ele>249.0</ele><time>2026-04-18T14:05:20Z</time></trkpt><trkpt lat="43.81995559038417" lon="12.580673904409217"><ele>249.0</ele><time>2026-04-18T14:05:21Z</time></trkpt><trkpt lat="43.81984355004492" lon="12.58050947947311"><ele>249.0</ele><time>2026-04-18T14:05:22Z</time></trkpt><trkpt lat="43.81975107866171" lon="12.580366501030756"><ele>249.0</ele><time>2026-04-18T14:05:23Z</time></trkpt><trkpt lat="43.81965440831878" lon="12.580253358234977"><ele>249.0</ele><time>2026-04-18T14:05:24Z</time></trkpt><trkpt lat="43.81954992828559" lon="12.5801701789442"><ele>249.0</ele><time>2026-04-18T14:05:25Z</time></trkpt><trkpt lat="43.81943316557157" lon="12.580123039899249"><ele>251.75</ele><time>2026-04-18T14:05:26Z</time></trkpt><trkpt lat="43.819307854335705" lon="12.580124598784357"><ele>254.5</ele><time>2026-04-18T14:05:27Z</time></trkpt><trkpt lat="43.819186230137554" lon="12.580150173407533"><ele>257.25</ele><time>2026-04-18T14:05:28Z</time></trkpt><trkpt lat="43.819070801718745" lon="12.5801993995011"><ele>260.0</ele><time>2026-04-18T14:05:29Z</time></trkpt><trkpt lat="43.81894542658527" lon="12.580204166874404"><ele>260.0</ele><time>2026-04-18T14:05:30Z</time></trkpt><trkpt lat="43.818823640637895" lon="12.580206881839159"><ele>260.0</ele><time>2026-04-18T14:05:31Z</time></trkpt><trkpt lat="43.818701750026435" lon="12.580174732223636"><ele>260.0</ele><time>2026-04-18T14:05:32Z</time></trkpt><trkpt lat="43.81858877123652" lon="12.580105191256344"><ele>260.0</ele><time>2026-04-18T14:05:33Z</time></trkpt><trkpt lat="43.81849723472325" lon="12.579992130091354"><ele>260.5</ele><time>2026-04-18T14:05:34Z</time></trkpt><trkpt lat="43.818426195391694" lon="12.579852438543078"><ele>261.0</ele><time>2026-04-18T14:05:35Z</time></trkpt><trkpt lat="43.81838049338779" lon="12.579695109584627"><ele>261.5</ele><time>2026-04-18T14:05:36Z</time></trkpt><trkpt lat="43.81836111265565" lon="12.57951929677814"><ele>262.0</ele><time>2026-04-18T14:05:37Z</time></trkpt><trkpt lat="43.81836472359114" lon="12.57933625965124"><ele>262.0</ele><time>2026-04-18T14:05:38Z</time></trkpt><trkpt lat="43.818364292849424" lon="12.579145825573965"><ele>262.0</ele><time>2026-04-18T14:05:39Z</time></trkpt><trkpt lat="43.81838110034521" lon="12.578952341541573"><ele>262.0</ele><time>2026-04-18T14:05:40Z</time></trkpt><trkpt lat="43.81839538847463" lon="12.5787527808794"><ele>262.0</ele><time>2026-04-18T14:05:41Z</time></trkpt><trkpt lat="43.81841084607905" lon="12.578550234215017"><ele>262.75</ele><time>2026-04-18T14:05:42Z</time></trkpt><trkpt lat="43.818425864784324" lon="12.578349380447476"><ele>263.5</ele><time>2026-04-18T14:05:43Z</time></trkpt><trkpt lat="43.818437443362626" lon="12.578160436142122"><ele>264.25</ele><time>2026-04-18T14:05:44Z</time></trkpt><trkpt lat="43.81845415824855" lon="12.577986948152605"><ele>265.0</ele><time>2026-04-18T14:05:45Z</time></trkpt><trkpt lat="43.81850679051567" lon="12.57783002467184"><ele>271.0</ele><time>2026-04-18T14:05:46Z</time></trkpt><trkpt lat="43.81857282384139" lon="12.577668791781305"><ele>277.0</ele><time>2026-04-18T14:05:47Z</time></trkpt><trkpt lat="43.81863739475022" lon="12.577495468642136"><ele>283.0</ele><time>2026-04-18T14:05:48Z</time></trkpt><trkpt lat="43.818714542916794" lon="12.577328607356113"><ele>289.0</ele><time>2026-04-18T14:05:49Z</time></trkpt><trkpt lat="43.81879128289047" lon="12.577159022567443"><ele>288.0</ele><time>2026-04-18T14:05:50Z</time></trkpt><trkpt lat="43.81886661318114" lon="12.576989015833728"><ele>287.0</ele><time>2026-04-18T14:05:51Z</time></trkpt><trkpt lat="43.81894541743131" lon="12.576820231358706"><ele>286.0</ele><time>2026-04-18T14:05:52Z</time></trkpt><trkpt lat="43.81902668533273" lon="12.576650219005522"><ele>285.0</ele><time>2026-04-18T14:05:53Z</time></trkpt><trkpt lat="43.819107877245486" lon="12.57647651660248"><ele>285.0</ele><time>2026-04-18T14:05:54Z</time></trkpt><trkpt lat="43.8191878795561" lon="12.57630253561773"><ele>285.0</ele><time>2026-04-18T14:05:55Z</time></trkpt><trkpt lat="43.81926166474816" lon="12.576130993176971"><ele>285.0</ele><time>2026-04-18T14:05:56Z</time></trkpt><trkpt lat="43.81931328431225" lon="12.57595998710092"><ele>285.0</ele><time>2026-04-18T14:05:57Z</time></trkpt><trkpt lat="43.8193350829797" lon="12.575796270329718"><ele>289.0</ele><time>2026-04-18T14:05:58Z</time></trkpt><trkpt lat="43.81933222862137" lon="12.575645382193347"><ele>293.0</ele><time>2026-04-18T14:05:59Z</time></trkpt><trkpt lat="43.81931776087484" lon="12.57551074436851"><ele>297.0</ele><time>2026-04-18T14:06:00Z</time></trkpt><trkpt lat="43.81933985749412" lon="12.575393037924387"><ele>301.0</ele><time>2026-04-18T14:06:01Z</time></trkpt><trkpt lat="43.81936633081342" lon="12.575293531617596"><ele>305.0</ele><time>2026-04-18T14:06:02Z</time></trkpt><trkpt lat="43.819423878496146" lon="12.575220900403215"><ele>309.0</ele><time>2026-04-18T14:06:03Z</time></trkpt><trkpt lat="43.819520737422394" lon="12.57521058864305"><ele>309.0</ele><time>2026-04-18T14:06:04Z</time></trkpt><trkpt lat="43.81960999517926" lon="12.575265780830735"><ele>309.0</ele><time>2026-04-18T14:06:05Z</time></trkpt><trkpt lat="43.819669215990814" lon="12.575380555604248"><ele>309.0</ele><time>2026-04-18T14:06:06Z</time></trkpt><trkpt lat="43.81970103096062" lon="12.57552165934102"><ele>309.0</ele><time>2026-04-18T14:06:07Z</time></trkpt><trkpt lat="43.819728816827585" lon="12.575675783541344"><ele>309.0</ele><time>2026-04-18T14:06:08Z</time></trkpt><trkpt lat="43.819762388764495" lon="12.575844060717284"><ele>309.0</ele><time>2026-04-18T14:06:09Z</time></trkpt><trkpt lat="43.819785652274334" lon="12.576025264137371"><ele>309.0</ele><time>2026-04-18T14:06:10Z</time></trkpt><trkpt lat="43.81978665926791" lon="12.576210157350472"><ele>309.0</ele><time>2026-04-18T14:06:11Z</time></trkpt><trkpt lat="43.8197505310872" lon="12.576387337616557"><ele>309.0</ele><time>2026-04-18T14:06:12Z</time></trkpt><trkpt lat="43.81973176824632" lon="12.576568181187357"><ele>309.5</ele><time>2026-04-18T14:06:13Z</time></trkpt><trkpt lat="43.819683740653524" lon="12.576738492588278"><ele>310.0</ele><time>2026-04-18T14:06:14Z</time></trkpt><trkpt lat="43.81964275859158" lon="12.576901631873698"><ele>310.5</ele><time>2026-04-18T14:06:15Z</time></trkpt><trkpt lat="43.81960991418577" lon="12.577049791805077"><ele>311.0</ele><time>2026-04-18T14:06:16Z</time></trkpt><trkpt lat="43.8195872913646" lon="12.577178541531728"><ele>311.0</ele><time>2026-04-18T14:06:17Z</time></trkpt><trkpt lat="43.81958341725875" lon="12.577299095351938"><ele>311.0</ele><time>2026-04-18T14:06:18Z</time></trkpt><trkpt lat="43.8196021737933" lon="12.57742704342575"><ele>311.0</ele><time>2026-04-18T14:06:19Z</time></trkpt><trkpt lat="43.81964577178482" lon="12.577556797347794"><ele>311.0</ele><time>2026-04-18T14:06:20Z</time></trkpt><trkpt lat="43.819724985179825" lon="12.577671265864083"><ele>311.0</ele><time>2026-04-18T14:06:21Z</time></trkpt><trkpt lat="43.81982193267274" lon="12.577741679506563"><ele>311.0</ele><time>2026-04-18T14:06:22Z</time></trkpt><trkpt lat="43.8199266054941" lon="12.577767848996977"><ele>311.0</ele><time>2026-04-18T14:06:23Z</time></trkpt><trkpt lat="43.82003158634432" lon="12.577756359712577"><ele>311.0</ele><time>2026-04-18T14:06:23.999Z</time></trkpt><trkpt lat="43.8201349360258" lon="12.577718336359949"><ele>311.0</ele><time>2026-04-18T14:06:24.999Z</time></trkpt><trkpt lat="43.82022625799964" lon="12.577632297388158"><ele>311.0</ele><time>2026-04-18T14:06:25.999Z</time></trkpt><trkpt lat="43.820291544518454" lon="12.57750077059368"><ele>311.25</ele><time>2026-04-18T14:06:26.999Z</time></trkpt><trkpt lat="43.820339599944866" lon="12.577342659903422"><ele>311.5</ele><time>2026-04-18T14:06:27.999Z</time></trkpt><trkpt lat="43.82037586218685" lon="12.577171128184293"><ele>311.75</ele><time>2026-04-18T14:06:28.999Z</time></trkpt><trkpt lat="43.82041173116451" lon="12.57698817436497"><ele>312.0</ele><time>2026-04-18T14:06:29.999Z</time></trkpt><trkpt lat="43.82044713556803" lon="12.576792738581165"><ele>312.0</ele><time>2026-04-18T14:06:30.999Z</time></trkpt><trkpt lat="43.820490855418136" lon="12.576604926702084"><ele>312.0</ele><time>2026-04-18T14:06:31.999Z</time></trkpt><trkpt lat="43.820532854530875" lon="12.576423115320484"><ele>312.0</ele><time>2026-04-18T14:06:32.999Z</time></trkpt><trkpt lat="43.82057489754923" lon="12.576243494281904"><ele>312.0</ele><time>2026-04-18T14:06:33.999Z</time></trkpt><trkpt lat="43.82060992738042" lon="12.576064448098576"><ele>313.5</ele><time>2026-04-18T14:06:34.999Z</time></trkpt><trkpt lat="43.820646909550845" lon="12.575892828014707"><ele>315.0</ele><time>2026-04-18T14:06:35.999Z</time></trkpt><trkpt lat="43.8206845717668" lon="12.575725466926727"><ele>316.5</ele><time>2026-04-18T14:06:36.999Z</time></trkpt><trkpt lat="43.820718194772" lon="12.575562016053752"><ele>318.0</ele><time>2026-04-18T14:06:37.999Z</time></trkpt><trkpt lat="43.820739003673495" lon="12.575407577847436"><ele>319.4</ele><time>2026-04-18T14:06:38.999Z</time></trkpt><trkpt lat="43.82074227755359" lon="12.57526176700314"><ele>320.8</ele><time>2026-04-18T14:06:39.999Z</time></trkpt><trkpt lat="43.82071872679649" lon="12.575120683209066"><ele>322.2</ele><time>2026-04-18T14:06:40.999Z</time></trkpt><trkpt lat="43.82066293954869" lon="12.574985531465732"><ele>323.6</ele><time>2026-04-18T14:06:41.999Z</time></trkpt><trkpt lat="43.82058380545953" lon="12.574856763950862"><ele>325.0</ele><time>2026-04-18T14:06:42.999Z</time></trkpt><trkpt lat="43.82049455567795" lon="12.574731416745939"><ele>325.0</ele><time>2026-04-18T14:06:43.999Z</time></trkpt><trkpt lat="43.82041105771553" lon="12.574602540753801"><ele>325.0</ele><time>2026-04-18T14:06:44.999Z</time></trkpt><trkpt lat="43.820341512042" lon="12.574468166734526"><ele>325.0</ele><time>2026-04-18T14:06:45.999Z</time></trkpt><trkpt lat="43.820303916894375" lon="12.574336689822825"><ele>325.0</ele><time>2026-04-18T14:06:46.999Z</time></trkpt><trkpt lat="43.820310047479765" lon="12.574209959563063"><ele>325.0</ele><time>2026-04-18T14:06:47.999Z</time></trkpt><trkpt lat="43.82035869528685" lon="12.57409802743076"><ele>327.0</ele><time>2026-04-18T14:06:48.999Z</time></trkpt><trkpt lat="43.82045749610532" lon="12.57405005516084"><ele>329.0</ele><time>2026-04-18T14:06:49.999Z</time></trkpt><trkpt lat="43.82055536165449" lon="12.574017314429513"><ele>331.0</ele><time>2026-04-18T14:06:50.999Z</time></trkpt><trkpt lat="43.820664481319696" lon="12.573960477341663"><ele>333.0</ele><time>2026-04-18T14:06:51.999Z</time></trkpt><trkpt lat="43.82078610698651" lon="12.573945227606231"><ele>335.0</ele><time>2026-04-18T14:06:52.999Z</time></trkpt><trkpt lat="43.820899386001855" lon="12.573933969954648"><ele>335.0</ele><time>2026-04-18T14:06:53.999Z</time></trkpt><trkpt lat="43.820977629859996" lon="12.57386077537195"><ele>335.0</ele><time>2026-04-18T14:06:54.999Z</time></trkpt><trkpt lat="43.82104791429037" lon="12.573803824144198"><ele>335.0</ele><time>2026-04-18T14:06:55.999Z</time></trkpt><trkpt lat="43.82108836161201" lon="12.573709956142965"><ele>335.0</ele><time>2026-04-18T14:06:56.999Z</time></trkpt><trkpt lat="43.82109303371082" lon="12.573592959761507"><ele>335.0</ele><time>2026-04-18T14:06:57.999Z</time></trkpt><trkpt lat="43.821054358368286" lon="12.573480960867956"><ele>335.0</ele><time>2026-04-18T14:06:59Z</time></trkpt><trkpt lat="43.82097229269394" lon="12.573409230017765"><ele>337.0</ele><time>2026-04-18T14:07:00Z</time></trkpt><trkpt lat="43.82087377021409" lon="12.5733952232434"><ele>339.0</ele><time>2026-04-18T14:07:01Z</time></trkpt><trkpt lat="43.82077260773432" lon="12.573440034428646"><ele>341.0</ele><time>2026-04-18T14:07:02Z</time></trkpt><trkpt lat="43.820680406475226" lon="12.573495683799381"><ele>343.0</ele><time>2026-04-18T14:07:03Z</time></trkpt><trkpt lat="43.82059082682216" lon="12.573488979390854"><ele>345.0</ele><time>2026-04-18T14:07:04Z</time></trkpt><trkpt lat="43.82051424486855" lon="12.573415663629273"><ele>345.0</ele><time>2026-04-18T14:07:05Z</time></trkpt><trkpt lat="43.82049195590411" lon="12.573279082475512"><ele>345.0</ele><time>2026-04-18T14:07:06Z</time></trkpt><trkpt lat="43.82051374943775" lon="12.57314718673134"><ele>345.0</ele><time>2026-04-18T14:07:07Z</time></trkpt><trkpt lat="43.820590683060246" lon="12.573067492693275"><ele>345.0</ele><time>2026-04-18T14:07:08Z</time></trkpt><trkpt lat="43.82066965765141" lon="12.572953141217614"><ele>345.0</ele><time>2026-04-18T14:07:09Z</time></trkpt><trkpt lat="43.820757382032376" lon="12.5728380428039"><ele>346.5</ele><time>2026-04-18T14:07:10Z</time></trkpt><trkpt lat="43.82084015965831" lon="12.572729088002065"><ele>348.0</ele><time>2026-04-18T14:07:11Z</time></trkpt><trkpt lat="43.820924832144286" lon="12.57261459233845"><ele>349.5</ele><time>2026-04-18T14:07:12Z</time></trkpt><trkpt lat="43.82101163643252" lon="12.572507125566299"><ele>351.0</ele><time>2026-04-18T14:07:13Z</time></trkpt><trkpt lat="43.821105204998574" lon="12.572398653883806"><ele>351.75</ele><time>2026-04-18T14:07:14Z</time></trkpt><trkpt lat="43.82120811673686" lon="12.572304676949372"><ele>352.5</ele><time>2026-04-18T14:07:15Z</time></trkpt><trkpt lat="43.821319419806656" lon="12.572223164600915"><ele>353.25</ele><time>2026-04-18T14:07:16Z</time></trkpt><trkpt lat="43.82143353273897" lon="12.572119515670583"><ele>354.0</ele><time>2026-04-18T14:07:17Z</time></trkpt><trkpt lat="43.82155658086365" lon="12.572039613086316"><ele>353.25</ele><time>2026-04-18T14:07:18Z</time></trkpt><trkpt lat="43.8216749300697" lon="12.57195626750301"><ele>352.5</ele><time>2026-04-18T14:07:19Z</time></trkpt><trkpt lat="43.821788056645815" lon="12.571882667441626"><ele>351.75</ele><time>2026-04-18T14:07:20Z</time></trkpt><trkpt lat="43.82189639383693" lon="12.571808316205827"><ele>351.0</ele><time>2026-04-18T14:07:21Z</time></trkpt><trkpt lat="43.82199169709739" lon="12.571740266474569"><ele>351.0</ele><time>2026-04-18T14:07:22Z</time></trkpt><trkpt lat="43.822075876095234" lon="12.571671814955977"><ele>351.0</ele><time>2026-04-18T14:07:23Z</time></trkpt><trkpt lat="43.82213902437293" lon="12.57158781754082"><ele>351.0</ele><time>2026-04-18T14:07:24Z</time></trkpt><trkpt lat="43.82217326059463" lon="12.571479510951473"><ele>351.0</ele><time>2026-04-18T14:07:25Z</time></trkpt><trkpt lat="43.82217226387971" lon="12.571349932004637"><ele>351.0</ele><time>2026-04-18T14:07:26Z</time></trkpt><trkpt lat="43.822138682868264" lon="12.571221624269851"><ele>352.0</ele><time>2026-04-18T14:07:27Z</time></trkpt><trkpt lat="43.82207301743408" lon="12.571118547396624"><ele>353.0</ele><time>2026-04-18T14:07:28Z</time></trkpt><trkpt lat="43.82198406615537" lon="12.571058544379378"><ele>354.0</ele><time>2026-04-18T14:07:29Z</time></trkpt><trkpt lat="43.821894479020195" lon="12.571052012344614"><ele>355.0</ele><time>2026-04-18T14:07:30Z</time></trkpt><trkpt lat="43.82180435034534" lon="12.571083987182075"><ele>356.0</ele><time>2026-04-18T14:07:31Z</time></trkpt><trkpt lat="43.8217168427454" lon="12.571139259154707"><ele>357.5</ele><time>2026-04-18T14:07:32Z</time></trkpt><trkpt lat="43.82163104797176" lon="12.57120140082693"><ele>359.0</ele><time>2026-04-18T14:07:33Z</time></trkpt><trkpt lat="43.821546772424924" lon="12.571252808089827"><ele>360.5</ele><time>2026-04-18T14:07:34Z</time></trkpt><trkpt lat="43.82146896255936" lon="12.571275461503864"><ele>362.0</ele><time>2026-04-18T14:07:35Z</time></trkpt><trkpt lat="43.821398724218376" lon="12.571252164570804"><ele>363.5</ele><time>2026-04-18T14:07:36Z</time></trkpt><trkpt lat="43.82134482469971" lon="12.57117630514484"><ele>365.0</ele><time>2026-04-18T14:07:37Z</time></trkpt><trkpt lat="43.821327825248986" lon="12.571065093632042"><ele>366.5</ele><time>2026-04-18T14:07:38Z</time></trkpt><trkpt lat="43.821360845571604" lon="12.570937431531345"><ele>368.0</ele><time>2026-04-18T14:07:39Z</time></trkpt><trkpt lat="43.82136410719468" lon="12.570793158908197"><ele>369.5</ele><time>2026-04-18T14:07:40Z</time></trkpt><trkpt lat="43.82138512645695" lon="12.570629482144446"><ele>371.0</ele><time>2026-04-18T14:07:41Z</time></trkpt><trkpt lat="43.821399592609865" lon="12.570451824151103"><ele>372.75</ele><time>2026-04-18T14:07:42Z</time></trkpt><trkpt lat="43.82141642380622" lon="12.570267010519693"><ele>374.5</ele><time>2026-04-18T14:07:43Z</time></trkpt><trkpt lat="43.821432889896855" lon="12.570085404636457"><ele>376.25</ele><time>2026-04-18T14:07:44Z</time></trkpt><trkpt lat="43.82146557085274" lon="12.569896311328897"><ele>378.0</ele><time>2026-04-18T14:07:45Z</time></trkpt><trkpt lat="43.82147448022822" lon="12.56970230397061"><ele>379.75</ele><time>2026-04-18T14:07:46Z</time></trkpt><trkpt lat="43.82149257795474" lon="12.569512855815116"><ele>381.5</ele><time>2026-04-18T14:07:47Z</time></trkpt><trkpt lat="43.821503772691614" lon="12.56933776694125"><ele>383.25</ele><time>2026-04-18T14:07:48Z</time></trkpt><trkpt lat="43.821524167366476" lon="12.569168796954289"><ele>385.0</ele><time>2026-04-18T14:07:49Z</time></trkpt><trkpt lat="43.82154925060836" lon="12.569000181427903"><ele>385.0</ele><time>2026-04-18T14:07:50Z</time></trkpt><trkpt lat="43.82160380320104" lon="12.56884178097791"><ele>385.0</ele><time>2026-04-18T14:07:51Z</time></trkpt><trkpt lat="43.82166219253845" lon="12.56868404203733"><ele>385.0</ele><time>2026-04-18T14:07:52Z</time></trkpt><trkpt lat="43.82170355942909" lon="12.568508330772021"><ele>385.0</ele><time>2026-04-18T14:07:53Z</time></trkpt><trkpt lat="43.82175630848524" lon="12.568339765204495"><ele>386.25</ele><time>2026-04-18T14:07:54Z</time></trkpt><trkpt lat="43.82180618999382" lon="12.568169160348852"><ele>387.5</ele><time>2026-04-18T14:07:55Z</time></trkpt><trkpt lat="43.82185463421845" lon="12.56799625900144"><ele>388.75</ele><time>2026-04-18T14:07:56Z</time></trkpt><trkpt lat="43.8219031953231" lon="12.567820318192279"><ele>390.0</ele><time>2026-04-18T14:07:57Z</time></trkpt><trkpt lat="43.82196667340569" lon="12.56765006062926"><ele>392.0</ele><time>2026-04-18T14:07:58Z</time></trkpt><trkpt lat="43.82204226971733" lon="12.567479080136259"><ele>394.0</ele><time>2026-04-18T14:07:59Z</time></trkpt><trkpt lat="43.822133517835134" lon="12.56731332004851"><ele>396.0</ele><time>2026-04-18T14:08:00Z</time></trkpt><trkpt lat="43.82222951878521" lon="12.567142107315798"><ele>397.0</ele><time>2026-04-18T14:08:01Z</time></trkpt><trkpt lat="43.82232288896589" lon="12.566971479128334"><ele>398.0</ele><time>2026-04-18T14:08:02Z</time></trkpt><trkpt lat="43.82241470299899" lon="12.566787992205366"><ele>399.0</ele><time>2026-04-18T14:08:03Z</time></trkpt><trkpt lat="43.82250393620738" lon="12.566589942091037"><ele>399.0</ele><time>2026-04-18T14:08:04Z</time></trkpt><trkpt lat="43.8225828312219" lon="12.566375841543355"><ele>399.0</ele><time>2026-04-18T14:08:05Z</time></trkpt><trkpt lat="43.82264877155004" lon="12.566161338853014"><ele>399.0</ele><time>2026-04-18T14:08:06Z</time></trkpt><trkpt lat="43.822719206174185" lon="12.56594712230346"><ele>401.33333333333337</ele><time>2026-04-18T14:08:06.999Z</time></trkpt><trkpt lat="43.822791965329266" lon="12.565727211663452"><ele>403.6666666666667</ele><time>2026-04-18T14:08:07.999Z</time></trkpt><trkpt lat="43.82287015945259" lon="12.565502548878884"><ele>406.0</ele><time>2026-04-18T14:08:08.999Z</time></trkpt><trkpt lat="43.82295072286509" lon="12.565273319121825"><ele>411.0</ele><time>2026-04-18T14:08:09.999Z</time></trkpt><trkpt lat="43.823033064916835" lon="12.56504235222819"><ele>416.0</ele><time>2026-04-18T14:08:10.999Z</time></trkpt><trkpt lat="43.823114622555686" lon="12.564810460880157"><ele>421.0</ele><time>2026-04-18T14:08:11.999Z</time></trkpt><trkpt lat="43.8231980836249" lon="12.56458181727749"><ele>421.6666666666667</ele><time>2026-04-18T14:08:12.999Z</time></trkpt><trkpt lat="43.82327512104421" lon="12.56436742316341"><ele>422.33333333333337</ele><time>2026-04-18T14:08:13.999Z</time></trkpt><trkpt lat="43.82334192396177" lon="12.564180908393032"><ele>423.0</ele><time>2026-04-18T14:08:14.999Z</time></trkpt><trkpt lat="43.8234043368841" lon="12.564019928122773"><ele>423.0</ele><time>2026-04-18T14:08:15.999Z</time></trkpt><trkpt lat="43.823476050172836" lon="12.563891131766528"><ele>423.0</ele><time>2026-04-18T14:08:16.999Z</time></trkpt><trkpt lat="43.82357818761732" lon="12.563824084170388"><ele>423.0</ele><time>2026-04-18T14:08:17.999Z</time></trkpt><trkpt lat="43.82369074626789" lon="12.56379156002631"><ele>423.0</ele><time>2026-04-18T14:08:18.999Z</time></trkpt><trkpt lat="43.82382448364201" lon="12.563752244658886"><ele>425.5</ele><time>2026-04-18T14:08:19.999Z</time></trkpt><trkpt lat="43.82396988392012" lon="12.563733398944569"><ele>428.0</ele><time>2026-04-18T14:08:20.999Z</time></trkpt><trkpt lat="43.824110041048854" lon="12.56370747389212"><ele>430.5</ele><time>2026-04-18T14:08:21.999Z</time></trkpt><trkpt lat="43.82424353187147" lon="12.563675971354456"><ele>433.0</ele><time>2026-04-18T14:08:22.999Z</time></trkpt><trkpt lat="43.82436919028442" lon="12.56363770342933"><ele>434.75</ele><time>2026-04-18T14:08:23.999Z</time></trkpt><trkpt lat="43.82448037979525" lon="12.563547560230608"><ele>436.5</ele><time>2026-04-18T14:08:24.999Z</time></trkpt><trkpt lat="43.82457817292484" lon="12.563430627172982"><ele>438.25</ele><time>2026-04-18T14:08:25.999Z</time></trkpt><trkpt lat="43.82465741182471" lon="12.56327968842051"><ele>440.0</ele><time>2026-04-18T14:08:26.999Z</time></trkpt><trkpt lat="43.82473608087786" lon="12.563116624504419"><ele>440.0</ele><time>2026-04-18T14:08:27.999Z</time></trkpt><trkpt lat="43.82480889119265" lon="12.562922370493647"><ele>440.0</ele><time>2026-04-18T14:08:28.999Z</time></trkpt><trkpt lat="43.82488495277366" lon="12.562720209756682"><ele>440.0</ele><time>2026-04-18T14:08:29.999Z</time></trkpt><trkpt lat="43.82496566029201" lon="12.56252825134099"><ele>440.0</ele><time>2026-04-18T14:08:30.999Z</time></trkpt><trkpt lat="43.82504590495081" lon="12.562341789509135"><ele>440.0</ele><time>2026-04-18T14:08:31.999Z</time></trkpt><trkpt lat="43.82512399864359" lon="12.562160990308497"><ele>440.0</ele><time>2026-04-18T14:08:32.999Z</time></trkpt><trkpt lat="43.82520012959682" lon="12.56198975737265"><ele>442.0</ele><time>2026-04-18T14:08:33.999Z</time></trkpt><trkpt lat="43.8252704682798" lon="12.561816276683766"><ele>444.0</ele><time>2026-04-18T14:08:34.999Z</time></trkpt><trkpt lat="43.82531876217935" lon="12.561627583434355"><ele>446.0</ele><time>2026-04-18T14:08:35.999Z</time></trkpt><trkpt lat="43.825341609495766" lon="12.561425665844489"><ele>448.0</ele><time>2026-04-18T14:08:36.999Z</time></trkpt><trkpt lat="43.82535143997183" lon="12.561225046023585"><ele>451.25</ele><time>2026-04-18T14:08:37.999Z</time></trkpt><trkpt lat="43.82536174501152" lon="12.561034292826836"><ele>454.5</ele><time>2026-04-18T14:08:38.999Z</time></trkpt><trkpt lat="43.82540851988366" lon="12.56088265772058"><ele>457.75</ele><time>2026-04-18T14:08:39.999Z</time></trkpt><trkpt lat="43.82545628404702" lon="12.560761252295606"><ele>461.0</ele><time>2026-04-18T14:08:40.999Z</time></trkpt><trkpt lat="43.825543706067826" lon="12.560690424551225"><ele>461.0</ele><time>2026-04-18T14:08:41.999Z</time></trkpt><trkpt lat="43.825652134574824" lon="12.56064896424836"><ele>461.0</ele><time>2026-04-18T14:08:42.999Z</time></trkpt><trkpt lat="43.825771260064535" lon="12.560595580409824"><ele>461.0</ele><time>2026-04-18T14:08:43.999Z</time></trkpt><trkpt lat="43.825901774325196" lon="12.560589825543417"><ele>461.0</ele><time>2026-04-18T14:08:44.999Z</time></trkpt><trkpt lat="43.82602459330082" lon="12.56063924530256"><ele>461.25</ele><time>2026-04-18T14:08:45.999Z</time></trkpt><trkpt lat="43.8261464869148" lon="12.560659542020703"><ele>461.5</ele><time>2026-04-18T14:08:46.999Z</time></trkpt><trkpt lat="43.82625699506117" lon="12.560709768843331"><ele>461.75</ele><time>2026-04-18T14:08:47.999Z</time></trkpt><trkpt lat="43.826370959550076" lon="12.560740446040175"><ele>462.0</ele><time>2026-04-18T14:08:48.999Z</time></trkpt><trkpt lat="43.82647895832459" lon="12.560728250719341"><ele>462.0</ele><time>2026-04-18T14:08:49.999Z</time></trkpt><trkpt lat="43.82657694550377" lon="12.560685136555541"><ele>462.00000000000006</ele><time>2026-04-18T14:08:50.999Z</time></trkpt><trkpt lat="43.82665493953075" lon="12.560590626954626"><ele>462.00000000000006</ele><time>2026-04-18T14:08:51.999Z</time></trkpt><trkpt lat="43.82670589545115" lon="12.56047235408879"><ele>462.0</ele><time>2026-04-18T14:08:52.999Z</time></trkpt><trkpt lat="43.826770249840756" lon="12.56034041628831"><ele>462.0</ele><time>2026-04-18T14:08:53.999Z</time></trkpt><trkpt lat="43.8268096221485" lon="12.560175613906546"><ele>461.5</ele><time>2026-04-18T14:08:54.999Z</time></trkpt><trkpt lat="43.82685726545481" lon="12.560008766613656"><ele>461.0</ele><time>2026-04-18T14:08:55.999Z</time></trkpt><trkpt lat="43.826896479778966" lon="12.559830608533472"><ele>460.5</ele><time>2026-04-18T14:08:56.999Z</time></trkpt><trkpt lat="43.82692704978098" lon="12.55963248587071"><ele>460.0</ele><time>2026-04-18T14:08:57.999Z</time></trkpt><trkpt lat="43.826947972055606" lon="12.55942617320244"><ele>465.0</ele><time>2026-04-18T14:08:58.999Z</time></trkpt><trkpt lat="43.82699244829423" lon="12.559219938503965"><ele>470.0</ele><time>2026-04-18T14:08:59.999Z</time></trkpt><trkpt lat="43.82703574579656" lon="12.5590144989822"><ele>475.0</ele><time>2026-04-18T14:09:00.999Z</time></trkpt><trkpt lat="43.82711755989335" lon="12.558848604889167"><ele>477.5</ele><time>2026-04-18T14:09:01.999Z</time></trkpt><trkpt lat="43.82720037346494" lon="12.558683467112639"><ele>480.0</ele><time>2026-04-18T14:09:02.999Z</time></trkpt><trkpt lat="43.82726656469994" lon="12.558518609268143"><ele>482.5</ele><time>2026-04-18T14:09:03.999Z</time></trkpt><trkpt lat="43.827334047226316" lon="12.558368406081394"><ele>485.0</ele><time>2026-04-18T14:09:05Z</time></trkpt><trkpt lat="43.82737541052604" lon="12.55820786392686"><ele>485.0</ele><time>2026-04-18T14:09:06Z</time></trkpt><trkpt lat="43.82740071670091" lon="12.558036821539206"><ele>485.0</ele><time>2026-04-18T14:09:07Z</time></trkpt><trkpt lat="43.827440825387136" lon="12.557862603874613"><ele>485.0</ele><time>2026-04-18T14:09:08Z</time></trkpt><trkpt lat="43.827476632610136" lon="12.557679762907632"><ele>485.0</ele><time>2026-04-18T14:09:09Z</time></trkpt><trkpt lat="43.82751188896794" lon="12.557498743623144"><ele>486.75</ele><time>2026-04-18T14:09:10Z</time></trkpt><trkpt lat="43.827552710572185" lon="12.557325774366857"><ele>488.5</ele><time>2026-04-18T14:09:11Z</time></trkpt><trkpt lat="43.82758829765925" lon="12.55716110806575"><ele>490.25</ele><time>2026-04-18T14:09:12Z</time></trkpt><trkpt lat="43.82762261273164" lon="12.557018055913625"><ele>492.0</ele><time>2026-04-18T14:09:13Z</time></trkpt><trkpt lat="43.82764684561504" lon="12.556901947433536"><ele>494.0</ele><time>2026-04-18T14:09:14Z</time></trkpt><trkpt lat="43.82767931106375" lon="12.556811807918242"><ele>496.0</ele><time>2026-04-18T14:09:15Z</time></trkpt><trkpt lat="43.82770993294556" lon="12.556678751463753"><ele>498.0</ele><time>2026-04-18T14:09:17Z</time></trkpt><trkpt lat="43.827550090564515" lon="12.556562464366468"><ele>500.0</ele><time>2026-04-18T14:09:18Z</time></trkpt><trkpt lat="43.82746998023586" lon="12.5564741082267"><ele>500.8</ele><time>2026-04-18T14:09:19Z</time></trkpt><trkpt lat="43.82740519077185" lon="12.556357183061925"><ele>501.6</ele><time>2026-04-18T14:09:20Z</time></trkpt><trkpt lat="43.8273335557353" lon="12.556243179204277"><ele>502.4</ele><time>2026-04-18T14:09:21Z</time></trkpt><trkpt lat="43.82725693490927" lon="12.556128614462972"><ele>503.2</ele><time>2026-04-18T14:09:22Z</time></trkpt><trkpt lat="43.8272041675378" lon="12.555993796724406"><ele>504.0</ele><time>2026-04-18T14:09:23Z</time></trkpt><trkpt lat="43.82717254741078" lon="12.555847454384082"><ele>506.25</ele><time>2026-04-18T14:09:24Z</time></trkpt><trkpt lat="43.82717785742805" lon="12.555686587416597"><ele>508.5</ele><time>2026-04-18T14:09:25Z</time></trkpt><trkpt lat="43.82721710026541" lon="12.555520973833621"><ele>510.75</ele><time>2026-04-18T14:09:26Z</time></trkpt><trkpt lat="43.82726187891516" lon="12.555359443693435"><ele>513.0</ele><time>2026-04-18T14:09:27Z</time></trkpt><trkpt lat="43.82734799985628" lon="12.5552316172122"><ele>513.5</ele><time>2026-04-18T14:09:28Z</time></trkpt><trkpt lat="43.82745666618687" lon="12.555149034681294"><ele>514.0</ele><time>2026-04-18T14:09:29Z</time></trkpt><trkpt lat="43.82756805751433" lon="12.55511548866991"><ele>514.5</ele><time>2026-04-18T14:09:30Z</time></trkpt><trkpt lat="43.82768166744215" lon="12.555109858453916"><ele>515.0</ele><time>2026-04-18T14:09:31Z</time></trkpt><trkpt lat="43.82780034952639" lon="12.555127009421609"><ele>517.0</ele><time>2026-04-18T14:09:32Z</time></trkpt><trkpt lat="43.82791768547275" lon="12.555155516000244"><ele>519.0</ele><time>2026-04-18T14:09:33Z</time></trkpt><trkpt lat="43.82803385964715" lon="12.555182129579064"><ele>521.0</ele><time>2026-04-18T14:09:34Z</time></trkpt><trkpt lat="43.82815165493578" lon="12.555188043415647"><ele>523.0</ele><time>2026-04-18T14:09:35Z</time></trkpt><trkpt lat="43.82826211914759" lon="12.55517711041271"><ele>523.0</ele><time>2026-04-18T14:09:36Z</time></trkpt><trkpt lat="43.828365591165266" lon="12.55513549038876"><ele>523.0</ele><time>2026-04-18T14:09:37Z</time></trkpt><trkpt lat="43.82846795241557" lon="12.55508044911481"><ele>523.0</ele><time>2026-04-18T14:09:38Z</time></trkpt><trkpt lat="43.82854401663704" lon="12.554958895085171"><ele>523.0</ele><time>2026-04-18T14:09:39Z</time></trkpt><trkpt lat="43.828607307293375" lon="12.554827236245714"><ele>523.0</ele><time>2026-04-18T14:09:40Z</time></trkpt><trkpt lat="43.82866901719339" lon="12.55468982650939"><ele>524.25</ele><time>2026-04-18T14:09:41Z</time></trkpt><trkpt lat="43.82871689027522" lon="12.554533191365815"><ele>525.5</ele><time>2026-04-18T14:09:42Z</time></trkpt><trkpt lat="43.82876562068858" lon="12.554406002623537"><ele>526.75</ele><time>2026-04-18T14:09:43Z</time></trkpt><trkpt lat="43.828808700539305" lon="12.55425475741702"><ele>528.0</ele><time>2026-04-18T14:09:44Z</time></trkpt><trkpt lat="43.82885168438633" lon="12.554099067762555"><ele>528.0</ele><time>2026-04-18T14:09:45Z</time></trkpt><trkpt lat="43.82889315789391" lon="12.553942671167144"><ele>528.0</ele><time>2026-04-18T14:09:46Z</time></trkpt><trkpt lat="43.82893492347768" lon="12.553783690669345"><ele>528.0</ele><time>2026-04-18T14:09:47Z</time></trkpt><trkpt lat="43.82897425168439" lon="12.553627655365657"><ele>528.0</ele><time>2026-04-18T14:09:48Z</time></trkpt><trkpt lat="43.82902166845262" lon="12.55345917709494"><ele>529.25</ele><time>2026-04-18T14:09:49Z</time></trkpt><trkpt lat="43.82906756918434" lon="12.553294981668008"><ele>530.5</ele><time>2026-04-18T14:09:50Z</time></trkpt><trkpt lat="43.82911294965722" lon="12.55312778711091"><ele>531.75</ele><time>2026-04-18T14:09:51Z</time></trkpt><trkpt lat="43.82915815054164" lon="12.552969983637343"><ele>533.0</ele><time>2026-04-18T14:09:52Z</time></trkpt><trkpt lat="43.82922969639561" lon="12.55285237724856"><ele>533.0</ele><time>2026-04-18T14:09:53Z</time></trkpt><trkpt lat="43.82929605734075" lon="12.552747778341432"><ele>533.0</ele><time>2026-04-18T14:09:54Z</time></trkpt><trkpt lat="43.829384465076934" lon="12.552684530907579"><ele>533.0</ele><time>2026-04-18T14:09:55Z</time></trkpt><trkpt lat="43.82947951998342" lon="12.552684013185115"><ele>533.0</ele><time>2026-04-18T14:09:56Z</time></trkpt><trkpt lat="43.829576756983755" lon="12.55272621807725"><ele>533.0</ele><time>2026-04-18T14:09:57Z</time></trkpt><trkpt lat="43.82966647036525" lon="12.552817378453355"><ele>536.75</ele><time>2026-04-18T14:09:58Z</time></trkpt><trkpt lat="43.82976841293557" lon="12.552928022785045"><ele>540.5</ele><time>2026-04-18T14:09:59Z</time></trkpt><trkpt lat="43.82986607481301" lon="12.553044241563947"><ele>544.25</ele><time>2026-04-18T14:10:00Z</time></trkpt><trkpt lat="43.829965588694556" lon="12.553163192273393"><ele>548.0</ele><time>2026-04-18T14:10:01Z</time></trkpt><trkpt lat="43.830075256102255" lon="12.55326460696447"><ele>546.6</ele><time>2026-04-18T14:10:02Z</time></trkpt><trkpt lat="43.83015929244058" lon="12.553375140884185"><ele>545.1999999999999</ele><time>2026-04-18T14:10:03Z</time></trkpt><trkpt lat="43.83023369103956" lon="12.553469830054787"><ele>543.8</ele><time>2026-04-18T14:10:04Z</time></trkpt><trkpt lat="43.83031553036543" lon="12.553529164252142"><ele>542.4</ele><time>2026-04-18T14:10:05Z</time></trkpt><trkpt lat="43.83039660140546" lon="12.553529211268938"><ele>541.0</ele><time>2026-04-18T14:10:06Z</time></trkpt><trkpt lat="43.83047706055723" lon="12.553466603137867"><ele>541.0</ele><time>2026-04-18T14:10:07Z</time></trkpt><trkpt lat="43.83054993543396" lon="12.55335672773373"><ele>541.0</ele><time>2026-04-18T14:10:08Z</time></trkpt><trkpt lat="43.83062691686608" lon="12.553230926019342"><ele>541.0</ele><time>2026-04-18T14:10:09Z</time></trkpt><trkpt lat="43.83070943045265" lon="12.553098337324295"><ele>541.0</ele><time>2026-04-18T14:10:10Z</time></trkpt><trkpt lat="43.830789974270196" lon="12.552958249737854"><ele>539.25</ele><time>2026-04-18T14:10:11Z</time></trkpt><trkpt lat="43.8308540858292" lon="12.552797777680317"><ele>537.5</ele><time>2026-04-18T14:10:12Z</time></trkpt><trkpt lat="43.830912293551464" lon="12.552617747127782"><ele>535.75</ele><time>2026-04-18T14:10:13Z</time></trkpt><trkpt lat="43.830958311598366" lon="12.552422774704576"><ele>534.0</ele><time>2026-04-18T14:10:14Z</time></trkpt><trkpt lat="43.83099812123032" lon="12.552252346536768"><ele>534.0</ele><time>2026-04-18T14:10:15Z</time></trkpt><trkpt lat="43.831019098750026" lon="12.55208410382253"><ele>534.0</ele><time>2026-04-18T14:10:16Z</time></trkpt><trkpt lat="43.831043445263845" lon="12.551913848607924"><ele>534.0</ele><time>2026-04-18T14:10:17Z</time></trkpt><trkpt lat="43.831058802440886" lon="12.551734044874351"><ele>534.0</ele><time>2026-04-18T14:10:18Z</time></trkpt><trkpt lat="43.831075070698994" lon="12.551573307818291"><ele>537.75</ele><time>2026-04-18T14:10:19Z</time></trkpt><trkpt lat="43.831100725150094" lon="12.551406367868545"><ele>541.5</ele><time>2026-04-18T14:10:20Z</time></trkpt><trkpt lat="43.831107241036" lon="12.551230184272745"><ele>545.25</ele><time>2026-04-18T14:10:21Z</time></trkpt><trkpt lat="43.83109544872177" lon="12.5510475166361"><ele>549.0</ele><time>2026-04-18T14:10:22Z</time></trkpt><trkpt lat="43.831094400125984" lon="12.550867800838896"><ele>550.75</ele><time>2026-04-18T14:10:23Z</time></trkpt><trkpt lat="43.83110555931409" lon="12.55067575750243"><ele>552.5</ele><time>2026-04-18T14:10:24Z</time></trkpt><trkpt lat="43.83109370750922" lon="12.550493347075365"><ele>554.25</ele><time>2026-04-18T14:10:25Z</time></trkpt><trkpt lat="43.831087633915345" lon="12.550305078267252"><ele>556.0</ele><time>2026-04-18T14:10:26Z</time></trkpt><trkpt lat="43.83107856005553" lon="12.550108725476589"><ele>556.0</ele><time>2026-04-18T14:10:27Z</time></trkpt><trkpt lat="43.831068958831395" lon="12.549905276769051"><ele>556.0</ele><time>2026-04-18T14:10:28Z</time></trkpt><trkpt lat="43.83105313402334" lon="12.549697690180974"><ele>556.0</ele><time>2026-04-18T14:10:29Z</time></trkpt><trkpt lat="43.831040513781645" lon="12.549489335704969"><ele>556.0</ele><time>2026-04-18T14:10:30Z</time></trkpt><trkpt lat="43.831027946938555" lon="12.549288565144456"><ele>555.25</ele><time>2026-04-18T14:10:31Z</time></trkpt><trkpt lat="43.8310171417631" lon="12.549089157103161"><ele>554.5</ele><time>2026-04-18T14:10:32Z</time></trkpt><trkpt lat="43.831033699106335" lon="12.548887155906291"><ele>553.75</ele><time>2026-04-18T14:10:33Z</time></trkpt><trkpt lat="43.83106463465527" lon="12.548689356350945"><ele>553.0</ele><time>2026-04-18T14:10:34Z</time></trkpt><trkpt lat="43.83111449194571" lon="12.548499506009104"><ele>553.0</ele><time>2026-04-18T14:10:35Z</time></trkpt><trkpt lat="43.83117978971077" lon="12.54830860862673"><ele>553.0</ele><time>2026-04-18T14:10:36Z</time></trkpt><trkpt lat="43.831255778557626" lon="12.548123203245238"><ele>553.0</ele><time>2026-04-18T14:10:37Z</time></trkpt><trkpt lat="43.831322128431616" lon="12.547936800896617"><ele>557.0</ele><time>2026-04-18T14:10:38Z</time></trkpt><trkpt lat="43.83140490527722" lon="12.547766785900235"><ele>561.0</ele><time>2026-04-18T14:10:39Z</time></trkpt><trkpt lat="43.83149087054531" lon="12.547592860813507"><ele>565.0</ele><time>2026-04-18T14:10:40Z</time></trkpt><trkpt lat="43.83157362108809" lon="12.547420159755857"><ele>565.0</ele><time>2026-04-18T14:10:41Z</time></trkpt><trkpt lat="43.831659689107674" lon="12.547248144922653"><ele>565.0</ele><time>2026-04-18T14:10:42Z</time></trkpt><trkpt lat="43.83174489183039" lon="12.547072010722578"><ele>565.0</ele><time>2026-04-18T14:10:43Z</time></trkpt><trkpt lat="43.8318277842011" lon="12.546887862269873"><ele>562.6666666666667</ele><time>2026-04-18T14:10:44Z</time></trkpt><trkpt lat="43.831920146543716" lon="12.546708658355676"><ele>560.3333333333334</ele><time>2026-04-18T14:10:45Z</time></trkpt><trkpt lat="43.83201124977251" lon="12.5465277594979"><ele>558.0</ele><time>2026-04-18T14:10:46Z</time></trkpt><trkpt lat="43.83209765242267" lon="12.546340355881416"><ele>560.3333333333334</ele><time>2026-04-18T14:10:47Z</time></trkpt><trkpt lat="43.83218495977469" lon="12.546152955447589"><ele>562.6666666666667</ele><time>2026-04-18T14:10:48Z</time></trkpt><trkpt lat="43.832270135801295" lon="12.545972375307375"><ele>565.0</ele><time>2026-04-18T14:10:49Z</time></trkpt><trkpt lat="43.83235970509348" lon="12.54579264507673"><ele>565.0</ele><time>2026-04-18T14:10:50Z</time></trkpt><trkpt lat="43.83244854334426" lon="12.545608064650555"><ele>565.0</ele><time>2026-04-18T14:10:51Z</time></trkpt><trkpt lat="43.832539570143425" lon="12.545421170451359"><ele>565.0</ele><time>2026-04-18T14:10:52Z</time></trkpt><trkpt lat="43.83262923756606" lon="12.545239190737382"><ele>564.3333333333334</ele><time>2026-04-18T14:10:53Z</time></trkpt><trkpt lat="43.83271599084065" lon="12.545055620939644"><ele>563.6666666666666</ele><time>2026-04-18T14:10:54Z</time></trkpt><trkpt lat="43.832802852000256" lon="12.54487195377965"><ele>563.0</ele><time>2026-04-18T14:10:55Z</time></trkpt><trkpt lat="43.83289350242529" lon="12.544687642720556"><ele>563.3333333333333</ele><time>2026-04-18T14:10:56Z</time></trkpt><trkpt lat="43.832987750355784" lon="12.544507711784577"><ele>563.6666666666666</ele><time>2026-04-18T14:10:57Z</time></trkpt><trkpt lat="43.83308868336683" lon="12.544325884704794"><ele>564.0</ele><time>2026-04-18T14:10:58Z</time></trkpt><trkpt lat="43.83320652425866" lon="12.544164467064187"><ele>564.0</ele><time>2026-04-18T14:10:59Z</time></trkpt><trkpt lat="43.83330776973026" lon="12.543974356374768"><ele>564.0</ele><time>2026-04-18T14:11:00Z</time></trkpt><trkpt lat="43.83342822427459" lon="12.543809995165091"><ele>564.0</ele><time>2026-04-18T14:11:01Z</time></trkpt><trkpt lat="43.833549325165514" lon="12.543649784694027"><ele>568.6666666666666</ele><time>2026-04-18T14:11:01.999Z</time></trkpt><trkpt lat="43.8336708778903" lon="12.543493516532239"><ele>573.3333333333333</ele><time>2026-04-18T14:11:02.999Z</time></trkpt><trkpt lat="43.83378717086546" lon="12.54334261188198"><ele>578.0</ele><time>2026-04-18T14:11:03.999Z</time></trkpt><trkpt lat="43.833896645936214" lon="12.543202629396726"><ele>578.0</ele><time>2026-04-18T14:11:04.999Z</time></trkpt><trkpt lat="43.83399933263992" lon="12.543074778166252"><ele>578.0</ele><time>2026-04-18T14:11:05.999Z</time></trkpt><trkpt lat="43.834111012887824" lon="12.54297244681315"><ele>578.0</ele><time>2026-04-18T14:11:06.999Z</time></trkpt><trkpt lat="43.834236217112775" lon="12.542898313353753"><ele>578.0</ele><time>2026-04-18T14:11:07.999Z</time></trkpt><trkpt lat="43.83437980903116" lon="12.54288991118758"><ele>581.0</ele><time>2026-04-18T14:11:08.999Z</time></trkpt><trkpt lat="43.83452223585728" lon="12.542882038607196"><ele>584.0</ele><time>2026-04-18T14:11:09.999Z</time></trkpt><trkpt lat="43.834666015024105" lon="12.542887891446068"><ele>587.0</ele><time>2026-04-18T14:11:11.001Z</time></trkpt><trkpt lat="43.83480973132049" lon="12.542932515781688"><ele>590.0</ele><time>2026-04-18T14:11:12.001Z</time></trkpt><trkpt lat="43.83494873074287" lon="12.542981041243031"><ele>590.0</ele><time>2026-04-18T14:11:13.001Z</time></trkpt><trkpt lat="43.835083305485334" lon="12.543030321882112"><ele>590.0</ele><time>2026-04-18T14:11:14.001Z</time></trkpt><trkpt lat="43.835212905979866" lon="12.54308051873727"><ele>590.0</ele><time>2026-04-18T14:11:15.001Z</time></trkpt><trkpt lat="43.83533812773423" lon="12.543121264192445"><ele>590.0</ele><time>2026-04-18T14:11:16.001Z</time></trkpt><trkpt lat="43.83546160523601" lon="12.543140359677466"><ele>590.0</ele><time>2026-04-18T14:11:17.001Z</time></trkpt><trkpt lat="43.835583092328044" lon="12.543121845981693"><ele>590.0</ele><time>2026-04-18T14:11:18.001Z</time></trkpt><trkpt lat="43.83570463156664" lon="12.5430643471833"><ele>590.0</ele><time>2026-04-18T14:11:19.001Z</time></trkpt><trkpt lat="43.83582430046883" lon="12.542986210269374"><ele>590.0</ele><time>2026-04-18T14:11:20.001Z</time></trkpt><trkpt lat="43.8359397046901" lon="12.54290916202208"><ele>593.1666666666666</ele><time>2026-04-18T14:11:21.001Z</time></trkpt><trkpt lat="43.83604509651064" lon="12.542843718904216"><ele>596.3333333333333</ele><time>2026-04-18T14:11:22.001Z</time></trkpt><trkpt lat="43.83613733120778" lon="12.542792816017661"><ele>599.5</ele><time>2026-04-18T14:11:23.001Z</time></trkpt><trkpt lat="43.83620110476822" lon="12.542744266802119"><ele>602.6666666666666</ele><time>2026-04-18T14:11:24.001Z</time></trkpt><trkpt lat="43.836248183203985" lon="12.542676614691361"><ele>605.8333333333334</ele><time>2026-04-18T14:11:25.001Z</time></trkpt><trkpt lat="43.836268949513546" lon="12.54258956974524"><ele>609.0</ele><time>2026-04-18T14:11:26.001Z</time></trkpt><trkpt lat="43.83625463520228" lon="12.542491635606789"><ele>609.0</ele><time>2026-04-18T14:11:27.001Z</time></trkpt><trkpt lat="43.836201546479735" lon="12.542409722502025"><ele>609.0</ele><time>2026-04-18T14:11:28.001Z</time></trkpt><trkpt lat="43.836123827258255" lon="12.54236886233453"><ele>609.0</ele><time>2026-04-18T14:11:29.001Z</time></trkpt><trkpt lat="43.83602580330028" lon="12.542384003192344"><ele>609.0</ele><time>2026-04-18T14:11:30Z</time></trkpt><trkpt lat="43.83592208301333" lon="12.542430796416324"><ele>609.0</ele><time>2026-04-18T14:11:31Z</time></trkpt><trkpt lat="43.83580973955162" lon="12.542506770544485"><ele>608.0</ele><time>2026-04-18T14:11:32Z</time></trkpt><trkpt lat="43.83570892498758" lon="12.542600860566253"><ele>607.0</ele><time>2026-04-18T14:11:33Z</time></trkpt><trkpt lat="43.83562426238165" lon="12.542690209227981"><ele>606.0</ele><time>2026-04-18T14:11:34Z</time></trkpt><trkpt lat="43.8355404690648" lon="12.54273630911349"><ele>605.0</ele><time>2026-04-18T14:11:35Z</time></trkpt><trkpt lat="43.83546013238598" lon="12.542751089763588"><ele>604.0</ele><time>2026-04-18T14:11:36Z</time></trkpt><trkpt lat="43.83536373235024" lon="12.542634339349851"><ele>604.0</ele><time>2026-04-18T14:11:38Z</time></trkpt><trkpt lat="43.83536319589275" lon="12.542513058475159"><ele>604.0</ele><time>2026-04-18T14:11:39Z</time></trkpt><trkpt lat="43.835406378465514" lon="12.542392016022765"><ele>604.0</ele><time>2026-04-18T14:11:40Z</time></trkpt><trkpt lat="43.83549392106408" lon="12.542303290051109"><ele>604.0</ele><time>2026-04-18T14:11:41Z</time></trkpt><trkpt lat="43.83557476372014" lon="12.542187505442934"><ele>604.0</ele><time>2026-04-18T14:11:42Z</time></trkpt><trkpt lat="43.835676076211726" lon="12.542094937290782"><ele>602.5</ele><time>2026-04-18T14:11:43Z</time></trkpt><trkpt lat="43.83579241669498" lon="12.542003914114769"><ele>601.0</ele><time>2026-04-18T14:11:44Z</time></trkpt><trkpt lat="43.83591510749801" lon="12.54192403378521"><ele>599.5</ele><time>2026-04-18T14:11:45Z</time></trkpt><trkpt lat="43.83604169593547" lon="12.541862130264711"><ele>598.0</ele><time>2026-04-18T14:11:46Z</time></trkpt><trkpt lat="43.83617235730627" lon="12.541813519439247"><ele>602.25</ele><time>2026-04-18T14:11:47Z</time></trkpt><trkpt lat="43.836309356231595" lon="12.54177279929283"><ele>606.5</ele><time>2026-04-18T14:11:48Z</time></trkpt><trkpt lat="43.83645041339888" lon="12.541738944643129"><ele>610.75</ele><time>2026-04-18T14:11:49Z</time></trkpt><trkpt lat="43.836589340787725" lon="12.541707661987815"><ele>615.0</ele><time>2026-04-18T14:11:50Z</time></trkpt><trkpt lat="43.83672708967511" lon="12.541675701482525"><ele>614.75</ele><time>2026-04-18T14:11:51Z</time></trkpt><trkpt lat="43.836867220589276" lon="12.541632860554332"><ele>614.5</ele><time>2026-04-18T14:11:52Z</time></trkpt><trkpt lat="43.837009453610904" lon="12.541594705519225"><ele>614.25</ele><time>2026-04-18T14:11:53Z</time></trkpt><trkpt lat="43.83715322911253" lon="12.54155917809703"><ele>614.0</ele><time>2026-04-18T14:11:54Z</time></trkpt><trkpt lat="43.837301641893234" lon="12.541524999826558"><ele>614.0</ele><time>2026-04-18T14:11:55Z</time></trkpt><trkpt lat="43.83744430494285" lon="12.541486966271894"><ele>614.0</ele><time>2026-04-18T14:11:56Z</time></trkpt><trkpt lat="43.837580806369765" lon="12.54144666257755"><ele>614.0</ele><time>2026-04-18T14:11:57Z</time></trkpt><trkpt lat="43.83771163943194" lon="12.54138850805015"><ele>614.0</ele><time>2026-04-18T14:11:58Z</time></trkpt><trkpt lat="43.83782850101025" lon="12.541317071605013"><ele>614.75</ele><time>2026-04-18T14:11:59Z</time></trkpt><trkpt lat="43.837924808488914" lon="12.541222987002168"><ele>615.5</ele><time>2026-04-18T14:12:00Z</time></trkpt><trkpt lat="43.8379983871714" lon="12.541093093552819"><ele>616.25</ele><time>2026-04-18T14:12:01Z</time></trkpt><trkpt lat="43.83804983008411" lon="12.540935851173748"><ele>617.0</ele><time>2026-04-18T14:12:02Z</time></trkpt><trkpt lat="43.83807127734847" lon="12.54078748407976"><ele>617.0</ele><time>2026-04-18T14:12:03Z</time></trkpt><trkpt lat="43.838082841159306" lon="12.540662502653193"><ele>617.0</ele><time>2026-04-18T14:12:04Z</time></trkpt><trkpt lat="43.838095153633944" lon="12.540551460781007"><ele>617.0</ele><time>2026-04-18T14:12:05Z</time></trkpt><trkpt lat="43.838111574265255" lon="12.540449672241412"><ele>617.0</ele><time>2026-04-18T14:12:06Z</time></trkpt><trkpt lat="43.83813359770402" lon="12.540350837290204"><ele>617.0</ele><time>2026-04-18T14:12:07Z</time></trkpt><trkpt lat="43.838168414269894" lon="12.540256594249774"><ele>617.0</ele><time>2026-04-18T14:12:08Z</time></trkpt><trkpt lat="43.838212341542885" lon="12.54016645017775"><ele>617.4285714285714</ele><time>2026-04-18T14:12:09Z</time></trkpt><trkpt lat="43.83826197573054" lon="12.540082969249497"><ele>617.8571428571428</ele><time>2026-04-18T14:12:10Z</time></trkpt><trkpt lat="43.83832019900757" lon="12.540007443621281"><ele>618.2857142857142</ele><time>2026-04-18T14:12:11Z</time></trkpt><trkpt lat="43.83838318671886" lon="12.53995245159961"><ele>618.7142857142858</ele><time>2026-04-18T14:12:12Z</time></trkpt><trkpt lat="43.838453441561946" lon="12.53992879495715"><ele>619.1428571428571</ele><time>2026-04-18T14:12:13Z</time></trkpt><trkpt lat="43.83852365437672" lon="12.539905147992298"><ele>619.5714285714286</ele><time>2026-04-18T14:12:14Z</time></trkpt><trkpt lat="43.83858679919843" lon="12.539877992076079"><ele>620.0</ele><time>2026-04-18T14:12:15Z</time></trkpt><trkpt lat="43.838691055741954" lon="12.53983219458777"><ele>618.8333333333333</ele><time>2026-04-18T14:12:17Z</time></trkpt><trkpt lat="43.83877166575592" lon="12.539798862341849"><ele>617.6666666666666</ele><time>2026-04-18T14:12:19Z</time></trkpt><trkpt lat="43.83883794043808" lon="12.539764282224777"><ele>616.5</ele><time>2026-04-18T14:12:21Z</time></trkpt><trkpt lat="43.8389245914642" lon="12.539720534679985"><ele>615.3333333333334</ele><time>2026-04-18T14:12:24Z</time></trkpt><trkpt lat="43.83898874567219" lon="12.539689707026664"><ele>614.1666666666667</ele><time>2026-04-18T14:12:26Z</time></trkpt><trkpt lat="43.83905336052769" lon="12.539652504927185"><ele>613.0</ele><time>2026-04-18T14:12:28Z</time></trkpt><trkpt lat="43.83912505688007" lon="12.539611475444943"><ele>613.0</ele><time>2026-04-18T14:12:30Z</time></trkpt><trkpt lat="43.839210301173715" lon="12.539568981508696"><ele>613.0</ele><time>2026-04-18T14:12:32Z</time></trkpt><trkpt lat="43.83927235501785" lon="12.539538988403626"><ele>613.0</ele><time>2026-04-18T14:12:35Z</time></trkpt><trkpt lat="43.83935238968652" lon="12.53953813307831"><ele>613.0</ele><time>2026-04-18T14:12:39Z</time></trkpt><trkpt lat="43.83941589357481" lon="12.539519077231363"><ele>613.0</ele><time>2026-04-18T14:17:22.999Z</time></trkpt><trkpt lat="43.83947085271893" lon="12.53947581540516"><ele>613.0</ele><time>2026-04-18T14:17:27.999Z</time></trkpt><trkpt lat="43.83952394719444" lon="12.539423429161944"><ele>613.0</ele><time>2026-04-18T14:17:34Z</time></trkpt><trkpt lat="43.839593380815" lon="12.53938043123347"><ele>612.5714285714286</ele><time>2026-04-18T14:17:42Z</time></trkpt><trkpt lat="43.839645069396596" lon="12.539314097286079"><ele>612.1428571428571</ele><time>2026-04-18T14:17:49Z</time></trkpt><trkpt lat="43.83970482941512" lon="12.539263998336347"><ele>611.7142857142858</ele><time>2026-04-18T14:17:58Z</time></trkpt><trkpt lat="43.83976721636294" lon="12.539225061950553"><ele>611.2857142857142</ele><time>2026-04-18T14:18:04Z</time></trkpt><trkpt lat="43.839831155143735" lon="12.539191383437016"><ele>610.8571428571428</ele><time>2026-04-18T14:18:09Z</time></trkpt><trkpt lat="43.839890100934575" lon="12.539159977836542"><ele>610.4285714285714</ele><time>2026-04-18T14:18:13Z</time></trkpt><trkpt lat="43.83995594548189" lon="12.539121681415416"><ele>610.0</ele><time>2026-04-18T14:18:19Z</time></trkpt><trkpt lat="43.84002596691017" lon="12.539100843693092"><ele>610.0</ele><time>2026-04-18T14:18:24Z</time></trkpt><trkpt lat="43.84009175295626" lon="12.539084040873012"><ele>610.0</ele><time>2026-04-18T14:18:30Z</time></trkpt><trkpt lat="43.840128722056605" lon="12.539013259473348"><ele>610.0</ele><time>2026-04-18T14:18:39Z</time></trkpt><trkpt lat="43.8401482853019" lon="12.538929595603353"><ele>610.0</ele><time>2026-04-18T14:18:47Z</time></trkpt><trkpt lat="43.84010634719123" lon="12.538855663964226"><ele>610.0</ele><time>2026-04-18T14:18:53Z</time></trkpt><trkpt lat="43.84005618974945" lon="12.538780844379252"><ele>610.0</ele><time>2026-04-18T14:19:00Z</time></trkpt><trkpt lat="43.83999655224093" lon="12.538748367640586"><ele>610.0</ele><time>2026-04-18T14:19:06Z</time></trkpt><trkpt lat="43.83992848873084" lon="12.538764622233474"><ele>610.0</ele><time>2026-04-18T14:19:14Z</time></trkpt><trkpt lat="43.83985836140734" lon="12.538766524231725"><ele>610.0</ele><time>2026-04-18T14:19:20.999Z</time></trkpt><trkpt lat="43.8397925958122" lon="12.538786655771071"><ele>610.0</ele><time>2026-04-18T14:19:27.999Z</time></trkpt><trkpt lat="43.83972500668353" lon="12.538769580879947"><ele>610.0</ele><time>2026-04-18T14:19:36Z</time></trkpt><trkpt lat="43.83965691515957" lon="12.538751549230758"><ele>610.0</ele><time>2026-04-18T14:19:44Z</time></trkpt><trkpt lat="43.8395769189656" lon="12.538729009571027"><ele>610.0</ele><time>2026-04-18T14:19:53Z</time></trkpt><trkpt lat="43.83951141979386" lon="12.538746057306776"><ele>610.0</ele><time>2026-04-18T14:19:59.999Z</time></trkpt><trkpt lat="43.83944755381213" lon="12.538750661691418"><ele>610.0</ele><time>2026-04-18T14:20:07.999Z</time></trkpt><trkpt lat="43.839381731645176" lon="12.538768417075179"><ele>610.0</ele><time>2026-04-18T14:20:14.999Z</time></trkpt><trkpt lat="43.839313860512384" lon="12.538811297893421"><ele>610.0</ele><time>2026-04-18T14:20:22.999Z</time></trkpt><trkpt lat="43.83925414785622" lon="12.53885602372631"><ele>610.0</ele><time>2026-04-18T14:20:29.999Z</time></trkpt><trkpt lat="43.83919178978701" lon="12.538873601514226"><ele>610.0</ele><time>2026-04-18T14:20:36.999Z</time></trkpt><trkpt lat="43.83912483139688" lon="12.538902549901625"><ele>610.0</ele><time>2026-04-18T14:20:43.999Z</time></trkpt><trkpt lat="43.83906954807607" lon="12.538945309185106"><ele>610.0</ele><time>2026-04-18T14:20:51.999Z</time></trkpt><trkpt lat="43.83901435445127" lon="12.539008655237316"><ele>611.2857142857143</ele><time>2026-04-18T14:21:00.999Z</time></trkpt><trkpt lat="43.83898892040301" lon="12.539104340274248"><ele>612.5714285714286</ele><time>2026-04-18T14:21:10.999Z</time></trkpt><trkpt lat="43.83892988354758" lon="12.539059988121696"><ele>613.8571428571429</ele><time>2026-04-18T14:21:49Z</time></trkpt><trkpt lat="43.838872020559336" lon="12.539107994450312"><ele>615.1428571428571</ele><time>2026-04-18T14:21:57Z</time></trkpt><trkpt lat="43.838811118857876" lon="12.539151544008998"><ele>616.4285714285714</ele><time>2026-04-18T14:22:56.999Z</time></trkpt><trkpt lat="43.83874658669806" lon="12.539199253797996"><ele>617.7142857142857</ele><time>2026-04-18T14:23:04.999Z</time></trkpt><trkpt lat="43.838695938194846" lon="12.53925167435143"><ele>619.0</ele><time>2026-04-18T14:23:11.999Z</time></trkpt><trkpt lat="43.83863590832073" lon="12.539286616495474"><ele>619.0</ele><time>2026-04-18T14:23:18.999Z</time></trkpt><trkpt lat="43.83857663068192" lon="12.539322497286028"><ele>619.0</ele><time>2026-04-18T14:23:24.999Z</time></trkpt><trkpt lat="43.83852539037021" lon="12.539379743710018"><ele>619.0</ele><time>2026-04-18T14:23:32.999Z</time></trkpt><trkpt lat="43.83847077137672" lon="12.539445765966711"><ele>619.0</ele><time>2026-04-18T14:23:40.999Z</time></trkpt><trkpt lat="43.838430779793505" lon="12.539513612606044"><ele>619.0</ele><time>2026-04-18T14:23:48Z</time></trkpt><trkpt lat="43.83838674183981" lon="12.539577487292306"><ele>619.0</ele><time>2026-04-18T14:23:55Z</time></trkpt><trkpt lat="43.83834182562705" lon="12.539639983852755"><ele>619.0</ele><time>2026-04-18T14:24:02Z</time></trkpt><trkpt lat="43.83828678774162" lon="12.539700514906007"><ele>619.1428571428571</ele><time>2026-04-18T14:24:10Z</time></trkpt><trkpt lat="43.83824181580715" lon="12.53977615402884"><ele>619.2857142857143</ele><time>2026-04-18T14:24:17Z</time></trkpt><trkpt lat="43.83819438711201" lon="12.539834710880719"><ele>619.4285714285714</ele><time>2026-04-18T14:24:23Z</time></trkpt><trkpt lat="43.83814751444695" lon="12.539906253918351"><ele>619.5714285714286</ele><time>2026-04-18T14:24:31Z</time></trkpt><trkpt lat="43.838106709128226" lon="12.539976438259542"><ele>619.7142857142857</ele><time>2026-04-18T14:24:39Z</time></trkpt><trkpt lat="43.83806654502682" lon="12.540045257039994"><ele>619.8571428571429</ele><time>2026-04-18T14:24:50Z</time></trkpt><trkpt lat="43.83810341558344" lon="12.539974167579192"><ele>620.0</ele><time>2026-04-18T14:25:01Z</time></trkpt><trkpt lat="43.83813946040012" lon="12.539901130933536"><ele>620.0</ele><time>2026-04-18T14:25:08Z</time></trkpt><trkpt lat="43.83819185960325" lon="12.539829957501073"><ele>620.0</ele><time>2026-04-18T14:25:16Z</time></trkpt><trkpt lat="43.83824490769893" lon="12.539777421193897"><ele>620.0</ele><time>2026-04-18T14:25:22Z</time></trkpt><trkpt lat="43.83829378567096" lon="12.539714642678769"><ele>620.0</ele><time>2026-04-18T14:25:28Z</time></trkpt><trkpt lat="43.83833937594983" lon="12.539641624665425"><ele>620.0</ele><time>2026-04-18T14:25:35.999Z</time></trkpt><trkpt lat="43.83838447525258" lon="12.53956018542134"><ele>620.0</ele><time>2026-04-18T14:25:42.999Z</time></trkpt><trkpt lat="43.83844066708242" lon="12.539482331071268"><ele>620.0</ele><time>2026-04-18T14:25:49.999Z</time></trkpt><trkpt lat="43.83848546155262" lon="12.5394189465002"><ele>619.8571428571429</ele><time>2026-04-18T14:25:56.001Z</time></trkpt><trkpt lat="43.83853630119312" lon="12.53935074400542"><ele>619.7142857142857</ele><time>2026-04-18T14:26:04.001Z</time></trkpt><trkpt lat="43.838593684614" lon="12.5393030749062"><ele>619.5714285714286</ele><time>2026-04-18T14:26:10Z</time></trkpt><trkpt lat="43.838648489581246" lon="12.539257192637166"><ele>619.4285714285714</ele><time>2026-04-18T14:26:16Z</time></trkpt><trkpt lat="43.83871078153468" lon="12.539202499564285"><ele>619.2857142857143</ele><time>2026-04-18T14:26:23Z</time></trkpt><trkpt lat="43.838772597233074" lon="12.539156125031385"><ele>619.1428571428571</ele><time>2026-04-18T14:26:31Z</time></trkpt><trkpt lat="43.83883103591953" lon="12.539114474958788"><ele>619.0</ele><time>2026-04-18T14:26:38Z</time></trkpt><trkpt lat="43.83888942186625" lon="12.539072173865279"><ele>619.0</ele><time>2026-04-18T14:26:43.999Z</time></trkpt><trkpt lat="43.838945511314805" lon="12.539017600916761"><ele>619.0</ele><time>2026-04-18T14:26:51.999Z</time></trkpt><trkpt lat="43.8390059874843" lon="12.538977026729565"><ele>619.0</ele><time>2026-04-18T14:26:59.999Z</time></trkpt><trkpt lat="43.839075207100144" lon="12.538944888843575"><ele>619.0</ele><time>2026-04-18T14:27:05.999Z</time></trkpt><trkpt lat="43.83913132537442" lon="12.53890390025782"><ele>619.0</ele><time>2026-04-18T14:27:11.999Z</time></trkpt><trkpt lat="43.839197843790465" lon="12.53887309501884"><ele>619.0</ele><time>2026-04-18T14:27:17.999Z</time></trkpt><trkpt lat="43.839269035938706" lon="12.53884967779642"><ele>619.0</ele><time>2026-04-18T14:27:25.999Z</time></trkpt><trkpt lat="43.83932643457773" lon="12.538803016736418"><ele>617.7142857142857</ele><time>2026-04-18T14:27:32.999Z</time></trkpt><trkpt lat="43.83939147272741" lon="12.538763871774945"><ele>616.4285714285714</ele><time>2026-04-18T14:27:40.999Z</time></trkpt><trkpt lat="43.83946286350414" lon="12.538755096091277"><ele>615.1428571428571</ele><time>2026-04-18T14:27:45.999Z</time></trkpt><trkpt lat="43.83952542021982" lon="12.538744230849083"><ele>613.8571428571429</ele><time>2026-04-18T14:27:53.999Z</time></trkpt><trkpt lat="43.83959379460862" lon="12.538748072877576"><ele>612.5714285714286</ele><time>2026-04-18T14:28:01Z</time></trkpt><trkpt lat="43.839663321466965" lon="12.538759327076418"><ele>611.2857142857143</ele><time>2026-04-18T14:28:08Z</time></trkpt><trkpt lat="43.83973198167399" lon="12.538776069115036"><ele>610.0</ele><time>2026-04-18T14:28:15Z</time></trkpt><trkpt lat="43.839796255580545" lon="12.538774267014073"><ele>610.0</ele><time>2026-04-18T14:28:22Z</time></trkpt><trkpt lat="43.83987195068202" lon="12.538784321219822"><ele>610.0</ele><time>2026-04-18T14:28:30Z</time></trkpt><trkpt lat="43.839946512163245" lon="12.538776489334511"><ele>610.0</ele><time>2026-04-18T14:28:38Z</time></trkpt><trkpt lat="43.840015896496624" lon="12.53876751888067"><ele>610.0</ele><time>2026-04-18T14:28:45Z</time></trkpt><trkpt lat="43.8400785953806" lon="12.53880570321175"><ele>610.0</ele><time>2026-04-18T14:28:52.999Z</time></trkpt><trkpt lat="43.840124090798206" lon="12.538866172174405"><ele>610.0</ele><time>2026-04-18T14:28:58.999Z</time></trkpt><trkpt lat="43.840158811740004" lon="12.538943870908367"><ele>610.0</ele><time>2026-04-18T14:29:04.999Z</time></trkpt><trkpt lat="43.84018299124983" lon="12.539029406625858"><ele>610.0</ele><time>2026-04-18T14:29:10.999Z</time></trkpt><trkpt lat="43.84013456250879" lon="12.539090456146754"><ele>610.0</ele><time>2026-04-18T14:29:15.999Z</time></trkpt><trkpt lat="43.840060517925664" lon="12.539102647420185"><ele>610.0</ele><time>2026-04-18T14:29:22.999Z</time></trkpt><trkpt lat="43.83999250966578" lon="12.53912364039964"><ele>610.0</ele><time>2026-04-18T14:29:28.999Z</time></trkpt><trkpt lat="43.839922241473154" lon="12.53913932593997"><ele>610.0</ele><time>2026-04-18T14:29:35.999Z</time></trkpt><trkpt lat="43.83987438613986" lon="12.539199948753978"><ele>610.0</ele><time>2026-04-18T14:29:41.999Z</time></trkpt><trkpt lat="43.83981865528931" lon="12.5392417898085"><ele>610.0</ele><time>2026-04-18T14:29:47.999Z</time></trkpt><trkpt lat="43.839748887976086" lon="12.539260690873837"><ele>610.0</ele><time>2026-04-18T14:29:54.999Z</time></trkpt><trkpt lat="43.83968899310966" lon="12.539293053345887"><ele>610.0</ele><time>2026-04-18T14:29:59.999Z</time></trkpt><trkpt lat="43.83961739416601" lon="12.539323860084348"><ele>610.0</ele><time>2026-04-18T14:30:07Z</time></trkpt><trkpt lat="43.839556135928326" lon="12.539351977806719"><ele>610.0</ele><time>2026-04-18T14:30:13Z</time></trkpt><trkpt lat="43.839495673754406" lon="12.539400393980916"><ele>610.0</ele><time>2026-04-18T14:30:19Z</time></trkpt><trkpt lat="43.83944030441441" lon="12.539452352993367"><ele>610.0</ele><time>2026-04-18T14:30:26Z</time></trkpt><trkpt lat="43.83938866447246" lon="12.539523419217504"><ele>610.0</ele><time>2026-04-18T14:30:33Z</time></trkpt><trkpt lat="43.83949302738175" lon="12.53948641440094"><ele>610.0</ele><time>2026-04-18T14:33:25Z</time></trkpt><trkpt lat="43.839571414874065" lon="12.539413069736687"><ele>610.0</ele><time>2026-04-18T14:33:27Z</time></trkpt><trkpt lat="43.83966004469499" lon="12.539336648860136"><ele>610.0</ele><time>2026-04-18T14:33:28.999Z</time></trkpt><trkpt lat="43.83978035362259" lon="12.539265678637323"><ele>610.0</ele><time>2026-04-18T14:33:30.999Z</time></trkpt><trkpt lat="43.83984697746563" lon="12.539225621824004"><ele>610.0</ele><time>2026-04-18T14:33:31.999Z</time></trkpt><trkpt lat="43.83991402616545" lon="12.539189070425547"><ele>610.0</ele><time>2026-04-18T14:33:32.999Z</time></trkpt><trkpt lat="43.83998466772461" lon="12.539157817361989"><ele>610.0</ele><time>2026-04-18T14:33:33.999Z</time></trkpt><trkpt lat="43.84005669129128" lon="12.539129942982392"><ele>610.0</ele><time>2026-04-18T14:33:34.999Z</time></trkpt><trkpt lat="43.840131321178845" lon="12.539114448573347"><ele>610.0</ele><time>2026-04-18T14:33:35.999Z</time></trkpt><trkpt lat="43.84020877315998" lon="12.539124520174333"><ele>610.0</ele><time>2026-04-18T14:33:36.999Z</time></trkpt><trkpt lat="43.84028242205278" lon="12.539161364688006"><ele>610.0</ele><time>2026-04-18T14:33:37.999Z</time></trkpt><trkpt lat="43.840346074008714" lon="12.539225374164829"><ele>607.8333333333334</ele><time>2026-04-18T14:33:38.999Z</time></trkpt><trkpt lat="43.840388854960025" lon="12.539316513065074"><ele>605.6666666666667</ele><time>2026-04-18T14:33:39.999Z</time></trkpt><trkpt lat="43.84037599896748" lon="12.539428857944117"><ele>603.5</ele><time>2026-04-18T14:33:40.999Z</time></trkpt><trkpt lat="43.840374567387165" lon="12.539530780499653"><ele>601.3333333333334</ele><time>2026-04-18T14:33:41.999Z</time></trkpt><trkpt lat="43.84030116367016" lon="12.539620805658098"><ele>599.1666666666666</ele><time>2026-04-18T14:33:42.999Z</time></trkpt><trkpt lat="43.84024693564236" lon="12.539729216155576"><ele>597.0</ele><time>2026-04-18T14:33:43.999Z</time></trkpt><trkpt lat="43.840206869489194" lon="12.539844156696326"><ele>596.5</ele><time>2026-04-18T14:33:44.999Z</time></trkpt><trkpt lat="43.84015811321574" lon="12.53993817290061"><ele>596.0</ele><time>2026-04-18T14:33:45.999Z</time></trkpt><trkpt lat="43.84012380268125" lon="12.540024476690041"><ele>595.5</ele><time>2026-04-18T14:33:46.999Z</time></trkpt><trkpt lat="43.84008663362646" lon="12.540104151840765"><ele>595.0</ele><time>2026-04-18T14:33:47.999Z</time></trkpt><trkpt lat="43.840103282797045" lon="12.54021898336904"><ele>594.5</ele><time>2026-04-18T14:33:48.999Z</time></trkpt><trkpt lat="43.8401296387698" lon="12.540321497522022"><ele>594.0</ele><time>2026-04-18T14:33:49.999Z</time></trkpt><trkpt lat="43.84018679782758" lon="12.540404505136653"><ele>594.0</ele><time>2026-04-18T14:33:50.999Z</time></trkpt><trkpt lat="43.84026214594272" lon="12.54045431446503"><ele>594.0</ele><time>2026-04-18T14:33:51.999Z</time></trkpt><trkpt lat="43.84034934484376" lon="12.540455121108662"><ele>594.0</ele><time>2026-04-18T14:33:52.999Z</time></trkpt><trkpt lat="43.84044262591803" lon="12.540412137606603"><ele>594.0</ele><time>2026-04-18T14:33:53.999Z</time></trkpt><trkpt lat="43.84054225413904" lon="12.540344858233315"><ele>594.0</ele><time>2026-04-18T14:33:54.999Z</time></trkpt><trkpt lat="43.84064896158042" lon="12.540268134184492"><ele>594.0</ele><time>2026-04-18T14:33:55.999Z</time></trkpt><trkpt lat="43.84074753625358" lon="12.540185387014148"><ele>594.0</ele><time>2026-04-18T14:33:56.999Z</time></trkpt><trkpt lat="43.840835889967714" lon="12.540094119723282"><ele>594.0</ele><time>2026-04-18T14:33:57.999Z</time></trkpt><trkpt lat="43.84091535022661" lon="12.539999689093902"><ele>594.0</ele><time>2026-04-18T14:33:58.999Z</time></trkpt><trkpt lat="43.84098643039813" lon="12.539897780028427"><ele>594.0</ele><time>2026-04-18T14:33:59.999Z</time></trkpt><trkpt lat="43.841037661179435" lon="12.539778693681901"><ele>590.0</ele><time>2026-04-18T14:34:00.998Z</time></trkpt><trkpt lat="43.84106899868153" lon="12.539641568470199"><ele>586.0</ele><time>2026-04-18T14:34:01.998Z</time></trkpt><trkpt lat="43.84107445353586" lon="12.539482841990921"><ele>582.0</ele><time>2026-04-18T14:34:02.998Z</time></trkpt><trkpt lat="43.84106083323902" lon="12.53931661124412"><ele>578.0</ele><time>2026-04-18T14:34:03.998Z</time></trkpt><trkpt lat="43.84103033212809" lon="12.53913969052905"><ele>576.75</ele><time>2026-04-18T14:34:04.998Z</time></trkpt><trkpt lat="43.84100700747082" lon="12.538936558364295"><ele>575.5</ele><time>2026-04-18T14:34:05.998Z</time></trkpt><trkpt lat="43.8409864972473" lon="12.538725135177007"><ele>574.25</ele><time>2026-04-18T14:34:06.998Z</time></trkpt><trkpt lat="43.84097298389568" lon="12.538524085207664"><ele>573.0</ele><time>2026-04-18T14:34:07.998Z</time></trkpt><trkpt lat="43.8409675324021" lon="12.538321655513625"><ele>576.0</ele><time>2026-04-18T14:34:08.998Z</time></trkpt><trkpt lat="43.84096516396344" lon="12.53811805107251"><ele>579.0</ele><time>2026-04-18T14:34:09.998Z</time></trkpt><trkpt lat="43.84095696676755" lon="12.537918443804996"><ele>582.0</ele><time>2026-04-18T14:34:10.998Z</time></trkpt><trkpt lat="43.84094390452229" lon="12.537724018540008"><ele>585.0</ele><time>2026-04-18T14:34:11.998Z</time></trkpt><trkpt lat="43.84092580836078" lon="12.537532341637121"><ele>585.0</ele><time>2026-04-18T14:34:12.998Z</time></trkpt><trkpt lat="43.84090573931529" lon="12.537344195822003"><ele>585.0</ele><time>2026-04-18T14:34:13.998Z</time></trkpt><trkpt lat="43.84088281621719" lon="12.537155368524935"><ele>585.0</ele><time>2026-04-18T14:34:14.998Z</time></trkpt><trkpt lat="43.84085140615468" lon="12.536971050465548"><ele>585.0</ele><time>2026-04-18T14:34:15.999Z</time></trkpt><trkpt lat="43.84080691088044" lon="12.536804296166196"><ele>584.5</ele><time>2026-04-18T14:34:16.999Z</time></trkpt><trkpt lat="43.84075813253986" lon="12.536650562854753"><ele>584.0</ele><time>2026-04-18T14:34:17.999Z</time></trkpt><trkpt lat="43.84071992686702" lon="12.536491253245705"><ele>583.5</ele><time>2026-04-18T14:34:18.999Z</time></trkpt><trkpt lat="43.84068406566044" lon="12.536329747471985"><ele>583.0</ele><time>2026-04-18T14:34:19.999Z</time></trkpt><trkpt lat="43.84065974414426" lon="12.536162703464605"><ele>580.5</ele><time>2026-04-18T14:34:20.999Z</time></trkpt><trkpt lat="43.84065034753396" lon="12.535993111427848"><ele>578.0</ele><time>2026-04-18T14:34:21.999Z</time></trkpt><trkpt lat="43.84066464639982" lon="12.535818285461739"><ele>575.5</ele><time>2026-04-18T14:34:22.999Z</time></trkpt><trkpt lat="43.8407089171451" lon="12.5356478073469"><ele>573.0</ele><time>2026-04-18T14:34:23.999Z</time></trkpt><trkpt lat="43.84078643491644" lon="12.535488492329819"><ele>570.6666666666666</ele><time>2026-04-18T14:34:24.999Z</time></trkpt><trkpt lat="43.840887153173036" lon="12.535341721027716"><ele>568.3333333333333</ele><time>2026-04-18T14:34:25.999Z</time></trkpt><trkpt lat="43.84100619032827" lon="12.535202849670435"><ele>566.0</ele><time>2026-04-18T14:34:26.999Z</time></trkpt><trkpt lat="43.841130808138196" lon="12.535068629670604"><ele>566.0</ele><time>2026-04-18T14:34:27.999Z</time></trkpt><trkpt lat="43.841262606736265" lon="12.534942794801905"><ele>566.0</ele><time>2026-04-18T14:34:28.999Z</time></trkpt><trkpt lat="43.84139783169561" lon="12.534822202586252"><ele>566.0</ele><time>2026-04-18T14:34:29.999Z</time></trkpt><trkpt lat="43.841532168627715" lon="12.534695619480276"><ele>566.0</ele><time>2026-04-18T14:34:30.999Z</time></trkpt><trkpt lat="43.84166658362444" lon="12.53456574570966"><ele>566.0</ele><time>2026-04-18T14:34:31.999Z</time></trkpt><trkpt lat="43.8417992463257" lon="12.534432365070973"><ele>566.0</ele><time>2026-04-18T14:34:32.999Z</time></trkpt><trkpt lat="43.84193098043215" lon="12.534298842872309"><ele>568.6666666666666</ele><time>2026-04-18T14:34:33.999Z</time></trkpt><trkpt lat="43.842057082852385" lon="12.534170510434407"><ele>571.3333333333334</ele><time>2026-04-18T14:34:34.999Z</time></trkpt><trkpt lat="43.84217652299017" lon="12.534046583663608"><ele>574.0</ele><time>2026-04-18T14:34:35.999Z</time></trkpt><trkpt lat="43.84228593504143" lon="12.533913980646046"><ele>574.0</ele><time>2026-04-18T14:34:36.999Z</time></trkpt><trkpt lat="43.84238281834291" lon="12.533773958638665"><ele>574.0</ele><time>2026-04-18T14:34:37.999Z</time></trkpt><trkpt lat="43.84247431265195" lon="12.533631490321122"><ele>574.0</ele><time>2026-04-18T14:34:38.999Z</time></trkpt><trkpt lat="43.842563057215145" lon="12.533480736810718"><ele>574.0</ele><time>2026-04-18T14:34:39.999Z</time></trkpt><trkpt lat="43.84264329565351" lon="12.53331700248689"><ele>574.75</ele><time>2026-04-18T14:34:40.999Z</time></trkpt><trkpt lat="43.842714674957136" lon="12.53314663306451"><ele>575.5</ele><time>2026-04-18T14:34:41.999Z</time></trkpt><trkpt lat="43.842771436199946" lon="12.532980790428356"><ele>576.25</ele><time>2026-04-18T14:34:42.999Z</time></trkpt><trkpt lat="43.84282537075258" lon="12.532823979413257"><ele>577.0</ele><time>2026-04-18T14:34:43.999Z</time></trkpt><trkpt lat="43.84288173983754" lon="12.532666623703342"><ele>577.0</ele><time>2026-04-18T14:34:44.999Z</time></trkpt><trkpt lat="43.84294896692873" lon="12.532512957322185"><ele>577.0</ele><time>2026-04-18T14:34:45.999Z</time></trkpt><trkpt lat="43.84303430990035" lon="12.532364960004017"><ele>577.0</ele><time>2026-04-18T14:34:46.999Z</time></trkpt><trkpt lat="43.84313189941167" lon="12.532213427247873"><ele>577.0</ele><time>2026-04-18T14:34:47.999Z</time></trkpt><trkpt lat="43.84324117796323" lon="12.532058881156617"><ele>570.0</ele><time>2026-04-18T14:34:48.999Z</time></trkpt><trkpt lat="43.84335796101619" lon="12.531905004864667"><ele>563.0</ele><time>2026-04-18T14:34:49.999Z</time></trkpt><trkpt lat="43.843474030396244" lon="12.531753715740585"><ele>556.0</ele><time>2026-04-18T14:34:50.999Z</time></trkpt><trkpt lat="43.8435853026451" lon="12.53161699557938"><ele>556.0</ele><time>2026-04-18T14:34:51.999Z</time></trkpt><trkpt lat="43.84369628942965" lon="12.531482079729367"><ele>556.0</ele><time>2026-04-18T14:34:52.999Z</time></trkpt><trkpt lat="43.84379201534778" lon="12.531340210570894"><ele>556.0</ele><time>2026-04-18T14:34:53.999Z</time></trkpt><trkpt lat="43.84389927432265" lon="12.531214193066967"><ele>556.0</ele><time>2026-04-18T14:34:54.999Z</time></trkpt><trkpt lat="43.84400982330443" lon="12.531085187977439"><ele>551.0</ele><time>2026-04-18T14:34:55.999Z</time></trkpt><trkpt lat="43.844125342896085" lon="12.530957985849803"><ele>546.0</ele><time>2026-04-18T14:34:56.999Z</time></trkpt><trkpt lat="43.844261676590136" lon="12.530857927511063"><ele>541.0</ele><time>2026-04-18T14:34:57.999Z</time></trkpt><trkpt lat="43.844414867344675" lon="12.530772343008286"><ele>540.3333333333334</ele><time>2026-04-18T14:34:58.999Z</time></trkpt><trkpt lat="43.84458083245662" lon="12.530701851748809"><ele>539.6666666666666</ele><time>2026-04-18T14:34:59.999Z</time></trkpt><trkpt lat="43.844751780144804" lon="12.530632343693135"><ele>539.0</ele><time>2026-04-18T14:35:00.999Z</time></trkpt><trkpt lat="43.84492772895306" lon="12.53056715190112"><ele>539.0</ele><time>2026-04-18T14:35:01.999Z</time></trkpt><trkpt lat="43.845109693244275" lon="12.530500604877094"><ele>539.0</ele><time>2026-04-18T14:35:02.999Z</time></trkpt><trkpt lat="43.84529297809365" lon="12.530424215912667"><ele>539.0</ele><time>2026-04-18T14:35:03.999Z</time></trkpt><trkpt lat="43.845481322332134" lon="12.53035063502667"><ele>538.6666666666666</ele><time>2026-04-18T14:35:04.999Z</time></trkpt><trkpt lat="43.84567131353046" lon="12.530274662144098"><ele>538.3333333333334</ele><time>2026-04-18T14:35:05.999Z</time></trkpt><trkpt lat="43.84586442762282" lon="12.530223511026952"><ele>538.0</ele><time>2026-04-18T14:35:06.999Z</time></trkpt><trkpt lat="43.84604728800496" lon="12.530134543886186"><ele>535.3333333333334</ele><time>2026-04-18T14:35:07.999Z</time></trkpt><trkpt lat="43.846232263387805" lon="12.530068589853034"><ele>532.6666666666666</ele><time>2026-04-18T14:35:08.999Z</time></trkpt><trkpt lat="43.846409082810595" lon="12.53000166494033"><ele>530.0</ele><time>2026-04-18T14:35:09.999Z</time></trkpt><trkpt lat="43.84658090691934" lon="12.529937430771133"><ele>530.0</ele><time>2026-04-18T14:35:10.999Z</time></trkpt><trkpt lat="43.846746836821026" lon="12.529871107758396"><ele>530.0</ele><time>2026-04-18T14:35:11.999Z</time></trkpt><trkpt lat="43.84690498640625" lon="12.529803254154226"><ele>530.0</ele><time>2026-04-18T14:35:12.999Z</time></trkpt><trkpt lat="43.847060301410046" lon="12.529722157860478"><ele>528.25</ele><time>2026-04-18T14:35:13.999Z</time></trkpt><trkpt lat="43.847192843520666" lon="12.529615892959455"><ele>526.5</ele><time>2026-04-18T14:35:14.999Z</time></trkpt><trkpt lat="43.84730818415722" lon="12.529487728208988"><ele>524.75</ele><time>2026-04-18T14:35:15.999Z</time></trkpt><trkpt lat="43.84739992370077" lon="12.52934317237962"><ele>523.0</ele><time>2026-04-18T14:35:16.999Z</time></trkpt><trkpt lat="43.8474657289859" lon="12.52918349893431"><ele>523.0</ele><time>2026-04-18T14:35:17.999Z</time></trkpt><trkpt lat="43.8475104737892" lon="12.529009276689658"><ele>523.0</ele><time>2026-04-18T14:35:18.999Z</time></trkpt><trkpt lat="43.84755462614412" lon="12.528825284657488"><ele>523.0</ele><time>2026-04-18T14:35:19.999Z</time></trkpt><trkpt lat="43.84760165206603" lon="12.528645389193406"><ele>523.0</ele><time>2026-04-18T14:35:20.999Z</time></trkpt><trkpt lat="43.84765399761125" lon="12.528473119362104"><ele>517.5</ele><time>2026-04-18T14:35:21.999Z</time></trkpt><trkpt lat="43.84769585522094" lon="12.528296299196175"><ele>512.0</ele><time>2026-04-18T14:35:22.999Z</time></trkpt><trkpt lat="43.84771873382429" lon="12.52811646875832"><ele>506.5</ele><time>2026-04-18T14:35:23.999Z</time></trkpt><trkpt lat="43.8477145856925" lon="12.527937662281284"><ele>501.0</ele><time>2026-04-18T14:35:24.999Z</time></trkpt><trkpt lat="43.84769585523392" lon="12.527755210519102"><ele>500.75</ele><time>2026-04-18T14:35:25.999Z</time></trkpt><trkpt lat="43.847668842812126" lon="12.527568767873477"><ele>500.5</ele><time>2026-04-18T14:35:26.999Z</time></trkpt><trkpt lat="43.84764038878799" lon="12.52739638367333"><ele>500.25</ele><time>2026-04-18T14:35:27.999Z</time></trkpt><trkpt lat="43.84761454376337" lon="12.527232236776571"><ele>500.0</ele><time>2026-04-18T14:35:28.999Z</time></trkpt><trkpt lat="43.847598553393944" lon="12.527083512664008"><ele>500.6</ele><time>2026-04-18T14:35:29.999Z</time></trkpt><trkpt lat="43.84759858198647" lon="12.526937237735009"><ele>501.2</ele><time>2026-04-18T14:35:30.999Z</time></trkpt><trkpt lat="43.84762404046775" lon="12.526794051731223"><ele>501.79999999999995</ele><time>2026-04-18T14:35:31.999Z</time></trkpt><trkpt lat="43.847668934696934" lon="12.526649927534326"><ele>502.4</ele><time>2026-04-18T14:35:32.999Z</time></trkpt><trkpt lat="43.84773356312326" lon="12.526527599614512"><ele>503.0</ele><time>2026-04-18T14:35:33.999Z</time></trkpt><trkpt lat="43.84781872401546" lon="12.526436818919585"><ele>503.0</ele><time>2026-04-18T14:35:34.999Z</time></trkpt><trkpt lat="43.847924388575414" lon="12.526364183825859"><ele>503.0</ele><time>2026-04-18T14:35:35.999Z</time></trkpt><trkpt lat="43.848043810148255" lon="12.526321043917358"><ele>503.0</ele><time>2026-04-18T14:35:36.999Z</time></trkpt><trkpt lat="43.848176113380475" lon="12.526335918899674"><ele>503.0</ele><time>2026-04-18T14:35:37.999Z</time></trkpt><trkpt lat="43.8482924509361" lon="12.526378828126116"><ele>503.0</ele><time>2026-04-18T14:35:38.999Z</time></trkpt><trkpt lat="43.8484055330611" lon="12.526463715544569"><ele>503.0</ele><time>2026-04-18T14:35:39.999Z</time></trkpt><trkpt lat="43.84853854918915" lon="12.526584294356566"><ele>503.0</ele><time>2026-04-18T14:35:40.999Z</time></trkpt><trkpt lat="43.84867311661853" lon="12.526714767264487"><ele>502.0</ele><time>2026-04-18T14:35:41.999Z</time></trkpt><trkpt lat="43.84878119075915" lon="12.526798724898178"><ele>501.0</ele><time>2026-04-18T14:35:42.999Z</time></trkpt><trkpt lat="43.84888230317052" lon="12.526922508085145"><ele>500.0</ele><time>2026-04-18T14:35:43.999Z</time></trkpt><trkpt lat="43.84899116714435" lon="12.52703732934112"><ele>499.0</ele><time>2026-04-18T14:35:44.999Z</time></trkpt><trkpt lat="43.849090597390905" lon="12.52714462295667"><ele>497.6</ele><time>2026-04-18T14:35:45.999Z</time></trkpt><trkpt lat="43.84918948295776" lon="12.527225084528379"><ele>496.2</ele><time>2026-04-18T14:35:46.999Z</time></trkpt><trkpt lat="43.84926969668914" lon="12.527318028668944"><ele>494.80000000000007</ele><time>2026-04-18T14:35:47.999Z</time></trkpt><trkpt lat="43.84935082057324" lon="12.527409816363752"><ele>493.40000000000003</ele><time>2026-04-18T14:35:48.999Z</time></trkpt><trkpt lat="43.84943240767615" lon="12.52750821229271"><ele>492.0</ele><time>2026-04-18T14:35:49.999Z</time></trkpt><trkpt lat="43.84951836335439" lon="12.527610683480045"><ele>490.5</ele><time>2026-04-18T14:35:50.999Z</time></trkpt><trkpt lat="43.84960793151956" lon="12.527716375883939"><ele>489.0</ele><time>2026-04-18T14:35:51.999Z</time></trkpt><trkpt lat="43.849699993172095" lon="12.527819843433495"><ele>487.5</ele><time>2026-04-18T14:35:52.999Z</time></trkpt><trkpt lat="43.84979334415211" lon="12.527920826842436"><ele>486.0</ele><time>2026-04-18T14:35:53.999Z</time></trkpt><trkpt lat="43.849891608661636" lon="12.528016432740452"><ele>484.25</ele><time>2026-04-18T14:35:54.999Z</time></trkpt><trkpt lat="43.84999837091227" lon="12.528093814219218"><ele>482.5</ele><time>2026-04-18T14:35:55.999Z</time></trkpt><trkpt lat="43.85011292353358" lon="12.528155838604404"><ele>480.75</ele><time>2026-04-18T14:35:56.999Z</time></trkpt><trkpt lat="43.85023329329972" lon="12.528200381576161"><ele>479.0</ele><time>2026-04-18T14:35:57.999Z</time></trkpt><trkpt lat="43.850348717322234" lon="12.528219528060044"><ele>477.6</ele><time>2026-04-18T14:35:58.999Z</time></trkpt><trkpt lat="43.85044652749246" lon="12.5282093397092"><ele>476.2</ele><time>2026-04-18T14:35:59.999Z</time></trkpt><trkpt lat="43.850533004431206" lon="12.528176951976663"><ele>474.80000000000007</ele><time>2026-04-18T14:36:00.999Z</time></trkpt><trkpt lat="43.8506051238666" lon="12.528106172570608"><ele>473.40000000000003</ele><time>2026-04-18T14:36:01.999Z</time></trkpt><trkpt lat="43.85065594864407" lon="12.528000756533286"><ele>472.0</ele><time>2026-04-18T14:36:02.999Z</time></trkpt><trkpt lat="43.85068510632544" lon="12.527871840686432"><ele>471.0</ele><time>2026-04-18T14:36:03.999Z</time></trkpt><trkpt lat="43.850683970108605" lon="12.527728678023223"><ele>470.0</ele><time>2026-04-18T14:36:04.999Z</time></trkpt><trkpt lat="43.85064944397574" lon="12.527583211280323"><ele>469.0</ele><time>2026-04-18T14:36:05.999Z</time></trkpt><trkpt lat="43.85059492074365" lon="12.527428213837949"><ele>468.0</ele><time>2026-04-18T14:36:06.999Z</time></trkpt><trkpt lat="43.850527750336816" lon="12.52726198070597"><ele>468.0</ele><time>2026-04-18T14:36:07.999Z</time></trkpt><trkpt lat="43.85046103263917" lon="12.527088270547141"><ele>468.0</ele><time>2026-04-18T14:36:08.999Z</time></trkpt><trkpt lat="43.85039309018581" lon="12.526924947677704"><ele>468.0</ele><time>2026-04-18T14:36:09.999Z</time></trkpt><trkpt lat="43.85031907029959" lon="12.526771384265288"><ele>468.0</ele><time>2026-04-18T14:36:10.999Z</time></trkpt><trkpt lat="43.8502536591204" lon="12.52660652804827"><ele>466.33333333333337</ele><time>2026-04-18T14:36:11.999Z</time></trkpt><trkpt lat="43.850217199914596" lon="12.526414656932182"><ele>464.6666666666667</ele><time>2026-04-18T14:36:12.999Z</time></trkpt><trkpt lat="43.85019635068045" lon="12.526209470740513"><ele>463.0</ele><time>2026-04-18T14:36:13.999Z</time></trkpt><trkpt lat="43.8501625953495" lon="12.52599531356328"><ele>467.6666666666667</ele><time>2026-04-18T14:36:14.999Z</time></trkpt><trkpt lat="43.85011414824628" lon="12.525791805080026"><ele>472.33333333333337</ele><time>2026-04-18T14:36:15.999Z</time></trkpt><trkpt lat="43.85008416181956" lon="12.525583945717395"><ele>477.0</ele><time>2026-04-18T14:36:16.999Z</time></trkpt><trkpt lat="43.84997944069199" lon="12.525414515984021"><ele>472.0</ele><time>2026-04-18T14:36:17.999Z</time></trkpt><trkpt lat="43.84991603492573" lon="12.525222108546538"><ele>467.0</ele><time>2026-04-18T14:36:18.999Z</time></trkpt><trkpt lat="43.84985373352114" lon="12.525027799153506"><ele>462.0</ele><time>2026-04-18T14:36:19.999Z</time></trkpt><trkpt lat="43.8497979088326" lon="12.524836132752782"><ele>462.0</ele><time>2026-04-18T14:36:20.999Z</time></trkpt><trkpt lat="43.84973986356114" lon="12.52465291944677"><ele>462.0</ele><time>2026-04-18T14:36:22Z</time></trkpt><trkpt lat="43.84968406470467" lon="12.524465662727518"><ele>462.0</ele><time>2026-04-18T14:36:23Z</time></trkpt><trkpt lat="43.84963867378541" lon="12.524276641122867"><ele>462.0</ele><time>2026-04-18T14:36:24Z</time></trkpt><trkpt lat="43.84956527049709" lon="12.52410044221126"><ele>460.25</ele><time>2026-04-18T14:36:25Z</time></trkpt><trkpt lat="43.849512122341565" lon="12.52391334797446"><ele>458.5</ele><time>2026-04-18T14:36:26Z</time></trkpt><trkpt lat="43.84945792647417" lon="12.52373244319023"><ele>456.75</ele><time>2026-04-18T14:36:27Z</time></trkpt><trkpt lat="43.84940248714179" lon="12.523552080933955"><ele>455.0</ele><time>2026-04-18T14:36:28Z</time></trkpt><trkpt lat="43.849342826706334" lon="12.523367613893756"><ele>454.25</ele><time>2026-04-18T14:36:29Z</time></trkpt><trkpt lat="43.84928525410568" lon="12.523186898217812"><ele>453.5</ele><time>2026-04-18T14:36:30Z</time></trkpt><trkpt lat="43.849226238302236" lon="12.523002948173461"><ele>452.75</ele><time>2026-04-18T14:36:31Z</time></trkpt><trkpt lat="43.849168781853834" lon="12.522819790444885"><ele>452.0</ele><time>2026-04-18T14:36:32Z</time></trkpt><trkpt lat="43.84911095883426" lon="12.52264307945789"><ele>452.0</ele><time>2026-04-18T14:36:33Z</time></trkpt><trkpt lat="43.84905633792666" lon="12.522474519360419"><ele>452.0</ele><time>2026-04-18T14:36:34Z</time></trkpt><trkpt lat="43.84900424069386" lon="12.522306752556492"><ele>452.0</ele><time>2026-04-18T14:36:35Z</time></trkpt><trkpt lat="43.84894061515528" lon="12.522143359917562"><ele>452.0</ele><time>2026-04-18T14:36:36Z</time></trkpt><trkpt lat="43.84886778761371" lon="12.521986440613835"><ele>449.0</ele><time>2026-04-18T14:36:37Z</time></trkpt><trkpt lat="43.848794123007906" lon="12.521830679402525"><ele>446.0</ele><time>2026-04-18T14:36:38Z</time></trkpt><trkpt lat="43.84872108041364" lon="12.52167029905222"><ele>443.0</ele><time>2026-04-18T14:36:39Z</time></trkpt><trkpt lat="43.84865304728116" lon="12.521502443261296"><ele>440.0</ele><time>2026-04-18T14:36:40Z</time></trkpt><trkpt lat="43.84859304420582" lon="12.521318352062725"><ele>437.25</ele><time>2026-04-18T14:36:41Z</time></trkpt><trkpt lat="43.84853196267636" lon="12.521134119994437"><ele>434.5</ele><time>2026-04-18T14:36:42Z</time></trkpt><trkpt lat="43.848479793398326" lon="12.520950472552654"><ele>431.75</ele><time>2026-04-18T14:36:43Z</time></trkpt><trkpt lat="43.84843626221502" lon="12.520762244257408"><ele>429.0</ele><time>2026-04-18T14:36:44Z</time></trkpt><trkpt lat="43.84839810113247" lon="12.520573508057137"><ele>428.0</ele><time>2026-04-18T14:36:45Z</time></trkpt><trkpt lat="43.8483690563611" lon="12.520382962971572"><ele>427.0</ele><time>2026-04-18T14:36:46Z</time></trkpt><trkpt lat="43.84835002540832" lon="12.520191916649889"><ele>426.0</ele><time>2026-04-18T14:36:47Z</time></trkpt><trkpt lat="43.84833900882818" lon="12.519991910345878"><ele>425.0</ele><time>2026-04-18T14:36:48Z</time></trkpt><trkpt lat="43.84833748135126" lon="12.519789034851659"><ele>425.0</ele><time>2026-04-18T14:36:49Z</time></trkpt><trkpt lat="43.84835511429135" lon="12.51958609923385"><ele>425.0</ele><time>2026-04-18T14:36:50Z</time></trkpt><trkpt lat="43.848348584998526" lon="12.519384154012998"><ele>425.0</ele><time>2026-04-18T14:36:51Z</time></trkpt><trkpt lat="43.848360012341104" lon="12.519189479231194"><ele>425.0</ele><time>2026-04-18T14:36:52Z</time></trkpt><trkpt lat="43.84836504749844" lon="12.518997384905088"><ele>424.75</ele><time>2026-04-18T14:36:53Z</time></trkpt><trkpt lat="43.84837006907628" lon="12.518802526621963"><ele>424.5</ele><time>2026-04-18T14:36:54Z</time></trkpt><trkpt lat="43.84838143088549" lon="12.518606481323983"><ele>424.25</ele><time>2026-04-18T14:36:55Z</time></trkpt><trkpt lat="43.848395323179794" lon="12.518404154395592"><ele>424.0</ele><time>2026-04-18T14:36:56Z</time></trkpt><trkpt lat="43.84841371605094" lon="12.518197754982056"><ele>421.5</ele><time>2026-04-18T14:36:57Z</time></trkpt><trkpt lat="43.848465921366" lon="12.518002288265249"><ele>419.0</ele><time>2026-04-18T14:36:58Z</time></trkpt><trkpt lat="43.84850060747962" lon="12.517801724277051"><ele>416.5</ele><time>2026-04-18T14:36:59Z</time></trkpt><trkpt lat="43.848553491415316" lon="12.517618229453971"><ele>414.0</ele><time>2026-04-18T14:37:00Z</time></trkpt><trkpt lat="43.84859234648769" lon="12.517434744068892"><ele>414.0</ele><time>2026-04-18T14:37:01Z</time></trkpt><trkpt lat="43.84861712956473" lon="12.517247490861976"><ele>414.0</ele><time>2026-04-18T14:37:02Z</time></trkpt><trkpt lat="43.84863084137358" lon="12.51705483824781"><ele>414.0</ele><time>2026-04-18T14:37:03Z</time></trkpt><trkpt lat="43.848638459521375" lon="12.51686179510393"><ele>414.0</ele><time>2026-04-18T14:37:04Z</time></trkpt><trkpt lat="43.84864015673609" lon="12.516673047304046"><ele>414.5</ele><time>2026-04-18T14:37:05Z</time></trkpt><trkpt lat="43.84864452779239" lon="12.516486934336438"><ele>415.0</ele><time>2026-04-18T14:37:06Z</time></trkpt><trkpt lat="43.84865296655621" lon="12.516306294112841"><ele>415.5</ele><time>2026-04-18T14:37:07Z</time></trkpt><trkpt lat="43.84866140616137" lon="12.516124998981827"><ele>416.0</ele><time>2026-04-18T14:37:08Z</time></trkpt><trkpt lat="43.84866907324109" lon="12.515943125587173"><ele>417.5</ele><time>2026-04-18T14:37:09Z</time></trkpt><trkpt lat="43.848682822371366" lon="12.515761602290862"><ele>419.0</ele><time>2026-04-18T14:37:10Z</time></trkpt><trkpt lat="43.84869577421198" lon="12.515578006783509"><ele>420.5</ele><time>2026-04-18T14:37:11Z</time></trkpt><trkpt lat="43.84870780416546" lon="12.515396650712466"><ele>422.0</ele><time>2026-04-18T14:37:12Z</time></trkpt><trkpt lat="43.848720597331024" lon="12.515215454151994"><ele>423.5</ele><time>2026-04-18T14:37:13Z</time></trkpt><trkpt lat="43.84873066091961" lon="12.515033925619747"><ele>425.0</ele><time>2026-04-18T14:37:14Z</time></trkpt><trkpt lat="43.848741367875014" lon="12.514853930782989"><ele>426.5</ele><time>2026-04-18T14:37:15Z</time></trkpt><trkpt lat="43.848751767845734" lon="12.514675604960662"><ele>428.0</ele><time>2026-04-18T14:37:16Z</time></trkpt><trkpt lat="43.84876286884086" lon="12.514512639963415"><ele>428.59999999999997</ele><time>2026-04-18T14:37:16.999Z</time></trkpt><trkpt lat="43.84877234947973" lon="12.514359877809365"><ele>429.19999999999993</ele><time>2026-04-18T14:37:17.999Z</time></trkpt><trkpt lat="43.84878467219253" lon="12.514210909261266"><ele>429.8</ele><time>2026-04-18T14:37:18.999Z</time></trkpt><trkpt lat="43.84879353664418" lon="12.514066178504912"><ele>430.4</ele><time>2026-04-18T14:37:19.999Z</time></trkpt><trkpt lat="43.84879979466176" lon="12.51392542262759"><ele>431.0</ele><time>2026-04-18T14:37:20.999Z</time></trkpt><trkpt lat="43.84880807216607" lon="12.513783603542514"><ele>431.6</ele><time>2026-04-18T14:37:21.999Z</time></trkpt><trkpt lat="43.848816865189285" lon="12.51364143686822"><ele>432.20000000000005</ele><time>2026-04-18T14:37:22.999Z</time></trkpt><trkpt lat="43.84882469942983" lon="12.513499882559563"><ele>432.79999999999995</ele><time>2026-04-18T14:37:23.999Z</time></trkpt><trkpt lat="43.84883429161739" lon="12.51335855025681"><ele>433.4</ele><time>2026-04-18T14:37:24.999Z</time></trkpt><trkpt lat="43.8488391767514" lon="12.51322006002226"><ele>434.0</ele><time>2026-04-18T14:37:25.999Z</time></trkpt><trkpt lat="43.848844299422474" lon="12.51308141756888"><ele>434.0</ele><time>2026-04-18T14:37:26.999Z</time></trkpt><trkpt lat="43.848851790258394" lon="12.51294030311681"><ele>434.0</ele><time>2026-04-18T14:37:27.999Z</time></trkpt><trkpt lat="43.84886264045142" lon="12.512791882317869"><ele>434.0</ele><time>2026-04-18T14:37:28.999Z</time></trkpt><trkpt lat="43.848874468283476" lon="12.512641094844351"><ele>434.0</ele><time>2026-04-18T14:37:29.999Z</time></trkpt><trkpt lat="43.848884052746605" lon="12.51248656598385"><ele>434.0</ele><time>2026-04-18T14:37:30.999Z</time></trkpt><trkpt lat="43.84888952890093" lon="12.512327417714177"><ele>435.5</ele><time>2026-04-18T14:37:31.999Z</time></trkpt><trkpt lat="43.84889515456734" lon="12.512162359538513"><ele>437.0</ele><time>2026-04-18T14:37:32.999Z</time></trkpt><trkpt lat="43.848903393350675" lon="12.511991005652677"><ele>438.5</ele><time>2026-04-18T14:37:33.999Z</time></trkpt><trkpt lat="43.8489143912764" lon="12.511814432964599"><ele>440.0</ele><time>2026-04-18T14:37:34.999Z</time></trkpt><trkpt lat="43.84892447303766" lon="12.511634277380015"><ele>441.25</ele><time>2026-04-18T14:37:35.999Z</time></trkpt><trkpt lat="43.848929665637094" lon="12.511446247814883"><ele>442.5</ele><time>2026-04-18T14:37:36.999Z</time></trkpt><trkpt lat="43.84893943741256" lon="12.511262669815807"><ele>443.75</ele><time>2026-04-18T14:37:37.999Z</time></trkpt><trkpt lat="43.84895288446753" lon="12.511073481152959"><ele>445.0</ele><time>2026-04-18T14:37:38.999Z</time></trkpt><trkpt lat="43.84897024421161" lon="12.510881501889473"><ele>445.5</ele><time>2026-04-18T14:37:39.999Z</time></trkpt><trkpt lat="43.84899220439909" lon="12.510685896688715"><ele>446.0</ele><time>2026-04-18T14:37:40.999Z</time></trkpt><trkpt lat="43.84901720746301" lon="12.510488803271796"><ele>446.5</ele><time>2026-04-18T14:37:41.999Z</time></trkpt><trkpt lat="43.84904291240426" lon="12.510289027772012"><ele>447.0</ele><time>2026-04-18T14:37:42.999Z</time></trkpt><trkpt lat="43.849069763926565" lon="12.510090593509338"><ele>448.66666666666663</ele><time>2026-04-18T14:37:43.999Z</time></trkpt><trkpt lat="43.84909561077075" lon="12.509890684651195"><ele>450.3333333333333</ele><time>2026-04-18T14:37:44.999Z</time></trkpt><trkpt lat="43.8491204431322" lon="12.509676556639697"><ele>452.0</ele><time>2026-04-18T14:37:45.999Z</time></trkpt><trkpt lat="43.84914760454806" lon="12.509455876106555"><ele>453.3333333333333</ele><time>2026-04-18T14:37:46.999Z</time></trkpt><trkpt lat="43.84917566538325" lon="12.509228700486762"><ele>454.66666666666663</ele><time>2026-04-18T14:37:47.999Z</time></trkpt><trkpt lat="43.84920648691681" lon="12.508994647556971"><ele>456.0</ele><time>2026-04-18T14:37:48.999Z</time></trkpt><trkpt lat="43.84925218097718" lon="12.508762457547792"><ele>458.0</ele><time>2026-04-18T14:37:49.999Z</time></trkpt><trkpt lat="43.849305004706224" lon="12.508530904114874"><ele>460.0</ele><time>2026-04-18T14:37:50.999Z</time></trkpt><trkpt lat="43.849356348967746" lon="12.508301392770761"><ele>462.0</ele><time>2026-04-18T14:37:51.999Z</time></trkpt><trkpt lat="43.849407921548725" lon="12.50807873417889"><ele>464.0</ele><time>2026-04-18T14:37:52.999Z</time></trkpt><trkpt lat="43.84945953231666" lon="12.507861270305924"><ele>466.0</ele><time>2026-04-18T14:37:53.999Z</time></trkpt><trkpt lat="43.84951139448306" lon="12.507653271784443"><ele>468.0</ele><time>2026-04-18T14:37:54.999Z</time></trkpt><trkpt lat="43.849554404882355" lon="12.507466847171422"><ele>468.0</ele><time>2026-04-18T14:37:55.999Z</time></trkpt><trkpt lat="43.84959593259307" lon="12.507301397655189"><ele>468.0</ele><time>2026-04-18T14:37:56.999Z</time></trkpt><trkpt lat="43.84963512232949" lon="12.507150546928475"><ele>468.0</ele><time>2026-04-18T14:37:57.999Z</time></trkpt><trkpt lat="43.84968550950847" lon="12.507015194578628"><ele>468.0</ele><time>2026-04-18T14:37:58.999Z</time></trkpt><trkpt lat="43.84975130264399" lon="12.506893772119641"><ele>469.5</ele><time>2026-04-18T14:37:59.999Z</time></trkpt><trkpt lat="43.84984314317695" lon="12.506810649320117"><ele>471.0</ele><time>2026-04-18T14:38:00.999Z</time></trkpt><trkpt lat="43.84995954285033" lon="12.506774276210555"><ele>472.5</ele><time>2026-04-18T14:38:01.999Z</time></trkpt><trkpt lat="43.85007856007416" lon="12.506806523516659"><ele>474.0</ele><time>2026-04-18T14:38:02.999Z</time></trkpt><trkpt lat="43.85019986933684" lon="12.506857948849657"><ele>475.5</ele><time>2026-04-18T14:38:03.999Z</time></trkpt><trkpt lat="43.85032689912099" lon="12.506917155705734"><ele>477.0</ele><time>2026-04-18T14:38:04.999Z</time></trkpt><trkpt lat="43.85045165354012" lon="12.506955957844545"><ele>478.5</ele><time>2026-04-18T14:38:05.999Z</time></trkpt><trkpt lat="43.85056715037963" lon="12.507007883908294"><ele>480.0</ele><time>2026-04-18T14:38:06.999Z</time></trkpt><trkpt lat="43.850683209375674" lon="12.507065260124692"><ele>479.5</ele><time>2026-04-18T14:38:07.999Z</time></trkpt><trkpt lat="43.850810662570545" lon="12.507120487331372"><ele>479.0</ele><time>2026-04-18T14:38:08.999Z</time></trkpt><trkpt lat="43.85094180199088" lon="12.507179862097805"><ele>478.5</ele><time>2026-04-18T14:38:09.999Z</time></trkpt><trkpt lat="43.85107658988939" lon="12.507241590677936"><ele>478.0</ele><time>2026-04-18T14:38:10.999Z</time></trkpt><trkpt lat="43.85121086664138" lon="12.50729783344655"><ele>480.75</ele><time>2026-04-18T14:38:11.999Z</time></trkpt><trkpt lat="43.85134063149722" lon="12.507360153806298"><ele>483.5</ele><time>2026-04-18T14:38:12.999Z</time></trkpt><trkpt lat="43.85146757820322" lon="12.50742191472613"><ele>486.25</ele><time>2026-04-18T14:38:13.999Z</time></trkpt><trkpt lat="43.851594747000334" lon="12.507473380071028"><ele>489.0</ele><time>2026-04-18T14:38:14.999Z</time></trkpt><trkpt lat="43.85171711343686" lon="12.507524421023344"><ele>490.0</ele><time>2026-04-18T14:38:15.999Z</time></trkpt><trkpt lat="43.851831934764625" lon="12.50758782619891"><ele>491.0</ele><time>2026-04-18T14:38:16.999Z</time></trkpt><trkpt lat="43.8519434044255" lon="12.507646917420677"><ele>492.0</ele><time>2026-04-18T14:38:17.999Z</time></trkpt><trkpt lat="43.852049864763515" lon="12.507693992197897"><ele>493.0</ele><time>2026-04-18T14:38:18.999Z</time></trkpt><trkpt lat="43.852158589032044" lon="12.5077239362877"><ele>493.0</ele><time>2026-04-18T14:38:19.999Z</time></trkpt><trkpt lat="43.852272754463876" lon="12.50772825380605"><ele>492.99999999999994</ele><time>2026-04-18T14:38:20.999Z</time></trkpt><trkpt lat="43.85238552087308" lon="12.507716166403064"><ele>492.99999999999994</ele><time>2026-04-18T14:38:21.999Z</time></trkpt><trkpt lat="43.852489799419054" lon="12.507701263455397"><ele>493.0</ele><time>2026-04-18T14:38:22.999Z</time></trkpt><trkpt lat="43.852591063536075" lon="12.507677922906568"><ele>493.0</ele><time>2026-04-18T14:38:23.999Z</time></trkpt><trkpt lat="43.8526923298005" lon="12.50765711828018"><ele>494.5</ele><time>2026-04-18T14:38:24.999Z</time></trkpt><trkpt lat="43.85280355716317" lon="12.507641026481142"><ele>496.0</ele><time>2026-04-18T14:38:25.999Z</time></trkpt><trkpt lat="43.85292003516532" lon="12.50761429208204"><ele>497.5</ele><time>2026-04-18T14:38:26.999Z</time></trkpt><trkpt lat="43.85304020262804" lon="12.507570441860064"><ele>499.0</ele><time>2026-04-18T14:38:28Z</time></trkpt><trkpt lat="43.85315772331564" lon="12.507518377156652"><ele>499.0</ele><time>2026-04-18T14:38:29Z</time></trkpt><trkpt lat="43.85327323389195" lon="12.507461567471848"><ele>499.0</ele><time>2026-04-18T14:38:30Z</time></trkpt><trkpt lat="43.85338366321487" lon="12.507398356221842"><ele>499.0</ele><time>2026-04-18T14:38:31Z</time></trkpt><trkpt lat="43.85349965158379" lon="12.507340980446429"><ele>499.0</ele><time>2026-04-18T14:38:32Z</time></trkpt><trkpt lat="43.85361903281297" lon="12.507295823697136"><ele>501.25</ele><time>2026-04-18T14:38:33Z</time></trkpt><trkpt lat="43.85373980246859" lon="12.507242886863377"><ele>503.5</ele><time>2026-04-18T14:38:34Z</time></trkpt><trkpt lat="43.85386042463303" lon="12.507190321760879"><ele>505.75</ele><time>2026-04-18T14:38:35Z</time></trkpt><trkpt lat="43.85398092781578" lon="12.507140158448742"><ele>508.0</ele><time>2026-04-18T14:38:36Z</time></trkpt><trkpt lat="43.85410160661917" lon="12.507089174054414"><ele>510.75</ele><time>2026-04-18T14:38:37Z</time></trkpt><trkpt lat="43.854220618320376" lon="12.507040176255877"><ele>513.5</ele><time>2026-04-18T14:38:38Z</time></trkpt><trkpt lat="43.85433579047166" lon="12.506985702702204"><ele>516.25</ele><time>2026-04-18T14:38:39Z</time></trkpt><trkpt lat="43.85444121391473" lon="12.506944385528003"><ele>519.0</ele><time>2026-04-18T14:38:40Z</time></trkpt><trkpt lat="43.854543757410916" lon="12.506932945278386"><ele>519.5</ele><time>2026-04-18T14:38:41Z</time></trkpt><trkpt lat="43.85464863070523" lon="12.506965025891578"><ele>520.0</ele><time>2026-04-18T14:38:42Z</time></trkpt><trkpt lat="43.85473636786436" lon="12.507079074306274"><ele>520.5</ele><time>2026-04-18T14:38:43Z</time></trkpt><trkpt lat="43.85483242300299" lon="12.5071967544471"><ele>521.0</ele><time>2026-04-18T14:38:44Z</time></trkpt><trkpt lat="43.85492669976765" lon="12.507331691644676"><ele>521.0</ele><time>2026-04-18T14:38:45Z</time></trkpt><trkpt lat="43.85502026401312" lon="12.507467665466775"><ele>521.0</ele><time>2026-04-18T14:38:46Z</time></trkpt><trkpt lat="43.855113275482104" lon="12.50759260715169"><ele>521.0</ele><time>2026-04-18T14:38:47Z</time></trkpt><trkpt lat="43.855201966943774" lon="12.507709615780605"><ele>521.0</ele><time>2026-04-18T14:38:48Z</time></trkpt><trkpt lat="43.85530520454863" lon="12.507801946763959"><ele>521.8</ele><time>2026-04-18T14:38:49Z</time></trkpt><trkpt lat="43.85540066433132" lon="12.507891386013288"><ele>522.6</ele><time>2026-04-18T14:38:50Z</time></trkpt><trkpt lat="43.855500266235545" lon="12.507968951832403"><ele>523.4</ele><time>2026-04-18T14:38:51Z</time></trkpt><trkpt lat="43.85559235998249" lon="12.50804050623736"><ele>524.2</ele><time>2026-04-18T14:38:52Z</time></trkpt><trkpt lat="43.8556819214665" lon="12.50810352401575"><ele>525.0</ele><time>2026-04-18T14:38:53Z</time></trkpt><trkpt lat="43.855759749136496" lon="12.50819596950409"><ele>525.0</ele><time>2026-04-18T14:38:54Z</time></trkpt><trkpt lat="43.85583760505093" lon="12.50826809112766"><ele>525.0</ele><time>2026-04-18T14:38:55Z</time></trkpt><trkpt lat="43.85591222284306" lon="12.508325125834453"><ele>525.0</ele><time>2026-04-18T14:38:56Z</time></trkpt><trkpt lat="43.85596524385588" lon="12.508416424669988"><ele>525.0</ele><time>2026-04-18T14:38:57Z</time></trkpt><trkpt lat="43.856004898819776" lon="12.508527478902579"><ele>525.0</ele><time>2026-04-18T14:38:58Z</time></trkpt><trkpt lat="43.856028358308805" lon="12.508664866477814"><ele>525.2</ele><time>2026-04-18T14:38:59Z</time></trkpt><trkpt lat="43.85610421570392" lon="12.508780406840986"><ele>525.4</ele><time>2026-04-18T14:39:00Z</time></trkpt><trkpt lat="43.85618398933327" lon="12.508887192505828"><ele>525.6</ele><time>2026-04-18T14:39:01Z</time></trkpt><trkpt lat="43.85625517263107" lon="12.50899469102407"><ele>525.8</ele><time>2026-04-18T14:39:02Z</time></trkpt><trkpt lat="43.85634006036942" lon="12.509062565855336"><ele>526.0</ele><time>2026-04-18T14:39:03Z</time></trkpt><trkpt lat="43.85641296672997" lon="12.509125157335488"><ele>526.0</ele><time>2026-04-18T14:39:04Z</time></trkpt><trkpt lat="43.85649020891587" lon="12.509156857271353"><ele>526.0</ele><time>2026-04-18T14:39:05Z</time></trkpt><trkpt lat="43.85657456598732" lon="12.509145239109323"><ele>526.0</ele><time>2026-04-18T14:39:06Z</time></trkpt><trkpt lat="43.85666391343262" lon="12.509117302197032"><ele>526.0</ele><time>2026-04-18T14:39:07Z</time></trkpt><trkpt lat="43.8567599583492" lon="12.50908488397744"><ele>526.0</ele><time>2026-04-18T14:39:08Z</time></trkpt><trkpt lat="43.856858804508875" lon="12.509046161135146"><ele>523.0</ele><time>2026-04-18T14:39:09Z</time></trkpt><trkpt lat="43.85695098881059" lon="12.508999802728098"><ele>520.0</ele><time>2026-04-18T14:39:10Z</time></trkpt><trkpt lat="43.857028415155646" lon="12.508927928555737"><ele>517.0</ele><time>2026-04-18T14:39:11Z</time></trkpt><trkpt lat="43.85708234206028" lon="12.508827988991253"><ele>514.0</ele><time>2026-04-18T14:39:12Z</time></trkpt><trkpt lat="43.857117444829015" lon="12.5086991119908"><ele>511.0</ele><time>2026-04-18T14:39:13Z</time></trkpt><trkpt lat="43.857129263762815" lon="12.508539228972708"><ele>511.0</ele><time>2026-04-18T14:39:14Z</time></trkpt><trkpt lat="43.85711596986742" lon="12.508360307564196"><ele>511.0</ele><time>2026-04-18T14:39:15Z</time></trkpt><trkpt lat="43.857099658003875" lon="12.508192299199768"><ele>511.0</ele><time>2026-04-18T14:39:16Z</time></trkpt><trkpt lat="43.85710138263819" lon="12.50802809441607"><ele>511.0</ele><time>2026-04-18T14:39:17Z</time></trkpt><trkpt lat="43.857137908725036" lon="12.507861327295332"><ele>511.5</ele><time>2026-04-18T14:39:18Z</time></trkpt><trkpt lat="43.85720385554544" lon="12.507695283242262"><ele>512.0</ele><time>2026-04-18T14:39:19Z</time></trkpt><trkpt lat="43.85728663304956" lon="12.507536460776722"><ele>512.5</ele><time>2026-04-18T14:39:20Z</time></trkpt><trkpt lat="43.85739627567064" lon="12.507405962860238"><ele>513.0</ele><time>2026-04-18T14:39:21Z</time></trkpt><trkpt lat="43.85748413208662" lon="12.507258493490978"><ele>513.0</ele><time>2026-04-18T14:39:22Z</time></trkpt><trkpt lat="43.85757658960116" lon="12.507129875233863"><ele>513.0</ele><time>2026-04-18T14:39:23Z</time></trkpt><trkpt lat="43.857663491986344" lon="12.506988330020658"><ele>513.0</ele><time>2026-04-18T14:39:24Z</time></trkpt><trkpt lat="43.85774534230849" lon="12.506901115242556"><ele>513.0</ele><time>2026-04-18T14:39:25Z</time></trkpt><trkpt lat="43.85782323221458" lon="12.506794026444062"><ele>511.59999999999997</ele><time>2026-04-18T14:39:26Z</time></trkpt><trkpt lat="43.85792144295553" lon="12.506746772721673"><ele>510.19999999999993</ele><time>2026-04-18T14:39:27Z</time></trkpt><trkpt lat="43.85802550292643" lon="12.506732520159172"><ele>508.8</ele><time>2026-04-18T14:39:28Z</time></trkpt><trkpt lat="43.858137721007466" lon="12.506748208171102"><ele>507.4</ele><time>2026-04-18T14:39:29Z</time></trkpt><trkpt lat="43.858259527081884" lon="12.506769772541846"><ele>506.0</ele><time>2026-04-18T14:39:30Z</time></trkpt><trkpt lat="43.85838814983232" lon="12.506792245106139"><ele>501.5</ele><time>2026-04-18T14:39:31Z</time></trkpt><trkpt lat="43.858505982245354" lon="12.506812193852344"><ele>497.0</ele><time>2026-04-18T14:39:32Z</time></trkpt><trkpt lat="43.8586165399686" lon="12.50681073864336"><ele>492.5</ele><time>2026-04-18T14:39:33Z</time></trkpt><trkpt lat="43.858725095068195" lon="12.506813865987295"><ele>488.0</ele><time>2026-04-18T14:39:34Z</time></trkpt><trkpt lat="43.858840114766565" lon="12.506793892659925"><ele>488.0</ele><time>2026-04-18T14:39:35Z</time></trkpt><trkpt lat="43.85895319853951" lon="12.506740240698708"><ele>488.0</ele><time>2026-04-18T14:39:36Z</time></trkpt><trkpt lat="43.85905954502412" lon="12.506675548817029"><ele>488.0</ele><time>2026-04-18T14:39:37Z</time></trkpt><trkpt lat="43.85916626561898" lon="12.506592415757627"><ele>488.0</ele><time>2026-04-18T14:39:38Z</time></trkpt><trkpt lat="43.85927695188982" lon="12.506511057585369"><ele>486.25</ele><time>2026-04-18T14:39:39Z</time></trkpt><trkpt lat="43.85939479636619" lon="12.506422230503901"><ele>484.5</ele><time>2026-04-18T14:39:40Z</time></trkpt><trkpt lat="43.859500529979854" lon="12.506340998618754"><ele>482.75</ele><time>2026-04-18T14:39:41Z</time></trkpt><trkpt lat="43.85959762805715" lon="12.50627326950155"><ele>481.0</ele><time>2026-04-18T14:39:42Z</time></trkpt><trkpt lat="43.85968816176286" lon="12.506208300894828"><ele>481.0</ele><time>2026-04-18T14:39:43Z</time></trkpt><trkpt lat="43.859781433151234" lon="12.50613815188105"><ele>481.0</ele><time>2026-04-18T14:39:44Z</time></trkpt><trkpt lat="43.859871453579444" lon="12.506063000192631"><ele>481.0</ele><time>2026-04-18T14:39:45Z</time></trkpt><trkpt lat="43.85997769972667" lon="12.50598676739771"><ele>481.0</ele><time>2026-04-18T14:39:46Z</time></trkpt><trkpt lat="43.860097460984285" lon="12.505926147010962"><ele>477.75</ele><time>2026-04-18T14:39:47Z</time></trkpt><trkpt lat="43.860233117378094" lon="12.50588528913466"><ele>474.5</ele><time>2026-04-18T14:39:48Z</time></trkpt><trkpt lat="43.860374421502144" lon="12.50585927850508"><ele>471.25</ele><time>2026-04-18T14:39:49Z</time></trkpt><trkpt lat="43.86051614362456" lon="12.50583818871021"><ele>468.0</ele><time>2026-04-18T14:39:50Z</time></trkpt><trkpt lat="43.86065408825152" lon="12.505822994186637"><ele>468.0</ele><time>2026-04-18T14:39:51Z</time></trkpt><trkpt lat="43.860791308754294" lon="12.505829965523954"><ele>468.0</ele><time>2026-04-18T14:39:52Z</time></trkpt><trkpt lat="43.86092886398856" lon="12.50584071940231"><ele>468.0</ele><time>2026-04-18T14:39:53Z</time></trkpt><trkpt lat="43.86106425773425" lon="12.505859205504139"><ele>468.0</ele><time>2026-04-18T14:39:54Z</time></trkpt><trkpt lat="43.86119829017358" lon="12.505881372806597"><ele>466.0</ele><time>2026-04-18T14:39:55Z</time></trkpt><trkpt lat="43.86133127811596" lon="12.50589869647011"><ele>464.0</ele><time>2026-04-18T14:39:56Z</time></trkpt><trkpt lat="43.86146503301032" lon="12.505902199077225"><ele>462.0</ele><time>2026-04-18T14:39:57Z</time></trkpt><trkpt lat="43.86159837036679" lon="12.505900715355525"><ele>460.0</ele><time>2026-04-18T14:39:58Z</time></trkpt><trkpt lat="43.861732456111916" lon="12.505893360128912"><ele>458.75</ele><time>2026-04-18T14:39:59Z</time></trkpt><trkpt lat="43.86186594392052" lon="12.505876771283466"><ele>457.5</ele><time>2026-04-18T14:40:00Z</time></trkpt><trkpt lat="43.861997378650855" lon="12.50585807299072"><ele>456.25</ele><time>2026-04-18T14:40:01Z</time></trkpt><trkpt lat="43.86212921817317" lon="12.505878092284107"><ele>455.0</ele><time>2026-04-18T14:40:02Z</time></trkpt><trkpt lat="43.862252989341414" lon="12.50587607900306"><ele>455.0</ele><time>2026-04-18T14:40:03Z</time></trkpt><trkpt lat="43.862370015025945" lon="12.505919610848137"><ele>455.0</ele><time>2026-04-18T14:40:04Z</time></trkpt><trkpt lat="43.862474977392274" lon="12.506002104463407"><ele>455.0</ele><time>2026-04-18T14:40:05Z</time></trkpt><trkpt lat="43.86258012078376" lon="12.50605477658133"><ele>455.0</ele><time>2026-04-18T14:40:06Z</time></trkpt><trkpt lat="43.8626660888866" lon="12.5061249925775"><ele>453.3333333333333</ele><time>2026-04-18T14:40:07Z</time></trkpt><trkpt lat="43.86274887237637" lon="12.506166906527547"><ele>451.66666666666663</ele><time>2026-04-18T14:40:08Z</time></trkpt><trkpt lat="43.86283635984462" lon="12.506168735136702"><ele>450.0</ele><time>2026-04-18T14:40:09Z</time></trkpt><trkpt lat="43.86291222518609" lon="12.506127299104003"><ele>448.33333333333337</ele><time>2026-04-18T14:40:10Z</time></trkpt><trkpt lat="43.862971601075415" lon="12.50606055617696"><ele>446.6666666666667</ele><time>2026-04-18T14:40:11Z</time></trkpt><trkpt lat="43.863024581536685" lon="12.505968263621153"><ele>445.0</ele><time>2026-04-18T14:40:12Z</time></trkpt><trkpt lat="43.863075491566256" lon="12.505844466637166"><ele>445.0</ele><time>2026-04-18T14:40:13Z</time></trkpt><trkpt lat="43.86312740249508" lon="12.505708903861354"><ele>445.0</ele><time>2026-04-18T14:40:14Z</time></trkpt><trkpt lat="43.86319011398968" lon="12.50558410617834"><ele>445.0</ele><time>2026-04-18T14:40:14.999Z</time></trkpt><trkpt lat="43.86326329583661" lon="12.505472394294136"><ele>445.0</ele><time>2026-04-18T14:40:15.999Z</time></trkpt><trkpt lat="43.86334831052817" lon="12.505375551322546"><ele>445.0</ele><time>2026-04-18T14:40:16.999Z</time></trkpt><trkpt lat="43.8634407798316" lon="12.505295813130548"><ele>441.5</ele><time>2026-04-18T14:40:17.999Z</time></trkpt><trkpt lat="43.863543756973314" lon="12.505234285863011"><ele>438.0</ele><time>2026-04-18T14:40:18.999Z</time></trkpt><trkpt lat="43.86366159725097" lon="12.505229842975952"><ele>434.5</ele><time>2026-04-18T14:40:19.999Z</time></trkpt><trkpt lat="43.86377309043923" lon="12.505258712190146"><ele>431.0</ele><time>2026-04-18T14:40:20.999Z</time></trkpt><trkpt lat="43.86390020735235" lon="12.505284566372804"><ele>431.0</ele><time>2026-04-18T14:40:21.999Z</time></trkpt><trkpt lat="43.86402541945997" lon="12.505316825633255"><ele>431.0</ele><time>2026-04-18T14:40:22.999Z</time></trkpt><trkpt lat="43.86415654400291" lon="12.505328271659783"><ele>431.0</ele><time>2026-04-18T14:40:23.999Z</time></trkpt><trkpt lat="43.86428610625913" lon="12.505364218727834"><ele>431.0</ele><time>2026-04-18T14:40:24.999Z</time></trkpt><trkpt lat="43.864413880429375" lon="12.505399387639407"><ele>430.0</ele><time>2026-04-18T14:40:25.999Z</time></trkpt><trkpt lat="43.8645403289191" lon="12.505428616285183"><ele>429.0</ele><time>2026-04-18T14:40:26.999Z</time></trkpt><trkpt lat="43.864666289824015" lon="12.50546033344224"><ele>428.0</ele><time>2026-04-18T14:40:27.999Z</time></trkpt><trkpt lat="43.8647951980539" lon="12.505491602803684"><ele>427.0</ele><time>2026-04-18T14:40:28.999Z</time></trkpt><trkpt lat="43.864924324459665" lon="12.505536039113835"><ele>427.0</ele><time>2026-04-18T14:40:29.999Z</time></trkpt><trkpt lat="43.865056542948146" lon="12.505564280597065"><ele>427.0</ele><time>2026-04-18T14:40:30.998Z</time></trkpt><trkpt lat="43.86519080196857" lon="12.505592433617016"><ele>427.0</ele><time>2026-04-18T14:40:31.998Z</time></trkpt><trkpt lat="43.86531807208602" lon="12.505627882479054"><ele>427.0</ele><time>2026-04-18T14:40:33Z</time></trkpt><trkpt lat="43.86543887578856" lon="12.505659052995227"><ele>425.8</ele><time>2026-04-18T14:40:34Z</time></trkpt><trkpt lat="43.86553735765556" lon="12.505717602342939"><ele>424.6</ele><time>2026-04-18T14:40:35Z</time></trkpt><trkpt lat="43.865620069634225" lon="12.505772273208049"><ele>423.40000000000003</ele><time>2026-04-18T14:40:36Z</time></trkpt><trkpt lat="43.86569631451047" lon="12.50583221846164"><ele>422.20000000000005</ele><time>2026-04-18T14:40:37Z</time></trkpt><trkpt lat="43.86573183210764" lon="12.50595447835957"><ele>421.0</ele><time>2026-04-18T14:40:38Z</time></trkpt><trkpt lat="43.86574436410627" lon="12.506081535108327"><ele>421.0</ele><time>2026-04-18T14:40:39Z</time></trkpt><trkpt lat="43.8657243149206" lon="12.506219560025425"><ele>421.0</ele><time>2026-04-18T14:40:40Z</time></trkpt><trkpt lat="43.86567549652687" lon="12.506362430012931"><ele>421.0</ele><time>2026-04-18T14:40:41Z</time></trkpt><trkpt lat="43.865627998511535" lon="12.506512522132777"><ele>421.0</ele><time>2026-04-18T14:40:42Z</time></trkpt><trkpt lat="43.86559098788151" lon="12.506660711191678"><ele>421.0</ele><time>2026-04-18T14:40:43Z</time></trkpt><trkpt lat="43.86552610113821" lon="12.506784729608208"><ele>420.1666666666667</ele><time>2026-04-18T14:40:44Z</time></trkpt><trkpt lat="43.865495727005744" lon="12.506902074252352"><ele>419.33333333333337</ele><time>2026-04-18T14:40:45Z</time></trkpt><trkpt lat="43.86547491189071" lon="12.507022082414922"><ele>418.5</ele><time>2026-04-18T14:40:46Z</time></trkpt><trkpt lat="43.86549796920899" lon="12.507149117705278"><ele>417.66666666666663</ele><time>2026-04-18T14:40:47Z</time></trkpt><trkpt lat="43.865534709025454" lon="12.507249939473814"><ele>416.8333333333333</ele><time>2026-04-18T14:40:48Z</time></trkpt><trkpt lat="43.86560910144358" lon="12.507322578341713"><ele>416.0</ele><time>2026-04-18T14:40:49Z</time></trkpt><trkpt lat="43.86570820055687" lon="12.507362034839804"><ele>412.75</ele><time>2026-04-18T14:40:50Z</time></trkpt><trkpt lat="43.86582655459253" lon="12.507359176539577"><ele>409.5</ele><time>2026-04-18T14:40:51Z</time></trkpt><trkpt lat="43.865946776623296" lon="12.507304627555435"><ele>406.25</ele><time>2026-04-18T14:40:52Z</time></trkpt><trkpt lat="43.866062109323785" lon="12.507220490436602"><ele>403.0</ele><time>2026-04-18T14:40:53Z</time></trkpt><trkpt lat="43.86616926496598" lon="12.507103217433153"><ele>403.25</ele><time>2026-04-18T14:40:54Z</time></trkpt><trkpt lat="43.86625880879172" lon="12.506963943118725"><ele>403.5</ele><time>2026-04-18T14:40:55Z</time></trkpt><trkpt lat="43.86633906153566" lon="12.506816582752464"><ele>403.75</ele><time>2026-04-18T14:40:56Z</time></trkpt><trkpt lat="43.8664289349151" lon="12.50667742225419"><ele>404.0</ele><time>2026-04-18T14:40:57Z</time></trkpt><trkpt lat="43.86651792412398" lon="12.506548625400006"><ele>404.0</ele><time>2026-04-18T14:40:58Z</time></trkpt><trkpt lat="43.86660467226907" lon="12.506419959054362"><ele>404.0</ele><time>2026-04-18T14:40:59Z</time></trkpt><trkpt lat="43.86668682781514" lon="12.506300583141364"><ele>404.0</ele><time>2026-04-18T14:41:00Z</time></trkpt><trkpt lat="43.866769012400354" lon="12.50619127612953"><ele>404.0</ele><time>2026-04-18T14:41:01Z</time></trkpt><trkpt lat="43.866858340858215" lon="12.506104081626438"><ele>403.0</ele><time>2026-04-18T14:41:02Z</time></trkpt><trkpt lat="43.866955977657675" lon="12.506050518792192"><ele>402.0</ele><time>2026-04-18T14:41:03Z</time></trkpt><trkpt lat="43.86706880279863" lon="12.506082229601786"><ele>401.0</ele><time>2026-04-18T14:41:04Z</time></trkpt><trkpt lat="43.86716623762055" lon="12.50612735628331"><ele>400.0</ele><time>2026-04-18T14:41:05Z</time></trkpt><trkpt lat="43.86728090024328" lon="12.506181974019965"><ele>399.0</ele><time>2026-04-18T14:41:06Z</time></trkpt><trkpt lat="43.86739499129209" lon="12.506237929582527"><ele>397.6</ele><time>2026-04-18T14:41:07Z</time></trkpt><trkpt lat="43.86750423300605" lon="12.506268436858297"><ele>396.2</ele><time>2026-04-18T14:41:08Z</time></trkpt><trkpt lat="43.86759961291475" lon="12.506309461090536"><ele>394.8</ele><time>2026-04-18T14:41:09Z</time></trkpt><trkpt lat="43.86768206732846" lon="12.506353587048784"><ele>393.40000000000003</ele><time>2026-04-18T14:41:10Z</time></trkpt><trkpt lat="43.867763252406" lon="12.506307009152984"><ele>392.0</ele><time>2026-04-18T14:41:11Z</time></trkpt><trkpt lat="43.86783540052136" lon="12.506244619965488"><ele>390.40000000000003</ele><time>2026-04-18T14:41:12Z</time></trkpt><trkpt lat="43.867889563383535" lon="12.506143880910175"><ele>388.8</ele><time>2026-04-18T14:41:13Z</time></trkpt><trkpt lat="43.86792002854287" lon="12.506010071653009"><ele>387.2</ele><time>2026-04-18T14:41:14Z</time></trkpt><trkpt lat="43.86793108983684" lon="12.50585549324481"><ele>385.6</ele><time>2026-04-18T14:41:15Z</time></trkpt><trkpt lat="43.86794197191857" lon="12.505693374327462"><ele>384.0</ele><time>2026-04-18T14:41:16Z</time></trkpt><trkpt lat="43.86795433370016" lon="12.505521682317536"><ele>383.0</ele><time>2026-04-18T14:41:17Z</time></trkpt><trkpt lat="43.867973593644834" lon="12.505352831797135"><ele>382.0</ele><time>2026-04-18T14:41:18Z</time></trkpt><trkpt lat="43.8679956798348" lon="12.505186337529665"><ele>381.0</ele><time>2026-04-18T14:41:19Z</time></trkpt><trkpt lat="43.86802816342408" lon="12.505024099609892"><ele>380.0</ele><time>2026-04-18T14:41:20Z</time></trkpt><trkpt lat="43.8680806510974" lon="12.504869515251675"><ele>380.0</ele><time>2026-04-18T14:41:20.999Z</time></trkpt><trkpt lat="43.86814554201026" lon="12.504725096474216"><ele>380.0</ele><time>2026-04-18T14:41:21.999Z</time></trkpt><trkpt lat="43.86821417860528" lon="12.504586882598426"><ele>380.0</ele><time>2026-04-18T14:41:22.999Z</time></trkpt><trkpt lat="43.86829173553168" lon="12.50445778419644"><ele>380.0</ele><time>2026-04-18T14:41:23.999Z</time></trkpt><trkpt lat="43.8683669411592" lon="12.50433372274786"><ele>380.2</ele><time>2026-04-18T14:41:24.999Z</time></trkpt><trkpt lat="43.86843175777598" lon="12.504216934878457"><ele>380.4</ele><time>2026-04-18T14:41:25.999Z</time></trkpt><trkpt lat="43.868476777803956" lon="12.504103414718424"><ele>380.6</ele><time>2026-04-18T14:41:26.999Z</time></trkpt><trkpt lat="43.868499595460904" lon="12.503990763113894"><ele>380.8</ele><time>2026-04-18T14:41:27.999Z</time></trkpt><trkpt lat="43.868491084320254" lon="12.503876099490265"><ele>381.0</ele><time>2026-04-18T14:41:28.999Z</time></trkpt><trkpt lat="43.86844361025371" lon="12.503778169587756"><ele>379.25</ele><time>2026-04-18T14:41:29.999Z</time></trkpt><trkpt lat="43.86836405232916" lon="12.503709058390367"><ele>377.5</ele><time>2026-04-18T14:41:30.999Z</time></trkpt><trkpt lat="43.86825606061876" lon="12.503666236272759"><ele>375.75</ele><time>2026-04-18T14:41:31.999Z</time></trkpt><trkpt lat="43.868133873268505" lon="12.503635654619499"><ele>374.0</ele><time>2026-04-18T14:41:32.999Z</time></trkpt><trkpt lat="43.86800093813164" lon="12.503617584841248"><ele>374.0</ele><time>2026-04-18T14:41:33.999Z</time></trkpt><trkpt lat="43.867869354861" lon="12.5035981399961"><ele>374.0</ele><time>2026-04-18T14:41:34.999Z</time></trkpt><trkpt lat="43.867736883867344" lon="12.503571646343396"><ele>374.0</ele><time>2026-04-18T14:41:35.999Z</time></trkpt><trkpt lat="43.86761184932499" lon="12.503542860955939"><ele>374.0</ele><time>2026-04-18T14:41:36.999Z</time></trkpt><trkpt lat="43.86749815957483" lon="12.503516924326206"><ele>374.2</ele><time>2026-04-18T14:41:37.999Z</time></trkpt><trkpt lat="43.867397319557654" lon="12.503489910564186"><ele>374.4</ele><time>2026-04-18T14:41:38.999Z</time></trkpt><trkpt lat="43.867303532157855" lon="12.503467622391083"><ele>374.6</ele><time>2026-04-18T14:41:39.999Z</time></trkpt><trkpt lat="43.86722008753344" lon="12.50341186586292"><ele>374.8</ele><time>2026-04-18T14:41:40.999Z</time></trkpt><trkpt lat="43.86715604252014" lon="12.503309744687764"><ele>375.0</ele><time>2026-04-18T14:41:41.999Z</time></trkpt><trkpt lat="43.86710228735966" lon="12.503181191219388"><ele>375.0</ele><time>2026-04-18T14:41:42.999Z</time></trkpt><trkpt lat="43.867069383505736" lon="12.503029808278614"><ele>375.0</ele><time>2026-04-18T14:41:43.999Z</time></trkpt><trkpt lat="43.86706487792092" lon="12.502870128323002"><ele>375.0</ele><time>2026-04-18T14:41:44.999Z</time></trkpt><trkpt lat="43.86709227056583" lon="12.502704096070474"><ele>375.0</ele><time>2026-04-18T14:41:45.999Z</time></trkpt><trkpt lat="43.867136747343736" lon="12.50254641715945"><ele>372.5</ele><time>2026-04-18T14:41:46.999Z</time></trkpt><trkpt lat="43.867214184593244" lon="12.502425230622437"><ele>370.0</ele><time>2026-04-18T14:41:47.999Z</time></trkpt><trkpt lat="43.86729493341955" lon="12.502316234791197"><ele>367.5</ele><time>2026-04-18T14:41:48.999Z</time></trkpt><trkpt lat="43.86740596826914" lon="12.502261622940944"><ele>365.0</ele><time>2026-04-18T14:41:49.999Z</time></trkpt><trkpt lat="43.86753188065294" lon="12.502201185782843"><ele>364.75</ele><time>2026-04-18T14:41:50.999Z</time></trkpt><trkpt lat="43.86766129704249" lon="12.502127451447084"><ele>364.5</ele><time>2026-04-18T14:41:51.999Z</time></trkpt><trkpt lat="43.86780280608026" lon="12.502066422762557"><ele>364.25</ele><time>2026-04-18T14:41:52.999Z</time></trkpt><trkpt lat="43.86794423035815" lon="12.501993414942692"><ele>364.0</ele><time>2026-04-18T14:41:53.999Z</time></trkpt><trkpt lat="43.86808246510304" lon="12.50192671937632"><ele>361.25</ele><time>2026-04-18T14:41:54.999Z</time></trkpt><trkpt lat="43.868220028496566" lon="12.501861090741048"><ele>358.5</ele><time>2026-04-18T14:41:55.999Z</time></trkpt><trkpt lat="43.86835596998534" lon="12.501811097384202"><ele>355.75</ele><time>2026-04-18T14:41:56.999Z</time></trkpt><trkpt lat="43.86849118730563" lon="12.501775706649388"><ele>353.0</ele><time>2026-04-18T14:41:57.999Z</time></trkpt><trkpt lat="43.86861972322315" lon="12.501737346790167"><ele>351.75</ele><time>2026-04-18T14:41:58.999Z</time></trkpt><trkpt lat="43.86874667376781" lon="12.501675320902583"><ele>350.5</ele><time>2026-04-18T14:41:59.999Z</time></trkpt><trkpt lat="43.868868770963445" lon="12.501601717754262"><ele>349.25</ele><time>2026-04-18T14:42:00.999Z</time></trkpt><trkpt lat="43.86898757057363" lon="12.501518392467231"><ele>348.0</ele><time>2026-04-18T14:42:01.999Z</time></trkpt><trkpt lat="43.869113736963534" lon="12.501461325985453"><ele>348.0</ele><time>2026-04-18T14:42:02.999Z</time></trkpt><trkpt lat="43.86922962772214" lon="12.501391493147553"><ele>348.0</ele><time>2026-04-18T14:42:03.999Z</time></trkpt><trkpt lat="43.86934727387035" lon="12.501324203428762"><ele>348.0</ele><time>2026-04-18T14:42:04.999Z</time></trkpt><trkpt lat="43.86945355296597" lon="12.501269146567521"><ele>348.0</ele><time>2026-04-18T14:42:05.999Z</time></trkpt><trkpt lat="43.86955354975938" lon="12.501224059192786"><ele>345.2</ele><time>2026-04-18T14:42:06.999Z</time></trkpt><trkpt lat="43.86965287798026" lon="12.501249493319648"><ele>342.4</ele><time>2026-04-18T14:42:07.999Z</time></trkpt><trkpt lat="43.869745459480484" lon="12.501290993100346"><ele>339.59999999999997</ele><time>2026-04-18T14:42:08.999Z</time></trkpt><trkpt lat="43.86983352222748" lon="12.501367039649642"><ele>336.79999999999995</ele><time>2026-04-18T14:42:09.999Z</time></trkpt><trkpt lat="43.86989817164927" lon="12.501485889532805"><ele>334.0</ele><time>2026-04-18T14:42:10.999Z</time></trkpt><trkpt lat="43.86995974746536" lon="12.501636029171454"><ele>334.0</ele><time>2026-04-18T14:42:11.999Z</time></trkpt><trkpt lat="43.87001544204211" lon="12.501813258713073"><ele>334.0</ele><time>2026-04-18T14:42:12.999Z</time></trkpt><trkpt lat="43.870070862607676" lon="12.501999257015791"><ele>334.0</ele><time>2026-04-18T14:42:13.999Z</time></trkpt><trkpt lat="43.870125937239166" lon="12.5021792871619"><ele>334.0</ele><time>2026-04-18T14:42:14.999Z</time></trkpt><trkpt lat="43.87020197548928" lon="12.502342698419989"><ele>330.75</ele><time>2026-04-18T14:42:15.999Z</time></trkpt><trkpt lat="43.870273130625314" lon="12.50250160456368"><ele>327.5</ele><time>2026-04-18T14:42:16.999Z</time></trkpt><trkpt lat="43.87036037342647" lon="12.502650036010305"><ele>324.25</ele><time>2026-04-18T14:42:17.999Z</time></trkpt><trkpt lat="43.87046061283366" lon="12.502775587201041"><ele>321.0</ele><time>2026-04-18T14:42:18.999Z</time></trkpt><trkpt lat="43.87057146445572" lon="12.502878616591486"><ele>321.4</ele><time>2026-04-18T14:42:19.999Z</time></trkpt><trkpt lat="43.87067304753085" lon="12.50295929948096"><ele>321.8</ele><time>2026-04-18T14:42:20.999Z</time></trkpt><trkpt lat="43.87076439767159" lon="12.503027106229132"><ele>322.2</ele><time>2026-04-18T14:42:21.999Z</time></trkpt><trkpt lat="43.87084238157489" lon="12.503083179420608"><ele>322.59999999999997</ele><time>2026-04-18T14:42:22.999Z</time></trkpt><trkpt lat="43.87091064585112" lon="12.503128125552779"><ele>323.0</ele><time>2026-04-18T14:42:23.999Z</time></trkpt><trkpt lat="43.870978048709055" lon="12.503143159311758"><ele>319.6666666666667</ele><time>2026-04-18T14:42:24.999Z</time></trkpt><trkpt lat="43.87104252755539" lon="12.503105401037182"><ele>316.33333333333337</ele><time>2026-04-18T14:42:25.999Z</time></trkpt><trkpt lat="43.87109637396725" lon="12.503019568214532"><ele>313.0</ele><time>2026-04-18T14:42:26.999Z</time></trkpt><trkpt lat="43.87112178793282" lon="12.502903721540896"><ele>309.6666666666667</ele><time>2026-04-18T14:42:27.999Z</time></trkpt><trkpt lat="43.871106201470155" lon="12.502787878820955"><ele>306.3333333333333</ele><time>2026-04-18T14:42:28.999Z</time></trkpt><trkpt lat="43.87105239934738" lon="12.502686598126322"><ele>303.0</ele><time>2026-04-18T14:42:29.999Z</time></trkpt><trkpt lat="43.870968086681636" lon="12.50259087196311"><ele>305.0</ele><time>2026-04-18T14:42:30.999Z</time></trkpt><trkpt lat="43.870891282519935" lon="12.502491183975994"><ele>307.0</ele><time>2026-04-18T14:42:31.999Z</time></trkpt><trkpt lat="43.87082337634228" lon="12.502388854913272"><ele>309.0</ele><time>2026-04-18T14:42:32.999Z</time></trkpt><trkpt lat="43.87077506497385" lon="12.502273665815895"><ele>311.0</ele><time>2026-04-18T14:42:33.999Z</time></trkpt><trkpt lat="43.87075382885065" lon="12.502117090166331"><ele>313.0</ele><time>2026-04-18T14:42:34.999Z</time></trkpt><trkpt lat="43.87077584314471" lon="12.501943652441641"><ele>313.0</ele><time>2026-04-18T14:42:35.999Z</time></trkpt><trkpt lat="43.87079811915652" lon="12.501770015748605"><ele>313.0</ele><time>2026-04-18T14:42:36.999Z</time></trkpt><trkpt lat="43.87083739359689" lon="12.501591498639298"><ele>313.0</ele><time>2026-04-18T14:42:37.999Z</time></trkpt><trkpt lat="43.870878403620836" lon="12.501415972722995"><ele>313.0</ele><time>2026-04-18T14:42:39Z</time></trkpt><trkpt lat="43.87090923842253" lon="12.501245239375343"><ele>306.5</ele><time>2026-04-18T14:42:40Z</time></trkpt><trkpt lat="43.87094635817107" lon="12.501108200255551"><ele>300.0</ele><time>2026-04-18T14:42:41Z</time></trkpt><trkpt lat="43.87096723088671" lon="12.500963512315833"><ele>293.5</ele><time>2026-04-18T14:42:42Z</time></trkpt><trkpt lat="43.87096630454055" lon="12.500801270386589"><ele>287.0</ele><time>2026-04-18T14:42:43Z</time></trkpt><trkpt lat="43.87094238635663" lon="12.50061264878175"><ele>290.0</ele><time>2026-04-18T14:42:44Z</time></trkpt><trkpt lat="43.87090280622634" lon="12.500430954392048"><ele>293.0</ele><time>2026-04-18T14:42:45Z</time></trkpt><trkpt lat="43.87086637721103" lon="12.500242460493423"><ele>296.0</ele><time>2026-04-18T14:42:46Z</time></trkpt><trkpt lat="43.87083933375468" lon="12.50005233457824"><ele>299.0</ele><time>2026-04-18T14:42:47Z</time></trkpt><trkpt lat="43.870814529151595" lon="12.499866294778352"><ele>299.0</ele><time>2026-04-18T14:42:48Z</time></trkpt><trkpt lat="43.870785100777645" lon="12.49967855024928"><ele>299.0</ele><time>2026-04-18T14:42:49Z</time></trkpt><trkpt lat="43.87076000904244" lon="12.499493816616017"><ele>299.0</ele><time>2026-04-18T14:42:50Z</time></trkpt><trkpt lat="43.870745908928036" lon="12.499314873912017"><ele>299.0</ele><time>2026-04-18T14:42:51Z</time></trkpt><trkpt lat="43.87074864681522" lon="12.499137614451788"><ele>298.0</ele><time>2026-04-18T14:42:52Z</time></trkpt><trkpt lat="43.87076746481295" lon="12.498961364326231"><ele>297.0</ele><time>2026-04-18T14:42:53Z</time></trkpt><trkpt lat="43.87083757881324" lon="12.498814023425147"><ele>296.0</ele><time>2026-04-18T14:42:54Z</time></trkpt><trkpt lat="43.87090857585846" lon="12.498674615651185"><ele>295.0</ele><time>2026-04-18T14:42:55Z</time></trkpt><trkpt lat="43.8709654266758" lon="12.49853346314608"><ele>288.5</ele><time>2026-04-18T14:42:56Z</time></trkpt><trkpt lat="43.871002636037964" lon="12.498372856150983"><ele>282.0</ele><time>2026-04-18T14:42:57Z</time></trkpt><trkpt lat="43.87101141988497" lon="12.498206647015795"><ele>275.5</ele><time>2026-04-18T14:42:58Z</time></trkpt><trkpt lat="43.87099473982523" lon="12.498030684363457"><ele>269.0</ele><time>2026-04-18T14:42:59Z</time></trkpt><trkpt lat="43.870955849963835" lon="12.497852723372716"><ele>272.5</ele><time>2026-04-18T14:43:00Z</time></trkpt><trkpt lat="43.8709065818982" lon="12.497669576459595"><ele>276.0</ele><time>2026-04-18T14:43:01Z</time></trkpt><trkpt lat="43.870836994711546" lon="12.497488933155516"><ele>279.5</ele><time>2026-04-18T14:43:02Z</time></trkpt><trkpt lat="43.87077191770656" lon="12.497310034750026"><ele>283.0</ele><time>2026-04-18T14:43:03Z</time></trkpt><trkpt lat="43.87071388967448" lon="12.497140995200871"><ele>281.4</ele><time>2026-04-18T14:43:04Z</time></trkpt><trkpt lat="43.87066312743285" lon="12.496983457035231"><ele>279.8</ele><time>2026-04-18T14:43:05Z</time></trkpt><trkpt lat="43.87062052512378" lon="12.496840292318558"><ele>278.2</ele><time>2026-04-18T14:43:06Z</time></trkpt><trkpt lat="43.8705922027039" lon="12.496708645455504"><ele>276.6</ele><time>2026-04-18T14:43:07Z</time></trkpt><trkpt lat="43.87058438293467" lon="12.49657303152115"><ele>275.0</ele><time>2026-04-18T14:43:08Z</time></trkpt><trkpt lat="43.87060610501599" lon="12.496435295834965"><ele>275.0</ele><time>2026-04-18T14:43:09Z</time></trkpt><trkpt lat="43.870652360845384" lon="12.496301477974423"><ele>275.0</ele><time>2026-04-18T14:43:10Z</time></trkpt><trkpt lat="43.87071863399802" lon="12.49616752859475"><ele>275.0</ele><time>2026-04-18T14:43:11Z</time></trkpt><trkpt lat="43.87080092372617" lon="12.496032435578307"><ele>275.0</ele><time>2026-04-18T14:43:12Z</time></trkpt><trkpt lat="43.87088618098513" lon="12.495889135328529"><ele>273.5</ele><time>2026-04-18T14:43:13Z</time></trkpt><trkpt lat="43.87096738040091" lon="12.49574244287943"><ele>272.0</ele><time>2026-04-18T14:43:14Z</time></trkpt><trkpt lat="43.871049225297924" lon="12.495595362146902"><ele>270.5</ele><time>2026-04-18T14:43:15Z</time></trkpt><trkpt lat="43.87112826434916" lon="12.495456195473018"><ele>269.0</ele><time>2026-04-18T14:43:16Z</time></trkpt><trkpt lat="43.871202698285295" lon="12.495323378946383"><ele>269.0</ele><time>2026-04-18T14:43:17Z</time></trkpt><trkpt lat="43.871267356728374" lon="12.49519844668605"><ele>269.0</ele><time>2026-04-18T14:43:18Z</time></trkpt><trkpt lat="43.871334068726" lon="12.495076330099177"><ele>269.0</ele><time>2026-04-18T14:43:19Z</time></trkpt><trkpt lat="43.87140010016454" lon="12.494959551822678"><ele>269.0</ele><time>2026-04-18T14:43:20Z</time></trkpt><trkpt lat="43.871463202793706" lon="12.494844331020103"><ele>269.0</ele><time>2026-04-18T14:43:21Z</time></trkpt><trkpt lat="43.871522274590106" lon="12.494723250282336"><ele>269.75</ele><time>2026-04-18T14:43:22Z</time></trkpt><trkpt lat="43.87157536266361" lon="12.494582656311511"><ele>270.5</ele><time>2026-04-18T14:43:23Z</time></trkpt><trkpt lat="43.871619416242304" lon="12.494430533324438"><ele>271.25</ele><time>2026-04-18T14:43:24Z</time></trkpt><trkpt lat="43.8716639785668" lon="12.494280302081805"><ele>272.0</ele><time>2026-04-18T14:43:25Z</time></trkpt><trkpt lat="43.87170118256455" lon="12.494143079918716"><ele>272.0</ele><time>2026-04-18T14:43:26Z</time></trkpt><trkpt lat="43.87172698486393" lon="12.494007192626965"><ele>272.0</ele><time>2026-04-18T14:43:27Z</time></trkpt><trkpt lat="43.871754959741594" lon="12.493892524235196"><ele>272.0</ele><time>2026-04-18T14:43:28Z</time></trkpt><trkpt lat="43.871785039583834" lon="12.493802349678331"><ele>272.0</ele><time>2026-04-18T14:43:29Z</time></trkpt><trkpt lat="43.8718435969965" lon="12.493713811154432"><ele>272.0</ele><time>2026-04-18T14:43:31Z</time></trkpt><trkpt lat="43.87192716034424" lon="12.49378976375266"><ele>272.0</ele><time>2026-04-18T14:43:32Z</time></trkpt><trkpt lat="43.87199874845741" lon="12.4938212494077"><ele>272.0</ele><time>2026-04-18T14:43:33Z</time></trkpt><trkpt lat="43.87209319335411" lon="12.493842867154953"><ele>272.0</ele><time>2026-04-18T14:43:34Z</time></trkpt><trkpt lat="43.87219418311267" lon="12.493886319524883"><ele>272.0</ele><time>2026-04-18T14:43:35Z</time></trkpt><trkpt lat="43.87230046474231" lon="12.49393924591492"><ele>272.0</ele><time>2026-04-18T14:43:36Z</time></trkpt><trkpt lat="43.872407585411764" lon="12.493991841455118"><ele>272.0</ele><time>2026-04-18T14:43:37Z</time></trkpt><trkpt lat="43.872522407987226" lon="12.494071662875923"><ele>275.25</ele><time>2026-04-18T14:43:38Z</time></trkpt><trkpt lat="43.87265137658578" lon="12.494125738023406"><ele>278.5</ele><time>2026-04-18T14:43:39Z</time></trkpt><trkpt lat="43.87277737892088" lon="12.494210295149292"><ele>281.75</ele><time>2026-04-18T14:43:40Z</time></trkpt><trkpt lat="43.87289461457263" lon="12.49429923040339"><ele>285.0</ele><time>2026-04-18T14:43:41Z</time></trkpt><trkpt lat="43.87300245861771" lon="12.494391023477604"><ele>285.0</ele><time>2026-04-18T14:43:42Z</time></trkpt><trkpt lat="43.873109672479806" lon="12.494474976432093"><ele>285.0</ele><time>2026-04-18T14:43:43Z</time></trkpt><trkpt lat="43.87321055359163" lon="12.494579664536658"><ele>285.0</ele><time>2026-04-18T14:43:44Z</time></trkpt><trkpt lat="43.873328547130974" lon="12.494654983492751"><ele>285.0</ele><time>2026-04-18T14:43:45Z</time></trkpt><trkpt lat="43.8734393796201" lon="12.494743617850757"><ele>284.75</ele><time>2026-04-18T14:43:46Z</time></trkpt><trkpt lat="43.87354871559897" lon="12.494837635750297"><ele>284.5</ele><time>2026-04-18T14:43:47Z</time></trkpt><trkpt lat="43.8736537604979" lon="12.494929831899883"><ele>284.25</ele><time>2026-04-18T14:43:48Z</time></trkpt><trkpt lat="43.873756048295526" lon="12.495019121420373"><ele>284.0</ele><time>2026-04-18T14:43:49Z</time></trkpt><trkpt lat="43.87385510896187" lon="12.495115551364524"><ele>284.0</ele><time>2026-04-18T14:43:50Z</time></trkpt><trkpt lat="43.87395017024168" lon="12.495221801888574"><ele>284.0</ele><time>2026-04-18T14:43:51Z</time></trkpt><trkpt lat="43.87404085500576" lon="12.495337155704553"><ele>284.0</ele><time>2026-04-18T14:43:52Z</time></trkpt><trkpt lat="43.874124090667046" lon="12.495458747766959"><ele>284.0</ele><time>2026-04-18T14:43:53Z</time></trkpt><trkpt lat="43.874208202765494" lon="12.495581434492884"><ele>282.0</ele><time>2026-04-18T14:43:54Z</time></trkpt><trkpt lat="43.874297251107485" lon="12.49568855386952"><ele>280.0</ele><time>2026-04-18T14:43:55Z</time></trkpt><trkpt lat="43.87439656773762" lon="12.495782353542939"><ele>278.0</ele><time>2026-04-18T14:43:56Z</time></trkpt><trkpt lat="43.87450814107144" lon="12.49585194506483"><ele>276.0</ele><time>2026-04-18T14:43:57Z</time></trkpt><trkpt lat="43.87461849432578" lon="12.495902519337358"><ele>276.0</ele><time>2026-04-18T14:43:58Z</time></trkpt><trkpt lat="43.874711302772305" lon="12.49593861296242"><ele>276.0</ele><time>2026-04-18T14:43:59Z</time></trkpt><trkpt lat="43.87478152734067" lon="12.495964637453758"><ele>276.0</ele><time>2026-04-18T14:44:00Z</time></trkpt><trkpt lat="43.87487266640732" lon="12.495989853584053"><ele>276.0</ele><time>2026-04-18T14:44:01.999Z</time></trkpt><trkpt lat="43.87496354070617" lon="12.495970338931619"><ele>276.0</ele><time>2026-04-18T14:44:05.999Z</time></trkpt><trkpt lat="43.875020516850824" lon="12.495862121793348"><ele>276.0</ele><time>2026-04-18T14:44:07.999Z</time></trkpt><trkpt lat="43.874975581350284" lon="12.495713205089269"><ele>276.0</ele><time>2026-04-18T14:44:09.999Z</time></trkpt><trkpt lat="43.87491787711818" lon="12.495654438709835"><ele>276.0</ele><time>2026-04-18T14:44:10.999Z</time></trkpt><trkpt lat="43.87483911536739" lon="12.495602750935255"><ele>276.0</ele><time>2026-04-18T14:44:11.999Z</time></trkpt><trkpt lat="43.874752239437065" lon="12.495557092380881"><ele>276.0</ele><time>2026-04-18T14:44:12.999Z</time></trkpt><trkpt lat="43.87466644575228" lon="12.495505221121789"><ele>276.0</ele><time>2026-04-18T14:44:13.999Z</time></trkpt><trkpt lat="43.87456677918328" lon="12.495450632917759"><ele>276.0</ele><time>2026-04-18T14:44:14.999Z</time></trkpt><trkpt lat="43.87445242262949" lon="12.495382896604424"><ele>276.0</ele><time>2026-04-18T14:44:15.999Z</time></trkpt><trkpt lat="43.874338706241645" lon="12.495310237633737"><ele>276.0</ele><time>2026-04-18T14:44:16.999Z</time></trkpt><trkpt lat="43.87422380934797" lon="12.495238655258097"><ele>278.0</ele><time>2026-04-18T14:44:17.999Z</time></trkpt><trkpt lat="43.874101389594465" lon="12.495159773230075"><ele>280.0</ele><time>2026-04-18T14:44:18.999Z</time></trkpt><trkpt lat="43.87397438594023" lon="12.495051533131834"><ele>282.0</ele><time>2026-04-18T14:44:19.999Z</time></trkpt><trkpt lat="43.8738619880557" lon="12.494921873882168"><ele>284.0</ele><time>2026-04-18T14:44:20.999Z</time></trkpt><trkpt lat="43.873756293630215" lon="12.494796583892635"><ele>284.0</ele><time>2026-04-18T14:44:21.999Z</time></trkpt><trkpt lat="43.873646279482216" lon="12.494674313638534"><ele>284.0</ele><time>2026-04-18T14:44:22.999Z</time></trkpt><trkpt lat="43.87353449419117" lon="12.4945522966673"><ele>284.0</ele><time>2026-04-18T14:44:23.999Z</time></trkpt><trkpt lat="43.87342522231852" lon="12.494426961724932"><ele>284.0</ele><time>2026-04-18T14:44:24.999Z</time></trkpt><trkpt lat="43.87331486784463" lon="12.494301387312847"><ele>284.25</ele><time>2026-04-18T14:44:25.999Z</time></trkpt><trkpt lat="43.87320416180716" lon="12.494178949238567"><ele>284.5</ele><time>2026-04-18T14:44:26.999Z</time></trkpt><trkpt lat="43.873094350598556" lon="12.494056451468994"><ele>284.75</ele><time>2026-04-18T14:44:27.999Z</time></trkpt><trkpt lat="43.87298782310867" lon="12.493940567361744"><ele>285.0</ele><time>2026-04-18T14:44:28.999Z</time></trkpt><trkpt lat="43.87289210478933" lon="12.493809821195317"><ele>285.5</ele><time>2026-04-18T14:44:29.999Z</time></trkpt><trkpt lat="43.87278893089769" lon="12.493693357096685"><ele>286.0</ele><time>2026-04-18T14:44:30.999Z</time></trkpt><trkpt lat="43.87268566755439" lon="12.493576791875972"><ele>286.5</ele><time>2026-04-18T14:44:31.999Z</time></trkpt><trkpt lat="43.87257429189453" lon="12.493471336711558"><ele>287.0</ele><time>2026-04-18T14:44:32.999Z</time></trkpt><trkpt lat="43.8724705007836" lon="12.493354109348623"><ele>287.0</ele><time>2026-04-18T14:44:33.999Z</time></trkpt><trkpt lat="43.872367992241834" lon="12.49323218419903"><ele>287.0</ele><time>2026-04-18T14:44:34.999Z</time></trkpt><trkpt lat="43.872258055406924" lon="12.4931160300555"><ele>287.0</ele><time>2026-04-18T14:44:35.999Z</time></trkpt><trkpt lat="43.87215166401868" lon="12.492988549364012"><ele>287.0</ele><time>2026-04-18T14:44:36.999Z</time></trkpt><trkpt lat="43.872039509789346" lon="12.492865012155967"><ele>286.75</ele><time>2026-04-18T14:44:37.999Z</time></trkpt><trkpt lat="43.87192554298538" lon="12.49273583445401"><ele>286.5</ele><time>2026-04-18T14:44:38.999Z</time></trkpt><trkpt lat="43.87181020073464" lon="12.492610403430199"><ele>286.25</ele><time>2026-04-18T14:44:39.999Z</time></trkpt><trkpt lat="43.87170729591984" lon="12.492463762805338"><ele>286.0</ele><time>2026-04-18T14:44:40.999Z</time></trkpt><trkpt lat="43.871585634853346" lon="12.49235144791292"><ele>286.0</ele><time>2026-04-18T14:44:41.999Z</time></trkpt><trkpt lat="43.87148474613867" lon="12.492201976911906"><ele>286.0</ele><time>2026-04-18T14:44:42.999Z</time></trkpt><trkpt lat="43.87139301629741" lon="12.492041740614962"><ele>286.0</ele><time>2026-04-18T14:44:43.999Z</time></trkpt><trkpt lat="43.87131142704699" lon="12.491868199547733"><ele>286.0</ele><time>2026-04-18T14:44:45Z</time></trkpt><trkpt lat="43.87124459358459" lon="12.491672385392421"><ele>291.3333333333333</ele><time>2026-04-18T14:44:46Z</time></trkpt><trkpt lat="43.871179732922684" lon="12.491475485724266"><ele>296.6666666666667</ele><time>2026-04-18T14:44:47Z</time></trkpt><trkpt lat="43.87110391178228" lon="12.49128768396748"><ele>302.0</ele><time>2026-04-18T14:44:48Z</time></trkpt><trkpt lat="43.87102490326446" lon="12.491107476652891"><ele>299.6666666666667</ele><time>2026-04-18T14:44:49Z</time></trkpt><trkpt lat="43.8709287699522" lon="12.490934664376747"><ele>297.3333333333333</ele><time>2026-04-18T14:44:50Z</time></trkpt><trkpt lat="43.870841176550414" lon="12.490752954847636"><ele>295.0</ele><time>2026-04-18T14:44:51Z</time></trkpt><trkpt lat="43.870751400924604" lon="12.49057777279216"><ele>297.25</ele><time>2026-04-18T14:44:52Z</time></trkpt><trkpt lat="43.87065576211286" lon="12.490416041680524"><ele>299.5</ele><time>2026-04-18T14:44:53Z</time></trkpt><trkpt lat="43.87056812058044" lon="12.490258002579274"><ele>301.75</ele><time>2026-04-18T14:44:54Z</time></trkpt><trkpt lat="43.8704885894022" lon="12.490094650930844"><ele>304.0</ele><time>2026-04-18T14:44:55Z</time></trkpt><trkpt lat="43.870415568695165" lon="12.489924365968854"><ele>304.0</ele><time>2026-04-18T14:44:56Z</time></trkpt><trkpt lat="43.87036641191765" lon="12.489758946362496"><ele>304.0</ele><time>2026-04-18T14:44:57Z</time></trkpt><trkpt lat="43.87034024759412" lon="12.489614178805402"><ele>304.0</ele><time>2026-04-18T14:44:58Z</time></trkpt><trkpt lat="43.87032343048939" lon="12.489482693214827"><ele>304.0</ele><time>2026-04-18T14:44:59Z</time></trkpt><trkpt lat="43.87031420952664" lon="12.489363103890383"><ele>304.0</ele><time>2026-04-18T14:45:00Z</time></trkpt><trkpt lat="43.87032258274655" lon="12.489257185487123"><ele>304.4</ele><time>2026-04-18T14:45:01Z</time></trkpt><trkpt lat="43.87034426813149" lon="12.489162612295619"><ele>304.79999999999995</ele><time>2026-04-18T14:45:02Z</time></trkpt><trkpt lat="43.87033394669255" lon="12.489027585793531"><ele>305.20000000000005</ele><time>2026-04-18T14:45:04Z</time></trkpt><trkpt lat="43.87028290559563" lon="12.488950143061853"><ele>305.6</ele><time>2026-04-18T14:45:06Z</time></trkpt><trkpt lat="43.870147123679565" lon="12.489025093540546"><ele>306.0</ele><time>2026-04-18T14:45:07Z</time></trkpt><trkpt lat="43.87006385154956" lon="12.489046957069073"><ele>303.40000000000003</ele><time>2026-04-18T14:45:08Z</time></trkpt><trkpt lat="43.86996996425056" lon="12.489067820982896"><ele>300.8</ele><time>2026-04-18T14:45:09Z</time></trkpt><trkpt lat="43.86987739634861" lon="12.489088946848575"><ele>298.20000000000005</ele><time>2026-04-18T14:45:10Z</time></trkpt><trkpt lat="43.86978510496915" lon="12.489088864014676"><ele>295.6</ele><time>2026-04-18T14:45:11Z</time></trkpt><trkpt lat="43.86969071657086" lon="12.489116661657572"><ele>293.0</ele><time>2026-04-18T14:45:12Z</time></trkpt><trkpt lat="43.869595793036915" lon="12.489099662822447"><ele>293.0</ele><time>2026-04-18T14:45:13Z</time></trkpt><trkpt lat="43.869526518842505" lon="12.48904652229733"><ele>293.0</ele><time>2026-04-18T14:45:14Z</time></trkpt><trkpt lat="43.86950842846847" lon="12.48886796875159"><ele>293.0</ele><time>2026-04-18T14:45:15Z</time></trkpt><trkpt lat="43.86945371523361" lon="12.488721142040239"><ele>293.0</ele><time>2026-04-18T14:45:16Z</time></trkpt><trkpt lat="43.86939873027757" lon="12.48857651227195"><ele>293.0</ele><time>2026-04-18T14:45:17Z</time></trkpt><trkpt lat="43.86934648408647" lon="12.488431509578525"><ele>293.0</ele><time>2026-04-18T14:45:18Z</time></trkpt><trkpt lat="43.86928919086206" lon="12.488288253718242"><ele>293.0</ele><time>2026-04-18T14:45:19Z</time></trkpt><trkpt lat="43.869235727121115" lon="12.488144858635337"><ele>293.0</ele><time>2026-04-18T14:45:20Z</time></trkpt><trkpt lat="43.86918031770443" lon="12.48800626856706"><ele>293.0</ele><time>2026-04-18T14:45:21Z</time></trkpt><trkpt lat="43.86911854032241" lon="12.487886649843992"><ele>293.0</ele><time>2026-04-18T14:45:22Z</time></trkpt><trkpt lat="43.86904505301762" lon="12.487794257496644"><ele>293.0</ele><time>2026-04-18T14:45:23Z</time></trkpt><trkpt lat="43.86895405624183" lon="12.487724738500418"><ele>293.0</ele><time>2026-04-18T14:45:24Z</time></trkpt><trkpt lat="43.86884513444584" lon="12.487672099569924"><ele>293.0</ele><time>2026-04-18T14:45:25Z</time></trkpt><trkpt lat="43.86872866299771" lon="12.487622701933049"><ele>293.0</ele><time>2026-04-18T14:45:26Z</time></trkpt><trkpt lat="43.86862722228757" lon="12.487552690561404"><ele>293.0</ele><time>2026-04-18T14:45:27Z</time></trkpt><trkpt lat="43.86852752370824" lon="12.487446129088736"><ele>293.0</ele><time>2026-04-18T14:45:28Z</time></trkpt><trkpt lat="43.86844354745598" lon="12.487315437638815"><ele>293.0</ele><time>2026-04-18T14:45:29Z</time></trkpt><trkpt lat="43.86837880247658" lon="12.487156325788854"><ele>293.0</ele><time>2026-04-18T14:45:30Z</time></trkpt><trkpt lat="43.868317198598724" lon="12.487021977836784"><ele>295.75</ele><time>2026-04-18T14:45:31Z</time></trkpt><trkpt lat="43.86825350521585" lon="12.486888491429248"><ele>298.5</ele><time>2026-04-18T14:45:32Z</time></trkpt><trkpt lat="43.8681736099498" lon="12.486761007921476"><ele>301.25</ele><time>2026-04-18T14:45:33Z</time></trkpt><trkpt lat="43.86806970415345" lon="12.486653328403344"><ele>304.0</ele><time>2026-04-18T14:45:34Z</time></trkpt><trkpt lat="43.867948775741866" lon="12.486568016207313"><ele>304.0</ele><time>2026-04-18T14:45:35Z</time></trkpt><trkpt lat="43.86782306303037" lon="12.486525860394883"><ele>304.0</ele><time>2026-04-18T14:45:36Z</time></trkpt><trkpt lat="43.86769205407146" lon="12.48650471142163"><ele>304.0</ele><time>2026-04-18T14:45:37Z</time></trkpt><trkpt lat="43.86756284951731" lon="12.486475501765833"><ele>304.0</ele><time>2026-04-18T14:45:38Z</time></trkpt><trkpt lat="43.86743737480833" lon="12.48641224504967"><ele>305.5</ele><time>2026-04-18T14:45:39Z</time></trkpt><trkpt lat="43.86732147711468" lon="12.486311656514776"><ele>307.0</ele><time>2026-04-18T14:45:40Z</time></trkpt><trkpt lat="43.86722577524432" lon="12.486190379006443"><ele>308.5</ele><time>2026-04-18T14:45:41Z</time></trkpt><trkpt lat="43.867143361228514" lon="12.486085686431283"><ele>310.0</ele><time>2026-04-18T14:45:42Z</time></trkpt><trkpt lat="43.86706659490974" lon="12.485994700996372"><ele>310.0</ele><time>2026-04-18T14:45:43Z</time></trkpt><trkpt lat="43.86699605326009" lon="12.485892117103184"><ele>310.0</ele><time>2026-04-18T14:45:44Z</time></trkpt><trkpt lat="43.86692120195453" lon="12.485780693358791"><ele>310.0</ele><time>2026-04-18T14:45:45Z</time></trkpt><trkpt lat="43.86683928855113" lon="12.485670136789706"><ele>310.0</ele><time>2026-04-18T14:45:46Z</time></trkpt><trkpt lat="43.86675053028614" lon="12.485565529769655"><ele>310.0</ele><time>2026-04-18T14:45:47Z</time></trkpt><trkpt lat="43.866649538817455" lon="12.485479351001121"><ele>310.75</ele><time>2026-04-18T14:45:48Z</time></trkpt><trkpt lat="43.866539004403236" lon="12.485415578174301"><ele>311.5</ele><time>2026-04-18T14:45:49Z</time></trkpt><trkpt lat="43.86642331460095" lon="12.485374470894708"><ele>312.25</ele><time>2026-04-18T14:45:50Z</time></trkpt><trkpt lat="43.866316565283014" lon="12.48532802786351"><ele>313.0</ele><time>2026-04-18T14:45:51Z</time></trkpt><trkpt lat="43.86621783768028" lon="12.485251473323464"><ele>313.0</ele><time>2026-04-18T14:45:52Z</time></trkpt><trkpt lat="43.86613802214154" lon="12.485146351408664"><ele>313.0</ele><time>2026-04-18T14:45:53Z</time></trkpt><trkpt lat="43.866085835241655" lon="12.48501042820312"><ele>313.0</ele><time>2026-04-18T14:45:54Z</time></trkpt><trkpt lat="43.86605040628001" lon="12.484852153521041"><ele>313.0</ele><time>2026-04-18T14:45:55Z</time></trkpt><trkpt lat="43.86603539515355" lon="12.484671695051292"><ele>315.75</ele><time>2026-04-18T14:45:56Z</time></trkpt><trkpt lat="43.866024553428" lon="12.484485707269373"><ele>318.5</ele><time>2026-04-18T14:45:57Z</time></trkpt><trkpt lat="43.86600653151807" lon="12.48429778253711"><ele>321.25</ele><time>2026-04-18T14:45:58Z</time></trkpt><trkpt lat="43.86599352415261" lon="12.484108593263183"><ele>324.0</ele><time>2026-04-18T14:45:59Z</time></trkpt><trkpt lat="43.86597268639272" lon="12.483923539160159"><ele>325.0</ele><time>2026-04-18T14:46:00Z</time></trkpt><trkpt lat="43.865962233808716" lon="12.48373658764431"><ele>326.0</ele><time>2026-04-18T14:46:01Z</time></trkpt><trkpt lat="43.86596465291448" lon="12.483547318636013"><ele>327.0</ele><time>2026-04-18T14:46:02Z</time></trkpt><trkpt lat="43.86598391959819" lon="12.483357338082392"><ele>328.0</ele><time>2026-04-18T14:46:03Z</time></trkpt><trkpt lat="43.86600846907415" lon="12.483167694279432"><ele>328.0</ele><time>2026-04-18T14:46:04Z</time></trkpt><trkpt lat="43.866026023142375" lon="12.48297275875643"><ele>328.0</ele><time>2026-04-18T14:46:05Z</time></trkpt><trkpt lat="43.86603774320391" lon="12.482777209272616"><ele>328.0</ele><time>2026-04-18T14:46:06Z</time></trkpt><trkpt lat="43.86604808567586" lon="12.482582474720616"><ele>328.0</ele><time>2026-04-18T14:46:07Z</time></trkpt><trkpt lat="43.86605022680714" lon="12.482393051442369"><ele>328.75</ele><time>2026-04-18T14:46:08Z</time></trkpt><trkpt lat="43.866042632654974" lon="12.482219062729667"><ele>329.5</ele><time>2026-04-18T14:46:09Z</time></trkpt><trkpt lat="43.86601712618267" lon="12.482061042789661"><ele>330.25</ele><time>2026-04-18T14:46:10Z</time></trkpt><trkpt lat="43.86598832573657" lon="12.481890783815242"><ele>331.0</ele><time>2026-04-18T14:46:11Z</time></trkpt><trkpt lat="43.86595965058282" lon="12.481717072933208"><ele>330.5</ele><time>2026-04-18T14:46:12Z</time></trkpt><trkpt lat="43.865937673288634" lon="12.481533951019335"><ele>330.0</ele><time>2026-04-18T14:46:13Z</time></trkpt><trkpt lat="43.86592456963699" lon="12.481360335229777"><ele>329.5</ele><time>2026-04-18T14:46:14Z</time></trkpt><trkpt lat="43.865903923957994" lon="12.481202856544893"><ele>329.0</ele><time>2026-04-18T14:46:15Z</time></trkpt><trkpt lat="43.86586838388952" lon="12.48106009011045"><ele>330.5</ele><time>2026-04-18T14:46:16Z</time></trkpt><trkpt lat="43.865809073646695" lon="12.4809317488722"><ele>332.0</ele><time>2026-04-18T14:46:17Z</time></trkpt><trkpt lat="43.865715646307066" lon="12.480812532999014"><ele>333.5</ele><time>2026-04-18T14:46:18Z</time></trkpt><trkpt lat="43.86560287570819" lon="12.480713237956296"><ele>335.0</ele><time>2026-04-18T14:46:19Z</time></trkpt><trkpt lat="43.86548203287695" lon="12.480620499714925"><ele>335.0</ele><time>2026-04-18T14:46:20Z</time></trkpt><trkpt lat="43.86536820297553" lon="12.48052818527053"><ele>335.0</ele><time>2026-04-18T14:46:21Z</time></trkpt><trkpt lat="43.865267337202" lon="12.480420903506749"><ele>335.0</ele><time>2026-04-18T14:46:22Z</time></trkpt><trkpt lat="43.8651746803507" lon="12.480293052711382"><ele>335.0</ele><time>2026-04-18T14:46:23Z</time></trkpt><trkpt lat="43.865093898787606" lon="12.480128896793746"><ele>335.33333333333337</ele><time>2026-04-18T14:46:24Z</time></trkpt><trkpt lat="43.86502817131734" lon="12.479940020035848"><ele>335.6666666666667</ele><time>2026-04-18T14:46:25Z</time></trkpt><trkpt lat="43.86496296379431" lon="12.479742786651764"><ele>336.0</ele><time>2026-04-18T14:46:26Z</time></trkpt><trkpt lat="43.86489575268635" lon="12.479544758154658"><ele>340.0</ele><time>2026-04-18T14:46:27Z</time></trkpt><trkpt lat="43.8648337858995" lon="12.479345376343787"><ele>344.0</ele><time>2026-04-18T14:46:28Z</time></trkpt><trkpt lat="43.86477493516053" lon="12.479154186253433"><ele>348.0</ele><time>2026-04-18T14:46:29Z</time></trkpt><trkpt lat="43.864709359488266" lon="12.478966246998002"><ele>348.0</ele><time>2026-04-18T14:46:30Z</time></trkpt><trkpt lat="43.8646368161209" lon="12.478783991274298"><ele>348.0</ele><time>2026-04-18T14:46:31Z</time></trkpt><trkpt lat="43.86455682654129" lon="12.478604991994724"><ele>348.0</ele><time>2026-04-18T14:46:32Z</time></trkpt><trkpt lat="43.86446442638811" lon="12.478435023011917"><ele>348.0</ele><time>2026-04-18T14:46:33Z</time></trkpt><trkpt lat="43.864363981517116" lon="12.478261250614127"><ele>348.0</ele><time>2026-04-18T14:46:34Z</time></trkpt><trkpt lat="43.86424850302077" lon="12.478116183250847"><ele>348.0</ele><time>2026-04-18T14:46:35Z</time></trkpt><trkpt lat="43.86412051261871" lon="12.477974161386086"><ele>352.3333333333333</ele><time>2026-04-18T14:46:36Z</time></trkpt><trkpt lat="43.86397982265881" lon="12.477863340807597"><ele>356.66666666666663</ele><time>2026-04-18T14:46:37Z</time></trkpt><trkpt lat="43.8638276975474" lon="12.4777637357902"><ele>361.0</ele><time>2026-04-18T14:46:38Z</time></trkpt><trkpt lat="43.86367109520937" lon="12.477685291782825"><ele>361.0</ele><time>2026-04-18T14:46:39Z</time></trkpt><trkpt lat="43.86351900274191" lon="12.47762096718422"><ele>361.0</ele><time>2026-04-18T14:46:40Z</time></trkpt><trkpt lat="43.863372262608685" lon="12.477561308202276"><ele>361.0</ele><time>2026-04-18T14:46:41Z</time></trkpt><trkpt lat="43.86323091556764" lon="12.477499100008556"><ele>358.3333333333333</ele><time>2026-04-18T14:46:42Z</time></trkpt><trkpt lat="43.86308889495925" lon="12.477411839262553"><ele>355.6666666666667</ele><time>2026-04-18T14:46:43Z</time></trkpt><trkpt lat="43.86294325108355" lon="12.477311096847654"><ele>353.0</ele><time>2026-04-18T14:46:44Z</time></trkpt><trkpt lat="43.86280466402271" lon="12.477178282051682"><ele>354.0</ele><time>2026-04-18T14:46:45Z</time></trkpt><trkpt lat="43.86266225510681" lon="12.477059519371826"><ele>355.0</ele><time>2026-04-18T14:46:46Z</time></trkpt><trkpt lat="43.862525235026965" lon="12.476946648538378"><ele>356.0</ele><time>2026-04-18T14:46:47Z</time></trkpt><trkpt lat="43.8623902515661" lon="12.476834695680969"><ele>356.0</ele><time>2026-04-18T14:46:48Z</time></trkpt><trkpt lat="43.862256381241245" lon="12.476726943199413"><ele>356.0</ele><time>2026-04-18T14:46:49Z</time></trkpt><trkpt lat="43.86212590727389" lon="12.476616408002526"><ele>356.0</ele><time>2026-04-18T14:46:50Z</time></trkpt><trkpt lat="43.861996896119464" lon="12.476513975299774"><ele>356.0</ele><time>2026-04-18T14:46:51.001Z</time></trkpt><trkpt lat="43.86187733631218" lon="12.476395010204296"><ele>356.0</ele><time>2026-04-18T14:46:52.001Z</time></trkpt><trkpt lat="43.86175276568002" lon="12.4762911366714"><ele>356.0</ele><time>2026-04-18T14:46:53.001Z</time></trkpt><trkpt lat="43.86162066029862" lon="12.476208758508035"><ele>356.0</ele><time>2026-04-18T14:46:54.001Z</time></trkpt><trkpt lat="43.86150102757468" lon="12.476105694643586"><ele>357.5</ele><time>2026-04-18T14:46:55.001Z</time></trkpt><trkpt lat="43.861386738438206" lon="12.476007441348992"><ele>359.0</ele><time>2026-04-18T14:46:56.001Z</time></trkpt><trkpt lat="43.861284071824585" lon="12.475907432570553"><ele>360.5</ele><time>2026-04-18T14:46:57.001Z</time></trkpt><trkpt lat="43.86118278624744" lon="12.475810557248844"><ele>362.0</ele><time>2026-04-18T14:46:58.001Z</time></trkpt><trkpt lat="43.86107605580266" lon="12.47570275723101"><ele>362.0</ele><time>2026-04-18T14:46:59.001Z</time></trkpt><trkpt lat="43.86096421763312" lon="12.475586457250682"><ele>362.0</ele><time>2026-04-18T14:47:00.001Z</time></trkpt><trkpt lat="43.86085418394979" lon="12.4754631942413"><ele>362.0</ele><time>2026-04-18T14:47:01.001Z</time></trkpt><trkpt lat="43.86074335466484" lon="12.475344016874372"><ele>362.0</ele><time>2026-04-18T14:47:02Z</time></trkpt><trkpt lat="43.86063714542073" lon="12.475219232407811"><ele>361.75</ele><time>2026-04-18T14:47:03Z</time></trkpt><trkpt lat="43.86052802535345" lon="12.475104751156989"><ele>361.5</ele><time>2026-04-18T14:47:04Z</time></trkpt><trkpt lat="43.86041765581791" lon="12.474986354974458"><ele>361.25</ele><time>2026-04-18T14:47:05Z</time></trkpt><trkpt lat="43.86029451701853" lon="12.474879816155578"><ele>361.0</ele><time>2026-04-18T14:47:06Z</time></trkpt><trkpt lat="43.8601623537124" lon="12.474792634783709"><ele>357.0</ele><time>2026-04-18T14:47:07Z</time></trkpt><trkpt lat="43.860023358874315" lon="12.474733003935452"><ele>353.0</ele><time>2026-04-18T14:47:08Z</time></trkpt><trkpt lat="43.85987788420574" lon="12.474701408270457"><ele>349.0</ele><time>2026-04-18T14:47:09Z</time></trkpt><trkpt lat="43.85973200554148" lon="12.474698117270172"><ele>345.0</ele><time>2026-04-18T14:47:10Z</time></trkpt><trkpt lat="43.859584987516236" lon="12.47469595761544"><ele>345.0</ele><time>2026-04-18T14:47:11Z</time></trkpt><trkpt lat="43.859439420678505" lon="12.47474975761302"><ele>345.0</ele><time>2026-04-18T14:47:12Z</time></trkpt><trkpt lat="43.85931392533117" lon="12.47484747766711"><ele>345.0</ele><time>2026-04-18T14:47:13Z</time></trkpt><trkpt lat="43.85919461581369" lon="12.474912464671739"><ele>345.0</ele><time>2026-04-18T14:47:14Z</time></trkpt><trkpt lat="43.859078217742045" lon="12.474934523443345"><ele>346.8</ele><time>2026-04-18T14:47:15Z</time></trkpt><trkpt lat="43.85897246556408" lon="12.47489894500583"><ele>348.6</ele><time>2026-04-18T14:47:16Z</time></trkpt><trkpt lat="43.85889866593446" lon="12.474815475403242"><ele>350.4</ele><time>2026-04-18T14:47:17Z</time></trkpt><trkpt lat="43.85884836072368" lon="12.474691631550163"><ele>352.2</ele><time>2026-04-18T14:47:18Z</time></trkpt><trkpt lat="43.85881867302288" lon="12.474538844875788"><ele>354.0</ele><time>2026-04-18T14:47:19Z</time></trkpt><trkpt lat="43.85880042628546" lon="12.474363263146891"><ele>357.25</ele><time>2026-04-18T14:47:20Z</time></trkpt><trkpt lat="43.858770407303986" lon="12.47419334893961"><ele>360.5</ele><time>2026-04-18T14:47:21Z</time></trkpt><trkpt lat="43.85873136644473" lon="12.474015636911949"><ele>363.75</ele><time>2026-04-18T14:47:22Z</time></trkpt><trkpt lat="43.85868114219029" lon="12.473832885315167"><ele>367.0</ele><time>2026-04-18T14:47:22.999Z</time></trkpt><trkpt lat="43.85862594062129" lon="12.473644004319562"><ele>367.66666666666663</ele><time>2026-04-18T14:47:23.999Z</time></trkpt><trkpt lat="43.85855011693695" lon="12.473451777236647"><ele>368.3333333333333</ele><time>2026-04-18T14:47:24.999Z</time></trkpt><trkpt lat="43.858466493365995" lon="12.473263520964228"><ele>369.0</ele><time>2026-04-18T14:47:25.999Z</time></trkpt><trkpt lat="43.85838325215995" lon="12.473074227697225"><ele>367.5</ele><time>2026-04-18T14:47:26.999Z</time></trkpt><trkpt lat="43.858309885024234" lon="12.472889827485368"><ele>366.0</ele><time>2026-04-18T14:47:27.999Z</time></trkpt><trkpt lat="43.85823529188667" lon="12.472713678900428"><ele>364.5</ele><time>2026-04-18T14:47:28.999Z</time></trkpt><trkpt lat="43.858160664673655" lon="12.472541533923375"><ele>363.0</ele><time>2026-04-18T14:47:29.999Z</time></trkpt><trkpt lat="43.85809084741884" lon="12.472369328299713"><ele>363.0</ele><time>2026-04-18T14:47:30.999Z</time></trkpt><trkpt lat="43.85803735147899" lon="12.472188984705962"><ele>363.0</ele><time>2026-04-18T14:47:31.999Z</time></trkpt><trkpt lat="43.85799494514386" lon="12.472000275879472"><ele>363.0</ele><time>2026-04-18T14:47:32.999Z</time></trkpt><trkpt lat="43.857972004088666" lon="12.471806959353838"><ele>363.0</ele><time>2026-04-18T14:47:33.999Z</time></trkpt><trkpt lat="43.857959562750885" lon="12.471610979444796"><ele>366.0</ele><time>2026-04-18T14:47:34.999Z</time></trkpt><trkpt lat="43.85793392223232" lon="12.471433843066546"><ele>369.0</ele><time>2026-04-18T14:47:35.999Z</time></trkpt><trkpt lat="43.85789091789194" lon="12.471243044557113"><ele>372.0</ele><time>2026-04-18T14:47:36.999Z</time></trkpt><trkpt lat="43.85782401352215" lon="12.471057204426485"><ele>375.0</ele><time>2026-04-18T14:47:37.999Z</time></trkpt><trkpt lat="43.85775679279794" lon="12.470869131201194"><ele>376.5</ele><time>2026-04-18T14:47:38.999Z</time></trkpt><trkpt lat="43.857670047039704" lon="12.470709897765417"><ele>378.0</ele><time>2026-04-18T14:47:39.999Z</time></trkpt><trkpt lat="43.857574453142135" lon="12.470573323880963"><ele>379.5</ele><time>2026-04-18T14:47:40.999Z</time></trkpt><trkpt lat="43.85745660644711" lon="12.470462570081402"><ele>381.0</ele><time>2026-04-18T14:47:41.999Z</time></trkpt><trkpt lat="43.857319380567034" lon="12.470375060819018"><ele>382.66666666666663</ele><time>2026-04-18T14:47:42.999Z</time></trkpt><trkpt lat="43.85717934544205" lon="12.470288678817457"><ele>384.3333333333333</ele><time>2026-04-18T14:47:43.999Z</time></trkpt><trkpt lat="43.857061203759166" lon="12.4701636578117"><ele>386.0</ele><time>2026-04-18T14:47:44.999Z</time></trkpt><trkpt lat="43.85695038337362" lon="12.470026680595678"><ele>386.0</ele><time>2026-04-18T14:47:45.999Z</time></trkpt><trkpt lat="43.85685027012327" lon="12.469864251457533"><ele>386.0</ele><time>2026-04-18T14:47:46.999Z</time></trkpt><trkpt lat="43.85674881941821" lon="12.469685234813937"><ele>386.0</ele><time>2026-04-18T14:47:47.999Z</time></trkpt><trkpt lat="43.856646326644544" lon="12.469506168345044"><ele>385.66666666666663</ele><time>2026-04-18T14:47:48.999Z</time></trkpt><trkpt lat="43.85653827310323" lon="12.46933132568798"><ele>385.33333333333337</ele><time>2026-04-18T14:47:49.999Z</time></trkpt><trkpt lat="43.85642171951576" lon="12.469159123152645"><ele>385.0</ele><time>2026-04-18T14:47:50.999Z</time></trkpt><trkpt lat="43.856301980558165" lon="12.468993777855689"><ele>385.0</ele><time>2026-04-18T14:47:51.999Z</time></trkpt><trkpt lat="43.85617845638293" lon="12.468831114465532"><ele>385.0</ele><time>2026-04-18T14:47:52.999Z</time></trkpt><trkpt lat="43.856053519327965" lon="12.468685164330076"><ele>385.0</ele><time>2026-04-18T14:47:53.999Z</time></trkpt><trkpt lat="43.85592294256598" lon="12.468553877587892"><ele>383.6666666666667</ele><time>2026-04-18T14:47:54.999Z</time></trkpt><trkpt lat="43.85578179084629" lon="12.468456312768662"><ele>382.33333333333337</ele><time>2026-04-18T14:47:55.999Z</time></trkpt><trkpt lat="43.855632891813855" lon="12.46835840782168"><ele>381.0</ele><time>2026-04-18T14:47:56.999Z</time></trkpt><trkpt lat="43.85547653742939" lon="12.46828774362946"><ele>381.0</ele><time>2026-04-18T14:47:57.999Z</time></trkpt><trkpt lat="43.85531976554412" lon="12.46822307540784"><ele>381.0</ele><time>2026-04-18T14:47:58.999Z</time></trkpt><trkpt lat="43.855163096921174" lon="12.468159604777442"><ele>381.0</ele><time>2026-04-18T14:47:59.999Z</time></trkpt><trkpt lat="43.85501399559882" lon="12.46805301962643"><ele>385.66666666666663</ele><time>2026-04-18T14:48:00.999Z</time></trkpt><trkpt lat="43.85485380076351" lon="12.46795252259712"><ele>390.3333333333333</ele><time>2026-04-18T14:48:01.999Z</time></trkpt><trkpt lat="43.8547052869877" lon="12.467829068177876"><ele>395.0</ele><time>2026-04-18T14:48:02.999Z</time></trkpt><trkpt lat="43.85456052872766" lon="12.467690372493445"><ele>395.0</ele><time>2026-04-18T14:48:03.999Z</time></trkpt><trkpt lat="43.854420980301654" lon="12.467550697181395"><ele>395.0</ele><time>2026-04-18T14:48:04.999Z</time></trkpt><trkpt lat="43.85426345729758" lon="12.467461878742839"><ele>395.0</ele><time>2026-04-18T14:48:05.999Z</time></trkpt><trkpt lat="43.85410277269337" lon="12.467372334383967"><ele>387.66666666666663</ele><time>2026-04-18T14:48:06.999Z</time></trkpt><trkpt lat="43.85394381058595" lon="12.46730360160775"><ele>380.3333333333333</ele><time>2026-04-18T14:48:07.999Z</time></trkpt><trkpt lat="43.85379103613393" lon="12.46722193297005"><ele>373.0</ele><time>2026-04-18T14:48:08.999Z</time></trkpt><trkpt lat="43.853624733472216" lon="12.467210178138485"><ele>367.66666666666663</ele><time>2026-04-18T14:48:09.999Z</time></trkpt><trkpt lat="43.8534519562408" lon="12.467201840750226"><ele>362.3333333333333</ele><time>2026-04-18T14:48:10.999Z</time></trkpt><trkpt lat="43.853279314535264" lon="12.467179854690054"><ele>357.0</ele><time>2026-04-18T14:48:11.999Z</time></trkpt><trkpt lat="43.85311611837419" lon="12.467134332920937"><ele>365.25</ele><time>2026-04-18T14:48:12.999Z</time></trkpt><trkpt lat="43.85296985495212" lon="12.467085081412138"><ele>373.5</ele><time>2026-04-18T14:48:13.999Z</time></trkpt><trkpt lat="43.85285245358989" lon="12.467012804212622"><ele>381.75</ele><time>2026-04-18T14:48:14.999Z</time></trkpt><trkpt lat="43.852750099396026" lon="12.466929778360802"><ele>390.0</ele><time>2026-04-18T14:48:15.999Z</time></trkpt><trkpt lat="43.85268079925044" lon="12.466799280441535"><ele>387.25</ele><time>2026-04-18T14:48:16.999Z</time></trkpt><trkpt lat="43.85261493927126" lon="12.466625957211393"><ele>384.5</ele><time>2026-04-18T14:48:17.999Z</time></trkpt><trkpt lat="43.8525499081714" lon="12.466438206602538"><ele>381.75</ele><time>2026-04-18T14:48:18.999Z</time></trkpt><trkpt lat="43.85245826593348" lon="12.466282795709304"><ele>379.0</ele><time>2026-04-18T14:48:19.999Z</time></trkpt><trkpt lat="43.85236354850889" lon="12.466137808692086"><ele>379.0</ele><time>2026-04-18T14:48:20.999Z</time></trkpt><trkpt lat="43.852246882574214" lon="12.466052346076902"><ele>379.0</ele><time>2026-04-18T14:48:21.999Z</time></trkpt><trkpt lat="43.85211297670622" lon="12.466013222977436"><ele>379.0</ele><time>2026-04-18T14:48:22.999Z</time></trkpt><trkpt lat="43.851975862434074" lon="12.465968661302524"><ele>379.0</ele><time>2026-04-18T14:48:23.999Z</time></trkpt><trkpt lat="43.85185807192806" lon="12.465864544575247"><ele>379.25</ele><time>2026-04-18T14:48:24.999Z</time></trkpt><trkpt lat="43.85174747389411" lon="12.465748690758296"><ele>379.5</ele><time>2026-04-18T14:48:25.999Z</time></trkpt><trkpt lat="43.8516357486341" lon="12.465616900906221"><ele>379.75</ele><time>2026-04-18T14:48:26.999Z</time></trkpt><trkpt lat="43.851528118984" lon="12.465472711214096"><ele>380.0</ele><time>2026-04-18T14:48:27.999Z</time></trkpt><trkpt lat="43.851423294800114" lon="12.465323478973081"><ele>380.0</ele><time>2026-04-18T14:48:28.999Z</time></trkpt><trkpt lat="43.851317646869795" lon="12.46517400974076"><ele>380.0</ele><time>2026-04-18T14:48:29.999Z</time></trkpt><trkpt lat="43.851198268437265" lon="12.465038767716331"><ele>380.0</ele><time>2026-04-18T14:48:30.999Z</time></trkpt><trkpt lat="43.85106381316334" lon="12.464932935317256"><ele>374.0</ele><time>2026-04-18T14:48:31.999Z</time></trkpt><trkpt lat="43.85091537404843" lon="12.464856544401583"><ele>368.0</ele><time>2026-04-18T14:48:32.999Z</time></trkpt><trkpt lat="43.85077877380538" lon="12.464739777000458"><ele>362.0</ele><time>2026-04-18T14:48:33.999Z</time></trkpt><trkpt lat="43.8506362562465" lon="12.464646411836036"><ele>364.6666666666667</ele><time>2026-04-18T14:48:34.999Z</time></trkpt><trkpt lat="43.85048563038966" lon="12.46456501377119"><ele>367.3333333333333</ele><time>2026-04-18T14:48:35.999Z</time></trkpt><trkpt lat="43.850349924167126" lon="12.464471778256033"><ele>370.0</ele><time>2026-04-18T14:48:36.999Z</time></trkpt><trkpt lat="43.85022263910119" lon="12.464390647339318"><ele>369.0</ele><time>2026-04-18T14:48:37.999Z</time></trkpt><trkpt lat="43.85010736734983" lon="12.464302465660724"><ele>368.0</ele><time>2026-04-18T14:48:38.999Z</time></trkpt><trkpt lat="43.850000903283686" lon="12.464213236618269"><ele>367.0</ele><time>2026-04-18T14:48:39.999Z</time></trkpt><trkpt lat="43.84990880192517" lon="12.46411024705235"><ele>366.0</ele><time>2026-04-18T14:48:40.999Z</time></trkpt><trkpt lat="43.84982893785864" lon="12.463973706617894"><ele>366.0</ele><time>2026-04-18T14:48:41.999Z</time></trkpt><trkpt lat="43.849750833034385" lon="12.463814329086482"><ele>366.0</ele><time>2026-04-18T14:48:42.999Z</time></trkpt><trkpt lat="43.849665382324" lon="12.463656945554613"><ele>366.0</ele><time>2026-04-18T14:48:43.999Z</time></trkpt><trkpt lat="43.849577489711905" lon="12.463486299480198"><ele>366.0</ele><time>2026-04-18T14:48:44.999Z</time></trkpt><trkpt lat="43.84951269815587" lon="12.463285663909323"><ele>369.0</ele><time>2026-04-18T14:48:45.999Z</time></trkpt><trkpt lat="43.849426564424725" lon="12.463096431781903"><ele>372.0</ele><time>2026-04-18T14:48:46.999Z</time></trkpt><trkpt lat="43.84933706282767" lon="12.462897679056711"><ele>375.0</ele><time>2026-04-18T14:48:47.999Z</time></trkpt><trkpt lat="43.84924538200827" lon="12.462694103876727"><ele>375.3333333333333</ele><time>2026-04-18T14:48:48.999Z</time></trkpt><trkpt lat="43.84913867080535" lon="12.462498860070777"><ele>375.66666666666663</ele><time>2026-04-18T14:48:49.999Z</time></trkpt><trkpt lat="43.84905874275115" lon="12.46228005842944"><ele>376.0</ele><time>2026-04-18T14:48:50.999Z</time></trkpt><trkpt lat="43.848966932579366" lon="12.462076680949485"><ele>380.3333333333333</ele><time>2026-04-18T14:48:51.999Z</time></trkpt><trkpt lat="43.848875853462616" lon="12.461877054943296"><ele>384.66666666666663</ele><time>2026-04-18T14:48:52.999Z</time></trkpt><trkpt lat="43.848771111063066" lon="12.461688108267722"><ele>389.0</ele><time>2026-04-18T14:48:53.999Z</time></trkpt><trkpt lat="43.848679890747455" lon="12.46148575983619"><ele>389.0</ele><time>2026-04-18T14:48:54.999Z</time></trkpt><trkpt lat="43.84858717286693" lon="12.461284032698295"><ele>389.0</ele><time>2026-04-18T14:48:55.999Z</time></trkpt><trkpt lat="43.84849371499118" lon="12.461088991629149"><ele>389.0</ele><time>2026-04-18T14:48:57Z</time></trkpt><trkpt lat="43.84840502447001" lon="12.460906548910247"><ele>389.3333333333333</ele><time>2026-04-18T14:48:58Z</time></trkpt><trkpt lat="43.84831663390253" lon="12.460733542255694"><ele>389.66666666666663</ele><time>2026-04-18T14:48:59Z</time></trkpt><trkpt lat="43.848219860950806" lon="12.460573222024305"><ele>390.0</ele><time>2026-04-18T14:49:00Z</time></trkpt><trkpt lat="43.84810416198821" lon="12.460428283698615"><ele>390.0</ele><time>2026-04-18T14:49:01Z</time></trkpt><trkpt lat="43.84797470977403" lon="12.460294620530794"><ele>390.0</ele><time>2026-04-18T14:49:02Z</time></trkpt><trkpt lat="43.847848006314855" lon="12.460148701392912"><ele>390.0</ele><time>2026-04-18T14:49:03Z</time></trkpt><trkpt lat="43.84771494504768" lon="12.46000978215186"><ele>387.5</ele><time>2026-04-18T14:49:04Z</time></trkpt><trkpt lat="43.8475944328751" lon="12.459882053109938"><ele>385.0</ele><time>2026-04-18T14:49:05Z</time></trkpt><trkpt lat="43.847498198999865" lon="12.459778345365988"><ele>382.5</ele><time>2026-04-18T14:49:06Z</time></trkpt><trkpt lat="43.84741711519943" lon="12.45969062462841"><ele>380.0</ele><time>2026-04-18T14:49:07Z</time></trkpt><trkpt lat="43.847328964166245" lon="12.459620595897944"><ele>382.8</ele><time>2026-04-18T14:49:08Z</time></trkpt><trkpt lat="43.84726570039811" lon="12.459518493188035"><ele>385.6</ele><time>2026-04-18T14:49:09Z</time></trkpt><trkpt lat="43.8471950505125" lon="12.4594271596324"><ele>388.4</ele><time>2026-04-18T14:49:10Z</time></trkpt><trkpt lat="43.847126915163535" lon="12.459329323704967"><ele>391.2</ele><time>2026-04-18T14:49:11Z</time></trkpt><trkpt lat="43.847055845901465" lon="12.459217828056827"><ele>394.0</ele><time>2026-04-18T14:49:12Z</time></trkpt><trkpt lat="43.846985554147416" lon="12.459094185621225"><ele>394.0</ele><time>2026-04-18T14:49:13Z</time></trkpt><trkpt lat="43.846913864683394" lon="12.458955658534851"><ele>394.0</ele><time>2026-04-18T14:49:14Z</time></trkpt><trkpt lat="43.846839424303234" lon="12.458808768401836"><ele>394.0</ele><time>2026-04-18T14:49:15Z</time></trkpt><trkpt lat="43.846763344669355" lon="12.458658229561888"><ele>394.0</ele><time>2026-04-18T14:49:16Z</time></trkpt><trkpt lat="43.846683891128464" lon="12.458501014838852"><ele>395.0</ele><time>2026-04-18T14:49:17Z</time></trkpt><trkpt lat="43.84659939550371" lon="12.45833619108122"><ele>396.0</ele><time>2026-04-18T14:49:18Z</time></trkpt><trkpt lat="43.846513602855026" lon="12.458174866593204"><ele>397.0</ele><time>2026-04-18T14:49:19Z</time></trkpt><trkpt lat="43.84642724874204" lon="12.4580124869635"><ele>398.0</ele><time>2026-04-18T14:49:20Z</time></trkpt><trkpt lat="43.84634006150092" lon="12.4578483783786"><ele>398.0</ele><time>2026-04-18T14:49:21Z</time></trkpt><trkpt lat="43.846251622931895" lon="12.457681747094991"><ele>398.0</ele><time>2026-04-18T14:49:22Z</time></trkpt><trkpt lat="43.846161249080524" lon="12.457511468582327"><ele>398.0</ele><time>2026-04-18T14:49:23Z</time></trkpt><trkpt lat="43.84606878768032" lon="12.45733611263205"><ele>398.0</ele><time>2026-04-18T14:49:24Z</time></trkpt><trkpt lat="43.84598080484271" lon="12.457160237487678"><ele>398.0</ele><time>2026-04-18T14:49:25Z</time></trkpt><trkpt lat="43.845889974343976" lon="12.456978670094353"><ele>398.0</ele><time>2026-04-18T14:49:26Z</time></trkpt><trkpt lat="43.8458000973776" lon="12.456799009737662"><ele>397.75</ele><time>2026-04-18T14:49:27Z</time></trkpt><trkpt lat="43.84571532398422" lon="12.4566313184955"><ele>397.5</ele><time>2026-04-18T14:49:28Z</time></trkpt><trkpt lat="43.84563311152195" lon="12.456468987699814"><ele>397.25</ele><time>2026-04-18T14:49:29Z</time></trkpt><trkpt lat="43.84555360894676" lon="12.456308844233195"><ele>397.0</ele><time>2026-04-18T14:49:30Z</time></trkpt><trkpt lat="43.84547540596746" lon="12.45614321531246"><ele>399.25</ele><time>2026-04-18T14:49:31Z</time></trkpt><trkpt lat="43.84540725246244" lon="12.455970741983105"><ele>401.5</ele><time>2026-04-18T14:49:32Z</time></trkpt><trkpt lat="43.84534534721929" lon="12.455791365346961"><ele>403.75</ele><time>2026-04-18T14:49:33Z</time></trkpt><trkpt lat="43.84528565049482" lon="12.455607425939801"><ele>406.0</ele><time>2026-04-18T14:49:34Z</time></trkpt><trkpt lat="43.84522201738069" lon="12.455419039091165"><ele>405.25</ele><time>2026-04-18T14:49:35Z</time></trkpt><trkpt lat="43.84515016572135" lon="12.455241337023214"><ele>404.5</ele><time>2026-04-18T14:49:36Z</time></trkpt><trkpt lat="43.84507161708026" lon="12.455072092905775"><ele>403.75</ele><time>2026-04-18T14:49:37Z</time></trkpt><trkpt lat="43.84498403454505" lon="12.454911740864665"><ele>403.0</ele><time>2026-04-18T14:49:38Z</time></trkpt><trkpt lat="43.84488076948407" lon="12.454768320040348"><ele>403.0</ele><time>2026-04-18T14:49:39Z</time></trkpt><trkpt lat="43.84475684595446" lon="12.454647776576564"><ele>403.0</ele><time>2026-04-18T14:49:40Z</time></trkpt><trkpt lat="43.844620322015764" lon="12.454567934522945"><ele>403.0</ele><time>2026-04-18T14:49:41Z</time></trkpt><trkpt lat="43.84449697812559" lon="12.45445858600248"><ele>403.0</ele><time>2026-04-18T14:49:42Z</time></trkpt><trkpt lat="43.844368677984185" lon="12.45436147480612"><ele>403.0</ele><time>2026-04-18T14:49:43Z</time></trkpt><trkpt lat="43.844251908036284" lon="12.454274738435975"><ele>403.0</ele><time>2026-04-18T14:49:44Z</time></trkpt><trkpt lat="43.84413034453518" lon="12.454204501124236"><ele>403.0</ele><time>2026-04-18T14:49:45Z</time></trkpt><trkpt lat="43.844026440490694" lon="12.454075794738833"><ele>403.0</ele><time>2026-04-18T14:49:46Z</time></trkpt><trkpt lat="43.84394866980843" lon="12.453904981677635"><ele>407.75</ele><time>2026-04-18T14:49:47Z</time></trkpt><trkpt lat="43.84386348865696" lon="12.453736696071212"><ele>412.5</ele><time>2026-04-18T14:49:48Z</time></trkpt><trkpt lat="43.843776853813665" lon="12.4535617380978"><ele>417.25</ele><time>2026-04-18T14:49:49Z</time></trkpt><trkpt lat="43.843693102120326" lon="12.453397046032793"><ele>422.0</ele><time>2026-04-18T14:49:50Z</time></trkpt><trkpt lat="43.84361794824255" lon="12.453247374288772"><ele>422.0</ele><time>2026-04-18T14:49:51Z</time></trkpt><trkpt lat="43.84354300002809" lon="12.453117696137651"><ele>422.0</ele><time>2026-04-18T14:49:52Z</time></trkpt><trkpt lat="43.8434894284418" lon="12.452982605161507"><ele>422.0</ele><time>2026-04-18T14:49:53Z</time></trkpt><trkpt lat="43.84348616805541" lon="12.452832868286084"><ele>422.0</ele><time>2026-04-18T14:49:54Z</time></trkpt><trkpt lat="43.84349082684176" lon="12.45268390947774"><ele>422.0</ele><time>2026-04-18T14:49:55Z</time></trkpt><trkpt lat="43.8435103699957" lon="12.45252850225928"><ele>423.5</ele><time>2026-04-18T14:49:56Z</time></trkpt><trkpt lat="43.84359805670836" lon="12.452412772726035"><ele>425.0</ele><time>2026-04-18T14:49:57Z</time></trkpt><trkpt lat="43.843687159337755" lon="12.45230693167165"><ele>426.5</ele><time>2026-04-18T14:49:58Z</time></trkpt><trkpt lat="43.843809072471856" lon="12.452245373877533"><ele>428.0</ele><time>2026-04-18T14:49:59Z</time></trkpt><trkpt lat="43.843934025522515" lon="12.452180671882122"><ele>428.59999999999997</ele><time>2026-04-18T14:50:00Z</time></trkpt><trkpt lat="43.8440443223631" lon="12.45211365711145"><ele>429.19999999999993</ele><time>2026-04-18T14:50:01Z</time></trkpt><trkpt lat="43.844142396316315" lon="12.452041949412559"><ele>429.8</ele><time>2026-04-18T14:50:02Z</time></trkpt><trkpt lat="43.84422872384632" lon="12.45195225334038"><ele>430.4</ele><time>2026-04-18T14:50:03Z</time></trkpt><trkpt lat="43.84429729202625" lon="12.451852036086251"><ele>431.0</ele><time>2026-04-18T14:50:04Z</time></trkpt><trkpt lat="43.84433698955089" lon="12.45172951005269"><ele>431.0</ele><time>2026-04-18T14:50:05Z</time></trkpt><trkpt lat="43.84433153661197" lon="12.451593878029279"><ele>431.0</ele><time>2026-04-18T14:50:06Z</time></trkpt><trkpt lat="43.84429557134655" lon="12.451465593007754"><ele>431.0</ele><time>2026-04-18T14:50:07Z</time></trkpt><trkpt lat="43.84422127974845" lon="12.451366801083383"><ele>431.0</ele><time>2026-04-18T14:50:08Z</time></trkpt><trkpt lat="43.84412665681351" lon="12.451318533948543"><ele>431.0</ele><time>2026-04-18T14:50:09Z</time></trkpt><trkpt lat="43.84400639752623" lon="12.451322441285392"><ele>429.5</ele><time>2026-04-18T14:50:09.999Z</time></trkpt><trkpt lat="43.843874178141135" lon="12.451329309753602"><ele>428.0</ele><time>2026-04-18T14:50:10.999Z</time></trkpt><trkpt lat="43.84373249624793" lon="12.451330654219593"><ele>426.5</ele><time>2026-04-18T14:50:11.999Z</time></trkpt><trkpt lat="43.84359894782399" lon="12.451281062815967"><ele>425.0</ele><time>2026-04-18T14:50:12.999Z</time></trkpt><trkpt lat="43.84346954950587" lon="12.451240224510142"><ele>425.8</ele><time>2026-04-18T14:50:13.999Z</time></trkpt><trkpt lat="43.843364904315905" lon="12.451180691351157"><ele>426.6</ele><time>2026-04-18T14:50:14.999Z</time></trkpt><trkpt lat="43.84326837221306" lon="12.451128955713783"><ele>427.4</ele><time>2026-04-18T14:50:15.999Z</time></trkpt><trkpt lat="43.84319716589511" lon="12.451028862058237"><ele>428.2</ele><time>2026-04-18T14:50:16.999Z</time></trkpt><trkpt lat="43.843151883549254" lon="12.450903689479356"><ele>429.0</ele><time>2026-04-18T14:50:17.999Z</time></trkpt><trkpt lat="43.84314277136111" lon="12.450762502176039"><ele>429.0</ele><time>2026-04-18T14:50:18.999Z</time></trkpt><trkpt lat="43.84313393005586" lon="12.450598822091056"><ele>429.0</ele><time>2026-04-18T14:50:19.999Z</time></trkpt><trkpt lat="43.84315904138674" lon="12.450422775612841"><ele>429.0</ele><time>2026-04-18T14:50:20.999Z</time></trkpt><trkpt lat="43.84320040764078" lon="12.450237655329438"><ele>429.0</ele><time>2026-04-18T14:50:21.999Z</time></trkpt><trkpt lat="43.84324438766233" lon="12.450047403529286"><ele>429.5</ele><time>2026-04-18T14:50:22.999Z</time></trkpt><trkpt lat="43.843288365069" lon="12.449849433708948"><ele>430.0</ele><time>2026-04-18T14:50:23.999Z</time></trkpt><trkpt lat="43.84332364567033" lon="12.449653479047251"><ele>430.5</ele><time>2026-04-18T14:50:24.999Z</time></trkpt><trkpt lat="43.8433658034724" lon="12.44945699255412"><ele>431.0</ele><time>2026-04-18T14:50:25.999Z</time></trkpt><trkpt lat="43.84340860606463" lon="12.449259524939972"><ele>433.3333333333333</ele><time>2026-04-18T14:50:26.999Z</time></trkpt><trkpt lat="43.843469809822814" lon="12.44907792140899"><ele>435.66666666666663</ele><time>2026-04-18T14:50:27.999Z</time></trkpt><trkpt lat="43.843548156276064" lon="12.448893317150652"><ele>438.0</ele><time>2026-04-18T14:50:28.999Z</time></trkpt><trkpt lat="43.84363659801771" lon="12.448705640790259"><ele>438.66666666666663</ele><time>2026-04-18T14:50:29.999Z</time></trkpt><trkpt lat="43.84371262087735" lon="12.448501670381509"><ele>439.3333333333333</ele><time>2026-04-18T14:50:30.999Z</time></trkpt><trkpt lat="43.843790681758485" lon="12.448293312331897"><ele>440.0</ele><time>2026-04-18T14:50:31.999Z</time></trkpt><trkpt lat="43.843874331810945" lon="12.448086417012988"><ele>440.66666666666663</ele><time>2026-04-18T14:50:32.999Z</time></trkpt><trkpt lat="43.84395962096709" lon="12.447878440157519"><ele>441.33333333333337</ele><time>2026-04-18T14:50:33.999Z</time></trkpt><trkpt lat="43.84404678861041" lon="12.447667686092059"><ele>442.0</ele><time>2026-04-18T14:50:34.999Z</time></trkpt><trkpt lat="43.844134145827745" lon="12.447457484558138"><ele>442.0</ele><time>2026-04-18T14:50:35.999Z</time></trkpt><trkpt lat="43.84422032936024" lon="12.447242812483433"><ele>442.0</ele><time>2026-04-18T14:50:36.999Z</time></trkpt><trkpt lat="43.84430779336553" lon="12.447030978198995"><ele>442.0</ele><time>2026-04-18T14:50:37.999Z</time></trkpt><trkpt lat="43.844391814616316" lon="12.446820220069096"><ele>444.0</ele><time>2026-04-18T14:50:38.999Z</time></trkpt><trkpt lat="43.84447490004238" lon="12.446620656988662"><ele>446.0</ele><time>2026-04-18T14:50:39.999Z</time></trkpt><trkpt lat="43.844557082470736" lon="12.44643026016046"><ele>448.0</ele><time>2026-04-18T14:50:40.999Z</time></trkpt><trkpt lat="43.84463838873589" lon="12.446246757556924"><ele>448.0</ele><time>2026-04-18T14:50:41.999Z</time></trkpt><trkpt lat="43.84471752262148" lon="12.446059110581398"><ele>448.0</ele><time>2026-04-18T14:50:42.999Z</time></trkpt><trkpt lat="43.84479125320966" lon="12.445867567746573"><ele>448.0</ele><time>2026-04-18T14:50:43.999Z</time></trkpt><trkpt lat="43.844848762589734" lon="12.445656020318987"><ele>446.6666666666667</ele><time>2026-04-18T14:50:44.999Z</time></trkpt><trkpt lat="43.844892119723156" lon="12.445427795727692"><ele>445.33333333333337</ele><time>2026-04-18T14:50:45.999Z</time></trkpt><trkpt lat="43.84491606888064" lon="12.445184647500774"><ele>444.0</ele><time>2026-04-18T14:50:46.999Z</time></trkpt><trkpt lat="43.844925257445155" lon="12.444938198034501"><ele>444.0</ele><time>2026-04-18T14:50:47.999Z</time></trkpt><trkpt lat="43.84494157368343" lon="12.444684141112461"><ele>444.0</ele><time>2026-04-18T14:50:48.999Z</time></trkpt><trkpt lat="43.844947914091776" lon="12.444427316696617"><ele>444.0</ele><time>2026-04-18T14:50:49.999Z</time></trkpt><trkpt lat="43.84495423977505" lon="12.444171088756175"><ele>442.66666666666663</ele><time>2026-04-18T14:50:50.999Z</time></trkpt><trkpt lat="43.844944435898576" lon="12.443919117683096"><ele>441.3333333333333</ele><time>2026-04-18T14:50:51.999Z</time></trkpt><trkpt lat="43.84495130831598" lon="12.443677877143644"><ele>440.0</ele><time>2026-04-18T14:50:52.999Z</time></trkpt><trkpt lat="43.84495691418824" lon="12.443449812265458"><ele>439.75</ele><time>2026-04-18T14:50:53.999Z</time></trkpt><trkpt lat="43.8449678677" lon="12.443233560709976"><ele>439.5</ele><time>2026-04-18T14:50:54.999Z</time></trkpt><trkpt lat="43.84499172336734" lon="12.443035022674454"><ele>439.25</ele><time>2026-04-18T14:50:55.999Z</time></trkpt><trkpt lat="43.84504520022446" lon="12.442856952161009"><ele>439.0</ele><time>2026-04-18T14:50:56.999Z</time></trkpt><trkpt lat="43.845121040824516" lon="12.442710738746781"><ele>441.75</ele><time>2026-04-18T14:50:57.999Z</time></trkpt><trkpt lat="43.84523029958207" lon="12.442602338244813"><ele>444.5</ele><time>2026-04-18T14:50:58.999Z</time></trkpt><trkpt lat="43.84535507801437" lon="12.44250876607678"><ele>447.25</ele><time>2026-04-18T14:50:59.999Z</time></trkpt><trkpt lat="43.84549585589237" lon="12.442461231846826"><ele>450.0</ele><time>2026-04-18T14:51:00.999Z</time></trkpt><trkpt lat="43.84563591515296" lon="12.442396694228897"><ele>450.0</ele><time>2026-04-18T14:51:01.999Z</time></trkpt><trkpt lat="43.84577096988671" lon="12.442311669423844"><ele>450.0</ele><time>2026-04-18T14:51:03Z</time></trkpt><trkpt lat="43.8459097470049" lon="12.442247733877473"><ele>450.0</ele><time>2026-04-18T14:51:04Z</time></trkpt><trkpt lat="43.8460407702278" lon="12.442192107038466"><ele>450.0</ele><time>2026-04-18T14:51:05Z</time></trkpt><trkpt lat="43.846156777827886" lon="12.442140919122304"><ele>450.25</ele><time>2026-04-18T14:51:06Z</time></trkpt><trkpt lat="43.846250624863686" lon="12.442058714503592"><ele>450.5</ele><time>2026-04-18T14:51:07Z</time></trkpt><trkpt lat="43.846326625380954" lon="12.44195285944623"><ele>450.75</ele><time>2026-04-18T14:51:08Z</time></trkpt><trkpt lat="43.846374981388834" lon="12.44180213945052"><ele>451.0</ele><time>2026-04-18T14:51:09Z</time></trkpt><trkpt lat="43.84640286077945" lon="12.441633117247589"><ele>451.0</ele><time>2026-04-18T14:51:10Z</time></trkpt><trkpt lat="43.846410474087065" lon="12.441449455060463"><ele>451.0</ele><time>2026-04-18T14:51:11Z</time></trkpt><trkpt lat="43.84642377436113" lon="12.441271146815177"><ele>451.0</ele><time>2026-04-18T14:51:12Z</time></trkpt><trkpt lat="43.84641877356338" lon="12.441086639583368"><ele>451.0</ele><time>2026-04-18T14:51:13Z</time></trkpt><trkpt lat="43.84638197779713" lon="12.440899384575182"><ele>452.25</ele><time>2026-04-18T14:51:14Z</time></trkpt><trkpt lat="43.846311582361615" lon="12.440736340140623"><ele>453.5</ele><time>2026-04-18T14:51:15Z</time></trkpt><trkpt lat="43.84621562988206" lon="12.440591798430672"><ele>454.75</ele><time>2026-04-18T14:51:16Z</time></trkpt><trkpt lat="43.846106601916595" lon="12.440457253850411"><ele>456.0</ele><time>2026-04-18T14:51:17Z</time></trkpt><trkpt lat="43.846006307841435" lon="12.440320724797967"><ele>454.25</ele><time>2026-04-18T14:51:18Z</time></trkpt><trkpt lat="43.84590496944147" lon="12.44020749579174"><ele>452.5</ele><time>2026-04-18T14:51:19Z</time></trkpt><trkpt lat="43.8458038858146" lon="12.440106508684048"><ele>450.75</ele><time>2026-04-18T14:51:20Z</time></trkpt><trkpt lat="43.845738991545865" lon="12.43996463414951"><ele>449.0</ele><time>2026-04-18T14:51:21Z</time></trkpt><trkpt lat="43.84569713498932" lon="12.439813841768268"><ele>449.0</ele><time>2026-04-18T14:51:22Z</time></trkpt><trkpt lat="43.845674959787374" lon="12.439675564395849"><ele>449.0</ele><time>2026-04-18T14:51:23Z</time></trkpt><trkpt lat="43.845671928408805" lon="12.439523138872723"><ele>449.0</ele><time>2026-04-18T14:51:24Z</time></trkpt><trkpt lat="43.84567470118407" lon="12.439344796152437"><ele>449.0</ele><time>2026-04-18T14:51:25Z</time></trkpt><trkpt lat="43.845679332576665" lon="12.439142370271576"><ele>450.0</ele><time>2026-04-18T14:51:26Z</time></trkpt><trkpt lat="43.84570403265634" lon="12.438917670058718"><ele>451.0</ele><time>2026-04-18T14:51:27Z</time></trkpt><trkpt lat="43.84571312470799" lon="12.43868818240599"><ele>452.0</ele><time>2026-04-18T14:51:28Z</time></trkpt><trkpt lat="43.84572146609051" lon="12.43847764219131"><ele>452.0</ele><time>2026-04-18T14:51:29Z</time></trkpt><trkpt lat="43.84572934303784" lon="12.438244553083464"><ele>452.0</ele><time>2026-04-18T14:51:30Z</time></trkpt><trkpt lat="43.84572460523634" lon="12.438013362908555"><ele>452.0</ele><time>2026-04-18T14:51:31Z</time></trkpt><trkpt lat="43.845742104260516" lon="12.437783287742224"><ele>452.0</ele><time>2026-04-18T14:51:32Z</time></trkpt><trkpt lat="43.845756195295515" lon="12.43754410924391"><ele>452.0</ele><time>2026-04-18T14:51:33Z</time></trkpt><trkpt lat="43.84576716662752" lon="12.437308363060417"><ele>452.0</ele><time>2026-04-18T14:51:34Z</time></trkpt><trkpt lat="43.84577945837389" lon="12.437060811774966"><ele>452.3333333333333</ele><time>2026-04-18T14:51:35Z</time></trkpt><trkpt lat="43.845766011930394" lon="12.436807320975923"><ele>452.66666666666663</ele><time>2026-04-18T14:51:36Z</time></trkpt><trkpt lat="43.84574721946089" lon="12.436554767115554"><ele>453.0</ele><time>2026-04-18T14:51:37Z</time></trkpt><trkpt lat="43.84572649507459" lon="12.436297579106144"><ele>454.33333333333337</ele><time>2026-04-18T14:51:38Z</time></trkpt><trkpt lat="43.845708742966835" lon="12.436047944338984"><ele>455.6666666666667</ele><time>2026-04-18T14:51:39Z</time></trkpt><trkpt lat="43.84569474567581" lon="12.435799836037786"><ele>457.0</ele><time>2026-04-18T14:51:40Z</time></trkpt><trkpt lat="43.84568129638115" lon="12.435556614886432"><ele>457.6666666666667</ele><time>2026-04-18T14:51:41Z</time></trkpt><trkpt lat="43.84567512657331" lon="12.435317634379862"><ele>458.33333333333337</ele><time>2026-04-18T14:51:42Z</time></trkpt><trkpt lat="43.845664927757454" lon="12.43508087303856"><ele>459.0</ele><time>2026-04-18T14:51:43Z</time></trkpt><trkpt lat="43.845654136323574" lon="12.434841331717879"><ele>459.66666666666663</ele><time>2026-04-18T14:51:44Z</time></trkpt><trkpt lat="43.84564430964486" lon="12.434604687903258"><ele>460.3333333333333</ele><time>2026-04-18T14:51:45Z</time></trkpt><trkpt lat="43.845635093790904" lon="12.434379243445088"><ele>461.0</ele><time>2026-04-18T14:51:46Z</time></trkpt><trkpt lat="43.84563317727608" lon="12.434154650444366"><ele>461.0</ele><time>2026-04-18T14:51:47Z</time></trkpt><trkpt lat="43.84564430545925" lon="12.433926003903018"><ele>461.0</ele><time>2026-04-18T14:51:48Z</time></trkpt><trkpt lat="43.84566307705879" lon="12.433698018770766"><ele>461.0</ele><time>2026-04-18T14:51:49Z</time></trkpt><trkpt lat="43.845682251766895" lon="12.433473529367454"><ele>459.66666666666663</ele><time>2026-04-18T14:51:50Z</time></trkpt><trkpt lat="43.8457099724571" lon="12.43324664234847"><ele>458.33333333333337</ele><time>2026-04-18T14:51:51Z</time></trkpt><trkpt lat="43.84573988032171" lon="12.433030364397508"><ele>457.0</ele><time>2026-04-18T14:51:52Z</time></trkpt><trkpt lat="43.84576489232211" lon="12.432815265034057"><ele>457.0</ele><time>2026-04-18T14:51:53Z</time></trkpt><trkpt lat="43.845786907541004" lon="12.43261967385326"><ele>457.0</ele><time>2026-04-18T14:51:54Z</time></trkpt><trkpt lat="43.8458025658752" lon="12.432433427412462"><ele>457.0</ele><time>2026-04-18T14:51:55Z</time></trkpt><trkpt lat="43.84580407051462" lon="12.432250518326896"><ele>457.0</ele><time>2026-04-18T14:51:56Z</time></trkpt><trkpt lat="43.84579110356103" lon="12.432064235247992"><ele>457.25</ele><time>2026-04-18T14:51:57Z</time></trkpt><trkpt lat="43.845765997180834" lon="12.431881039415844"><ele>457.5</ele><time>2026-04-18T14:51:58Z</time></trkpt><trkpt lat="43.845736788260176" lon="12.431704150530946"><ele>457.75</ele><time>2026-04-18T14:51:59Z</time></trkpt><trkpt lat="43.84571605952794" lon="12.431536125188138"><ele>458.0</ele><time>2026-04-18T14:52:00Z</time></trkpt><trkpt lat="43.845700552110785" lon="12.431378302908499"><ele>458.0</ele><time>2026-04-18T14:52:01Z</time></trkpt><trkpt lat="43.84569685070408" lon="12.431222092276792"><ele>458.0</ele><time>2026-04-18T14:52:02Z</time></trkpt><trkpt lat="43.84573792148085" lon="12.431069139061611"><ele>458.0</ele><time>2026-04-18T14:52:03Z</time></trkpt><trkpt lat="43.84576357667036" lon="12.430898707199077"><ele>458.0</ele><time>2026-04-18T14:52:04Z</time></trkpt><trkpt lat="43.84582695045535" lon="12.430729802427836"><ele>458.0</ele><time>2026-04-18T14:52:05Z</time></trkpt><trkpt lat="43.84589129897033" lon="12.430555879927303"><ele>458.0</ele><time>2026-04-18T14:52:06Z</time></trkpt><trkpt lat="43.84595060217938" lon="12.430363974910795"><ele>458.0</ele><time>2026-04-18T14:52:07Z</time></trkpt><trkpt lat="43.84601304891162" lon="12.43016315961254"><ele>458.0</ele><time>2026-04-18T14:52:08Z</time></trkpt><trkpt lat="43.846076366735" lon="12.42996808277341"><ele>461.25</ele><time>2026-04-18T14:52:09Z</time></trkpt><trkpt lat="43.84614171230633" lon="12.429785289033154"><ele>464.5</ele><time>2026-04-18T14:52:10Z</time></trkpt><trkpt lat="43.84620519911693" lon="12.429607145810593"><ele>467.75</ele><time>2026-04-18T14:52:11Z</time></trkpt><trkpt lat="43.84626629541654" lon="12.42943447369774"><ele>471.0</ele><time>2026-04-18T14:52:12Z</time></trkpt><trkpt lat="43.84631384704866" lon="12.429262000225677"><ele>471.0</ele><time>2026-04-18T14:52:13Z</time></trkpt><trkpt lat="43.84634044690794" lon="12.429076601696876"><ele>471.0</ele><time>2026-04-18T14:52:14Z</time></trkpt><trkpt lat="43.84634183171287" lon="12.428879766466308"><ele>471.0</ele><time>2026-04-18T14:52:15Z</time></trkpt><trkpt lat="43.846315488961274" lon="12.428679254824145"><ele>471.0</ele><time>2026-04-18T14:52:16Z</time></trkpt><trkpt lat="43.846277453882465" lon="12.428479275440875"><ele>471.0</ele><time>2026-04-18T14:52:17Z</time></trkpt><trkpt lat="43.84623394505648" lon="12.4282742606234"><ele>471.0</ele><time>2026-04-18T14:52:18Z</time></trkpt><trkpt lat="43.84620442388409" lon="12.428056643095202"><ele>471.0</ele><time>2026-04-18T14:52:19Z</time></trkpt><trkpt lat="43.84616312967373" lon="12.427843053941192"><ele>471.0</ele><time>2026-04-18T14:52:20Z</time></trkpt><trkpt lat="43.846097364145905" lon="12.427641760057607"><ele>471.0</ele><time>2026-04-18T14:52:21Z</time></trkpt><trkpt lat="43.846047236306" lon="12.427434311009263"><ele>471.0</ele><time>2026-04-18T14:52:22Z</time></trkpt><trkpt lat="43.845998977729074" lon="12.427227929317755"><ele>468.0</ele><time>2026-04-18T14:52:23Z</time></trkpt><trkpt lat="43.845953148800064" lon="12.42702261341885"><ele>465.0</ele><time>2026-04-18T14:52:24Z</time></trkpt><trkpt lat="43.84593065661091" lon="12.426809151824516"><ele>462.0</ele><time>2026-04-18T14:52:25Z</time></trkpt><trkpt lat="43.845888921461025" lon="12.426600290931017"><ele>462.0</ele><time>2026-04-18T14:52:26Z</time></trkpt><trkpt lat="43.84587956617502" lon="12.42638439537664"><ele>462.0</ele><time>2026-04-18T14:52:27Z</time></trkpt><trkpt lat="43.84588585653303" lon="12.426168502050846"><ele>462.0</ele><time>2026-04-18T14:52:28Z</time></trkpt><trkpt lat="43.84590278484412" lon="12.425952235757748"><ele>462.66666666666663</ele><time>2026-04-18T14:52:29Z</time></trkpt><trkpt lat="43.84593669873528" lon="12.425742055168037"><ele>463.3333333333333</ele><time>2026-04-18T14:52:30Z</time></trkpt><trkpt lat="43.84597410954109" lon="12.425530963858256"><ele>464.0</ele><time>2026-04-18T14:52:31Z</time></trkpt><trkpt lat="43.846025868446425" lon="12.425323610127334"><ele>470.3333333333333</ele><time>2026-04-18T14:52:32Z</time></trkpt><trkpt lat="43.84609282711466" lon="12.425122428424867"><ele>476.66666666666663</ele><time>2026-04-18T14:52:33Z</time></trkpt><trkpt lat="43.8461551959467" lon="12.424924282229687"><ele>483.0</ele><time>2026-04-18T14:52:34Z</time></trkpt><trkpt lat="43.846199236737235" lon="12.424725497462017"><ele>483.75</ele><time>2026-04-18T14:52:35Z</time></trkpt><trkpt lat="43.8462250455151" lon="12.424521757934535"><ele>484.5</ele><time>2026-04-18T14:52:36Z</time></trkpt><trkpt lat="43.846249506596465" lon="12.424332227549074"><ele>485.25</ele><time>2026-04-18T14:52:37Z</time></trkpt><trkpt lat="43.846256461048874" lon="12.424147443904145"><ele>486.0</ele><time>2026-04-18T14:52:38Z</time></trkpt><trkpt lat="43.846241173499834" lon="12.423952254990452"><ele>488.66666666666663</ele><time>2026-04-18T14:52:39Z</time></trkpt><trkpt lat="43.846192775100945" lon="12.423756685334126"><ele>491.3333333333333</ele><time>2026-04-18T14:52:40Z</time></trkpt><trkpt lat="43.846132359371175" lon="12.423554914309932"><ele>494.0</ele><time>2026-04-18T14:52:41Z</time></trkpt><trkpt lat="43.846085321984084" lon="12.423356375431581"><ele>494.0</ele><time>2026-04-18T14:52:42Z</time></trkpt><trkpt lat="43.84605298532424" lon="12.42315523709733"><ele>494.0</ele><time>2026-04-18T14:52:43Z</time></trkpt><trkpt lat="43.846038966250276" lon="12.422959441840193"><ele>494.0</ele><time>2026-04-18T14:52:44Z</time></trkpt><trkpt lat="43.84603963060336" lon="12.422774974081609"><ele>494.0</ele><time>2026-04-18T14:52:45Z</time></trkpt><trkpt lat="43.846046423383086" lon="12.422581321201704"><ele>493.66666666666663</ele><time>2026-04-18T14:52:46Z</time></trkpt><trkpt lat="43.846081567135556" lon="12.422386676030294"><ele>493.33333333333337</ele><time>2026-04-18T14:52:47Z</time></trkpt><trkpt lat="43.84611017551021" lon="12.42217783489474"><ele>493.0</ele><time>2026-04-18T14:52:48Z</time></trkpt><trkpt lat="43.846140683690315" lon="12.42195799561932"><ele>489.6666666666667</ele><time>2026-04-18T14:52:49Z</time></trkpt><trkpt lat="43.8461632371527" lon="12.421734441519275"><ele>486.33333333333337</ele><time>2026-04-18T14:52:49.999Z</time></trkpt><trkpt lat="43.846204152225425" lon="12.421508383757196"><ele>483.0</ele><time>2026-04-18T14:52:50.999Z</time></trkpt><trkpt lat="43.84624142366163" lon="12.42127980354272"><ele>482.0</ele><time>2026-04-18T14:52:51.999Z</time></trkpt><trkpt lat="43.8462771933236" lon="12.421052535072484"><ele>481.0</ele><time>2026-04-18T14:52:52.999Z</time></trkpt><trkpt lat="43.84631790359776" lon="12.420848139857839"><ele>480.0</ele><time>2026-04-18T14:52:53.999Z</time></trkpt><trkpt lat="43.84635484957434" lon="12.420657963123807"><ele>478.5</ele><time>2026-04-18T14:52:54.999Z</time></trkpt><trkpt lat="43.84639659878687" lon="12.420476612837891"><ele>477.0</ele><time>2026-04-18T14:52:55.999Z</time></trkpt><trkpt lat="43.84644753803387" lon="12.42031044719488"><ele>475.5</ele><time>2026-04-18T14:52:56.999Z</time></trkpt><trkpt lat="43.84650849937665" lon="12.420165811393682"><ele>474.0</ele><time>2026-04-18T14:52:57.999Z</time></trkpt><trkpt lat="43.84655931598183" lon="12.420013714290247"><ele>474.0</ele><time>2026-04-18T14:52:58.999Z</time></trkpt><trkpt lat="43.84658158698672" lon="12.419851562503226"><ele>474.0</ele><time>2026-04-18T14:52:59.999Z</time></trkpt><trkpt lat="43.84657143450662" lon="12.41968251001023"><ele>474.0</ele><time>2026-04-18T14:53:00.999Z</time></trkpt><trkpt lat="43.84651805815075" lon="12.4195245919491"><ele>474.0</ele><time>2026-04-18T14:53:01.999Z</time></trkpt><trkpt lat="43.846435565588635" lon="12.419381650741629"><ele>474.5</ele><time>2026-04-18T14:53:02.999Z</time></trkpt><trkpt lat="43.84633651574296" lon="12.419246204564843"><ele>475.0</ele><time>2026-04-18T14:53:03.999Z</time></trkpt><trkpt lat="43.84622883809301" lon="12.419110535412214"><ele>475.5</ele><time>2026-04-18T14:53:04.999Z</time></trkpt><trkpt lat="43.84613939854827" lon="12.4189426831554"><ele>476.0</ele><time>2026-04-18T14:53:05.999Z</time></trkpt><trkpt lat="43.84604924737937" lon="12.418777213359874"><ele>475.5</ele><time>2026-04-18T14:53:06.999Z</time></trkpt><trkpt lat="43.84596770977988" lon="12.418603243374836"><ele>475.0</ele><time>2026-04-18T14:53:08.001Z</time></trkpt><trkpt lat="43.84590269886691" lon="12.418424681572134"><ele>474.5</ele><time>2026-04-18T14:53:09.001Z</time></trkpt><trkpt lat="43.845836606916386" lon="12.418239622771138"><ele>474.0</ele><time>2026-04-18T14:53:10.001Z</time></trkpt><trkpt lat="43.84579219054599" lon="12.418037273781747"><ele>475.0</ele><time>2026-04-18T14:53:11.001Z</time></trkpt><trkpt lat="43.84575384860219" lon="12.417814438012757"><ele>476.0</ele><time>2026-04-18T14:53:12.001Z</time></trkpt><trkpt lat="43.845711667920696" lon="12.417610555334539"><ele>477.0</ele><time>2026-04-18T14:53:13.001Z</time></trkpt><trkpt lat="43.84568735316322" lon="12.417403643232825"><ele>477.0</ele><time>2026-04-18T14:53:14.001Z</time></trkpt><trkpt lat="43.84565551459914" lon="12.417233367341815"><ele>477.0</ele><time>2026-04-18T14:53:15.001Z</time></trkpt><trkpt lat="43.84560035197904" lon="12.417031306095234"><ele>477.0</ele><time>2026-04-18T14:53:16.001Z</time></trkpt><trkpt lat="43.8455685471129" lon="12.416837582721065"><ele>477.0</ele><time>2026-04-18T14:53:17.001Z</time></trkpt><trkpt lat="43.84552381265824" lon="12.416694731866661"><ele>477.0</ele><time>2026-04-18T14:53:18.001Z</time></trkpt><trkpt lat="43.84547994347926" lon="12.416568310414174"><ele>477.00000000000006</ele><time>2026-04-18T14:53:19.001Z</time></trkpt><trkpt lat="43.8454181473415" lon="12.41646630696067"><ele>477.00000000000006</ele><time>2026-04-18T14:53:20.001Z</time></trkpt><trkpt lat="43.845339924861655" lon="12.416403578809035"><ele>477.0</ele><time>2026-04-18T14:53:21.001Z</time></trkpt><trkpt lat="43.84523395529965" lon="12.416384364522427"><ele>477.0</ele><time>2026-04-18T14:53:22.001Z</time></trkpt><trkpt lat="43.845116115306006" lon="12.416416258780837"><ele>473.0</ele><time>2026-04-18T14:53:23.001Z</time></trkpt><trkpt lat="43.84499099347054" lon="12.416490073171444"><ele>469.0</ele><time>2026-04-18T14:53:24.001Z</time></trkpt><trkpt lat="43.84485485269531" lon="12.416581669304579"><ele>465.0</ele><time>2026-04-18T14:53:25.001Z</time></trkpt><trkpt lat="43.84471058348405" lon="12.416675053102491"><ele>461.0</ele><time>2026-04-18T14:53:26.001Z</time></trkpt><trkpt lat="43.84454963139952" lon="12.416765554321321"><ele>461.0</ele><time>2026-04-18T14:53:27.001Z</time></trkpt><trkpt lat="43.84438998561559" lon="12.416864155750014"><ele>461.0</ele><time>2026-04-18T14:53:28.001Z</time></trkpt><trkpt lat="43.844231490130994" lon="12.416964255087871"><ele>461.0</ele><time>2026-04-18T14:53:29.001Z</time></trkpt><trkpt lat="43.844081069441536" lon="12.41705489936094"><ele>459.5</ele><time>2026-04-18T14:53:30Z</time></trkpt><trkpt lat="43.84392954496323" lon="12.417124706267622"><ele>458.0</ele><time>2026-04-18T14:53:31Z</time></trkpt><trkpt lat="43.8437955896471" lon="12.417209269165982"><ele>456.5</ele><time>2026-04-18T14:53:32Z</time></trkpt><trkpt lat="43.843669905404475" lon="12.417269812667872"><ele>455.0</ele><time>2026-04-18T14:53:33Z</time></trkpt><trkpt lat="43.843557179446606" lon="12.417267021465753"><ele>457.25</ele><time>2026-04-18T14:53:34Z</time></trkpt><trkpt lat="43.843441874116024" lon="12.417220622829925"><ele>459.5</ele><time>2026-04-18T14:53:35Z</time></trkpt><trkpt lat="43.843368542987974" lon="12.417087196643479"><ele>461.75</ele><time>2026-04-18T14:53:36Z</time></trkpt><trkpt lat="43.84326431012606" lon="12.416947389139684"><ele>464.0</ele><time>2026-04-18T14:53:37Z</time></trkpt><trkpt lat="43.843161758801315" lon="12.416832311272257"><ele>464.0</ele><time>2026-04-18T14:53:38Z</time></trkpt><trkpt lat="43.843054586482964" lon="12.416784371695236"><ele>464.0</ele><time>2026-04-18T14:53:39Z</time></trkpt><trkpt lat="43.842938062774074" lon="12.41679312393751"><ele>464.0</ele><time>2026-04-18T14:53:40Z</time></trkpt><trkpt lat="43.84282911590464" lon="12.416825160759764"><ele>464.0</ele><time>2026-04-18T14:53:41Z</time></trkpt><trkpt lat="43.84271628278493" lon="12.416854844748006"><ele>466.2</ele><time>2026-04-18T14:53:42Z</time></trkpt><trkpt lat="43.842600456917026" lon="12.416856450596148"><ele>468.4</ele><time>2026-04-18T14:53:43Z</time></trkpt><trkpt lat="43.84249400119474" lon="12.416879042670615"><ele>470.6</ele><time>2026-04-18T14:53:44Z</time></trkpt><trkpt lat="43.842396974814356" lon="12.416902972883976"><ele>472.8</ele><time>2026-04-18T14:53:45Z</time></trkpt><trkpt lat="43.84230348874937" lon="12.416941564020625"><ele>475.0</ele><time>2026-04-18T14:53:46Z</time></trkpt><trkpt lat="43.84224053559975" lon="12.417062137355169"><ele>476.0</ele><time>2026-04-18T14:53:47Z</time></trkpt><trkpt lat="43.842198489515894" lon="12.417181438641043"><ele>477.0</ele><time>2026-04-18T14:53:48Z</time></trkpt><trkpt lat="43.84219390741181" lon="12.417318240592264"><ele>478.0</ele><time>2026-04-18T14:53:48.999Z</time></trkpt><trkpt lat="43.84222460636042" lon="12.41744206544543"><ele>479.0</ele><time>2026-04-18T14:53:49.999Z</time></trkpt><trkpt lat="43.84229699734077" lon="12.417544637020747"><ele>480.0</ele><time>2026-04-18T14:53:50.999Z</time></trkpt><trkpt lat="43.84238977877236" lon="12.417628528677035"><ele>480.0</ele><time>2026-04-18T14:53:51.999Z</time></trkpt><trkpt lat="43.842490876313285" lon="12.417717046669866"><ele>480.0</ele><time>2026-04-18T14:53:52.999Z</time></trkpt><trkpt lat="43.842586305543996" lon="12.417803895520816"><ele>480.0</ele><time>2026-04-18T14:53:53.999Z</time></trkpt><trkpt lat="43.84266987012377" lon="12.41788126514109"><ele>480.0</ele><time>2026-04-18T14:53:54.999Z</time></trkpt><trkpt lat="43.842731535516094" lon="12.417965935596289"><ele>480.0</ele><time>2026-04-18T14:53:55.999Z</time></trkpt><trkpt lat="43.84275989491198" lon="12.41806647716827"><ele>481.4</ele><time>2026-04-18T14:53:56.999Z</time></trkpt><trkpt lat="43.84275574941323" lon="12.418176909697149"><ele>482.8</ele><time>2026-04-18T14:53:57.999Z</time></trkpt><trkpt lat="43.84270914966312" lon="12.41827423464062"><ele>484.20000000000005</ele><time>2026-04-18T14:53:58.999Z</time></trkpt><trkpt lat="43.84262176520778" lon="12.418326280130024"><ele>485.6</ele><time>2026-04-18T14:53:59.999Z</time></trkpt><trkpt lat="43.84252020724582" lon="12.418302598853137"><ele>487.0</ele><time>2026-04-18T14:54:00.999Z</time></trkpt><trkpt lat="43.84243162776011" lon="12.41821437222682"><ele>487.0</ele><time>2026-04-18T14:54:01.999Z</time></trkpt><trkpt lat="43.84232368695771" lon="12.418160394195985"><ele>487.0</ele><time>2026-04-18T14:54:02.999Z</time></trkpt><trkpt lat="43.84221218931994" lon="12.418081742554413"><ele>487.0</ele><time>2026-04-18T14:54:03.999Z</time></trkpt><trkpt lat="43.842095799141944" lon="12.418001124755486"><ele>487.0</ele><time>2026-04-18T14:54:04.999Z</time></trkpt><trkpt lat="43.84198379650588" lon="12.417932549341037"><ele>488.25</ele><time>2026-04-18T14:54:05.999Z</time></trkpt><trkpt lat="43.84187960711224" lon="12.417868436508979"><ele>489.5</ele><time>2026-04-18T14:54:06.999Z</time></trkpt><trkpt lat="43.84177831637091" lon="12.417805287561544"><ele>490.75</ele><time>2026-04-18T14:54:07.999Z</time></trkpt><trkpt lat="43.84167536970665" lon="12.417737637064144"><ele>492.0</ele><time>2026-04-18T14:54:08.999Z</time></trkpt><trkpt lat="43.84158031326617" lon="12.417645616217369"><ele>492.0</ele><time>2026-04-18T14:54:09.999Z</time></trkpt><trkpt lat="43.841479708737545" lon="12.41756923140833"><ele>492.0</ele><time>2026-04-18T14:54:10.999Z</time></trkpt><trkpt lat="43.84138064979017" lon="12.417492543047919"><ele>492.0</ele><time>2026-04-18T14:54:11.999Z</time></trkpt><trkpt lat="43.84127973716768" lon="12.4174124498343"><ele>492.0</ele><time>2026-04-18T14:54:12.999Z</time></trkpt><trkpt lat="43.84118596760853" lon="12.417338026183133"><ele>492.0</ele><time>2026-04-18T14:54:13.999Z</time></trkpt><trkpt lat="43.841101655008266" lon="12.417269387560253"><ele>492.0</ele><time>2026-04-18T14:54:14.999Z</time></trkpt><trkpt lat="43.84102955444352" lon="12.417207740088767"><ele>492.0</ele><time>2026-04-18T14:54:15.999Z</time></trkpt><trkpt lat="43.84096334988394" lon="12.41714869316386"><ele>492.0</ele><time>2026-04-18T14:54:16.999Z</time></trkpt><trkpt lat="43.84090147329481" lon="12.417087855228393"><ele>492.0</ele><time>2026-04-18T14:54:17.999Z</time></trkpt><trkpt lat="43.84083394823229" lon="12.417011154010671"><ele>492.0</ele><time>2026-04-18T14:54:18.999Z</time></trkpt><trkpt lat="43.840789758971006" lon="12.416896223413302"><ele>493.40000000000003</ele><time>2026-04-18T14:54:19.999Z</time></trkpt><trkpt lat="43.840752456796906" lon="12.41676749702664"><ele>494.80000000000007</ele><time>2026-04-18T14:54:20.999Z</time></trkpt><trkpt lat="43.840719709798655" lon="12.4166313074281"><ele>496.2</ele><time>2026-04-18T14:54:21.999Z</time></trkpt><trkpt lat="43.840685767131326" lon="12.416488402567284"><ele>497.6</ele><time>2026-04-18T14:54:22.999Z</time></trkpt><trkpt lat="43.84063689715654" lon="12.416353438362215"><ele>499.0</ele><time>2026-04-18T14:54:23.999Z</time></trkpt><trkpt lat="43.84058557525635" lon="12.416218164829727"><ele>499.0</ele><time>2026-04-18T14:54:24.999Z</time></trkpt><trkpt lat="43.84049092813613" lon="12.416126587748487"><ele>499.0</ele><time>2026-04-18T14:54:25.999Z</time></trkpt><trkpt lat="43.840419567896994" lon="12.41601305214493"><ele>499.0</ele><time>2026-04-18T14:54:26.999Z</time></trkpt><trkpt lat="43.84034793311144" lon="12.415925086834603"><ele>499.0</ele><time>2026-04-18T14:54:27.999Z</time></trkpt><trkpt lat="43.84030324064012" lon="12.415833189250728"><ele>499.0</ele><time>2026-04-18T14:54:28.999Z</time></trkpt><trkpt lat="43.8402696525694" lon="12.415733227255604"><ele>499.00000000000006</ele><time>2026-04-18T14:54:29.999Z</time></trkpt><trkpt lat="43.84025239064188" lon="12.415619065007519"><ele>499.0</ele><time>2026-04-18T14:54:30.999Z</time></trkpt><trkpt lat="43.84022740314586" lon="12.415508563743892"><ele>499.0</ele><time>2026-04-18T14:54:31.999Z</time></trkpt><trkpt lat="43.840183046430525" lon="12.41540310408993"><ele>499.0</ele><time>2026-04-18T14:54:32.999Z</time></trkpt><trkpt lat="43.84012140874113" lon="12.415312182570032"><ele>499.00000000000006</ele><time>2026-04-18T14:54:33.999Z</time></trkpt><trkpt lat="43.84004687417314" lon="12.415237757498728"><ele>499.0</ele><time>2026-04-18T14:54:34.999Z</time></trkpt><trkpt lat="43.83996030590254" lon="12.415190701262299"><ele>500.79999999999995</ele><time>2026-04-18T14:54:35.999Z</time></trkpt><trkpt lat="43.83986718910173" lon="12.4151714351162"><ele>502.59999999999997</ele><time>2026-04-18T14:54:36.999Z</time></trkpt><trkpt lat="43.8397756379174" lon="12.415142397013735"><ele>504.4</ele><time>2026-04-18T14:54:37.999Z</time></trkpt><trkpt lat="43.839682938002184" lon="12.415137000689562"><ele>506.2</ele><time>2026-04-18T14:54:38.999Z</time></trkpt><trkpt lat="43.83958827456837" lon="12.415122963310946"><ele>508.0</ele><time>2026-04-18T14:54:39.999Z</time></trkpt><trkpt lat="43.839500244326274" lon="12.4150789363016"><ele>508.0</ele><time>2026-04-18T14:54:40.999Z</time></trkpt><trkpt lat="43.839416329701855" lon="12.415007909136085"><ele>507.99999999999994</ele><time>2026-04-18T14:54:41.999Z</time></trkpt><trkpt lat="43.83935468231341" lon="12.414907784044408"><ele>507.99999999999994</ele><time>2026-04-18T14:54:42.999Z</time></trkpt><trkpt lat="43.839293637169746" lon="12.414801892171965"><ele>508.0</ele><time>2026-04-18T14:54:43.999Z</time></trkpt><trkpt lat="43.83923537858406" lon="12.414696702752082"><ele>508.0</ele><time>2026-04-18T14:54:44.999Z</time></trkpt><trkpt lat="43.839181699293825" lon="12.41459080395814"><ele>510.2</ele><time>2026-04-18T14:54:45.999Z</time></trkpt><trkpt lat="43.83912903587422" lon="12.414480687828"><ele>512.4</ele><time>2026-04-18T14:54:46.999Z</time></trkpt><trkpt lat="43.83908135266681" lon="12.414380940918127"><ele>514.5999999999999</ele><time>2026-04-18T14:54:47.999Z</time></trkpt><trkpt lat="43.83904069456655" lon="12.414295291858384"><ele>516.8</ele><time>2026-04-18T14:54:48.999Z</time></trkpt><trkpt lat="43.839003577341366" lon="12.414215692652569"><ele>519.0</ele><time>2026-04-18T14:54:49.999Z</time></trkpt><trkpt lat="43.8389301674798" lon="12.414066593606522"><ele>519.0</ele><time>2026-04-18T14:54:51.999Z</time></trkpt><trkpt lat="43.83888999884713" lon="12.413993075118137"><ele>519.0</ele><time>2026-04-18T14:54:52.999Z</time></trkpt><trkpt lat="43.83884990064517" lon="12.413919685787674"><ele>519.0</ele><time>2026-04-18T14:54:53.999Z</time></trkpt><trkpt lat="43.83877690244844" lon="12.4138575719406"><ele>519.0</ele><time>2026-04-18T14:54:54.999Z</time></trkpt><trkpt lat="43.838698496187725" lon="12.4138018753446"><ele>519.0</ele><time>2026-04-18T14:54:55.999Z</time></trkpt><trkpt lat="43.83862366030679" lon="12.413756495151889"><ele>519.0</ele><time>2026-04-18T14:54:56.999Z</time></trkpt><trkpt lat="43.83856399347274" lon="12.413720623262048"><ele>518.8571428571429</ele><time>2026-04-18T14:54:57.999Z</time></trkpt><trkpt lat="43.83850460702777" lon="12.413684707855055"><ele>518.7142857142857</ele><time>2026-04-18T14:54:58.999Z</time></trkpt><trkpt lat="43.838445268509666" lon="12.413652125795416"><ele>518.5714285714286</ele><time>2026-04-18T14:54:59.999Z</time></trkpt><trkpt lat="43.838385453405195" lon="12.413624439449762"><ele>518.4285714285714</ele><time>2026-04-18T14:55:00.999Z</time></trkpt><trkpt lat="43.83832410136019" lon="12.413600815343786"><ele>518.2857142857142</ele><time>2026-04-18T14:55:01.999Z</time></trkpt><trkpt lat="43.838254806519956" lon="12.413607248155207"><ele>518.1428571428571</ele><time>2026-04-18T14:55:02.999Z</time></trkpt><trkpt lat="43.83819149254252" lon="12.413658263863072"><ele>518.0</ele><time>2026-04-18T14:55:03.999Z</time></trkpt><trkpt lat="43.83817518364812" lon="12.413779682709526"><ele>520.0</ele><time>2026-04-18T14:55:04.999Z</time></trkpt><trkpt lat="43.83815816400564" lon="12.413867738101857"><ele>522.0</ele><time>2026-04-18T14:55:05.999Z</time></trkpt><trkpt lat="43.83816687393293" lon="12.413982777510988"><ele>524.0</ele><time>2026-04-18T14:55:06.999Z</time></trkpt><trkpt lat="43.83818215689377" lon="12.414116898093356"><ele>526.0</ele><time>2026-04-18T14:55:07.999Z</time></trkpt><trkpt lat="43.83819528043548" lon="12.414259698495377"><ele>528.0</ele><time>2026-04-18T14:55:08.999Z</time></trkpt><trkpt lat="43.838203655623985" lon="12.414405108684212"><ele>528.0</ele><time>2026-04-18T14:55:09.999Z</time></trkpt><trkpt lat="43.83821412514952" lon="12.414536349637773"><ele>528.0</ele><time>2026-04-18T14:55:10.999Z</time></trkpt><trkpt lat="43.83822476429761" lon="12.414667712670362"><ele>528.0</ele><time>2026-04-18T14:55:11.999Z</time></trkpt><trkpt lat="43.8382371737902" lon="12.414806075144195"><ele>528.0</ele><time>2026-04-18T14:55:12.999Z</time></trkpt><trkpt lat="43.83824854678903" lon="12.414951328312053"><ele>528.0</ele><time>2026-04-18T14:55:14Z</time></trkpt><trkpt lat="43.8382633454243" lon="12.415101258992912"><ele>529.25</ele><time>2026-04-18T14:55:15Z</time></trkpt><trkpt lat="43.83827916946149" lon="12.415256876975535"><ele>530.5</ele><time>2026-04-18T14:55:16Z</time></trkpt><trkpt lat="43.83829212607399" lon="12.415419644702178"><ele>531.75</ele><time>2026-04-18T14:55:17Z</time></trkpt><trkpt lat="43.83829113669264" lon="12.415593136528324"><ele>533.0</ele><time>2026-04-18T14:55:18Z</time></trkpt><trkpt lat="43.83827731188691" lon="12.415777834397796"><ele>533.5</ele><time>2026-04-18T14:55:19Z</time></trkpt><trkpt lat="43.83822765733052" lon="12.415957952107872"><ele>534.0</ele><time>2026-04-18T14:55:20Z</time></trkpt><trkpt lat="43.8382019266897" lon="12.416143385452129"><ele>534.5</ele><time>2026-04-18T14:55:21Z</time></trkpt><trkpt lat="43.838160446298595" lon="12.416320219215931"><ele>535.0</ele><time>2026-04-18T14:55:22Z</time></trkpt><trkpt lat="43.838120131413966" lon="12.41649934921853"><ele>535.5</ele><time>2026-04-18T14:55:23Z</time></trkpt><trkpt lat="43.83808347435142" lon="12.416685302207283"><ele>536.0</ele><time>2026-04-18T14:55:24Z</time></trkpt><trkpt lat="43.8380526971898" lon="12.416867596156708"><ele>536.5</ele><time>2026-04-18T14:55:25Z</time></trkpt><trkpt lat="43.838030508312556" lon="12.417041137512955"><ele>537.0</ele><time>2026-04-18T14:55:26Z</time></trkpt><trkpt lat="43.83802334858624" lon="12.417213523867293"><ele>537.0</ele><time>2026-04-18T14:55:27Z</time></trkpt><trkpt lat="43.838024831038005" lon="12.417376022459997"><ele>537.0</ele><time>2026-04-18T14:55:28Z</time></trkpt><trkpt lat="43.83803374308365" lon="12.41752345927293"><ele>537.0</ele><time>2026-04-18T14:55:29Z</time></trkpt><trkpt lat="43.838030192624814" lon="12.417656090624256"><ele>537.0</ele><time>2026-04-18T14:55:30Z</time></trkpt><trkpt lat="43.83803435141163" lon="12.417772464772373"><ele>537.0</ele><time>2026-04-18T14:55:31Z</time></trkpt><trkpt lat="43.8380294509972" lon="12.41788799937398"><ele>537.6</ele><time>2026-04-18T14:55:32Z</time></trkpt><trkpt lat="43.83800125071232" lon="12.418002642734985"><ele>538.2</ele><time>2026-04-18T14:55:33Z</time></trkpt><trkpt lat="43.83794774788287" lon="12.418104953470811"><ele>538.8</ele><time>2026-04-18T14:55:34Z</time></trkpt><trkpt lat="43.83787386040746" lon="12.418181686449666"><ele>539.4</ele><time>2026-04-18T14:55:35Z</time></trkpt><trkpt lat="43.83778575324766" lon="12.418220796973605"><ele>540.0</ele><time>2026-04-18T14:55:36Z</time></trkpt><trkpt lat="43.83768819818564" lon="12.418201913748497"><ele>542.2</ele><time>2026-04-18T14:55:37Z</time></trkpt><trkpt lat="43.83761700466805" lon="12.418111342360673"><ele>544.4</ele><time>2026-04-18T14:55:38Z</time></trkpt><trkpt lat="43.837552549828004" lon="12.418022368429456"><ele>546.6</ele><time>2026-04-18T14:55:39Z</time></trkpt><trkpt lat="43.837486506297545" lon="12.417924282889185"><ele>548.8</ele><time>2026-04-18T14:55:40Z</time></trkpt><trkpt lat="43.83743487193973" lon="12.417800621283588"><ele>551.0</ele><time>2026-04-18T14:55:41Z</time></trkpt><trkpt lat="43.837378825749155" lon="12.417668257470323"><ele>551.0</ele><time>2026-04-18T14:55:42Z</time></trkpt><trkpt lat="43.837321264273946" lon="12.417527720261784"><ele>551.0</ele><time>2026-04-18T14:55:43Z</time></trkpt><trkpt lat="43.83725487765464" lon="12.417397532799146"><ele>551.0</ele><time>2026-04-18T14:55:44Z</time></trkpt><trkpt lat="43.837185025424894" lon="12.417282917463325"><ele>551.0</ele><time>2026-04-18T14:55:45Z</time></trkpt><trkpt lat="43.83711219615916" lon="12.417179927887934"><ele>551.0</ele><time>2026-04-18T14:55:46Z</time></trkpt><trkpt lat="43.83703882565322" lon="12.417087276640006"><ele>550.8</ele><time>2026-04-18T14:55:47Z</time></trkpt><trkpt lat="43.836965919926136" lon="12.41699643262577"><ele>550.6</ele><time>2026-04-18T14:55:48Z</time></trkpt><trkpt lat="43.83689388563268" lon="12.416903990519037"><ele>550.4</ele><time>2026-04-18T14:55:49Z</time></trkpt><trkpt lat="43.83682503184126" lon="12.416810896801806"><ele>550.2</ele><time>2026-04-18T14:55:50Z</time></trkpt><trkpt lat="43.83676389493834" lon="12.416730875763001"><ele>550.0</ele><time>2026-04-18T14:55:51Z</time></trkpt><trkpt lat="43.83670392352914" lon="12.416656803680027"><ele>551.5</ele><time>2026-04-18T14:55:52Z</time></trkpt><trkpt lat="43.83664278001066" lon="12.416585069498911"><ele>553.0</ele><time>2026-04-18T14:55:53Z</time></trkpt><trkpt lat="43.836579655266554" lon="12.41650828934603"><ele>554.5</ele><time>2026-04-18T14:55:54Z</time></trkpt><trkpt lat="43.83651628134504" lon="12.41642898591494"><ele>556.0</ele><time>2026-04-18T14:55:55Z</time></trkpt><trkpt lat="43.836443213131105" lon="12.416351320789309"><ele>557.5</ele><time>2026-04-18T14:55:56Z</time></trkpt><trkpt lat="43.83636099869629" lon="12.416272327904219"><ele>559.0</ele><time>2026-04-18T14:55:57Z</time></trkpt><trkpt lat="43.836293060647144" lon="12.416180933189334"><ele>559.0</ele><time>2026-04-18T14:55:58Z</time></trkpt><trkpt lat="43.83623589297853" lon="12.41604719362222"><ele>559.0</ele><time>2026-04-18T14:55:59Z</time></trkpt><trkpt lat="43.83617488808269" lon="12.415928519528688"><ele>559.0</ele><time>2026-04-18T14:56:00Z</time></trkpt><trkpt lat="43.83612056534082" lon="12.415809009865594"><ele>559.0</ele><time>2026-04-18T14:56:01Z</time></trkpt><trkpt lat="43.83606514423541" lon="12.415680575904272"><ele>559.0</ele><time>2026-04-18T14:56:02Z</time></trkpt><trkpt lat="43.836007644113316" lon="12.415552562473442"><ele>560.6</ele><time>2026-04-18T14:56:03Z</time></trkpt><trkpt lat="43.83594481960203" lon="12.415429389370997"><ele>562.2</ele><time>2026-04-18T14:56:04Z</time></trkpt><trkpt lat="43.835881084538634" lon="12.415315736185464"><ele>563.8000000000001</ele><time>2026-04-18T14:56:05Z</time></trkpt><trkpt lat="43.835791024530494" lon="12.41522509888312"><ele>565.4</ele><time>2026-04-18T14:56:06Z</time></trkpt><trkpt lat="43.83570538425317" lon="12.415130466573572"><ele>567.0</ele><time>2026-04-18T14:56:07Z</time></trkpt><trkpt lat="43.83560409195804" lon="12.41504900560644"><ele>567.0</ele><time>2026-04-18T14:56:07.999Z</time></trkpt><trkpt lat="43.83551275319676" lon="12.414939909553745"><ele>567.0</ele><time>2026-04-18T14:56:08.999Z</time></trkpt><trkpt lat="43.83540897761329" lon="12.414842970859132"><ele>567.0</ele><time>2026-04-18T14:56:09.999Z</time></trkpt><trkpt lat="43.835302386972515" lon="12.4147511894666"><ele>567.0</ele><time>2026-04-18T14:56:10.999Z</time></trkpt><trkpt lat="43.83519249703102" lon="12.414670268120274"><ele>568.6666666666666</ele><time>2026-04-18T14:56:11.999Z</time></trkpt><trkpt lat="43.83505993231358" lon="12.414584096010897"><ele>570.3333333333333</ele><time>2026-04-18T14:56:12.999Z</time></trkpt><trkpt lat="43.83491149289235" lon="12.414499449233967"><ele>572.0</ele><time>2026-04-18T14:56:13.999Z</time></trkpt><trkpt lat="43.834749680094525" lon="12.414415895332716"><ele>572.0</ele><time>2026-04-18T14:56:14.999Z</time></trkpt><trkpt lat="43.83458382401274" lon="12.414325804161978"><ele>572.0</ele><time>2026-04-18T14:56:15.999Z</time></trkpt><trkpt lat="43.83442607586366" lon="12.414240684961294"><ele>572.0</ele><time>2026-04-18T14:56:16.999Z</time></trkpt><trkpt lat="43.834291550091024" lon="12.414163038120941"><ele>575.25</ele><time>2026-04-18T14:56:17.999Z</time></trkpt><trkpt lat="43.83417213967562" lon="12.414086675756876"><ele>578.5</ele><time>2026-04-18T14:56:18.999Z</time></trkpt><trkpt lat="43.834063543185465" lon="12.41402097817088"><ele>581.75</ele><time>2026-04-18T14:56:19.999Z</time></trkpt><trkpt lat="43.83397469530454" lon="12.413977976292687"><ele>585.0</ele><time>2026-04-18T14:56:20.999Z</time></trkpt><trkpt lat="43.83385223436615" lon="12.413931289683315"><ele>585.0</ele><time>2026-04-18T14:56:21.999Z</time></trkpt><trkpt lat="43.833725304571004" lon="12.413908572237343"><ele>585.0</ele><time>2026-04-18T14:56:22.999Z</time></trkpt><trkpt lat="43.833603908602356" lon="12.413892290154822"><ele>585.0</ele><time>2026-04-18T14:56:23.999Z</time></trkpt><trkpt lat="43.83349450723457" lon="12.413877616840644"><ele>585.0</ele><time>2026-04-18T14:56:24.999Z</time></trkpt><trkpt lat="43.833377689565495" lon="12.413859021065752"><ele>584.75</ele><time>2026-04-18T14:56:25.999Z</time></trkpt><trkpt lat="43.83325415803907" lon="12.413839678538434"><ele>584.5</ele><time>2026-04-18T14:56:26.999Z</time></trkpt><trkpt lat="43.83313245291254" lon="12.413808229822125"><ele>584.25</ele><time>2026-04-18T14:56:27.999Z</time></trkpt><trkpt lat="43.8330245949796" lon="12.413752377718996"><ele>584.0</ele><time>2026-04-18T14:56:28.999Z</time></trkpt><trkpt lat="43.83292603403128" lon="12.41368807254537"><ele>584.0</ele><time>2026-04-18T14:56:29.999Z</time></trkpt><trkpt lat="43.832828249810355" lon="12.413604094769374"><ele>584.0</ele><time>2026-04-18T14:56:30.999Z</time></trkpt><trkpt lat="43.832728983303305" lon="12.41350271914979"><ele>584.0</ele><time>2026-04-18T14:56:31.999Z</time></trkpt><trkpt lat="43.83263550960859" lon="12.413394465213692"><ele>584.0</ele><time>2026-04-18T14:56:32.999Z</time></trkpt><trkpt lat="43.83254650517293" lon="12.413282778094707"><ele>585.25</ele><time>2026-04-18T14:56:33.999Z</time></trkpt><trkpt lat="43.832464715220844" lon="12.413152293537816"><ele>586.5</ele><time>2026-04-18T14:56:34.999Z</time></trkpt><trkpt lat="43.832381890925745" lon="12.413017969984196"><ele>587.75</ele><time>2026-04-18T14:56:35.999Z</time></trkpt><trkpt lat="43.832301857830764" lon="12.412900694778878"><ele>589.0</ele><time>2026-04-18T14:56:36.999Z</time></trkpt><trkpt lat="43.832210497214014" lon="12.41280138551731"><ele>589.0</ele><time>2026-04-18T14:56:37.999Z</time></trkpt><trkpt lat="43.832101117968826" lon="12.412696125598917"><ele>589.0</ele><time>2026-04-18T14:56:38.999Z</time></trkpt><trkpt lat="43.83197493890819" lon="12.412575130645912"><ele>589.0</ele><time>2026-04-18T14:56:39.999Z</time></trkpt><trkpt lat="43.83181953293044" lon="12.41245778447531"><ele>591.6666666666667</ele><time>2026-04-18T14:56:40.999Z</time></trkpt><trkpt lat="43.83164548498745" lon="12.41233460219425"><ele>594.3333333333334</ele><time>2026-04-18T14:56:41.999Z</time></trkpt><trkpt lat="43.83147882185195" lon="12.412212460349325"><ele>597.0</ele><time>2026-04-18T14:56:42.999Z</time></trkpt><trkpt lat="43.83132366811593" lon="12.412084652707483"><ele>597.0</ele><time>2026-04-18T14:56:43.999Z</time></trkpt><trkpt lat="43.83118124495055" lon="12.411938936054097"><ele>597.0</ele><time>2026-04-18T14:56:44.999Z</time></trkpt><trkpt lat="43.83104655357538" lon="12.41178732803227"><ele>597.0</ele><time>2026-04-18T14:56:45.999Z</time></trkpt><trkpt lat="43.83091901718345" lon="12.411637820079267"><ele>598.3333333333334</ele><time>2026-04-18T14:56:46.999Z</time></trkpt><trkpt lat="43.830791168127625" lon="12.411483149774833"><ele>599.6666666666667</ele><time>2026-04-18T14:56:47.999Z</time></trkpt><trkpt lat="43.83067656824663" lon="12.41131813801509"><ele>601.0</ele><time>2026-04-18T14:56:48.999Z</time></trkpt><trkpt lat="43.83058526253543" lon="12.41112825508821"><ele>601.0</ele><time>2026-04-18T14:56:49.999Z</time></trkpt><trkpt lat="43.830522887318665" lon="12.410920965025396"><ele>601.0</ele><time>2026-04-18T14:56:50.999Z</time></trkpt><trkpt lat="43.83048757205551" lon="12.410707282616569"><ele>601.0</ele><time>2026-04-18T14:56:51.999Z</time></trkpt><trkpt lat="43.83046538882127" lon="12.410489684081057"><ele>600.75</ele><time>2026-04-18T14:56:52.999Z</time></trkpt><trkpt lat="43.830430245605676" lon="12.410286866731045"><ele>600.5</ele><time>2026-04-18T14:56:53.999Z</time></trkpt><trkpt lat="43.830408901847704" lon="12.410097594240344"><ele>600.25</ele><time>2026-04-18T14:56:54.999Z</time></trkpt><trkpt lat="43.830378642085556" lon="12.409933293016492"><ele>600.0</ele><time>2026-04-18T14:56:55.999Z</time></trkpt><trkpt lat="43.830328987986526" lon="12.409805604881901"><ele>600.0</ele><time>2026-04-18T14:56:56.999Z</time></trkpt><trkpt lat="43.830253860346865" lon="12.409707200002098"><ele>600.0</ele><time>2026-04-18T14:56:57.999Z</time></trkpt><trkpt lat="43.83014553418193" lon="12.409638220038998"><ele>600.0</ele><time>2026-04-18T14:56:58.999Z</time></trkpt><trkpt lat="43.830007611541674" lon="12.409591057654039"><ele>600.0</ele><time>2026-04-18T14:56:59.999Z</time></trkpt><trkpt lat="43.82985680632085" lon="12.409553905360323"><ele>601.6666666666666</ele><time>2026-04-18T14:57:00.999Z</time></trkpt><trkpt lat="43.8296876836357" lon="12.409531880379982"><ele>603.3333333333333</ele><time>2026-04-18T14:57:01.999Z</time></trkpt><trkpt lat="43.82950856790065" lon="12.409519589950472"><ele>605.0</ele><time>2026-04-18T14:57:02.999Z</time></trkpt><trkpt lat="43.82933872716085" lon="12.409490374527715"><ele>607.0</ele><time>2026-04-18T14:57:03.999Z</time></trkpt><trkpt lat="43.82918059709133" lon="12.409479337538599"><ele>609.0</ele><time>2026-04-18T14:57:04.999Z</time></trkpt><trkpt lat="43.829031085665676" lon="12.4094521254706"><ele>611.0</ele><time>2026-04-18T14:57:05.999Z</time></trkpt><trkpt lat="43.82889143608298" lon="12.409378740910789"><ele>611.0</ele><time>2026-04-18T14:57:06.999Z</time></trkpt><trkpt lat="43.82876313997967" lon="12.40925796914657"><ele>611.0</ele><time>2026-04-18T14:57:07.999Z</time></trkpt><trkpt lat="43.8286342270434" lon="12.40912141485445"><ele>611.0</ele><time>2026-04-18T14:57:08.999Z</time></trkpt><trkpt lat="43.828510860891" lon="12.408985599240888"><ele>610.75</ele><time>2026-04-18T14:57:09.999Z</time></trkpt><trkpt lat="43.82837467417828" lon="12.408864801186969"><ele>610.5</ele><time>2026-04-18T14:57:10.999Z</time></trkpt><trkpt lat="43.828263681479505" lon="12.408801453385834"><ele>610.25</ele><time>2026-04-18T14:57:11.999Z</time></trkpt><trkpt lat="43.828133198798334" lon="12.408777015251585"><ele>610.0</ele><time>2026-04-18T14:57:12.999Z</time></trkpt><trkpt lat="43.82799548226605" lon="12.408761931103559"><ele>610.0</ele><time>2026-04-18T14:57:13.999Z</time></trkpt><trkpt lat="43.827848730519655" lon="12.408744867350782"><ele>610.0</ele><time>2026-04-18T14:57:14.999Z</time></trkpt><trkpt lat="43.8276988414163" lon="12.408739147338627"><ele>610.0</ele><time>2026-04-18T14:57:15.999Z</time></trkpt><trkpt lat="43.82754881506999" lon="12.408737072085305"><ele>610.0</ele><time>2026-04-18T14:57:16.999Z</time></trkpt><trkpt lat="43.82739554340259" lon="12.40873636224225"><ele>612.25</ele><time>2026-04-18T14:57:17.999Z</time></trkpt><trkpt lat="43.827252137463724" lon="12.408734533327767"><ele>614.5</ele><time>2026-04-18T14:57:18.999Z</time></trkpt><trkpt lat="43.82712067033917" lon="12.408726878765442"><ele>616.75</ele><time>2026-04-18T14:57:20Z</time></trkpt><trkpt lat="43.827002845673846" lon="12.408691963030344"><ele>619.0</ele><time>2026-04-18T14:57:21Z</time></trkpt><trkpt lat="43.82690057109781" lon="12.40860430625732"><ele>619.0</ele><time>2026-04-18T14:57:22Z</time></trkpt><trkpt lat="43.82681157167451" lon="12.408473176817946"><ele>619.0</ele><time>2026-04-18T14:57:23Z</time></trkpt><trkpt lat="43.826758774098664" lon="12.408296558781545"><ele>619.0</ele><time>2026-04-18T14:57:24Z</time></trkpt><trkpt lat="43.826694217849415" lon="12.408110929547098"><ele>619.0</ele><time>2026-04-18T14:57:25Z</time></trkpt><trkpt lat="43.82662822812692" lon="12.40791765554985"><ele>618.6666666666667</ele><time>2026-04-18T14:57:26Z</time></trkpt><trkpt lat="43.826548701064546" lon="12.40773193507981"><ele>618.3333333333334</ele><time>2026-04-18T14:57:27Z</time></trkpt><trkpt lat="43.82648165343407" lon="12.407537613802539"><ele>618.0</ele><time>2026-04-18T14:57:28Z</time></trkpt><trkpt lat="43.82641124186339" lon="12.407360315210461"><ele>618.0</ele><time>2026-04-18T14:57:29Z</time></trkpt><trkpt lat="43.82635801676529" lon="12.407175342765166"><ele>618.0</ele><time>2026-04-18T14:57:30Z</time></trkpt><trkpt lat="43.82628917244551" lon="12.407013859393157"><ele>618.0</ele><time>2026-04-18T14:57:31Z</time></trkpt><trkpt lat="43.82621055193731" lon="12.406866166879665"><ele>618.0</ele><time>2026-04-18T14:57:32Z</time></trkpt><trkpt lat="43.826107367835675" lon="12.406749870228605"><ele>616.25</ele><time>2026-04-18T14:57:33Z</time></trkpt><trkpt lat="43.825989839607765" lon="12.406648790056158"><ele>614.5</ele><time>2026-04-18T14:57:34Z</time></trkpt><trkpt lat="43.82585769737543" lon="12.406571229526309"><ele>612.75</ele><time>2026-04-18T14:57:35Z</time></trkpt><trkpt lat="43.825705173436205" lon="12.406532956107332"><ele>611.0</ele><time>2026-04-18T14:57:36Z</time></trkpt><trkpt lat="43.825551554504386" lon="12.406524864909674"><ele>616.3333333333333</ele><time>2026-04-18T14:57:37Z</time></trkpt><trkpt lat="43.82538897176447" lon="12.406540081733517"><ele>621.6666666666666</ele><time>2026-04-18T14:57:38Z</time></trkpt><trkpt lat="43.825216136436744" lon="12.406542921576225"><ele>627.0</ele><time>2026-04-18T14:57:39Z</time></trkpt><trkpt lat="43.825042607770975" lon="12.406559456124562"><ele>629.0</ele><time>2026-04-18T14:57:40Z</time></trkpt><trkpt lat="43.824877776987094" lon="12.406569098748617"><ele>631.0</ele><time>2026-04-18T14:57:41Z</time></trkpt><trkpt lat="43.82472147243501" lon="12.40656731957622"><ele>633.0</ele><time>2026-04-18T14:57:42Z</time></trkpt><trkpt lat="43.82457306804917" lon="12.406547205604268"><ele>633.0</ele><time>2026-04-18T14:57:43Z</time></trkpt><trkpt lat="43.82443048691639" lon="12.406491956452129"><ele>633.0</ele><time>2026-04-18T14:57:44Z</time></trkpt><trkpt lat="43.82429835298905" lon="12.406389536434146"><ele>633.0</ele><time>2026-04-18T14:57:45Z</time></trkpt><trkpt lat="43.824169967697195" lon="12.406258196141357"><ele>632.0</ele><time>2026-04-18T14:57:46Z</time></trkpt><trkpt lat="43.82403942234433" lon="12.406123227015515"><ele>631.0</ele><time>2026-04-18T14:57:47Z</time></trkpt><trkpt lat="43.823915042341156" lon="12.405992238318886"><ele>630.0</ele><time>2026-04-18T14:57:48Z</time></trkpt><trkpt lat="43.82380721192362" lon="12.405865327684982"><ele>630.0</ele><time>2026-04-18T14:57:49Z</time></trkpt><trkpt lat="43.823709397496955" lon="12.405725062299789"><ele>630.0</ele><time>2026-04-18T14:57:50Z</time></trkpt><trkpt lat="43.8236381055395" lon="12.405556261923692"><ele>630.0</ele><time>2026-04-18T14:57:51Z</time></trkpt><trkpt lat="43.823585328519606" lon="12.40535685114207"><ele>630.0</ele><time>2026-04-18T14:57:52Z</time></trkpt><trkpt lat="43.823545591570316" lon="12.40515187130973"><ele>630.0</ele><time>2026-04-18T14:57:53Z</time></trkpt><trkpt lat="43.82351219816814" lon="12.404944768914454"><ele>630.0</ele><time>2026-04-18T14:57:54Z</time></trkpt><trkpt lat="43.8234821881841" lon="12.404756686464202"><ele>630.0</ele><time>2026-04-18T14:57:55Z</time></trkpt><trkpt lat="43.82343727480596" lon="12.404586154411264"><ele>630.0</ele><time>2026-04-18T14:57:56Z</time></trkpt><trkpt lat="43.82340134712738" lon="12.404417417991288"><ele>630.0</ele><time>2026-04-18T14:57:57Z</time></trkpt><trkpt lat="43.82334169904709" lon="12.404268224408387"><ele>630.0</ele><time>2026-04-18T14:57:58Z</time></trkpt><trkpt lat="43.82325532861768" lon="12.404130623662358"><ele>630.0</ele><time>2026-04-18T14:57:59Z</time></trkpt><trkpt lat="43.82315492000864" lon="12.40398512123577"><ele>630.0</ele><time>2026-04-18T14:58:00Z</time></trkpt><trkpt lat="43.82304331054772" lon="12.403844503238231"><ele>628.0</ele><time>2026-04-18T14:58:01Z</time></trkpt><trkpt lat="43.822944102650006" lon="12.403678631700357"><ele>626.0</ele><time>2026-04-18T14:58:02Z</time></trkpt><trkpt lat="43.82285893456941" lon="12.403479915830628"><ele>624.0</ele><time>2026-04-18T14:58:03Z</time></trkpt><trkpt lat="43.822773786421436" lon="12.403267225064441"><ele>624.0</ele><time>2026-04-18T14:58:04Z</time></trkpt><trkpt lat="43.822691582416" lon="12.403046512360039"><ele>624.0</ele><time>2026-04-18T14:58:05Z</time></trkpt><trkpt lat="43.82261691116851" lon="12.402827724355886"><ele>624.0</ele><time>2026-04-18T14:58:06Z</time></trkpt><trkpt lat="43.8225486234331" lon="12.402600775393854"><ele>626.6666666666666</ele><time>2026-04-18T14:58:07Z</time></trkpt><trkpt lat="43.82248507749704" lon="12.402371475384363"><ele>629.3333333333333</ele><time>2026-04-18T14:58:08Z</time></trkpt><trkpt lat="43.822421797484175" lon="12.402139080077006"><ele>632.0</ele><time>2026-04-18T14:58:09Z</time></trkpt><trkpt lat="43.82235777154927" lon="12.401903208533122"><ele>632.0</ele><time>2026-04-18T14:58:10Z</time></trkpt><trkpt lat="43.82229381742529" lon="12.40166525396868"><ele>632.0</ele><time>2026-04-18T14:58:11Z</time></trkpt><trkpt lat="43.82222982345476" lon="12.4014248762903"><ele>632.0</ele><time>2026-04-18T14:58:12Z</time></trkpt><trkpt lat="43.82216517900355" lon="12.401185227645325"><ele>630.3333333333333</ele><time>2026-04-18T14:58:13Z</time></trkpt><trkpt lat="43.82208937662248" lon="12.400948424190341"><ele>628.6666666666666</ele><time>2026-04-18T14:58:14Z</time></trkpt><trkpt lat="43.82204135243505" lon="12.400691575409796"><ele>627.0</ele><time>2026-04-18T14:58:15Z</time></trkpt><trkpt lat="43.822006675603475" lon="12.400436852583784"><ele>626.6666666666666</ele><time>2026-04-18T14:58:16Z</time></trkpt><trkpt lat="43.82198128055239" lon="12.400187637386704"><ele>626.3333333333333</ele><time>2026-04-18T14:58:17Z</time></trkpt><trkpt lat="43.82196226407495" lon="12.399945593148566"><ele>626.0</ele><time>2026-04-18T14:58:18Z</time></trkpt><trkpt lat="43.82195407184076" lon="12.399701268623735"><ele>627.3333333333333</ele><time>2026-04-18T14:58:19Z</time></trkpt><trkpt lat="43.82195619870776" lon="12.399463609574084"><ele>628.6666666666666</ele><time>2026-04-18T14:58:20Z</time></trkpt><trkpt lat="43.82195556164993" lon="12.399236782848986"><ele>630.0</ele><time>2026-04-18T14:58:21Z</time></trkpt><trkpt lat="43.8219609968924" lon="12.399026407665087"><ele>632.0</ele><time>2026-04-18T14:58:22Z</time></trkpt><trkpt lat="43.821980264628365" lon="12.398825874453614"><ele>634.0</ele><time>2026-04-18T14:58:23Z</time></trkpt><trkpt lat="43.822016533314425" lon="12.39862226981092"><ele>636.0</ele><time>2026-04-18T14:58:24Z</time></trkpt><trkpt lat="43.82206715407988" lon="12.398413541656677"><ele>636.0</ele><time>2026-04-18T14:58:25Z</time></trkpt><trkpt lat="43.82213130345556" lon="12.398199551346861"><ele>636.0</ele><time>2026-04-18T14:58:26Z</time></trkpt><trkpt lat="43.82219928760506" lon="12.397998793537838"><ele>636.0</ele><time>2026-04-18T14:58:27Z</time></trkpt><trkpt lat="43.822274864503925" lon="12.397800534816765"><ele>636.0</ele><time>2026-04-18T14:58:28Z</time></trkpt><trkpt lat="43.822349168912275" lon="12.397605692959855"><ele>636.0</ele><time>2026-04-18T14:58:29Z</time></trkpt><trkpt lat="43.82241814237584" lon="12.397405806509509"><ele>636.0</ele><time>2026-04-18T14:58:30Z</time></trkpt><trkpt lat="43.8224842739155" lon="12.397207662841653"><ele>637.5</ele><time>2026-04-18T14:58:31Z</time></trkpt><trkpt lat="43.8225353175025" lon="12.397024152281176"><ele>639.0</ele><time>2026-04-18T14:58:32Z</time></trkpt><trkpt lat="43.822582377021604" lon="12.396852479567574"><ele>640.5</ele><time>2026-04-18T14:58:33Z</time></trkpt><trkpt lat="43.82261672676444" lon="12.396684680846292"><ele>642.0</ele><time>2026-04-18T14:58:34Z</time></trkpt><trkpt lat="43.822624756956415" lon="12.396525166094042"><ele>642.0</ele><time>2026-04-18T14:58:35Z</time></trkpt><trkpt lat="43.82260151532114" lon="12.39636134653285"><ele>642.0</ele><time>2026-04-18T14:58:36Z</time></trkpt><trkpt lat="43.82253691427389" lon="12.396205979429798"><ele>642.0</ele><time>2026-04-18T14:58:37Z</time></trkpt><trkpt lat="43.82243655654188" lon="12.39606735441845"><ele>642.0</ele><time>2026-04-18T14:58:38Z</time></trkpt><trkpt lat="43.82238434907753" lon="12.395922793002129"><ele>644.0</ele><time>2026-04-18T14:58:39Z</time></trkpt><trkpt lat="43.82225447362956" lon="12.395798619767298"><ele>646.0</ele><time>2026-04-18T14:58:40Z</time></trkpt><trkpt lat="43.822128417530145" lon="12.395660104548389"><ele>648.0</ele><time>2026-04-18T14:58:41Z</time></trkpt><trkpt lat="43.822003584590874" lon="12.395511502366956"><ele>649.0</ele><time>2026-04-18T14:58:42Z</time></trkpt><trkpt lat="43.821884783213314" lon="12.395357282535253"><ele>650.0</ele><time>2026-04-18T14:58:43Z</time></trkpt><trkpt lat="43.821771596873305" lon="12.395204394403196"><ele>651.0</ele><time>2026-04-18T14:58:44Z</time></trkpt><trkpt lat="43.82166675150127" lon="12.395036384992189"><ele>653.0</ele><time>2026-04-18T14:58:44.999Z</time></trkpt><trkpt lat="43.82156581670342" lon="12.394862197829747"><ele>655.0</ele><time>2026-04-18T14:58:45.999Z</time></trkpt><trkpt lat="43.82148377364637" lon="12.394675613610481"><ele>657.0</ele><time>2026-04-18T14:58:46.999Z</time></trkpt><trkpt lat="43.82141411245436" lon="12.394496772636874"><ele>658.0</ele><time>2026-04-18T14:58:47.999Z</time></trkpt><trkpt lat="43.821358138172315" lon="12.394327872157385"><ele>659.0</ele><time>2026-04-18T14:58:48.999Z</time></trkpt><trkpt lat="43.82132283719602" lon="12.394173749442917"><ele>660.0</ele><time>2026-04-18T14:58:49.999Z</time></trkpt><trkpt lat="43.8213155150896" lon="12.39402957064189"><ele>661.0</ele><time>2026-04-18T14:58:50.999Z</time></trkpt><trkpt lat="43.8213367538716" lon="12.39389529193023"><ele>660.0</ele><time>2026-04-18T14:58:51.999Z</time></trkpt><trkpt lat="43.8213058658443" lon="12.39376695386051"><ele>659.0</ele><time>2026-04-18T14:58:52.999Z</time></trkpt><trkpt lat="43.82127666066306" lon="12.393622274942581"><ele>658.0</ele><time>2026-04-18T14:58:53.999Z</time></trkpt><trkpt lat="43.82123827722865" lon="12.393471791352631"><ele>657.0</ele><time>2026-04-18T14:58:54.999Z</time></trkpt><trkpt lat="43.82118690005999" lon="12.393307426626368"><ele>657.0</ele><time>2026-04-18T14:58:55.999Z</time></trkpt><trkpt lat="43.821101386542374" lon="12.39315198128861"><ele>657.0</ele><time>2026-04-18T14:58:56.999Z</time></trkpt><trkpt lat="43.821003479668875" lon="12.39298903173911"><ele>657.0</ele><time>2026-04-18T14:58:57.999Z</time></trkpt><trkpt lat="43.82088787241434" lon="12.392830086999568"><ele>656.0</ele><time>2026-04-18T14:58:58.999Z</time></trkpt><trkpt lat="43.8207753027135" lon="12.392676641397237"><ele>655.0</ele><time>2026-04-18T14:58:59.999Z</time></trkpt><trkpt lat="43.820664779951954" lon="12.3925301501221"><ele>654.0</ele><time>2026-04-18T14:59:00.999Z</time></trkpt><trkpt lat="43.82055905973195" lon="12.392382641499422"><ele>654.0</ele><time>2026-04-18T14:59:01.999Z</time></trkpt><trkpt lat="43.8204525886325" lon="12.392239439478058"><ele>654.0</ele><time>2026-04-18T14:59:02.999Z</time></trkpt><trkpt lat="43.82034602027336" lon="12.392086769296561"><ele>654.0</ele><time>2026-04-18T14:59:03.999Z</time></trkpt><trkpt lat="43.82023874935924" lon="12.391924581024927"><ele>653.6666666666666</ele><time>2026-04-18T14:59:04.999Z</time></trkpt><trkpt lat="43.82015414687032" lon="12.391747662001412"><ele>653.3333333333333</ele><time>2026-04-18T14:59:05.999Z</time></trkpt><trkpt lat="43.820085791367966" lon="12.39155596630688"><ele>653.0</ele><time>2026-04-18T14:59:06.999Z</time></trkpt><trkpt lat="43.82001030901488" lon="12.391364512839004"><ele>657.3333333333333</ele><time>2026-04-18T14:59:07.999Z</time></trkpt><trkpt lat="43.8199361010983" lon="12.391174646830137"><ele>661.6666666666666</ele><time>2026-04-18T14:59:08.999Z</time></trkpt><trkpt lat="43.819864956626716" lon="12.390986893483635"><ele>666.0</ele><time>2026-04-18T14:59:09.999Z</time></trkpt><trkpt lat="43.81979027972799" lon="12.390802967244026"><ele>666.0</ele><time>2026-04-18T14:59:10.999Z</time></trkpt><trkpt lat="43.81970979631232" lon="12.390613359509453"><ele>666.0</ele><time>2026-04-18T14:59:11.999Z</time></trkpt><trkpt lat="43.8196250066259" lon="12.390426286878721"><ele>666.0</ele><time>2026-04-18T14:59:12.999Z</time></trkpt><trkpt lat="43.819528751322075" lon="12.390239935921668"><ele>668.3333333333334</ele><time>2026-04-18T14:59:13.999Z</time></trkpt><trkpt lat="43.81943141333501" lon="12.39005565076848"><ele>670.6666666666667</ele><time>2026-04-18T14:59:14.999Z</time></trkpt><trkpt lat="43.81932655785946" lon="12.389880244428904"><ele>673.0</ele><time>2026-04-18T14:59:15.999Z</time></trkpt><trkpt lat="43.81921654557115" lon="12.389719229100686"><ele>678.0</ele><time>2026-04-18T14:59:16.999Z</time></trkpt><trkpt lat="43.81909354703181" lon="12.389581037630387"><ele>683.0</ele><time>2026-04-18T14:59:17.999Z</time></trkpt><trkpt lat="43.81895615299873" lon="12.389462821074442"><ele>688.0</ele><time>2026-04-18T14:59:18.999Z</time></trkpt><trkpt lat="43.818818062676826" lon="12.389358551773189"><ele>688.0</ele><time>2026-04-18T14:59:19.999Z</time></trkpt><trkpt lat="43.818699301375624" lon="12.389260957147881"><ele>688.0</ele><time>2026-04-18T14:59:20.999Z</time></trkpt><trkpt lat="43.81859914021396" lon="12.389129305154075"><ele>688.0</ele><time>2026-04-18T14:59:21.999Z</time></trkpt><trkpt lat="43.818514805665096" lon="12.388964704551306"><ele>688.0</ele><time>2026-04-18T14:59:22.999Z</time></trkpt><trkpt lat="43.81844661020838" lon="12.388783994291673"><ele>689.0</ele><time>2026-04-18T14:59:23.999Z</time></trkpt><trkpt lat="43.81837656747529" lon="12.388591532118584"><ele>690.0</ele><time>2026-04-18T14:59:24.999Z</time></trkpt><trkpt lat="43.818299926998485" lon="12.388407699163256"><ele>691.0</ele><time>2026-04-18T14:59:26Z</time></trkpt><trkpt lat="43.81820724727783" lon="12.388250126086039"><ele>691.0</ele><time>2026-04-18T14:59:27Z</time></trkpt><trkpt lat="43.81809047778619" lon="12.388126360236477"><ele>691.0</ele><time>2026-04-18T14:59:28Z</time></trkpt><trkpt lat="43.81795943757406" lon="12.388032610254086"><ele>691.0</ele><time>2026-04-18T14:59:29Z</time></trkpt><trkpt lat="43.81781656739614" lon="12.38796215275434"><ele>691.0</ele><time>2026-04-18T14:59:30Z</time></trkpt><trkpt lat="43.81766830274199" lon="12.387922539355163"><ele>693.75</ele><time>2026-04-18T14:59:31Z</time></trkpt><trkpt lat="43.81751319424538" lon="12.387888668343026"><ele>696.5</ele><time>2026-04-18T14:59:32Z</time></trkpt><trkpt lat="43.81736757830965" lon="12.387853469672013"><ele>699.25</ele><time>2026-04-18T14:59:33Z</time></trkpt><trkpt lat="43.81723327244673" lon="12.387803180088067"><ele>702.0</ele><time>2026-04-18T14:59:34Z</time></trkpt><trkpt lat="43.817133350259105" lon="12.38770228930468"><ele>702.0</ele><time>2026-04-18T14:59:35Z</time></trkpt><trkpt lat="43.81704674676667" lon="12.387562297250065"><ele>702.0</ele><time>2026-04-18T14:59:36Z</time></trkpt><trkpt lat="43.81697458094455" lon="12.387378992461201"><ele>702.0</ele><time>2026-04-18T14:59:37Z</time></trkpt><trkpt lat="43.81690635940606" lon="12.38719347694214"><ele>702.0</ele><time>2026-04-18T14:59:38Z</time></trkpt><trkpt lat="43.81685677864356" lon="12.38699148227579"><ele>700.3333333333334</ele><time>2026-04-18T14:59:39Z</time></trkpt><trkpt lat="43.81681262812267" lon="12.3867791108732"><ele>698.6666666666667</ele><time>2026-04-18T14:59:40Z</time></trkpt><trkpt lat="43.816776341659484" lon="12.386564159247593"><ele>697.0</ele><time>2026-04-18T14:59:41Z</time></trkpt><trkpt lat="43.81674281724216" lon="12.386356628340078"><ele>699.6666666666667</ele><time>2026-04-18T14:59:42Z</time></trkpt><trkpt lat="43.8167107757319" lon="12.38613881180712"><ele>702.3333333333334</ele><time>2026-04-18T14:59:43Z</time></trkpt><trkpt lat="43.81666985352686" lon="12.385932898660435"><ele>705.0</ele><time>2026-04-18T14:59:44Z</time></trkpt><trkpt lat="43.816615823909686" lon="12.385748398718249"><ele>705.0</ele><time>2026-04-18T14:59:45Z</time></trkpt><trkpt lat="43.81653830315163" lon="12.3855883298013"><ele>705.0</ele><time>2026-04-18T14:59:46Z</time></trkpt><trkpt lat="43.816421053841516" lon="12.385452956573038"><ele>705.0</ele><time>2026-04-18T14:59:47Z</time></trkpt><trkpt lat="43.81629188683198" lon="12.385351576643844"><ele>705.0</ele><time>2026-04-18T14:59:48Z</time></trkpt><trkpt lat="43.816164347532315" lon="12.385250530826912"><ele>703.0</ele><time>2026-04-18T14:59:49Z</time></trkpt><trkpt lat="43.816040012921626" lon="12.385129568846683"><ele>701.0</ele><time>2026-04-18T14:59:50Z</time></trkpt><trkpt lat="43.81592941766617" lon="12.384976984470159"><ele>699.0</ele><time>2026-04-18T14:59:51Z</time></trkpt><trkpt lat="43.81583141792784" lon="12.384810275999682"><ele>702.0</ele><time>2026-04-18T14:59:52Z</time></trkpt><trkpt lat="43.815737347403065" lon="12.384620584118684"><ele>705.0</ele><time>2026-04-18T14:59:53Z</time></trkpt><trkpt lat="43.81565036329496" lon="12.384423047859103"><ele>708.0</ele><time>2026-04-18T14:59:54Z</time></trkpt><trkpt lat="43.81556910074809" lon="12.384220736236633"><ele>708.0</ele><time>2026-04-18T14:59:55Z</time></trkpt><trkpt lat="43.81548919228987" lon="12.384021513619594"><ele>708.0</ele><time>2026-04-18T14:59:56Z</time></trkpt><trkpt lat="43.8154125591816" lon="12.383816828810614"><ele>708.0</ele><time>2026-04-18T14:59:57Z</time></trkpt><trkpt lat="43.815348900417774" lon="12.383608274106374"><ele>710.6666666666666</ele><time>2026-04-18T14:59:58Z</time></trkpt><trkpt lat="43.81529548099516" lon="12.383386069642281"><ele>713.3333333333333</ele><time>2026-04-18T14:59:59Z</time></trkpt><trkpt lat="43.815237553188176" lon="12.383173482242638"><ele>716.0</ele><time>2026-04-18T15:00:00Z</time></trkpt><trkpt lat="43.815178539470025" lon="12.382965427051907"><ele>712.0</ele><time>2026-04-18T15:00:01Z</time></trkpt><trkpt lat="43.81512246560325" lon="12.382764954209126"><ele>708.0</ele><time>2026-04-18T15:00:02Z</time></trkpt><trkpt lat="43.815076539316095" lon="12.38254769061562"><ele>704.0</ele><time>2026-04-18T15:00:03Z</time></trkpt><trkpt lat="43.815040485873" lon="12.382310224618166"><ele>703.6666666666666</ele><time>2026-04-18T15:00:04Z</time></trkpt><trkpt lat="43.81500717277348" lon="12.382056277597831"><ele>703.3333333333334</ele><time>2026-04-18T15:00:05Z</time></trkpt><trkpt lat="43.81497326619041" lon="12.381802893298378"><ele>703.0</ele><time>2026-04-18T15:00:06Z</time></trkpt><trkpt lat="43.81493542736409" lon="12.38155225615075"><ele>703.6666666666667</ele><time>2026-04-18T15:00:07Z</time></trkpt><trkpt lat="43.81489554972429" lon="12.38130605700693"><ele>704.3333333333334</ele><time>2026-04-18T15:00:08Z</time></trkpt><trkpt lat="43.814858984625" lon="12.381064586710044"><ele>705.0</ele><time>2026-04-18T15:00:09Z</time></trkpt><trkpt lat="43.81481654240249" lon="12.38082054249041"><ele>705.0</ele><time>2026-04-18T15:00:10Z</time></trkpt><trkpt lat="43.814768029163034" lon="12.380584927148231"><ele>705.0</ele><time>2026-04-18T15:00:11Z</time></trkpt><trkpt lat="43.81472100872195" lon="12.380351580323508"><ele>705.0</ele><time>2026-04-18T15:00:12Z</time></trkpt><trkpt lat="43.81468180244188" lon="12.380125051961743"><ele>704.6666666666666</ele><time>2026-04-18T15:00:13Z</time></trkpt><trkpt lat="43.814641202509634" lon="12.379901725954277"><ele>704.3333333333333</ele><time>2026-04-18T15:00:14Z</time></trkpt><trkpt lat="43.81460701857254" lon="12.379671834059586"><ele>704.0</ele><time>2026-04-18T15:00:15Z</time></trkpt><trkpt lat="43.81459279352051" lon="12.379435968974043"><ele>703.3333333333333</ele><time>2026-04-18T15:00:16Z</time></trkpt><trkpt lat="43.81459070797822" lon="12.37919514122701"><ele>702.6666666666666</ele><time>2026-04-18T15:00:17Z</time></trkpt><trkpt lat="43.81459524616429" lon="12.378953501317646"><ele>702.0</ele><time>2026-04-18T15:00:18Z</time></trkpt><trkpt lat="43.814603617910834" lon="12.378709220293672"><ele>701.6666666666666</ele><time>2026-04-18T15:00:19Z</time></trkpt><trkpt lat="43.81458399383807" lon="12.378461432011335"><ele>701.3333333333333</ele><time>2026-04-18T15:00:20Z</time></trkpt><trkpt lat="43.81454625593298" lon="12.378207058491173"><ele>701.0</ele><time>2026-04-18T15:00:21Z</time></trkpt><trkpt lat="43.8145065818434" lon="12.37794873794018"><ele>702.6666666666666</ele><time>2026-04-18T15:00:22Z</time></trkpt><trkpt lat="43.814463828063616" lon="12.37769706563173"><ele>704.3333333333334</ele><time>2026-04-18T15:00:23Z</time></trkpt><trkpt lat="43.81443238760221" lon="12.377445288670579"><ele>706.0</ele><time>2026-04-18T15:00:24Z</time></trkpt><trkpt lat="43.81439456345269" lon="12.377206242977651"><ele>706.0</ele><time>2026-04-18T15:00:25Z</time></trkpt><trkpt lat="43.81434434827483" lon="12.376970764006124"><ele>706.0</ele><time>2026-04-18T15:00:26Z</time></trkpt><trkpt lat="43.81427951032042" lon="12.376736418468914"><ele>706.0</ele><time>2026-04-18T15:00:27Z</time></trkpt><trkpt lat="43.81420840467241" lon="12.376508213147524"><ele>713.3333333333334</ele><time>2026-04-18T15:00:28Z</time></trkpt><trkpt lat="43.81413404746417" lon="12.376285281756488"><ele>720.6666666666666</ele><time>2026-04-18T15:00:29Z</time></trkpt><trkpt lat="43.8140597799882" lon="12.376061818041341"><ele>728.0</ele><time>2026-04-18T15:00:30Z</time></trkpt><trkpt lat="43.81398903165761" lon="12.375846971660952"><ele>728.0</ele><time>2026-04-18T15:00:31Z</time></trkpt><trkpt lat="43.813919754480615" lon="12.375647184874603"><ele>728.0</ele><time>2026-04-18T15:00:32Z</time></trkpt><trkpt lat="43.81384568135323" lon="12.375410254385251"><ele>728.0</ele><time>2026-04-18T15:00:33Z</time></trkpt><trkpt lat="43.81375365393296" lon="12.37521640546064"><ele>729.0</ele><time>2026-04-18T15:00:34Z</time></trkpt><trkpt lat="43.81364930784981" lon="12.375041473340312"><ele>730.0</ele><time>2026-04-18T15:00:35Z</time></trkpt><trkpt lat="43.813545579193146" lon="12.37489303787465"><ele>731.0</ele><time>2026-04-18T15:00:36Z</time></trkpt><trkpt lat="43.81344443408144" lon="12.374744642879234"><ele>732.0</ele><time>2026-04-18T15:00:36.999Z</time></trkpt><trkpt lat="43.81334494634929" lon="12.374599305871994"><ele>733.0</ele><time>2026-04-18T15:00:37.999Z</time></trkpt><trkpt lat="43.813254597287" lon="12.374462526603935"><ele>734.0</ele><time>2026-04-18T15:00:38.999Z</time></trkpt><trkpt lat="43.81317593473802" lon="12.374322597801134"><ele>735.0</ele><time>2026-04-18T15:00:39.999Z</time></trkpt><trkpt lat="43.81311394205347" lon="12.374184807072425"><ele>735.0</ele><time>2026-04-18T15:00:40.999Z</time></trkpt><trkpt lat="43.81307648906225" lon="12.374052875427171"><ele>735.0</ele><time>2026-04-18T15:00:41.999Z</time></trkpt><trkpt lat="43.81307963464332" lon="12.373918000864796"><ele>735.0</ele><time>2026-04-18T15:00:42.999Z</time></trkpt><trkpt lat="43.81307026966018" lon="12.373791070034786"><ele>735.0</ele><time>2026-04-18T15:00:43.999Z</time></trkpt><trkpt lat="43.81312812662124" lon="12.37368468151762"><ele>735.0</ele><time>2026-04-18T15:00:44.999Z</time></trkpt><trkpt lat="43.81316796537885" lon="12.373558997161307"><ele>735.75</ele><time>2026-04-18T15:00:45.999Z</time></trkpt><trkpt lat="43.81320630113308" lon="12.373407659310512"><ele>736.5</ele><time>2026-04-18T15:00:46.999Z</time></trkpt><trkpt lat="43.81325524913979" lon="12.373239647633342"><ele>737.25</ele><time>2026-04-18T15:00:47.999Z</time></trkpt><trkpt lat="43.81331159685681" lon="12.373088797690052"><ele>738.0</ele><time>2026-04-18T15:00:48.999Z</time></trkpt><trkpt lat="43.813353989517886" lon="12.372931532985696"><ele>738.0</ele><time>2026-04-18T15:00:49.999Z</time></trkpt><trkpt lat="43.81339039275056" lon="12.372796392605762"><ele>738.0</ele><time>2026-04-18T15:00:50.999Z</time></trkpt><trkpt lat="43.81341338222517" lon="12.372669158865289"><ele>738.0</ele><time>2026-04-18T15:00:51.999Z</time></trkpt><trkpt lat="43.813417651787645" lon="12.372566212122623"><ele>738.0</ele><time>2026-04-18T15:00:52.999Z</time></trkpt><trkpt lat="43.8133692095161" lon="12.372409557665767"><ele>738.0</ele><time>2026-04-18T15:00:54.999Z</time></trkpt><trkpt lat="43.81328910528555" lon="12.372328545117972"><ele>738.0</ele><time>2026-04-18T15:00:55.999Z</time></trkpt><trkpt lat="43.813239706546476" lon="12.372210251538313"><ele>738.0</ele><time>2026-04-18T15:00:56.999Z</time></trkpt><trkpt lat="43.813200887801685" lon="12.37206362967016"><ele>738.0</ele><time>2026-04-18T15:00:57.999Z</time></trkpt><trkpt lat="43.81315891447782" lon="12.371894635248214"><ele>738.0</ele><time>2026-04-18T15:00:58.999Z</time></trkpt><trkpt lat="43.81311296789175" lon="12.371715218084358"><ele>738.0</ele><time>2026-04-18T15:00:59.999Z</time></trkpt><trkpt lat="43.81306310685234" lon="12.371529720118122"><ele>738.0</ele><time>2026-04-18T15:01:00.999Z</time></trkpt><trkpt lat="43.81301349807129" lon="12.37133017277244"><ele>738.0</ele><time>2026-04-18T15:01:01.999Z</time></trkpt><trkpt lat="43.812966535275024" lon="12.371131921132815"><ele>738.0</ele><time>2026-04-18T15:01:02.999Z</time></trkpt><trkpt lat="43.81291757320297" lon="12.370931836187875"><ele>738.5</ele><time>2026-04-18T15:01:03.999Z</time></trkpt><trkpt lat="43.812869284738596" lon="12.37074359974249"><ele>739.0</ele><time>2026-04-18T15:01:04.999Z</time></trkpt><trkpt lat="43.81282043516539" lon="12.37057399518543"><ele>739.5</ele><time>2026-04-18T15:01:05.999Z</time></trkpt><trkpt lat="43.81274679414124" lon="12.370427639114657"><ele>740.0</ele><time>2026-04-18T15:01:06.999Z</time></trkpt><trkpt lat="43.812651934934166" lon="12.370299789002813"><ele>736.25</ele><time>2026-04-18T15:01:07.999Z</time></trkpt><trkpt lat="43.81253942836432" lon="12.370186465925238"><ele>732.5</ele><time>2026-04-18T15:01:08.999Z</time></trkpt><trkpt lat="43.812435638772115" lon="12.37007778434166"><ele>728.75</ele><time>2026-04-18T15:01:09.999Z</time></trkpt><trkpt lat="43.812346876288274" lon="12.369966952267822"><ele>725.0</ele><time>2026-04-18T15:01:10.999Z</time></trkpt><trkpt lat="43.812288297053264" lon="12.369845997294973"><ele>725.0</ele><time>2026-04-18T15:01:11.999Z</time></trkpt><trkpt lat="43.81227167948002" lon="12.36970908959359"><ele>725.0</ele><time>2026-04-18T15:01:12.999Z</time></trkpt><trkpt lat="43.81230737543067" lon="12.369567170372525"><ele>725.0</ele><time>2026-04-18T15:01:13.999Z</time></trkpt><trkpt lat="43.812383842355146" lon="12.369434976860658"><ele>725.0</ele><time>2026-04-18T15:01:14.999Z</time></trkpt><trkpt lat="43.812475144861445" lon="12.369304072935035"><ele>725.25</ele><time>2026-04-18T15:01:15.999Z</time></trkpt><trkpt lat="43.812561443577614" lon="12.369148891123876"><ele>725.5</ele><time>2026-04-18T15:01:16.999Z</time></trkpt><trkpt lat="43.81264895868715" lon="12.368984631095334"><ele>725.75</ele><time>2026-04-18T15:01:17.999Z</time></trkpt><trkpt lat="43.81271786295788" lon="12.36880755735795"><ele>726.0</ele><time>2026-04-18T15:01:18.999Z</time></trkpt><trkpt lat="43.81275130064224" lon="12.368614550587107"><ele>726.0</ele><time>2026-04-18T15:01:19.999Z</time></trkpt><trkpt lat="43.8127604953043" lon="12.368414439215787"><ele>726.0</ele><time>2026-04-18T15:01:20.999Z</time></trkpt><trkpt lat="43.81275907329591" lon="12.368211035240742"><ele>726.0</ele><time>2026-04-18T15:01:21.999Z</time></trkpt><trkpt lat="43.812772725465095" lon="12.368006351257426"><ele>726.0</ele><time>2026-04-18T15:01:22.999Z</time></trkpt><trkpt lat="43.81280915429438" lon="12.367797048736824"><ele>723.3333333333334</ele><time>2026-04-18T15:01:23.998Z</time></trkpt><trkpt lat="43.812864432988576" lon="12.367588796881446"><ele>720.6666666666667</ele><time>2026-04-18T15:01:24.998Z</time></trkpt><trkpt lat="43.81292057580013" lon="12.367375724200182"><ele>718.0</ele><time>2026-04-18T15:01:25.998Z</time></trkpt><trkpt lat="43.81298323686338" lon="12.36717740643538"><ele>716.5</ele><time>2026-04-18T15:01:26.998Z</time></trkpt><trkpt lat="43.813060537505" lon="12.366995854647959"><ele>715.0</ele><time>2026-04-18T15:01:27.998Z</time></trkpt><trkpt lat="43.813139472556166" lon="12.366832974813098"><ele>713.5</ele><time>2026-04-18T15:01:28.998Z</time></trkpt><trkpt lat="43.81321877857965" lon="12.366677102040974"><ele>712.0</ele><time>2026-04-18T15:01:29.998Z</time></trkpt><trkpt lat="43.81329416451868" lon="12.366543175324344"><ele>712.0</ele><time>2026-04-18T15:01:31Z</time></trkpt><trkpt lat="43.81335102845046" lon="12.366412358738446"><ele>712.0</ele><time>2026-04-18T15:01:32Z</time></trkpt><trkpt lat="43.813369047818" lon="12.366262769881537"><ele>712.0</ele><time>2026-04-18T15:01:33Z</time></trkpt><trkpt lat="43.81334814805653" lon="12.366104609431622"><ele>712.0</ele><time>2026-04-18T15:01:34Z</time></trkpt><trkpt lat="43.81329912655419" lon="12.36595394843356"><ele>712.25</ele><time>2026-04-18T15:01:35Z</time></trkpt><trkpt lat="43.8132261861295" lon="12.365839125702957"><ele>712.5</ele><time>2026-04-18T15:01:36Z</time></trkpt><trkpt lat="43.813132115294756" lon="12.365749554257944"><ele>712.75</ele><time>2026-04-18T15:01:37Z</time></trkpt><trkpt lat="43.813018269148245" lon="12.365685075047706"><ele>713.0</ele><time>2026-04-18T15:01:38Z</time></trkpt><trkpt lat="43.812879263787565" lon="12.365645852741144"><ele>713.0</ele><time>2026-04-18T15:01:39Z</time></trkpt><trkpt lat="43.8127378930893" lon="12.365591101133056"><ele>713.0</ele><time>2026-04-18T15:01:40Z</time></trkpt><trkpt lat="43.81259817974857" lon="12.365524325081308"><ele>713.0</ele><time>2026-04-18T15:01:41Z</time></trkpt><trkpt lat="43.81246533335239" lon="12.36544209229205"><ele>713.0</ele><time>2026-04-18T15:01:42Z</time></trkpt><trkpt lat="43.812337846419574" lon="12.365334546901025"><ele>711.0</ele><time>2026-04-18T15:01:43Z</time></trkpt><trkpt lat="43.81221816962756" lon="12.365196050680611"><ele>709.0</ele><time>2026-04-18T15:01:44Z</time></trkpt><trkpt lat="43.81210782875009" lon="12.365043221580807"><ele>707.0</ele><time>2026-04-18T15:01:45Z</time></trkpt><trkpt lat="43.812007829972224" lon="12.364884355283804"><ele>707.0</ele><time>2026-04-18T15:01:46Z</time></trkpt><trkpt lat="43.81186995206275" lon="12.364767909893601"><ele>707.0</ele><time>2026-04-18T15:01:47Z</time></trkpt><trkpt lat="43.811749061799766" lon="12.364651918092173"><ele>707.0</ele><time>2026-04-18T15:01:48Z</time></trkpt><trkpt lat="43.81163890365711" lon="12.364537425414737"><ele>707.0</ele><time>2026-04-18T15:01:49Z</time></trkpt><trkpt lat="43.811521228839744" lon="12.364450058875414"><ele>705.6666666666666</ele><time>2026-04-18T15:01:50Z</time></trkpt><trkpt lat="43.81137688145145" lon="12.364405939218551"><ele>704.3333333333334</ele><time>2026-04-18T15:01:51Z</time></trkpt><trkpt lat="43.81118758740368" lon="12.364361214073746"><ele>703.0</ele><time>2026-04-18T15:01:52Z</time></trkpt><trkpt lat="43.81102619958678" lon="12.36436858267819"><ele>698.6666666666667</ele><time>2026-04-18T15:01:53Z</time></trkpt><trkpt lat="43.81085593658681" lon="12.364356614225612"><ele>694.3333333333334</ele><time>2026-04-18T15:01:54Z</time></trkpt><trkpt lat="43.81070468009085" lon="12.3643341379682"><ele>690.0</ele><time>2026-04-18T15:01:55Z</time></trkpt><trkpt lat="43.810563735687616" lon="12.364316165393236"><ele>690.0</ele><time>2026-04-18T15:01:56Z</time></trkpt><trkpt lat="43.81043273035692" lon="12.364323860453693"><ele>690.0</ele><time>2026-04-18T15:01:57Z</time></trkpt><trkpt lat="43.810315033525605" lon="12.364340530700208"><ele>690.0</ele><time>2026-04-18T15:01:58Z</time></trkpt><trkpt lat="43.81020810529693" lon="12.36439002957584"><ele>690.0</ele><time>2026-04-18T15:01:59Z</time></trkpt><trkpt lat="43.81010740809617" lon="12.364481057721637"><ele>690.75</ele><time>2026-04-18T15:02:00Z</time></trkpt><trkpt lat="43.810007738563215" lon="12.364596381658705"><ele>691.5</ele><time>2026-04-18T15:02:01Z</time></trkpt><trkpt lat="43.80990198377651" lon="12.364716711738295"><ele>692.25</ele><time>2026-04-18T15:02:02Z</time></trkpt><trkpt lat="43.80978099382854" lon="12.364825795617397"><ele>693.0</ele><time>2026-04-18T15:02:03Z</time></trkpt><trkpt lat="43.80963822533176" lon="12.364860548080676"><ele>690.3333333333334</ele><time>2026-04-18T15:02:04Z</time></trkpt><trkpt lat="43.80948672152342" lon="12.36490064408299"><ele>687.6666666666667</ele><time>2026-04-18T15:02:05Z</time></trkpt><trkpt lat="43.80932639458261" lon="12.364923487713408"><ele>685.0</ele><time>2026-04-18T15:02:06Z</time></trkpt><trkpt lat="43.80915839313915" lon="12.364963555777248"><ele>683.3333333333334</ele><time>2026-04-18T15:02:07Z</time></trkpt><trkpt lat="43.808985861423864" lon="12.364986008760706"><ele>681.6666666666666</ele><time>2026-04-18T15:02:08Z</time></trkpt><trkpt lat="43.80881885437824" lon="12.365005027288918"><ele>680.0</ele><time>2026-04-18T15:02:08.999Z</time></trkpt><trkpt lat="43.80865567415436" lon="12.365032550343724"><ele>680.0</ele><time>2026-04-18T15:02:09.999Z</time></trkpt><trkpt lat="43.80851780756582" lon="12.365052753549419"><ele>680.0</ele><time>2026-04-18T15:02:10.999Z</time></trkpt><trkpt lat="43.80837209256407" lon="12.365152879346471"><ele>680.0</ele><time>2026-04-18T15:02:11.999Z</time></trkpt><trkpt lat="43.808235808325435" lon="12.365281458770207"><ele>679.6666666666666</ele><time>2026-04-18T15:02:12.999Z</time></trkpt><trkpt lat="43.80810910553121" lon="12.365426567234177"><ele>679.3333333333334</ele><time>2026-04-18T15:02:13.999Z</time></trkpt><trkpt lat="43.8079854113395" lon="12.365572985577556"><ele>679.0</ele><time>2026-04-18T15:02:14.999Z</time></trkpt><trkpt lat="43.807870239496424" lon="12.36570278747039"><ele>678.75</ele><time>2026-04-18T15:02:15.999Z</time></trkpt><trkpt lat="43.80774646620194" lon="12.365781420577008"><ele>678.5</ele><time>2026-04-18T15:02:16.999Z</time></trkpt><trkpt lat="43.80761964567846" lon="12.36582396691044"><ele>678.25</ele><time>2026-04-18T15:02:17.999Z</time></trkpt><trkpt lat="43.80748403140693" lon="12.365824848897566"><ele>678.0</ele><time>2026-04-18T15:02:18.999Z</time></trkpt><trkpt lat="43.80734077916267" lon="12.365795970650996"><ele>678.0</ele><time>2026-04-18T15:02:19.999Z</time></trkpt><trkpt lat="43.80718316364215" lon="12.365750433077258"><ele>678.0</ele><time>2026-04-18T15:02:20.999Z</time></trkpt><trkpt lat="43.80702854033463" lon="12.365706628151562"><ele>678.0</ele><time>2026-04-18T15:02:21.999Z</time></trkpt><trkpt lat="43.80687076150981" lon="12.365661465400006"><ele>678.3333333333334</ele><time>2026-04-18T15:02:22.999Z</time></trkpt><trkpt lat="43.80672604399807" lon="12.36558265263444"><ele>678.6666666666667</ele><time>2026-04-18T15:02:23.999Z</time></trkpt><trkpt lat="43.80660540686823" lon="12.365448344079113"><ele>679.0</ele><time>2026-04-18T15:02:24.999Z</time></trkpt><trkpt lat="43.806484391434395" lon="12.36529743283039"><ele>679.3333333333334</ele><time>2026-04-18T15:02:25.999Z</time></trkpt><trkpt lat="43.80636117264965" lon="12.3651358779777"><ele>679.6666666666666</ele><time>2026-04-18T15:02:26.999Z</time></trkpt><trkpt lat="43.80624106283356" lon="12.364978356158083"><ele>680.0</ele><time>2026-04-18T15:02:27.999Z</time></trkpt><trkpt lat="43.806124435865456" lon="12.364831276837478"><ele>680.6666666666666</ele><time>2026-04-18T15:02:28.999Z</time></trkpt><trkpt lat="43.80599211015269" lon="12.364722103037069"><ele>681.3333333333334</ele><time>2026-04-18T15:02:29.999Z</time></trkpt><trkpt lat="43.805859242866006" lon="12.364624830821981"><ele>682.0</ele><time>2026-04-18T15:02:30.999Z</time></trkpt><trkpt lat="43.80571330699875" lon="12.364549033443451"><ele>682.0</ele><time>2026-04-18T15:02:31.999Z</time></trkpt><trkpt lat="43.8055726649061" lon="12.364483748438584"><ele>682.0</ele><time>2026-04-18T15:02:32.999Z</time></trkpt><trkpt lat="43.80543722548668" lon="12.364422443609877"><ele>682.0</ele><time>2026-04-18T15:02:33.999Z</time></trkpt><trkpt lat="43.805305627983394" lon="12.364374131038439"><ele>682.0</ele><time>2026-04-18T15:02:34.999Z</time></trkpt><trkpt lat="43.80517356999224" lon="12.364364262887086"><ele>681.6666666666667</ele><time>2026-04-18T15:02:35.999Z</time></trkpt><trkpt lat="43.80503187311755" lon="12.36438891846428"><ele>681.3333333333334</ele><time>2026-04-18T15:02:36.999Z</time></trkpt><trkpt lat="43.80488408422244" lon="12.364431658569272"><ele>681.0</ele><time>2026-04-18T15:02:37.999Z</time></trkpt><trkpt lat="43.804718435740256" lon="12.36443943131584"><ele>681.0</ele><time>2026-04-18T15:02:38.999Z</time></trkpt><trkpt lat="43.804551793360986" lon="12.364462308122558"><ele>681.0</ele><time>2026-04-18T15:02:39.999Z</time></trkpt><trkpt lat="43.80438103645808" lon="12.364481820577387"><ele>681.0</ele><time>2026-04-18T15:02:40.999Z</time></trkpt><trkpt lat="43.804219333148524" lon="12.364500100073442"><ele>681.25</ele><time>2026-04-18T15:02:41.999Z</time></trkpt><trkpt lat="43.804066905297375" lon="12.364516794612962"><ele>681.5</ele><time>2026-04-18T15:02:42.999Z</time></trkpt><trkpt lat="43.803924608671" lon="12.364532077396147"><ele>681.75</ele><time>2026-04-18T15:02:43.999Z</time></trkpt><trkpt lat="43.80379043614883" lon="12.364546487666939"><ele>682.0</ele><time>2026-04-18T15:02:44.999Z</time></trkpt><trkpt lat="43.803673323276094" lon="12.36455906568077"><ele>682.0</ele><time>2026-04-18T15:02:45.999Z</time></trkpt><trkpt lat="43.80357163455429" lon="12.364569103857539"><ele>682.0</ele><time>2026-04-18T15:02:46.999Z</time></trkpt><trkpt lat="43.803486762892256" lon="12.364595717517048"><ele>682.0</ele><time>2026-04-18T15:02:47.999Z</time></trkpt><trkpt lat="43.80340748283738" lon="12.36460722832607"><ele>682.0</ele><time>2026-04-18T15:02:48.999Z</time></trkpt><trkpt lat="43.80332491379342" lon="12.36465251459118"><ele>682.0</ele><time>2026-04-18T15:02:49.999Z</time></trkpt><trkpt lat="43.80325148165506" lon="12.36472851985181"><ele>682.0</ele><time>2026-04-18T15:02:50.999Z</time></trkpt><trkpt lat="43.80318257763447" lon="12.364832568324347"><ele>680.0</ele><time>2026-04-18T15:02:51.999Z</time></trkpt><trkpt lat="43.80312116896769" lon="12.364956455104078"><ele>678.0</ele><time>2026-04-18T15:02:52.999Z</time></trkpt><trkpt lat="43.80306929688465" lon="12.365076427479272"><ele>676.0</ele><time>2026-04-18T15:02:53.999Z</time></trkpt><trkpt lat="43.803020877035486" lon="12.36517788286562"><ele>674.0</ele><time>2026-04-18T15:02:54.999Z</time></trkpt><trkpt lat="43.802973473841476" lon="12.365255897765302"><ele>672.0</ele><time>2026-04-18T15:02:55.999Z</time></trkpt><trkpt lat="43.80286967853033" lon="12.365302145024865"><ele>672.0</ele><time>2026-04-18T15:02:57.999Z</time></trkpt><trkpt lat="43.80280792038921" lon="12.365183957330627"><ele>672.0</ele><time>2026-04-18T15:02:59.999Z</time></trkpt><trkpt lat="43.80273279159569" lon="12.365084463855107"><ele>672.0</ele><time>2026-04-18T15:03:00.999Z</time></trkpt><trkpt lat="43.8026532917718" lon="12.364984724837427"><ele>672.0</ele><time>2026-04-18T15:03:01.999Z</time></trkpt><trkpt lat="43.80256285447073" lon="12.364872953007065"><ele>672.0</ele><time>2026-04-18T15:03:02.999Z</time></trkpt><trkpt lat="43.80246702516138" lon="12.364764254937283"><ele>674.0</ele><time>2026-04-18T15:03:03.999Z</time></trkpt><trkpt lat="43.802370627375886" lon="12.364647098903866"><ele>676.0</ele><time>2026-04-18T15:03:04.999Z</time></trkpt><trkpt lat="43.80227529973189" lon="12.364522526955852"><ele>678.0</ele><time>2026-04-18T15:03:05.999Z</time></trkpt><trkpt lat="43.802183702792696" lon="12.364387337845216"><ele>680.0</ele><time>2026-04-18T15:03:06.999Z</time></trkpt><trkpt lat="43.80210573239469" lon="12.364254684279187"><ele>680.0</ele><time>2026-04-18T15:03:07.999Z</time></trkpt><trkpt lat="43.80204159288353" lon="12.364128677127653"><ele>680.0</ele><time>2026-04-18T15:03:08.999Z</time></trkpt><trkpt lat="43.80198209456524" lon="12.363991375828155"><ele>680.0</ele><time>2026-04-18T15:03:09.999Z</time></trkpt><trkpt lat="43.801926077060614" lon="12.363851921010419"><ele>680.0</ele><time>2026-04-18T15:03:10.999Z</time></trkpt><trkpt lat="43.80187420271825" lon="12.363726020224261"><ele>680.0</ele><time>2026-04-18T15:03:11.999Z</time></trkpt><trkpt lat="43.80182305301116" lon="12.363608971410079"><ele>681.5</ele><time>2026-04-18T15:03:12.999Z</time></trkpt><trkpt lat="43.80175314923534" lon="12.363505186738161"><ele>683.0</ele><time>2026-04-18T15:03:13.999Z</time></trkpt><trkpt lat="43.801684321538616" lon="12.363395231125917"><ele>684.5</ele><time>2026-04-18T15:03:14.999Z</time></trkpt><trkpt lat="43.801592680086095" lon="12.363295510038812"><ele>686.0</ele><time>2026-04-18T15:03:15.999Z</time></trkpt><trkpt lat="43.80147771858007" lon="12.36321260940509"><ele>686.0</ele><time>2026-04-18T15:03:16.999Z</time></trkpt><trkpt lat="43.80134269909842" lon="12.363135880921028"><ele>686.0</ele><time>2026-04-18T15:03:17.999Z</time></trkpt><trkpt lat="43.80119646984904" lon="12.363061616802126"><ele>686.0</ele><time>2026-04-18T15:03:18.999Z</time></trkpt><trkpt lat="43.80104583174144" lon="12.362980348851188"><ele>687.6666666666666</ele><time>2026-04-18T15:03:19.999Z</time></trkpt><trkpt lat="43.8008875396139" lon="12.362892126285601"><ele>689.3333333333334</ele><time>2026-04-18T15:03:20.999Z</time></trkpt><trkpt lat="43.80074172140362" lon="12.36277405664925"><ele>691.0</ele><time>2026-04-18T15:03:21.999Z</time></trkpt><trkpt lat="43.80058699478277" lon="12.362685327950183"><ele>691.0</ele><time>2026-04-18T15:03:22.999Z</time></trkpt><trkpt lat="43.800439093319795" lon="12.362601691982409"><ele>691.0</ele><time>2026-04-18T15:03:23.999Z</time></trkpt><trkpt lat="43.80029419759203" lon="12.362519990281456"><ele>691.0</ele><time>2026-04-18T15:03:24.999Z</time></trkpt><trkpt lat="43.800152052899605" lon="12.362440070740172"><ele>691.75</ele><time>2026-04-18T15:03:25.999Z</time></trkpt><trkpt lat="43.80001173905018" lon="12.362360840657797"><ele>692.5</ele><time>2026-04-18T15:03:26.999Z</time></trkpt><trkpt lat="43.799872181802954" lon="12.362300709894301"><ele>693.25</ele><time>2026-04-18T15:03:27.999Z</time></trkpt><trkpt lat="43.79975090585947" lon="12.362228723531354"><ele>694.0</ele><time>2026-04-18T15:03:28.999Z</time></trkpt><trkpt lat="43.79964598109169" lon="12.36217303738334"><ele>694.0</ele><time>2026-04-18T15:03:29.999Z</time></trkpt><trkpt lat="43.799542771165676" lon="12.362145138628328"><ele>694.0</ele><time>2026-04-18T15:03:30.999Z</time></trkpt><trkpt lat="43.79944289359664" lon="12.362129813101665"><ele>694.0</ele><time>2026-04-18T15:03:31.999Z</time></trkpt><trkpt lat="43.79934748018687" lon="12.362214560636946"><ele>694.0</ele><time>2026-04-18T15:03:32.999Z</time></trkpt><trkpt lat="43.79926925625493" lon="12.362314204962594"><ele>694.0</ele><time>2026-04-18T15:03:33.999Z</time></trkpt><trkpt lat="43.799202532255784" lon="12.362446378607748"><ele>696.25</ele><time>2026-04-18T15:03:34.999Z</time></trkpt><trkpt lat="43.79914163971601" lon="12.362591987296264"><ele>698.5</ele><time>2026-04-18T15:03:35.999Z</time></trkpt><trkpt lat="43.79905306021777" lon="12.362714277032282"><ele>700.75</ele><time>2026-04-18T15:03:37Z</time></trkpt><trkpt lat="43.79895695095715" lon="12.362846413761192"><ele>703.0</ele><time>2026-04-18T15:03:38Z</time></trkpt><trkpt lat="43.79884518899354" lon="12.362956445757586"><ele>701.5</ele><time>2026-04-18T15:03:39Z</time></trkpt><trkpt lat="43.79872462415756" lon="12.363056034092077"><ele>700.0</ele><time>2026-04-18T15:03:40Z</time></trkpt><trkpt lat="43.79860477944676" lon="12.363137160954365"><ele>698.5</ele><time>2026-04-18T15:03:41Z</time></trkpt><trkpt lat="43.79848382258606" lon="12.363183390954697"><ele>697.0</ele><time>2026-04-18T15:03:42Z</time></trkpt><trkpt lat="43.798354979083754" lon="12.363186157406599"><ele>700.75</ele><time>2026-04-18T15:03:43Z</time></trkpt><trkpt lat="43.79821799506965" lon="12.36319975668592"><ele>704.5</ele><time>2026-04-18T15:03:44Z</time></trkpt><trkpt lat="43.798078633594336" lon="12.363254977958219"><ele>708.25</ele><time>2026-04-18T15:03:45Z</time></trkpt><trkpt lat="43.797936016630594" lon="12.363311639140505"><ele>712.0</ele><time>2026-04-18T15:03:46Z</time></trkpt><trkpt lat="43.79779881627337" lon="12.363385545773019"><ele>714.0</ele><time>2026-04-18T15:03:47Z</time></trkpt><trkpt lat="43.7976682498068" lon="12.363454327138541"><ele>716.0</ele><time>2026-04-18T15:03:48Z</time></trkpt><trkpt lat="43.79754553348002" lon="12.363518914962043"><ele>718.0</ele><time>2026-04-18T15:03:49Z</time></trkpt><trkpt lat="43.79743635515695" lon="12.363582514857754"><ele>720.0</ele><time>2026-04-18T15:03:50Z</time></trkpt><trkpt lat="43.797333587478" lon="12.363656966836707"><ele>720.0</ele><time>2026-04-18T15:03:51Z</time></trkpt><trkpt lat="43.7972460241778" lon="12.3637696748658"><ele>720.0</ele><time>2026-04-18T15:03:52Z</time></trkpt><trkpt lat="43.797177668982116" lon="12.36391521212227"><ele>720.0</ele><time>2026-04-18T15:03:53Z</time></trkpt><trkpt lat="43.79713165706996" lon="12.364083317169605"><ele>720.0</ele><time>2026-04-18T15:03:54Z</time></trkpt><trkpt lat="43.79711186804292" lon="12.364264022978967"><ele>718.75</ele><time>2026-04-18T15:03:55Z</time></trkpt><trkpt lat="43.797122439501685" lon="12.364452936021227"><ele>717.5</ele><time>2026-04-18T15:03:56Z</time></trkpt><trkpt lat="43.79715823510301" lon="12.36463878726413"><ele>716.25</ele><time>2026-04-18T15:03:57Z</time></trkpt><trkpt lat="43.797186742488" lon="12.364813737475995"><ele>715.0</ele><time>2026-04-18T15:03:58Z</time></trkpt><trkpt lat="43.79718320829173" lon="12.364974532970209"><ele>715.0</ele><time>2026-04-18T15:03:59Z</time></trkpt><trkpt lat="43.797128032318746" lon="12.365127972720328"><ele>715.0</ele><time>2026-04-18T15:04:00Z</time></trkpt><trkpt lat="43.79709278686104" lon="12.365312458234667"><ele>715.0</ele><time>2026-04-18T15:04:01Z</time></trkpt><trkpt lat="43.79703389906575" lon="12.365497171745492"><ele>715.0</ele><time>2026-04-18T15:04:02Z</time></trkpt><trkpt lat="43.79697985762599" lon="12.365691699829155"><ele>714.25</ele><time>2026-04-18T15:04:03Z</time></trkpt><trkpt lat="43.79692025688089" lon="12.365885803316944"><ele>713.5</ele><time>2026-04-18T15:04:04Z</time></trkpt><trkpt lat="43.79684743000547" lon="12.366059707961686"><ele>712.75</ele><time>2026-04-18T15:04:05Z</time></trkpt><trkpt lat="43.7968071095923" lon="12.366227902410891"><ele>712.0</ele><time>2026-04-18T15:04:06Z</time></trkpt><trkpt lat="43.79673508679422" lon="12.36634151384207"><ele>714.5</ele><time>2026-04-18T15:04:07Z</time></trkpt><trkpt lat="43.796647837894525" lon="12.366407519740854"><ele>717.0</ele><time>2026-04-18T15:04:08Z</time></trkpt><trkpt lat="43.796544366331716" lon="12.366397890336096"><ele>719.5</ele><time>2026-04-18T15:04:09Z</time></trkpt><trkpt lat="43.796438175542924" lon="12.366328561627363"><ele>722.0</ele><time>2026-04-18T15:04:10Z</time></trkpt><trkpt lat="43.79635875541139" lon="12.366181909190482"><ele>723.6666666666666</ele><time>2026-04-18T15:04:11Z</time></trkpt><trkpt lat="43.79625784762446" lon="12.366034822718328"><ele>725.3333333333334</ele><time>2026-04-18T15:04:12Z</time></trkpt><trkpt lat="43.796146957686425" lon="12.365892695232263"><ele>727.0</ele><time>2026-04-18T15:04:13Z</time></trkpt><trkpt lat="43.79603155225245" lon="12.36573049861509"><ele>727.3333333333334</ele><time>2026-04-18T15:04:14Z</time></trkpt><trkpt lat="43.79590933128026" lon="12.365577252984822"><ele>727.6666666666666</ele><time>2026-04-18T15:04:15Z</time></trkpt><trkpt lat="43.795765590591174" lon="12.365464051300457"><ele>728.0</ele><time>2026-04-18T15:04:16Z</time></trkpt><trkpt lat="43.79561156725245" lon="12.365369777039732"><ele>729.0</ele><time>2026-04-18T15:04:17Z</time></trkpt><trkpt lat="43.795445601509506" lon="12.365302555193585"><ele>730.0</ele><time>2026-04-18T15:04:18Z</time></trkpt><trkpt lat="43.79528687001665" lon="12.365198979438745"><ele>731.0</ele><time>2026-04-18T15:04:19Z</time></trkpt><trkpt lat="43.79512112769901" lon="12.36511473556739"><ele>731.0</ele><time>2026-04-18T15:04:20Z</time></trkpt><trkpt lat="43.79495395135955" lon="12.365023593909326"><ele>731.0</ele><time>2026-04-18T15:04:21Z</time></trkpt><trkpt lat="43.794785973496325" lon="12.36493639169319"><ele>731.0</ele><time>2026-04-18T15:04:22Z</time></trkpt><trkpt lat="43.79461192713734" lon="12.364887294920997"><ele>731.0</ele><time>2026-04-18T15:04:23Z</time></trkpt><trkpt lat="43.79444396217033" lon="12.364844611187541"><ele>731.0</ele><time>2026-04-18T15:04:24Z</time></trkpt><trkpt lat="43.794269715885854" lon="12.364827983385101"><ele>731.0</ele><time>2026-04-18T15:04:25Z</time></trkpt><trkpt lat="43.79409638583181" lon="12.364833298674306"><ele>730.3333333333333</ele><time>2026-04-18T15:04:26Z</time></trkpt><trkpt lat="43.79392653610047" lon="12.364879856852982"><ele>729.6666666666666</ele><time>2026-04-18T15:04:27Z</time></trkpt><trkpt lat="43.79376388377621" lon="12.36496009350356"><ele>729.0</ele><time>2026-04-18T15:04:28Z</time></trkpt><trkpt lat="43.79359693889556" lon="12.36501407287713"><ele>731.6666666666666</ele><time>2026-04-18T15:04:29Z</time></trkpt><trkpt lat="43.79343771481835" lon="12.365084080490583"><ele>734.3333333333333</ele><time>2026-04-18T15:04:30Z</time></trkpt><trkpt lat="43.79328886977816" lon="12.365143693288319"><ele>737.0</ele><time>2026-04-18T15:04:31Z</time></trkpt><trkpt lat="43.79315459122992" lon="12.365197959284375"><ele>737.0</ele><time>2026-04-18T15:04:32Z</time></trkpt><trkpt lat="43.79303145070894" lon="12.365251370717393"><ele>737.0</ele><time>2026-04-18T15:04:33Z</time></trkpt><trkpt lat="43.79292609401747" lon="12.365357323522739"><ele>737.0</ele><time>2026-04-18T15:04:34Z</time></trkpt><trkpt lat="43.79283005263901" lon="12.36548665681517"><ele>737.0</ele><time>2026-04-18T15:04:35Z</time></trkpt><trkpt lat="43.79273887817153" lon="12.365638140784416"><ele>739.25</ele><time>2026-04-18T15:04:36Z</time></trkpt><trkpt lat="43.79265001381366" lon="12.365798381420053"><ele>741.5</ele><time>2026-04-18T15:04:37Z</time></trkpt><trkpt lat="43.79255244963076" lon="12.365938219808877"><ele>743.75</ele><time>2026-04-18T15:04:38Z</time></trkpt><trkpt lat="43.79246972713669" lon="12.366083386968963"><ele>746.0</ele><time>2026-04-18T15:04:39Z</time></trkpt><trkpt lat="43.792390131552544" lon="12.366223066760375"><ele>746.0</ele><time>2026-04-18T15:04:40Z</time></trkpt><trkpt lat="43.792312797176145" lon="12.366348641467424"><ele>746.0</ele><time>2026-04-18T15:04:41Z</time></trkpt><trkpt lat="43.792231745745426" lon="12.366455012314624"><ele>746.0</ele><time>2026-04-18T15:04:42Z</time></trkpt><trkpt lat="43.79214219626278" lon="12.366511318122264"><ele>746.0</ele><time>2026-04-18T15:04:43Z</time></trkpt><trkpt lat="43.79205346850783" lon="12.366538269251137"><ele>746.0</ele><time>2026-04-18T15:04:44Z</time></trkpt><trkpt lat="43.79196308328861" lon="12.366476889526052"><ele>746.0</ele><time>2026-04-18T15:04:45Z</time></trkpt><trkpt lat="43.791889286226024" lon="12.366372179872215"><ele>746.0</ele><time>2026-04-18T15:04:45.999Z</time></trkpt><trkpt lat="43.79185081586736" lon="12.366245725760391"><ele>746.0</ele><time>2026-04-18T15:04:46.999Z</time></trkpt><trkpt lat="43.79186021014636" lon="12.36610153198571"><ele>746.0</ele><time>2026-04-18T15:04:47.999Z</time></trkpt><trkpt lat="43.791890362639386" lon="12.365946961236572"><ele>746.0</ele><time>2026-04-18T15:04:48.999Z</time></trkpt><trkpt lat="43.79191491448799" lon="12.365781111164047"><ele>746.0</ele><time>2026-04-18T15:04:49.999Z</time></trkpt><trkpt lat="43.79193204561863" lon="12.36560186602594"><ele>746.0</ele><time>2026-04-18T15:04:50.999Z</time></trkpt><trkpt lat="43.79195204137379" lon="12.365403351544371"><ele>746.0</ele><time>2026-04-18T15:04:51.999Z</time></trkpt><trkpt lat="43.791974983432745" lon="12.365196155394147"><ele>746.0</ele><time>2026-04-18T15:04:52.999Z</time></trkpt><trkpt lat="43.79199606729709" lon="12.364992020613814"><ele>747.25</ele><time>2026-04-18T15:04:53.999Z</time></trkpt><trkpt lat="43.792014065523574" lon="12.364784671542521"><ele>748.5</ele><time>2026-04-18T15:04:54.999Z</time></trkpt><trkpt lat="43.792030961515074" lon="12.364578622326196"><ele>749.75</ele><time>2026-04-18T15:04:55.999Z</time></trkpt><trkpt lat="43.792050288741706" lon="12.364383150381128"><ele>751.0</ele><time>2026-04-18T15:04:56.999Z</time></trkpt><trkpt lat="43.79206611404495" lon="12.364194288264306"><ele>751.0</ele><time>2026-04-18T15:04:57.999Z</time></trkpt><trkpt lat="43.79206213826011" lon="12.364001812760772"><ele>751.0</ele><time>2026-04-18T15:04:58.999Z</time></trkpt><trkpt lat="43.79202526178412" lon="12.363809629192554"><ele>751.0</ele><time>2026-04-18T15:04:59.999Z</time></trkpt><trkpt lat="43.791968014087885" lon="12.363625348981392"><ele>751.0</ele><time>2026-04-18T15:05:00.999Z</time></trkpt><trkpt lat="43.791885497119004" lon="12.36345434482653"><ele>749.3333333333334</ele><time>2026-04-18T15:05:01.999Z</time></trkpt><trkpt lat="43.79178107541957" lon="12.363300528120543"><ele>747.6666666666666</ele><time>2026-04-18T15:05:02.999Z</time></trkpt><trkpt lat="43.79166322137058" lon="12.363153952787519"><ele>746.0</ele><time>2026-04-18T15:05:03.999Z</time></trkpt><trkpt lat="43.79155149403448" lon="12.363000199679417"><ele>746.0</ele><time>2026-04-18T15:05:04.999Z</time></trkpt><trkpt lat="43.79144499284403" lon="12.362832060314814"><ele>746.0</ele><time>2026-04-18T15:05:05.999Z</time></trkpt><trkpt lat="43.7913344395287" lon="12.362662963324352"><ele>746.0</ele><time>2026-04-18T15:05:06.999Z</time></trkpt><trkpt lat="43.79122263951415" lon="12.362489989436865"><ele>746.0</ele><time>2026-04-18T15:05:07.999Z</time></trkpt><trkpt lat="43.79111194094821" lon="12.36232148307544"><ele>746.0</ele><time>2026-04-18T15:05:08.999Z</time></trkpt><trkpt lat="43.791004243660915" lon="12.362156931894173"><ele>746.0</ele><time>2026-04-18T15:05:09.999Z</time></trkpt><trkpt lat="43.79090398431273" lon="12.362004273941839"><ele>743.25</ele><time>2026-04-18T15:05:10.999Z</time></trkpt><trkpt lat="43.790809513209226" lon="12.361862831543524"><ele>740.5</ele><time>2026-04-18T15:05:11.999Z</time></trkpt><trkpt lat="43.79070786022205" lon="12.361736701542723"><ele>737.75</ele><time>2026-04-18T15:05:12.999Z</time></trkpt><trkpt lat="43.790586078948564" lon="12.361643354099755"><ele>735.0</ele><time>2026-04-18T15:05:13.999Z</time></trkpt><trkpt lat="43.79044225235711" lon="12.361583507821614"><ele>735.0</ele><time>2026-04-18T15:05:14.999Z</time></trkpt><trkpt lat="43.79028777918163" lon="12.361549733394153"><ele>735.0</ele><time>2026-04-18T15:05:15.999Z</time></trkpt><trkpt lat="43.79012765078746" lon="12.361540713768482"><ele>735.0</ele><time>2026-04-18T15:05:16.999Z</time></trkpt><trkpt lat="43.78997032074714" lon="12.361543648793802"><ele>732.0</ele><time>2026-04-18T15:05:17.999Z</time></trkpt><trkpt lat="43.789828345806164" lon="12.36155100023939"><ele>729.0</ele><time>2026-04-18T15:05:18.999Z</time></trkpt><trkpt lat="43.78969395905234" lon="12.361552918241305"><ele>726.0</ele><time>2026-04-18T15:05:19.999Z</time></trkpt><trkpt lat="43.78957228625422" lon="12.361548395286647"><ele>723.0</ele><time>2026-04-18T15:05:20.999Z</time></trkpt><trkpt lat="43.78946874709959" lon="12.361538649517419"><ele>723.0</ele><time>2026-04-18T15:05:21.999Z</time></trkpt><trkpt lat="43.789388956331315" lon="12.361493995531472"><ele>723.0</ele><time>2026-04-18T15:05:22.999Z</time></trkpt><trkpt lat="43.78931668315806" lon="12.361456226031049"><ele>723.0</ele><time>2026-04-18T15:05:23.999Z</time></trkpt><trkpt lat="43.78928644913439" lon="12.361329868682194"><ele>723.0</ele><time>2026-04-18T15:05:24.999Z</time></trkpt><trkpt lat="43.78926803041352" lon="12.361206399444264"><ele>723.0</ele><time>2026-04-18T15:05:25.999Z</time></trkpt><trkpt lat="43.78932639151708" lon="12.361080052528601"><ele>723.25</ele><time>2026-04-18T15:05:26.999Z</time></trkpt><trkpt lat="43.78937153240711" lon="12.360930451527416"><ele>723.5</ele><time>2026-04-18T15:05:27.999Z</time></trkpt><trkpt lat="43.78943823048985" lon="12.36077968375366"><ele>723.75</ele><time>2026-04-18T15:05:28.999Z</time></trkpt><trkpt lat="43.78950136488363" lon="12.360607216277801"><ele>724.0</ele><time>2026-04-18T15:05:29.999Z</time></trkpt><trkpt lat="43.78956909509375" lon="12.360427315558647"><ele>724.0</ele><time>2026-04-18T15:05:30.999Z</time></trkpt><trkpt lat="43.78963810100007" lon="12.360253077217218"><ele>724.0</ele><time>2026-04-18T15:05:31.999Z</time></trkpt><trkpt lat="43.789702494947655" lon="12.360081769445708"><ele>724.0</ele><time>2026-04-18T15:05:32.999Z</time></trkpt><trkpt lat="43.78976434697628" lon="12.359911310908922"><ele>724.0</ele><time>2026-04-18T15:05:33.999Z</time></trkpt><trkpt lat="43.789793892100555" lon="12.359728481528759"><ele>724.25</ele><time>2026-04-18T15:05:34.999Z</time></trkpt><trkpt lat="43.78980255414064" lon="12.359542784236462"><ele>724.5</ele><time>2026-04-18T15:05:35.999Z</time></trkpt><trkpt lat="43.78978715589612" lon="12.359353961165585"><ele>724.75</ele><time>2026-04-18T15:05:36.999Z</time></trkpt><trkpt lat="43.7897501563226" lon="12.359167354105717"><ele>725.0</ele><time>2026-04-18T15:05:37.999Z</time></trkpt><trkpt lat="43.78967018261027" lon="12.358998522196442"><ele>727.6666666666666</ele><time>2026-04-18T15:05:38.999Z</time></trkpt><trkpt lat="43.78957538059834" lon="12.35883650264768"><ele>730.3333333333334</ele><time>2026-04-18T15:05:39.999Z</time></trkpt><trkpt lat="43.78947126013208" lon="12.358678301375114"><ele>733.0</ele><time>2026-04-18T15:05:40.999Z</time></trkpt><trkpt lat="43.78937052543695" lon="12.35850501368925"><ele>727.0</ele><time>2026-04-18T15:05:41.999Z</time></trkpt><trkpt lat="43.789242266578135" lon="12.358365308316191"><ele>721.0</ele><time>2026-04-18T15:05:43Z</time></trkpt><trkpt lat="43.78912356579933" lon="12.358223188299325"><ele>715.0</ele><time>2026-04-18T15:05:44Z</time></trkpt><trkpt lat="43.7889923868755" lon="12.358102006959163"><ele>718.6666666666667</ele><time>2026-04-18T15:05:45Z</time></trkpt><trkpt lat="43.788843154826026" lon="12.358012919491891"><ele>722.3333333333334</ele><time>2026-04-18T15:05:46Z</time></trkpt><trkpt lat="43.78868247996333" lon="12.357954796061064"><ele>726.0</ele><time>2026-04-18T15:05:47Z</time></trkpt><trkpt lat="43.78852828786775" lon="12.35789187531216"><ele>723.0</ele><time>2026-04-18T15:05:48Z</time></trkpt><trkpt lat="43.78837620844933" lon="12.357843544727963"><ele>720.0</ele><time>2026-04-18T15:05:49Z</time></trkpt><trkpt lat="43.788235375409876" lon="12.357787732898036"><ele>717.0</ele><time>2026-04-18T15:05:50Z</time></trkpt><trkpt lat="43.78810850510216" lon="12.357708945995293"><ele>714.0</ele><time>2026-04-18T15:05:51Z</time></trkpt><trkpt lat="43.78800588934797" lon="12.357602046735515"><ele>714.0</ele><time>2026-04-18T15:05:52Z</time></trkpt><trkpt lat="43.78790699952618" lon="12.357470934124285"><ele>714.0</ele><time>2026-04-18T15:05:53Z</time></trkpt><trkpt lat="43.78782221794586" lon="12.357301550779738"><ele>714.0</ele><time>2026-04-18T15:05:54Z</time></trkpt><trkpt lat="43.787767823396166" lon="12.357089761034644"><ele>714.0</ele><time>2026-04-18T15:05:55Z</time></trkpt><trkpt lat="43.78770156091708" lon="12.356873056488755"><ele>711.0</ele><time>2026-04-18T15:05:56Z</time></trkpt><trkpt lat="43.7876328851339" lon="12.356645166665308"><ele>708.0</ele><time>2026-04-18T15:05:57Z</time></trkpt><trkpt lat="43.78755346283167" lon="12.356423594647554"><ele>705.0</ele><time>2026-04-18T15:05:58Z</time></trkpt><trkpt lat="43.7875003027873" lon="12.356193926835138"><ele>705.0</ele><time>2026-04-18T15:05:59Z</time></trkpt><trkpt lat="43.787467223457476" lon="12.355959217693174"><ele>705.0</ele><time>2026-04-18T15:06:00Z</time></trkpt><trkpt lat="43.787465295966214" lon="12.355716077784493"><ele>705.0</ele><time>2026-04-18T15:06:01Z</time></trkpt><trkpt lat="43.78749702458762" lon="12.35548506215594"><ele>705.3333333333334</ele><time>2026-04-18T15:06:02Z</time></trkpt><trkpt lat="43.78749570678826" lon="12.355264166414633"><ele>705.6666666666667</ele><time>2026-04-18T15:06:03Z</time></trkpt><trkpt lat="43.787492832111596" lon="12.355043208362414"><ele>706.0</ele><time>2026-04-18T15:06:04Z</time></trkpt><trkpt lat="43.78744724962234" lon="12.354825049931073"><ele>706.75</ele><time>2026-04-18T15:06:05Z</time></trkpt><trkpt lat="43.78742762791009" lon="12.354636925576592"><ele>707.5</ele><time>2026-04-18T15:06:06Z</time></trkpt><trkpt lat="43.787420658871156" lon="12.35445542810522"><ele>708.25</ele><time>2026-04-18T15:06:07Z</time></trkpt><trkpt lat="43.78739960421164" lon="12.354281516520542"><ele>709.0</ele><time>2026-04-18T15:06:08Z</time></trkpt><trkpt lat="43.78734855997816" lon="12.354107125430064"><ele>709.0</ele><time>2026-04-18T15:06:09Z</time></trkpt><trkpt lat="43.78727937711736" lon="12.353927737089991"><ele>709.0</ele><time>2026-04-18T15:06:10Z</time></trkpt><trkpt lat="43.78721310420242" lon="12.353742478454386"><ele>709.0</ele><time>2026-04-18T15:06:11Z</time></trkpt><trkpt lat="43.787143076012455" lon="12.35355783746208"><ele>709.0</ele><time>2026-04-18T15:06:12Z</time></trkpt><trkpt lat="43.78707070469975" lon="12.353353136658772"><ele>711.3333333333334</ele><time>2026-04-18T15:06:13Z</time></trkpt><trkpt lat="43.78699775094924" lon="12.35314970172849"><ele>713.6666666666666</ele><time>2026-04-18T15:06:14Z</time></trkpt><trkpt lat="43.786920796519595" lon="12.35293672591057"><ele>716.0</ele><time>2026-04-18T15:06:15Z</time></trkpt><trkpt lat="43.78684663785512" lon="12.352733117677452"><ele>711.5</ele><time>2026-04-18T15:06:16Z</time></trkpt><trkpt lat="43.7867800236301" lon="12.3525345124481"><ele>707.0</ele><time>2026-04-18T15:06:17Z</time></trkpt><trkpt lat="43.786715946737885" lon="12.352350603922325"><ele>702.5</ele><time>2026-04-18T15:06:18Z</time></trkpt><trkpt lat="43.78665247951487" lon="12.352183640006253"><ele>698.0</ele><time>2026-04-18T15:06:19Z</time></trkpt><trkpt lat="43.786594990676605" lon="12.35202756039095"><ele>698.0</ele><time>2026-04-18T15:06:20Z</time></trkpt><trkpt lat="43.786540520619404" lon="12.351884294544904"><ele>698.0</ele><time>2026-04-18T15:06:21Z</time></trkpt><trkpt lat="43.78649624194104" lon="12.351752189165806"><ele>698.0</ele><time>2026-04-18T15:06:22Z</time></trkpt><trkpt lat="43.78646713575013" lon="12.351630736088927"><ele>698.0</ele><time>2026-04-18T15:06:23Z</time></trkpt><trkpt lat="43.7864470374694" lon="12.351516665982158"><ele>698.0</ele><time>2026-04-18T15:06:24Z</time></trkpt><trkpt lat="43.78644416281441" lon="12.35140591415426"><ele>698.0</ele><time>2026-04-18T15:06:25Z</time></trkpt><trkpt lat="43.78641615344312" lon="12.35131904203969"><ele>698.0</ele><time>2026-04-18T15:06:26Z</time></trkpt><trkpt lat="43.78637256664627" lon="12.351180981135219"><ele>698.0</ele><time>2026-04-18T15:06:28Z</time></trkpt><trkpt lat="43.786297898875496" lon="12.351028709092066"><ele>698.0</ele><time>2026-04-18T15:06:30Z</time></trkpt><trkpt lat="43.7862675164752" lon="12.350885674889279"><ele>698.0</ele><time>2026-04-18T15:06:31Z</time></trkpt><trkpt lat="43.78622465641811" lon="12.350712210721314"><ele>698.75</ele><time>2026-04-18T15:06:32Z</time></trkpt><trkpt lat="43.78616603959241" lon="12.35053006316388"><ele>699.5</ele><time>2026-04-18T15:06:33Z</time></trkpt><trkpt lat="43.78612039200761" lon="12.350338201763211"><ele>700.25</ele><time>2026-04-18T15:06:34Z</time></trkpt><trkpt lat="43.78607722610255" lon="12.350148870731319"><ele>701.0</ele><time>2026-04-18T15:06:35Z</time></trkpt><trkpt lat="43.786030140199514" lon="12.349958407154864"><ele>699.0</ele><time>2026-04-18T15:06:36Z</time></trkpt><trkpt lat="43.78598172277009" lon="12.349767513650844"><ele>697.0</ele><time>2026-04-18T15:06:37Z</time></trkpt><trkpt lat="43.7859326637274" lon="12.349574331594486"><ele>695.0</ele><time>2026-04-18T15:06:38Z</time></trkpt><trkpt lat="43.785884858743636" lon="12.349382675957274"><ele>693.0</ele><time>2026-04-18T15:06:39Z</time></trkpt><trkpt lat="43.78583259593489" lon="12.349187123587088"><ele>693.0</ele><time>2026-04-18T15:06:40Z</time></trkpt><trkpt lat="43.785766940753426" lon="12.3490012363915"><ele>693.0</ele><time>2026-04-18T15:06:41Z</time></trkpt><trkpt lat="43.7856773112938" lon="12.348824858775028"><ele>693.0</ele><time>2026-04-18T15:06:42Z</time></trkpt><trkpt lat="43.78556126274829" lon="12.348671576571398"><ele>694.3333333333334</ele><time>2026-04-18T15:06:43Z</time></trkpt><trkpt lat="43.78543006996735" lon="12.348529639454478"><ele>695.6666666666667</ele><time>2026-04-18T15:06:44Z</time></trkpt><trkpt lat="43.785286365721525" lon="12.348397147270903"><ele>697.0</ele><time>2026-04-18T15:06:45Z</time></trkpt><trkpt lat="43.78514577461042" lon="12.348242857323728"><ele>696.3333333333334</ele><time>2026-04-18T15:06:46Z</time></trkpt><trkpt lat="43.7849921210408" lon="12.348100671985677"><ele>695.6666666666666</ele><time>2026-04-18T15:06:47Z</time></trkpt><trkpt lat="43.78483396298289" lon="12.347954318388101"><ele>695.0</ele><time>2026-04-18T15:06:48Z</time></trkpt><trkpt lat="43.784674357145306" lon="12.347806625001558"><ele>695.0</ele><time>2026-04-18T15:06:49Z</time></trkpt><trkpt lat="43.78450297878375" lon="12.347674620617543"><ele>695.0</ele><time>2026-04-18T15:06:50Z</time></trkpt><trkpt lat="43.78433823365466" lon="12.34751613323253"><ele>695.0</ele><time>2026-04-18T15:06:51Z</time></trkpt><trkpt lat="43.78418018685812" lon="12.347340782978433"><ele>694.6666666666666</ele><time>2026-04-18T15:06:52Z</time></trkpt><trkpt lat="43.7840132384015" lon="12.34718234920133"><ele>694.3333333333334</ele><time>2026-04-18T15:06:53Z</time></trkpt><trkpt lat="43.7838425335183" lon="12.347020350574711"><ele>694.0</ele><time>2026-04-18T15:06:54Z</time></trkpt><trkpt lat="43.78366885146366" lon="12.346857940775259"><ele>691.6666666666667</ele><time>2026-04-18T15:06:54.999Z</time></trkpt><trkpt lat="43.783492972628885" lon="12.346694670111063"><ele>689.3333333333334</ele><time>2026-04-18T15:06:55.999Z</time></trkpt><trkpt lat="43.78330905650109" lon="12.346551276277319"><ele>687.0</ele><time>2026-04-18T15:06:56.999Z</time></trkpt><trkpt lat="43.7831395454675" lon="12.346392477930292"><ele>688.0</ele><time>2026-04-18T15:06:57.999Z</time></trkpt><trkpt lat="43.782974360553624" lon="12.34623924358478"><ele>689.0</ele><time>2026-04-18T15:06:58.999Z</time></trkpt><trkpt lat="43.78282424881523" lon="12.346071058514031"><ele>690.0</ele><time>2026-04-18T15:06:59.999Z</time></trkpt><trkpt lat="43.78267216054562" lon="12.345927893722614"><ele>690.0</ele><time>2026-04-18T15:07:00.999Z</time></trkpt><trkpt lat="43.782526898357844" lon="12.345791205416361"><ele>690.0</ele><time>2026-04-18T15:07:01.999Z</time></trkpt><trkpt lat="43.78238039332724" lon="12.345670977777896"><ele>690.0</ele><time>2026-04-18T15:07:02.999Z</time></trkpt><trkpt lat="43.78225022969403" lon="12.345530040379284"><ele>693.3333333333334</ele><time>2026-04-18T15:07:03.999Z</time></trkpt><trkpt lat="43.782152790526794" lon="12.345345270070666"><ele>696.6666666666667</ele><time>2026-04-18T15:07:04.999Z</time></trkpt><trkpt lat="43.782065380402635" lon="12.345151502236327"><ele>700.0</ele><time>2026-04-18T15:07:05.999Z</time></trkpt><trkpt lat="43.7820077126615" lon="12.344932410017142"><ele>700.6666666666667</ele><time>2026-04-18T15:07:06.999Z</time></trkpt><trkpt lat="43.781972404549606" lon="12.344693590427807"><ele>701.3333333333334</ele><time>2026-04-18T15:07:07.999Z</time></trkpt><trkpt lat="43.78192695220553" lon="12.344447717797772"><ele>702.0</ele><time>2026-04-18T15:07:08.999Z</time></trkpt><trkpt lat="43.78188847078934" lon="12.344193896956433"><ele>700.6666666666666</ele><time>2026-04-18T15:07:09.999Z</time></trkpt><trkpt lat="43.78184289987384" lon="12.34394179614557"><ele>699.3333333333333</ele><time>2026-04-18T15:07:10.999Z</time></trkpt><trkpt lat="43.781779732554426" lon="12.343693106447809"><ele>698.0</ele><time>2026-04-18T15:07:11.999Z</time></trkpt><trkpt lat="43.78170138215893" lon="12.34345226601199"><ele>698.0</ele><time>2026-04-18T15:07:12.999Z</time></trkpt><trkpt lat="43.78162160460114" lon="12.34320966494275"><ele>698.0</ele><time>2026-04-18T15:07:13.999Z</time></trkpt><trkpt lat="43.78154344056719" lon="12.342968015703029"><ele>698.0</ele><time>2026-04-18T15:07:14.999Z</time></trkpt><trkpt lat="43.781466371031165" lon="12.342727438505616"><ele>702.0</ele><time>2026-04-18T15:07:15.999Z</time></trkpt><trkpt lat="43.78139029662664" lon="12.342485425938394"><ele>706.0</ele><time>2026-04-18T15:07:16.999Z</time></trkpt><trkpt lat="43.78131922219878" lon="12.342247323989922"><ele>710.0</ele><time>2026-04-18T15:07:17.999Z</time></trkpt><trkpt lat="43.781244334021785" lon="12.342014312753424"><ele>711.0</ele><time>2026-04-18T15:07:18.999Z</time></trkpt><trkpt lat="43.78117034507612" lon="12.341785399757397"><ele>712.0</ele><time>2026-04-18T15:07:19.999Z</time></trkpt><trkpt lat="43.78110173184345" lon="12.341559905552687"><ele>713.0</ele><time>2026-04-18T15:07:20.999Z</time></trkpt><trkpt lat="43.78103467545135" lon="12.341350037971218"><ele>713.25</ele><time>2026-04-18T15:07:21.999Z</time></trkpt><trkpt lat="43.78097471567849" lon="12.341148040640872"><ele>713.5</ele><time>2026-04-18T15:07:22.999Z</time></trkpt><trkpt lat="43.78091849272145" lon="12.340958504227059"><ele>713.75</ele><time>2026-04-18T15:07:23.999Z</time></trkpt><trkpt lat="43.78086404325942" lon="12.34077711160272"><ele>714.0</ele><time>2026-04-18T15:07:24.998Z</time></trkpt><trkpt lat="43.78080743964156" lon="12.340596599696026"><ele>715.0</ele><time>2026-04-18T15:07:25.998Z</time></trkpt><trkpt lat="43.78075040119888" lon="12.34041245702771"><ele>716.0</ele><time>2026-04-18T15:07:26.998Z</time></trkpt><trkpt lat="43.78069587890418" lon="12.340233150326108"><ele>717.0</ele><time>2026-04-18T15:07:27.998Z</time></trkpt><trkpt lat="43.780643882064275" lon="12.340062306687846"><ele>718.0</ele><time>2026-04-18T15:07:28.998Z</time></trkpt><trkpt lat="43.780592496425975" lon="12.339895552773907"><ele>718.0</ele><time>2026-04-18T15:07:29.998Z</time></trkpt><trkpt lat="43.78054357446023" lon="12.33972494236483"><ele>718.0</ele><time>2026-04-18T15:07:30.998Z</time></trkpt><trkpt lat="43.78049135320453" lon="12.339551535325509"><ele>718.0</ele><time>2026-04-18T15:07:31.998Z</time></trkpt><trkpt lat="43.7804338279785" lon="12.339372095144622"><ele>718.0</ele><time>2026-04-18T15:07:32.998Z</time></trkpt><trkpt lat="43.78037414774072" lon="12.339181963317136"><ele>718.0</ele><time>2026-04-18T15:07:33.998Z</time></trkpt><trkpt lat="43.780314465693486" lon="12.338989154850049"><ele>718.0</ele><time>2026-04-18T15:07:34.998Z</time></trkpt><trkpt lat="43.78025695417117" lon="12.338798969881042"><ele>718.0</ele><time>2026-04-18T15:07:35.998Z</time></trkpt><trkpt lat="43.78020098839157" lon="12.338610709203087"><ele>718.0</ele><time>2026-04-18T15:07:36.998Z</time></trkpt><trkpt lat="43.78014721188133" lon="12.338424285207797"><ele>718.0</ele><time>2026-04-18T15:07:37.998Z</time></trkpt><trkpt lat="43.78008983261643" lon="12.338249779737287"><ele>718.0</ele><time>2026-04-18T15:07:38.998Z</time></trkpt><trkpt lat="43.78002142506975" lon="12.338090751376079"><ele>718.0</ele><time>2026-04-18T15:07:39.998Z</time></trkpt><trkpt lat="43.779958879650316" lon="12.337925763117283"><ele>718.0</ele><time>2026-04-18T15:07:40.998Z</time></trkpt><trkpt lat="43.779856765846645" lon="12.337809960041392"><ele>719.75</ele><time>2026-04-18T15:07:41.998Z</time></trkpt><trkpt lat="43.779753329492216" lon="12.337699688431966"><ele>721.5</ele><time>2026-04-18T15:07:42.998Z</time></trkpt><trkpt lat="43.77964003075479" lon="12.33760484047128"><ele>723.25</ele><time>2026-04-18T15:07:43.998Z</time></trkpt><trkpt lat="43.77952230073485" lon="12.337516334899574"><ele>725.0</ele><time>2026-04-18T15:07:44.998Z</time></trkpt><trkpt lat="43.779399995004724" lon="12.337425329784208"><ele>724.75</ele><time>2026-04-18T15:07:45.998Z</time></trkpt><trkpt lat="43.77927619517236" lon="12.337332827048757"><ele>724.5</ele><time>2026-04-18T15:07:46.998Z</time></trkpt><trkpt lat="43.77914788884966" lon="12.337235319408734"><ele>724.25</ele><time>2026-04-18T15:07:47.998Z</time></trkpt><trkpt lat="43.7790207785098" lon="12.337141398674547"><ele>724.0</ele><time>2026-04-18T15:07:48.999Z</time></trkpt><trkpt lat="43.77889124623487" lon="12.337045095114865"><ele>724.0</ele><time>2026-04-18T15:07:49.999Z</time></trkpt><trkpt lat="43.77876177917491" lon="12.336950557971894"><ele>724.0</ele><time>2026-04-18T15:07:50.999Z</time></trkpt><trkpt lat="43.77863513304557" lon="12.336860006652765"><ele>724.0</ele><time>2026-04-18T15:07:51.999Z</time></trkpt><trkpt lat="43.77851308523072" lon="12.336772154668402"><ele>724.0</ele><time>2026-04-18T15:07:52.999Z</time></trkpt><trkpt lat="43.778402620299644" lon="12.336694094326832"><ele>724.0</ele><time>2026-04-18T15:07:53.999Z</time></trkpt><trkpt lat="43.77830419124969" lon="12.336612973196925"><ele>724.0</ele><time>2026-04-18T15:07:54.999Z</time></trkpt><trkpt lat="43.77821901068743" lon="12.336509446517836"><ele>724.0</ele><time>2026-04-18T15:07:55.999Z</time></trkpt><trkpt lat="43.7781605716479" lon="12.336363130982681"><ele>724.0</ele><time>2026-04-18T15:07:56.999Z</time></trkpt><trkpt lat="43.77812130432502" lon="12.336188084823696"><ele>725.0</ele><time>2026-04-18T15:07:57.999Z</time></trkpt><trkpt lat="43.778127291566264" lon="12.33597614100622"><ele>726.0</ele><time>2026-04-18T15:07:58.999Z</time></trkpt><trkpt lat="43.77810760236382" lon="12.335744583157714"><ele>727.0</ele><time>2026-04-18T15:07:59.999Z</time></trkpt><trkpt lat="43.77810700511346" lon="12.335491645761875"><ele>727.6666666666667</ele><time>2026-04-18T15:08:01Z</time></trkpt><trkpt lat="43.77810551949921" lon="12.335223553560407"><ele>728.3333333333334</ele><time>2026-04-18T15:08:02Z</time></trkpt><trkpt lat="43.778105221710994" lon="12.334956119056566"><ele>729.0</ele><time>2026-04-18T15:08:03Z</time></trkpt><trkpt lat="43.778103845982194" lon="12.334697062186217"><ele>730.6666666666666</ele><time>2026-04-18T15:08:04Z</time></trkpt><trkpt lat="43.778103632973455" lon="12.334437653518954"><ele>732.3333333333333</ele><time>2026-04-18T15:08:05Z</time></trkpt><trkpt lat="43.77810126437652" lon="12.334181476665991"><ele>734.0</ele><time>2026-04-18T15:08:06Z</time></trkpt><trkpt lat="43.77809979468" lon="12.33393977789464"><ele>735.6666666666666</ele><time>2026-04-18T15:08:07Z</time></trkpt><trkpt lat="43.7780983643162" lon="12.333714552086285"><ele>737.3333333333334</ele><time>2026-04-18T15:08:08Z</time></trkpt><trkpt lat="43.77809698990807" lon="12.333495024301843"><ele>739.0</ele><time>2026-04-18T15:08:09Z</time></trkpt><trkpt lat="43.778096914871014" lon="12.333278436152204"><ele>739.0</ele><time>2026-04-18T15:08:09.999Z</time></trkpt><trkpt lat="43.77809693838311" lon="12.33306095356536"><ele>739.0</ele><time>2026-04-18T15:08:10.999Z</time></trkpt><trkpt lat="43.77810938701909" lon="12.332844089425066"><ele>739.0</ele><time>2026-04-18T15:08:11.999Z</time></trkpt><trkpt lat="43.778139608694865" lon="12.332627300106756"><ele>739.3333333333334</ele><time>2026-04-18T15:08:12.999Z</time></trkpt><trkpt lat="43.77818026946214" lon="12.332407091036314"><ele>739.6666666666666</ele><time>2026-04-18T15:08:13.999Z</time></trkpt><trkpt lat="43.77823620335686" lon="12.332187930208558"><ele>740.0</ele><time>2026-04-18T15:08:14.999Z</time></trkpt><trkpt lat="43.77832075440845" lon="12.331988059901583"><ele>741.3333333333333</ele><time>2026-04-18T15:08:15.999Z</time></trkpt><trkpt lat="43.77838953809074" lon="12.331783749098141"><ele>742.6666666666666</ele><time>2026-04-18T15:08:16.999Z</time></trkpt><trkpt lat="43.77847667564841" lon="12.331610278601097"><ele>744.0</ele><time>2026-04-18T15:08:17.999Z</time></trkpt><trkpt lat="43.77856426592235" lon="12.331455257584588"><ele>745.6</ele><time>2026-04-18T15:08:18.999Z</time></trkpt><trkpt lat="43.778648081751534" lon="12.331312759549569"><ele>747.2</ele><time>2026-04-18T15:08:19.999Z</time></trkpt><trkpt lat="43.77872027112732" lon="12.331197076624852"><ele>748.8000000000001</ele><time>2026-04-18T15:08:20.999Z</time></trkpt><trkpt lat="43.7787835312792" lon="12.331099961571345"><ele>750.4000000000001</ele><time>2026-04-18T15:08:21.999Z</time></trkpt><trkpt lat="43.778839424394235" lon="12.331026285088228"><ele>752.0</ele><time>2026-04-18T15:08:22.999Z</time></trkpt><trkpt lat="43.77893667562641" lon="12.330929431685668"><ele>752.0</ele><time>2026-04-18T15:08:24.999Z</time></trkpt><trkpt lat="43.77903016872297" lon="12.330808169934498"><ele>752.0</ele><time>2026-04-18T15:08:26.999Z</time></trkpt><trkpt lat="43.77906588083366" lon="12.330732606626725"><ele>752.0</ele><time>2026-04-18T15:08:27.999Z</time></trkpt><trkpt lat="43.77908868511153" lon="12.330646159388005"><ele>752.0</ele><time>2026-04-18T15:08:28.999Z</time></trkpt><trkpt lat="43.779099584901545" lon="12.330550732946941"><ele>752.0</ele><time>2026-04-18T15:08:29.999Z</time></trkpt><trkpt lat="43.77910690414083" lon="12.330453393865946"><ele>752.0</ele><time>2026-04-18T15:08:30.999Z</time></trkpt><trkpt lat="43.77910622601179" lon="12.33034003946478"><ele>753.2</ele><time>2026-04-18T15:08:31.999Z</time></trkpt><trkpt lat="43.77909069470063" lon="12.330211234802439"><ele>754.4000000000001</ele><time>2026-04-18T15:08:32.999Z</time></trkpt><trkpt lat="43.77905093099293" lon="12.330078141517323"><ele>755.5999999999999</ele><time>2026-04-18T15:08:33.999Z</time></trkpt><trkpt lat="43.7789880361781" lon="12.329956200239547"><ele>756.8</ele><time>2026-04-18T15:08:34.999Z</time></trkpt><trkpt lat="43.77890896176737" lon="12.32983192459083"><ele>758.0</ele><time>2026-04-18T15:08:35.999Z</time></trkpt><trkpt lat="43.77882376806095" lon="12.329697738503254"><ele>758.25</ele><time>2026-04-18T15:08:36.999Z</time></trkpt><trkpt lat="43.77873431923844" lon="12.329552035773828"><ele>758.5</ele><time>2026-04-18T15:08:37.999Z</time></trkpt><trkpt lat="43.77863906507305" lon="12.329409410206338"><ele>758.75</ele><time>2026-04-18T15:08:38.999Z</time></trkpt><trkpt lat="43.7785434157952" lon="12.329264195355835"><ele>759.0</ele><time>2026-04-18T15:08:39.999Z</time></trkpt><trkpt lat="43.77844907961819" lon="12.329116987759681"><ele>759.0</ele><time>2026-04-18T15:08:40.999Z</time></trkpt><trkpt lat="43.77834745876071" lon="12.328973121021379"><ele>759.0</ele><time>2026-04-18T15:08:41.999Z</time></trkpt><trkpt lat="43.778252858724194" lon="12.328819988175802"><ele>759.0</ele><time>2026-04-18T15:08:42.999Z</time></trkpt><trkpt lat="43.77813293158072" lon="12.328725484158001"><ele>759.0</ele><time>2026-04-18T15:08:43.999Z</time></trkpt><trkpt lat="43.77802255130414" lon="12.328631689333834"><ele>760.0</ele><time>2026-04-18T15:08:44.999Z</time></trkpt><trkpt lat="43.77790441785849" lon="12.328551404074581"><ele>761.0</ele><time>2026-04-18T15:08:45.999Z</time></trkpt><trkpt lat="43.777791119441424" lon="12.328478506362368"><ele>762.0</ele><time>2026-04-18T15:08:46.999Z</time></trkpt><trkpt lat="43.77768935489444" lon="12.328388962246011"><ele>763.0</ele><time>2026-04-18T15:08:47.999Z</time></trkpt><trkpt lat="43.77759145299862" lon="12.328319956296102"><ele>763.0</ele><time>2026-04-18T15:08:48.999Z</time></trkpt><trkpt lat="43.77750038984972" lon="12.328238202171242"><ele>763.0</ele><time>2026-04-18T15:08:49.999Z</time></trkpt><trkpt lat="43.77740806621203" lon="12.328152501787008"><ele>763.0</ele><time>2026-04-18T15:08:50.999Z</time></trkpt><trkpt lat="43.777344401151495" lon="12.32803083096808"><ele>763.0</ele><time>2026-04-18T15:08:51.999Z</time></trkpt><trkpt lat="43.777327168461575" lon="12.327882663642315"><ele>763.0</ele><time>2026-04-18T15:08:52.999Z</time></trkpt><trkpt lat="43.77733452201297" lon="12.327735871133317"><ele>764.0</ele><time>2026-04-18T15:08:53.999Z</time></trkpt><trkpt lat="43.77731760467559" lon="12.327584430347555"><ele>765.0</ele><time>2026-04-18T15:08:54.999Z</time></trkpt><trkpt lat="43.77731625213422" lon="12.327431703686603"><ele>766.0</ele><time>2026-04-18T15:08:55.999Z</time></trkpt><trkpt lat="43.77732215712214" lon="12.327281501231347"><ele>767.0</ele><time>2026-04-18T15:08:56.999Z</time></trkpt><trkpt lat="43.77728180271789" lon="12.32713808948313"><ele>768.0</ele><time>2026-04-18T15:08:57.999Z</time></trkpt><trkpt lat="43.77722564218233" lon="12.32700412849261"><ele>769.0</ele><time>2026-04-18T15:08:58.999Z</time></trkpt><trkpt lat="43.77714449592776" lon="12.32687689036811"><ele>770.0</ele><time>2026-04-18T15:08:59.999Z</time></trkpt><trkpt lat="43.77704973300604" lon="12.326755624753009"><ele>771.0</ele><time>2026-04-18T15:09:00.999Z</time></trkpt><trkpt lat="43.77694322561259" lon="12.32663042210474"><ele>772.0</ele><time>2026-04-18T15:09:01.999Z</time></trkpt><trkpt lat="43.77683739062822" lon="12.326503812290357"><ele>773.75</ele><time>2026-04-18T15:09:02.999Z</time></trkpt><trkpt lat="43.77674217558156" lon="12.326359521087234"><ele>775.5</ele><time>2026-04-18T15:09:03.999Z</time></trkpt><trkpt lat="43.77664965759338" lon="12.326229399105824"><ele>777.25</ele><time>2026-04-18T15:09:04.999Z</time></trkpt><trkpt lat="43.77656520187247" lon="12.326096921117939"><ele>779.0</ele><time>2026-04-18T15:09:05.999Z</time></trkpt><trkpt lat="43.77649350965719" lon="12.325957856096034"><ele>779.0</ele><time>2026-04-18T15:09:06.999Z</time></trkpt><trkpt lat="43.77646192022929" lon="12.325805817414052"><ele>779.0</ele><time>2026-04-18T15:09:07.999Z</time></trkpt><trkpt lat="43.776458019993875" lon="12.325637359645178"><ele>779.0</ele><time>2026-04-18T15:09:08.999Z</time></trkpt><trkpt lat="43.77648627579051" lon="12.325469334125065"><ele>779.0</ele><time>2026-04-18T15:09:09.999Z</time></trkpt><trkpt lat="43.77654044911665" lon="12.32530369634602"><ele>780.5</ele><time>2026-04-18T15:09:10.999Z</time></trkpt><trkpt lat="43.77659478882811" lon="12.32513198519334"><ele>782.0</ele><time>2026-04-18T15:09:11.999Z</time></trkpt><trkpt lat="43.77665281490075" lon="12.324954751788049"><ele>783.5</ele><time>2026-04-18T15:09:12.999Z</time></trkpt><trkpt lat="43.77670134376887" lon="12.324765681170286"><ele>785.0</ele><time>2026-04-18T15:09:13.999Z</time></trkpt><trkpt lat="43.776763695091205" lon="12.324578293656996"><ele>787.0</ele><time>2026-04-18T15:09:14.999Z</time></trkpt><trkpt lat="43.77685126145798" lon="12.324396235286475"><ele>789.0</ele><time>2026-04-18T15:09:15.999Z</time></trkpt><trkpt lat="43.77693145155248" lon="12.32419906644044"><ele>791.0</ele><time>2026-04-18T15:09:16.999Z</time></trkpt><trkpt lat="43.77701270415303" lon="12.323999801146325"><ele>793.25</ele><time>2026-04-18T15:09:17.999Z</time></trkpt><trkpt lat="43.777087864604205" lon="12.323817676046076"><ele>795.5</ele><time>2026-04-18T15:09:18.999Z</time></trkpt><trkpt lat="43.77716262486954" lon="12.323645708300019"><ele>797.75</ele><time>2026-04-18T15:09:19.999Z</time></trkpt><trkpt lat="43.77725498188588" lon="12.323486821863625"><ele>800.0</ele><time>2026-04-18T15:09:20.999Z</time></trkpt><trkpt lat="43.777354302558265" lon="12.323362110546055"><ele>800.0</ele><time>2026-04-18T15:09:21.999Z</time></trkpt><trkpt lat="43.77746394389006" lon="12.323286820491523"><ele>800.0</ele><time>2026-04-18T15:09:22.999Z</time></trkpt><trkpt lat="43.77759411353243" lon="12.323212535123302"><ele>800.0</ele><time>2026-04-18T15:09:23.999Z</time></trkpt><trkpt lat="43.777741478405424" lon="12.323135044712673"><ele>800.0</ele><time>2026-04-18T15:09:24.999Z</time></trkpt><trkpt lat="43.777898269220366" lon="12.323050269306691"><ele>803.6666666666667</ele><time>2026-04-18T15:09:25.999Z</time></trkpt><trkpt lat="43.778061316519974" lon="12.322955030235084"><ele>807.3333333333333</ele><time>2026-04-18T15:09:26.999Z</time></trkpt><trkpt lat="43.778234990141364" lon="12.32287046614049"><ele>811.0</ele><time>2026-04-18T15:09:27.999Z</time></trkpt><trkpt lat="43.77841149027887" lon="12.322775253158174"><ele>812.0</ele><time>2026-04-18T15:09:28.999Z</time></trkpt><trkpt lat="43.77858642012185" lon="12.32268069618018"><ele>813.0</ele><time>2026-04-18T15:09:29.999Z</time></trkpt><trkpt lat="43.778765495738185" lon="12.32258650254346"><ele>814.0</ele><time>2026-04-18T15:09:30.999Z</time></trkpt><trkpt lat="43.77894511397133" lon="12.322492946607623"><ele>814.0</ele><time>2026-04-18T15:09:31.999Z</time></trkpt><trkpt lat="43.77912016780014" lon="12.322405024576982"><ele>814.0</ele><time>2026-04-18T15:09:32.999Z</time></trkpt><trkpt lat="43.779286222479676" lon="12.32231922141335"><ele>814.0</ele><time>2026-04-18T15:09:33.999Z</time></trkpt><trkpt lat="43.77944737794977" lon="12.32223200318832"><ele>816.75</ele><time>2026-04-18T15:09:34.999Z</time></trkpt><trkpt lat="43.77959823508348" lon="12.322156717641427"><ele>819.5</ele><time>2026-04-18T15:09:35.999Z</time></trkpt><trkpt lat="43.779734080929316" lon="12.322089712518487"><ele>822.25</ele><time>2026-04-18T15:09:36.999Z</time></trkpt><trkpt lat="43.77986157118918" lon="12.32202805362147"><ele>825.0</ele><time>2026-04-18T15:09:37.999Z</time></trkpt><trkpt lat="43.779980185763314" lon="12.321942918978491"><ele>825.0</ele><time>2026-04-18T15:09:38.999Z</time></trkpt><trkpt lat="43.78008123483541" lon="12.321828428545103"><ele>825.0</ele><time>2026-04-18T15:09:39.999Z</time></trkpt><trkpt lat="43.780153505237934" lon="12.321690512721107"><ele>825.0</ele><time>2026-04-18T15:09:40.999Z</time></trkpt><trkpt lat="43.780209402763674" lon="12.321541422436798"><ele>825.0</ele><time>2026-04-18T15:09:41.999Z</time></trkpt><trkpt lat="43.78020403663322" lon="12.321360115765252"><ele>827.5</ele><time>2026-04-18T15:09:42.999Z</time></trkpt><trkpt lat="43.780180551328726" lon="12.321172464806796"><ele>830.0</ele><time>2026-04-18T15:09:43.999Z</time></trkpt><trkpt lat="43.780140750322474" lon="12.320977838570677"><ele>832.5</ele><time>2026-04-18T15:09:44.999Z</time></trkpt><trkpt lat="43.78007407785237" lon="12.320775411948137"><ele>835.0</ele><time>2026-04-18T15:09:45.999Z</time></trkpt><trkpt lat="43.78003120731916" lon="12.320575835160904"><ele>836.0</ele><time>2026-04-18T15:09:46.999Z</time></trkpt><trkpt lat="43.7799718542717" lon="12.320386531315915"><ele>837.0</ele><time>2026-04-18T15:09:47.999Z</time></trkpt><trkpt lat="43.77990203940354" lon="12.320209462717218"><ele>838.0</ele><time>2026-04-18T15:09:48.999Z</time></trkpt><trkpt lat="43.77988244106043" lon="12.320008295239981"><ele>839.0</ele><time>2026-04-18T15:09:49.999Z</time></trkpt><trkpt lat="43.77987607679206" lon="12.319797181879597"><ele>839.6666666666667</ele><time>2026-04-18T15:09:50.999Z</time></trkpt><trkpt lat="43.77987810873684" lon="12.319568967848708"><ele>840.3333333333333</ele><time>2026-04-18T15:09:51.999Z</time></trkpt><trkpt lat="43.77986668270022" lon="12.319332357160155"><ele>841.0</ele><time>2026-04-18T15:09:52.999Z</time></trkpt><trkpt lat="43.77988974470812" lon="12.31909019750513"><ele>842.6666666666666</ele><time>2026-04-18T15:09:53.999Z</time></trkpt><trkpt lat="43.77990016921379" lon="12.318841219404685"><ele>844.3333333333333</ele><time>2026-04-18T15:09:55Z</time></trkpt><trkpt lat="43.779912964690425" lon="12.318590647566827"><ele>846.0</ele><time>2026-04-18T15:09:56Z</time></trkpt><trkpt lat="43.77991557069005" lon="12.318345345845733"><ele>846.0</ele><time>2026-04-18T15:09:57Z</time></trkpt><trkpt lat="43.77993223733492" lon="12.31810820448383"><ele>846.0</ele><time>2026-04-18T15:09:58Z</time></trkpt><trkpt lat="43.779946956022" lon="12.3178900083045"><ele>846.0</ele><time>2026-04-18T15:09:59Z</time></trkpt><trkpt lat="43.77994949259374" lon="12.31768777488982"><ele>847.5</ele><time>2026-04-18T15:10:00Z</time></trkpt><trkpt lat="43.77992081416144" lon="12.317493197150005"><ele>849.0</ele><time>2026-04-18T15:10:01Z</time></trkpt><trkpt lat="43.779866169391" lon="12.317303482523904"><ele>850.5</ele><time>2026-04-18T15:10:02Z</time></trkpt><trkpt lat="43.77978423397274" lon="12.317116887788918"><ele>852.0</ele><time>2026-04-18T15:10:03Z</time></trkpt><trkpt lat="43.77968443823569" lon="12.316949696770516"><ele>854.0</ele><time>2026-04-18T15:10:04Z</time></trkpt><trkpt lat="43.77958824603085" lon="12.316784777365157"><ele>856.0</ele><time>2026-04-18T15:10:05Z</time></trkpt><trkpt lat="43.779497317644726" lon="12.316638609923496"><ele>858.0</ele><time>2026-04-18T15:10:06Z</time></trkpt><trkpt lat="43.779425875278015" lon="12.316490166426178"><ele>860.0</ele><time>2026-04-18T15:10:07Z</time></trkpt><trkpt lat="43.779392047682705" lon="12.316323469892435"><ele>861.5</ele><time>2026-04-18T15:10:08Z</time></trkpt><trkpt lat="43.77937059318775" lon="12.316144325536605"><ele>863.0</ele><time>2026-04-18T15:10:09Z</time></trkpt><trkpt lat="43.77936900916385" lon="12.315947123718715"><ele>864.5</ele><time>2026-04-18T15:10:10Z</time></trkpt><trkpt lat="43.77939767779283" lon="12.31575736110621"><ele>866.0</ele><time>2026-04-18T15:10:11Z</time></trkpt><trkpt lat="43.77945965815129" lon="12.315592855217453"><ele>866.5</ele><time>2026-04-18T15:10:12Z</time></trkpt><trkpt lat="43.77953713176274" lon="12.315442213809376"><ele>867.0</ele><time>2026-04-18T15:10:13Z</time></trkpt><trkpt lat="43.779622188066156" lon="12.315275421289307"><ele>867.5</ele><time>2026-04-18T15:10:14Z</time></trkpt><trkpt lat="43.77968364649039" lon="12.315133169363735"><ele>868.0</ele><time>2026-04-18T15:10:15Z</time></trkpt><trkpt lat="43.779743459762074" lon="12.31493532958911"><ele>868.0</ele><time>2026-04-18T15:10:16Z</time></trkpt><trkpt lat="43.779778769596376" lon="12.314743060563544"><ele>868.0</ele><time>2026-04-18T15:10:17Z</time></trkpt><trkpt lat="43.77979759412443" lon="12.314548652782058"><ele>868.0</ele><time>2026-04-18T15:10:18Z</time></trkpt><trkpt lat="43.7798047112685" lon="12.31435311839207"><ele>868.0</ele><time>2026-04-18T15:10:19Z</time></trkpt><trkpt lat="43.779794446709694" lon="12.314179579773313"><ele>869.25</ele><time>2026-04-18T15:10:20Z</time></trkpt><trkpt lat="43.77975298638952" lon="12.314022774483474"><ele>870.5</ele><time>2026-04-18T15:10:21Z</time></trkpt><trkpt lat="43.77967100615078" lon="12.313893207893907"><ele>871.75</ele><time>2026-04-18T15:10:22Z</time></trkpt><trkpt lat="43.77955510431759" lon="12.313789168305004"><ele>873.0</ele><time>2026-04-18T15:10:23Z</time></trkpt><trkpt lat="43.77942307798493" lon="12.313699026940832"><ele>873.0</ele><time>2026-04-18T15:10:24Z</time></trkpt><trkpt lat="43.77929196720954" lon="12.313604278498127"><ele>873.0</ele><time>2026-04-18T15:10:25Z</time></trkpt><trkpt lat="43.7791646404014" lon="12.313500583742686"><ele>873.0</ele><time>2026-04-18T15:10:26Z</time></trkpt><trkpt lat="43.7790380324663" lon="12.313396784957995"><ele>873.0</ele><time>2026-04-18T15:10:27Z</time></trkpt><trkpt lat="43.77889913320984" lon="12.313323686989277"><ele>873.0</ele><time>2026-04-18T15:10:28Z</time></trkpt><trkpt lat="43.77875094047992" lon="12.313285917721716"><ele>873.0</ele><time>2026-04-18T15:10:29Z</time></trkpt><trkpt lat="43.7785963299198" lon="12.313261230357865"><ele>873.0</ele><time>2026-04-18T15:10:30Z</time></trkpt><trkpt lat="43.77846139080637" lon="12.313205097097956"><ele>873.0</ele><time>2026-04-18T15:10:31Z</time></trkpt><trkpt lat="43.778328554308224" lon="12.313155957341493"><ele>873.0</ele><time>2026-04-18T15:10:32Z</time></trkpt><trkpt lat="43.77820965066857" lon="12.313092268080831"><ele>873.0</ele><time>2026-04-18T15:10:33Z</time></trkpt><trkpt lat="43.77811174169874" lon="12.31299826293522"><ele>873.0</ele><time>2026-04-18T15:10:34Z</time></trkpt><trkpt lat="43.77803250231551" lon="12.312876746032272"><ele>873.0</ele><time>2026-04-18T15:10:35Z</time></trkpt><trkpt lat="43.77798255187804" lon="12.312720043892313"><ele>874.75</ele><time>2026-04-18T15:10:36Z</time></trkpt><trkpt lat="43.77796570147154" lon="12.312543047631602"><ele>876.5</ele><time>2026-04-18T15:10:37Z</time></trkpt><trkpt lat="43.77796986597692" lon="12.312339645810834"><ele>878.25</ele><time>2026-04-18T15:10:38Z</time></trkpt><trkpt lat="43.77796815719659" lon="12.31212628927068"><ele>880.0</ele><time>2026-04-18T15:10:39Z</time></trkpt><trkpt lat="43.777992860104185" lon="12.311906822845037"><ele>882.3333333333333</ele><time>2026-04-18T15:10:40Z</time></trkpt><trkpt lat="43.77802494454312" lon="12.311696052597133"><ele>884.6666666666667</ele><time>2026-04-18T15:10:41Z</time></trkpt><trkpt lat="43.77808567846437" lon="12.31150531348635"><ele>887.0</ele><time>2026-04-18T15:10:42Z</time></trkpt><trkpt lat="43.77811559224885" lon="12.311310043896993"><ele>888.75</ele><time>2026-04-18T15:10:43Z</time></trkpt><trkpt lat="43.77815918787408" lon="12.311131873247657"><ele>890.5</ele><time>2026-04-18T15:10:44Z</time></trkpt><trkpt lat="43.77819821090313" lon="12.310965085037115"><ele>892.25</ele><time>2026-04-18T15:10:45Z</time></trkpt><trkpt lat="43.77823505719092" lon="12.310814166668614"><ele>894.0</ele><time>2026-04-18T15:10:46Z</time></trkpt><trkpt lat="43.7782767848618" lon="12.310674095062241"><ele>895.0</ele><time>2026-04-18T15:10:47Z</time></trkpt><trkpt lat="43.778325710193094" lon="12.310538925826433"><ele>896.0000000000001</ele><time>2026-04-18T15:10:48Z</time></trkpt><trkpt lat="43.77838156842179" lon="12.310408082882162"><ele>897.0000000000001</ele><time>2026-04-18T15:10:49Z</time></trkpt><trkpt lat="43.77844258323578" lon="12.31028388233011"><ele>898.0</ele><time>2026-04-18T15:10:50Z</time></trkpt><trkpt lat="43.778503581552286" lon="12.310162327965873"><ele>899.0</ele><time>2026-04-18T15:10:51Z</time></trkpt><trkpt lat="43.77856281951421" lon="12.310042251130946"><ele>899.8333333333334</ele><time>2026-04-18T15:10:52Z</time></trkpt><trkpt lat="43.77861429439219" lon="12.309921930260362"><ele>900.6666666666667</ele><time>2026-04-18T15:10:53Z</time></trkpt><trkpt lat="43.778666234410075" lon="12.309810187847436"><ele>901.5</ele><time>2026-04-18T15:10:54Z</time></trkpt><trkpt lat="43.778711805046704" lon="12.309714124072244"><ele>902.3333333333333</ele><time>2026-04-18T15:10:55Z</time></trkpt><trkpt lat="43.778760190020854" lon="12.309626546036109"><ele>903.1666666666666</ele><time>2026-04-18T15:10:56Z</time></trkpt><trkpt lat="43.778818058224644" lon="12.309546904263684"><ele>904.0</ele><time>2026-04-18T15:10:56.999Z</time></trkpt><trkpt lat="43.77889069095172" lon="12.309473197170657"><ele>904.75</ele><time>2026-04-18T15:10:57.999Z</time></trkpt><trkpt lat="43.778977433413075" lon="12.309405354436977"><ele>905.5</ele><time>2026-04-18T15:10:58.999Z</time></trkpt><trkpt lat="43.77907630807033" lon="12.309334694538698"><ele>906.25</ele><time>2026-04-18T15:10:59.999Z</time></trkpt><trkpt lat="43.779182950576825" lon="12.309267552044941"><ele>907.0</ele><time>2026-04-18T15:11:00.999Z</time></trkpt><trkpt lat="43.77929539654233" lon="12.309190479084362"><ele>908.5</ele><time>2026-04-18T15:11:01.999Z</time></trkpt><trkpt lat="43.77940794118966" lon="12.309112081817178"><ele>910.0</ele><time>2026-04-18T15:11:02.999Z</time></trkpt><trkpt lat="43.7795248147411" lon="12.309041664852085"><ele>911.5</ele><time>2026-04-18T15:11:03.999Z</time></trkpt><trkpt lat="43.77964129224992" lon="12.308964969933589"><ele>913.0</ele><time>2026-04-18T15:11:04.999Z</time></trkpt><trkpt lat="43.77975322453328" lon="12.308890795603741"><ele>913.75</ele><time>2026-04-18T15:11:05.999Z</time></trkpt><trkpt lat="43.77985517519365" lon="12.308819230544781"><ele>914.5</ele><time>2026-04-18T15:11:06.999Z</time></trkpt><trkpt lat="43.77994973440755" lon="12.30873628083157"><ele>915.25</ele><time>2026-04-18T15:11:07.999Z</time></trkpt><trkpt lat="43.78003477426026" lon="12.308623336601352"><ele>916.0</ele><time>2026-04-18T15:11:08.999Z</time></trkpt><trkpt lat="43.780109795386934" lon="12.308489683524163"><ele>916.0</ele><time>2026-04-18T15:11:09.999Z</time></trkpt><trkpt lat="43.78016549267787" lon="12.308334995836878"><ele>916.0</ele><time>2026-04-18T15:11:10.999Z</time></trkpt><trkpt lat="43.78021421150369" lon="12.308145417155764"><ele>916.0</ele><time>2026-04-18T15:11:11.999Z</time></trkpt><trkpt lat="43.78024617217678" lon="12.307937318951218"><ele>916.0</ele><time>2026-04-18T15:11:12.999Z</time></trkpt><trkpt lat="43.78028187359533" lon="12.307706384728249"><ele>919.6666666666666</ele><time>2026-04-18T15:11:13.999Z</time></trkpt><trkpt lat="43.78031952310057" lon="12.30746428674664"><ele>923.3333333333333</ele><time>2026-04-18T15:11:14.999Z</time></trkpt><trkpt lat="43.780363029563816" lon="12.307219565389284"><ele>927.0</ele><time>2026-04-18T15:11:15.999Z</time></trkpt><trkpt lat="43.78039969993451" lon="12.306974574579973"><ele>929.0</ele><time>2026-04-18T15:11:16.999Z</time></trkpt><trkpt lat="43.780438735363184" lon="12.306753646759546"><ele>931.0</ele><time>2026-04-18T15:11:17.999Z</time></trkpt><trkpt lat="43.78047805958145" lon="12.306547085294664"><ele>933.0</ele><time>2026-04-18T15:11:18.999Z</time></trkpt><trkpt lat="43.780512847163145" lon="12.306351855163319"><ele>933.75</ele><time>2026-04-18T15:11:19.999Z</time></trkpt><trkpt lat="43.78054567624858" lon="12.306159234992448"><ele>934.5</ele><time>2026-04-18T15:11:20.999Z</time></trkpt><trkpt lat="43.78057967492722" lon="12.305971782735554"><ele>935.25</ele><time>2026-04-18T15:11:21.999Z</time></trkpt><trkpt lat="43.78062121251252" lon="12.305779567864857"><ele>936.0</ele><time>2026-04-18T15:11:22.999Z</time></trkpt><trkpt lat="43.78064921188611" lon="12.305598953392183"><ele>937.25</ele><time>2026-04-18T15:11:23.999Z</time></trkpt><trkpt lat="43.78068462772967" lon="12.30541429006527"><ele>938.5</ele><time>2026-04-18T15:11:24.999Z</time></trkpt><trkpt lat="43.78072003251431" lon="12.305230420868247"><ele>939.75</ele><time>2026-04-18T15:11:25.999Z</time></trkpt><trkpt lat="43.780758649315544" lon="12.305042706533854"><ele>941.0</ele><time>2026-04-18T15:11:26.999Z</time></trkpt><trkpt lat="43.78079158771936" lon="12.304855907596199"><ele>941.75</ele><time>2026-04-18T15:11:27.999Z</time></trkpt><trkpt lat="43.78081896457948" lon="12.304663810905428"><ele>942.5</ele><time>2026-04-18T15:11:28.999Z</time></trkpt><trkpt lat="43.780827005435576" lon="12.304471031200269"><ele>943.25</ele><time>2026-04-18T15:11:29.999Z</time></trkpt><trkpt lat="43.78080707208308" lon="12.304277193847993"><ele>944.0</ele><time>2026-04-18T15:11:30.999Z</time></trkpt><trkpt lat="43.78075624958927" lon="12.304083795049747"><ele>945.75</ele><time>2026-04-18T15:11:31.999Z</time></trkpt><trkpt lat="43.78069288569857" lon="12.303895389948293"><ele>947.5</ele><time>2026-04-18T15:11:32.999Z</time></trkpt><trkpt lat="43.7806438923594" lon="12.303693518364193"><ele>949.25</ele><time>2026-04-18T15:11:33.999Z</time></trkpt><trkpt lat="43.78059434032212" lon="12.303504236179819"><ele>951.0</ele><time>2026-04-18T15:11:34.999Z</time></trkpt><trkpt lat="43.78054929442332" lon="12.303323201035905"><ele>951.0</ele><time>2026-04-18T15:11:35.999Z</time></trkpt><trkpt lat="43.78050293612892" lon="12.303134463234574"><ele>951.0</ele><time>2026-04-18T15:11:36.999Z</time></trkpt><trkpt lat="43.780468440498" lon="12.302956840455892"><ele>951.0</ele><time>2026-04-18T15:11:37.999Z</time></trkpt><trkpt lat="43.78044753774807" lon="12.30277800723941"><ele>951.0</ele><time>2026-04-18T15:11:38.999Z</time></trkpt><trkpt lat="43.7804651977583" lon="12.302598166350739"><ele>952.0</ele><time>2026-04-18T15:11:39.999Z</time></trkpt><trkpt lat="43.780502246229126" lon="12.302428593981073"><ele>953.0</ele><time>2026-04-18T15:11:40.999Z</time></trkpt><trkpt lat="43.78056903556877" lon="12.302295687894935"><ele>954.0</ele><time>2026-04-18T15:11:41.999Z</time></trkpt><trkpt lat="43.780653539586126" lon="12.302194287382742"><ele>955.0</ele><time>2026-04-18T15:11:42.999Z</time></trkpt><trkpt lat="43.7807542739307" lon="12.302129515817951"><ele>955.0</ele><time>2026-04-18T15:11:43.999Z</time></trkpt><trkpt lat="43.78087020661181" lon="12.3021323596092"><ele>955.0</ele><time>2026-04-18T15:11:44.999Z</time></trkpt><trkpt lat="43.78099536288897" lon="12.302179544911189"><ele>955.0</ele><time>2026-04-18T15:11:45.999Z</time></trkpt><trkpt lat="43.7811235795478" lon="12.302259053388935"><ele>955.0</ele><time>2026-04-18T15:11:46.999Z</time></trkpt><trkpt lat="43.78122184504633" lon="12.302389636678429"><ele>956.6</ele><time>2026-04-18T15:11:47.999Z</time></trkpt><trkpt lat="43.78132755939147" lon="12.30243763916212"><ele>958.2</ele><time>2026-04-18T15:11:48.999Z</time></trkpt><trkpt lat="43.781441029654545" lon="12.302448534762423"><ele>959.8</ele><time>2026-04-18T15:11:49.999Z</time></trkpt><trkpt lat="43.78154563136653" lon="12.302389085690853"><ele>961.4</ele><time>2026-04-18T15:11:50.999Z</time></trkpt><trkpt lat="43.7816402843262" lon="12.302326327072874"><ele>963.0</ele><time>2026-04-18T15:11:51.999Z</time></trkpt><trkpt lat="43.781742983109496" lon="12.302216549842425"><ele>964.75</ele><time>2026-04-18T15:11:52.999Z</time></trkpt><trkpt lat="43.78185222463451" lon="12.302101175543614"><ele>966.5</ele><time>2026-04-18T15:11:53.999Z</time></trkpt><trkpt lat="43.781966753738665" lon="12.301990184120044"><ele>968.25</ele><time>2026-04-18T15:11:54.999Z</time></trkpt><trkpt lat="43.78208428543248" lon="12.301879061093093"><ele>970.0</ele><time>2026-04-18T15:11:55.999Z</time></trkpt><trkpt lat="43.782210437436355" lon="12.30180189291657"><ele>970.0</ele><time>2026-04-18T15:11:56.999Z</time></trkpt><trkpt lat="43.78232324995953" lon="12.301738095752922"><ele>970.0</ele><time>2026-04-18T15:11:57.999Z</time></trkpt><trkpt lat="43.78245917678731" lon="12.301731477591522"><ele>970.0</ele><time>2026-04-18T15:11:58.999Z</time></trkpt><trkpt lat="43.78259278832437" lon="12.301748490877028"><ele>970.0</ele><time>2026-04-18T15:11:59.999Z</time></trkpt><trkpt lat="43.7827201671475" lon="12.301841533029073"><ele>972.0</ele><time>2026-04-18T15:12:01Z</time></trkpt><trkpt lat="43.782843047061895" lon="12.301949480678214"><ele>974.0</ele><time>2026-04-18T15:12:02Z</time></trkpt><trkpt lat="43.782966098389146" lon="12.30206318505501"><ele>976.0</ele><time>2026-04-18T15:12:03Z</time></trkpt><trkpt lat="43.783094806599216" lon="12.302177673215208"><ele>978.0</ele><time>2026-04-18T15:12:04Z</time></trkpt><trkpt lat="43.783224610081" lon="12.302289396917288"><ele>978.0</ele><time>2026-04-18T15:12:05Z</time></trkpt><trkpt lat="43.78333895652573" lon="12.30239142640843"><ele>978.0</ele><time>2026-04-18T15:12:06Z</time></trkpt><trkpt lat="43.78347110493582" lon="12.30249539237151"><ele>978.0</ele><time>2026-04-18T15:12:07Z</time></trkpt><trkpt lat="43.78359236126409" lon="12.302595473272603"><ele>978.0</ele><time>2026-04-18T15:12:08Z</time></trkpt><trkpt lat="43.78370956160903" lon="12.302686971171195"><ele>979.4</ele><time>2026-04-18T15:12:09Z</time></trkpt><trkpt lat="43.78382097518162" lon="12.302762385495875"><ele>980.8</ele><time>2026-04-18T15:12:10Z</time></trkpt><trkpt lat="43.78392396789623" lon="12.302812777511276"><ele>982.2</ele><time>2026-04-18T15:12:11Z</time></trkpt><trkpt lat="43.78402667113471" lon="12.302816032178892"><ele>983.6</ele><time>2026-04-18T15:12:12Z</time></trkpt><trkpt lat="43.78412201063667" lon="12.302784008138385"><ele>985.0</ele><time>2026-04-18T15:12:13Z</time></trkpt><trkpt lat="43.78420805949879" lon="12.30271555882434"><ele>985.0</ele><time>2026-04-18T15:12:14Z</time></trkpt><trkpt lat="43.78429432474141" lon="12.302620769502234"><ele>985.0</ele><time>2026-04-18T15:12:15Z</time></trkpt><trkpt lat="43.784388252563105" lon="12.302524127175738"><ele>985.0</ele><time>2026-04-18T15:12:16Z</time></trkpt><trkpt lat="43.78448844380865" lon="12.302427895023525"><ele>985.0</ele><time>2026-04-18T15:12:17Z</time></trkpt><trkpt lat="43.78458775427151" lon="12.302366199928093"><ele>987.25</ele><time>2026-04-18T15:12:18Z</time></trkpt><trkpt lat="43.78470579817907" lon="12.302265852659005"><ele>989.5</ele><time>2026-04-18T15:12:19Z</time></trkpt><trkpt lat="43.7848218368642" lon="12.302180956447817"><ele>991.75</ele><time>2026-04-18T15:12:20Z</time></trkpt><trkpt lat="43.784936935626824" lon="12.302089814608879"><ele>994.0</ele><time>2026-04-18T15:12:21Z</time></trkpt><trkpt lat="43.78504907132856" lon="12.30200002556451"><ele>994.0</ele><time>2026-04-18T15:12:22Z</time></trkpt><trkpt lat="43.785154120090404" lon="12.301908593065702"><ele>994.0</ele><time>2026-04-18T15:12:23Z</time></trkpt><trkpt lat="43.78523558199888" lon="12.301792143629013"><ele>994.0</ele><time>2026-04-18T15:12:24Z</time></trkpt><trkpt lat="43.78531083942458" lon="12.301674726514795"><ele>994.0</ele><time>2026-04-18T15:12:25Z</time></trkpt><trkpt lat="43.7853626715975" lon="12.30153423721532"><ele>997.0</ele><time>2026-04-18T15:12:26Z</time></trkpt><trkpt lat="43.785394428455895" lon="12.301380948954746"><ele>1000.0000000000001</ele><time>2026-04-18T15:12:27Z</time></trkpt><trkpt lat="43.7854179634154" lon="12.301227046674489"><ele>1003.0000000000001</ele><time>2026-04-18T15:12:28Z</time></trkpt><trkpt lat="43.785441457253874" lon="12.301081232657095"><ele>1006.0</ele><time>2026-04-18T15:12:29Z</time></trkpt><trkpt lat="43.78544730162522" lon="12.300930989011299"><ele>1009.0</ele><time>2026-04-18T15:12:30Z</time></trkpt><trkpt lat="43.785429065112865" lon="12.30078466871414"><ele>1009.0</ele><time>2026-04-18T15:12:31Z</time></trkpt><trkpt lat="43.78539317487466" lon="12.30064712685878"><ele>1009.0000000000001</ele><time>2026-04-18T15:12:32Z</time></trkpt><trkpt lat="43.785363776584255" lon="12.300517096108814"><ele>1009.0000000000001</ele><time>2026-04-18T15:12:33Z</time></trkpt><trkpt lat="43.78534616489019" lon="12.30038796734475"><ele>1009.0</ele><time>2026-04-18T15:12:34Z</time></trkpt><trkpt lat="43.785347194130864" lon="12.300270717203933"><ele>1009.0</ele><time>2026-04-18T15:12:35Z</time></trkpt><trkpt lat="43.78532907845349" lon="12.30013234546527"><ele>1008.6</ele><time>2026-04-18T15:12:37Z</time></trkpt><trkpt lat="43.7853502333594" lon="12.30001903905582"><ele>1008.2</ele><time>2026-04-18T15:12:41Z</time></trkpt><trkpt lat="43.785211782312615" lon="12.299996920987333"><ele>1007.8000000000001</ele><time>2026-04-18T15:12:44Z</time></trkpt><trkpt lat="43.785137377938995" lon="12.299960934532562"><ele>1007.4000000000001</ele><time>2026-04-18T15:12:46Z</time></trkpt><trkpt lat="43.785020333806905" lon="12.299969539186552"><ele>1007.0</ele><time>2026-04-18T15:12:48Z</time></trkpt><trkpt lat="43.78495456797874" lon="12.299946145119728"><ele>1007.0000000000001</ele><time>2026-04-18T15:12:49Z</time></trkpt><trkpt lat="43.78488404504902" lon="12.29991428931806"><ele>1007.0</ele><time>2026-04-18T15:12:50Z</time></trkpt><trkpt lat="43.78481514986155" lon="12.299856626865381"><ele>1007.0</ele><time>2026-04-18T15:12:51Z</time></trkpt><trkpt lat="43.784739517120386" lon="12.299809684268723"><ele>1007.0</ele><time>2026-04-18T15:12:52Z</time></trkpt><trkpt lat="43.78465356002785" lon="12.299755503864265"><ele>1007.0000000000001</ele><time>2026-04-18T15:12:53Z</time></trkpt><trkpt lat="43.78455858278166" lon="12.299697350363516"><ele>1007.0</ele><time>2026-04-18T15:12:54Z</time></trkpt><trkpt lat="43.78445961040372" lon="12.299642211207047"><ele>1007.4000000000001</ele><time>2026-04-18T15:12:55Z</time></trkpt><trkpt lat="43.784368486181414" lon="12.299588197565958"><ele>1007.8000000000001</ele><time>2026-04-18T15:12:56Z</time></trkpt><trkpt lat="43.78427786583156" lon="12.299515083128638"><ele>1008.2</ele><time>2026-04-18T15:12:57Z</time></trkpt><trkpt lat="43.784191629106296" lon="12.299422383903384"><ele>1008.6</ele><time>2026-04-18T15:12:58Z</time></trkpt><trkpt lat="43.78410895112039" lon="12.299311562856817"><ele>1009.0</ele><time>2026-04-18T15:12:59Z</time></trkpt><trkpt lat="43.78403295994076" lon="12.29918252000863"><ele>1009.0</ele><time>2026-04-18T15:13:00Z</time></trkpt><trkpt lat="43.783949565077975" lon="12.299058356861831"><ele>1009.0</ele><time>2026-04-18T15:13:01Z</time></trkpt><trkpt lat="43.783895680583754" lon="12.298900143978047"><ele>1009.0</ele><time>2026-04-18T15:13:02Z</time></trkpt><trkpt lat="43.783816899027045" lon="12.298763987443117"><ele>1009.0</ele><time>2026-04-18T15:13:03Z</time></trkpt><trkpt lat="43.78376219177773" lon="12.298600014191168"><ele>1009.75</ele><time>2026-04-18T15:13:04Z</time></trkpt><trkpt lat="43.78367722053194" lon="12.298461015235198"><ele>1010.5</ele><time>2026-04-18T15:13:05Z</time></trkpt><trkpt lat="43.78360731706069" lon="12.298307223135833"><ele>1011.25</ele><time>2026-04-18T15:13:06Z</time></trkpt><trkpt lat="43.78353307055624" lon="12.298161422476037"><ele>1012.0</ele><time>2026-04-18T15:13:07Z</time></trkpt><trkpt lat="43.783447334179996" lon="12.298022054327435"><ele>1010.25</ele><time>2026-04-18T15:13:08Z</time></trkpt><trkpt lat="43.783359196651894" lon="12.297885386432416"><ele>1008.5</ele><time>2026-04-18T15:13:09Z</time></trkpt><trkpt lat="43.78323535075962" lon="12.297798822320328"><ele>1006.75</ele><time>2026-04-18T15:13:10Z</time></trkpt><trkpt lat="43.783117647949105" lon="12.297703404764581"><ele>1005.0</ele><time>2026-04-18T15:13:11Z</time></trkpt><trkpt lat="43.78299329634777" lon="12.297610521865549"><ele>1005.0</ele><time>2026-04-18T15:13:12Z</time></trkpt><trkpt lat="43.78286695928131" lon="12.297518013390313"><ele>1005.0</ele><time>2026-04-18T15:13:13Z</time></trkpt><trkpt lat="43.78273749294115" lon="12.297429550927893"><ele>1005.0</ele><time>2026-04-18T15:13:14Z</time></trkpt><trkpt lat="43.78260596222042" lon="12.297337281994636"><ele>1005.0</ele><time>2026-04-18T15:13:15Z</time></trkpt><trkpt lat="43.78247340046336" lon="12.297248857608531"><ele>1004.3333333333333</ele><time>2026-04-18T15:13:16Z</time></trkpt><trkpt lat="43.78233866017895" lon="12.297153622969583"><ele>1003.6666666666666</ele><time>2026-04-18T15:13:17Z</time></trkpt><trkpt lat="43.78220968827045" lon="12.297040229195163"><ele>1003.0</ele><time>2026-04-18T15:13:18Z</time></trkpt><trkpt lat="43.78207298556089" lon="12.296943940364237"><ele>1003.0</ele><time>2026-04-18T15:13:19Z</time></trkpt><trkpt lat="43.78193009127238" lon="12.296864754084599"><ele>1003.0</ele><time>2026-04-18T15:13:20Z</time></trkpt><trkpt lat="43.78179148871586" lon="12.29676628428321"><ele>1003.0</ele><time>2026-04-18T15:13:21Z</time></trkpt><trkpt lat="43.78165509129429" lon="12.296666625579624"><ele>1002.3333333333333</ele><time>2026-04-18T15:13:22Z</time></trkpt><trkpt lat="43.78151672745867" lon="12.296568483518175"><ele>1001.6666666666667</ele><time>2026-04-18T15:13:23Z</time></trkpt><trkpt lat="43.78137966133002" lon="12.296473221750993"><ele>1001.0</ele><time>2026-04-18T15:13:24Z</time></trkpt><trkpt lat="43.78124922829354" lon="12.296355506274201"><ele>1001.0</ele><time>2026-04-18T15:13:25Z</time></trkpt><trkpt lat="43.78110970097677" lon="12.296258007792378"><ele>1001.0</ele><time>2026-04-18T15:13:26Z</time></trkpt><trkpt lat="43.78095948588638" lon="12.296153117113448"><ele>1001.0</ele><time>2026-04-18T15:13:27Z</time></trkpt><trkpt lat="43.780848333472925" lon="12.296075501386659"><ele>1001.0</ele><time>2026-04-18T15:13:28Z</time></trkpt><trkpt lat="43.78072515040912" lon="12.295989484867501"><ele>999.75</ele><time>2026-04-18T15:13:29Z</time></trkpt><trkpt lat="43.78060299028389" lon="12.295903080868497"><ele>998.5</ele><time>2026-04-18T15:13:30Z</time></trkpt><trkpt lat="43.780482814676105" lon="12.295816435457953"><ele>997.25</ele><time>2026-04-18T15:13:31Z</time></trkpt><trkpt lat="43.78037134546602" lon="12.295737386522331"><ele>996.0</ele><time>2026-04-18T15:13:32Z</time></trkpt><trkpt lat="43.780260811217026" lon="12.295657604628392"><ele>995.0</ele><time>2026-04-18T15:13:33Z</time></trkpt><trkpt lat="43.780148125415586" lon="12.295581589295981"><ele>994.0</ele><time>2026-04-18T15:13:34Z</time></trkpt><trkpt lat="43.78004247943984" lon="12.295503878593635"><ele>993.0</ele><time>2026-04-18T15:13:35Z</time></trkpt><trkpt lat="43.77994570625493" lon="12.295409338462981"><ele>992.0</ele><time>2026-04-18T15:13:36Z</time></trkpt><trkpt lat="43.77986021436795" lon="12.295293704328735"><ele>992.0</ele><time>2026-04-18T15:13:36.999Z</time></trkpt><trkpt lat="43.779796179357035" lon="12.295157905125187"><ele>992.0</ele><time>2026-04-18T15:13:37.999Z</time></trkpt><trkpt lat="43.77975722843448" lon="12.295003998057632"><ele>992.0</ele><time>2026-04-18T15:13:38.999Z</time></trkpt><trkpt lat="43.779733941801695" lon="12.294843031047641"><ele>992.0</ele><time>2026-04-18T15:13:39.999Z</time></trkpt><trkpt lat="43.77972712951212" lon="12.294679808457143"><ele>991.75</ele><time>2026-04-18T15:13:40.999Z</time></trkpt><trkpt lat="43.77972312707811" lon="12.294511149977561"><ele>991.5</ele><time>2026-04-18T15:13:41.999Z</time></trkpt><trkpt lat="43.77972159280592" lon="12.294344770688335"><ele>991.25</ele><time>2026-04-18T15:13:42.999Z</time></trkpt><trkpt lat="43.77972238653404" lon="12.294169062083123"><ele>991.0</ele><time>2026-04-18T15:13:43.999Z</time></trkpt><trkpt lat="43.779724047875234" lon="12.29398970903234"><ele>992.0</ele><time>2026-04-18T15:13:44.999Z</time></trkpt><trkpt lat="43.779724047874026" lon="12.293798828547928"><ele>993.0</ele><time>2026-04-18T15:13:45.999Z</time></trkpt><trkpt lat="43.77972343129607" lon="12.293600989823823"><ele>994.0</ele><time>2026-04-18T15:13:46.999Z</time></trkpt><trkpt lat="43.77970559225885" lon="12.293406156298143"><ele>995.0</ele><time>2026-04-18T15:13:47.999Z</time></trkpt><trkpt lat="43.77970431168906" lon="12.293207082021146"><ele>995.25</ele><time>2026-04-18T15:13:48.999Z</time></trkpt><trkpt lat="43.779697286474395" lon="12.293004007561466"><ele>995.5</ele><time>2026-04-18T15:13:49.999Z</time></trkpt><trkpt lat="43.77967129425985" lon="12.292798354515188"><ele>995.75</ele><time>2026-04-18T15:13:50.999Z</time></trkpt><trkpt lat="43.77965235013094" lon="12.29259033696095"><ele>996.0</ele><time>2026-04-18T15:13:51.999Z</time></trkpt><trkpt lat="43.779617758110014" lon="12.292383611736302"><ele>997.0</ele><time>2026-04-18T15:13:52.999Z</time></trkpt><trkpt lat="43.77958213798933" lon="12.292175618173461"><ele>998.0</ele><time>2026-04-18T15:13:53.999Z</time></trkpt><trkpt lat="43.7795317229866" lon="12.291973433135636"><ele>999.0</ele><time>2026-04-18T15:13:54.999Z</time></trkpt><trkpt lat="43.77951369099528" lon="12.291762339353308"><ele>999.0</ele><time>2026-04-18T15:13:55.999Z</time></trkpt><trkpt lat="43.77948038368076" lon="12.29155975014191"><ele>999.0</ele><time>2026-04-18T15:13:56.999Z</time></trkpt><trkpt lat="43.77945687734502" lon="12.29141677469991"><ele>999.0</ele><time>2026-04-18T15:13:57.999Z</time></trkpt><trkpt lat="43.779430992321345" lon="12.291259330896683"><ele>999.0</ele><time>2026-04-18T15:13:58.999Z</time></trkpt><trkpt lat="43.77938430711546" lon="12.290975371608765"><ele>1001.25</ele><time>2026-04-18T15:13:59.999Z</time></trkpt><trkpt lat="43.779350564719" lon="12.290770136103973"><ele>1003.5</ele><time>2026-04-18T15:14:00.999Z</time></trkpt><trkpt lat="43.77931859860124" lon="12.290575704628816"><ele>1005.75</ele><time>2026-04-18T15:14:01.999Z</time></trkpt><trkpt lat="43.77928572244352" lon="12.290375737959677"><ele>1008.0</ele><time>2026-04-18T15:14:02.999Z</time></trkpt><trkpt lat="43.77925382365828" lon="12.290179289301896"><ele>1008.0</ele><time>2026-04-18T15:14:03.999Z</time></trkpt><trkpt lat="43.77922488699851" lon="12.289987448927109"><ele>1008.0</ele><time>2026-04-18T15:14:04.999Z</time></trkpt><trkpt lat="43.77919434691883" lon="12.289790077077523"><ele>1008.0</ele><time>2026-04-18T15:14:05.999Z</time></trkpt><trkpt lat="43.77916538714823" lon="12.289589742549236"><ele>1008.0</ele><time>2026-04-18T15:14:07.001Z</time></trkpt><trkpt lat="43.77914340011523" lon="12.2893937887752"><ele>1007.25</ele><time>2026-04-18T15:14:08.001Z</time></trkpt><trkpt lat="43.779141246219176" lon="12.289211035782184"><ele>1006.5</ele><time>2026-04-18T15:14:09.001Z</time></trkpt><trkpt lat="43.779169792794455" lon="12.289041933972387"><ele>1005.75</ele><time>2026-04-18T15:14:10.001Z</time></trkpt><trkpt lat="43.77920962975798" lon="12.28888052525454"><ele>1005.0</ele><time>2026-04-18T15:14:11.001Z</time></trkpt><trkpt lat="43.779266378894405" lon="12.288729370072138"><ele>1005.0</ele><time>2026-04-18T15:14:12.001Z</time></trkpt><trkpt lat="43.77931871693369" lon="12.288567922735933"><ele>1005.0</ele><time>2026-04-18T15:14:13Z</time></trkpt><trkpt lat="43.779393332439724" lon="12.288414528946111"><ele>1005.0</ele><time>2026-04-18T15:14:14Z</time></trkpt><trkpt lat="43.779466874600914" lon="12.288250943231128"><ele>1005.0</ele><time>2026-04-18T15:14:15Z</time></trkpt><trkpt lat="43.779529932601065" lon="12.288065977677801"><ele>1003.3333333333333</ele><time>2026-04-18T15:14:16Z</time></trkpt><trkpt lat="43.77957040940646" lon="12.287856549103324"><ele>1001.6666666666666</ele><time>2026-04-18T15:14:17Z</time></trkpt><trkpt lat="43.77960301488211" lon="12.28763897930102"><ele>1000.0</ele><time>2026-04-18T15:14:18Z</time></trkpt><trkpt lat="43.77962901355373" lon="12.2874138491955"><ele>1001.0</ele><time>2026-04-18T15:14:19Z</time></trkpt><trkpt lat="43.77965808337491" lon="12.287188676759834"><ele>1002.0</ele><time>2026-04-18T15:14:20Z</time></trkpt><trkpt lat="43.77968919766021" lon="12.286972325772737"><ele>1003.0</ele><time>2026-04-18T15:14:21Z</time></trkpt><trkpt lat="43.77971304155319" lon="12.286763303797652"><ele>1003.0</ele><time>2026-04-18T15:14:22Z</time></trkpt><trkpt lat="43.77970596072239" lon="12.28655680548503"><ele>1003.0</ele><time>2026-04-18T15:14:23Z</time></trkpt><trkpt lat="43.779660681142886" lon="12.286347165522203"><ele>1003.0</ele><time>2026-04-18T15:14:24Z</time></trkpt><trkpt lat="43.77961248731341" lon="12.286118664636241"><ele>1001.6666666666666</ele><time>2026-04-18T15:14:25Z</time></trkpt><trkpt lat="43.779542831297185" lon="12.285879724323296"><ele>1000.3333333333333</ele><time>2026-04-18T15:14:26Z</time></trkpt><trkpt lat="43.77948046222842" lon="12.28562386888674"><ele>999.0</ele><time>2026-04-18T15:14:27Z</time></trkpt><trkpt lat="43.7794191130713" lon="12.285358620116579"><ele>998.0</ele><time>2026-04-18T15:14:28Z</time></trkpt><trkpt lat="43.77935817104458" lon="12.28509653761003"><ele>997.0</ele><time>2026-04-18T15:14:28.999Z</time></trkpt><trkpt lat="43.779295555244694" lon="12.28483601813768"><ele>996.0</ele><time>2026-04-18T15:14:29.999Z</time></trkpt><trkpt lat="43.77925166388396" lon="12.284571709234315"><ele>998.0</ele><time>2026-04-18T15:14:30.999Z</time></trkpt><trkpt lat="43.779193619822614" lon="12.28432175850612"><ele>1000.0</ele><time>2026-04-18T15:14:31.999Z</time></trkpt><trkpt lat="43.779137789225" lon="12.284081339423366"><ele>1002.0</ele><time>2026-04-18T15:14:32.999Z</time></trkpt><trkpt lat="43.77907936760719" lon="12.28383531614081"><ele>1002.0</ele><time>2026-04-18T15:14:33.999Z</time></trkpt><trkpt lat="43.77902157373993" lon="12.283591379253746"><ele>1002.0</ele><time>2026-04-18T15:14:34.999Z</time></trkpt><trkpt lat="43.77896483701297" lon="12.283349790605216"><ele>1002.0</ele><time>2026-04-18T15:14:35.999Z</time></trkpt><trkpt lat="43.7789122626738" lon="12.283110846614495"><ele>1001.0</ele><time>2026-04-18T15:14:36.999Z</time></trkpt><trkpt lat="43.77885036296957" lon="12.282873295712983"><ele>1000.0</ele><time>2026-04-18T15:14:37.999Z</time></trkpt><trkpt lat="43.7788173737166" lon="12.282629196939029"><ele>999.0</ele><time>2026-04-18T15:14:38.999Z</time></trkpt><trkpt lat="43.778816395338765" lon="12.28239083976695"><ele>999.0</ele><time>2026-04-18T15:14:39.999Z</time></trkpt><trkpt lat="43.77881618564827" lon="12.282142909513102"><ele>999.0</ele><time>2026-04-18T15:14:40.999Z</time></trkpt><trkpt lat="43.778821561812165" lon="12.281892680686449"><ele>999.0</ele><time>2026-04-18T15:14:41.999Z</time></trkpt><trkpt lat="43.77882899033607" lon="12.281640120426225"><ele>999.6666666666667</ele><time>2026-04-18T15:14:42.999Z</time></trkpt><trkpt lat="43.778836682551734" lon="12.281391488152307"><ele>1000.3333333333334</ele><time>2026-04-18T15:14:43.999Z</time></trkpt><trkpt lat="43.77884432814267" lon="12.281144362919786"><ele>1001.0</ele><time>2026-04-18T15:14:44.999Z</time></trkpt><trkpt lat="43.77885201736567" lon="12.280895827408589"><ele>1001.0</ele><time>2026-04-18T15:14:45.999Z</time></trkpt><trkpt lat="43.77886023117329" lon="12.280659342050859"><ele>1001.0</ele><time>2026-04-18T15:14:46.999Z</time></trkpt><trkpt lat="43.77886992367223" lon="12.280442211871389"><ele>1001.0</ele><time>2026-04-18T15:14:47.999Z</time></trkpt><trkpt lat="43.778889139118505" lon="12.280248901987074"><ele>1000.75</ele><time>2026-04-18T15:14:48.999Z</time></trkpt><trkpt lat="43.77890370574264" lon="12.280067116593843"><ele>1000.5</ele><time>2026-04-18T15:14:49.999Z</time></trkpt><trkpt lat="43.77898879597884" lon="12.279934353331202"><ele>1000.25</ele><time>2026-04-18T15:14:50.999Z</time></trkpt><trkpt lat="43.77908440335075" lon="12.279840275711551"><ele>1000.0</ele><time>2026-04-18T15:14:51.999Z</time></trkpt><trkpt lat="43.779201087814684" lon="12.27978989397194"><ele>1000.0</ele><time>2026-04-18T15:14:52.999Z</time></trkpt><trkpt lat="43.77934038377974" lon="12.279767806421335"><ele>1000.0</ele><time>2026-04-18T15:14:53.999Z</time></trkpt><trkpt lat="43.77949081667347" lon="12.279744639705495"><ele>1000.0</ele><time>2026-04-18T15:14:54.999Z</time></trkpt><trkpt lat="43.77963860013275" lon="12.279712930907413"><ele>1000.0</ele><time>2026-04-18T15:14:55.999Z</time></trkpt><trkpt lat="43.77977413376514" lon="12.279689557729034"><ele>1001.75</ele><time>2026-04-18T15:14:56.999Z</time></trkpt><trkpt lat="43.779903019780896" lon="12.279639432252315"><ele>1003.5</ele><time>2026-04-18T15:14:57.999Z</time></trkpt><trkpt lat="43.78001268762013" lon="12.27955885634072"><ele>1005.25</ele><time>2026-04-18T15:14:58.999Z</time></trkpt><trkpt lat="43.7801064884071" lon="12.27944297033665"><ele>1007.0</ele><time>2026-04-18T15:14:59.999Z</time></trkpt><trkpt lat="43.78017762621656" lon="12.279302077910838"><ele>1005.75</ele><time>2026-04-18T15:15:00.999Z</time></trkpt><trkpt lat="43.780223509517036" lon="12.27913421676726"><ele>1004.5</ele><time>2026-04-18T15:15:01.999Z</time></trkpt><trkpt lat="43.78026089655899" lon="12.278940795807495"><ele>1003.25</ele><time>2026-04-18T15:15:02.999Z</time></trkpt><trkpt lat="43.780302261208725" lon="12.278732882743974"><ele>1002.0</ele><time>2026-04-18T15:15:03.999Z</time></trkpt><trkpt lat="43.780346172656486" lon="12.278510182227581"><ele>1002.0</ele><time>2026-04-18T15:15:04.999Z</time></trkpt><trkpt lat="43.78041087811671" lon="12.27828490461893"><ele>1002.0</ele><time>2026-04-18T15:15:05.999Z</time></trkpt><trkpt lat="43.78046269376717" lon="12.278041508330846"><ele>1002.0</ele><time>2026-04-18T15:15:06.999Z</time></trkpt><trkpt lat="43.78050141851154" lon="12.277779259077823"><ele>1002.0</ele><time>2026-04-18T15:15:07.999Z</time></trkpt><trkpt lat="43.780557709866166" lon="12.277535971924575"><ele>1002.0</ele><time>2026-04-18T15:15:08.999Z</time></trkpt><trkpt lat="43.78061172246516" lon="12.27728421252864"><ele>1002.0</ele><time>2026-04-18T15:15:09.999Z</time></trkpt><trkpt lat="43.780666802767506" lon="12.27702884176074"><ele>1002.0</ele><time>2026-04-18T15:15:10.999Z</time></trkpt><trkpt lat="43.780722350313525" lon="12.276770629466746"><ele>1002.0</ele><time>2026-04-18T15:15:11.999Z</time></trkpt><trkpt lat="43.7807779142101" lon="12.276511670093445"><ele>1002.0</ele><time>2026-04-18T15:15:12.999Z</time></trkpt><trkpt lat="43.78083779477714" lon="12.276249578777017"><ele>1002.0</ele><time>2026-04-18T15:15:13.999Z</time></trkpt><trkpt lat="43.78089969667135" lon="12.27598611251549"><ele>1002.0</ele><time>2026-04-18T15:15:14.999Z</time></trkpt><trkpt lat="43.780957484067685" lon="12.275717993507676"><ele>1002.0</ele><time>2026-04-18T15:15:15.999Z</time></trkpt><trkpt lat="43.78101167016846" lon="12.275445627302426"><ele>998.3333333333333</ele><time>2026-04-18T15:15:16.999Z</time></trkpt><trkpt lat="43.78106857843306" lon="12.275183305073146"><ele>994.6666666666666</ele><time>2026-04-18T15:15:17.999Z</time></trkpt><trkpt lat="43.78113763415233" lon="12.274942929762718"><ele>991.0</ele><time>2026-04-18T15:15:18.999Z</time></trkpt><trkpt lat="43.781189741945035" lon="12.274704580785118"><ele>991.0</ele><time>2026-04-18T15:15:19.999Z</time></trkpt><trkpt lat="43.78122723658155" lon="12.27445983832839"><ele>991.0</ele><time>2026-04-18T15:15:20.999Z</time></trkpt><trkpt lat="43.781279420319386" lon="12.274222903491296"><ele>991.0</ele><time>2026-04-18T15:15:21.999Z</time></trkpt><trkpt lat="43.78133171981789" lon="12.273981470536905"><ele>991.3333333333333</ele><time>2026-04-18T15:15:22.999Z</time></trkpt><trkpt lat="43.781384376288464" lon="12.273739490319757"><ele>991.6666666666667</ele><time>2026-04-18T15:15:23.999Z</time></trkpt><trkpt lat="43.78143877993314" lon="12.273498717142775"><ele>992.0</ele><time>2026-04-18T15:15:24.999Z</time></trkpt><trkpt lat="43.78148858329802" lon="12.273256334795885"><ele>992.3333333333334</ele><time>2026-04-18T15:15:25.999Z</time></trkpt><trkpt lat="43.78154166510456" lon="12.27301301052077"><ele>992.6666666666667</ele><time>2026-04-18T15:15:26.999Z</time></trkpt><trkpt lat="43.78159564108411" lon="12.272770841646498"><ele>993.0</ele><time>2026-04-18T15:15:27.999Z</time></trkpt><trkpt lat="43.7816508119714" lon="12.272529755209641"><ele>993.0</ele><time>2026-04-18T15:15:28.999Z</time></trkpt><trkpt lat="43.781706004303" lon="12.272289051473054"><ele>993.0</ele><time>2026-04-18T15:15:29.999Z</time></trkpt><trkpt lat="43.781760428384246" lon="12.272054635821133"><ele>993.0</ele><time>2026-04-18T15:15:30.999Z</time></trkpt><trkpt lat="43.78181258985157" lon="12.271824622238029"><ele>993.3333333333333</ele><time>2026-04-18T15:15:31.999Z</time></trkpt><trkpt lat="43.781858614248286" lon="12.271599000185024"><ele>993.6666666666666</ele><time>2026-04-18T15:15:32.999Z</time></trkpt><trkpt lat="43.7819135861175" lon="12.271379920237734"><ele>994.0</ele><time>2026-04-18T15:15:33.999Z</time></trkpt><trkpt lat="43.78189981485163" lon="12.271137289401663"><ele>994.3333333333333</ele><time>2026-04-18T15:15:34.999Z</time></trkpt><trkpt lat="43.78187535233968" lon="12.270905283049807"><ele>994.6666666666667</ele><time>2026-04-18T15:15:35.999Z</time></trkpt><trkpt lat="43.78183490910306" lon="12.270673160194601"><ele>995.0</ele><time>2026-04-18T15:15:36.999Z</time></trkpt><trkpt lat="43.781770736333634" lon="12.270446147686233"><ele>993.0</ele><time>2026-04-18T15:15:37.999Z</time></trkpt><trkpt lat="43.78169358850189" lon="12.270218519364368"><ele>991.0</ele><time>2026-04-18T15:15:38.999Z</time></trkpt><trkpt lat="43.78160803713104" lon="12.269992576759329"><ele>989.0</ele><time>2026-04-18T15:15:39.999Z</time></trkpt><trkpt lat="43.78152032270886" lon="12.269759902002768"><ele>989.0</ele><time>2026-04-18T15:15:40.999Z</time></trkpt><trkpt lat="43.781446563224954" lon="12.269512115736642"><ele>989.0</ele><time>2026-04-18T15:15:41.999Z</time></trkpt><trkpt lat="43.78135992618213" lon="12.269270778844323"><ele>989.0</ele><time>2026-04-18T15:15:42.999Z</time></trkpt><trkpt lat="43.781259736353014" lon="12.269039527804889"><ele>990.0</ele><time>2026-04-18T15:15:43.999Z</time></trkpt><trkpt lat="43.781175135547926" lon="12.268800238339209"><ele>991.0</ele><time>2026-04-18T15:15:44.999Z</time></trkpt><trkpt lat="43.78109177105102" lon="12.268564896992942"><ele>992.0</ele><time>2026-04-18T15:15:45.999Z</time></trkpt><trkpt lat="43.781013538849656" lon="12.268327211356167"><ele>989.6666666666667</ele><time>2026-04-18T15:15:46.999Z</time></trkpt><trkpt lat="43.780941896375616" lon="12.2680886979346"><ele>987.3333333333333</ele><time>2026-04-18T15:15:47.999Z</time></trkpt><trkpt lat="43.78087611865615" lon="12.267847002160055"><ele>985.0</ele><time>2026-04-18T15:15:48.999Z</time></trkpt><trkpt lat="43.78081372262129" lon="12.267603783502663"><ele>985.0</ele><time>2026-04-18T15:15:49.999Z</time></trkpt><trkpt lat="43.7807529671033" lon="12.26736394837142"><ele>985.0</ele><time>2026-04-18T15:15:50.999Z</time></trkpt><trkpt lat="43.780710999192436" lon="12.267126471319237"><ele>985.0</ele><time>2026-04-18T15:15:51.999Z</time></trkpt><trkpt lat="43.780658353431086" lon="12.26691571148092"><ele>985.0</ele><time>2026-04-18T15:15:52.999Z</time></trkpt><trkpt lat="43.7806088914763" lon="12.266715138684317"><ele>985.0</ele><time>2026-04-18T15:15:53.999Z</time></trkpt><trkpt lat="43.78056351484684" lon="12.266517388247602"><ele>985.0</ele><time>2026-04-18T15:15:54.999Z</time></trkpt><trkpt lat="43.78053066920454" lon="12.266321675866223"><ele>985.0</ele><time>2026-04-18T15:15:55.999Z</time></trkpt><trkpt lat="43.78050818199254" lon="12.266125883911053"><ele>985.0</ele><time>2026-04-18T15:15:56.999Z</time></trkpt><trkpt lat="43.78055010078383" lon="12.26594281778912"><ele>985.0</ele><time>2026-04-18T15:15:57.999Z</time></trkpt><trkpt lat="43.78058424735118" lon="12.265760206786025"><ele>985.0</ele><time>2026-04-18T15:15:58.999Z</time></trkpt><trkpt lat="43.780674847320064" lon="12.265604491013601"><ele>985.0</ele><time>2026-04-18T15:15:59.999Z</time></trkpt><trkpt lat="43.78078182413623" lon="12.265471828017684"><ele>980.3333333333333</ele><time>2026-04-18T15:16:00.999Z</time></trkpt><trkpt lat="43.78091152478279" lon="12.265361615412242"><ele>975.6666666666667</ele><time>2026-04-18T15:16:01.999Z</time></trkpt><trkpt lat="43.781062460629194" lon="12.26528051891364"><ele>971.0</ele><time>2026-04-18T15:16:02.999Z</time></trkpt><trkpt lat="43.781225352929894" lon="12.265217201689854"><ele>971.0</ele><time>2026-04-18T15:16:03.999Z</time></trkpt><trkpt lat="43.78139291675128" lon="12.26515055461196"><ele>971.0</ele><time>2026-04-18T15:16:04.999Z</time></trkpt><trkpt lat="43.78155805573988" lon="12.265087188970176"><ele>971.0</ele><time>2026-04-18T15:16:05.999Z</time></trkpt><trkpt lat="43.781720450426484" lon="12.265028754796008"><ele>972.0</ele><time>2026-04-18T15:16:06.999Z</time></trkpt><trkpt lat="43.78187409242699" lon="12.26497255564441"><ele>973.0</ele><time>2026-04-18T15:16:07.999Z</time></trkpt><trkpt lat="43.78202096085874" lon="12.26490796375938"><ele>974.0</ele><time>2026-04-18T15:16:08.999Z</time></trkpt><trkpt lat="43.782167614850856" lon="12.264828681288508"><ele>970.3333333333334</ele><time>2026-04-18T15:16:09.999Z</time></trkpt><trkpt lat="43.78230063708133" lon="12.26467839592925"><ele>966.6666666666667</ele><time>2026-04-18T15:16:10.999Z</time></trkpt><trkpt lat="43.782425393337384" lon="12.264502532086922"><ele>963.0</ele><time>2026-04-18T15:16:11.999Z</time></trkpt><trkpt lat="43.78253569262482" lon="12.264310075237821"><ele>963.0</ele><time>2026-04-18T15:16:13Z</time></trkpt><trkpt lat="43.782666966046826" lon="12.264147353683843"><ele>963.0</ele><time>2026-04-18T15:16:14Z</time></trkpt><trkpt lat="43.78278789309" lon="12.26396980736579"><ele>963.0</ele><time>2026-04-18T15:16:15Z</time></trkpt><trkpt lat="43.78289567115944" lon="12.263782032015166"><ele>960.3333333333333</ele><time>2026-04-18T15:16:16Z</time></trkpt><trkpt lat="43.78302200119779" lon="12.263624592287885"><ele>957.6666666666666</ele><time>2026-04-18T15:16:17Z</time></trkpt><trkpt lat="43.78312769597457" lon="12.263431988276478"><ele>955.0</ele><time>2026-04-18T15:16:18Z</time></trkpt><trkpt lat="43.783256949465816" lon="12.26330075875571"><ele>955.0</ele><time>2026-04-18T15:16:19Z</time></trkpt><trkpt lat="43.783377212041664" lon="12.263175510787441"><ele>955.0</ele><time>2026-04-18T15:16:20Z</time></trkpt><trkpt lat="43.783486883982285" lon="12.263067145872583"><ele>955.0</ele><time>2026-04-18T15:16:21Z</time></trkpt><trkpt lat="43.783577684183925" lon="12.262956190106138"><ele>955.0</ele><time>2026-04-18T15:16:22Z</time></trkpt><trkpt lat="43.783664373425" lon="12.26287575890865"><ele>953.3333333333333</ele><time>2026-04-18T15:16:23Z</time></trkpt><trkpt lat="43.783738301637186" lon="12.262813763841377"><ele>951.6666666666666</ele><time>2026-04-18T15:16:24Z</time></trkpt><trkpt lat="43.78381272497025" lon="12.262748498686303"><ele>950.0</ele><time>2026-04-18T15:16:25Z</time></trkpt><trkpt lat="43.78388143631159" lon="12.262662244694589"><ele>948.3333333333333</ele><time>2026-04-18T15:16:26Z</time></trkpt><trkpt lat="43.78392722251246" lon="12.262559684168535"><ele>946.6666666666666</ele><time>2026-04-18T15:16:27Z</time></trkpt><trkpt lat="43.783933128876896" lon="12.26244067774244"><ele>945.0</ele><time>2026-04-18T15:16:28Z</time></trkpt><trkpt lat="43.78390682340583" lon="12.262326392444637"><ele>939.8</ele><time>2026-04-18T15:16:29Z</time></trkpt><trkpt lat="43.78384011785442" lon="12.262229163405973"><ele>934.6</ele><time>2026-04-18T15:16:30Z</time></trkpt><trkpt lat="43.78375201802586" lon="12.262170934294497"><ele>929.4000000000001</ele><time>2026-04-18T15:16:31Z</time></trkpt><trkpt lat="43.783656202839694" lon="12.262151848489166"><ele>924.2</ele><time>2026-04-18T15:16:32Z</time></trkpt><trkpt lat="43.783552281115796" lon="12.2621816714726"><ele>919.0</ele><time>2026-04-18T15:16:33Z</time></trkpt><trkpt lat="43.783447201245956" lon="12.262262502561374"><ele>923.75</ele><time>2026-04-18T15:16:34Z</time></trkpt><trkpt lat="43.78333907263077" lon="12.262376637919159"><ele>928.5</ele><time>2026-04-18T15:16:35Z</time></trkpt><trkpt lat="43.783214688211885" lon="12.262479588184076"><ele>933.25</ele><time>2026-04-18T15:16:36Z</time></trkpt><trkpt lat="43.783081824105764" lon="12.262571241348768"><ele>938.0</ele><time>2026-04-18T15:16:37Z</time></trkpt><trkpt lat="43.782955797026766" lon="12.262646729060412"><ele>938.0</ele><time>2026-04-18T15:16:38Z</time></trkpt><trkpt lat="43.782819664276055" lon="12.262683665526882"><ele>938.0</ele><time>2026-04-18T15:16:39Z</time></trkpt><trkpt lat="43.78268410071126" lon="12.262734317666549"><ele>938.0</ele><time>2026-04-18T15:16:40Z</time></trkpt><trkpt lat="43.78254870184787" lon="12.262718129175981"><ele>938.0</ele><time>2026-04-18T15:16:41Z</time></trkpt><trkpt lat="43.78241583996736" lon="12.262687312683106"><ele>935.25</ele><time>2026-04-18T15:16:42Z</time></trkpt><trkpt lat="43.782277401483356" lon="12.26266120693685"><ele>932.5</ele><time>2026-04-18T15:16:43Z</time></trkpt><trkpt lat="43.782144543409" lon="12.26259982881295"><ele>929.75</ele><time>2026-04-18T15:16:44Z</time></trkpt><trkpt lat="43.782009628763646" lon="12.262539704225832"><ele>927.0</ele><time>2026-04-18T15:16:45Z</time></trkpt><trkpt lat="43.78187756345339" lon="12.262483715379362"><ele>925.6</ele><time>2026-04-18T15:16:46Z</time></trkpt><trkpt lat="43.781757576782496" lon="12.262425495151122"><ele>924.2</ele><time>2026-04-18T15:16:47Z</time></trkpt><trkpt lat="43.78165088759079" lon="12.26237906274385"><ele>922.8</ele><time>2026-04-18T15:16:48Z</time></trkpt><trkpt lat="43.78155923197081" lon="12.262322238894951"><ele>921.4</ele><time>2026-04-18T15:16:49Z</time></trkpt><trkpt lat="43.781485542968646" lon="12.262236280390285"><ele>920.0</ele><time>2026-04-18T15:16:50Z</time></trkpt><trkpt lat="43.781436365300124" lon="12.262119281170708"><ele>917.6</ele><time>2026-04-18T15:16:51Z</time></trkpt><trkpt lat="43.781425608454505" lon="12.261976852574534"><ele>915.2</ele><time>2026-04-18T15:16:52Z</time></trkpt><trkpt lat="43.78145987501927" lon="12.261838650938671"><ele>912.8</ele><time>2026-04-18T15:16:53Z</time></trkpt><trkpt lat="43.781537261093774" lon="12.26172733694973"><ele>910.4</ele><time>2026-04-18T15:16:54Z</time></trkpt><trkpt lat="43.78165528301505" lon="12.261678711234106"><ele>908.0</ele><time>2026-04-18T15:16:55Z</time></trkpt><trkpt lat="43.781774336670736" lon="12.261614317333787"><ele>907.0</ele><time>2026-04-18T15:16:56Z</time></trkpt><trkpt lat="43.781908228955864" lon="12.261578668328733"><ele>906.0</ele><time>2026-04-18T15:16:57Z</time></trkpt><trkpt lat="43.7820405559334" lon="12.261542971404117"><ele>905.0</ele><time>2026-04-18T15:16:58Z</time></trkpt><trkpt lat="43.78217204945565" lon="12.261502844964768"><ele>904.0</ele><time>2026-04-18T15:16:59Z</time></trkpt><trkpt lat="43.782293989945344" lon="12.261440565268519"><ele>904.0</ele><time>2026-04-18T15:17:00Z</time></trkpt><trkpt lat="43.78239656666075" lon="12.261349134539845"><ele>904.0</ele><time>2026-04-18T15:17:01Z</time></trkpt><trkpt lat="43.78247365180058" lon="12.26122362158704"><ele>904.0</ele><time>2026-04-18T15:17:02Z</time></trkpt><trkpt lat="43.782532245758176" lon="12.26106856085539"><ele>904.0</ele><time>2026-04-18T15:17:03Z</time></trkpt><trkpt lat="43.78258090772973" lon="12.260885625647765"><ele>904.0</ele><time>2026-04-18T15:17:04Z</time></trkpt><trkpt lat="43.78262424668476" lon="12.260684624986306"><ele>904.0</ele><time>2026-04-18T15:17:04.999Z</time></trkpt><trkpt lat="43.782663545314264" lon="12.260476400852284"><ele>904.0</ele><time>2026-04-18T15:17:05.999Z</time></trkpt><trkpt lat="43.782710258760275" lon="12.260273578915626"><ele>899.0</ele><time>2026-04-18T15:17:06.999Z</time></trkpt><trkpt lat="43.78275861299441" lon="12.260065320986289"><ele>894.0</ele><time>2026-04-18T15:17:07.999Z</time></trkpt><trkpt lat="43.782798756144935" lon="12.259856510747856"><ele>889.0</ele><time>2026-04-18T15:17:08.999Z</time></trkpt><trkpt lat="43.782838307666964" lon="12.259653388283176"><ele>888.5</ele><time>2026-04-18T15:17:09.999Z</time></trkpt><trkpt lat="43.78286921094905" lon="12.259450820216781"><ele>888.0</ele><time>2026-04-18T15:17:10.999Z</time></trkpt><trkpt lat="43.78287871913455" lon="12.2592510801184"><ele>887.5</ele><time>2026-04-18T15:17:11.999Z</time></trkpt><trkpt lat="43.782866745152255" lon="12.259050853863991"><ele>887.0</ele><time>2026-04-18T15:17:12.999Z</time></trkpt><trkpt lat="43.78283485192126" lon="12.258852969977676"><ele>886.25</ele><time>2026-04-18T15:17:13.999Z</time></trkpt><trkpt lat="43.782804444027946" lon="12.258659239053022"><ele>885.5</ele><time>2026-04-18T15:17:14.999Z</time></trkpt><trkpt lat="43.78277474167556" lon="12.25846534770374"><ele>884.75</ele><time>2026-04-18T15:17:15.999Z</time></trkpt><trkpt lat="43.7827458726275" lon="12.258270530897928"><ele>884.0</ele><time>2026-04-18T15:17:16.999Z</time></trkpt><trkpt lat="43.78272955043175" lon="12.258068626794518"><ele>882.6666666666667</ele><time>2026-04-18T15:17:17.999Z</time></trkpt><trkpt lat="43.78272455278794" lon="12.257856506870262"><ele>881.3333333333333</ele><time>2026-04-18T15:17:18.999Z</time></trkpt><trkpt lat="43.78273992487055" lon="12.257636123523781"><ele>880.0</ele><time>2026-04-18T15:17:19.999Z</time></trkpt><trkpt lat="43.78274545555647" lon="12.257413382278198"><ele>878.0</ele><time>2026-04-18T15:17:20.999Z</time></trkpt><trkpt lat="43.78273898070035" lon="12.257187482986025"><ele>876.0</ele><time>2026-04-18T15:17:21.999Z</time></trkpt><trkpt lat="43.7827483658765" lon="12.25696633336793"><ele>874.0</ele><time>2026-04-18T15:17:22.999Z</time></trkpt><trkpt lat="43.78277828164394" lon="12.256751996472612"><ele>874.0</ele><time>2026-04-18T15:17:23.999Z</time></trkpt><trkpt lat="43.78279815962888" lon="12.256541119712537"><ele>874.0</ele><time>2026-04-18T15:17:24.999Z</time></trkpt><trkpt lat="43.782830525780774" lon="12.25633002698656"><ele>874.0</ele><time>2026-04-18T15:17:25.999Z</time></trkpt><trkpt lat="43.78286806225422" lon="12.25611978362171"><ele>872.0</ele><time>2026-04-18T15:17:26.999Z</time></trkpt><trkpt lat="43.78290776875667" lon="12.255908367776714"><ele>870.0</ele><time>2026-04-18T15:17:27.999Z</time></trkpt><trkpt lat="43.782936459786114" lon="12.255696320698338"><ele>868.0</ele><time>2026-04-18T15:17:28.999Z</time></trkpt><trkpt lat="43.78298572507256" lon="12.255493292103168"><ele>865.0</ele><time>2026-04-18T15:17:29.999Z</time></trkpt><trkpt lat="43.78302341127717" lon="12.255292633209493"><ele>862.0</ele><time>2026-04-18T15:17:30.999Z</time></trkpt><trkpt lat="43.783061615504415" lon="12.255088596996742"><ele>859.0</ele><time>2026-04-18T15:17:31.999Z</time></trkpt><trkpt lat="43.78310053666068" lon="12.254880508086167"><ele>858.0</ele><time>2026-04-18T15:17:32.999Z</time></trkpt><trkpt lat="43.78314422166144" lon="12.254646949672614"><ele>857.0</ele><time>2026-04-18T15:17:33.999Z</time></trkpt><trkpt lat="43.78318620784233" lon="12.25442247380114"><ele>856.0</ele><time>2026-04-18T15:17:34.999Z</time></trkpt><trkpt lat="43.783210727088566" lon="12.254253532711472"><ele>856.0</ele><time>2026-04-18T15:17:35.999Z</time></trkpt><trkpt lat="43.783252153166416" lon="12.254046405850122"><ele>856.0</ele><time>2026-04-18T15:17:36.999Z</time></trkpt><trkpt lat="43.783292347024165" lon="12.253830021384651"><ele>856.0</ele><time>2026-04-18T15:17:37.999Z</time></trkpt><trkpt lat="43.78332695839139" lon="12.25363889252018"><ele>855.75</ele><time>2026-04-18T15:17:38.999Z</time></trkpt><trkpt lat="43.78335351925745" lon="12.253470229969151"><ele>855.5</ele><time>2026-04-18T15:17:39.999Z</time></trkpt><trkpt lat="43.78336597420208" lon="12.253283069136344"><ele>855.25</ele><time>2026-04-18T15:17:40.999Z</time></trkpt><trkpt lat="43.7833641615403" lon="12.253093859095202"><ele>855.0</ele><time>2026-04-18T15:17:41.999Z</time></trkpt><trkpt lat="43.78335364475628" lon="12.2529004724788"><ele>854.25</ele><time>2026-04-18T15:17:42.999Z</time></trkpt><trkpt lat="43.78334108767313" lon="12.252709407142927"><ele>853.5</ele><time>2026-04-18T15:17:43.999Z</time></trkpt><trkpt lat="43.78334312130471" lon="12.252519117619336"><ele>852.75</ele><time>2026-04-18T15:17:44.999Z</time></trkpt><trkpt lat="43.7833405069666" lon="12.252331341748464"><ele>852.0</ele><time>2026-04-18T15:17:45.999Z</time></trkpt><trkpt lat="43.783329323594415" lon="12.25214374482751"><ele>850.75</ele><time>2026-04-18T15:17:46.999Z</time></trkpt><trkpt lat="43.78334438296184" lon="12.251953022042361"><ele>849.5</ele><time>2026-04-18T15:17:47.999Z</time></trkpt><trkpt lat="43.7833442917349" lon="12.25175975554943"><ele>848.25</ele><time>2026-04-18T15:17:48.999Z</time></trkpt><trkpt lat="43.78333882895277" lon="12.25155648375434"><ele>847.0</ele><time>2026-04-18T15:17:49.999Z</time></trkpt><trkpt lat="43.78332293040462" lon="12.251355511109972"><ele>845.3333333333333</ele><time>2026-04-18T15:17:50.999Z</time></trkpt><trkpt lat="43.783288679956655" lon="12.251153303283417"><ele>843.6666666666667</ele><time>2026-04-18T15:17:51.999Z</time></trkpt><trkpt lat="43.78326420344443" lon="12.250946913061412"><ele>842.0</ele><time>2026-04-18T15:17:52.999Z</time></trkpt><trkpt lat="43.783237885148075" lon="12.250742915155502"><ele>840.3333333333334</ele><time>2026-04-18T15:17:53.999Z</time></trkpt><trkpt lat="43.7832402958195" lon="12.25052977157226"><ele>838.6666666666667</ele><time>2026-04-18T15:17:54.999Z</time></trkpt><trkpt lat="43.783241337695934" lon="12.25031986143214"><ele>837.0</ele><time>2026-04-18T15:17:55.999Z</time></trkpt><trkpt lat="43.783248417033306" lon="12.250109440598479"><ele>837.0</ele><time>2026-04-18T15:17:56.999Z</time></trkpt><trkpt lat="43.78325480947198" lon="12.24991105277647"><ele>837.0</ele><time>2026-04-18T15:17:57.999Z</time></trkpt><trkpt lat="43.783243722720755" lon="12.24971880619587"><ele>837.0</ele><time>2026-04-18T15:17:58.999Z</time></trkpt><trkpt lat="43.7832508570745" lon="12.24952966115386"><ele>837.0</ele><time>2026-04-18T15:17:59.999Z</time></trkpt><trkpt lat="43.783256274086774" lon="12.249347762746739"><ele>836.2</ele><time>2026-04-18T15:18:00.999Z</time></trkpt><trkpt lat="43.78325359590667" lon="12.249182477472742"><ele>835.4000000000001</ele><time>2026-04-18T15:18:01.999Z</time></trkpt><trkpt lat="43.783256122850304" lon="12.249034602430523"><ele>834.5999999999999</ele><time>2026-04-18T15:18:02.999Z</time></trkpt><trkpt lat="43.78327161363718" lon="12.248887807558285"><ele>833.8</ele><time>2026-04-18T15:18:03.999Z</time></trkpt><trkpt lat="43.78325579268713" lon="12.24876300750921"><ele>833.0</ele><time>2026-04-18T15:18:04.999Z</time></trkpt><trkpt lat="43.78326149447885" lon="12.248651087891504"><ele>832.75</ele><time>2026-04-18T15:18:05.999Z</time></trkpt><trkpt lat="43.78326131307676" lon="12.248553322087723"><ele>832.5</ele><time>2026-04-18T15:18:06.999Z</time></trkpt><trkpt lat="43.78327541611534" lon="12.248435881931133"><ele>832.25</ele><time>2026-04-18T15:18:08.999Z</time></trkpt><trkpt lat="43.78304555129088" lon="12.24837120289399"><ele>832.0</ele><time>2026-04-18T15:18:12.999Z</time></trkpt><trkpt lat="43.78298050553322" lon="12.248489767920066"><ele>832.0</ele><time>2026-04-18T15:18:14.999Z</time></trkpt><trkpt lat="43.78293130233304" lon="12.248572363470013"><ele>832.0</ele><time>2026-04-18T15:18:15.999Z</time></trkpt><trkpt lat="43.78287087069097" lon="12.24866410090352"><ele>832.0</ele><time>2026-04-18T15:18:16.999Z</time></trkpt><trkpt lat="43.78280802219487" lon="12.248782964573152"><ele>832.0</ele><time>2026-04-18T15:18:18Z</time></trkpt><trkpt lat="43.7827324874487" lon="12.248913153016513"><ele>832.0</ele><time>2026-04-18T15:18:19Z</time></trkpt><trkpt lat="43.78265579058961" lon="12.24903831632628"><ele>832.5</ele><time>2026-04-18T15:18:20Z</time></trkpt><trkpt lat="43.78257285421309" lon="12.249163841385611"><ele>833.0</ele><time>2026-04-18T15:18:21Z</time></trkpt><trkpt lat="43.782482112776314" lon="12.24928375845003"><ele>833.5</ele><time>2026-04-18T15:18:22Z</time></trkpt><trkpt lat="43.7823909835282" lon="12.249382065100525"><ele>834.0</ele><time>2026-04-18T15:18:23Z</time></trkpt><trkpt lat="43.78231352969938" lon="12.249464850085486"><ele>834.0</ele><time>2026-04-18T15:18:24Z</time></trkpt><trkpt lat="43.782252078361125" lon="12.24953278563219"><ele>834.0</ele><time>2026-04-18T15:18:25Z</time></trkpt><trkpt lat="43.78218148861082" lon="12.2496146842574"><ele>834.0</ele><time>2026-04-18T15:18:27Z</time></trkpt><trkpt lat="43.78211766955934" lon="12.24971546065401"><ele>834.0</ele><time>2026-04-18T15:19:07Z</time></trkpt><trkpt lat="43.78203920424921" lon="12.249869507638374"><ele>834.0</ele><time>2026-04-18T15:19:09Z</time></trkpt><trkpt lat="43.78200170716147" lon="12.249972457850001"><ele>835.8000000000001</ele><time>2026-04-18T15:19:10Z</time></trkpt><trkpt lat="43.78196783502849" lon="12.250098426633222"><ele>837.6</ele><time>2026-04-18T15:19:11Z</time></trkpt><trkpt lat="43.78193756943409" lon="12.250252357621315"><ele>839.4</ele><time>2026-04-18T15:19:12Z</time></trkpt><trkpt lat="43.78191402945125" lon="12.250406325870467"><ele>841.2</ele><time>2026-04-18T15:19:13Z</time></trkpt><trkpt lat="43.781891684345695" lon="12.250568252819638"><ele>843.0</ele><time>2026-04-18T15:19:14Z</time></trkpt><trkpt lat="43.78185300317805" lon="12.250743270407941"><ele>840.75</ele><time>2026-04-18T15:19:15Z</time></trkpt><trkpt lat="43.78180310012838" lon="12.250924497492711"><ele>838.5</ele><time>2026-04-18T15:19:16Z</time></trkpt><trkpt lat="43.7817396624651" lon="12.251086664508078"><ele>836.25</ele><time>2026-04-18T15:19:17Z</time></trkpt><trkpt lat="43.78167585611543" lon="12.251243237012838"><ele>834.0</ele><time>2026-04-18T15:19:18Z</time></trkpt><trkpt lat="43.78162466967713" lon="12.251408962993205"><ele>835.5</ele><time>2026-04-18T15:19:19Z</time></trkpt><trkpt lat="43.78156854079541" lon="12.251580214631351"><ele>837.0</ele><time>2026-04-18T15:19:20Z</time></trkpt><trkpt lat="43.78152536255947" lon="12.251758312462512"><ele>838.5</ele><time>2026-04-18T15:19:21Z</time></trkpt><trkpt lat="43.78149697217057" lon="12.251929590887961"><ele>840.0</ele><time>2026-04-18T15:19:22Z</time></trkpt><trkpt lat="43.78148179176607" lon="12.252107367739198"><ele>840.0</ele><time>2026-04-18T15:19:23Z</time></trkpt><trkpt lat="43.78148393353678" lon="12.252281809574365"><ele>840.0</ele><time>2026-04-18T15:19:24Z</time></trkpt><trkpt lat="43.78149740721721" lon="12.252462174888647"><ele>840.0</ele><time>2026-04-18T15:19:25Z</time></trkpt><trkpt lat="43.781516643815635" lon="12.252640686684673"><ele>840.0</ele><time>2026-04-18T15:19:26Z</time></trkpt><trkpt lat="43.781530515672465" lon="12.252819463112461"><ele>840.0</ele><time>2026-04-18T15:19:27Z</time></trkpt><trkpt lat="43.78151915558096" lon="12.252999692392082"><ele>840.0</ele><time>2026-04-18T15:19:28Z</time></trkpt><trkpt lat="43.781478308160494" lon="12.253185091540058"><ele>840.0</ele><time>2026-04-18T15:19:29Z</time></trkpt><trkpt lat="43.781389544385384" lon="12.25334768323449"><ele>840.0</ele><time>2026-04-18T15:19:30Z</time></trkpt><trkpt lat="43.78129758489211" lon="12.253514239794798"><ele>840.0</ele><time>2026-04-18T15:19:31Z</time></trkpt><trkpt lat="43.78119860806323" lon="12.253686079918086"><ele>840.0</ele><time>2026-04-18T15:19:32Z</time></trkpt><trkpt lat="43.781111322666085" lon="12.253874674758796"><ele>840.0</ele><time>2026-04-18T15:19:33Z</time></trkpt><trkpt lat="43.78100725166748" lon="12.254054037942836"><ele>836.6666666666667</ele><time>2026-04-18T15:19:34Z</time></trkpt><trkpt lat="43.78090959460767" lon="12.254237785295732"><ele>833.3333333333334</ele><time>2026-04-18T15:19:35Z</time></trkpt><trkpt lat="43.78081178383667" lon="12.254424787893523"><ele>830.0</ele><time>2026-04-18T15:19:36Z</time></trkpt><trkpt lat="43.780701867430885" lon="12.254603807254595"><ele>831.3333333333334</ele><time>2026-04-18T15:19:37Z</time></trkpt><trkpt lat="43.78060862293323" lon="12.254798443482708"><ele>832.6666666666667</ele><time>2026-04-18T15:19:38Z</time></trkpt><trkpt lat="43.7805191717554" lon="12.254986621072161"><ele>834.0</ele><time>2026-04-18T15:19:39Z</time></trkpt><trkpt lat="43.780431598652584" lon="12.255171078190848"><ele>834.0</ele><time>2026-04-18T15:19:40Z</time></trkpt><trkpt lat="43.780344756299804" lon="12.255350600109697"><ele>834.0</ele><time>2026-04-18T15:19:40.999Z</time></trkpt><trkpt lat="43.78024330580086" lon="12.255521072658722"><ele>834.0</ele><time>2026-04-18T15:19:41.999Z</time></trkpt><trkpt lat="43.780127161269654" lon="12.255677656388972"><ele>831.0</ele><time>2026-04-18T15:19:42.999Z</time></trkpt><trkpt lat="43.78001923797314" lon="12.255837543612838"><ele>828.0</ele><time>2026-04-18T15:19:43.999Z</time></trkpt><trkpt lat="43.779899933648785" lon="12.255964374064963"><ele>825.0</ele><time>2026-04-18T15:19:44.999Z</time></trkpt><trkpt lat="43.77978521979831" lon="12.25610053867193"><ele>825.0</ele><time>2026-04-18T15:19:45.999Z</time></trkpt><trkpt lat="43.77967892807055" lon="12.256220998948129"><ele>825.0</ele><time>2026-04-18T15:19:46.999Z</time></trkpt><trkpt lat="43.779585101411584" lon="12.256340881660833"><ele>825.0</ele><time>2026-04-18T15:19:47.999Z</time></trkpt><trkpt lat="43.77949637772732" lon="12.256466472035829"><ele>825.0</ele><time>2026-04-18T15:19:48.999Z</time></trkpt><trkpt lat="43.779401490973655" lon="12.256582088059535"><ele>824.5</ele><time>2026-04-18T15:19:49.999Z</time></trkpt><trkpt lat="43.7792831081415" lon="12.256682371124862"><ele>824.0</ele><time>2026-04-18T15:19:50.999Z</time></trkpt><trkpt lat="43.77915516899806" lon="12.25679253919015"><ele>823.5</ele><time>2026-04-18T15:19:51.999Z</time></trkpt><trkpt lat="43.77902541732317" lon="12.256904797494961"><ele>823.0</ele><time>2026-04-18T15:19:52.999Z</time></trkpt><trkpt lat="43.77888740948849" lon="12.257019219585267"><ele>823.0</ele><time>2026-04-18T15:19:53.999Z</time></trkpt><trkpt lat="43.77874305788388" lon="12.257133896273425"><ele>823.0</ele><time>2026-04-18T15:19:54.999Z</time></trkpt><trkpt lat="43.778592684402746" lon="12.257245490983204"><ele>823.0</ele><time>2026-04-18T15:19:55.999Z</time></trkpt><trkpt lat="43.77844117318723" lon="12.257364651733345"><ele>820.6666666666666</ele><time>2026-04-18T15:19:56.999Z</time></trkpt><trkpt lat="43.77828745478128" lon="12.257482352838428"><ele>818.3333333333333</ele><time>2026-04-18T15:19:57.999Z</time></trkpt><trkpt lat="43.77813702323355" lon="12.257593993859606"><ele>816.0</ele><time>2026-04-18T15:19:58.999Z</time></trkpt><trkpt lat="43.7779919408263" lon="12.257707340448277"><ele>816.0</ele><time>2026-04-18T15:19:59.999Z</time></trkpt><trkpt lat="43.7778507997425" lon="12.257821654405694"><ele>816.0</ele><time>2026-04-18T15:20:00.999Z</time></trkpt><trkpt lat="43.77771106939736" lon="12.257911480407405"><ele>816.0</ele><time>2026-04-18T15:20:01.999Z</time></trkpt><trkpt lat="43.77759756553364" lon="12.258025952829481"><ele>816.0</ele><time>2026-04-18T15:20:02.999Z</time></trkpt><trkpt lat="43.777478267467245" lon="12.258109753383946"><ele>816.0</ele><time>2026-04-18T15:20:03.999Z</time></trkpt><trkpt lat="43.777366354086205" lon="12.25820582795592"><ele>816.0</ele><time>2026-04-18T15:20:04.999Z</time></trkpt><trkpt lat="43.77726837553467" lon="12.258312093438978"><ele>816.0</ele><time>2026-04-18T15:20:05.999Z</time></trkpt><trkpt lat="43.777194379574446" lon="12.258434262595214"><ele>816.0</ele><time>2026-04-18T15:20:06.999Z</time></trkpt><trkpt lat="43.77714055631954" lon="12.25858239899267"><ele>816.0</ele><time>2026-04-18T15:20:07.999Z</time></trkpt><trkpt lat="43.777113327025845" lon="12.258759605857355"><ele>816.0</ele><time>2026-04-18T15:20:08.999Z</time></trkpt><trkpt lat="43.77707062707941" lon="12.258933102261542"><ele>816.0</ele><time>2026-04-18T15:20:09.999Z</time></trkpt><trkpt lat="43.77703672307505" lon="12.259103142820972"><ele>814.5</ele><time>2026-04-18T15:20:10.999Z</time></trkpt><trkpt lat="43.77700280336503" lon="12.259265530008765"><ele>813.0</ele><time>2026-04-18T15:20:11.999Z</time></trkpt><trkpt lat="43.776945000686084" lon="12.25941349312467"><ele>811.5</ele><time>2026-04-18T15:20:12.999Z</time></trkpt><trkpt lat="43.77687828442602" lon="12.259544781023457"><ele>810.0</ele><time>2026-04-18T15:20:13.999Z</time></trkpt><trkpt lat="43.77679613282325" lon="12.259640169464234"><ele>810.0</ele><time>2026-04-18T15:20:14.999Z</time></trkpt><trkpt lat="43.776696061338484" lon="12.259690113674033"><ele>810.0</ele><time>2026-04-18T15:20:15.999Z</time></trkpt><trkpt lat="43.776584473588635" lon="12.259731996380816"><ele>810.0</ele><time>2026-04-18T15:20:16.999Z</time></trkpt><trkpt lat="43.776449727263824" lon="12.259767709568703"><ele>810.0</ele><time>2026-04-18T15:20:17.999Z</time></trkpt><trkpt lat="43.7763013003451" lon="12.259806612929713"><ele>812.0</ele><time>2026-04-18T15:20:18.999Z</time></trkpt><trkpt lat="43.7761499183504" lon="12.259872839893411"><ele>814.0</ele><time>2026-04-18T15:20:19.999Z</time></trkpt><trkpt lat="43.77598534711159" lon="12.25991675846228"><ele>816.0</ele><time>2026-04-18T15:20:20.999Z</time></trkpt><trkpt lat="43.775818388353926" lon="12.259965582124304"><ele>816.0</ele><time>2026-04-18T15:20:21.999Z</time></trkpt><trkpt lat="43.7756602018658" lon="12.260000864265429"><ele>816.0</ele><time>2026-04-18T15:20:22.999Z</time></trkpt><trkpt lat="43.77551883199764" lon="12.259969631341802"><ele>816.0</ele><time>2026-04-18T15:20:24Z</time></trkpt><trkpt lat="43.77538019736976" lon="12.259924448059646"><ele>816.0</ele><time>2026-04-18T15:20:25Z</time></trkpt><trkpt lat="43.77523159434426" lon="12.25986124020028"><ele>816.5</ele><time>2026-04-18T15:20:26Z</time></trkpt><trkpt lat="43.77508461808282" lon="12.259799540306165"><ele>817.0</ele><time>2026-04-18T15:20:27Z</time></trkpt><trkpt lat="43.77493946599249" lon="12.259766451934839"><ele>817.5</ele><time>2026-04-18T15:20:28Z</time></trkpt><trkpt lat="43.77480486641898" lon="12.259705406894339"><ele>818.0</ele><time>2026-04-18T15:20:29Z</time></trkpt><trkpt lat="43.77466118556752" lon="12.25965125640616"><ele>816.0</ele><time>2026-04-18T15:20:30Z</time></trkpt><trkpt lat="43.77451491560836" lon="12.259603691485362"><ele>814.0</ele><time>2026-04-18T15:20:31Z</time></trkpt><trkpt lat="43.774373445236336" lon="12.259526704047333"><ele>812.0</ele><time>2026-04-18T15:20:32Z</time></trkpt><trkpt lat="43.774226449567536" lon="12.259468221531245"><ele>812.0</ele><time>2026-04-18T15:20:33Z</time></trkpt><trkpt lat="43.774075659477624" lon="12.259404355563948"><ele>812.0</ele><time>2026-04-18T15:20:34Z</time></trkpt><trkpt lat="43.7739280220579" lon="12.25933926903058"><ele>812.0</ele><time>2026-04-18T15:20:35Z</time></trkpt><trkpt lat="43.77378239106292" lon="12.259295916745156"><ele>812.0</ele><time>2026-04-18T15:20:36Z</time></trkpt><trkpt lat="43.77365027285343" lon="12.25922768898362"><ele>812.0</ele><time>2026-04-18T15:20:37Z</time></trkpt><trkpt lat="43.77351453792269" lon="12.25916606363635"><ele>812.0</ele><time>2026-04-18T15:20:38Z</time></trkpt><trkpt lat="43.77338074569278" lon="12.259109444725166"><ele>812.0</ele><time>2026-04-18T15:20:39Z</time></trkpt><trkpt lat="43.7732486728854" lon="12.259050627373272"><ele>811.75</ele><time>2026-04-18T15:20:40Z</time></trkpt><trkpt lat="43.773115528755" lon="12.258985431451094"><ele>811.5</ele><time>2026-04-18T15:20:41Z</time></trkpt><trkpt lat="43.77298303482333" lon="12.25891046269985"><ele>811.25</ele><time>2026-04-18T15:20:42Z</time></trkpt><trkpt lat="43.772854171369964" lon="12.258831304096773"><ele>811.0</ele><time>2026-04-18T15:20:43Z</time></trkpt><trkpt lat="43.77274735471925" lon="12.258718153448436"><ele>813.5</ele><time>2026-04-18T15:20:44Z</time></trkpt><trkpt lat="43.772639511439905" lon="12.258638542052195"><ele>816.0</ele><time>2026-04-18T15:20:45Z</time></trkpt><trkpt lat="43.772544249321015" lon="12.258526615854239"><ele>818.5</ele><time>2026-04-18T15:20:46Z</time></trkpt><trkpt lat="43.77247365565531" lon="12.258385452560038"><ele>821.0</ele><time>2026-04-18T15:20:47Z</time></trkpt><trkpt lat="43.77238280614232" lon="12.258271613616795"><ele>821.0</ele><time>2026-04-18T15:20:48Z</time></trkpt><trkpt lat="43.77229204593028" lon="12.25815818442712"><ele>821.0</ele><time>2026-04-18T15:20:49Z</time></trkpt><trkpt lat="43.7721910194516" lon="12.258065929900932"><ele>821.0</ele><time>2026-04-18T15:20:50Z</time></trkpt><trkpt lat="43.7720837421086" lon="12.25799277053966"><ele>821.0</ele><time>2026-04-18T15:20:51Z</time></trkpt><trkpt lat="43.77197190037928" lon="12.257922526441886"><ele>820.75</ele><time>2026-04-18T15:20:52Z</time></trkpt><trkpt lat="43.77185445642363" lon="12.257857671563528"><ele>820.5</ele><time>2026-04-18T15:20:53Z</time></trkpt><trkpt lat="43.77173613215381" lon="12.257794203021934"><ele>820.25</ele><time>2026-04-18T15:20:54Z</time></trkpt><trkpt lat="43.7716229871289" lon="12.257732338823162"><ele>820.0</ele><time>2026-04-18T15:20:55Z</time></trkpt><trkpt lat="43.771515763130346" lon="12.257689936572977"><ele>820.0</ele><time>2026-04-18T15:20:56Z</time></trkpt><trkpt lat="43.771405626015664" lon="12.257681807207918"><ele>820.0</ele><time>2026-04-18T15:20:57Z</time></trkpt><trkpt lat="43.77128886657076" lon="12.257667717200077"><ele>820.0</ele><time>2026-04-18T15:20:58Z</time></trkpt><trkpt lat="43.77117136181436" lon="12.257664698107146"><ele>820.0</ele><time>2026-04-18T15:20:59Z</time></trkpt><trkpt lat="43.77105414077458" lon="12.257628796756734"><ele>822.0</ele><time>2026-04-18T15:21:00Z</time></trkpt><trkpt lat="43.77093617926972" lon="12.257567336776768"><ele>824.0</ele><time>2026-04-18T15:21:01Z</time></trkpt><trkpt lat="43.77081733556077" lon="12.257480274034751"><ele>826.0</ele><time>2026-04-18T15:21:01.999Z</time></trkpt><trkpt lat="43.77069989107948" lon="12.257401049121885"><ele>828.0</ele><time>2026-04-18T15:21:02.999Z</time></trkpt><trkpt lat="43.77058690348011" lon="12.25733895336445"><ele>825.0</ele><time>2026-04-18T15:21:03.999Z</time></trkpt><trkpt lat="43.770498423241364" lon="12.257230663645482"><ele>822.0</ele><time>2026-04-18T15:21:04.999Z</time></trkpt><trkpt lat="43.770441017327606" lon="12.25708169844699"><ele>819.0</ele><time>2026-04-18T15:21:05.999Z</time></trkpt><trkpt lat="43.77037352791764" lon="12.256935002954384"><ele>816.0</ele><time>2026-04-18T15:21:06.999Z</time></trkpt><trkpt lat="43.770289921472454" lon="12.256797737019346"><ele>816.0</ele><time>2026-04-18T15:21:07.999Z</time></trkpt><trkpt lat="43.77023175154059" lon="12.256629221978004"><ele>816.0</ele><time>2026-04-18T15:21:08.999Z</time></trkpt><trkpt lat="43.77018891393279" lon="12.256445563164167"><ele>816.0</ele><time>2026-04-18T15:21:09.999Z</time></trkpt><trkpt lat="43.77016722638131" lon="12.256251268582211"><ele>816.0</ele><time>2026-04-18T15:21:10.999Z</time></trkpt><trkpt lat="43.770168657362696" lon="12.25605265090936"><ele>817.5</ele><time>2026-04-18T15:21:11.999Z</time></trkpt><trkpt lat="43.77015578382987" lon="12.255851746994376"><ele>819.0</ele><time>2026-04-18T15:21:12.999Z</time></trkpt><trkpt lat="43.77011717497487" lon="12.25567663635933"><ele>820.5</ele><time>2026-04-18T15:21:13.999Z</time></trkpt><trkpt lat="43.77006834027612" lon="12.25549577284366"><ele>822.0</ele><time>2026-04-18T15:21:14.999Z</time></trkpt><trkpt lat="43.77000131891289" lon="12.255317207697178"><ele>822.0</ele><time>2026-04-18T15:21:15.999Z</time></trkpt><trkpt lat="43.76992311671998" lon="12.255145952382893"><ele>822.0</ele><time>2026-04-18T15:21:16.999Z</time></trkpt><trkpt lat="43.76985772014421" lon="12.254971289882008"><ele>822.0</ele><time>2026-04-18T15:21:17.999Z</time></trkpt><trkpt lat="43.76977964946486" lon="12.254813946612705"><ele>822.0</ele><time>2026-04-18T15:21:18.999Z</time></trkpt><trkpt lat="43.76970083710108" lon="12.254670694018245"><ele>820.5</ele><time>2026-04-18T15:21:19.999Z</time></trkpt><trkpt lat="43.76962097022007" lon="12.25454322856579"><ele>819.0</ele><time>2026-04-18T15:21:20.999Z</time></trkpt><trkpt lat="43.76953596050502" lon="12.254428878318453"><ele>817.5</ele><time>2026-04-18T15:21:21.999Z</time></trkpt><trkpt lat="43.76943496371719" lon="12.254350139054814"><ele>816.0</ele><time>2026-04-18T15:21:22.999Z</time></trkpt><trkpt lat="43.76932419610605" lon="12.254288334671942"><ele>816.0</ele><time>2026-04-18T15:21:23.999Z</time></trkpt><trkpt lat="43.76919816088474" lon="12.254250932120415"><ele>816.0</ele><time>2026-04-18T15:21:24.999Z</time></trkpt><trkpt lat="43.76906117265549" lon="12.254230935188032"><ele>816.0</ele><time>2026-04-18T15:21:25.999Z</time></trkpt><trkpt lat="43.76891804271113" lon="12.254233182339636"><ele>816.0</ele><time>2026-04-18T15:21:26.999Z</time></trkpt><trkpt lat="43.768772531429" lon="12.254258128428521"><ele>816.0</ele><time>2026-04-18T15:21:27.999Z</time></trkpt><trkpt lat="43.76863209558019" lon="12.25430582256396"><ele>816.0</ele><time>2026-04-18T15:21:28.999Z</time></trkpt><trkpt lat="43.768495549816684" lon="12.25435365380565"><ele>816.0</ele><time>2026-04-18T15:21:29.999Z</time></trkpt><trkpt lat="43.768355889925026" lon="12.254344125580657"><ele>816.0</ele><time>2026-04-18T15:21:30.999Z</time></trkpt><trkpt lat="43.768215199540684" lon="12.254329975211295"><ele>815.5</ele><time>2026-04-18T15:21:31.999Z</time></trkpt><trkpt lat="43.76807044185506" lon="12.254332804537711"><ele>815.0</ele><time>2026-04-18T15:21:32.999Z</time></trkpt><trkpt lat="43.767928956681324" lon="12.254305472456815"><ele>814.5</ele><time>2026-04-18T15:21:33.999Z</time></trkpt><trkpt lat="43.76779105960269" lon="12.254281636671621"><ele>814.0</ele><time>2026-04-18T15:21:34.999Z</time></trkpt><trkpt lat="43.767657988025746" lon="12.25428266878927"><ele>813.6</ele><time>2026-04-18T15:21:35.999Z</time></trkpt><trkpt lat="43.76752985301535" lon="12.254309462442038"><ele>813.2</ele><time>2026-04-18T15:21:36.999Z</time></trkpt><trkpt lat="43.76741065161399" lon="12.254316743768916"><ele>812.8000000000001</ele><time>2026-04-18T15:21:37.999Z</time></trkpt><trkpt lat="43.76730489028008" lon="12.254340742725581"><ele>812.4000000000001</ele><time>2026-04-18T15:21:38.999Z</time></trkpt><trkpt lat="43.7672168755802" lon="12.25434822557137"><ele>812.0</ele><time>2026-04-18T15:21:39.999Z</time></trkpt><trkpt lat="43.76712734434154" lon="12.25435249765944"><ele>812.0</ele><time>2026-04-18T15:21:40.999Z</time></trkpt><trkpt lat="43.767066416890216" lon="12.254258483817202"><ele>812.0</ele><time>2026-04-18T15:21:41.999Z</time></trkpt><trkpt lat="43.76701961291543" lon="12.254169502019684"><ele>812.0</ele><time>2026-04-18T15:21:42.999Z</time></trkpt><trkpt lat="43.76700397856653" lon="12.254052606806884"><ele>812.0</ele><time>2026-04-18T15:21:43.999Z</time></trkpt><trkpt lat="43.76700325962482" lon="12.25390610277213"><ele>812.0</ele><time>2026-04-18T15:21:44.999Z</time></trkpt><trkpt lat="43.76699717451793" lon="12.25373167413112"><ele>809.75</ele><time>2026-04-18T15:21:45.999Z</time></trkpt><trkpt lat="43.76700969352991" lon="12.25354023566866"><ele>807.5</ele><time>2026-04-18T15:21:46.999Z</time></trkpt><trkpt lat="43.76700713060681" lon="12.253345593290929"><ele>805.25</ele><time>2026-04-18T15:21:47.999Z</time></trkpt><trkpt lat="43.76700024018685" lon="12.253144971905323"><ele>803.0</ele><time>2026-04-18T15:21:48.999Z</time></trkpt><trkpt lat="43.76696879907704" lon="12.25293921889442"><ele>802.0</ele><time>2026-04-18T15:21:49.999Z</time></trkpt><trkpt lat="43.76692662483564" lon="12.252737113912458"><ele>801.0</ele><time>2026-04-18T15:21:50.999Z</time></trkpt><trkpt lat="43.76688259444881" lon="12.25254557374227"><ele>800.0</ele><time>2026-04-18T15:21:51.999Z</time></trkpt><trkpt lat="43.76683801484006" lon="12.252354844131515"><ele>799.0</ele><time>2026-04-18T15:21:52.999Z</time></trkpt><trkpt lat="43.76681291350567" lon="12.25216110671482"><ele>801.0</ele><time>2026-04-18T15:21:53.999Z</time></trkpt><trkpt lat="43.766801497061714" lon="12.251965426457906"><ele>803.0</ele><time>2026-04-18T15:21:54.999Z</time></trkpt><trkpt lat="43.766791252476516" lon="12.251773750952442"><ele>805.0</ele><time>2026-04-18T15:21:55.999Z</time></trkpt><trkpt lat="43.76677826407427" lon="12.251597487113584"><ele>807.0</ele><time>2026-04-18T15:21:56.999Z</time></trkpt><trkpt lat="43.76676412688676" lon="12.25143570290295"><ele>807.0</ele><time>2026-04-18T15:21:57.999Z</time></trkpt><trkpt lat="43.76673451177461" lon="12.251285100942717"><ele>807.0</ele><time>2026-04-18T15:21:58.999Z</time></trkpt><trkpt lat="43.76669286550162" lon="12.251144645693909"><ele>807.0</ele><time>2026-04-18T15:21:59.999Z</time></trkpt><trkpt lat="43.766640376674744" lon="12.251008038889033"><ele>807.0</ele><time>2026-04-18T15:22:00.999Z</time></trkpt><trkpt lat="43.76657741793354" lon="12.250863510841132"><ele>807.0</ele><time>2026-04-18T15:22:01.999Z</time></trkpt><trkpt lat="43.76650959496275" lon="12.250714438133006"><ele>807.0</ele><time>2026-04-18T15:22:02.999Z</time></trkpt><trkpt lat="43.766437436900695" lon="12.250566161204933"><ele>807.0</ele><time>2026-04-18T15:22:03.999Z</time></trkpt><trkpt lat="43.766364032575325" lon="12.250415224010304"><ele>807.0</ele><time>2026-04-18T15:22:04.999Z</time></trkpt><trkpt lat="43.766284768862484" lon="12.25026828076676"><ele>806.75</ele><time>2026-04-18T15:22:05.999Z</time></trkpt><trkpt lat="43.76621684841674" lon="12.250121328150328"><ele>806.5</ele><time>2026-04-18T15:22:06.999Z</time></trkpt><trkpt lat="43.766165460025604" lon="12.249974697368213"><ele>806.25</ele><time>2026-04-18T15:22:07.999Z</time></trkpt><trkpt lat="43.766138349754726" lon="12.249822032560568"><ele>806.0</ele><time>2026-04-18T15:22:08.999Z</time></trkpt><trkpt lat="43.766146164130845" lon="12.249666918417217"><ele>806.5</ele><time>2026-04-18T15:22:09.999Z</time></trkpt><trkpt lat="43.76620786100314" lon="12.249525217022766"><ele>807.0</ele><time>2026-04-18T15:22:10.999Z</time></trkpt><trkpt lat="43.766291267078955" lon="12.249399127922128"><ele>807.5</ele><time>2026-04-18T15:22:11.999Z</time></trkpt><trkpt lat="43.76639773731905" lon="12.249284850792439"><ele>808.0</ele><time>2026-04-18T15:22:12.999Z</time></trkpt><trkpt lat="43.766509127883296" lon="12.249161931445965"><ele>808.0</ele><time>2026-04-18T15:22:13.999Z</time></trkpt><trkpt lat="43.76661700703747" lon="12.249017306456631"><ele>808.0</ele><time>2026-04-18T15:22:14.999Z</time></trkpt><trkpt lat="43.766742839097105" lon="12.248889545338578"><ele>808.0</ele><time>2026-04-18T15:22:15.999Z</time></trkpt><trkpt lat="43.766871861464594" lon="12.248757887277623"><ele>808.0</ele><time>2026-04-18T15:22:16.999Z</time></trkpt><trkpt lat="43.767008059630335" lon="12.24865190090062"><ele>808.0</ele><time>2026-04-18T15:22:17.999Z</time></trkpt><trkpt lat="43.76712347566228" lon="12.248542648490359"><ele>808.0</ele><time>2026-04-18T15:22:18.999Z</time></trkpt><trkpt lat="43.76722334823271" lon="12.248421339698773"><ele>808.0</ele><time>2026-04-18T15:22:19.999Z</time></trkpt><trkpt lat="43.76731324849429" lon="12.248303179521693"><ele>808.0</ele><time>2026-04-18T15:22:20.999Z</time></trkpt><trkpt lat="43.76738675804583" lon="12.248169275355684"><ele>808.0</ele><time>2026-04-18T15:22:21.999Z</time></trkpt><trkpt lat="43.767451700979365" lon="12.24800689064007"><ele>808.0</ele><time>2026-04-18T15:22:22.999Z</time></trkpt><trkpt lat="43.7675085390518" lon="12.247828565712469"><ele>808.0</ele><time>2026-04-18T15:22:23.998Z</time></trkpt><trkpt lat="43.767557390330985" lon="12.247633393116644"><ele>807.0</ele><time>2026-04-18T15:22:24.998Z</time></trkpt><trkpt lat="43.76760021224334" lon="12.247434625750977"><ele>806.0</ele><time>2026-04-18T15:22:25.998Z</time></trkpt><trkpt lat="43.76765865868228" lon="12.247253884189945"><ele>805.0</ele><time>2026-04-18T15:22:26.998Z</time></trkpt><trkpt lat="43.76770785524361" lon="12.247080688158656"><ele>804.0</ele><time>2026-04-18T15:22:27.998Z</time></trkpt><trkpt lat="43.76774682552591" lon="12.246903445356228"><ele>804.0</ele><time>2026-04-18T15:22:28.998Z</time></trkpt><trkpt lat="43.76780431015444" lon="12.246740417945517"><ele>804.0</ele><time>2026-04-18T15:22:30Z</time></trkpt><trkpt lat="43.76784934243816" lon="12.246578490160132"><ele>804.0</ele><time>2026-04-18T15:22:31Z</time></trkpt><trkpt lat="43.76788419994879" lon="12.246420857519523"><ele>804.0</ele><time>2026-04-18T15:22:32Z</time></trkpt><trkpt lat="43.76790416396305" lon="12.246255487141434"><ele>806.25</ele><time>2026-04-18T15:22:33Z</time></trkpt><trkpt lat="43.76789683651129" lon="12.24608958860106"><ele>808.5</ele><time>2026-04-18T15:22:34Z</time></trkpt><trkpt lat="43.76787551132339" lon="12.245913022827606"><ele>810.75</ele><time>2026-04-18T15:22:35Z</time></trkpt><trkpt lat="43.76784838737491" lon="12.245733644717784"><ele>813.0</ele><time>2026-04-18T15:22:36Z</time></trkpt><trkpt lat="43.76781926323316" lon="12.24554464189048"><ele>812.25</ele><time>2026-04-18T15:22:37Z</time></trkpt><trkpt lat="43.767791094302424" lon="12.245355607914945"><ele>811.5</ele><time>2026-04-18T15:22:38Z</time></trkpt><trkpt lat="43.767763718864316" lon="12.245159563293255"><ele>810.75</ele><time>2026-04-18T15:22:39Z</time></trkpt><trkpt lat="43.76774099249711" lon="12.244963491198853"><ele>810.0</ele><time>2026-04-18T15:22:40Z</time></trkpt><trkpt lat="43.767718784629686" lon="12.244766754157297"><ele>810.0</ele><time>2026-04-18T15:22:41Z</time></trkpt><trkpt lat="43.767699586555324" lon="12.244573624327195"><ele>810.0</ele><time>2026-04-18T15:22:42Z</time></trkpt><trkpt lat="43.767679613626385" lon="12.24439443754652"><ele>810.0</ele><time>2026-04-18T15:22:43Z</time></trkpt><trkpt lat="43.7676460074318" lon="12.244224773561328"><ele>810.0</ele><time>2026-04-18T15:22:44Z</time></trkpt><trkpt lat="43.7675994281605" lon="12.244066806006424"><ele>810.0</ele><time>2026-04-18T15:22:45Z</time></trkpt><trkpt lat="43.76753720363207" lon="12.243924816952562"><ele>810.0</ele><time>2026-04-18T15:22:46Z</time></trkpt><trkpt lat="43.76744820768532" lon="12.243806810815553"><ele>810.0</ele><time>2026-04-18T15:22:47Z</time></trkpt><trkpt lat="43.76734289647149" lon="12.243699192209808"><ele>810.0</ele><time>2026-04-18T15:22:48Z</time></trkpt><trkpt lat="43.76722622864692" lon="12.243590785328372"><ele>810.0</ele><time>2026-04-18T15:22:49Z</time></trkpt><trkpt lat="43.767105388668305" lon="12.243479699029816"><ele>810.0</ele><time>2026-04-18T15:22:50Z</time></trkpt><trkpt lat="43.76697968683416" lon="12.243364826761686"><ele>810.0</ele><time>2026-04-18T15:22:51Z</time></trkpt><trkpt lat="43.76685333179057" lon="12.243238594357544"><ele>809.6666666666667</ele><time>2026-04-18T15:22:52Z</time></trkpt><trkpt lat="43.766720914896545" lon="12.243117405320048"><ele>809.3333333333334</ele><time>2026-04-18T15:22:53Z</time></trkpt><trkpt lat="43.76658325003519" lon="12.242996903870505"><ele>809.0</ele><time>2026-04-18T15:22:54Z</time></trkpt><trkpt lat="43.7664600625018" lon="12.242880145051165"><ele>809.0</ele><time>2026-04-18T15:22:55Z</time></trkpt><trkpt lat="43.766345133590676" lon="12.242766947211756"><ele>809.0</ele><time>2026-04-18T15:22:56Z</time></trkpt><trkpt lat="43.766239610785355" lon="12.242653193861774"><ele>809.0</ele><time>2026-04-18T15:22:57Z</time></trkpt><trkpt lat="43.76615964721265" lon="12.242504857454755"><ele>809.0</ele><time>2026-04-18T15:22:58Z</time></trkpt><trkpt lat="43.76608701617133" lon="12.242352943053792"><ele>808.0</ele><time>2026-04-18T15:22:59Z</time></trkpt><trkpt lat="43.76602850772974" lon="12.242183516469153"><ele>807.0</ele><time>2026-04-18T15:23:00Z</time></trkpt><trkpt lat="43.765999001676406" lon="12.24198970247239"><ele>806.0</ele><time>2026-04-18T15:23:01Z</time></trkpt><trkpt lat="43.76597849822035" lon="12.241777338582315"><ele>805.0</ele><time>2026-04-18T15:23:02Z</time></trkpt><trkpt lat="43.765961001736066" lon="12.241554556459398"><ele>808.75</ele><time>2026-04-18T15:23:03Z</time></trkpt><trkpt lat="43.765947482128084" lon="12.241343009462113"><ele>812.5</ele><time>2026-04-18T15:23:04Z</time></trkpt><trkpt lat="43.765916077164455" lon="12.241151298512884"><ele>816.25</ele><time>2026-04-18T15:23:05Z</time></trkpt><trkpt lat="43.765896742632485" lon="12.240971455029484"><ele>820.0</ele><time>2026-04-18T15:23:06Z</time></trkpt><trkpt lat="43.76586536178312" lon="12.24080444473406"><ele>820.0</ele><time>2026-04-18T15:23:07Z</time></trkpt><trkpt lat="43.765813261333115" lon="12.240650711419457"><ele>820.0</ele><time>2026-04-18T15:23:08Z</time></trkpt><trkpt lat="43.76573740041362" lon="12.240510962763551"><ele>820.0</ele><time>2026-04-18T15:23:09Z</time></trkpt><trkpt lat="43.76566799205198" lon="12.240367868624592"><ele>820.0</ele><time>2026-04-18T15:23:10Z</time></trkpt><trkpt lat="43.76559342767111" lon="12.24025083128045"><ele>818.2</ele><time>2026-04-18T15:23:10.999Z</time></trkpt><trkpt lat="43.76553129598256" lon="12.240135928695377"><ele>816.4</ele><time>2026-04-18T15:23:11.999Z</time></trkpt><trkpt lat="43.76548003066043" lon="12.240007258522999"><ele>814.5999999999999</ele><time>2026-04-18T15:23:12.999Z</time></trkpt><trkpt lat="43.76552024662692" lon="12.23984793631664"><ele>812.8</ele><time>2026-04-18T15:23:13.999Z</time></trkpt><trkpt lat="43.765535350188294" lon="12.239687185612112"><ele>811.0</ele><time>2026-04-18T15:23:14.999Z</time></trkpt><trkpt lat="43.76553354672571" lon="12.239535317702162"><ele>809.4</ele><time>2026-04-18T15:23:15.999Z</time></trkpt><trkpt lat="43.765523398203676" lon="12.239395857247683"><ele>807.8</ele><time>2026-04-18T15:23:16.999Z</time></trkpt><trkpt lat="43.76547815236657" lon="12.239278904073565"><ele>806.1999999999999</ele><time>2026-04-18T15:23:17.999Z</time></trkpt><trkpt lat="43.76541489247642" lon="12.239154442248745"><ele>804.5999999999999</ele><time>2026-04-18T15:23:18.999Z</time></trkpt><trkpt lat="43.76532446768192" lon="12.239079034449157"><ele>803.0</ele><time>2026-04-18T15:23:19.999Z</time></trkpt><trkpt lat="43.76521460417657" lon="12.239033030146174"><ele>806.0</ele><time>2026-04-18T15:23:20.999Z</time></trkpt><trkpt lat="43.76509255357805" lon="12.239014840803813"><ele>809.0</ele><time>2026-04-18T15:23:21.999Z</time></trkpt><trkpt lat="43.76498063502496" lon="12.23896333136816"><ele>812.0</ele><time>2026-04-18T15:23:22.999Z</time></trkpt><trkpt lat="43.76487830068792" lon="12.238922874786972"><ele>815.0</ele><time>2026-04-18T15:23:23.999Z</time></trkpt><trkpt lat="43.764777790618815" lon="12.238873333871743"><ele>815.0</ele><time>2026-04-18T15:23:24.999Z</time></trkpt><trkpt lat="43.764684306298456" lon="12.23877377154407"><ele>815.0</ele><time>2026-04-18T15:23:25.999Z</time></trkpt><trkpt lat="43.764631552820596" lon="12.238611448498009"><ele>815.0</ele><time>2026-04-18T15:23:26.999Z</time></trkpt><trkpt lat="43.764599458296914" lon="12.238439505675732"><ele>815.0</ele><time>2026-04-18T15:23:27.999Z</time></trkpt><trkpt lat="43.76457147488018" lon="12.23825533688974"><ele>813.25</ele><time>2026-04-18T15:23:28.999Z</time></trkpt><trkpt lat="43.76452466900219" lon="12.238080376941802"><ele>811.5</ele><time>2026-04-18T15:23:29.999Z</time></trkpt><trkpt lat="43.76449462910194" lon="12.237913943437196"><ele>809.75</ele><time>2026-04-18T15:23:30.999Z</time></trkpt><trkpt lat="43.76443293936987" lon="12.237770808088268"><ele>808.0</ele><time>2026-04-18T15:23:31.999Z</time></trkpt><trkpt lat="43.764345001291225" lon="12.237633252527308"><ele>810.25</ele><time>2026-04-18T15:23:32.999Z</time></trkpt><trkpt lat="43.76426213055215" lon="12.23748122483131"><ele>812.5</ele><time>2026-04-18T15:23:33.999Z</time></trkpt><trkpt lat="43.764166717690344" lon="12.237339543082534"><ele>814.75</ele><time>2026-04-18T15:23:34.999Z</time></trkpt><trkpt lat="43.76407141425596" lon="12.237197960094457"><ele>817.0</ele><time>2026-04-18T15:23:35.999Z</time></trkpt><trkpt lat="43.76397455481877" lon="12.237074993743311"><ele>817.0</ele><time>2026-04-18T15:23:36.999Z</time></trkpt><trkpt lat="43.763897235498014" lon="12.23695890300951"><ele>817.0</ele><time>2026-04-18T15:23:37.999Z</time></trkpt><trkpt lat="43.763838980916674" lon="12.236854762514259"><ele>817.0</ele><time>2026-04-18T15:23:38.999Z</time></trkpt><trkpt lat="43.76377787102136" lon="12.23677605516343"><ele>817.0</ele><time>2026-04-18T15:23:39.999Z</time></trkpt><trkpt lat="43.763734976934785" lon="12.236709620913372"><ele>817.0</ele><time>2026-04-18T15:23:40.999Z</time></trkpt><trkpt lat="43.76376458039723" lon="12.236567989725595"><ele>817.0</ele><time>2026-04-18T15:23:42.999Z</time></trkpt><trkpt lat="43.76381743014089" lon="12.236472573631934"><ele>817.0</ele><time>2026-04-18T15:23:43.999Z</time></trkpt><trkpt lat="43.76386567812023" lon="12.236354710186646"><ele>817.0</ele><time>2026-04-18T15:23:44.999Z</time></trkpt><trkpt lat="43.763931712012514" lon="12.236239767965163"><ele>817.0</ele><time>2026-04-18T15:23:45.999Z</time></trkpt><trkpt lat="43.76399791341322" lon="12.236127794061861"><ele>817.0</ele><time>2026-04-18T15:23:46.999Z</time></trkpt><trkpt lat="43.76406114736349" lon="12.236025548769481"><ele>816.1666666666666</ele><time>2026-04-18T15:23:47.999Z</time></trkpt><trkpt lat="43.76411502464246" lon="12.235936230539957"><ele>815.3333333333333</ele><time>2026-04-18T15:23:48.999Z</time></trkpt><trkpt lat="43.764175134073504" lon="12.23587796646748"><ele>814.5</ele><time>2026-04-18T15:23:49.999Z</time></trkpt><trkpt lat="43.764230605190576" lon="12.235835337429492"><ele>813.6666666666667</ele><time>2026-04-18T15:23:50.999Z</time></trkpt><trkpt lat="43.76425068530986" lon="12.235702239971012"><ele>812.8333333333334</ele><time>2026-04-18T15:23:51.999Z</time></trkpt><trkpt lat="43.76431016154643" lon="12.235611271201165"><ele>812.0</ele><time>2026-04-18T15:23:52.999Z</time></trkpt><trkpt lat="43.76436497388269" lon="12.235484925269564"><ele>809.75</ele><time>2026-04-18T15:23:53.999Z</time></trkpt><trkpt lat="43.76440664188163" lon="12.235336438915144"><ele>807.5</ele><time>2026-04-18T15:23:54.999Z</time></trkpt><trkpt lat="43.7644467056981" lon="12.2351905186148"><ele>805.25</ele><time>2026-04-18T15:23:55.999Z</time></trkpt><trkpt lat="43.764492539855574" lon="12.235045655661242"><ele>803.0</ele><time>2026-04-18T15:23:56.999Z</time></trkpt><trkpt lat="43.764549851484055" lon="12.234913013407747"><ele>801.4</ele><time>2026-04-18T15:23:57.999Z</time></trkpt><trkpt lat="43.7646064507335" lon="12.234781950553089"><ele>799.8</ele><time>2026-04-18T15:23:58.999Z</time></trkpt><trkpt lat="43.764644916308946" lon="12.234644495613727"><ele>798.2</ele><time>2026-04-18T15:23:59.999Z</time></trkpt><trkpt lat="43.764713565010275" lon="12.234543709584575"><ele>796.6</ele><time>2026-04-18T15:24:00.999Z</time></trkpt><trkpt lat="43.764773947094994" lon="12.234435919620982"><ele>795.0</ele><time>2026-04-18T15:24:01.999Z</time></trkpt><trkpt lat="43.76483146987723" lon="12.234343524730553"><ele>795.0</ele><time>2026-04-18T15:24:02.999Z</time></trkpt><trkpt lat="43.76487110428025" lon="12.234245240497513"><ele>795.0</ele><time>2026-04-18T15:24:03.999Z</time></trkpt><trkpt lat="43.76491276092686" lon="12.234179698539386"><ele>795.0</ele><time>2026-04-18T15:24:04.999Z</time></trkpt><trkpt lat="43.764927972805374" lon="12.234087012739618"><ele>795.0</ele><time>2026-04-18T15:24:05.999Z</time></trkpt><trkpt lat="43.76490337088297" lon="12.23398406573748"><ele>795.0</ele><time>2026-04-18T15:24:06.999Z</time></trkpt><trkpt lat="43.764858360645285" lon="12.233887612008354"><ele>795.0</ele><time>2026-04-18T15:24:07.999Z</time></trkpt><trkpt lat="43.76480550545675" lon="12.233792734301565"><ele>792.6</ele><time>2026-04-18T15:24:08.999Z</time></trkpt><trkpt lat="43.764736867783284" lon="12.233707732806678"><ele>790.2</ele><time>2026-04-18T15:24:09.999Z</time></trkpt><trkpt lat="43.76468291472334" lon="12.233603031898433"><ele>787.8</ele><time>2026-04-18T15:24:10.999Z</time></trkpt><trkpt lat="43.76462112712529" lon="12.233499739090815"><ele>785.4</ele><time>2026-04-18T15:24:11.999Z</time></trkpt><trkpt lat="43.764557753683924" lon="12.233400040751896"><ele>783.0</ele><time>2026-04-18T15:24:12.999Z</time></trkpt><trkpt lat="43.76449838759659" lon="12.23330171876496"><ele>783.0</ele><time>2026-04-18T15:24:13.999Z</time></trkpt><trkpt lat="43.76444466350374" lon="12.233217998180779"><ele>783.0</ele><time>2026-04-18T15:24:14.999Z</time></trkpt><trkpt lat="43.76440494134931" lon="12.233139135668877"><ele>783.0</ele><time>2026-04-18T15:24:15.999Z</time></trkpt><trkpt lat="43.76439278342274" lon="12.233051542187853"><ele>783.0</ele><time>2026-04-18T15:24:16.999Z</time></trkpt><trkpt lat="43.76446161586733" lon="12.23296548542517"><ele>783.0</ele><time>2026-04-18T15:24:17.999Z</time></trkpt><trkpt lat="43.764492641389495" lon="12.23284269628655"><ele>783.0</ele><time>2026-04-18T15:24:18.999Z</time></trkpt><trkpt lat="43.764500807383875" lon="12.232711790421313"><ele>781.0</ele><time>2026-04-18T15:24:19.999Z</time></trkpt><trkpt lat="43.76454062941729" lon="12.232589367221037"><ele>779.0</ele><time>2026-04-18T15:24:20.999Z</time></trkpt><trkpt lat="43.7645803793796" lon="12.232476788532889"><ele>777.0</ele><time>2026-04-18T15:24:21.999Z</time></trkpt><trkpt lat="43.76463427284092" lon="12.232372246107722"><ele>775.0</ele><time>2026-04-18T15:24:22.999Z</time></trkpt><trkpt lat="43.76467213027409" lon="12.232256581225895"><ele>773.0</ele><time>2026-04-18T15:24:23.999Z</time></trkpt><trkpt lat="43.76472814563232" lon="12.232156426961067"><ele>771.8</ele><time>2026-04-18T15:24:24.999Z</time></trkpt><trkpt lat="43.76477425414013" lon="12.232038689222113"><ele>770.5999999999999</ele><time>2026-04-18T15:24:25.999Z</time></trkpt><trkpt lat="43.7648259193947" lon="12.231909769679591"><ele>769.4000000000001</ele><time>2026-04-18T15:24:26.999Z</time></trkpt><trkpt lat="43.76489136188502" lon="12.231777230555428"><ele>768.2</ele><time>2026-04-18T15:24:27.999Z</time></trkpt><trkpt lat="43.764953095021106" lon="12.231643160573572"><ele>767.0</ele><time>2026-04-18T15:24:28.999Z</time></trkpt><trkpt lat="43.765014131141584" lon="12.231501501564281"><ele>766.2</ele><time>2026-04-18T15:24:29.999Z</time></trkpt><trkpt lat="43.765084416827236" lon="12.231373679014157"><ele>765.4000000000001</ele><time>2026-04-18T15:24:30.999Z</time></trkpt><trkpt lat="43.765138594845695" lon="12.231247018919888"><ele>764.5999999999999</ele><time>2026-04-18T15:24:31.999Z</time></trkpt><trkpt lat="43.76520220907479" lon="12.231150485846003"><ele>763.8</ele><time>2026-04-18T15:24:32.999Z</time></trkpt><trkpt lat="43.7652356204293" lon="12.231039952258831"><ele>763.0</ele><time>2026-04-18T15:24:33.999Z</time></trkpt><trkpt lat="43.765275529470834" lon="12.230950793153156"><ele>762.8333333333334</ele><time>2026-04-18T15:24:34.999Z</time></trkpt><trkpt lat="43.76529613088981" lon="12.230865780910463"><ele>762.6666666666667</ele><time>2026-04-18T15:24:36Z</time></trkpt><trkpt lat="43.76529320176243" lon="12.230766285279847"><ele>762.5</ele><time>2026-04-18T15:24:37Z</time></trkpt><trkpt lat="43.76528900475048" lon="12.230648285396784"><ele>762.3333333333334</ele><time>2026-04-18T15:24:38Z</time></trkpt><trkpt lat="43.765257848382205" lon="12.230526964078605"><ele>762.1666666666666</ele><time>2026-04-18T15:24:39Z</time></trkpt><trkpt lat="43.765229360969656" lon="12.230408609383465"><ele>762.0</ele><time>2026-04-18T15:24:40Z</time></trkpt><trkpt lat="43.76521561719448" lon="12.230284565113138"><ele>761.6</ele><time>2026-04-18T15:24:41Z</time></trkpt><trkpt lat="43.765222707082984" lon="12.230140864499129"><ele>761.2</ele><time>2026-04-18T15:24:42Z</time></trkpt><trkpt lat="43.76524252596446" lon="12.229978418906521"><ele>760.8</ele><time>2026-04-18T15:24:43Z</time></trkpt><trkpt lat="43.76525712095161" lon="12.229820497905346"><ele>760.4</ele><time>2026-04-18T15:24:44Z</time></trkpt><trkpt lat="43.765256490287754" lon="12.229670864340509"><ele>760.0</ele><time>2026-04-18T15:24:45Z</time></trkpt><trkpt lat="43.765265967837" lon="12.229520138493786"><ele>758.0</ele><time>2026-04-18T15:24:46Z</time></trkpt><trkpt lat="43.76528435593927" lon="12.229371061593456"><ele>756.0</ele><time>2026-04-18T15:24:47Z</time></trkpt><trkpt lat="43.76529150261121" lon="12.229225745832503"><ele>754.0</ele><time>2026-04-18T15:24:48Z</time></trkpt><trkpt lat="43.765296234735146" lon="12.229078889646347"><ele>752.0</ele><time>2026-04-18T15:24:49Z</time></trkpt><trkpt lat="43.76529694855239" lon="12.228944590490775"><ele>750.0</ele><time>2026-04-18T15:24:50Z</time></trkpt><trkpt lat="43.76529291551391" lon="12.228821702206115"><ele>748.4</ele><time>2026-04-18T15:24:51Z</time></trkpt><trkpt lat="43.76528547485967" lon="12.228694895657442"><ele>746.8</ele><time>2026-04-18T15:24:52Z</time></trkpt><trkpt lat="43.765275080988204" lon="12.228552562320301"><ele>745.2</ele><time>2026-04-18T15:24:53Z</time></trkpt><trkpt lat="43.76526144334543" lon="12.228403124554069"><ele>743.6</ele><time>2026-04-18T15:24:54Z</time></trkpt><trkpt lat="43.765245938766945" lon="12.228251820739965"><ele>742.0</ele><time>2026-04-18T15:24:55Z</time></trkpt><trkpt lat="43.76521330366303" lon="12.228104768603894"><ele>740.6</ele><time>2026-04-18T15:24:56Z</time></trkpt><trkpt lat="43.76521297453214" lon="12.227945540520322"><ele>739.2</ele><time>2026-04-18T15:24:57Z</time></trkpt><trkpt lat="43.76519110725572" lon="12.227791804625568"><ele>737.8</ele><time>2026-04-18T15:24:58Z</time></trkpt><trkpt lat="43.76516386388277" lon="12.227643018203942"><ele>736.4</ele><time>2026-04-18T15:24:59Z</time></trkpt><trkpt lat="43.76513151066645" lon="12.227501588279688"><ele>735.0</ele><time>2026-04-18T15:25:00Z</time></trkpt><trkpt lat="43.765079152326386" lon="12.227379453132047"><ele>733.8</ele><time>2026-04-18T15:25:01Z</time></trkpt><trkpt lat="43.765053950577645" lon="12.227240980910953"><ele>732.6</ele><time>2026-04-18T15:25:02Z</time></trkpt><trkpt lat="43.76501650906481" lon="12.227106450388066"><ele>731.4000000000001</ele><time>2026-04-18T15:25:03Z</time></trkpt><trkpt lat="43.76498557682134" lon="12.226963714401673"><ele>730.2</ele><time>2026-04-18T15:25:04Z</time></trkpt><trkpt lat="43.76495725429777" lon="12.226812687359068"><ele>729.0</ele><time>2026-04-18T15:25:05Z</time></trkpt><trkpt lat="43.76492882248414" lon="12.226662252986232"><ele>729.0</ele><time>2026-04-18T15:25:06Z</time></trkpt><trkpt lat="43.76490105123903" lon="12.226535443925558"><ele>729.0</ele><time>2026-04-18T15:25:07Z</time></trkpt><trkpt lat="43.76487557401319" lon="12.226412628266075"><ele>729.0</ele><time>2026-04-18T15:25:08Z</time></trkpt><trkpt lat="43.764852421962125" lon="12.226304837989542"><ele>729.0</ele><time>2026-04-18T15:25:09Z</time></trkpt><trkpt lat="43.76483865122156" lon="12.2262055350038"><ele>729.0</ele><time>2026-04-18T15:25:10Z</time></trkpt><trkpt lat="43.76481165582556" lon="12.226122245289512"><ele>729.0</ele><time>2026-04-18T15:25:11Z</time></trkpt><trkpt lat="43.7647622598056" lon="12.226048672858097"><ele>728.1666666666666</ele><time>2026-04-18T15:25:12Z</time></trkpt><trkpt lat="43.764697537188205" lon="12.225999824626701"><ele>727.3333333333334</ele><time>2026-04-18T15:25:13Z</time></trkpt><trkpt lat="43.76462146166469" lon="12.225969415675483"><ele>726.5</ele><time>2026-04-18T15:25:14Z</time></trkpt><trkpt lat="43.76455214168015" lon="12.225916859396708"><ele>725.6666666666667</ele><time>2026-04-18T15:25:15Z</time></trkpt><trkpt lat="43.764481601826105" lon="12.22588062546748"><ele>724.8333333333334</ele><time>2026-04-18T15:25:16Z</time></trkpt><trkpt lat="43.764411690816814" lon="12.225853914839641"><ele>724.0</ele><time>2026-04-18T15:25:17Z</time></trkpt><trkpt lat="43.76434319813695" lon="12.225793333693549"><ele>722.8571428571429</ele><time>2026-04-18T15:25:18Z</time></trkpt><trkpt lat="43.764279579790426" lon="12.225715405956537"><ele>721.7142857142857</ele><time>2026-04-18T15:25:19Z</time></trkpt><trkpt lat="43.76424464684397" lon="12.225606945973329"><ele>720.5714285714287</ele><time>2026-04-18T15:25:20Z</time></trkpt><trkpt lat="43.76418674246232" lon="12.225536212785112"><ele>719.4285714285714</ele><time>2026-04-18T15:25:21Z</time></trkpt><trkpt lat="43.76415269182406" lon="12.225461511280885"><ele>718.2857142857143</ele><time>2026-04-18T15:25:22Z</time></trkpt><trkpt lat="43.76410907716885" lon="12.225398353379337"><ele>717.1428571428572</ele><time>2026-04-18T15:25:23Z</time></trkpt><trkpt lat="43.76406141675589" lon="12.22533466828401"><ele>716.0</ele><time>2026-04-18T15:25:24Z</time></trkpt><trkpt lat="43.7639827369021" lon="12.22532672935401"><ele>714.8333333333333</ele><time>2026-04-18T15:25:25Z</time></trkpt><trkpt lat="43.76391545149362" lon="12.22530877681635"><ele>713.6666666666666</ele><time>2026-04-18T15:25:26Z</time></trkpt><trkpt lat="43.763852977244646" lon="12.225289086241318"><ele>712.5</ele><time>2026-04-18T15:25:27Z</time></trkpt><trkpt lat="43.76378916370719" lon="12.225290313518993"><ele>711.3333333333334</ele><time>2026-04-18T15:25:28Z</time></trkpt><trkpt lat="43.76372801387914" lon="12.225313349302422"><ele>710.1666666666667</ele><time>2026-04-18T15:25:29Z</time></trkpt><trkpt lat="43.763611562892315" lon="12.225304664609945"><ele>709.0</ele><time>2026-04-18T15:25:31Z</time></trkpt><trkpt lat="43.763541656903136" lon="12.225264984330504"><ele>706.5</ele><time>2026-04-18T15:25:32Z</time></trkpt><trkpt lat="43.763466715717996" lon="12.225218205400132"><ele>704.0</ele><time>2026-04-18T15:25:33Z</time></trkpt><trkpt lat="43.76339438171372" lon="12.225165682495723"><ele>701.5</ele><time>2026-04-18T15:25:34Z</time></trkpt><trkpt lat="43.763329279159365" lon="12.225104753641121"><ele>699.0</ele><time>2026-04-18T15:25:35Z</time></trkpt><trkpt lat="43.76326819627889" lon="12.225031207973625"><ele>696.5</ele><time>2026-04-18T15:25:36Z</time></trkpt><trkpt lat="43.763200848288854" lon="12.224947467050281"><ele>694.0</ele><time>2026-04-18T15:25:37Z</time></trkpt><trkpt lat="43.76313264346669" lon="12.224859310417946"><ele>691.4000000000001</ele><time>2026-04-18T15:25:38Z</time></trkpt><trkpt lat="43.76306486792351" lon="12.224762072792467"><ele>688.8</ele><time>2026-04-18T15:25:39Z</time></trkpt><trkpt lat="43.762999635115804" lon="12.224648792509313"><ele>686.2</ele><time>2026-04-18T15:25:40Z</time></trkpt><trkpt lat="43.76293334152132" lon="12.224525361953692"><ele>683.5999999999999</ele><time>2026-04-18T15:25:41Z</time></trkpt><trkpt lat="43.76286841977634" lon="12.224404485551224"><ele>681.0</ele><time>2026-04-18T15:25:42Z</time></trkpt><trkpt lat="43.76280304257555" lon="12.224282761253958"><ele>681.0</ele><time>2026-04-18T15:25:43Z</time></trkpt><trkpt lat="43.76274107622066" lon="12.224167387077575"><ele>681.0</ele><time>2026-04-18T15:25:44Z</time></trkpt><trkpt lat="43.762686532702" lon="12.224065094064878"><ele>681.0</ele><time>2026-04-18T15:25:45Z</time></trkpt><trkpt lat="43.7626302053191" lon="12.223969197303724"><ele>681.0</ele><time>2026-04-18T15:25:46Z</time></trkpt><trkpt lat="43.76255230161905" lon="12.223909152781799"><ele>681.0</ele><time>2026-04-18T15:25:47Z</time></trkpt><trkpt lat="43.76248668128948" lon="12.223848098557166"><ele>677.8333333333334</ele><time>2026-04-18T15:25:48Z</time></trkpt><trkpt lat="43.76243105098714" lon="12.223770740000292"><ele>674.6666666666666</ele><time>2026-04-18T15:25:49Z</time></trkpt><trkpt lat="43.762368659899366" lon="12.223700254173622"><ele>671.5</ele><time>2026-04-18T15:25:50Z</time></trkpt><trkpt lat="43.76230906170923" lon="12.223631840974447"><ele>668.3333333333333</ele><time>2026-04-18T15:25:51Z</time></trkpt><trkpt lat="43.762242372900964" lon="12.223575792251134"><ele>665.1666666666666</ele><time>2026-04-18T15:25:52Z</time></trkpt><trkpt lat="43.76218791946035" lon="12.223501200549398"><ele>662.0</ele><time>2026-04-18T15:25:53Z</time></trkpt><trkpt lat="43.76214363630985" lon="12.223415200739739"><ele>662.0</ele><time>2026-04-18T15:25:54Z</time></trkpt><trkpt lat="43.76211068359642" lon="12.223316871062368"><ele>662.0</ele><time>2026-04-18T15:25:55Z</time></trkpt><trkpt lat="43.76209264983258" lon="12.223206784445063"><ele>662.0</ele><time>2026-04-18T15:25:56Z</time></trkpt><trkpt lat="43.76211784878216" lon="12.223101446294367"><ele>662.0</ele><time>2026-04-18T15:25:57Z</time></trkpt><trkpt lat="43.76211784878482" lon="12.223000989297859"><ele>662.0</ele><time>2026-04-18T15:25:58Z</time></trkpt><trkpt lat="43.762103245325044" lon="12.222905429842827"><ele>662.0</ele><time>2026-04-18T15:25:59Z</time></trkpt><trkpt lat="43.76199646724866" lon="12.222845545772257"><ele>660.3333333333333</ele><time>2026-04-18T15:26:00Z</time></trkpt><trkpt lat="43.761936806529704" lon="12.222772300639695"><ele>658.6666666666666</ele><time>2026-04-18T15:26:00.999Z</time></trkpt><trkpt lat="43.76189717238328" lon="12.222677944843248"><ele>657.0</ele><time>2026-04-18T15:26:01.999Z</time></trkpt><trkpt lat="43.761854809524706" lon="12.22260259621768"><ele>655.3333333333334</ele><time>2026-04-18T15:26:02.999Z</time></trkpt><trkpt lat="43.76177049340515" lon="12.222462283217489"><ele>653.6666666666667</ele><time>2026-04-18T15:26:04.999Z</time></trkpt><trkpt lat="43.761735828401235" lon="12.222380972021963"><ele>652.0</ele><time>2026-04-18T15:26:05.999Z</time></trkpt><trkpt lat="43.7616965186928" lon="12.222310923567402"><ele>649.5714285714286</ele><time>2026-04-18T15:26:06.999Z</time></trkpt><trkpt lat="43.76165100054105" lon="12.222249321781407"><ele>647.1428571428571</ele><time>2026-04-18T15:26:07.999Z</time></trkpt><trkpt lat="43.761607414418" lon="12.222179468505926"><ele>644.7142857142857</ele><time>2026-04-18T15:26:08.999Z</time></trkpt><trkpt lat="43.761533963702085" lon="12.222175702873173"><ele>642.2857142857142</ele><time>2026-04-18T15:26:09.999Z</time></trkpt><trkpt lat="43.761459296957966" lon="12.222165165749168"><ele>639.8571428571429</ele><time>2026-04-18T15:26:10.999Z</time></trkpt><trkpt lat="43.76138264510197" lon="12.222154336739441"><ele>637.4285714285713</ele><time>2026-04-18T15:26:11.999Z</time></trkpt><trkpt lat="43.76130141209654" lon="12.222141585527545"><ele>635.0</ele><time>2026-04-18T15:26:12.999Z</time></trkpt><trkpt lat="43.761236089184735" lon="12.222089946282535"><ele>635.0</ele><time>2026-04-18T15:26:13.999Z</time></trkpt><trkpt lat="43.76117588308092" lon="12.222045298095813"><ele>635.0</ele><time>2026-04-18T15:26:14.999Z</time></trkpt><trkpt lat="43.76113310040589" lon="12.221964466399287"><ele>635.0</ele><time>2026-04-18T15:26:15.999Z</time></trkpt><trkpt lat="43.76110239158516" lon="12.221863124332334"><ele>635.0</ele><time>2026-04-18T15:26:16.999Z</time></trkpt><trkpt lat="43.761095538885606" lon="12.221739593413284"><ele>635.0</ele><time>2026-04-18T15:26:17.999Z</time></trkpt><trkpt lat="43.761100573620894" lon="12.221593446376616"><ele>635.0</ele><time>2026-04-18T15:26:18.999Z</time></trkpt><trkpt lat="43.761112359691595" lon="12.221427251318337"><ele>631.5</ele><time>2026-04-18T15:26:19.999Z</time></trkpt><trkpt lat="43.761126454571894" lon="12.221252274160058"><ele>628.0</ele><time>2026-04-18T15:26:20.999Z</time></trkpt><trkpt lat="43.76114033572073" lon="12.221079950253667"><ele>624.5</ele><time>2026-04-18T15:26:21.999Z</time></trkpt><trkpt lat="43.76115042257439" lon="12.220917757611808"><ele>621.0</ele><time>2026-04-18T15:26:22.999Z</time></trkpt><trkpt lat="43.76114893896761" lon="12.220764284214416"><ele>619.6666666666666</ele><time>2026-04-18T15:26:23.999Z</time></trkpt><trkpt lat="43.761135572313094" lon="12.22061879362461"><ele>618.3333333333334</ele><time>2026-04-18T15:26:24.999Z</time></trkpt><trkpt lat="43.76112875678217" lon="12.220492420781989"><ele>617.0</ele><time>2026-04-18T15:26:25.999Z</time></trkpt><trkpt lat="43.76111929637291" lon="12.220378020730548"><ele>615.6666666666667</ele><time>2026-04-18T15:26:26.999Z</time></trkpt><trkpt lat="43.76118519406422" lon="12.220299997562622"><ele>614.3333333333334</ele><time>2026-04-18T15:26:27.999Z</time></trkpt><trkpt lat="43.76121233740115" lon="12.220210685735346"><ele>613.0</ele><time>2026-04-18T15:26:28.999Z</time></trkpt><trkpt lat="43.76122598799704" lon="12.220114578257428"><ele>613.0</ele><time>2026-04-18T15:26:29.999Z</time></trkpt><trkpt lat="43.76123130585482" lon="12.22001839745406"><ele>613.0</ele><time>2026-04-18T15:26:30.999Z</time></trkpt><trkpt lat="43.761225008399094" lon="12.219926582318763"><ele>613.0</ele><time>2026-04-18T15:26:31.999Z</time></trkpt><trkpt lat="43.76123462692742" lon="12.219839881718487"><ele>613.0</ele><time>2026-04-18T15:26:32.999Z</time></trkpt><trkpt lat="43.761285263127014" lon="12.219759225104447"><ele>613.0</ele><time>2026-04-18T15:26:33.999Z</time></trkpt><trkpt lat="43.76129478329177" lon="12.21964977840844"><ele>613.0</ele><time>2026-04-18T15:26:34.999Z</time></trkpt><trkpt lat="43.76131803557124" lon="12.219547669922427"><ele>613.0</ele><time>2026-04-18T15:26:35.999Z</time></trkpt><trkpt lat="43.76133194549716" lon="12.219439818881549"><ele>610.8333333333334</ele><time>2026-04-18T15:26:36.999Z</time></trkpt><trkpt lat="43.7613344063717" lon="12.219331913784442"><ele>608.6666666666667</ele><time>2026-04-18T15:26:37.999Z</time></trkpt><trkpt lat="43.761325892660416" lon="12.219230802358895"><ele>606.5</ele><time>2026-04-18T15:26:38.999Z</time></trkpt><trkpt lat="43.761301145385666" lon="12.21913385442819"><ele>604.3333333333334</ele><time>2026-04-18T15:26:39.999Z</time></trkpt><trkpt lat="43.761257939931376" lon="12.219035973411415"><ele>602.1666666666666</ele><time>2026-04-18T15:26:40.999Z</time></trkpt><trkpt lat="43.761230768471755" lon="12.218924107369965"><ele>600.0</ele><time>2026-04-18T15:26:42Z</time></trkpt><trkpt lat="43.76118274598834" lon="12.218821394778667"><ele>599.8</ele><time>2026-04-18T15:26:43Z</time></trkpt><trkpt lat="43.76111141384557" lon="12.21873574519495"><ele>599.6</ele><time>2026-04-18T15:26:44Z</time></trkpt><trkpt lat="43.76104202323014" lon="12.218649132990823"><ele>599.4</ele><time>2026-04-18T15:26:45Z</time></trkpt><trkpt lat="43.76096120788719" lon="12.218588017202833"><ele>599.2</ele><time>2026-04-18T15:26:46Z</time></trkpt><trkpt lat="43.760879525506645" lon="12.218547300861733"><ele>599.0</ele><time>2026-04-18T15:26:47Z</time></trkpt><trkpt lat="43.76079777493755" lon="12.218521575631078"><ele>599.0</ele><time>2026-04-18T15:26:48Z</time></trkpt><trkpt lat="43.760709911725755" lon="12.218513313377132"><ele>599.0</ele><time>2026-04-18T15:26:49Z</time></trkpt><trkpt lat="43.760623125398645" lon="12.21850499891697"><ele>599.0</ele><time>2026-04-18T15:26:50Z</time></trkpt><trkpt lat="43.760534350557045" lon="12.218489981197802"><ele>599.0</ele><time>2026-04-18T15:26:51Z</time></trkpt><trkpt lat="43.76044203950065" lon="12.21846564023128"><ele>599.0</ele><time>2026-04-18T15:26:52Z</time></trkpt><trkpt lat="43.760346862797135" lon="12.218415383398854"><ele>599.0</ele><time>2026-04-18T15:26:53Z</time></trkpt><trkpt lat="43.7602403996919" lon="12.218400995970855"><ele>599.0</ele><time>2026-04-18T15:26:54Z</time></trkpt><trkpt lat="43.76014235494269" lon="12.218362949491725"><ele>599.0</ele><time>2026-04-18T15:26:55Z</time></trkpt><trkpt lat="43.76004587454979" lon="12.218329383031143"><ele>599.0</ele><time>2026-04-18T15:26:56Z</time></trkpt><trkpt lat="43.75996594562465" lon="12.218264507910714"><ele>599.0</ele><time>2026-04-18T15:26:57Z</time></trkpt><trkpt lat="43.75989104583585" lon="12.218234778676049"><ele>598.1428571428571</ele><time>2026-04-18T15:26:58Z</time></trkpt><trkpt lat="43.759843374627465" lon="12.218158177044963"><ele>597.2857142857142</ele><time>2026-04-18T15:26:59Z</time></trkpt><trkpt lat="43.75980494196721" lon="12.218065614396815"><ele>596.4285714285713</ele><time>2026-04-18T15:27:00Z</time></trkpt><trkpt lat="43.75977364425235" lon="12.217977508915967"><ele>595.5714285714286</ele><time>2026-04-18T15:27:01Z</time></trkpt><trkpt lat="43.75976027330881" lon="12.217887185437371"><ele>594.7142857142857</ele><time>2026-04-18T15:27:02Z</time></trkpt><trkpt lat="43.75976630059645" lon="12.217786112949351"><ele>593.8571428571428</ele><time>2026-04-18T15:27:03Z</time></trkpt><trkpt lat="43.75981891656714" lon="12.217698850152937"><ele>593.0</ele><time>2026-04-18T15:27:04Z</time></trkpt><trkpt lat="43.75986471784946" lon="12.217606880089058"><ele>591.6666666666666</ele><time>2026-04-18T15:27:05Z</time></trkpt><trkpt lat="43.75992228928072" lon="12.217520253628871"><ele>590.3333333333333</ele><time>2026-04-18T15:27:06Z</time></trkpt><trkpt lat="43.75998686443006" lon="12.217444948570805"><ele>589.0</ele><time>2026-04-18T15:27:07Z</time></trkpt><trkpt lat="43.76004931267684" lon="12.217372520169839"><ele>587.6666666666666</ele><time>2026-04-18T15:27:08Z</time></trkpt><trkpt lat="43.760128893918704" lon="12.217374629088502"><ele>586.3333333333334</ele><time>2026-04-18T15:27:09Z</time></trkpt><trkpt lat="43.7602065710567" lon="12.217383349543523"><ele>585.0</ele><time>2026-04-18T15:27:10Z</time></trkpt><trkpt lat="43.76029222788314" lon="12.21739465826248"><ele>584.1666666666666</ele><time>2026-04-18T15:27:11Z</time></trkpt><trkpt lat="43.76038161571051" lon="12.217396533781308"><ele>583.3333333333334</ele><time>2026-04-18T15:27:12Z</time></trkpt><trkpt lat="43.7604724372045" lon="12.217401023731323"><ele>582.5</ele><time>2026-04-18T15:27:13Z</time></trkpt><trkpt lat="43.76056071737163" lon="12.2173878870291"><ele>581.6666666666667</ele><time>2026-04-18T15:27:14Z</time></trkpt><trkpt lat="43.760645174509186" lon="12.217383483188154"><ele>580.8333333333334</ele><time>2026-04-18T15:27:15Z</time></trkpt><trkpt lat="43.7607240683491" lon="12.217332319730438"><ele>580.0</ele><time>2026-04-18T15:27:16Z</time></trkpt><trkpt lat="43.76082171835421" lon="12.21731321172716"><ele>577.2</ele><time>2026-04-18T15:27:17Z</time></trkpt><trkpt lat="43.76092023514993" lon="12.217282346199404"><ele>574.4</ele><time>2026-04-18T15:27:18Z</time></trkpt><trkpt lat="43.76101695636001" lon="12.217234268655908"><ele>571.6</ele><time>2026-04-18T15:27:19Z</time></trkpt><trkpt lat="43.761143496740786" lon="12.217281897899362"><ele>568.8</ele><time>2026-04-18T15:27:20Z</time></trkpt><trkpt lat="43.76124781008076" lon="12.217222416369918"><ele>566.0</ele><time>2026-04-18T15:27:21Z</time></trkpt><trkpt lat="43.76134953339437" lon="12.217160604729404"><ele>566.0</ele><time>2026-04-18T15:27:22Z</time></trkpt><trkpt lat="43.76144384200599" lon="12.217085915200638"><ele>566.0</ele><time>2026-04-18T15:27:23Z</time></trkpt><trkpt lat="43.761525293027304" lon="12.217006218497778"><ele>566.0</ele><time>2026-04-18T15:27:24Z</time></trkpt><trkpt lat="43.76158485036778" lon="12.216914003952576"><ele>566.0</ele><time>2026-04-18T15:27:25Z</time></trkpt><trkpt lat="43.76161598918162" lon="12.216800679198355"><ele>566.0</ele><time>2026-04-18T15:27:26Z</time></trkpt><trkpt lat="43.76162648933346" lon="12.216662626832235"><ele>566.0</ele><time>2026-04-18T15:27:27Z</time></trkpt><trkpt lat="43.761601262271185" lon="12.216503947827375"><ele>566.0</ele><time>2026-04-18T15:27:28Z</time></trkpt><trkpt lat="43.76158004214021" lon="12.216339910686624"><ele>566.0</ele><time>2026-04-18T15:27:29Z</time></trkpt><trkpt lat="43.76158005982905" lon="12.216177838596334"><ele>566.0</ele><time>2026-04-18T15:27:30Z</time></trkpt><trkpt lat="43.76160670234405" lon="12.216010571575948"><ele>563.75</ele><time>2026-04-18T15:27:31Z</time></trkpt><trkpt lat="43.761646815880155" lon="12.215838087170406"><ele>561.5</ele><time>2026-04-18T15:27:32Z</time></trkpt><trkpt lat="43.76167694146965" lon="12.215660603940082"><ele>559.25</ele><time>2026-04-18T15:27:33Z</time></trkpt><trkpt lat="43.76168775820017" lon="12.2154811804814"><ele>557.0</ele><time>2026-04-18T15:27:34Z</time></trkpt><trkpt lat="43.76168744294705" lon="12.215304604100032"><ele>555.25</ele><time>2026-04-18T15:27:35Z</time></trkpt><trkpt lat="43.76168668077368" lon="12.215135052641509"><ele>553.5</ele><time>2026-04-18T15:27:36Z</time></trkpt><trkpt lat="43.76170565644071" lon="12.214976958023234"><ele>551.75</ele><time>2026-04-18T15:27:37Z</time></trkpt><trkpt lat="43.7617610765035" lon="12.214828189941606"><ele>550.0</ele><time>2026-04-18T15:27:38Z</time></trkpt><trkpt lat="43.76184048869171" lon="12.214676982241182"><ele>549.25</ele><time>2026-04-18T15:27:39Z</time></trkpt><trkpt lat="43.761925471376074" lon="12.214517899503745"><ele>548.5</ele><time>2026-04-18T15:27:40Z</time></trkpt><trkpt lat="43.76200771696633" lon="12.214356205964549"><ele>547.75</ele><time>2026-04-18T15:27:41Z</time></trkpt><trkpt lat="43.76209440137073" lon="12.214208325233766"><ele>547.0</ele><time>2026-04-18T15:27:42Z</time></trkpt><trkpt lat="43.76218681245448" lon="12.21407966739097"><ele>545.25</ele><time>2026-04-18T15:27:43Z</time></trkpt><trkpt lat="43.762301073159584" lon="12.213965995750106"><ele>543.5</ele><time>2026-04-18T15:27:44Z</time></trkpt><trkpt lat="43.762430787229945" lon="12.213858479566591"><ele>541.75</ele><time>2026-04-18T15:27:45Z</time></trkpt><trkpt lat="43.76256214360989" lon="12.213751974946243"><ele>540.0</ele><time>2026-04-18T15:27:46Z</time></trkpt><trkpt lat="43.762694253093535" lon="12.213642252674852"><ele>541.0</ele><time>2026-04-18T15:27:47Z</time></trkpt><trkpt lat="43.762831057359925" lon="12.213526743762737"><ele>542.0</ele><time>2026-04-18T15:27:48Z</time></trkpt><trkpt lat="43.76297016747712" lon="12.213420388598015"><ele>543.0</ele><time>2026-04-18T15:27:49Z</time></trkpt><trkpt lat="43.763102787614514" lon="12.213312470855351"><ele>543.0</ele><time>2026-04-18T15:27:49.999Z</time></trkpt><trkpt lat="43.763232391679495" lon="12.213205697499433"><ele>543.0</ele><time>2026-04-18T15:27:50.999Z</time></trkpt><trkpt lat="43.76335636289843" lon="12.213097409668373"><ele>543.0</ele><time>2026-04-18T15:27:51.999Z</time></trkpt><trkpt lat="43.76347906212327" lon="12.212992434066791"><ele>543.0</ele><time>2026-04-18T15:27:52.999Z</time></trkpt><trkpt lat="43.76359894268989" lon="12.212887994914139"><ele>541.75</ele><time>2026-04-18T15:27:53.999Z</time></trkpt><trkpt lat="43.76371794446902" lon="12.212788463768266"><ele>540.5</ele><time>2026-04-18T15:27:54.999Z</time></trkpt><trkpt lat="43.76383547551807" lon="12.212694532852515"><ele>539.25</ele><time>2026-04-18T15:27:55.999Z</time></trkpt><trkpt lat="43.76395725518605" lon="12.212621945974169"><ele>538.0</ele><time>2026-04-18T15:27:56.999Z</time></trkpt><trkpt lat="43.764090594120574" lon="12.212563537877214"><ele>538.0</ele><time>2026-04-18T15:27:57.999Z</time></trkpt><trkpt lat="43.764229400536514" lon="12.21251284423253"><ele>538.0</ele><time>2026-04-18T15:27:58.999Z</time></trkpt><trkpt lat="43.76436209724458" lon="12.212462606666087"><ele>538.0</ele><time>2026-04-18T15:27:59.999Z</time></trkpt><trkpt lat="43.764476889290414" lon="12.212415160638976"><ele>538.0</ele><time>2026-04-18T15:28:00.999Z</time></trkpt><trkpt lat="43.76457910904805" lon="12.212374802591185"><ele>537.4</ele><time>2026-04-18T15:28:01.999Z</time></trkpt><trkpt lat="43.76467449390439" lon="12.212366243238606"><ele>536.8</ele><time>2026-04-18T15:28:02.999Z</time></trkpt><trkpt lat="43.76477009262342" lon="12.212391975702735"><ele>536.2</ele><time>2026-04-18T15:28:03.999Z</time></trkpt><trkpt lat="43.764860338389965" lon="12.21246401600377"><ele>535.6</ele><time>2026-04-18T15:28:04.999Z</time></trkpt><trkpt lat="43.764951436832234" lon="12.212536775761837"><ele>535.0</ele><time>2026-04-18T15:28:05.999Z</time></trkpt><trkpt lat="43.76504501000414" lon="12.212577651458295"><ele>535.0</ele><time>2026-04-18T15:28:06.999Z</time></trkpt><trkpt lat="43.76513982029384" lon="12.212583029689085"><ele>535.0</ele><time>2026-04-18T15:28:07.999Z</time></trkpt><trkpt lat="43.765236371051756" lon="12.212539144125902"><ele>535.0</ele><time>2026-04-18T15:28:08.999Z</time></trkpt><trkpt lat="43.76532710546852" lon="12.212453132747738"><ele>535.0</ele><time>2026-04-18T15:28:09.999Z</time></trkpt><trkpt lat="43.76542081307911" lon="12.212344361297948"><ele>535.0</ele><time>2026-04-18T15:28:10.999Z</time></trkpt><trkpt lat="43.76551976314331" lon="12.212228151892662"><ele>534.25</ele><time>2026-04-18T15:28:11.999Z</time></trkpt><trkpt lat="43.765623946933715" lon="12.212117011764626"><ele>533.5</ele><time>2026-04-18T15:28:12.999Z</time></trkpt><trkpt lat="43.7657370701125" lon="12.212013394070686"><ele>532.75</ele><time>2026-04-18T15:28:13.999Z</time></trkpt><trkpt lat="43.76584616356087" lon="12.211920107275732"><ele>532.0</ele><time>2026-04-18T15:28:14.999Z</time></trkpt><trkpt lat="43.765945610170526" lon="12.211838282037606"><ele>533.4</ele><time>2026-04-18T15:28:15.999Z</time></trkpt><trkpt lat="43.76602970835245" lon="12.211760743114633"><ele>534.8000000000001</ele><time>2026-04-18T15:28:16.999Z</time></trkpt><trkpt lat="43.76608344179453" lon="12.211668375323585"><ele>536.2</ele><time>2026-04-18T15:28:17.999Z</time></trkpt><trkpt lat="43.76611231750978" lon="12.21154983744127"><ele>537.6</ele><time>2026-04-18T15:28:18.999Z</time></trkpt><trkpt lat="43.766108567574406" lon="12.211422619374318"><ele>539.0</ele><time>2026-04-18T15:28:19.999Z</time></trkpt><trkpt lat="43.76607861282458" lon="12.21131087077416"><ele>539.0</ele><time>2026-04-18T15:28:20.999Z</time></trkpt><trkpt lat="43.76604717741486" lon="12.211214854463778"><ele>539.0</ele><time>2026-04-18T15:28:21.999Z</time></trkpt><trkpt lat="43.76598620201911" lon="12.211060266744271"><ele>539.0</ele><time>2026-04-18T15:28:23.999Z</time></trkpt><trkpt lat="43.76593413861698" lon="12.210992034994607"><ele>539.0</ele><time>2026-04-18T15:28:24.999Z</time></trkpt><trkpt lat="43.76586040537222" lon="12.210926768120872"><ele>539.0</ele><time>2026-04-18T15:28:25.999Z</time></trkpt><trkpt lat="43.76577305905162" lon="12.210864949875445"><ele>536.6</ele><time>2026-04-18T15:28:26.999Z</time></trkpt><trkpt lat="43.76568245671237" lon="12.210804425643905"><ele>534.2</ele><time>2026-04-18T15:28:27.999Z</time></trkpt><trkpt lat="43.76559865326771" lon="12.210737386288155"><ele>531.8000000000001</ele><time>2026-04-18T15:28:28.999Z</time></trkpt><trkpt lat="43.76552164915545" lon="12.210671901703629"><ele>529.4</ele><time>2026-04-18T15:28:29.999Z</time></trkpt><trkpt lat="43.765459210454274" lon="12.210588665026577"><ele>527.0</ele><time>2026-04-18T15:28:30.999Z</time></trkpt><trkpt lat="43.765419323794056" lon="12.210479067858465"><ele>526.6</ele><time>2026-04-18T15:28:31.999Z</time></trkpt><trkpt lat="43.76540906705861" lon="12.210345319488068"><ele>526.2</ele><time>2026-04-18T15:28:32.999Z</time></trkpt><trkpt lat="43.765424070499876" lon="12.210208005778737"><ele>525.8</ele><time>2026-04-18T15:28:33.999Z</time></trkpt><trkpt lat="43.76544472842678" lon="12.210073484447074"><ele>525.4</ele><time>2026-04-18T15:28:34.999Z</time></trkpt><trkpt lat="43.765435704473184" lon="12.209935975564516"><ele>525.0</ele><time>2026-04-18T15:28:35.999Z</time></trkpt><trkpt lat="43.76540396746089" lon="12.209808160136468"><ele>525.0</ele><time>2026-04-18T15:28:36.999Z</time></trkpt><trkpt lat="43.76536845534081" lon="12.20968557021946"><ele>525.0</ele><time>2026-04-18T15:28:37.998Z</time></trkpt><trkpt lat="43.765343186669774" lon="12.209563822242496"><ele>525.0</ele><time>2026-04-18T15:28:38.998Z</time></trkpt><trkpt lat="43.76533567334281" lon="12.209426075470217"><ele>525.0</ele><time>2026-04-18T15:28:39.998Z</time></trkpt><trkpt lat="43.76535197689482" lon="12.209281752294759"><ele>525.0</ele><time>2026-04-18T15:28:40.998Z</time></trkpt><trkpt lat="43.76539033878532" lon="12.20914699927316"><ele>525.0</ele><time>2026-04-18T15:28:41.998Z</time></trkpt><trkpt lat="43.76543852263113" lon="12.209031689535818"><ele>525.0</ele><time>2026-04-18T15:28:42.998Z</time></trkpt><trkpt lat="43.765476230918686" lon="12.208926827260608"><ele>525.0</ele><time>2026-04-18T15:28:43.998Z</time></trkpt><trkpt lat="43.76548927139906" lon="12.208829831983223"><ele>525.0</ele><time>2026-04-18T15:28:44.998Z</time></trkpt><trkpt lat="43.765467177113656" lon="12.208741970956966"><ele>525.0</ele><time>2026-04-18T15:28:45.998Z</time></trkpt><trkpt lat="43.765419953571964" lon="12.208665627945589"><ele>525.0</ele><time>2026-04-18T15:28:46.998Z</time></trkpt><trkpt lat="43.76534717734509" lon="12.208632671435561"><ele>524.4</ele><time>2026-04-18T15:28:48Z</time></trkpt><trkpt lat="43.76526950198708" lon="12.208644578368617"><ele>523.8</ele><time>2026-04-18T15:28:49Z</time></trkpt><trkpt lat="43.765184994569886" lon="12.208698992183528"><ele>523.2</ele><time>2026-04-18T15:28:50Z</time></trkpt><trkpt lat="43.76509458875289" lon="12.208793401214063"><ele>522.6</ele><time>2026-04-18T15:28:51Z</time></trkpt><trkpt lat="43.76500024664823" lon="12.208893245509737"><ele>522.0</ele><time>2026-04-18T15:28:52Z</time></trkpt><trkpt lat="43.764910389439926" lon="12.208980784300547"><ele>519.5</ele><time>2026-04-18T15:28:53Z</time></trkpt><trkpt lat="43.76482671897144" lon="12.209056886852157"><ele>517.0</ele><time>2026-04-18T15:28:54Z</time></trkpt><trkpt lat="43.76475088265099" lon="12.209129039044287"><ele>514.5</ele><time>2026-04-18T15:28:55Z</time></trkpt><trkpt lat="43.764680638743904" lon="12.209196297779464"><ele>512.0</ele><time>2026-04-18T15:28:56Z</time></trkpt><trkpt lat="43.764610104314656" lon="12.209247416019782"><ele>509.5</ele><time>2026-04-18T15:28:57Z</time></trkpt><trkpt lat="43.764537783116765" lon="12.209253656027062"><ele>507.0</ele><time>2026-04-18T15:28:58Z</time></trkpt><trkpt lat="43.76446853922057" lon="12.20922404309563"><ele>507.0</ele><time>2026-04-18T15:28:59Z</time></trkpt><trkpt lat="43.764423248518156" lon="12.209138460654172"><ele>507.00000000000006</ele><time>2026-04-18T15:29:00Z</time></trkpt><trkpt lat="43.76440461775673" lon="12.209027782574385"><ele>507.00000000000006</ele><time>2026-04-18T15:29:01Z</time></trkpt><trkpt lat="43.76442425635647" lon="12.208892394328856"><ele>507.0</ele><time>2026-04-18T15:29:02Z</time></trkpt><trkpt lat="43.76445983597029" lon="12.208748068909939"><ele>507.0</ele><time>2026-04-18T15:29:03Z</time></trkpt><trkpt lat="43.76449289060317" lon="12.208598483615003"><ele>505.6</ele><time>2026-04-18T15:29:04Z</time></trkpt><trkpt lat="43.76454579340373" lon="12.208455811991872"><ele>504.20000000000005</ele><time>2026-04-18T15:29:05Z</time></trkpt><trkpt lat="43.764622902738246" lon="12.208342215113541"><ele>502.8</ele><time>2026-04-18T15:29:06Z</time></trkpt><trkpt lat="43.764704085819474" lon="12.208257607803695"><ele>501.4</ele><time>2026-04-18T15:29:07Z</time></trkpt><trkpt lat="43.76476092492767" lon="12.208164824266348"><ele>500.0</ele><time>2026-04-18T15:29:08Z</time></trkpt><trkpt lat="43.76478445711858" lon="12.20805461021394"><ele>498.8333333333333</ele><time>2026-04-18T15:29:09Z</time></trkpt><trkpt lat="43.764786488572916" lon="12.20795140345852"><ele>497.66666666666663</ele><time>2026-04-18T15:29:10Z</time></trkpt><trkpt lat="43.76475270519765" lon="12.20785176086556"><ele>496.5</ele><time>2026-04-18T15:29:11Z</time></trkpt><trkpt lat="43.76470043552521" lon="12.207744041125508"><ele>495.33333333333337</ele><time>2026-04-18T15:29:12Z</time></trkpt><trkpt lat="43.764665829906626" lon="12.20762391945179"><ele>494.1666666666667</ele><time>2026-04-18T15:29:13Z</time></trkpt><trkpt lat="43.76467440058312" lon="12.207489398373575"><ele>493.0</ele><time>2026-04-18T15:29:14Z</time></trkpt><trkpt lat="43.76471693345167" lon="12.207370472906204"><ele>489.79999999999995</ele><time>2026-04-18T15:29:15Z</time></trkpt><trkpt lat="43.764786221568166" lon="12.207275317240239"><ele>486.59999999999997</ele><time>2026-04-18T15:29:15.999Z</time></trkpt><trkpt lat="43.76487703782273" lon="12.20720109268717"><ele>483.40000000000003</ele><time>2026-04-18T15:29:16.999Z</time></trkpt><trkpt lat="43.764975588157014" lon="12.207147666674162"><ele>480.20000000000005</ele><time>2026-04-18T15:29:17.999Z</time></trkpt><trkpt lat="43.765061188771384" lon="12.207096575925366"><ele>477.0</ele><time>2026-04-18T15:29:18.999Z</time></trkpt><trkpt lat="43.765138594558046" lon="12.20705645239492"><ele>477.0</ele><time>2026-04-18T15:29:19.999Z</time></trkpt><trkpt lat="43.765199042003246" lon="12.207003932915367"><ele>476.99999999999994</ele><time>2026-04-18T15:29:20.999Z</time></trkpt><trkpt lat="43.765236734686155" lon="12.20693043077831"><ele>477.0</ele><time>2026-04-18T15:29:21.999Z</time></trkpt><trkpt lat="43.76524514712996" lon="12.206841333577021"><ele>477.0</ele><time>2026-04-18T15:29:22.999Z</time></trkpt><trkpt lat="43.76521747938787" lon="12.206754602963878"><ele>476.99999999999994</ele><time>2026-04-18T15:29:23.999Z</time></trkpt><trkpt lat="43.765154857415496" lon="12.206696643533324"><ele>477.0</ele><time>2026-04-18T15:29:24.999Z</time></trkpt><trkpt lat="43.76507672045183" lon="12.2066895261291"><ele>477.0</ele><time>2026-04-18T15:29:25.999Z</time></trkpt><trkpt lat="43.76499480961055" lon="12.206734042156029"><ele>477.0</ele><time>2026-04-18T15:29:26.999Z</time></trkpt><trkpt lat="43.76491000158353" lon="12.206802665984123"><ele>477.00000000000006</ele><time>2026-04-18T15:29:27.999Z</time></trkpt><trkpt lat="43.76481943133704" lon="12.206863901645123"><ele>477.00000000000006</ele><time>2026-04-18T15:29:28.999Z</time></trkpt><trkpt lat="43.76472717984441" lon="12.206905240727528"><ele>477.0</ele><time>2026-04-18T15:29:29.999Z</time></trkpt><trkpt lat="43.76464350743051" lon="12.206953369177043"><ele>477.0</ele><time>2026-04-18T15:29:30.999Z</time></trkpt><trkpt lat="43.764560150451956" lon="12.207003266520328"><ele>477.0</ele><time>2026-04-18T15:29:31.999Z</time></trkpt><trkpt lat="43.76447244576558" lon="12.207031795710785"><ele>477.00000000000006</ele><time>2026-04-18T15:29:32.999Z</time></trkpt><trkpt lat="43.76438456739556" lon="12.207066630682602"><ele>477.00000000000006</ele><time>2026-04-18T15:29:33.999Z</time></trkpt><trkpt lat="43.764302988848144" lon="12.207118991978032"><ele>477.0</ele><time>2026-04-18T15:29:34.999Z</time></trkpt><trkpt lat="43.764224132686955" lon="12.20718365885803"><ele>477.0</ele><time>2026-04-18T15:29:35.999Z</time></trkpt><trkpt lat="43.76414647856259" lon="12.207259669167554"><ele>476.5</ele><time>2026-04-18T15:29:36.999Z</time></trkpt><trkpt lat="43.76407102689634" lon="12.207346382370929"><ele>476.0</ele><time>2026-04-18T15:29:37.999Z</time></trkpt><trkpt lat="43.763996452502816" lon="12.20743868753692"><ele>475.5</ele><time>2026-04-18T15:29:38.999Z</time></trkpt><trkpt lat="43.763927934914854" lon="12.207528122807307"><ele>475.0</ele><time>2026-04-18T15:29:39.999Z</time></trkpt><trkpt lat="43.76386263749502" lon="12.207598277034094"><ele>474.5</ele><time>2026-04-18T15:29:40.999Z</time></trkpt><trkpt lat="43.76379463025483" lon="12.207633775003224"><ele>474.0</ele><time>2026-04-18T15:29:41.999Z</time></trkpt><trkpt lat="43.76372604075485" lon="12.207607236733494"><ele>474.0</ele><time>2026-04-18T15:29:42.999Z</time></trkpt><trkpt lat="43.76367214999299" lon="12.207543979944528"><ele>474.0</ele><time>2026-04-18T15:29:43.999Z</time></trkpt><trkpt lat="43.763656459694474" lon="12.207439889789892"><ele>474.0</ele><time>2026-04-18T15:29:44.999Z</time></trkpt><trkpt lat="43.76367267729424" lon="12.207320594378878"><ele>474.0</ele><time>2026-04-18T15:29:45.999Z</time></trkpt><trkpt lat="43.76371179110969" lon="12.207189933462802"><ele>474.0</ele><time>2026-04-18T15:29:46.999Z</time></trkpt><trkpt lat="43.76375698055918" lon="12.207046432431332"><ele>470.25</ele><time>2026-04-18T15:29:47.999Z</time></trkpt><trkpt lat="43.76380433918595" lon="12.206902541259431"><ele>466.5</ele><time>2026-04-18T15:29:48.999Z</time></trkpt><trkpt lat="43.76385706483411" lon="12.206765438280986"><ele>462.75</ele><time>2026-04-18T15:29:49.999Z</time></trkpt><trkpt lat="43.76392876565164" lon="12.206644128032282"><ele>459.0</ele><time>2026-04-18T15:29:50.999Z</time></trkpt><trkpt lat="43.76402066251335" lon="12.206551169496526"><ele>457.75</ele><time>2026-04-18T15:29:51.999Z</time></trkpt><trkpt lat="43.76412103122581" lon="12.20646892710651"><ele>456.5</ele><time>2026-04-18T15:29:52.999Z</time></trkpt><trkpt lat="43.764209812589634" lon="12.20635820093665"><ele>455.25</ele><time>2026-04-18T15:29:53.999Z</time></trkpt><trkpt lat="43.76429401581443" lon="12.206239917417271"><ele>454.0</ele><time>2026-04-18T15:29:54.999Z</time></trkpt><trkpt lat="43.764443727706336" lon="12.206268662920904"><ele>454.0</ele><time>2026-04-18T15:29:55.999Z</time></trkpt><trkpt lat="43.76455390170192" lon="12.20621931008685"><ele>454.0</ele><time>2026-04-18T15:29:56.999Z</time></trkpt><trkpt lat="43.764660546940306" lon="12.206167201613754"><ele>454.0</ele><time>2026-04-18T15:29:57.999Z</time></trkpt><trkpt lat="43.76476554207491" lon="12.206113258411984"><ele>454.0</ele><time>2026-04-18T15:29:58.999Z</time></trkpt><trkpt lat="43.76487230966683" lon="12.206044551411964"><ele>454.0</ele><time>2026-04-18T15:29:59.999Z</time></trkpt><trkpt lat="43.764980234805584" lon="12.205950380772306"><ele>454.0</ele><time>2026-04-18T15:30:00.999Z</time></trkpt><trkpt lat="43.765077793414825" lon="12.205826971229735"><ele>454.0</ele><time>2026-04-18T15:30:01.999Z</time></trkpt><trkpt lat="43.76517235388371" lon="12.205677576469693"><ele>454.0</ele><time>2026-04-18T15:30:02.999Z</time></trkpt><trkpt lat="43.76525623501805" lon="12.205508467201177"><ele>456.33333333333337</ele><time>2026-04-18T15:30:03.999Z</time></trkpt><trkpt lat="43.76532550316575" lon="12.205324833553174"><ele>458.66666666666663</ele><time>2026-04-18T15:30:04.999Z</time></trkpt><trkpt lat="43.7653820839399" lon="12.20512560754301"><ele>461.0</ele><time>2026-04-18T15:30:05.999Z</time></trkpt><trkpt lat="43.76543663945868" lon="12.204927028150285"><ele>456.66666666666663</ele><time>2026-04-18T15:30:06.999Z</time></trkpt><trkpt lat="43.765478416511584" lon="12.204718755214772"><ele>452.33333333333337</ele><time>2026-04-18T15:30:07.999Z</time></trkpt><trkpt lat="43.76550178263764" lon="12.20450834012842"><ele>448.0</ele><time>2026-04-18T15:30:08.999Z</time></trkpt><trkpt lat="43.76551254650891" lon="12.204309926424528"><ele>448.0</ele><time>2026-04-18T15:30:09.999Z</time></trkpt><trkpt lat="43.76554448117866" lon="12.20411839892758"><ele>448.0</ele><time>2026-04-18T15:30:10.999Z</time></trkpt><trkpt lat="43.7656033709291" lon="12.20393602230607"><ele>448.0</ele><time>2026-04-18T15:30:11.999Z</time></trkpt><trkpt lat="43.76567823574429" lon="12.20376464504557"><ele>448.0</ele><time>2026-04-18T15:30:12.999Z</time></trkpt><trkpt lat="43.76575694840546" lon="12.203612457563676"><ele>446.75</ele><time>2026-04-18T15:30:13.999Z</time></trkpt><trkpt lat="43.76583707971299" lon="12.203462615724419"><ele>445.5</ele><time>2026-04-18T15:30:14.999Z</time></trkpt><trkpt lat="43.76589955143181" lon="12.20331721772234"><ele>444.25</ele><time>2026-04-18T15:30:15.999Z</time></trkpt><trkpt lat="43.76593706084341" lon="12.203166225223995"><ele>443.0</ele><time>2026-04-18T15:30:16.999Z</time></trkpt><trkpt lat="43.76594827184284" lon="12.202985212599822"><ele>441.75</ele><time>2026-04-18T15:30:17.999Z</time></trkpt><trkpt lat="43.765965177499346" lon="12.202808350522451"><ele>440.5</ele><time>2026-04-18T15:30:18.999Z</time></trkpt><trkpt lat="43.765981429418865" lon="12.202633223971525"><ele>439.25</ele><time>2026-04-18T15:30:19.999Z</time></trkpt><trkpt lat="43.76599754215124" lon="12.202471876172593"><ele>438.0</ele><time>2026-04-18T15:30:20.999Z</time></trkpt><trkpt lat="43.76600343237884" lon="12.202311661894628"><ele>437.0</ele><time>2026-04-18T15:30:21.999Z</time></trkpt><trkpt lat="43.76599231490562" lon="12.202147472306072"><ele>436.0</ele><time>2026-04-18T15:30:22.999Z</time></trkpt><trkpt lat="43.765974859718575" lon="12.201973633089697"><ele>435.0</ele><time>2026-04-18T15:30:23.999Z</time></trkpt><trkpt lat="43.76595582825541" lon="12.201789750523178"><ele>434.0</ele><time>2026-04-18T15:30:24.999Z</time></trkpt><trkpt lat="43.765938780345444" lon="12.201609764020818"><ele>433.6</ele><time>2026-04-18T15:30:25.999Z</time></trkpt><trkpt lat="43.76592637363996" lon="12.20144935903174"><ele>433.2</ele><time>2026-04-18T15:30:26.999Z</time></trkpt><trkpt lat="43.765916927829025" lon="12.201299099443691"><ele>432.80000000000007</ele><time>2026-04-18T15:30:27.999Z</time></trkpt><trkpt lat="43.765910128002" lon="12.20116717127543"><ele>432.40000000000003</ele><time>2026-04-18T15:30:28.999Z</time></trkpt><trkpt lat="43.76592338178391" lon="12.201051402070973"><ele>432.0</ele><time>2026-04-18T15:30:29.999Z</time></trkpt><trkpt lat="43.76596929764128" lon="12.200951694915835"><ele>431.8333333333333</ele><time>2026-04-18T15:30:30.999Z</time></trkpt><trkpt lat="43.766036460771524" lon="12.200874428817869"><ele>431.66666666666663</ele><time>2026-04-18T15:30:31.999Z</time></trkpt><trkpt lat="43.766123497573204" lon="12.20082029974896"><ele>431.5</ele><time>2026-04-18T15:30:32.999Z</time></trkpt><trkpt lat="43.766205988118166" lon="12.200776606273616"><ele>431.3333333333333</ele><time>2026-04-18T15:30:33.999Z</time></trkpt><trkpt lat="43.766271770316" lon="12.200714006940794"><ele>431.16666666666663</ele><time>2026-04-18T15:30:34.999Z</time></trkpt><trkpt lat="43.76631880121202" lon="12.200633215748066"><ele>431.0</ele><time>2026-04-18T15:30:35.999Z</time></trkpt><trkpt lat="43.76634795607615" lon="12.20055494663254"><ele>430.99999999999994</ele><time>2026-04-18T15:30:36.999Z</time></trkpt><trkpt lat="43.766396770347576" lon="12.20044925280393"><ele>431.0</ele><time>2026-04-18T15:30:38.999Z</time></trkpt><trkpt lat="43.76637734810279" lon="12.200361001644287"><ele>431.0</ele><time>2026-04-18T15:30:47.999Z</time></trkpt><trkpt lat="43.76628416027689" lon="12.200275562882698"><ele>431.0</ele><time>2026-04-18T15:30:49.999Z</time></trkpt><trkpt lat="43.766215076116524" lon="12.200214715790075"><ele>430.99999999999994</ele><time>2026-04-18T15:30:50.999Z</time></trkpt><trkpt lat="43.76614600424034" lon="12.200127471769877"><ele>431.0</ele><time>2026-04-18T15:30:51.999Z</time></trkpt><trkpt lat="43.76608802647318" lon="12.200023963399234"><ele>431.0</ele><time>2026-04-18T15:30:52.999Z</time></trkpt><trkpt lat="43.7660311400003" lon="12.19991028728823"><ele>431.0</ele><time>2026-04-18T15:30:54Z</time></trkpt><trkpt lat="43.76596578881934" lon="12.199779861340552"><ele>431.0</ele><time>2026-04-18T15:30:55Z</time></trkpt><trkpt lat="43.765897634189095" lon="12.19964031965008"><ele>431.0</ele><time>2026-04-18T15:30:56Z</time></trkpt><trkpt lat="43.765827949101734" lon="12.199497461124029"><ele>431.25</ele><time>2026-04-18T15:30:57Z</time></trkpt><trkpt lat="43.76575005999316" lon="12.199339596330871"><ele>431.5</ele><time>2026-04-18T15:30:58Z</time></trkpt><trkpt lat="43.76567459170675" lon="12.199177923280766"><ele>431.75</ele><time>2026-04-18T15:30:59Z</time></trkpt><trkpt lat="43.76559498120704" lon="12.199037820566723"><ele>432.0</ele><time>2026-04-18T15:31:00Z</time></trkpt><trkpt lat="43.76548733158096" lon="12.198925918200082"><ele>431.0</ele><time>2026-04-18T15:31:01Z</time></trkpt><trkpt lat="43.76535307910656" lon="12.198834933890808"><ele>430.0</ele><time>2026-04-18T15:31:02Z</time></trkpt><trkpt lat="43.76519429844292" lon="12.198766364196228"><ele>429.0</ele><time>2026-04-18T15:31:03Z</time></trkpt><trkpt lat="43.76502500017423" lon="12.198696144407794"><ele>431.66666666666663</ele><time>2026-04-18T15:31:04Z</time></trkpt><trkpt lat="43.76485976954667" lon="12.198624193019318"><ele>434.3333333333333</ele><time>2026-04-18T15:31:05Z</time></trkpt><trkpt lat="43.76470047521837" lon="12.198558156411488"><ele>437.0</ele><time>2026-04-18T15:31:06Z</time></trkpt><trkpt lat="43.764538872931894" lon="12.19848747003499"><ele>437.0</ele><time>2026-04-18T15:31:07Z</time></trkpt><trkpt lat="43.764392186559775" lon="12.198424080668019"><ele>437.0</ele><time>2026-04-18T15:31:08Z</time></trkpt><trkpt lat="43.764257539142555" lon="12.198380260460667"><ele>437.0</ele><time>2026-04-18T15:31:09Z</time></trkpt><trkpt lat="43.76412128361872" lon="12.19837897091807"><ele>437.0</ele><time>2026-04-18T15:31:10Z</time></trkpt><trkpt lat="43.76398314295817" lon="12.19841010393573"><ele>437.0</ele><time>2026-04-18T15:31:11Z</time></trkpt><trkpt lat="43.7638519632799" lon="12.19848565319855"><ele>437.0</ele><time>2026-04-18T15:31:12Z</time></trkpt><trkpt lat="43.763730698914586" lon="12.19859800438701"><ele>437.0</ele><time>2026-04-18T15:31:13Z</time></trkpt><trkpt lat="43.76361254848488" lon="12.19873937472271"><ele>437.0</ele><time>2026-04-18T15:31:14Z</time></trkpt><trkpt lat="43.76349762016554" lon="12.198904637697588"><ele>440.66666666666663</ele><time>2026-04-18T15:31:15Z</time></trkpt><trkpt lat="43.763368603782254" lon="12.199061326450007"><ele>444.33333333333337</ele><time>2026-04-18T15:31:16Z</time></trkpt><trkpt lat="43.763231711735926" lon="12.199214143644618"><ele>448.0</ele><time>2026-04-18T15:31:17Z</time></trkpt><trkpt lat="43.76309128577681" lon="12.199345171389098"><ele>448.0</ele><time>2026-04-18T15:31:18Z</time></trkpt><trkpt lat="43.76294712100354" lon="12.199436341314225"><ele>448.0</ele><time>2026-04-18T15:31:19Z</time></trkpt><trkpt lat="43.762792704594865" lon="12.199501288289337"><ele>448.0</ele><time>2026-04-18T15:31:20Z</time></trkpt><trkpt lat="43.76263221707967" lon="12.199545563851125"><ele>447.33333333333337</ele><time>2026-04-18T15:31:21Z</time></trkpt><trkpt lat="43.762466589925744" lon="12.199570409946663"><ele>446.66666666666663</ele><time>2026-04-18T15:31:22Z</time></trkpt><trkpt lat="43.76230155777833" lon="12.199532811192416"><ele>446.0</ele><time>2026-04-18T15:31:23Z</time></trkpt><trkpt lat="43.762139142606614" lon="12.199506269651657"><ele>446.0</ele><time>2026-04-18T15:31:24Z</time></trkpt><trkpt lat="43.761981235373206" lon="12.199494758073545"><ele>446.0</ele><time>2026-04-18T15:31:25Z</time></trkpt><trkpt lat="43.76183536290926" lon="12.199473397660354"><ele>446.0</ele><time>2026-04-18T15:31:26Z</time></trkpt><trkpt lat="43.76169100791437" lon="12.199478127597997"><ele>446.0</ele><time>2026-04-18T15:31:27Z</time></trkpt><trkpt lat="43.76154544398636" lon="12.199520436379126"><ele>445.0</ele><time>2026-04-18T15:31:28Z</time></trkpt><trkpt lat="43.76140011267657" lon="12.199605109269516"><ele>444.0</ele><time>2026-04-18T15:31:29Z</time></trkpt><trkpt lat="43.76127356837737" lon="12.199737256759608"><ele>443.0</ele><time>2026-04-18T15:31:30Z</time></trkpt><trkpt lat="43.76115733018441" lon="12.199895472653415"><ele>448.0</ele><time>2026-04-18T15:31:31Z</time></trkpt><trkpt lat="43.761051419625026" lon="12.200029363221716"><ele>453.0</ele><time>2026-04-18T15:31:32Z</time></trkpt><trkpt lat="43.7609180469403" lon="12.200125115955384"><ele>458.0</ele><time>2026-04-18T15:31:33Z</time></trkpt><trkpt lat="43.760758523230585" lon="12.200144506665445"><ele>458.0</ele><time>2026-04-18T15:31:34Z</time></trkpt><trkpt lat="43.76059003701853" lon="12.200132159368078"><ele>458.0</ele><time>2026-04-18T15:31:35Z</time></trkpt><trkpt lat="43.76041376521537" lon="12.200098467544"><ele>458.0</ele><time>2026-04-18T15:31:36Z</time></trkpt><trkpt lat="43.760236088222236" lon="12.200084128543633"><ele>460.0</ele><time>2026-04-18T15:31:37Z</time></trkpt><trkpt lat="43.7600645764059" lon="12.200043843055052"><ele>462.0</ele><time>2026-04-18T15:31:38Z</time></trkpt><trkpt lat="43.759897123051054" lon="12.200014387288435"><ele>464.0</ele><time>2026-04-18T15:31:39Z</time></trkpt><trkpt lat="43.75973277292056" lon="12.199987469556223"><ele>464.0</ele><time>2026-04-18T15:31:40Z</time></trkpt><trkpt lat="43.759577881561704" lon="12.199904930820262"><ele>464.0</ele><time>2026-04-18T15:31:41Z</time></trkpt><trkpt lat="43.759425047215444" lon="12.199815261091782"><ele>464.0</ele><time>2026-04-18T15:31:42Z</time></trkpt><trkpt lat="43.75927349957381" lon="12.199728695769327"><ele>463.66666666666663</ele><time>2026-04-18T15:31:43Z</time></trkpt><trkpt lat="43.759138900625786" lon="12.19960853340323"><ele>463.33333333333337</ele><time>2026-04-18T15:31:44Z</time></trkpt><trkpt lat="43.7590350040833" lon="12.19944387975058"><ele>463.0</ele><time>2026-04-18T15:31:45Z</time></trkpt><trkpt lat="43.75892628292208" lon="12.199273763292659"><ele>463.0</ele><time>2026-04-18T15:31:46Z</time></trkpt><trkpt lat="43.75882012750684" lon="12.199090097170359"><ele>463.0</ele><time>2026-04-18T15:31:47Z</time></trkpt><trkpt lat="43.75871255788351" lon="12.19890014596261"><ele>463.0</ele><time>2026-04-18T15:31:48Z</time></trkpt><trkpt lat="43.758609573123046" lon="12.198709257318052"><ele>466.0</ele><time>2026-04-18T15:31:49Z</time></trkpt><trkpt lat="43.75849392475151" lon="12.19853166493172"><ele>469.0</ele><time>2026-04-18T15:31:50Z</time></trkpt><trkpt lat="43.75839322049096" lon="12.198334488980825"><ele>472.0</ele><time>2026-04-18T15:31:51Z</time></trkpt><trkpt lat="43.758290863551245" lon="12.198142109444966"><ele>472.0</ele><time>2026-04-18T15:31:52Z</time></trkpt><trkpt lat="43.75818704232293" lon="12.19795042244698"><ele>472.0</ele><time>2026-04-18T15:31:53Z</time></trkpt><trkpt lat="43.7580847898179" lon="12.197759824256428"><ele>472.0</ele><time>2026-04-18T15:31:54Z</time></trkpt><trkpt lat="43.75797941508322" lon="12.19757617619353"><ele>472.0</ele><time>2026-04-18T15:31:55Z</time></trkpt><trkpt lat="43.75786845220418" lon="12.19742062761606"><ele>472.0</ele><time>2026-04-18T15:31:56Z</time></trkpt><trkpt lat="43.75773863766395" lon="12.197316351445743"><ele>472.0</ele><time>2026-04-18T15:31:57Z</time></trkpt><trkpt lat="43.75760090660389" lon="12.19722996301939"><ele>474.25</ele><time>2026-04-18T15:31:58Z</time></trkpt><trkpt lat="43.7574525787559" lon="12.197172753187168"><ele>476.5</ele><time>2026-04-18T15:31:59Z</time></trkpt><trkpt lat="43.757334106714175" lon="12.19706204689785"><ele>478.75</ele><time>2026-04-18T15:32:00Z</time></trkpt><trkpt lat="43.75723524056405" lon="12.19691814944509"><ele>481.0</ele><time>2026-04-18T15:32:01Z</time></trkpt><trkpt lat="43.757155938716096" lon="12.196737094363"><ele>481.0</ele><time>2026-04-18T15:32:01.999Z</time></trkpt><trkpt lat="43.75709661494275" lon="12.196521454384298"><ele>481.0</ele><time>2026-04-18T15:32:02.999Z</time></trkpt><trkpt lat="43.75702157843378" lon="12.196308098364726"><ele>481.0</ele><time>2026-04-18T15:32:03.999Z</time></trkpt><trkpt lat="43.756964569725646" lon="12.196104395215466"><ele>479.0</ele><time>2026-04-18T15:32:04.999Z</time></trkpt><trkpt lat="43.75690687320628" lon="12.19592303710324"><ele>477.0</ele><time>2026-04-18T15:32:05.999Z</time></trkpt><trkpt lat="43.75682231958343" lon="12.195765795344405"><ele>475.0</ele><time>2026-04-18T15:32:06.999Z</time></trkpt><trkpt lat="43.756732851974206" lon="12.195638390409872"><ele>473.0</ele><time>2026-04-18T15:32:07.999Z</time></trkpt><trkpt lat="43.75661321250307" lon="12.19555513672832"><ele>470.75</ele><time>2026-04-18T15:32:08.999Z</time></trkpt><trkpt lat="43.756471373011706" lon="12.195527326857613"><ele>468.5</ele><time>2026-04-18T15:32:09.999Z</time></trkpt><trkpt lat="43.756325267041916" lon="12.195558760378184"><ele>466.25</ele><time>2026-04-18T15:32:10.999Z</time></trkpt><trkpt lat="43.75618381692631" lon="12.195636518200025"><ele>464.0</ele><time>2026-04-18T15:32:11.999Z</time></trkpt><trkpt lat="43.756051445103594" lon="12.195768439795332"><ele>469.66666666666663</ele><time>2026-04-18T15:32:12.999Z</time></trkpt><trkpt lat="43.75592119812102" lon="12.19593604106888"><ele>475.33333333333337</ele><time>2026-04-18T15:32:13.999Z</time></trkpt><trkpt lat="43.755791935030736" lon="12.19613292158794"><ele>481.0</ele><time>2026-04-18T15:32:14.999Z</time></trkpt><trkpt lat="43.75565311494245" lon="12.196340976472701"><ele>490.0</ele><time>2026-04-18T15:32:15.999Z</time></trkpt><trkpt lat="43.75550914277414" lon="12.196548193698755"><ele>499.0</ele><time>2026-04-18T15:32:16.999Z</time></trkpt><trkpt lat="43.75537246999012" lon="12.196738729263778"><ele>508.0</ele><time>2026-04-18T15:32:17.999Z</time></trkpt><trkpt lat="43.75524233351405" lon="12.196912379746067"><ele>501.33333333333337</ele><time>2026-04-18T15:32:18.999Z</time></trkpt><trkpt lat="43.75511281179906" lon="12.197071837086103"><ele>494.66666666666663</ele><time>2026-04-18T15:32:19.999Z</time></trkpt><trkpt lat="43.75496986747084" lon="12.197204691413644"><ele>488.0</ele><time>2026-04-18T15:32:20.999Z</time></trkpt><trkpt lat="43.754812316673856" lon="12.197278209974876"><ele>488.0</ele><time>2026-04-18T15:32:21.999Z</time></trkpt><trkpt lat="43.75465469759066" lon="12.197298157772615"><ele>488.0</ele><time>2026-04-18T15:32:22.999Z</time></trkpt><trkpt lat="43.75448796030595" lon="12.197271548358605"><ele>488.0</ele><time>2026-04-18T15:32:23.999Z</time></trkpt><trkpt lat="43.754312305691485" lon="12.197202603192045"><ele>485.0</ele><time>2026-04-18T15:32:24.999Z</time></trkpt><trkpt lat="43.754129561072105" lon="12.197131988204955"><ele>482.0</ele><time>2026-04-18T15:32:25.999Z</time></trkpt><trkpt lat="43.75395186989177" lon="12.197055865920863"><ele>479.0</ele><time>2026-04-18T15:32:26.999Z</time></trkpt><trkpt lat="43.753770634668676" lon="12.197041162229846"><ele>479.0</ele><time>2026-04-18T15:32:27.999Z</time></trkpt><trkpt lat="43.75357980961143" lon="12.19708162996017"><ele>479.0</ele><time>2026-04-18T15:32:28.999Z</time></trkpt><trkpt lat="43.7534307989121" lon="12.197156149594253"><ele>479.0</ele><time>2026-04-18T15:32:29.999Z</time></trkpt><trkpt lat="43.75326883734444" lon="12.197269892087665"><ele>486.0</ele><time>2026-04-18T15:32:30.999Z</time></trkpt><trkpt lat="43.75312703940194" lon="12.197420914338547"><ele>493.0</ele><time>2026-04-18T15:32:31.999Z</time></trkpt><trkpt lat="43.752997609185" lon="12.197588093164779"><ele>500.0</ele><time>2026-04-18T15:32:32.999Z</time></trkpt><trkpt lat="43.75287275454978" lon="12.19773761738145"><ele>500.0</ele><time>2026-04-18T15:32:33.999Z</time></trkpt><trkpt lat="43.75272974951078" lon="12.197846538157556"><ele>500.0</ele><time>2026-04-18T15:32:34.999Z</time></trkpt><trkpt lat="43.75257014326439" lon="12.19791334849693"><ele>500.0</ele><time>2026-04-18T15:32:35.999Z</time></trkpt><trkpt lat="43.752408322775636" lon="12.19793319090293"><ele>497.0</ele><time>2026-04-18T15:32:36.999Z</time></trkpt><trkpt lat="43.75224508541117" lon="12.197908525442376"><ele>494.0</ele><time>2026-04-18T15:32:37.999Z</time></trkpt><trkpt lat="43.75206535711454" lon="12.197871032500407"><ele>491.0</ele><time>2026-04-18T15:32:38.999Z</time></trkpt><trkpt lat="43.75188515437947" lon="12.197863966539588"><ele>489.66666666666663</ele><time>2026-04-18T15:32:39.999Z</time></trkpt><trkpt lat="43.75171027213946" lon="12.19785370772754"><ele>488.33333333333337</ele><time>2026-04-18T15:32:40.999Z</time></trkpt><trkpt lat="43.75153544158107" lon="12.19788692523788"><ele>487.0</ele><time>2026-04-18T15:32:41.999Z</time></trkpt><trkpt lat="43.751375406186995" lon="12.197968999053343"><ele>487.0</ele><time>2026-04-18T15:32:42.999Z</time></trkpt><trkpt lat="43.75122416335265" lon="12.19809336259694"><ele>487.0</ele><time>2026-04-18T15:32:43.999Z</time></trkpt><trkpt lat="43.7510896797251" lon="12.198253194587066"><ele>487.0</ele><time>2026-04-18T15:32:44.999Z</time></trkpt><trkpt lat="43.75097059123471" lon="12.198436710336132"><ele>487.0</ele><time>2026-04-18T15:32:45.999Z</time></trkpt><trkpt lat="43.75086853150934" lon="12.198632011572057"><ele>487.0</ele><time>2026-04-18T15:32:46.999Z</time></trkpt><trkpt lat="43.750771130495984" lon="12.198798686093125"><ele>487.0</ele><time>2026-04-18T15:32:47.999Z</time></trkpt><trkpt lat="43.75064046866535" lon="12.198882423641333"><ele>487.0</ele><time>2026-04-18T15:32:48.999Z</time></trkpt><trkpt lat="43.750494761395814" lon="12.198943873902447"><ele>487.0</ele><time>2026-04-18T15:32:49.999Z</time></trkpt><trkpt lat="43.750332877568894" lon="12.199013996366702"><ele>487.0</ele><time>2026-04-18T15:32:50.999Z</time></trkpt><trkpt lat="43.75017246557043" lon="12.199103700502473"><ele>490.6666666666667</ele><time>2026-04-18T15:32:51.999Z</time></trkpt><trkpt lat="43.74999978337231" lon="12.199158999067894"><ele>494.33333333333337</ele><time>2026-04-18T15:32:52.999Z</time></trkpt><trkpt lat="43.74982123518151" lon="12.199160660252359"><ele>498.0</ele><time>2026-04-18T15:32:53.999Z</time></trkpt><trkpt lat="43.749633471984104" lon="12.199183807659209"><ele>498.0</ele><time>2026-04-18T15:32:54.999Z</time></trkpt><trkpt lat="43.749457135278604" lon="12.199206404372323"><ele>498.0</ele><time>2026-04-18T15:32:55.999Z</time></trkpt><trkpt lat="43.749292345455665" lon="12.199226147519035"><ele>498.0</ele><time>2026-04-18T15:32:56.999Z</time></trkpt><trkpt lat="43.74913693077486" lon="12.199227955255862"><ele>499.33333333333337</ele><time>2026-04-18T15:32:57.999Z</time></trkpt><trkpt lat="43.74898033046826" lon="12.19920575977333"><ele>500.6666666666667</ele><time>2026-04-18T15:32:58.999Z</time></trkpt><trkpt lat="43.74883357038844" lon="12.199171910629953"><ele>502.0</ele><time>2026-04-18T15:33:00Z</time></trkpt><trkpt lat="43.748685311725794" lon="12.19911846813793"><ele>502.0</ele><time>2026-04-18T15:33:01Z</time></trkpt><trkpt lat="43.748552063159465" lon="12.199021019510395"><ele>502.0</ele><time>2026-04-18T15:33:02Z</time></trkpt><trkpt lat="43.74844124608582" lon="12.198869356715994"><ele>502.0</ele><time>2026-04-18T15:33:03Z</time></trkpt><trkpt lat="43.74832210586534" lon="12.1986967789528"><ele>497.33333333333337</ele><time>2026-04-18T15:33:04Z</time></trkpt><trkpt lat="43.74820603494644" lon="12.19852603161694"><ele>492.66666666666663</ele><time>2026-04-18T15:33:05Z</time></trkpt><trkpt lat="43.74809668042505" lon="12.198363692682156"><ele>488.0</ele><time>2026-04-18T15:33:06Z</time></trkpt><trkpt lat="43.74798454200208" lon="12.198210929531655"><ele>484.66666666666663</ele><time>2026-04-18T15:33:07Z</time></trkpt><trkpt lat="43.747842291533864" lon="12.198110930067294"><ele>481.33333333333337</ele><time>2026-04-18T15:33:08Z</time></trkpt><trkpt lat="43.74769065374228" lon="12.198016247074547"><ele>478.0</ele><time>2026-04-18T15:33:09Z</time></trkpt><trkpt lat="43.747522734817856" lon="12.197945679329436"><ele>478.0</ele><time>2026-04-18T15:33:10Z</time></trkpt><trkpt lat="43.74735784211137" lon="12.197888539396809"><ele>478.0</ele><time>2026-04-18T15:33:11Z</time></trkpt><trkpt lat="43.74720314623613" lon="12.19784143801175"><ele>478.0</ele><time>2026-04-18T15:33:12Z</time></trkpt><trkpt lat="43.747056714999694" lon="12.197808994341838"><ele>478.0</ele><time>2026-04-18T15:33:13Z</time></trkpt><trkpt lat="43.74691032949908" lon="12.197822878663374"><ele>478.0</ele><time>2026-04-18T15:33:14Z</time></trkpt><trkpt lat="43.74675478250141" lon="12.197893138486474"><ele>478.0</ele><time>2026-04-18T15:33:15Z</time></trkpt><trkpt lat="43.74659460945378" lon="12.19800288786175"><ele>478.0</ele><time>2026-04-18T15:33:16Z</time></trkpt><trkpt lat="43.746428065406576" lon="12.198120137564688"><ele>478.0</ele><time>2026-04-18T15:33:17Z</time></trkpt><trkpt lat="43.746255859102014" lon="12.198233491823524"><ele>478.0</ele><time>2026-04-18T15:33:18Z</time></trkpt><trkpt lat="43.74607993985602" lon="12.19834622067298"><ele>479.6666666666667</ele><time>2026-04-18T15:33:19Z</time></trkpt><trkpt lat="43.74590792392336" lon="12.198466408013289"><ele>481.33333333333337</ele><time>2026-04-18T15:33:20Z</time></trkpt><trkpt lat="43.74575328025394" lon="12.19862582555522"><ele>483.0</ele><time>2026-04-18T15:33:21Z</time></trkpt><trkpt lat="43.74560611918603" lon="12.198803184311654"><ele>483.0</ele><time>2026-04-18T15:33:22Z</time></trkpt><trkpt lat="43.74546456339165" lon="12.19899695626909"><ele>483.0</ele><time>2026-04-18T15:33:23Z</time></trkpt><trkpt lat="43.74532032537876" lon="12.199191129850885"><ele>483.0</ele><time>2026-04-18T15:33:24Z</time></trkpt><trkpt lat="43.74517584341384" lon="12.199388964092993"><ele>482.33333333333337</ele><time>2026-04-18T15:33:25Z</time></trkpt><trkpt lat="43.74503374420062" lon="12.199594613232494"><ele>481.6666666666667</ele><time>2026-04-18T15:33:26Z</time></trkpt><trkpt lat="43.744901175388264" lon="12.199799340084926"><ele>481.0</ele><time>2026-04-18T15:33:27Z</time></trkpt><trkpt lat="43.74478274411686" lon="12.199997988869464"><ele>485.33333333333337</ele><time>2026-04-18T15:33:28Z</time></trkpt><trkpt lat="43.74468471531121" lon="12.200208447887793"><ele>489.66666666666663</ele><time>2026-04-18T15:33:29Z</time></trkpt><trkpt lat="43.74459691577003" lon="12.20042616841774"><ele>494.0</ele><time>2026-04-18T15:33:30Z</time></trkpt><trkpt lat="43.744516604461204" lon="12.200646631572527"><ele>489.66666666666663</ele><time>2026-04-18T15:33:31Z</time></trkpt><trkpt lat="43.74445617212757" lon="12.200875055970828"><ele>485.33333333333337</ele><time>2026-04-18T15:33:32Z</time></trkpt><trkpt lat="43.74437307497154" lon="12.201087525714764"><ele>481.0</ele><time>2026-04-18T15:33:33Z</time></trkpt><trkpt lat="43.74424865040682" lon="12.20125828966491"><ele>481.0</ele><time>2026-04-18T15:33:34Z</time></trkpt><trkpt lat="43.74413537152167" lon="12.201447889740736"><ele>481.0</ele><time>2026-04-18T15:33:35Z</time></trkpt><trkpt lat="43.74399838335937" lon="12.20157189421712"><ele>481.0</ele><time>2026-04-18T15:33:36Z</time></trkpt><trkpt lat="43.74388780581115" lon="12.20176291394986"><ele>482.0</ele><time>2026-04-18T15:33:37Z</time></trkpt><trkpt lat="43.743772115996926" lon="12.201912502303108"><ele>483.0</ele><time>2026-04-18T15:33:38Z</time></trkpt><trkpt lat="43.74363102549011" lon="12.201985451968664"><ele>484.0</ele><time>2026-04-18T15:33:39Z</time></trkpt><trkpt lat="43.74346227095074" lon="12.202015027889953"><ele>484.0</ele><time>2026-04-18T15:33:40Z</time></trkpt><trkpt lat="43.743274571377604" lon="12.202015605197811"><ele>484.0</ele><time>2026-04-18T15:33:41Z</time></trkpt><trkpt lat="43.743083145699714" lon="12.202005689843583"><ele>484.0</ele><time>2026-04-18T15:33:42Z</time></trkpt><trkpt lat="43.74290090403411" lon="12.201994960903658"><ele>484.0</ele><time>2026-04-18T15:33:43Z</time></trkpt><trkpt lat="43.74272970861546" lon="12.20196325236014"><ele>484.0</ele><time>2026-04-18T15:33:44Z</time></trkpt><trkpt lat="43.74257580578102" lon="12.201898088674888"><ele>484.0</ele><time>2026-04-18T15:33:45Z</time></trkpt><trkpt lat="43.742433142243016" lon="12.201826581603337"><ele>485.0</ele><time>2026-04-18T15:33:46Z</time></trkpt><trkpt lat="43.742306838146554" lon="12.201786592380245"><ele>486.0</ele><time>2026-04-18T15:33:47Z</time></trkpt><trkpt lat="43.74219730309028" lon="12.201775916401207"><ele>487.0</ele><time>2026-04-18T15:33:48Z</time></trkpt><trkpt lat="43.742102587507276" lon="12.201830309311733"><ele>488.0</ele><time>2026-04-18T15:33:49Z</time></trkpt><trkpt lat="43.74203195374105" lon="12.201944968761262"><ele>488.0</ele><time>2026-04-18T15:33:50Z</time></trkpt><trkpt lat="43.74199194572452" lon="12.202097732776306"><ele>488.0</ele><time>2026-04-18T15:33:51Z</time></trkpt><trkpt lat="43.74196537243542" lon="12.202285819347122"><ele>488.0</ele><time>2026-04-18T15:33:52Z</time></trkpt><trkpt lat="43.74193101285231" lon="12.202491972350776"><ele>488.0</ele><time>2026-04-18T15:33:53Z</time></trkpt><trkpt lat="43.74189239346062" lon="12.20266236570097"><ele>490.4</ele><time>2026-04-18T15:33:54Z</time></trkpt><trkpt lat="43.74184412926439" lon="12.202778583425324"><ele>492.79999999999995</ele><time>2026-04-18T15:33:55Z</time></trkpt><trkpt lat="43.74176070351509" lon="12.202836194061172"><ele>495.2</ele><time>2026-04-18T15:33:56Z</time></trkpt><trkpt lat="43.74166436010126" lon="12.20276863857041"><ele>497.6</ele><time>2026-04-18T15:33:57Z</time></trkpt><trkpt lat="43.741560993179505" lon="12.202720022444778"><ele>500.0</ele><time>2026-04-18T15:33:58Z</time></trkpt><trkpt lat="43.741474838394666" lon="12.202652922801725"><ele>500.0</ele><time>2026-04-18T15:33:59Z</time></trkpt><trkpt lat="43.741393964802526" lon="12.202528802392283"><ele>500.0</ele><time>2026-04-18T15:34:00Z</time></trkpt><trkpt lat="43.74132760977108" lon="12.20235196934153"><ele>500.0</ele><time>2026-04-18T15:34:01Z</time></trkpt><trkpt lat="43.741283369198854" lon="12.202164754171696"><ele>500.0</ele><time>2026-04-18T15:34:02Z</time></trkpt><trkpt lat="43.74125186848911" lon="12.201969460915178"><ele>497.25</ele><time>2026-04-18T15:34:03Z</time></trkpt><trkpt lat="43.74122287475213" lon="12.201792793571332"><ele>494.5</ele><time>2026-04-18T15:34:04Z</time></trkpt><trkpt lat="43.74117184307127" lon="12.201650080422933"><ele>491.75</ele><time>2026-04-18T15:34:05Z</time></trkpt><trkpt lat="43.74110851286047" lon="12.201525778460269"><ele>489.0</ele><time>2026-04-18T15:34:06Z</time></trkpt><trkpt lat="43.741005363312425" lon="12.20145052790258"><ele>486.25</ele><time>2026-04-18T15:34:07Z</time></trkpt><trkpt lat="43.740884595966804" lon="12.201441011465365"><ele>483.5</ele><time>2026-04-18T15:34:08Z</time></trkpt><trkpt lat="43.74074857613069" lon="12.201478741945206"><ele>480.75</ele><time>2026-04-18T15:34:09Z</time></trkpt><trkpt lat="43.74059976413383" lon="12.201517175612041"><ele>478.0</ele><time>2026-04-18T15:34:10Z</time></trkpt><trkpt lat="43.74043713926437" lon="12.201540891800512"><ele>488.0</ele><time>2026-04-18T15:34:11Z</time></trkpt><trkpt lat="43.74026163910721" lon="12.201560313872532"><ele>498.0</ele><time>2026-04-18T15:34:12Z</time></trkpt><trkpt lat="43.740084008679815" lon="12.20158851829962"><ele>508.0</ele><time>2026-04-18T15:34:13Z</time></trkpt><trkpt lat="43.739901114509706" lon="12.201627635719527"><ele>511.0</ele><time>2026-04-18T15:34:14Z</time></trkpt><trkpt lat="43.73972686567613" lon="12.20167250064196"><ele>514.0</ele><time>2026-04-18T15:34:15Z</time></trkpt><trkpt lat="43.739557471473496" lon="12.201718991072966"><ele>517.0</ele><time>2026-04-18T15:34:16Z</time></trkpt><trkpt lat="43.739393913938905" lon="12.201757549517476"><ele>519.5</ele><time>2026-04-18T15:34:17Z</time></trkpt><trkpt lat="43.739246129278115" lon="12.201786633660923"><ele>522.0</ele><time>2026-04-18T15:34:18Z</time></trkpt><trkpt lat="43.7391086847062" lon="12.20178256383224"><ele>524.5</ele><time>2026-04-18T15:34:19Z</time></trkpt><trkpt lat="43.73898574610529" lon="12.201777717810423"><ele>527.0</ele><time>2026-04-18T15:34:20Z</time></trkpt><trkpt lat="43.73886981914637" lon="12.201743116494903"><ele>527.0</ele><time>2026-04-18T15:34:21Z</time></trkpt><trkpt lat="43.738796788787184" lon="12.201601365882944"><ele>527.0</ele><time>2026-04-18T15:34:22Z</time></trkpt><trkpt lat="43.738785781956935" lon="12.201429582912336"><ele>527.0</ele><time>2026-04-18T15:34:23Z</time></trkpt><trkpt lat="43.73876474893248" lon="12.201235685676705"><ele>527.0</ele><time>2026-04-18T15:34:24Z</time></trkpt><trkpt lat="43.73871672964451" lon="12.201044614750547"><ele>520.5</ele><time>2026-04-18T15:34:25Z</time></trkpt><trkpt lat="43.7386652677403" lon="12.200867215792593"><ele>514.0</ele><time>2026-04-18T15:34:26Z</time></trkpt><trkpt lat="43.738580096926746" lon="12.200712031420034"><ele>507.5</ele><time>2026-04-18T15:34:27Z</time></trkpt><trkpt lat="43.738467780618485" lon="12.200592334347121"><ele>501.0</ele><time>2026-04-18T15:34:28Z</time></trkpt><trkpt lat="43.7383454135073" lon="12.20050607284857"><ele>498.25</ele><time>2026-04-18T15:34:29Z</time></trkpt><trkpt lat="43.73821906376451" lon="12.200467220341777"><ele>495.5</ele><time>2026-04-18T15:34:30Z</time></trkpt><trkpt lat="43.738103495147755" lon="12.200474067367246"><ele>492.75</ele><time>2026-04-18T15:34:31Z</time></trkpt><trkpt lat="43.737997661518456" lon="12.200547349163356"><ele>490.0</ele><time>2026-04-18T15:34:32Z</time></trkpt><trkpt lat="43.73789645122578" lon="12.200677025084577"><ele>500.0</ele><time>2026-04-18T15:34:33Z</time></trkpt><trkpt lat="43.73779245806363" lon="12.200826115092449"><ele>510.0</ele><time>2026-04-18T15:34:34Z</time></trkpt><trkpt lat="43.73766625481221" lon="12.20096433863358"><ele>520.0</ele><time>2026-04-18T15:34:35Z</time></trkpt><trkpt lat="43.73751695118342" lon="12.20108040067017"><ele>520.0</ele><time>2026-04-18T15:34:36Z</time></trkpt><trkpt lat="43.73735264909801" lon="12.201184514839765"><ele>520.0</ele><time>2026-04-18T15:34:36.999Z</time></trkpt><trkpt lat="43.737181184285795" lon="12.201289604749169"><ele>520.0</ele><time>2026-04-18T15:34:37.999Z</time></trkpt><trkpt lat="43.737007771985176" lon="12.201399591967824"><ele>526.6666666666667</ele><time>2026-04-18T15:34:38.999Z</time></trkpt><trkpt lat="43.73683873083136" lon="12.201509678017874"><ele>533.3333333333334</ele><time>2026-04-18T15:34:39.999Z</time></trkpt><trkpt lat="43.73667655050148" lon="12.201601304012398"><ele>540.0</ele><time>2026-04-18T15:34:40.999Z</time></trkpt><trkpt lat="43.73651596407839" lon="12.201629914866011"><ele>540.0</ele><time>2026-04-18T15:34:41.998Z</time></trkpt><trkpt lat="43.73637506453434" lon="12.201692898647046"><ele>540.0</ele><time>2026-04-18T15:34:42.998Z</time></trkpt><trkpt lat="43.736236241864695" lon="12.201690230785232"><ele>540.0</ele><time>2026-04-18T15:34:43.998Z</time></trkpt><trkpt lat="43.73611124288209" lon="12.201664507803958"><ele>540.0</ele><time>2026-04-18T15:34:44.998Z</time></trkpt><trkpt lat="43.735986643495615" lon="12.201587442686817"><ele>539.0</ele><time>2026-04-18T15:34:45.998Z</time></trkpt><trkpt lat="43.735893567419986" lon="12.201475093716224"><ele>538.0</ele><time>2026-04-18T15:34:46.998Z</time></trkpt><trkpt lat="43.73583723388569" lon="12.201320588642796"><ele>537.0</ele><time>2026-04-18T15:34:47.998Z</time></trkpt><trkpt lat="43.735852153321446" lon="12.201145568242335"><ele>536.0</ele><time>2026-04-18T15:34:48.998Z</time></trkpt><trkpt lat="43.735776828915824" lon="12.200585672109137"><ele>529.6666666666666</ele><time>2026-04-18T15:34:51.998Z</time></trkpt><trkpt lat="43.735685626363406" lon="12.200440245999866"><ele>523.3333333333334</ele><time>2026-04-18T15:34:52.998Z</time></trkpt><trkpt lat="43.73554791754009" lon="12.200331603278261"><ele>517.0</ele><time>2026-04-18T15:34:53.998Z</time></trkpt><trkpt lat="43.735409113663025" lon="12.200242077608102"><ele>517.0</ele><time>2026-04-18T15:34:54.998Z</time></trkpt><trkpt lat="43.735274955298266" lon="12.200121554625982"><ele>517.0</ele><time>2026-04-18T15:34:55.998Z</time></trkpt><trkpt lat="43.735129773832284" lon="12.20001228352695"><ele>517.0</ele><time>2026-04-18T15:34:56.998Z</time></trkpt><trkpt lat="43.734969245602905" lon="12.199915579211128"><ele>512.0</ele><time>2026-04-18T15:34:57.998Z</time></trkpt><trkpt lat="43.734818796097734" lon="12.19979467823737"><ele>507.0</ele><time>2026-04-18T15:34:58.998Z</time></trkpt><trkpt lat="43.734663111740446" lon="12.199689319996919"><ele>502.0</ele><time>2026-04-18T15:34:59.998Z</time></trkpt><trkpt lat="43.734497631512156" lon="12.199622313551632"><ele>509.33333333333337</ele><time>2026-04-18T15:35:00.998Z</time></trkpt><trkpt lat="43.734325388709514" lon="12.199579305305774"><ele>516.6666666666666</ele><time>2026-04-18T15:35:01.998Z</time></trkpt><trkpt lat="43.73415472077241" lon="12.199574619512674"><ele>524.0</ele><time>2026-04-18T15:35:02.998Z</time></trkpt><trkpt lat="43.733981121890224" lon="12.19958679983"><ele>524.0</ele><time>2026-04-18T15:35:03.998Z</time></trkpt><trkpt lat="43.733807284643625" lon="12.199536374528455"><ele>524.0</ele><time>2026-04-18T15:35:04.998Z</time></trkpt><trkpt lat="43.73363759439453" lon="12.199455499091222"><ele>524.0</ele><time>2026-04-18T15:35:05.999Z</time></trkpt><trkpt lat="43.7334762842713" lon="12.199333937576709"><ele>529.6666666666666</ele><time>2026-04-18T15:35:06.999Z</time></trkpt><trkpt lat="43.73331926395714" lon="12.19922008389488"><ele>535.3333333333334</ele><time>2026-04-18T15:35:07.999Z</time></trkpt><trkpt lat="43.733163876195064" lon="12.199126739983257"><ele>541.0</ele><time>2026-04-18T15:35:08.999Z</time></trkpt><trkpt lat="43.73301929002344" lon="12.199044009609551"><ele>542.75</ele><time>2026-04-18T15:35:09.999Z</time></trkpt><trkpt lat="43.73288056923521" lon="12.198986901190894"><ele>544.5</ele><time>2026-04-18T15:35:10.999Z</time></trkpt><trkpt lat="43.7327400148191" lon="12.19896971967831"><ele>546.25</ele><time>2026-04-18T15:35:11.999Z</time></trkpt><trkpt lat="43.73259952436628" lon="12.199019573315551"><ele>548.0</ele><time>2026-04-18T15:35:12.999Z</time></trkpt><trkpt lat="43.732457106271546" lon="12.199089777600443"><ele>548.0</ele><time>2026-04-18T15:35:13.999Z</time></trkpt><trkpt lat="43.732323139837575" lon="12.199159533700271"><ele>548.0</ele><time>2026-04-18T15:35:14.999Z</time></trkpt><trkpt lat="43.73219509848711" lon="12.199126978954919"><ele>548.0</ele><time>2026-04-18T15:35:15.999Z</time></trkpt><trkpt lat="43.73207430195408" lon="12.199055812749943"><ele>548.0</ele><time>2026-04-18T15:35:16.999Z</time></trkpt><trkpt lat="43.73196003892349" lon="12.19893335979501"><ele>545.0</ele><time>2026-04-18T15:35:17.999Z</time></trkpt><trkpt lat="43.73186614016116" lon="12.198779569017637"><ele>542.0</ele><time>2026-04-18T15:35:18.999Z</time></trkpt><trkpt lat="43.73176286461215" lon="12.198659118206896"><ele>539.0</ele><time>2026-04-18T15:35:19.999Z</time></trkpt><trkpt lat="43.73166992993682" lon="12.198549911457713"><ele>536.0</ele><time>2026-04-18T15:35:20.999Z</time></trkpt><trkpt lat="43.73154023346601" lon="12.198497306940768"><ele>536.0</ele><time>2026-04-18T15:35:21.999Z</time></trkpt><trkpt lat="43.73140423642128" lon="12.198496692331233"><ele>536.0</ele><time>2026-04-18T15:35:22.999Z</time></trkpt><trkpt lat="43.73124773483352" lon="12.198539208928537"><ele>536.0</ele><time>2026-04-18T15:35:23.999Z</time></trkpt><trkpt lat="43.73108764623491" lon="12.198608705717206"><ele>537.3333333333333</ele><time>2026-04-18T15:35:24.999Z</time></trkpt><trkpt lat="43.7309252298656" lon="12.198639661771582"><ele>538.6666666666666</ele><time>2026-04-18T15:35:25.999Z</time></trkpt><trkpt lat="43.73076735184481" lon="12.198680815952796"><ele>540.0</ele><time>2026-04-18T15:35:26.999Z</time></trkpt><trkpt lat="43.73061344768139" lon="12.19860695658364"><ele>540.0</ele><time>2026-04-18T15:35:27.999Z</time></trkpt><trkpt lat="43.73046586904871" lon="12.1985042459743"><ele>540.0</ele><time>2026-04-18T15:35:28.999Z</time></trkpt><trkpt lat="43.73031107791452" lon="12.198399986411754"><ele>540.0</ele><time>2026-04-18T15:35:29.999Z</time></trkpt><trkpt lat="43.73014991554846" lon="12.198319831580811"><ele>539.6666666666666</ele><time>2026-04-18T15:35:30.999Z</time></trkpt><trkpt lat="43.730008162114004" lon="12.19819760451721"><ele>539.3333333333333</ele><time>2026-04-18T15:35:31.999Z</time></trkpt><trkpt lat="43.72988494895385" lon="12.198085171488318"><ele>539.0</ele><time>2026-04-18T15:35:32.999Z</time></trkpt><trkpt lat="43.72979122553883" lon="12.19794416065581"><ele>539.0</ele><time>2026-04-18T15:35:33.999Z</time></trkpt><trkpt lat="43.72971805777777" lon="12.197779721193534"><ele>539.0</ele><time>2026-04-18T15:35:34.999Z</time></trkpt><trkpt lat="43.72962880112989" lon="12.197590136231847"><ele>539.0</ele><time>2026-04-18T15:35:35.999Z</time></trkpt><trkpt lat="43.72951185545434" lon="12.197437081247273"><ele>541.0</ele><time>2026-04-18T15:35:36.999Z</time></trkpt><trkpt lat="43.72939134542016" lon="12.197280649732688"><ele>543.0</ele><time>2026-04-18T15:35:37.999Z</time></trkpt><trkpt lat="43.72925861280176" lon="12.197130445131565"><ele>545.0</ele><time>2026-04-18T15:35:38.999Z</time></trkpt><trkpt lat="43.72912516269397" lon="12.196990095963509"><ele>545.0</ele><time>2026-04-18T15:35:39.999Z</time></trkpt><trkpt lat="43.728986465689225" lon="12.19685552684801"><ele>545.0</ele><time>2026-04-18T15:35:40.999Z</time></trkpt><trkpt lat="43.72883716294625" lon="12.196740680088306"><ele>545.0</ele><time>2026-04-18T15:35:41.999Z</time></trkpt><trkpt lat="43.72867328860764" lon="12.196648684972986"><ele>543.0</ele><time>2026-04-18T15:35:42.999Z</time></trkpt><trkpt lat="43.72849526272025" lon="12.196581510856216"><ele>541.0</ele><time>2026-04-18T15:35:43.999Z</time></trkpt><trkpt lat="43.728309965996594" lon="12.196536124655891"><ele>539.0</ele><time>2026-04-18T15:35:44.999Z</time></trkpt><trkpt lat="43.72812671495767" lon="12.19646535247862"><ele>539.0</ele><time>2026-04-18T15:35:45.999Z</time></trkpt><trkpt lat="43.72795022323043" lon="12.196386366947989"><ele>539.0</ele><time>2026-04-18T15:35:46.999Z</time></trkpt><trkpt lat="43.72778095817955" lon="12.196280522529333"><ele>539.0</ele><time>2026-04-18T15:35:47.999Z</time></trkpt><trkpt lat="43.72760866229963" lon="12.19616447976192"><ele>544.6666666666666</ele><time>2026-04-18T15:35:48.999Z</time></trkpt><trkpt lat="43.72743671416293" lon="12.196051849013537"><ele>550.3333333333334</ele><time>2026-04-18T15:35:49.999Z</time></trkpt><trkpt lat="43.727265179028265" lon="12.195939490389208"><ele>556.0</ele><time>2026-04-18T15:35:50.999Z</time></trkpt><trkpt lat="43.72708858609618" lon="12.195827783228324"><ele>556.0</ele><time>2026-04-18T15:35:51.999Z</time></trkpt><trkpt lat="43.726906728855695" lon="12.195721945812124"><ele>556.0</ele><time>2026-04-18T15:35:52.999Z</time></trkpt><trkpt lat="43.726722469122336" lon="12.195620398061676"><ele>556.0</ele><time>2026-04-18T15:35:53.999Z</time></trkpt><trkpt lat="43.726536359489806" lon="12.195521381082456"><ele>560.0</ele><time>2026-04-18T15:35:54.999Z</time></trkpt><trkpt lat="43.72634886134989" lon="12.195422296732144"><ele>564.0</ele><time>2026-04-18T15:35:55.999Z</time></trkpt><trkpt lat="43.72617135277246" lon="12.195322471236905"><ele>568.0</ele><time>2026-04-18T15:35:56.999Z</time></trkpt><trkpt lat="43.726008484316566" lon="12.195218214256085"><ele>568.0</ele><time>2026-04-18T15:35:57.999Z</time></trkpt><trkpt lat="43.72586467924647" lon="12.195092731670671"><ele>568.0</ele><time>2026-04-18T15:35:58.999Z</time></trkpt><trkpt lat="43.725739381071875" lon="12.194941298982656"><ele>568.0</ele><time>2026-04-18T15:35:59.999Z</time></trkpt><trkpt lat="43.72563372349559" lon="12.19476561627332"><ele>565.3333333333334</ele><time>2026-04-18T15:36:00.999Z</time></trkpt><trkpt lat="43.72553546353243" lon="12.194573628913126"><ele>562.6666666666666</ele><time>2026-04-18T15:36:01.999Z</time></trkpt><trkpt lat="43.72544231421778" lon="12.194388124937143"><ele>560.0</ele><time>2026-04-18T15:36:02.999Z</time></trkpt><trkpt lat="43.72535051943849" lon="12.194230233434203"><ele>560.0</ele><time>2026-04-18T15:36:03.999Z</time></trkpt><trkpt lat="43.72526546583856" lon="12.194082567737071"><ele>560.0</ele><time>2026-04-18T15:36:04.999Z</time></trkpt><trkpt lat="43.72518855544873" lon="12.19395257917197"><ele>560.0</ele><time>2026-04-18T15:36:05.999Z</time></trkpt><trkpt lat="43.725084640877206" lon="12.193886612692317"><ele>560.0</ele><time>2026-04-18T15:36:06.999Z</time></trkpt><trkpt lat="43.72497754476938" lon="12.193871617990172"><ele>558.75</ele><time>2026-04-18T15:36:07.999Z</time></trkpt><trkpt lat="43.7248784694819" lon="12.19395539385193"><ele>557.5</ele><time>2026-04-18T15:36:08.999Z</time></trkpt><trkpt lat="43.72479672501264" lon="12.194073879551237"><ele>556.25</ele><time>2026-04-18T15:36:09.999Z</time></trkpt><trkpt lat="43.724734683252365" lon="12.194243425951994"><ele>555.0</ele><time>2026-04-18T15:36:10.999Z</time></trkpt><trkpt lat="43.72466880685334" lon="12.194424880051567"><ele>555.0</ele><time>2026-04-18T15:36:11.999Z</time></trkpt><trkpt lat="43.72456186827866" lon="12.194573685578714"><ele>555.0</ele><time>2026-04-18T15:36:12.999Z</time></trkpt><trkpt lat="43.724419132432025" lon="12.19469106106961"><ele>555.0</ele><time>2026-04-18T15:36:13.999Z</time></trkpt><trkpt lat="43.72423898288669" lon="12.194789539665384"><ele>556.0</ele><time>2026-04-18T15:36:14.999Z</time></trkpt><trkpt lat="43.72404262629894" lon="12.194834097931595"><ele>557.0</ele><time>2026-04-18T15:36:15.999Z</time></trkpt><trkpt lat="43.72386175458519" lon="12.194922786277495"><ele>558.0</ele><time>2026-04-18T15:36:16.999Z</time></trkpt><trkpt lat="43.723675703261385" lon="12.194962630149542"><ele>555.0</ele><time>2026-04-18T15:36:17.999Z</time></trkpt><trkpt lat="43.723486718138325" lon="12.194974188093498"><ele>552.0</ele><time>2026-04-18T15:36:18.999Z</time></trkpt><trkpt lat="43.72330309130254" lon="12.194899159379721"><ele>549.0</ele><time>2026-04-18T15:36:19.999Z</time></trkpt><trkpt lat="43.72312859633147" lon="12.194838920174284"><ele>549.3333333333334</ele><time>2026-04-18T15:36:20.999Z</time></trkpt><trkpt lat="43.72297170243679" lon="12.194784885438548"><ele>549.6666666666667</ele><time>2026-04-18T15:36:21.999Z</time></trkpt><trkpt lat="43.72282206086545" lon="12.194749615405755"><ele>550.0</ele><time>2026-04-18T15:36:22.999Z</time></trkpt><trkpt lat="43.722686794704764" lon="12.194687285687856"><ele>550.0</ele><time>2026-04-18T15:36:23.999Z</time></trkpt><trkpt lat="43.72258612994727" lon="12.194556381496533"><ele>550.0</ele><time>2026-04-18T15:36:24.999Z</time></trkpt><trkpt lat="43.72249125643647" lon="12.194401545380062"><ele>550.0</ele><time>2026-04-18T15:36:25.999Z</time></trkpt><trkpt lat="43.72238413427912" lon="12.194257563336507"><ele>550.0</ele><time>2026-04-18T15:36:26.999Z</time></trkpt><trkpt lat="43.72228542505829" lon="12.194124184727674"><ele>550.0</ele><time>2026-04-18T15:36:27.999Z</time></trkpt><trkpt lat="43.72216773243771" lon="12.194043950466893"><ele>550.0</ele><time>2026-04-18T15:36:28.999Z</time></trkpt><trkpt lat="43.722036829773366" lon="12.19401964537802"><ele>550.0</ele><time>2026-04-18T15:36:29.999Z</time></trkpt><trkpt lat="43.72190175562323" lon="12.194029011087517"><ele>550.0</ele><time>2026-04-18T15:36:30.999Z</time></trkpt><trkpt lat="43.721773227175724" lon="12.194050415583396"><ele>551.25</ele><time>2026-04-18T15:36:31.999Z</time></trkpt><trkpt lat="43.72164387498907" lon="12.19406410348518"><ele>552.5</ele><time>2026-04-18T15:36:32.999Z</time></trkpt><trkpt lat="43.721511667546714" lon="12.194071203949767"><ele>553.75</ele><time>2026-04-18T15:36:33.999Z</time></trkpt><trkpt lat="43.72137508727384" lon="12.194080933105163"><ele>555.0</ele><time>2026-04-18T15:36:34.999Z</time></trkpt><trkpt lat="43.72123834237436" lon="12.194093216208291"><ele>555.0</ele><time>2026-04-18T15:36:35.999Z</time></trkpt><trkpt lat="43.72110057461154" lon="12.194106809202959"><ele>555.0</ele><time>2026-04-18T15:36:36.999Z</time></trkpt><trkpt lat="43.720962603579466" lon="12.19411825253833"><ele>555.0</ele><time>2026-04-18T15:36:37.999Z</time></trkpt><trkpt lat="43.7208259648501" lon="12.19413621607667"><ele>555.0</ele><time>2026-04-18T15:36:38.999Z</time></trkpt><trkpt lat="43.72069279530688" lon="12.194181566968785"><ele>555.5</ele><time>2026-04-18T15:36:39.999Z</time></trkpt><trkpt lat="43.72056652505412" lon="12.194249889757899"><ele>556.0</ele><time>2026-04-18T15:36:40.999Z</time></trkpt><trkpt lat="43.72044226723646" lon="12.194333838343521"><ele>556.5</ele><time>2026-04-18T15:36:41.999Z</time></trkpt><trkpt lat="43.72031534825626" lon="12.194420066043369"><ele>557.0</ele><time>2026-04-18T15:36:42.999Z</time></trkpt><trkpt lat="43.720185572581485" lon="12.194504512046112"><ele>556.0</ele><time>2026-04-18T15:36:43.999Z</time></trkpt><trkpt lat="43.720053861915865" lon="12.19458341527888"><ele>555.0</ele><time>2026-04-18T15:36:44.999Z</time></trkpt><trkpt lat="43.71992105334612" lon="12.194661067601745"><ele>554.0</ele><time>2026-04-18T15:36:45.999Z</time></trkpt><trkpt lat="43.719787406758165" lon="12.194737926443727"><ele>553.0</ele><time>2026-04-18T15:36:46.999Z</time></trkpt><trkpt lat="43.719652205613535" lon="12.19481232005063"><ele>554.5</ele><time>2026-04-18T15:36:47.999Z</time></trkpt><trkpt lat="43.71951499895153" lon="12.194877818586104"><ele>556.0</ele><time>2026-04-18T15:36:48.999Z</time></trkpt><trkpt lat="43.719375540490546" lon="12.194937224421373"><ele>557.5</ele><time>2026-04-18T15:36:49.999Z</time></trkpt><trkpt lat="43.71923473915077" lon="12.194995311192281"><ele>559.0</ele><time>2026-04-18T15:36:50.999Z</time></trkpt><trkpt lat="43.719093187533005" lon="12.195055757740384"><ele>559.0</ele><time>2026-04-18T15:36:51.999Z</time></trkpt><trkpt lat="43.718949509004176" lon="12.195116838743107"><ele>559.0</ele><time>2026-04-18T15:36:52.999Z</time></trkpt><trkpt lat="43.718805159806664" lon="12.19517642286337"><ele>559.0</ele><time>2026-04-18T15:36:53.999Z</time></trkpt><trkpt lat="43.71866011629936" lon="12.19523414862006"><ele>557.75</ele><time>2026-04-18T15:36:54.999Z</time></trkpt><trkpt lat="43.71851757088588" lon="12.195291620206307"><ele>556.5</ele><time>2026-04-18T15:36:55.999Z</time></trkpt><trkpt lat="43.71837511991263" lon="12.195350922208927"><ele>555.25</ele><time>2026-04-18T15:36:56.999Z</time></trkpt><trkpt lat="43.71823158608771" lon="12.195408358091646"><ele>554.0</ele><time>2026-04-18T15:36:57.999Z</time></trkpt><trkpt lat="43.71808668051122" lon="12.1954644847021"><ele>554.0</ele><time>2026-04-18T15:36:58.999Z</time></trkpt><trkpt lat="43.717940206965594" lon="12.195523482648165"><ele>554.0</ele><time>2026-04-18T15:36:59.999Z</time></trkpt><trkpt lat="43.71779334420165" lon="12.19558177527381"><ele>554.0</ele><time>2026-04-18T15:37:00.999Z</time></trkpt><trkpt lat="43.71765343525426" lon="12.19564345751744"><ele>555.25</ele><time>2026-04-18T15:37:01.999Z</time></trkpt><trkpt lat="43.71752224520734" lon="12.195699152464897"><ele>556.5</ele><time>2026-04-18T15:37:02.999Z</time></trkpt><trkpt lat="43.71739223444479" lon="12.195750451714114"><ele>557.75</ele><time>2026-04-18T15:37:03.999Z</time></trkpt><trkpt lat="43.71726249225367" lon="12.195800526124392"><ele>559.0</ele><time>2026-04-18T15:37:04.999Z</time></trkpt><trkpt lat="43.717129795399245" lon="12.195854781843"><ele>559.0</ele><time>2026-04-18T15:37:05.998Z</time></trkpt><trkpt lat="43.71699193909916" lon="12.195912763122246"><ele>559.0</ele><time>2026-04-18T15:37:06.998Z</time></trkpt><trkpt lat="43.71685020642229" lon="12.19597013858959"><ele>559.0</ele><time>2026-04-18T15:37:07.998Z</time></trkpt><trkpt lat="43.716707462788264" lon="12.196028235034978"><ele>559.0</ele><time>2026-04-18T15:37:08.998Z</time></trkpt><trkpt lat="43.71656544808831" lon="12.19609784459773"><ele>557.0</ele><time>2026-04-18T15:37:09.998Z</time></trkpt><trkpt lat="43.71642543488789" lon="12.196182517580624"><ele>555.0</ele><time>2026-04-18T15:37:10.998Z</time></trkpt><trkpt lat="43.71628608717491" lon="12.196277002220322"><ele>553.0</ele><time>2026-04-18T15:37:12Z</time></trkpt><trkpt lat="43.716147977367186" lon="12.196362691933112"><ele>552.25</ele><time>2026-04-18T15:37:13Z</time></trkpt><trkpt lat="43.71601312210569" lon="12.196451998145646"><ele>551.5</ele><time>2026-04-18T15:37:14Z</time></trkpt><trkpt lat="43.71588590440031" lon="12.19653801675423"><ele>550.75</ele><time>2026-04-18T15:37:15Z</time></trkpt><trkpt lat="43.715752094233174" lon="12.196574345032479"><ele>550.0</ele><time>2026-04-18T15:37:16Z</time></trkpt><trkpt lat="43.71562047574651" lon="12.196605389277241"><ele>550.0</ele><time>2026-04-18T15:37:17Z</time></trkpt><trkpt lat="43.71549645307219" lon="12.19660723065631"><ele>550.0</ele><time>2026-04-18T15:37:18Z</time></trkpt><trkpt lat="43.71537607516256" lon="12.196594001837559"><ele>550.0</ele><time>2026-04-18T15:37:19Z</time></trkpt><trkpt lat="43.71526172915534" lon="12.196569605688644"><ele>550.0</ele><time>2026-04-18T15:37:20Z</time></trkpt><trkpt lat="43.71515501719887" lon="12.196530380465195"><ele>546.4</ele><time>2026-04-18T15:37:21Z</time></trkpt><trkpt lat="43.71504806193216" lon="12.19647768889956"><ele>542.8</ele><time>2026-04-18T15:37:22Z</time></trkpt><trkpt lat="43.71495628772527" lon="12.196410231201925"><ele>539.2</ele><time>2026-04-18T15:37:23Z</time></trkpt><trkpt lat="43.714865072703915" lon="12.196332298993884"><ele>535.6</ele><time>2026-04-18T15:37:24Z</time></trkpt><trkpt lat="43.714787322085755" lon="12.196237117258589"><ele>532.0</ele><time>2026-04-18T15:37:25Z</time></trkpt><trkpt lat="43.71471235793175" lon="12.196139111394627"><ele>532.0</ele><time>2026-04-18T15:37:26Z</time></trkpt><trkpt lat="43.71463437808729" lon="12.196035255585976"><ele>532.0</ele><time>2026-04-18T15:37:27Z</time></trkpt><trkpt lat="43.71455415566762" lon="12.195928412962733"><ele>532.0</ele><time>2026-04-18T15:37:28Z</time></trkpt><trkpt lat="43.714475698421154" lon="12.195823921306685"><ele>532.0</ele><time>2026-04-18T15:37:29Z</time></trkpt><trkpt lat="43.714399730165134" lon="12.195722744687535"><ele>532.0</ele><time>2026-04-18T15:37:30Z</time></trkpt><trkpt lat="43.714314045537606" lon="12.195608627444711"><ele>532.6666666666667</ele><time>2026-04-18T15:37:31Z</time></trkpt><trkpt lat="43.71421281674387" lon="12.195474413122776"><ele>533.3333333333334</ele><time>2026-04-18T15:37:32Z</time></trkpt><trkpt lat="43.714098241549344" lon="12.195323040736179"><ele>534.0</ele><time>2026-04-18T15:37:33Z</time></trkpt><trkpt lat="43.7139743973756" lon="12.195159422587983"><ele>534.0</ele><time>2026-04-18T15:37:34Z</time></trkpt><trkpt lat="43.71384786556719" lon="12.19499225371235"><ele>534.0</ele><time>2026-04-18T15:37:35Z</time></trkpt><trkpt lat="43.71371949857477" lon="12.194822660120163"><ele>534.0</ele><time>2026-04-18T15:37:36Z</time></trkpt><trkpt lat="43.71358293153727" lon="12.194642490632274"><ele>541.3333333333334</ele><time>2026-04-18T15:37:37Z</time></trkpt><trkpt lat="43.71345029634161" lon="12.194467531088122"><ele>548.6666666666667</ele><time>2026-04-18T15:37:38Z</time></trkpt><trkpt lat="43.713308658923076" lon="12.194311694454118"><ele>556.0</ele><time>2026-04-18T15:37:39Z</time></trkpt><trkpt lat="43.713176820276956" lon="12.194136886410929"><ele>556.6666666666667</ele><time>2026-04-18T15:37:40Z</time></trkpt><trkpt lat="43.713056531454164" lon="12.193942068313529"><ele>557.3333333333334</ele><time>2026-04-18T15:37:41Z</time></trkpt><trkpt lat="43.71291012618964" lon="12.193774281982812"><ele>558.0</ele><time>2026-04-18T15:37:42Z</time></trkpt><trkpt lat="43.71278496594681" lon="12.193567369230658"><ele>561.3333333333334</ele><time>2026-04-18T15:37:43Z</time></trkpt><trkpt lat="43.71265733828325" lon="12.193366744872229"><ele>564.6666666666667</ele><time>2026-04-18T15:37:44Z</time></trkpt><trkpt lat="43.71253007175112" lon="12.193162094820938"><ele>568.0</ele><time>2026-04-18T15:37:45Z</time></trkpt><trkpt lat="43.71238723716799" lon="12.192975798104698"><ele>570.3333333333334</ele><time>2026-04-18T15:37:46Z</time></trkpt><trkpt lat="43.71225997216296" lon="12.192778496364774"><ele>572.6666666666666</ele><time>2026-04-18T15:37:47Z</time></trkpt><trkpt lat="43.71212899308117" lon="12.192593285567055"><ele>575.0</ele><time>2026-04-18T15:37:48Z</time></trkpt><trkpt lat="43.71199680073098" lon="12.192441901210215"><ele>580.3333333333333</ele><time>2026-04-18T15:37:49Z</time></trkpt><trkpt lat="43.71185614474404" lon="12.192328588723337"><ele>585.6666666666666</ele><time>2026-04-18T15:37:50Z</time></trkpt><trkpt lat="43.71170567332116" lon="12.192245653892941"><ele>591.0</ele><time>2026-04-18T15:37:51Z</time></trkpt><trkpt lat="43.71154947656473" lon="12.192208075817225"><ele>591.0</ele><time>2026-04-18T15:37:52Z</time></trkpt><trkpt lat="43.71138572064132" lon="12.192210345302978"><ele>591.0</ele><time>2026-04-18T15:37:53Z</time></trkpt><trkpt lat="43.71121659408275" lon="12.19224937564231"><ele>591.0</ele><time>2026-04-18T15:37:54Z</time></trkpt><trkpt lat="43.71104587830834" lon="12.192320443355413"><ele>591.0</ele><time>2026-04-18T15:37:55Z</time></trkpt><trkpt lat="43.71087803563519" lon="12.192418425854862"><ele>591.0</ele><time>2026-04-18T15:37:56Z</time></trkpt><trkpt lat="43.710709516981936" lon="12.192534692040262"><ele>591.0</ele><time>2026-04-18T15:37:57Z</time></trkpt><trkpt lat="43.71054437772357" lon="12.192655105344308"><ele>591.0</ele><time>2026-04-18T15:37:58Z</time></trkpt><trkpt lat="43.71038501689097" lon="12.192792199199559"><ele>591.0</ele><time>2026-04-18T15:37:59Z</time></trkpt><trkpt lat="43.710241472053" lon="12.192953745615076"><ele>591.0</ele><time>2026-04-18T15:38:00Z</time></trkpt><trkpt lat="43.71011790620341" lon="12.193153994890855"><ele>594.0</ele><time>2026-04-18T15:38:01Z</time></trkpt><trkpt lat="43.71001485951611" lon="12.193384387212394"><ele>597.0</ele><time>2026-04-18T15:38:02Z</time></trkpt><trkpt lat="43.70993462373581" lon="12.193646526193206"><ele>600.0</ele><time>2026-04-18T15:38:03Z</time></trkpt><trkpt lat="43.709854662164666" lon="12.193906753006532"><ele>598.0</ele><time>2026-04-18T15:38:04Z</time></trkpt><trkpt lat="43.709779899061644" lon="12.194175822375684"><ele>596.0</ele><time>2026-04-18T15:38:05Z</time></trkpt><trkpt lat="43.70969968168276" lon="12.194435257978196"><ele>594.0</ele><time>2026-04-18T15:38:06Z</time></trkpt><trkpt lat="43.709612911459054" lon="12.194684102743956"><ele>592.0</ele><time>2026-04-18T15:38:07Z</time></trkpt><trkpt lat="43.709509910902554" lon="12.194905721495688"><ele>590.0</ele><time>2026-04-18T15:38:07.999Z</time></trkpt><trkpt lat="43.70938160818156" lon="12.195105438394199"><ele>588.0</ele><time>2026-04-18T15:38:08.999Z</time></trkpt><trkpt lat="43.709236217519155" lon="12.195282387281013"><ele>595.3333333333334</ele><time>2026-04-18T15:38:09.999Z</time></trkpt><trkpt lat="43.709068497822344" lon="12.195404000417705"><ele>602.6666666666667</ele><time>2026-04-18T15:38:10.999Z</time></trkpt><trkpt lat="43.70889636729512" lon="12.195506589288337"><ele>610.0</ele><time>2026-04-18T15:38:11.999Z</time></trkpt><trkpt lat="43.70871160228849" lon="12.195571243021607"><ele>612.6666666666667</ele><time>2026-04-18T15:38:12.999Z</time></trkpt><trkpt lat="43.70851541735161" lon="12.195609197547972"><ele>615.3333333333334</ele><time>2026-04-18T15:38:13.999Z</time></trkpt><trkpt lat="43.70831552060646" lon="12.19560339680921"><ele>618.0</ele><time>2026-04-18T15:38:14.999Z</time></trkpt><trkpt lat="43.70812098643459" lon="12.195561124929924"><ele>618.0</ele><time>2026-04-18T15:38:15.999Z</time></trkpt><trkpt lat="43.707932730444746" lon="12.19548215472616"><ele>618.0</ele><time>2026-04-18T15:38:16.999Z</time></trkpt><trkpt lat="43.70776021396135" lon="12.195360221003837"><ele>618.0</ele><time>2026-04-18T15:38:17.999Z</time></trkpt><trkpt lat="43.70759724946383" lon="12.195202083000597"><ele>620.0</ele><time>2026-04-18T15:38:18.999Z</time></trkpt><trkpt lat="43.70742405257616" lon="12.195048533553214"><ele>622.0</ele><time>2026-04-18T15:38:19.999Z</time></trkpt><trkpt lat="43.70725856381004" lon="12.194873748434611"><ele>624.0</ele><time>2026-04-18T15:38:20.999Z</time></trkpt><trkpt lat="43.70708610098903" lon="12.194698975616381"><ele>626.3333333333334</ele><time>2026-04-18T15:38:21.999Z</time></trkpt><trkpt lat="43.70690709613174" lon="12.194525384685218"><ele>628.6666666666667</ele><time>2026-04-18T15:38:22.999Z</time></trkpt><trkpt lat="43.70672284012912" lon="12.194344053022434"><ele>631.0</ele><time>2026-04-18T15:38:23.999Z</time></trkpt><trkpt lat="43.706544944869485" lon="12.194165758467813"><ele>634.6666666666667</ele><time>2026-04-18T15:38:24.999Z</time></trkpt><trkpt lat="43.70637759049986" lon="12.193996078658111"><ele>638.3333333333334</ele><time>2026-04-18T15:38:25.999Z</time></trkpt><trkpt lat="43.706221549077284" lon="12.193836488704097"><ele>642.0</ele><time>2026-04-18T15:38:26.999Z</time></trkpt><trkpt lat="43.7060777884026" lon="12.193692693507888"><ele>642.0</ele><time>2026-04-18T15:38:27.999Z</time></trkpt><trkpt lat="43.70593179607591" lon="12.193567221062363"><ele>642.0</ele><time>2026-04-18T15:38:28.999Z</time></trkpt><trkpt lat="43.70577202380753" lon="12.193477479359455"><ele>642.0</ele><time>2026-04-18T15:38:29.999Z</time></trkpt><trkpt lat="43.705601076806644" lon="12.193428813068362"><ele>642.0</ele><time>2026-04-18T15:38:30.999Z</time></trkpt><trkpt lat="43.705417486397145" lon="12.193405373875883"><ele>642.0</ele><time>2026-04-18T15:38:31.999Z</time></trkpt><trkpt lat="43.70522492099439" lon="12.19339612573376"><ele>642.0</ele><time>2026-04-18T15:38:32.999Z</time></trkpt><trkpt lat="43.70504312608738" lon="12.19340126524937"><ele>643.0</ele><time>2026-04-18T15:38:33.999Z</time></trkpt><trkpt lat="43.704878695970734" lon="12.193404352661746"><ele>644.0</ele><time>2026-04-18T15:38:34.999Z</time></trkpt><trkpt lat="43.70472875060198" lon="12.193370524704752"><ele>645.0</ele><time>2026-04-18T15:38:35.999Z</time></trkpt><trkpt lat="43.704577030939454" lon="12.193350043820862"><ele>645.0</ele><time>2026-04-18T15:38:36.999Z</time></trkpt><trkpt lat="43.70445384041898" lon="12.193282672582606"><ele>645.0</ele><time>2026-04-18T15:38:37.999Z</time></trkpt><trkpt lat="43.70435683301477" lon="12.193163161290656"><ele>645.0</ele><time>2026-04-18T15:38:38.999Z</time></trkpt><trkpt lat="43.704294720877506" lon="12.193004661890823"><ele>645.0</ele><time>2026-04-18T15:38:39.999Z</time></trkpt><trkpt lat="43.7042489100715" lon="12.192830289216054"><ele>646.5</ele><time>2026-04-18T15:38:40.999Z</time></trkpt><trkpt lat="43.7042987774447" lon="12.192640992434239"><ele>648.0</ele><time>2026-04-18T15:38:41.999Z</time></trkpt><trkpt lat="43.704375437531134" lon="12.192474323632585"><ele>649.5</ele><time>2026-04-18T15:38:42.999Z</time></trkpt><trkpt lat="43.704495491263195" lon="12.192354701712086"><ele>651.0</ele><time>2026-04-18T15:38:43.999Z</time></trkpt><trkpt lat="43.70464158973682" lon="12.192284643866405"><ele>655.6666666666666</ele><time>2026-04-18T15:38:44.999Z</time></trkpt><trkpt lat="43.7048053865099" lon="12.192234769106562"><ele>660.3333333333333</ele><time>2026-04-18T15:38:45.999Z</time></trkpt><trkpt lat="43.704974810485126" lon="12.192165104059793"><ele>665.0</ele><time>2026-04-18T15:38:46.999Z</time></trkpt><trkpt lat="43.70514680371702" lon="12.192122764593535"><ele>663.6666666666666</ele><time>2026-04-18T15:38:47.999Z</time></trkpt><trkpt lat="43.7053123116227" lon="12.192075632244983"><ele>662.3333333333334</ele><time>2026-04-18T15:38:48.999Z</time></trkpt><trkpt lat="43.705468104673294" lon="12.192028554709669"><ele>661.0</ele><time>2026-04-18T15:38:49.999Z</time></trkpt><trkpt lat="43.70561119052345" lon="12.191984649207987"><ele>661.0</ele><time>2026-04-18T15:38:50.999Z</time></trkpt><trkpt lat="43.7057347119296" lon="12.191924225483135"><ele>661.0</ele><time>2026-04-18T15:38:51.999Z</time></trkpt><trkpt lat="43.70583277925746" lon="12.191833409150199"><ele>661.0</ele><time>2026-04-18T15:38:52.999Z</time></trkpt><trkpt lat="43.70591211255975" lon="12.191701926550413"><ele>661.0</ele><time>2026-04-18T15:38:53.999Z</time></trkpt><trkpt lat="43.70595148141004" lon="12.191535751893834"><ele>664.75</ele><time>2026-04-18T15:38:54.999Z</time></trkpt><trkpt lat="43.70595079046408" lon="12.191354368685394"><ele>668.5</ele><time>2026-04-18T15:38:55.999Z</time></trkpt><trkpt lat="43.705910071758375" lon="12.191177377323884"><ele>672.25</ele><time>2026-04-18T15:38:56.999Z</time></trkpt><trkpt lat="43.705830982344864" lon="12.191018923050871"><ele>676.0</ele><time>2026-04-18T15:38:57.999Z</time></trkpt><trkpt lat="43.705728629978104" lon="12.190898439222025"><ele>676.0</ele><time>2026-04-18T15:38:58.999Z</time></trkpt><trkpt lat="43.70559706771338" lon="12.190848135322167"><ele>676.0</ele><time>2026-04-18T15:38:59.999Z</time></trkpt><trkpt lat="43.70544606920602" lon="12.190854892732435"><ele>676.0</ele><time>2026-04-18T15:39:00.999Z</time></trkpt><trkpt lat="43.70530212968437" lon="12.190881903117365"><ele>676.0</ele><time>2026-04-18T15:39:01.999Z</time></trkpt><trkpt lat="43.70513930991659" lon="12.190906993196142"><ele>676.0</ele><time>2026-04-18T15:39:02.999Z</time></trkpt><trkpt lat="43.70496921323299" lon="12.190926311565521"><ele>676.0</ele><time>2026-04-18T15:39:03.999Z</time></trkpt><trkpt lat="43.70479371400296" lon="12.190948710158303"><ele>676.0</ele><time>2026-04-18T15:39:04.999Z</time></trkpt><trkpt lat="43.70462791510243" lon="12.190955067459614"><ele>676.0</ele><time>2026-04-18T15:39:05.999Z</time></trkpt><trkpt lat="43.70446976813502" lon="12.190899920430011"><ele>676.0</ele><time>2026-04-18T15:39:06.999Z</time></trkpt><trkpt lat="43.70430880858046" lon="12.190835284964615"><ele>676.0</ele><time>2026-04-18T15:39:07.999Z</time></trkpt><trkpt lat="43.704147234339025" lon="12.190781392577243"><ele>675.6666666666667</ele><time>2026-04-18T15:39:08.999Z</time></trkpt><trkpt lat="43.703988249215605" lon="12.19071266605759"><ele>675.3333333333334</ele><time>2026-04-18T15:39:09.999Z</time></trkpt><trkpt lat="43.703831412506595" lon="12.190637842752716"><ele>675.0</ele><time>2026-04-18T15:39:10.999Z</time></trkpt><trkpt lat="43.70367636306723" lon="12.190557344513563"><ele>678.6666666666666</ele><time>2026-04-18T15:39:11.999Z</time></trkpt><trkpt lat="43.70352013197835" lon="12.19048411512325"><ele>682.3333333333333</ele><time>2026-04-18T15:39:12.999Z</time></trkpt><trkpt lat="43.70336526944986" lon="12.190412430769761"><ele>686.0</ele><time>2026-04-18T15:39:13.999Z</time></trkpt><trkpt lat="43.70323063515689" lon="12.190290281069492"><ele>686.0</ele><time>2026-04-18T15:39:14.999Z</time></trkpt><trkpt lat="43.70311343229235" lon="12.190148270229523"><ele>686.0</ele><time>2026-04-18T15:39:15.999Z</time></trkpt><trkpt lat="43.703019245846214" lon="12.18997139643849"><ele>686.0</ele><time>2026-04-18T15:39:16.999Z</time></trkpt><trkpt lat="43.70295164114241" lon="12.189775845275332"><ele>688.6666666666666</ele><time>2026-04-18T15:39:18Z</time></trkpt><trkpt lat="43.70291988464578" lon="12.189561163337782"><ele>691.3333333333334</ele><time>2026-04-18T15:39:19Z</time></trkpt><trkpt lat="43.70291892978999" lon="12.189344774788424"><ele>694.0</ele><time>2026-04-18T15:39:20Z</time></trkpt><trkpt lat="43.702934773232315" lon="12.189125889778042"><ele>692.75</ele><time>2026-04-18T15:39:21Z</time></trkpt><trkpt lat="43.702988883738755" lon="12.18893537011586"><ele>691.5</ele><time>2026-04-18T15:39:22Z</time></trkpt><trkpt lat="43.70307272450374" lon="12.188774186183844"><ele>690.25</ele><time>2026-04-18T15:39:23Z</time></trkpt><trkpt lat="43.70317168140893" lon="12.18861643454391"><ele>689.0</ele><time>2026-04-18T15:39:24Z</time></trkpt><trkpt lat="43.703297223271356" lon="12.188490113786042"><ele>689.0</ele><time>2026-04-18T15:39:25Z</time></trkpt><trkpt lat="43.7034305538132" lon="12.188363342124134"><ele>689.0</ele><time>2026-04-18T15:39:26Z</time></trkpt><trkpt lat="43.7035615977142" lon="12.18822262918932"><ele>689.0</ele><time>2026-04-18T15:39:27Z</time></trkpt><trkpt lat="43.70370050928335" lon="12.188079392342656"><ele>690.0</ele><time>2026-04-18T15:39:28Z</time></trkpt><trkpt lat="43.703841289401716" lon="12.18793711537303"><ele>691.0</ele><time>2026-04-18T15:39:29Z</time></trkpt><trkpt lat="43.70397845257102" lon="12.187788969698971"><ele>692.0</ele><time>2026-04-18T15:39:30Z</time></trkpt><trkpt lat="43.70412202679635" lon="12.187660237693297"><ele>692.0</ele><time>2026-04-18T15:39:31Z</time></trkpt><trkpt lat="43.704247187808264" lon="12.187498810580045"><ele>692.0</ele><time>2026-04-18T15:39:32Z</time></trkpt><trkpt lat="43.704379358103274" lon="12.187357011063538"><ele>692.0</ele><time>2026-04-18T15:39:33Z</time></trkpt><trkpt lat="43.70450991694894" lon="12.187217979957701"><ele>692.0</ele><time>2026-04-18T15:39:34Z</time></trkpt><trkpt lat="43.704647754197055" lon="12.187077080383085"><ele>692.0</ele><time>2026-04-18T15:39:35Z</time></trkpt><trkpt lat="43.70479219045493" lon="12.186932594881242"><ele>692.0</ele><time>2026-04-18T15:39:36Z</time></trkpt><trkpt lat="43.704936357074594" lon="12.186790432620088"><ele>692.0</ele><time>2026-04-18T15:39:37Z</time></trkpt><trkpt lat="43.70507515533576" lon="12.186636729959709"><ele>692.0</ele><time>2026-04-18T15:39:38Z</time></trkpt><trkpt lat="43.705206678293194" lon="12.18647407334633"><ele>692.0</ele><time>2026-04-18T15:39:39Z</time></trkpt><trkpt lat="43.70533344316533" lon="12.186309835438797"><ele>694.3333333333333</ele><time>2026-04-18T15:39:40Z</time></trkpt><trkpt lat="43.705453940138426" lon="12.186146777727268"><ele>696.6666666666666</ele><time>2026-04-18T15:39:41Z</time></trkpt><trkpt lat="43.70557300634259" lon="12.185981525679502"><ele>699.0</ele><time>2026-04-18T15:39:42Z</time></trkpt><trkpt lat="43.70568991358231" lon="12.185818925203497"><ele>696.6666666666666</ele><time>2026-04-18T15:39:43Z</time></trkpt><trkpt lat="43.705806925645" lon="12.185655426497998"><ele>694.3333333333333</ele><time>2026-04-18T15:39:44Z</time></trkpt><trkpt lat="43.70592395984192" lon="12.18549411063327"><ele>692.0</ele><time>2026-04-18T15:39:45Z</time></trkpt><trkpt lat="43.70604014780019" lon="12.185335922285747"><ele>694.3333333333333</ele><time>2026-04-18T15:39:46Z</time></trkpt><trkpt lat="43.70615753394462" lon="12.185177364887197"><ele>696.6666666666666</ele><time>2026-04-18T15:39:47Z</time></trkpt><trkpt lat="43.70627514451297" lon="12.185017686112825"><ele>699.0</ele><time>2026-04-18T15:39:48Z</time></trkpt><trkpt lat="43.70639191217567" lon="12.184856875080426"><ele>697.0</ele><time>2026-04-18T15:39:49Z</time></trkpt><trkpt lat="43.706505273728276" lon="12.184703687295785"><ele>695.0</ele><time>2026-04-18T15:39:50Z</time></trkpt><trkpt lat="43.706615611335764" lon="12.184562883213266"><ele>693.0</ele><time>2026-04-18T15:39:51Z</time></trkpt><trkpt lat="43.70674687172095" lon="12.18443431577566"><ele>693.0</ele><time>2026-04-18T15:39:52Z</time></trkpt><trkpt lat="43.70690379850716" lon="12.184369439243152"><ele>693.0</ele><time>2026-04-18T15:39:53Z</time></trkpt><trkpt lat="43.70707636397185" lon="12.184336556985443"><ele>693.0</ele><time>2026-04-18T15:39:54Z</time></trkpt><trkpt lat="43.70714698977493" lon="12.184257827016959"><ele>693.0</ele><time>2026-04-18T15:39:55Z</time></trkpt><trkpt lat="43.707289630047576" lon="12.184254412986606"><ele>692.6666666666666</ele><time>2026-04-18T15:39:56Z</time></trkpt><trkpt lat="43.70744517497033" lon="12.184273783494595"><ele>692.3333333333333</ele><time>2026-04-18T15:39:57Z</time></trkpt><trkpt lat="43.7076076463722" lon="12.184292898950964"><ele>692.0</ele><time>2026-04-18T15:39:58Z</time></trkpt><trkpt lat="43.70777197654456" lon="12.184310119709103"><ele>692.0</ele><time>2026-04-18T15:39:59Z</time></trkpt><trkpt lat="43.70793366552733" lon="12.184310990995586"><ele>692.0</ele><time>2026-04-18T15:40:00Z</time></trkpt><trkpt lat="43.708089992360755" lon="12.18432724638183"><ele>692.0</ele><time>2026-04-18T15:40:01Z</time></trkpt><trkpt lat="43.70824573597685" lon="12.184311731875649"><ele>692.0</ele><time>2026-04-18T15:40:02Z</time></trkpt><trkpt lat="43.70840208824549" lon="12.184255954522857"><ele>692.0</ele><time>2026-04-18T15:40:03Z</time></trkpt><trkpt lat="43.708549519843416" lon="12.184166783574135"><ele>692.0</ele><time>2026-04-18T15:40:04Z</time></trkpt><trkpt lat="43.70868070088156" lon="12.184035133995971"><ele>693.6666666666666</ele><time>2026-04-18T15:40:05Z</time></trkpt><trkpt lat="43.708793441050396" lon="12.183868587285124"><ele>695.3333333333334</ele><time>2026-04-18T15:40:06Z</time></trkpt><trkpt lat="43.70889080505762" lon="12.183681535817167"><ele>697.0</ele><time>2026-04-18T15:40:07Z</time></trkpt><trkpt lat="43.708976240013286" lon="12.18348362987132"><ele>697.0</ele><time>2026-04-18T15:40:08Z</time></trkpt><trkpt lat="43.70906520054044" lon="12.183283376990607"><ele>697.0</ele><time>2026-04-18T15:40:09Z</time></trkpt><trkpt lat="43.709161378881696" lon="12.183087509232076"><ele>697.0</ele><time>2026-04-18T15:40:10Z</time></trkpt><trkpt lat="43.709257062019965" lon="12.182900402032034"><ele>695.6666666666667</ele><time>2026-04-18T15:40:11Z</time></trkpt><trkpt lat="43.709348129497016" lon="12.182710820470458"><ele>694.3333333333334</ele><time>2026-04-18T15:40:12Z</time></trkpt><trkpt lat="43.70942421969325" lon="12.182512138057998"><ele>693.0</ele><time>2026-04-18T15:40:13Z</time></trkpt><trkpt lat="43.709483804020486" lon="12.182323039101858"><ele>696.75</ele><time>2026-04-18T15:40:14Z</time></trkpt><trkpt lat="43.70954011959498" lon="12.182147900724484"><ele>700.5</ele><time>2026-04-18T15:40:15Z</time></trkpt><trkpt lat="43.70959490063952" lon="12.181993170209692"><ele>704.25</ele><time>2026-04-18T15:40:16Z</time></trkpt><trkpt lat="43.709643877763035" lon="12.181835610922173"><ele>708.0</ele><time>2026-04-18T15:40:17Z</time></trkpt><trkpt lat="43.70968674496788" lon="12.181700341089988"><ele>708.0</ele><time>2026-04-18T15:40:18Z</time></trkpt><trkpt lat="43.7097323777158" lon="12.181562008697894"><ele>708.0</ele><time>2026-04-18T15:40:19Z</time></trkpt><trkpt lat="43.709779573348804" lon="12.18142477507291"><ele>708.0</ele><time>2026-04-18T15:40:20Z</time></trkpt><trkpt lat="43.70983190943171" lon="12.181269512726907"><ele>708.0</ele><time>2026-04-18T15:40:21Z</time></trkpt><trkpt lat="43.70989456539982" lon="12.18109040550478"><ele>709.0</ele><time>2026-04-18T15:40:22Z</time></trkpt><trkpt lat="43.70996204700626" lon="12.180894479943829"><ele>710.0</ele><time>2026-04-18T15:40:23Z</time></trkpt><trkpt lat="43.71003880717684" lon="12.18067540883702"><ele>711.0</ele><time>2026-04-18T15:40:24Z</time></trkpt><trkpt lat="43.71010938094667" lon="12.180459055084077"><ele>712.0</ele><time>2026-04-18T15:40:25Z</time></trkpt><trkpt lat="43.71018005940278" lon="12.180250808346939"><ele>713.0</ele><time>2026-04-18T15:40:26Z</time></trkpt><trkpt lat="43.71023902432631" lon="12.180033403714901"><ele>714.0</ele><time>2026-04-18T15:40:27Z</time></trkpt><trkpt lat="43.71027818608761" lon="12.179806815804072"><ele>723.0</ele><time>2026-04-18T15:40:28Z</time></trkpt><trkpt lat="43.71029180017773" lon="12.179558251780689"><ele>732.0</ele><time>2026-04-18T15:40:29Z</time></trkpt><trkpt lat="43.7102755891443" lon="12.17929895082522"><ele>741.0</ele><time>2026-04-18T15:40:30Z</time></trkpt><trkpt lat="43.71024568779184" lon="12.17905377519558"><ele>734.3333333333334</ele><time>2026-04-18T15:40:31Z</time></trkpt><trkpt lat="43.71021536196596" lon="12.178836647339363"><ele>727.6666666666667</ele><time>2026-04-18T15:40:32Z</time></trkpt><trkpt lat="43.71019590577443" lon="12.17861478978377"><ele>721.0</ele><time>2026-04-18T15:40:33Z</time></trkpt><trkpt lat="43.71018934458892" lon="12.178394942677153"><ele>721.3333333333334</ele><time>2026-04-18T15:40:34Z</time></trkpt><trkpt lat="43.71020097862317" lon="12.178176430209879"><ele>721.6666666666666</ele><time>2026-04-18T15:40:35Z</time></trkpt><trkpt lat="43.71023686459224" lon="12.177953115633164"><ele>722.0</ele><time>2026-04-18T15:40:36Z</time></trkpt><trkpt lat="43.71031984380331" lon="12.177742209917586"><ele>729.3333333333333</ele><time>2026-04-18T15:40:37Z</time></trkpt><trkpt lat="43.71040876077409" lon="12.177530025934347"><ele>736.6666666666666</ele><time>2026-04-18T15:40:38Z</time></trkpt><trkpt lat="43.710497860603176" lon="12.177304459973692"><ele>744.0</ele><time>2026-04-18T15:40:39Z</time></trkpt><trkpt lat="43.71058926133693" lon="12.177079184676806"><ele>745.3333333333334</ele><time>2026-04-18T15:40:40Z</time></trkpt><trkpt lat="43.710658934317344" lon="12.176847814555389"><ele>746.6666666666667</ele><time>2026-04-18T15:40:41Z</time></trkpt><trkpt lat="43.710701303517766" lon="12.176609566380447"><ele>748.0</ele><time>2026-04-18T15:40:42Z</time></trkpt><trkpt lat="43.710714738282235" lon="12.17636150707474"><ele>751.3333333333334</ele><time>2026-04-18T15:40:43Z</time></trkpt><trkpt lat="43.710701031930085" lon="12.17610239211203"><ele>754.6666666666666</ele><time>2026-04-18T15:40:44Z</time></trkpt><trkpt lat="43.71067210812873" lon="12.175834266523434"><ele>758.0</ele><time>2026-04-18T15:40:45Z</time></trkpt><trkpt lat="43.710640589944106" lon="12.175555527634396"><ele>759.6666666666666</ele><time>2026-04-18T15:40:46Z</time></trkpt><trkpt lat="43.710612524548054" lon="12.175273987150723"><ele>761.3333333333334</ele><time>2026-04-18T15:40:47Z</time></trkpt><trkpt lat="43.71059017047213" lon="12.17498668518568"><ele>763.0</ele><time>2026-04-18T15:40:48Z</time></trkpt><trkpt lat="43.71056508262595" lon="12.17470564618999"><ele>764.3333333333334</ele><time>2026-04-18T15:40:49Z</time></trkpt><trkpt lat="43.7105429984275" lon="12.17443318987807"><ele>765.6666666666666</ele><time>2026-04-18T15:40:50Z</time></trkpt><trkpt lat="43.71052456626899" lon="12.174176480342275"><ele>767.0</ele><time>2026-04-18T15:40:51Z</time></trkpt><trkpt lat="43.71049712900222" lon="12.173941918285365"><ele>772.6666666666666</ele><time>2026-04-18T15:40:52Z</time></trkpt><trkpt lat="43.710454814677846" lon="12.173731425561092"><ele>778.3333333333333</ele><time>2026-04-18T15:40:53Z</time></trkpt><trkpt lat="43.710391006648" lon="12.173532016139053"><ele>784.0</ele><time>2026-04-18T15:40:54Z</time></trkpt><trkpt lat="43.71030158335583" lon="12.173335081341044"><ele>778.3333333333333</ele><time>2026-04-18T15:40:55Z</time></trkpt><trkpt lat="43.71020388046288" lon="12.173147569082072"><ele>772.6666666666666</ele><time>2026-04-18T15:40:56Z</time></trkpt><trkpt lat="43.71012116109627" lon="12.17295616060515"><ele>767.0</ele><time>2026-04-18T15:40:57Z</time></trkpt><trkpt lat="43.71007273043565" lon="12.172745795954956"><ele>767.0</ele><time>2026-04-18T15:40:58Z</time></trkpt><trkpt lat="43.710069349475916" lon="12.172521765025255"><ele>767.0</ele><time>2026-04-18T15:40:59Z</time></trkpt><trkpt lat="43.710082684328704" lon="12.172298319313654"><ele>767.0</ele><time>2026-04-18T15:41:00Z</time></trkpt><trkpt lat="43.7101220519588" lon="12.172072081060847"><ele>768.6666666666666</ele><time>2026-04-18T15:41:01Z</time></trkpt><trkpt lat="43.71018844226142" lon="12.171854164361735"><ele>770.3333333333333</ele><time>2026-04-18T15:41:02Z</time></trkpt><trkpt lat="43.71024341063672" lon="12.171616255475003"><ele>772.0</ele><time>2026-04-18T15:41:02.999Z</time></trkpt><trkpt lat="43.71030962404008" lon="12.171384438891558"><ele>779.6666666666666</ele><time>2026-04-18T15:41:03.999Z</time></trkpt><trkpt lat="43.71035639188559" lon="12.171155052371205"><ele>787.3333333333333</ele><time>2026-04-18T15:41:04.999Z</time></trkpt><trkpt lat="43.71037226590349" lon="12.17091341025452"><ele>795.0</ele><time>2026-04-18T15:41:05.999Z</time></trkpt><trkpt lat="43.71037206497177" lon="12.170632936324447"><ele>798.0</ele><time>2026-04-18T15:41:06.999Z</time></trkpt><trkpt lat="43.71034105208105" lon="12.170349861312378"><ele>801.0</ele><time>2026-04-18T15:41:07.999Z</time></trkpt><trkpt lat="43.71030291997255" lon="12.170057763598917"><ele>804.0</ele><time>2026-04-18T15:41:08.999Z</time></trkpt><trkpt lat="43.710264681674104" lon="12.169764852466836"><ele>803.0</ele><time>2026-04-18T15:41:09.999Z</time></trkpt><trkpt lat="43.710224085930456" lon="12.16945755783297"><ele>802.0</ele><time>2026-04-18T15:41:10.999Z</time></trkpt><trkpt lat="43.71018456453491" lon="12.169158691321355"><ele>801.0</ele><time>2026-04-18T15:41:11.999Z</time></trkpt><trkpt lat="43.71014715455642" lon="12.16887579171953"><ele>799.0</ele><time>2026-04-18T15:41:12.999Z</time></trkpt><trkpt lat="43.71011921567018" lon="12.168602123409967"><ele>797.0</ele><time>2026-04-18T15:41:14.063Z</time></trkpt><trkpt lat="43.710117053235116" lon="12.168401926188075"><ele>795.0</ele><time>2026-04-18T15:41:14.999Z</time></trkpt><trkpt lat="43.710209737811816" lon="12.168148996717884"><ele>795.0</ele><time>2026-04-18T15:41:16.999Z</time></trkpt><trkpt lat="43.71025044191803" lon="12.1678758694742"><ele>795.0</ele><time>2026-04-18T15:41:17.999Z</time></trkpt><trkpt lat="43.71029354652314" lon="12.16763715137481"><ele>795.0</ele><time>2026-04-18T15:41:18.999Z</time></trkpt><trkpt lat="43.71039616240179" lon="12.167399769190022"><ele>792.0</ele><time>2026-04-18T15:41:19.999Z</time></trkpt><trkpt lat="43.71050207884154" lon="12.167184207087624"><ele>789.0</ele><time>2026-04-18T15:41:20.999Z</time></trkpt><trkpt lat="43.71059510803482" lon="12.166984399556116"><ele>786.0</ele><time>2026-04-18T15:41:21.999Z</time></trkpt><trkpt lat="43.71069717376735" lon="12.166746220680386"><ele>781.6666666666667</ele><time>2026-04-18T15:41:23.001Z</time></trkpt><trkpt lat="43.71077829874455" lon="12.166494684915179"><ele>777.3333333333334</ele><time>2026-04-18T15:41:24.001Z</time></trkpt><trkpt lat="43.71089044397875" lon="12.16625066540017"><ele>773.0</ele><time>2026-04-18T15:41:25Z</time></trkpt><trkpt lat="43.71098894038692" lon="12.165992147293053"><ele>777.6666666666667</ele><time>2026-04-18T15:41:26Z</time></trkpt><trkpt lat="43.711087049194624" lon="12.165735947278607"><ele>782.3333333333333</ele><time>2026-04-18T15:41:27Z</time></trkpt><trkpt lat="43.71116732924493" lon="12.165480683877979"><ele>787.0</ele><time>2026-04-18T15:41:28Z</time></trkpt><trkpt lat="43.71127026488535" lon="12.16525857508193"><ele>787.0</ele><time>2026-04-18T15:41:29Z</time></trkpt><trkpt lat="43.711361620194694" lon="12.165034866606355"><ele>787.0</ele><time>2026-04-18T15:41:30Z</time></trkpt><trkpt lat="43.711446603485626" lon="12.164798702172238"><ele>787.0</ele><time>2026-04-18T15:41:31Z</time></trkpt><trkpt lat="43.711546427459965" lon="12.164576661664409"><ele>784.3333333333333</ele><time>2026-04-18T15:41:32Z</time></trkpt><trkpt lat="43.71163690257338" lon="12.164366828840341"><ele>781.6666666666667</ele><time>2026-04-18T15:41:33Z</time></trkpt><trkpt lat="43.71174004147211" lon="12.164177111716041"><ele>779.0</ele><time>2026-04-18T15:41:34Z</time></trkpt><trkpt lat="43.7118142570213" lon="12.16397004709792"><ele>780.3333333333334</ele><time>2026-04-18T15:41:35Z</time></trkpt><trkpt lat="43.71191741985679" lon="12.163800375702758"><ele>781.6666666666667</ele><time>2026-04-18T15:41:36Z</time></trkpt><trkpt lat="43.71202455329819" lon="12.1636309699841"><ele>783.0</ele><time>2026-04-18T15:41:37Z</time></trkpt><trkpt lat="43.71214522333423" lon="12.163495521358113"><ele>783.0</ele><time>2026-04-18T15:41:38Z</time></trkpt><trkpt lat="43.71226996427097" lon="12.16336614907523"><ele>783.0</ele><time>2026-04-18T15:41:39Z</time></trkpt><trkpt lat="43.712361924984066" lon="12.163221453316133"><ele>783.0</ele><time>2026-04-18T15:41:40Z</time></trkpt><trkpt lat="43.71244229831167" lon="12.163077887687654"><ele>783.0</ele><time>2026-04-18T15:41:41Z</time></trkpt><trkpt lat="43.71248292999929" lon="12.162910689770293"><ele>782.5</ele><time>2026-04-18T15:41:42Z</time></trkpt><trkpt lat="43.712487601003275" lon="12.162721776682575"><ele>782.0</ele><time>2026-04-18T15:41:43Z</time></trkpt><trkpt lat="43.71243148874051" lon="12.162541488956325"><ele>781.5</ele><time>2026-04-18T15:41:44Z</time></trkpt><trkpt lat="43.71236912226769" lon="12.162370712823654"><ele>781.0</ele><time>2026-04-18T15:41:45Z</time></trkpt><trkpt lat="43.712284258396906" lon="12.162207268957337"><ele>781.0</ele><time>2026-04-18T15:41:46Z</time></trkpt><trkpt lat="43.71219376720522" lon="12.162054582603743"><ele>781.0</ele><time>2026-04-18T15:41:47Z</time></trkpt><trkpt lat="43.71209926661041" lon="12.161928884456275"><ele>781.0</ele><time>2026-04-18T15:41:47.999Z</time></trkpt><trkpt lat="43.71199069336767" lon="12.16184751607573"><ele>781.0</ele><time>2026-04-18T15:41:48.999Z</time></trkpt><trkpt lat="43.71186984507715" lon="12.161814665079756"><ele>781.0</ele><time>2026-04-18T15:41:49.999Z</time></trkpt><trkpt lat="43.71173761113691" lon="12.161819946315712"><ele>781.0</ele><time>2026-04-18T15:41:50.999Z</time></trkpt><trkpt lat="43.71160569602606" lon="12.161843519430779"><ele>781.0</ele><time>2026-04-18T15:41:51.999Z</time></trkpt><trkpt lat="43.711476421118945" lon="12.161872374297461"><ele>781.0</ele><time>2026-04-18T15:41:52.999Z</time></trkpt><trkpt lat="43.71135840193287" lon="12.161852122992153"><ele>781.0</ele><time>2026-04-18T15:41:53.999Z</time></trkpt><trkpt lat="43.71124449088223" lon="12.161790602519881"><ele>781.0</ele><time>2026-04-18T15:41:54.999Z</time></trkpt><trkpt lat="43.71114223783218" lon="12.161672104191641"><ele>781.0</ele><time>2026-04-18T15:41:55.999Z</time></trkpt><trkpt lat="43.71105640213279" lon="12.161520686010979"><ele>781.0</ele><time>2026-04-18T15:41:56.999Z</time></trkpt><trkpt lat="43.71099168023166" lon="12.161350535663926"><ele>780.0</ele><time>2026-04-18T15:41:57.999Z</time></trkpt><trkpt lat="43.71093434682027" lon="12.161179455946241"><ele>779.0</ele><time>2026-04-18T15:41:58.999Z</time></trkpt><trkpt lat="43.71087754380255" lon="12.161010839177171"><ele>778.0</ele><time>2026-04-18T15:41:59.999Z</time></trkpt><trkpt lat="43.710820524735595" lon="12.160851265470436"><ele>777.0</ele><time>2026-04-18T15:42:00.999Z</time></trkpt><trkpt lat="43.71075157738301" lon="12.160711955985297"><ele>781.25</ele><time>2026-04-18T15:42:01.999Z</time></trkpt><trkpt lat="43.71066333989666" lon="12.160597621952643"><ele>785.5</ele><time>2026-04-18T15:42:02.999Z</time></trkpt><trkpt lat="43.71054998588251" lon="12.16051811975333"><ele>789.75</ele><time>2026-04-18T15:42:03.999Z</time></trkpt><trkpt lat="43.71042378474737" lon="12.160478731153496"><ele>794.0</ele><time>2026-04-18T15:42:04.999Z</time></trkpt><trkpt lat="43.71029239563337" lon="12.160478899742307"><ele>791.25</ele><time>2026-04-18T15:42:05.999Z</time></trkpt><trkpt lat="43.710158693885454" lon="12.160481553473122"><ele>788.5</ele><time>2026-04-18T15:42:06.999Z</time></trkpt><trkpt lat="43.7100225515053" lon="12.160429675136049"><ele>785.75</ele><time>2026-04-18T15:42:07.999Z</time></trkpt><trkpt lat="43.70988697512666" lon="12.160338834234269"><ele>783.0</ele><time>2026-04-18T15:42:08.999Z</time></trkpt><trkpt lat="43.70976117420849" lon="12.160231480578528"><ele>783.0</ele><time>2026-04-18T15:42:09.999Z</time></trkpt><trkpt lat="43.70964729011623" lon="12.16011997567569"><ele>783.0</ele><time>2026-04-18T15:42:10.999Z</time></trkpt><trkpt lat="43.7095560597569" lon="12.159992360509543"><ele>783.0</ele><time>2026-04-18T15:42:11.999Z</time></trkpt><trkpt lat="43.709500538868895" lon="12.159850199297273"><ele>783.0</ele><time>2026-04-18T15:42:12.999Z</time></trkpt><trkpt lat="43.709472954334956" lon="12.159689832607105"><ele>784.75</ele><time>2026-04-18T15:42:13.999Z</time></trkpt><trkpt lat="43.70950189101901" lon="12.159504366719236"><ele>786.5</ele><time>2026-04-18T15:42:14.999Z</time></trkpt><trkpt lat="43.70949754940264" lon="12.15930639945504"><ele>788.25</ele><time>2026-04-18T15:42:15.999Z</time></trkpt><trkpt lat="43.70951535723236" lon="12.159093986463963"><ele>790.0</ele><time>2026-04-18T15:42:16.999Z</time></trkpt><trkpt lat="43.709527396221404" lon="12.158878203001247"><ele>791.6666666666666</ele><time>2026-04-18T15:42:17.999Z</time></trkpt><trkpt lat="43.70953352550988" lon="12.158654417055157"><ele>793.3333333333333</ele><time>2026-04-18T15:42:18.999Z</time></trkpt><trkpt lat="43.70953769379905" lon="12.158442522249223"><ele>795.0</ele><time>2026-04-18T15:42:19.999Z</time></trkpt><trkpt lat="43.70954850309239" lon="12.158231975300131"><ele>797.6666666666667</ele><time>2026-04-18T15:42:20.999Z</time></trkpt><trkpt lat="43.709570908217735" lon="12.158020833028027"><ele>800.3333333333334</ele><time>2026-04-18T15:42:21.999Z</time></trkpt><trkpt lat="43.70959158738771" lon="12.157803606520227"><ele>803.0</ele><time>2026-04-18T15:42:22.999Z</time></trkpt><trkpt lat="43.7096220291455" lon="12.157585325855836"><ele>803.0</ele><time>2026-04-18T15:42:23.999Z</time></trkpt><trkpt lat="43.7096566750428" lon="12.157383419621716"><ele>803.0</ele><time>2026-04-18T15:42:24.999Z</time></trkpt><trkpt lat="43.70967101602161" lon="12.157182685655181"><ele>803.0</ele><time>2026-04-18T15:42:25.999Z</time></trkpt><trkpt lat="43.70965387363773" lon="12.156980555884708"><ele>803.0</ele><time>2026-04-18T15:42:26.999Z</time></trkpt><trkpt lat="43.709601776368714" lon="12.15678293684664"><ele>804.3333333333334</ele><time>2026-04-18T15:42:27.999Z</time></trkpt><trkpt lat="43.70953249025459" lon="12.156586232390124"><ele>805.6666666666667</ele><time>2026-04-18T15:42:28.999Z</time></trkpt><trkpt lat="43.70946735918417" lon="12.156381113687784"><ele>807.0</ele><time>2026-04-18T15:42:29.999Z</time></trkpt><trkpt lat="43.70943133501257" lon="12.156155147536337"><ele>801.6666666666667</ele><time>2026-04-18T15:42:30.999Z</time></trkpt><trkpt lat="43.70938728941141" lon="12.155917964877005"><ele>796.3333333333334</ele><time>2026-04-18T15:42:31.999Z</time></trkpt><trkpt lat="43.709342488213004" lon="12.155669717005786"><ele>791.0</ele><time>2026-04-18T15:42:32.999Z</time></trkpt><trkpt lat="43.70928318198871" lon="12.155422319958431"><ele>791.0</ele><time>2026-04-18T15:42:33.999Z</time></trkpt><trkpt lat="43.70923981199341" lon="12.155174839997148"><ele>791.0</ele><time>2026-04-18T15:42:34.999Z</time></trkpt><trkpt lat="43.709201871115184" lon="12.154938765208724"><ele>791.0</ele><time>2026-04-18T15:42:35.999Z</time></trkpt><trkpt lat="43.70916314187348" lon="12.154712079134509"><ele>794.0</ele><time>2026-04-18T15:42:36.999Z</time></trkpt><trkpt lat="43.70911988209358" lon="12.154500572613207"><ele>797.0</ele><time>2026-04-18T15:42:37.999Z</time></trkpt><trkpt lat="43.70905581753804" lon="12.15430480379045"><ele>800.0</ele><time>2026-04-18T15:42:38.999Z</time></trkpt><trkpt lat="43.70896645657397" lon="12.15413076556922"><ele>801.75</ele><time>2026-04-18T15:42:39.999Z</time></trkpt><trkpt lat="43.70885420214294" lon="12.153983093786074"><ele>803.5</ele><time>2026-04-18T15:42:40.999Z</time></trkpt><trkpt lat="43.70876025382547" lon="12.153834512578221"><ele>805.25</ele><time>2026-04-18T15:42:41.999Z</time></trkpt><trkpt lat="43.70868281022728" lon="12.153705696106444"><ele>807.0</ele><time>2026-04-18T15:42:42.999Z</time></trkpt><trkpt lat="43.708628156192695" lon="12.153573441854794"><ele>807.0</ele><time>2026-04-18T15:42:43.999Z</time></trkpt><trkpt lat="43.70863159418054" lon="12.15341893638862"><ele>807.0</ele><time>2026-04-18T15:42:44.999Z</time></trkpt><trkpt lat="43.70870857484807" lon="12.153292314471727"><ele>807.0</ele><time>2026-04-18T15:42:45.999Z</time></trkpt><trkpt lat="43.70878125996745" lon="12.153158070478147"><ele>807.0</ele><time>2026-04-18T15:42:46.999Z</time></trkpt><trkpt lat="43.708856615655876" lon="12.153013067656046"><ele>807.0</ele><time>2026-04-18T15:42:47.999Z</time></trkpt><trkpt lat="43.70890301441369" lon="12.152841295000586"><ele>807.0</ele><time>2026-04-18T15:42:48.999Z</time></trkpt><trkpt lat="43.70892537411891" lon="12.152642035129752"><ele>807.0</ele><time>2026-04-18T15:42:49.999Z</time></trkpt><trkpt lat="43.708914034815955" lon="12.152421717030961"><ele>807.0</ele><time>2026-04-18T15:42:50.999Z</time></trkpt><trkpt lat="43.70889209023413" lon="12.152207756841873"><ele>809.0</ele><time>2026-04-18T15:42:51.999Z</time></trkpt><trkpt lat="43.708866023826815" lon="12.152014831625669"><ele>811.0</ele><time>2026-04-18T15:42:52.999Z</time></trkpt><trkpt lat="43.70883895559355" lon="12.151840968179442"><ele>813.0</ele><time>2026-04-18T15:42:53.999Z</time></trkpt><trkpt lat="43.7087871081019" lon="12.151695716174705"><ele>815.0</ele><time>2026-04-18T15:42:54.999Z</time></trkpt><trkpt lat="43.708704259394814" lon="12.151577617691695"><ele>814.75</ele><time>2026-04-18T15:42:55.999Z</time></trkpt><trkpt lat="43.70859955688389" lon="12.151479085995124"><ele>814.5</ele><time>2026-04-18T15:42:56.999Z</time></trkpt><trkpt lat="43.70846959197529" lon="12.151401186985936"><ele>814.25</ele><time>2026-04-18T15:42:57.999Z</time></trkpt><trkpt lat="43.70833775297742" lon="12.15134011208924"><ele>814.0</ele><time>2026-04-18T15:42:58.999Z</time></trkpt><trkpt lat="43.708201989236414" lon="12.151313353650227"><ele>814.0</ele><time>2026-04-18T15:42:59.999Z</time></trkpt><trkpt lat="43.708067594282674" lon="12.151331776050174"><ele>814.0</ele><time>2026-04-18T15:43:00.999Z</time></trkpt><trkpt lat="43.707942093235886" lon="12.151379059201906"><ele>814.0</ele><time>2026-04-18T15:43:01.999Z</time></trkpt><trkpt lat="43.707816625229086" lon="12.151415186788137"><ele>814.0</ele><time>2026-04-18T15:43:02.999Z</time></trkpt><trkpt lat="43.70768804726889" lon="12.151399942608053"><ele>811.0</ele><time>2026-04-18T15:43:03.999Z</time></trkpt><trkpt lat="43.70757040294214" lon="12.151322591596532"><ele>808.0</ele><time>2026-04-18T15:43:04.999Z</time></trkpt><trkpt lat="43.707498355821464" lon="12.151183467820886"><ele>805.0</ele><time>2026-04-18T15:43:05.999Z</time></trkpt><trkpt lat="43.70742210793464" lon="12.15103686407739"><ele>802.0</ele><time>2026-04-18T15:43:06.999Z</time></trkpt><trkpt lat="43.70740321445306" lon="12.150846067941487"><ele>804.5</ele><time>2026-04-18T15:43:07.999Z</time></trkpt><trkpt lat="43.70735672634475" lon="12.15065402568139"><ele>807.0</ele><time>2026-04-18T15:43:08.999Z</time></trkpt><trkpt lat="43.707333349731435" lon="12.150461041855484"><ele>809.5</ele><time>2026-04-18T15:43:09.999Z</time></trkpt><trkpt lat="43.7072961758511" lon="12.150288747255898"><ele>812.0</ele><time>2026-04-18T15:43:10.999Z</time></trkpt><trkpt lat="43.70723005712541" lon="12.150139860641195"><ele>812.0</ele><time>2026-04-18T15:43:11.999Z</time></trkpt><trkpt lat="43.70713528504145" lon="12.150005756159272"><ele>812.0</ele><time>2026-04-18T15:43:12.999Z</time></trkpt><trkpt lat="43.707020102165" lon="12.149908115566104"><ele>812.0</ele><time>2026-04-18T15:43:13.999Z</time></trkpt><trkpt lat="43.70689904188637" lon="12.149866864746059"><ele>812.0</ele><time>2026-04-18T15:43:14.999Z</time></trkpt><trkpt lat="43.70678139488251" lon="12.149872694024996"><ele>812.0</ele><time>2026-04-18T15:43:15.999Z</time></trkpt><trkpt lat="43.706669398007065" lon="12.149929450279346"><ele>812.0</ele><time>2026-04-18T15:43:16.999Z</time></trkpt><trkpt lat="43.70656628721955" lon="12.150033747673945"><ele>812.0</ele><time>2026-04-18T15:43:17.999Z</time></trkpt><trkpt lat="43.70647844074315" lon="12.150168770477471"><ele>812.0</ele><time>2026-04-18T15:43:18.999Z</time></trkpt><trkpt lat="43.70640098803338" lon="12.150322538856713"><ele>812.0</ele><time>2026-04-18T15:43:19.999Z</time></trkpt><trkpt lat="43.70630672834316" lon="12.15043137378548"><ele>812.0</ele><time>2026-04-18T15:43:20.999Z</time></trkpt><trkpt lat="43.706188426185264" lon="12.150476117333804"><ele>812.0</ele><time>2026-04-18T15:43:21.999Z</time></trkpt><trkpt lat="43.70607240648956" lon="12.15044943049069"><ele>812.0</ele><time>2026-04-18T15:43:22.999Z</time></trkpt><trkpt lat="43.70597833230284" lon="12.150333398830856"><ele>812.75</ele><time>2026-04-18T15:43:23.999Z</time></trkpt><trkpt lat="43.70587788446406" lon="12.150210955963374"><ele>813.5</ele><time>2026-04-18T15:43:24.999Z</time></trkpt><trkpt lat="43.705761439033445" lon="12.150082703195189"><ele>814.25</ele><time>2026-04-18T15:43:25.999Z</time></trkpt><trkpt lat="43.70563320664838" lon="12.149963208603983"><ele>815.0</ele><time>2026-04-18T15:43:26.999Z</time></trkpt><trkpt lat="43.70548419566417" lon="12.14989755855658"><ele>816.5</ele><time>2026-04-18T15:43:27.999Z</time></trkpt><trkpt lat="43.70533243345376" lon="12.14986470674196"><ele>818.0</ele><time>2026-04-18T15:43:29Z</time></trkpt><trkpt lat="43.70519959868283" lon="12.149818629855087"><ele>819.5</ele><time>2026-04-18T15:43:30Z</time></trkpt><trkpt lat="43.70509895460308" lon="12.14972155572158"><ele>821.0</ele><time>2026-04-18T15:43:31Z</time></trkpt><trkpt lat="43.705050499322674" lon="12.149589108510924"><ele>821.0</ele><time>2026-04-18T15:43:32Z</time></trkpt><trkpt lat="43.705053552982605" lon="12.14944525398752"><ele>821.0</ele><time>2026-04-18T15:43:33Z</time></trkpt><trkpt lat="43.70510746361118" lon="12.149311578092265"><ele>821.0</ele><time>2026-04-18T15:43:34Z</time></trkpt><trkpt lat="43.705220142583094" lon="12.14924448098557"><ele>821.0</ele><time>2026-04-18T15:43:35Z</time></trkpt><trkpt lat="43.70531349991064" lon="12.149132516679197"><ele>822.0</ele><time>2026-04-18T15:43:36Z</time></trkpt><trkpt lat="43.70541735529057" lon="12.149031528775879"><ele>823.0</ele><time>2026-04-18T15:43:37Z</time></trkpt><trkpt lat="43.70551079111628" lon="12.148915347324174"><ele>824.0</ele><time>2026-04-18T15:43:38Z</time></trkpt><trkpt lat="43.705569781338916" lon="12.148767275004685"><ele>825.0</ele><time>2026-04-18T15:43:39Z</time></trkpt><trkpt lat="43.70558337246423" lon="12.148590615459616"><ele>825.0</ele><time>2026-04-18T15:43:40Z</time></trkpt><trkpt lat="43.705559113502055" lon="12.148407532336975"><ele>825.0</ele><time>2026-04-18T15:43:41Z</time></trkpt><trkpt lat="43.705499365091754" lon="12.148254827919196"><ele>825.0</ele><time>2026-04-18T15:43:42Z</time></trkpt><trkpt lat="43.7054022431302" lon="12.148137333160784"><ele>825.0</ele><time>2026-04-18T15:43:43Z</time></trkpt><trkpt lat="43.70529102117651" lon="12.14804583210842"><ele>825.5</ele><time>2026-04-18T15:43:44Z</time></trkpt><trkpt lat="43.705200625202046" lon="12.147922224677444"><ele>826.0</ele><time>2026-04-18T15:43:45Z</time></trkpt><trkpt lat="43.70517971092256" lon="12.14773721342638"><ele>826.5</ele><time>2026-04-18T15:43:46Z</time></trkpt><trkpt lat="43.705192196855414" lon="12.14755264878129"><ele>827.0</ele><time>2026-04-18T15:43:47Z</time></trkpt><trkpt lat="43.70519407031725" lon="12.147360859690385"><ele>827.0</ele><time>2026-04-18T15:43:48Z</time></trkpt><trkpt lat="43.705189858031495" lon="12.147179011762782"><ele>827.0</ele><time>2026-04-18T15:43:49Z</time></trkpt><trkpt lat="43.70512861125436" lon="12.146994014731307"><ele>827.0</ele><time>2026-04-18T15:43:50Z</time></trkpt><trkpt lat="43.70503317392693" lon="12.146812784409947"><ele>827.0</ele><time>2026-04-18T15:43:51Z</time></trkpt><trkpt lat="43.704936744971725" lon="12.146639873306171"><ele>830.6666666666667</ele><time>2026-04-18T15:43:52Z</time></trkpt><trkpt lat="43.70485146461354" lon="12.146465927728428"><ele>834.3333333333333</ele><time>2026-04-18T15:43:53Z</time></trkpt><trkpt lat="43.704797469226236" lon="12.14627812936646"><ele>838.0</ele><time>2026-04-18T15:43:54Z</time></trkpt><trkpt lat="43.70477596183425" lon="12.146066554504877"><ele>838.0</ele><time>2026-04-18T15:43:55Z</time></trkpt><trkpt lat="43.70477064741438" lon="12.14584290784207"><ele>838.0</ele><time>2026-04-18T15:43:56Z</time></trkpt><trkpt lat="43.704773046126626" lon="12.145611163304757"><ele>838.0</ele><time>2026-04-18T15:43:57Z</time></trkpt><trkpt lat="43.7047737546882" lon="12.14536448223411"><ele>840.0</ele><time>2026-04-18T15:43:58Z</time></trkpt><trkpt lat="43.70477674048629" lon="12.145110925723074"><ele>842.0</ele><time>2026-04-18T15:43:59Z</time></trkpt><trkpt lat="43.70479505671449" lon="12.144866020093135"><ele>844.0</ele><time>2026-04-18T15:44:00Z</time></trkpt><trkpt lat="43.704800746275076" lon="12.144621353201464"><ele>844.25</ele><time>2026-04-18T15:44:01Z</time></trkpt><trkpt lat="43.70480828191223" lon="12.144390477816502"><ele>844.5</ele><time>2026-04-18T15:44:02Z</time></trkpt><trkpt lat="43.7047972945563" lon="12.14418545282765"><ele>844.75</ele><time>2026-04-18T15:44:03Z</time></trkpt><trkpt lat="43.70479304052426" lon="12.144010367103911"><ele>845.0</ele><time>2026-04-18T15:44:04Z</time></trkpt><trkpt lat="43.70476163550054" lon="12.143867123394429"><ele>847.0</ele><time>2026-04-18T15:44:05Z</time></trkpt><trkpt lat="43.704694388403794" lon="12.14374405818497"><ele>849.0</ele><time>2026-04-18T15:44:06Z</time></trkpt><trkpt lat="43.70458649751328" lon="12.143639350529948"><ele>851.0</ele><time>2026-04-18T15:44:07Z</time></trkpt><trkpt lat="43.704453331232365" lon="12.14355865949216"><ele>853.0</ele><time>2026-04-18T15:44:08Z</time></trkpt><trkpt lat="43.704326538837805" lon="12.143484746972117"><ele>846.0</ele><time>2026-04-18T15:44:09Z</time></trkpt><trkpt lat="43.70422702438664" lon="12.14338746136167"><ele>839.0</ele><time>2026-04-18T15:44:10Z</time></trkpt><trkpt lat="43.70420527639469" lon="12.14323604591815"><ele>832.0</ele><time>2026-04-18T15:44:11Z</time></trkpt><trkpt lat="43.704246656740494" lon="12.143100615845682"><ele>825.0</ele><time>2026-04-18T15:44:12Z</time></trkpt><trkpt lat="43.704306448600306" lon="12.142958583932588"><ele>823.75</ele><time>2026-04-18T15:44:13Z</time></trkpt><trkpt lat="43.70437984332394" lon="12.142797406631058"><ele>822.5</ele><time>2026-04-18T15:44:14Z</time></trkpt><trkpt lat="43.704458337922965" lon="12.142633400826908"><ele>821.25</ele><time>2026-04-18T15:44:15Z</time></trkpt><trkpt lat="43.704542626049914" lon="12.142492711239091"><ele>820.0</ele><time>2026-04-18T15:44:16Z</time></trkpt><trkpt lat="43.704636344098155" lon="12.142370378918413"><ele>827.75</ele><time>2026-04-18T15:44:17Z</time></trkpt><trkpt lat="43.70471682407786" lon="12.142239615353034"><ele>835.5</ele><time>2026-04-18T15:44:18Z</time></trkpt><trkpt lat="43.70476947386969" lon="12.14211465602138"><ele>843.25</ele><time>2026-04-18T15:44:19Z</time></trkpt><trkpt lat="43.704773211657034" lon="12.1419558868359"><ele>851.0</ele><time>2026-04-18T15:44:20Z</time></trkpt><trkpt lat="43.70471902377017" lon="12.141785989886372"><ele>851.0</ele><time>2026-04-18T15:44:21Z</time></trkpt><trkpt lat="43.704628007381736" lon="12.141627828663593"><ele>851.0</ele><time>2026-04-18T15:44:22Z</time></trkpt><trkpt lat="43.7045188784478" lon="12.141473114209937"><ele>851.0</ele><time>2026-04-18T15:44:23Z</time></trkpt><trkpt lat="43.704389744385416" lon="12.14133107492572"><ele>847.5</ele><time>2026-04-18T15:44:24Z</time></trkpt><trkpt lat="43.704257972841006" lon="12.141205899059612"><ele>844.0</ele><time>2026-04-18T15:44:25Z</time></trkpt><trkpt lat="43.70413743461999" lon="12.141092851994427"><ele>840.5</ele><time>2026-04-18T15:44:26Z</time></trkpt><trkpt lat="43.704050267795616" lon="12.140972764377194"><ele>837.0</ele><time>2026-04-18T15:44:27Z</time></trkpt><trkpt lat="43.70400689388403" lon="12.14081965891227"><ele>834.75</ele><time>2026-04-18T15:44:28Z</time></trkpt><trkpt lat="43.70398824266171" lon="12.140651267773583"><ele>832.5</ele><time>2026-04-18T15:44:29Z</time></trkpt><trkpt lat="43.70401076922439" lon="12.140499248607947"><ele>830.25</ele><time>2026-04-18T15:44:30Z</time></trkpt><trkpt lat="43.704079806217706" lon="12.140390555592552"><ele>828.0</ele><time>2026-04-18T15:44:31Z</time></trkpt><trkpt lat="43.704178330021534" lon="12.140308923328368"><ele>828.0</ele><time>2026-04-18T15:44:32Z</time></trkpt><trkpt lat="43.70430996848713" lon="12.140214018318709"><ele>828.0</ele><time>2026-04-18T15:44:32.999Z</time></trkpt><trkpt lat="43.70444463886259" lon="12.140141386945517"><ele>828.0</ele><time>2026-04-18T15:44:33.999Z</time></trkpt><trkpt lat="43.704586723004994" lon="12.14011167384791"><ele>828.0</ele><time>2026-04-18T15:44:34.999Z</time></trkpt><trkpt lat="43.70473346804878" lon="12.14009894127199"><ele>831.25</ele><time>2026-04-18T15:44:35.999Z</time></trkpt><trkpt lat="43.70486945415737" lon="12.140056401243312"><ele>834.5</ele><time>2026-04-18T15:44:36.999Z</time></trkpt><trkpt lat="43.70499913460294" lon="12.13998304158903"><ele>837.75</ele><time>2026-04-18T15:44:37.999Z</time></trkpt><trkpt lat="43.70511101807035" lon="12.139878926491921"><ele>841.0</ele><time>2026-04-18T15:44:38.999Z</time></trkpt><trkpt lat="43.70519877276979" lon="12.139767656065848"><ele>841.0</ele><time>2026-04-18T15:44:39.999Z</time></trkpt><trkpt lat="43.705264463601004" lon="12.139648287530523"><ele>841.0</ele><time>2026-04-18T15:44:40.999Z</time></trkpt><trkpt lat="43.705310416942275" lon="12.139523087226163"><ele>841.0</ele><time>2026-04-18T15:44:41.999Z</time></trkpt><trkpt lat="43.70527212156892" lon="12.139368444729234"><ele>841.0</ele><time>2026-04-18T15:44:42.999Z</time></trkpt><trkpt lat="43.70519226467059" lon="12.139228346428597"><ele>841.0</ele><time>2026-04-18T15:44:43.999Z</time></trkpt><trkpt lat="43.705088479821995" lon="12.139095704667913"><ele>841.0</ele><time>2026-04-18T15:44:44.999Z</time></trkpt><trkpt lat="43.7049722411342" lon="12.138973219362517"><ele>841.0</ele><time>2026-04-18T15:44:45.999Z</time></trkpt><trkpt lat="43.704857784503865" lon="12.138854685228596"><ele>841.0</ele><time>2026-04-18T15:44:46.999Z</time></trkpt><trkpt lat="43.704756216508684" lon="12.138741771044867"><ele>842.75</ele><time>2026-04-18T15:44:47.999Z</time></trkpt><trkpt lat="43.7046456125618" lon="12.138651265089786"><ele>844.5</ele><time>2026-04-18T15:44:48.999Z</time></trkpt><trkpt lat="43.70450473623116" lon="12.138603790609467"><ele>846.25</ele><time>2026-04-18T15:44:49.999Z</time></trkpt><trkpt lat="43.704352800586314" lon="12.138584702715592"><ele>848.0</ele><time>2026-04-18T15:44:50.999Z</time></trkpt><trkpt lat="43.70419638733702" lon="12.138582324973179"><ele>842.3333333333334</ele><time>2026-04-18T15:44:51.999Z</time></trkpt><trkpt lat="43.704035172374056" lon="12.138582348544103"><ele>836.6666666666667</ele><time>2026-04-18T15:44:52.999Z</time></trkpt><trkpt lat="43.703866770768784" lon="12.138578649954317"><ele>831.0</ele><time>2026-04-18T15:44:53.999Z</time></trkpt><trkpt lat="43.70368931283042" lon="12.138570887408246"><ele>832.3333333333333</ele><time>2026-04-18T15:44:54.999Z</time></trkpt><trkpt lat="43.703512601686654" lon="12.138561479287544"><ele>833.6666666666666</ele><time>2026-04-18T15:44:55.999Z</time></trkpt><trkpt lat="43.703335580475546" lon="12.138568212561323"><ele>835.0</ele><time>2026-04-18T15:44:56.999Z</time></trkpt><trkpt lat="43.703147368724615" lon="12.138601048086354"><ele>835.0</ele><time>2026-04-18T15:44:57.999Z</time></trkpt><trkpt lat="43.7029466222864" lon="12.138634263971118"><ele>835.0</ele><time>2026-04-18T15:44:58.999Z</time></trkpt><trkpt lat="43.702730552853716" lon="12.138651201249976"><ele>835.0</ele><time>2026-04-18T15:44:59.999Z</time></trkpt><trkpt lat="43.70250305479859" lon="12.138632975122098"><ele>838.0</ele><time>2026-04-18T15:45:00.999Z</time></trkpt><trkpt lat="43.702270156506316" lon="12.138608620095672"><ele>841.0</ele><time>2026-04-18T15:45:01.999Z</time></trkpt><trkpt lat="43.70202965158535" lon="12.13859523586162"><ele>839.0</ele><time>2026-04-18T15:45:02.999Z</time></trkpt><trkpt lat="43.701780292289016" lon="12.138612173580594"><ele>837.0</ele><time>2026-04-18T15:45:03.999Z</time></trkpt><trkpt lat="43.70153302848086" lon="12.138636151038222"><ele>837.0</ele><time>2026-04-18T15:45:04.999Z</time></trkpt><trkpt lat="43.70129308453059" lon="12.138659883331588"><ele>837.0</ele><time>2026-04-18T15:45:05.999Z</time></trkpt><trkpt lat="43.70105509231105" lon="12.13868392881325"><ele>834.5</ele><time>2026-04-18T15:45:06.999Z</time></trkpt><trkpt lat="43.70081560835888" lon="12.138709166166084"><ele>832.0</ele><time>2026-04-18T15:45:07.999Z</time></trkpt><trkpt lat="43.70057913561716" lon="12.13872872632618"><ele>832.0</ele><time>2026-04-18T15:45:08.999Z</time></trkpt><trkpt lat="43.700345010213745" lon="12.138731934657164"><ele>832.0</ele><time>2026-04-18T15:45:09.999Z</time></trkpt><trkpt lat="43.70011239236572" lon="12.138723794703893"><ele>833.3333333333333</ele><time>2026-04-18T15:45:10.999Z</time></trkpt><trkpt lat="43.69990323140304" lon="12.138681299935854"><ele>834.6666666666667</ele><time>2026-04-18T15:45:11.999Z</time></trkpt><trkpt lat="43.699712709976325" lon="12.13869616370803"><ele>836.0</ele><time>2026-04-18T15:45:12.999Z</time></trkpt><trkpt lat="43.699540134989114" lon="12.138709590764865"><ele>836.25</ele><time>2026-04-18T15:45:13.999Z</time></trkpt><trkpt lat="43.69938429866398" lon="12.138716423942684"><ele>836.5</ele><time>2026-04-18T15:45:14.999Z</time></trkpt><trkpt lat="43.699246308747874" lon="12.138732940865685"><ele>836.75</ele><time>2026-04-18T15:45:15.999Z</time></trkpt><trkpt lat="43.69912099389205" lon="12.138714355710182"><ele>837.0</ele><time>2026-04-18T15:45:16.999Z</time></trkpt><trkpt lat="43.69900743622538" lon="12.138634978700901"><ele>837.0</ele><time>2026-04-18T15:45:17.999Z</time></trkpt><trkpt lat="43.698918200174624" lon="12.138505343476181"><ele>837.0</ele><time>2026-04-18T15:45:18.999Z</time></trkpt><trkpt lat="43.69886032105317" lon="12.13833885366822"><ele>837.0</ele><time>2026-04-18T15:45:19.999Z</time></trkpt><trkpt lat="43.69883806497123" lon="12.13813910499869"><ele>837.0</ele><time>2026-04-18T15:45:20.999Z</time></trkpt><trkpt lat="43.69880147454801" lon="12.137922034751387"><ele>837.3333333333333</ele><time>2026-04-18T15:45:21.999Z</time></trkpt><trkpt lat="43.698760546257354" lon="12.137694467819342"><ele>837.6666666666666</ele><time>2026-04-18T15:45:22.999Z</time></trkpt><trkpt lat="43.69868835494943" lon="12.137486881834674"><ele>838.0</ele><time>2026-04-18T15:45:23.999Z</time></trkpt><trkpt lat="43.698602692650994" lon="12.137305463298771"><ele>834.3333333333333</ele><time>2026-04-18T15:45:24.999Z</time></trkpt><trkpt lat="43.698503010855376" lon="12.137146811327211"><ele>830.6666666666667</ele><time>2026-04-18T15:45:25.999Z</time></trkpt><trkpt lat="43.698371256425624" lon="12.137016763936607"><ele>827.0</ele><time>2026-04-18T15:45:26.999Z</time></trkpt><trkpt lat="43.698215060376185" lon="12.136922462444979"><ele>827.0</ele><time>2026-04-18T15:45:27.999Z</time></trkpt><trkpt lat="43.698041396319624" lon="12.136869199601795"><ele>827.0</ele><time>2026-04-18T15:45:28.999Z</time></trkpt><trkpt lat="43.69785534650474" lon="12.136860904130248"><ele>827.0</ele><time>2026-04-18T15:45:29.999Z</time></trkpt><trkpt lat="43.697659137386545" lon="12.13688525893038"><ele>829.0</ele><time>2026-04-18T15:45:30.999Z</time></trkpt><trkpt lat="43.69746460492496" lon="12.13692306538995"><ele>831.0</ele><time>2026-04-18T15:45:31.999Z</time></trkpt><trkpt lat="43.69728038956999" lon="12.136959464191284"><ele>833.0</ele><time>2026-04-18T15:45:32.999Z</time></trkpt><trkpt lat="43.697104135853564" lon="12.136954368604508"><ele>833.0</ele><time>2026-04-18T15:45:33.999Z</time></trkpt><trkpt lat="43.696934980304086" lon="12.136965996391336"><ele>833.0</ele><time>2026-04-18T15:45:35Z</time></trkpt><trkpt lat="43.696778328921695" lon="12.13685728886359"><ele>833.0</ele><time>2026-04-18T15:45:36Z</time></trkpt><trkpt lat="43.696612493880075" lon="12.136742630208476"><ele>834.3333333333334</ele><time>2026-04-18T15:45:37Z</time></trkpt><trkpt lat="43.69642992760918" lon="12.136654727821824"><ele>835.6666666666667</ele><time>2026-04-18T15:45:38Z</time></trkpt><trkpt lat="43.69623741058282" lon="12.136579507700935"><ele>837.0</ele><time>2026-04-18T15:45:39Z</time></trkpt><trkpt lat="43.69603024240352" lon="12.13654350406517"><ele>837.0</ele><time>2026-04-18T15:45:40Z</time></trkpt><trkpt lat="43.69582460947856" lon="12.136514786300996"><ele>837.0</ele><time>2026-04-18T15:45:41Z</time></trkpt><trkpt lat="43.69562652374706" lon="12.136464276896072"><ele>837.0</ele><time>2026-04-18T15:45:42Z</time></trkpt><trkpt lat="43.69543109077754" lon="12.136429411265784"><ele>839.6666666666667</ele><time>2026-04-18T15:45:43Z</time></trkpt><trkpt lat="43.69524431154067" lon="12.136396089537065"><ele>842.3333333333334</ele><time>2026-04-18T15:45:44Z</time></trkpt><trkpt lat="43.69507259493879" lon="12.136366531503617"><ele>845.0</ele><time>2026-04-18T15:45:45Z</time></trkpt><trkpt lat="43.69490535500801" lon="12.13633020751359"><ele>845.0</ele><time>2026-04-18T15:45:46Z</time></trkpt><trkpt lat="43.69476524210996" lon="12.136188696005002"><ele>845.0</ele><time>2026-04-18T15:45:47Z</time></trkpt><trkpt lat="43.694611550579836" lon="12.136077286287327"><ele>845.0</ele><time>2026-04-18T15:45:48Z</time></trkpt><trkpt lat="43.69448597254579" lon="12.135947980755269"><ele>848.0</ele><time>2026-04-18T15:45:49Z</time></trkpt><trkpt lat="43.69434678969168" lon="12.135876218125958"><ele>851.0</ele><time>2026-04-18T15:45:50Z</time></trkpt><trkpt lat="43.694199658081324" lon="12.135877561130629"><ele>854.0</ele><time>2026-04-18T15:45:51Z</time></trkpt><trkpt lat="43.6940590043028" lon="12.135881883342558"><ele>857.0</ele><time>2026-04-18T15:45:52Z</time></trkpt><trkpt lat="43.69393596505643" lon="12.135873108644242"><ele>857.0</ele><time>2026-04-18T15:45:53Z</time></trkpt><trkpt lat="43.69382434168171" lon="12.135829616128996"><ele>857.0</ele><time>2026-04-18T15:45:54Z</time></trkpt><trkpt lat="43.69375008721683" lon="12.135669210316427"><ele>857.0</ele><time>2026-04-18T15:45:55Z</time></trkpt><trkpt lat="43.693664039431475" lon="12.135509336815973"><ele>857.0</ele><time>2026-04-18T15:45:56Z</time></trkpt><trkpt lat="43.693569253992536" lon="12.13536538832579"><ele>857.3333333333334</ele><time>2026-04-18T15:45:57Z</time></trkpt><trkpt lat="43.69344325963901" lon="12.135281119270477"><ele>857.6666666666667</ele><time>2026-04-18T15:45:58Z</time></trkpt><trkpt lat="43.69328879685594" lon="12.135243589993873"><ele>858.0</ele><time>2026-04-18T15:45:59Z</time></trkpt><trkpt lat="43.693132016534896" lon="12.135201291450516"><ele>858.0</ele><time>2026-04-18T15:46:00Z</time></trkpt><trkpt lat="43.69298791682095" lon="12.135085795282118"><ele>858.0</ele><time>2026-04-18T15:46:01Z</time></trkpt><trkpt lat="43.69284359904641" lon="12.134983902229495"><ele>858.0</ele><time>2026-04-18T15:46:02Z</time></trkpt><trkpt lat="43.69270113938575" lon="12.134887625885996"><ele>860.0</ele><time>2026-04-18T15:46:03Z</time></trkpt><trkpt lat="43.69256355410784" lon="12.134806891234607"><ele>862.0</ele><time>2026-04-18T15:46:04Z</time></trkpt><trkpt lat="43.69243598733774" lon="12.134728121554796"><ele>864.0</ele><time>2026-04-18T15:46:05Z</time></trkpt><trkpt lat="43.69231316087241" lon="12.13465500217872"><ele>866.0</ele><time>2026-04-18T15:46:06Z</time></trkpt><trkpt lat="43.69225456958723" lon="12.134480608061125"><ele>866.0</ele><time>2026-04-18T15:46:07Z</time></trkpt><trkpt lat="43.692201545656395" lon="12.13428469632377"><ele>866.0</ele><time>2026-04-18T15:46:08Z</time></trkpt><trkpt lat="43.69211187712847" lon="12.13408982133256"><ele>866.0</ele><time>2026-04-18T15:46:09Z</time></trkpt><trkpt lat="43.6920261344378" lon="12.133879385703366"><ele>866.0</ele><time>2026-04-18T15:46:10Z</time></trkpt><trkpt lat="43.69193621276094" lon="12.133652088861954"><ele>866.0</ele><time>2026-04-18T15:46:11Z</time></trkpt><trkpt lat="43.691840179229565" lon="12.13341924453557"><ele>866.0</ele><time>2026-04-18T15:46:12Z</time></trkpt><trkpt lat="43.691763903527665" lon="12.133172202286975"><ele>866.0</ele><time>2026-04-18T15:46:13Z</time></trkpt><trkpt lat="43.69169630089041" lon="12.13291497908354"><ele>866.0</ele><time>2026-04-18T15:46:14Z</time></trkpt><trkpt lat="43.69163336741169" lon="12.132644146939551"><ele>866.0</ele><time>2026-04-18T15:46:15Z</time></trkpt><trkpt lat="43.69157020570677" lon="12.13236702162174"><ele>866.3333333333334</ele><time>2026-04-18T15:46:16Z</time></trkpt><trkpt lat="43.691504578591385" lon="12.132097795639616"><ele>866.6666666666667</ele><time>2026-04-18T15:46:17Z</time></trkpt><trkpt lat="43.69144806324304" lon="12.131843189281408"><ele>867.0</ele><time>2026-04-18T15:46:18Z</time></trkpt><trkpt lat="43.69138021174977" lon="12.13160891167168"><ele>865.6666666666667</ele><time>2026-04-18T15:46:19Z</time></trkpt><trkpt lat="43.691346554882806" lon="12.131375352545355"><ele>864.3333333333334</ele><time>2026-04-18T15:46:20Z</time></trkpt><trkpt lat="43.69129059275307" lon="12.131160794106833"><ele>863.0</ele><time>2026-04-18T15:46:21Z</time></trkpt><trkpt lat="43.691200592655676" lon="12.130961277986815"><ele>871.0</ele><time>2026-04-18T15:46:22Z</time></trkpt><trkpt lat="43.69108334847832" lon="12.130791778140066"><ele>879.0</ele><time>2026-04-18T15:46:23Z</time></trkpt><trkpt lat="43.69097934261226" lon="12.130642128431587"><ele>887.0</ele><time>2026-04-18T15:46:24Z</time></trkpt><trkpt lat="43.69091268232482" lon="12.130484907292768"><ele>887.0</ele><time>2026-04-18T15:46:25Z</time></trkpt><trkpt lat="43.69089315115032" lon="12.130289659441699"><ele>887.0</ele><time>2026-04-18T15:46:26Z</time></trkpt><trkpt lat="43.69090574816194" lon="12.130066177311411"><ele>887.0</ele><time>2026-04-18T15:46:27Z</time></trkpt><trkpt lat="43.69091436791377" lon="12.129845417974977"><ele>885.25</ele><time>2026-04-18T15:46:28Z</time></trkpt><trkpt lat="43.69094280895745" lon="12.12965791907834"><ele>883.5</ele><time>2026-04-18T15:46:29Z</time></trkpt><trkpt lat="43.69093222973103" lon="12.129494475590345"><ele>881.75</ele><time>2026-04-18T15:46:30Z</time></trkpt><trkpt lat="43.69088346401415" lon="12.129344260848015"><ele>880.0</ele><time>2026-04-18T15:46:31Z</time></trkpt><trkpt lat="43.69078773639621" lon="12.129225218582812"><ele>880.0</ele><time>2026-04-18T15:46:32Z</time></trkpt><trkpt lat="43.69065859636166" lon="12.129134138921273"><ele>880.0</ele><time>2026-04-18T15:46:33Z</time></trkpt><trkpt lat="43.69050749235061" lon="12.129067252979173"><ele>880.0</ele><time>2026-04-18T15:46:34Z</time></trkpt><trkpt lat="43.69034128325267" lon="12.129026253033366"><ele>878.6666666666666</ele><time>2026-04-18T15:46:35Z</time></trkpt><trkpt lat="43.69016648366706" lon="12.128993543999671"><ele>877.3333333333333</ele><time>2026-04-18T15:46:36Z</time></trkpt><trkpt lat="43.68998317094015" lon="12.12896679831342"><ele>876.0</ele><time>2026-04-18T15:46:37Z</time></trkpt><trkpt lat="43.68981208853115" lon="12.128904329786428"><ele>876.0</ele><time>2026-04-18T15:46:38Z</time></trkpt><trkpt lat="43.68963958028356" lon="12.12884402818911"><ele>876.0</ele><time>2026-04-18T15:46:39Z</time></trkpt><trkpt lat="43.68947112050659" lon="12.128754725158219"><ele>876.0</ele><time>2026-04-18T15:46:40Z</time></trkpt><trkpt lat="43.68930792552017" lon="12.128650911837491"><ele>882.3333333333333</ele><time>2026-04-18T15:46:41Z</time></trkpt><trkpt lat="43.68915779311115" lon="12.128535944579536"><ele>888.6666666666666</ele><time>2026-04-18T15:46:42Z</time></trkpt><trkpt lat="43.68902131955068" lon="12.128406369581691"><ele>895.0</ele><time>2026-04-18T15:46:43Z</time></trkpt><trkpt lat="43.688914283746406" lon="12.128237642215625"><ele>896.5</ele><time>2026-04-18T15:46:44Z</time></trkpt><trkpt lat="43.68881718482464" lon="12.128059260007094"><ele>898.0</ele><time>2026-04-18T15:46:45Z</time></trkpt><trkpt lat="43.68872657377382" lon="12.127906851313927"><ele>899.5</ele><time>2026-04-18T15:46:46Z</time></trkpt><trkpt lat="43.68862213233613" lon="12.127815544993839"><ele>901.0</ele><time>2026-04-18T15:46:47Z</time></trkpt><trkpt lat="43.68850197700194" lon="12.127759560470485"><ele>901.0</ele><time>2026-04-18T15:46:48Z</time></trkpt><trkpt lat="43.68835930728329" lon="12.127737046004553"><ele>901.0</ele><time>2026-04-18T15:46:49Z</time></trkpt><trkpt lat="43.68820567020885" lon="12.127709230392128"><ele>901.0</ele><time>2026-04-18T15:46:50Z</time></trkpt><trkpt lat="43.68805960171686" lon="12.127680363580442"><ele>901.0</ele><time>2026-04-18T15:46:51Z</time></trkpt><trkpt lat="43.68793780407566" lon="12.127645294143287"><ele>901.0</ele><time>2026-04-18T15:46:52Z</time></trkpt><trkpt lat="43.687827140893916" lon="12.127552800045045"><ele>901.0</ele><time>2026-04-18T15:46:53Z</time></trkpt><trkpt lat="43.68773278241917" lon="12.127388599045654"><ele>901.0</ele><time>2026-04-18T15:46:54Z</time></trkpt><trkpt lat="43.6876211641409" lon="12.127218965962452"><ele>901.0</ele><time>2026-04-18T15:46:55Z</time></trkpt><trkpt lat="43.68749877888411" lon="12.127057553693763"><ele>902.6666666666666</ele><time>2026-04-18T15:46:56Z</time></trkpt><trkpt lat="43.68735971945812" lon="12.126903043609548"><ele>904.3333333333333</ele><time>2026-04-18T15:46:57Z</time></trkpt><trkpt lat="43.687202724927" lon="12.126765260886849"><ele>906.0</ele><time>2026-04-18T15:46:58Z</time></trkpt><trkpt lat="43.68703800919006" lon="12.126657408376433"><ele>906.0</ele><time>2026-04-18T15:46:59Z</time></trkpt><trkpt lat="43.6868702220476" lon="12.12656244202756"><ele>906.0</ele><time>2026-04-18T15:47:00Z</time></trkpt><trkpt lat="43.68671121810245" lon="12.12645049888785"><ele>906.0</ele><time>2026-04-18T15:47:01Z</time></trkpt><trkpt lat="43.686571838539855" lon="12.1262802095984"><ele>906.0</ele><time>2026-04-18T15:47:02Z</time></trkpt><trkpt lat="43.68643583815921" lon="12.12608884664093"><ele>906.0</ele><time>2026-04-18T15:47:03Z</time></trkpt><trkpt lat="43.686301348603855" lon="12.125894545603524"><ele>906.0</ele><time>2026-04-18T15:47:04Z</time></trkpt><trkpt lat="43.686167532087545" lon="12.125699694240378"><ele>914.3333333333333</ele><time>2026-04-18T15:47:05Z</time></trkpt><trkpt lat="43.68603870559938" lon="12.125512179532846"><ele>922.6666666666666</ele><time>2026-04-18T15:47:06Z</time></trkpt><trkpt lat="43.68591590507972" lon="12.12532488782137"><ele>931.0</ele><time>2026-04-18T15:47:07Z</time></trkpt><trkpt lat="43.68579696666323" lon="12.125120808535923"><ele>931.0</ele><time>2026-04-18T15:47:08Z</time></trkpt><trkpt lat="43.68569399925352" lon="12.124917487470107"><ele>931.0</ele><time>2026-04-18T15:47:09Z</time></trkpt><trkpt lat="43.685612781926416" lon="12.124713069965663"><ele>931.0</ele><time>2026-04-18T15:47:09.999Z</time></trkpt><trkpt lat="43.68556813457711" lon="12.124504084119716"><ele>926.3333333333333</ele><time>2026-04-18T15:47:10.999Z</time></trkpt><trkpt lat="43.6855269363424" lon="12.124313554059118"><ele>921.6666666666667</ele><time>2026-04-18T15:47:11.999Z</time></trkpt><trkpt lat="43.68546347158954" lon="12.124128081183619"><ele>917.0</ele><time>2026-04-18T15:47:12.999Z</time></trkpt><trkpt lat="43.68533054395599" lon="12.12400360184175"><ele>921.6666666666667</ele><time>2026-04-18T15:47:13.999Z</time></trkpt><trkpt lat="43.68519383853803" lon="12.123885131138561"><ele>926.3333333333333</ele><time>2026-04-18T15:47:14.999Z</time></trkpt><trkpt lat="43.68507057034635" lon="12.123751218872513"><ele>931.0</ele><time>2026-04-18T15:47:15.999Z</time></trkpt><trkpt lat="43.68496496855309" lon="12.123595029963694"><ele>931.0</ele><time>2026-04-18T15:47:16.999Z</time></trkpt><trkpt lat="43.68493070273374" lon="12.1233868207496"><ele>931.0</ele><time>2026-04-18T15:47:17.999Z</time></trkpt><trkpt lat="43.68489662463056" lon="12.123142832661951"><ele>931.0</ele><time>2026-04-18T15:47:18.999Z</time></trkpt><trkpt lat="43.68486345147754" lon="12.122889562535264"><ele>931.3333333333333</ele><time>2026-04-18T15:47:19.999Z</time></trkpt><trkpt lat="43.68482822112023" lon="12.122630787239988"><ele>931.6666666666667</ele><time>2026-04-18T15:47:20.999Z</time></trkpt><trkpt lat="43.68479413566216" lon="12.122363950657252"><ele>932.0</ele><time>2026-04-18T15:47:21.999Z</time></trkpt><trkpt lat="43.684777727354366" lon="12.122102994593394"><ele>932.6666666666667</ele><time>2026-04-18T15:47:22.999Z</time></trkpt><trkpt lat="43.6847932255932" lon="12.121848901639147"><ele>933.3333333333333</ele><time>2026-04-18T15:47:23.999Z</time></trkpt><trkpt lat="43.68484617982915" lon="12.121609951789782"><ele>934.0</ele><time>2026-04-18T15:47:24.999Z</time></trkpt><trkpt lat="43.684901930979265" lon="12.12138490455359"><ele>936.25</ele><time>2026-04-18T15:47:25.999Z</time></trkpt><trkpt lat="43.68493295191555" lon="12.121171099067057"><ele>938.5</ele><time>2026-04-18T15:47:26.999Z</time></trkpt><trkpt lat="43.684930763284385" lon="12.120971715510947"><ele>940.75</ele><time>2026-04-18T15:47:27.999Z</time></trkpt><trkpt lat="43.684900870683144" lon="12.120789603325354"><ele>943.0</ele><time>2026-04-18T15:47:28.999Z</time></trkpt><trkpt lat="43.68482721672326" lon="12.120634279685463"><ele>945.6666666666666</ele><time>2026-04-18T15:47:29.999Z</time></trkpt><trkpt lat="43.684716674629676" lon="12.120505500834899"><ele>948.3333333333333</ele><time>2026-04-18T15:47:30.999Z</time></trkpt><trkpt lat="43.68457582621364" lon="12.120416908933425"><ele>951.0</ele><time>2026-04-18T15:47:31.999Z</time></trkpt><trkpt lat="43.684417429275285" lon="12.120376319276243"><ele>951.6666666666667</ele><time>2026-04-18T15:47:32.999Z</time></trkpt><trkpt lat="43.684245919666644" lon="12.120394966373754"><ele>952.3333333333334</ele><time>2026-04-18T15:47:33.999Z</time></trkpt><trkpt lat="43.68408363503867" lon="12.120436510106172"><ele>953.0</ele><time>2026-04-18T15:47:34.999Z</time></trkpt><trkpt lat="43.683943164367896" lon="12.120461904519203"><ele>953.0</ele><time>2026-04-18T15:47:35.999Z</time></trkpt><trkpt lat="43.68382096361581" lon="12.120429659810123"><ele>953.0</ele><time>2026-04-18T15:47:36.999Z</time></trkpt><trkpt lat="43.68372395357993" lon="12.120371739270075"><ele>953.0</ele><time>2026-04-18T15:47:37.999Z</time></trkpt><trkpt lat="43.6836445095909" lon="12.12027484054535"><ele>953.0</ele><time>2026-04-18T15:47:38.999Z</time></trkpt><trkpt lat="43.68361616475575" lon="12.120114898712266"><ele>953.0</ele><time>2026-04-18T15:47:39.999Z</time></trkpt><trkpt lat="43.68367798945145" lon="12.119961759059906"><ele>953.0</ele><time>2026-04-18T15:47:41.001Z</time></trkpt><trkpt lat="43.68373810334103" lon="12.119793048150871"><ele>953.0</ele><time>2026-04-18T15:47:42.001Z</time></trkpt><trkpt lat="43.683779597428575" lon="12.119614871155232"><ele>953.0</ele><time>2026-04-18T15:47:43.001Z</time></trkpt><trkpt lat="43.683791864014225" lon="12.119412396287256"><ele>954.6666666666667</ele><time>2026-04-18T15:47:44.001Z</time></trkpt><trkpt lat="43.68374895336495" lon="12.119190796849436"><ele>956.3333333333333</ele><time>2026-04-18T15:47:45.001Z</time></trkpt><trkpt lat="43.683655618699774" lon="12.118948715385512"><ele>958.0</ele><time>2026-04-18T15:47:46.001Z</time></trkpt><trkpt lat="43.683562212916996" lon="12.1187117461332"><ele>963.0</ele><time>2026-04-18T15:47:47.001Z</time></trkpt><trkpt lat="43.68345049454181" lon="12.11847721984633"><ele>968.0</ele><time>2026-04-18T15:47:48.001Z</time></trkpt><trkpt lat="43.68334211546142" lon="12.118269059906892"><ele>973.0</ele><time>2026-04-18T15:47:49.001Z</time></trkpt><trkpt lat="43.68323065810836" lon="12.11806789721322"><ele>973.3333333333333</ele><time>2026-04-18T15:47:50.001Z</time></trkpt><trkpt lat="43.68311473719439" lon="12.117886050372473"><ele>973.6666666666667</ele><time>2026-04-18T15:47:51.001Z</time></trkpt><trkpt lat="43.682994977589" lon="12.11771419537811"><ele>974.0</ele><time>2026-04-18T15:47:52.001Z</time></trkpt><trkpt lat="43.68293010631585" lon="12.117500656961969"><ele>976.25</ele><time>2026-04-18T15:47:53.001Z</time></trkpt><trkpt lat="43.682877592829655" lon="12.117290192680375"><ele>978.5</ele><time>2026-04-18T15:47:54.001Z</time></trkpt><trkpt lat="43.68282635784004" lon="12.117105305715956"><ele>980.75</ele><time>2026-04-18T15:47:55.001Z</time></trkpt><trkpt lat="43.68278173542027" lon="12.116923492726242"><ele>983.0</ele><time>2026-04-18T15:47:56.001Z</time></trkpt><trkpt lat="43.68274046509979" lon="12.116759902250696"><ele>983.1666666666667</ele><time>2026-04-18T15:47:57.001Z</time></trkpt><trkpt lat="43.68269967891793" lon="12.116623702337186"><ele>983.3333333333334</ele><time>2026-04-18T15:47:58.001Z</time></trkpt><trkpt lat="43.6826562611413" lon="12.116509274286905"><ele>983.5</ele><time>2026-04-18T15:47:59.001Z</time></trkpt><trkpt lat="43.6826030472244" lon="12.116418028971424"><ele>983.6666666666667</ele><time>2026-04-18T15:48:00.001Z</time></trkpt><trkpt lat="43.682543115603906" lon="12.116361673662956"><ele>983.8333333333334</ele><time>2026-04-18T15:48:01Z</time></trkpt><trkpt lat="43.6824762525941" lon="12.116329830355626"><ele>984.0</ele><time>2026-04-18T15:48:02Z</time></trkpt><trkpt lat="43.68236100306756" lon="12.116312010480282"><ele>983.25</ele><time>2026-04-18T15:48:04Z</time></trkpt><trkpt lat="43.682289490371055" lon="12.116281570186592"><ele>982.5</ele><time>2026-04-18T15:48:06Z</time></trkpt><trkpt lat="43.682229746619065" lon="12.11625167506089"><ele>981.75</ele><time>2026-04-18T15:48:10Z</time></trkpt><trkpt lat="43.68224929713776" lon="12.116462998008911"><ele>981.0</ele><time>2026-04-18T15:48:56.999Z</time></trkpt><trkpt lat="43.68218622002411" lon="12.116261374845195"><ele>981.0</ele><time>2026-04-18T15:49:01.999Z</time></trkpt><trkpt lat="43.682240002853355" lon="12.116316605010699"><ele>981.0</ele><time>2026-04-18T15:49:34.999Z</time></trkpt><trkpt lat="43.68229134021436" lon="12.11638072774257"><ele>981.0</ele><time>2026-04-18T15:49:41.999Z</time></trkpt><trkpt lat="43.68234535751554" lon="12.116439636267167"><ele>981.0</ele><time>2026-04-18T15:49:48Z</time></trkpt><trkpt lat="43.68238713402497" lon="12.11637324406052"><ele>981.0</ele><time>2026-04-18T15:50:02Z</time></trkpt><trkpt lat="43.68243835316964" lon="12.116425528836231"><ele>981.0</ele><time>2026-04-18T15:50:08Z</time></trkpt><trkpt lat="43.682383974684285" lon="12.116375736887724"><ele>981.0</ele><time>2026-04-18T15:50:41.999Z</time></trkpt><trkpt lat="43.68232422853799" lon="12.116304525840023"><ele>981.0</ele><time>2026-04-18T15:50:49.038Z</time></trkpt><trkpt lat="43.68238724647864" lon="12.116355095115951"><ele>981.0</ele><time>2026-04-18T15:51:07.479Z</time></trkpt><trkpt lat="43.68243346969259" lon="12.116519824076033"><ele>981.0</ele><time>2026-04-18T15:52:29.998Z</time></trkpt><trkpt lat="43.68236205812105" lon="12.116464614940252"><ele>981.0</ele><time>2026-04-18T15:52:37Z</time></trkpt><trkpt lat="43.682313108648835" lon="12.116404814913137"><ele>981.0</ele><time>2026-04-18T15:52:40Z</time></trkpt><trkpt lat="43.68228061773482" lon="12.116313715372794"><ele>981.0</ele><time>2026-04-18T15:52:45Z</time></trkpt><trkpt lat="43.682217789204515" lon="12.116276317616967"><ele>981.0</ele><time>2026-04-18T15:52:54Z</time></trkpt><trkpt lat="43.682155891201745" lon="12.116340946708844"><ele>981.0</ele><time>2026-04-18T15:54:51Z</time></trkpt><trkpt lat="43.682035706023015" lon="12.116361377728778"><ele>981.0</ele><time>2026-04-18T15:54:53Z</time></trkpt><trkpt lat="43.681971034883574" lon="12.11636907014953"><ele>981.0</ele><time>2026-04-18T15:54:54Z</time></trkpt><trkpt lat="43.6819060042941" lon="12.11637754130048"><ele>981.0</ele><time>2026-04-18T15:54:55Z</time></trkpt><trkpt lat="43.68184006321713" lon="12.116388408596647"><ele>981.0</ele><time>2026-04-18T15:54:56Z</time></trkpt><trkpt lat="43.681776081472755" lon="12.116398844546824"><ele>979.1999999999999</ele><time>2026-04-18T15:54:57Z</time></trkpt><trkpt lat="43.68171258764174" lon="12.116406729031038"><ele>977.3999999999999</ele><time>2026-04-18T15:54:58Z</time></trkpt><trkpt lat="43.681595148819426" lon="12.116416264771129"><ele>975.6</ele><time>2026-04-18T15:55:00Z</time></trkpt><trkpt lat="43.68149407734156" lon="12.116428140016184"><ele>973.8</ele><time>2026-04-18T15:55:01.999Z</time></trkpt><trkpt lat="43.68140100858235" lon="12.116444838860598"><ele>972.0</ele><time>2026-04-18T15:55:03.999Z</time></trkpt><trkpt lat="43.68129043439657" lon="12.116457101939474"><ele>972.0</ele><time>2026-04-18T15:55:05.999Z</time></trkpt><trkpt lat="43.68121821476975" lon="12.116462878222197"><ele>972.0</ele><time>2026-04-18T15:55:06.999Z</time></trkpt><trkpt lat="43.6811391196295" lon="12.116472576122824"><ele>972.0</ele><time>2026-04-18T15:55:07.999Z</time></trkpt><trkpt lat="43.681056634635226" lon="12.116483925516903"><ele>972.0</ele><time>2026-04-18T15:55:08.999Z</time></trkpt><trkpt lat="43.68096470080724" lon="12.116489253078418"><ele>972.0</ele><time>2026-04-18T15:55:09.999Z</time></trkpt><trkpt lat="43.68086233093567" lon="12.116477538571562"><ele>972.0</ele><time>2026-04-18T15:55:10.999Z</time></trkpt><trkpt lat="43.68075585669864" lon="12.116437321446766"><ele>970.75</ele><time>2026-04-18T15:55:11.999Z</time></trkpt><trkpt lat="43.68064504609729" lon="12.11638781239836"><ele>969.5</ele><time>2026-04-18T15:55:12.999Z</time></trkpt><trkpt lat="43.680527544842185" lon="12.116326302025806"><ele>968.25</ele><time>2026-04-18T15:55:13.999Z</time></trkpt><trkpt lat="43.68040806064336" lon="12.116260847652617"><ele>967.0</ele><time>2026-04-18T15:55:14.999Z</time></trkpt><trkpt lat="43.68028523829373" lon="12.116188780889633"><ele>967.5</ele><time>2026-04-18T15:55:15.999Z</time></trkpt><trkpt lat="43.68015881877378" lon="12.116121228996446"><ele>968.0</ele><time>2026-04-18T15:55:16.999Z</time></trkpt><trkpt lat="43.68003480886975" lon="12.116059428107329"><ele>968.5</ele><time>2026-04-18T15:55:17.999Z</time></trkpt><trkpt lat="43.679910919876114" lon="12.116012939105058"><ele>969.0</ele><time>2026-04-18T15:55:18.999Z</time></trkpt><trkpt lat="43.679786122497234" lon="12.115992796833972"><ele>969.0</ele><time>2026-04-18T15:55:19.999Z</time></trkpt><trkpt lat="43.67966031369257" lon="12.116009628657451"><ele>969.0</ele><time>2026-04-18T15:55:20.999Z</time></trkpt><trkpt lat="43.67953596815341" lon="12.116061870370283"><ele>969.0</ele><time>2026-04-18T15:55:21.999Z</time></trkpt><trkpt lat="43.67941482282883" lon="12.116155656527953"><ele>969.0</ele><time>2026-04-18T15:55:22.999Z</time></trkpt><trkpt lat="43.67929217224818" lon="12.116248700713745"><ele>967.5</ele><time>2026-04-18T15:55:23.999Z</time></trkpt><trkpt lat="43.67916864722175" lon="12.116339440370501"><ele>966.0</ele><time>2026-04-18T15:55:24.999Z</time></trkpt><trkpt lat="43.67905244723359" lon="12.116425738416476"><ele>964.5</ele><time>2026-04-18T15:55:25.999Z</time></trkpt><trkpt lat="43.678935660955666" lon="12.116502767259213"><ele>963.0</ele><time>2026-04-18T15:55:26.999Z</time></trkpt><trkpt lat="43.67881560571634" lon="12.116552673669394"><ele>963.0</ele><time>2026-04-18T15:55:27.999Z</time></trkpt><trkpt lat="43.678688035207536" lon="12.116561724472833"><ele>963.0</ele><time>2026-04-18T15:55:28.999Z</time></trkpt><trkpt lat="43.678562025206624" lon="12.116525789264507"><ele>963.0</ele><time>2026-04-18T15:55:29.999Z</time></trkpt><trkpt lat="43.67844725071942" lon="12.116444044632765"><ele>963.0</ele><time>2026-04-18T15:55:30.999Z</time></trkpt><trkpt lat="43.67833187393173" lon="12.116344835376356"><ele>963.5</ele><time>2026-04-18T15:55:31.999Z</time></trkpt><trkpt lat="43.67820024170186" lon="12.116272190199842"><ele>964.0</ele><time>2026-04-18T15:55:32.999Z</time></trkpt><trkpt lat="43.678052677892815" lon="12.116224085604273"><ele>964.5</ele><time>2026-04-18T15:55:33.999Z</time></trkpt><trkpt lat="43.67789804515686" lon="12.116198461733575"><ele>965.0</ele><time>2026-04-18T15:55:34.999Z</time></trkpt><trkpt lat="43.67774294373414" lon="12.116175084235273"><ele>962.6666666666667</ele><time>2026-04-18T15:55:35.999Z</time></trkpt><trkpt lat="43.677589302039245" lon="12.116138900192578"><ele>960.3333333333333</ele><time>2026-04-18T15:55:36.999Z</time></trkpt><trkpt lat="43.67743426150505" lon="12.116112725816526"><ele>958.0</ele><time>2026-04-18T15:55:37.999Z</time></trkpt><trkpt lat="43.67727053502282" lon="12.116079739096701"><ele>958.0</ele><time>2026-04-18T15:55:38.999Z</time></trkpt><trkpt lat="43.67710660306445" lon="12.116081394241267"><ele>958.0</ele><time>2026-04-18T15:55:39.999Z</time></trkpt><trkpt lat="43.676942201578605" lon="12.116099892534935"><ele>958.0</ele><time>2026-04-18T15:55:40.999Z</time></trkpt><trkpt lat="43.67677321996132" lon="12.11612572080141"><ele>957.0</ele><time>2026-04-18T15:55:41.999Z</time></trkpt><trkpt lat="43.6766087293539" lon="12.116145127660241"><ele>956.0</ele><time>2026-04-18T15:55:42.999Z</time></trkpt><trkpt lat="43.67644290683521" lon="12.116164905476445"><ele>955.0</ele><time>2026-04-18T15:55:43.999Z</time></trkpt><trkpt lat="43.676282439126766" lon="12.11618008796238"><ele>955.0</ele><time>2026-04-18T15:55:44.999Z</time></trkpt><trkpt lat="43.6761275277475" lon="12.116209618579322"><ele>955.0</ele><time>2026-04-18T15:55:45.999Z</time></trkpt><trkpt lat="43.675972957002095" lon="12.116264813300507"><ele>955.0</ele><time>2026-04-18T15:55:46.999Z</time></trkpt><trkpt lat="43.67582219376552" lon="12.116355820981461"><ele>953.3333333333333</ele><time>2026-04-18T15:55:47.999Z</time></trkpt><trkpt lat="43.675685367782926" lon="12.116469953447737"><ele>951.6666666666667</ele><time>2026-04-18T15:55:48.999Z</time></trkpt><trkpt lat="43.67556258063232" lon="12.116599461310386"><ele>950.0</ele><time>2026-04-18T15:55:49.999Z</time></trkpt><trkpt lat="43.675433698060296" lon="12.11669852048062"><ele>951.0</ele><time>2026-04-18T15:55:50.999Z</time></trkpt><trkpt lat="43.67529521847786" lon="12.116750132184471"><ele>952.0</ele><time>2026-04-18T15:55:51.999Z</time></trkpt><trkpt lat="43.67515142862689" lon="12.116698575197148"><ele>953.0</ele><time>2026-04-18T15:55:52.999Z</time></trkpt><trkpt lat="43.67499706769798" lon="12.116618274950117"><ele>950.6666666666667</ele><time>2026-04-18T15:55:53.999Z</time></trkpt><trkpt lat="43.67483121650549" lon="12.116548319460742"><ele>948.3333333333333</ele><time>2026-04-18T15:55:54.999Z</time></trkpt><trkpt lat="43.674665683445276" lon="12.1164939954919"><ele>946.0</ele><time>2026-04-18T15:55:55.999Z</time></trkpt><trkpt lat="43.67450288297656" lon="12.11642589001166"><ele>945.0</ele><time>2026-04-18T15:55:56.999Z</time></trkpt><trkpt lat="43.67434976398587" lon="12.116360470142387"><ele>944.0</ele><time>2026-04-18T15:55:57.999Z</time></trkpt><trkpt lat="43.67420255746424" lon="12.116295347315093"><ele>943.0</ele><time>2026-04-18T15:55:58.999Z</time></trkpt><trkpt lat="43.674051858289644" lon="12.116260000772339"><ele>943.0</ele><time>2026-04-18T15:55:59.999Z</time></trkpt><trkpt lat="43.67389242593049" lon="12.116260718825087"><ele>943.0</ele><time>2026-04-18T15:56:00.999Z</time></trkpt><trkpt lat="43.67372331685345" lon="12.116291147215719"><ele>943.0</ele><time>2026-04-18T15:56:01.999Z</time></trkpt><trkpt lat="43.67355538555184" lon="12.11635635266658"><ele>941.6666666666666</ele><time>2026-04-18T15:56:02.999Z</time></trkpt><trkpt lat="43.67339945332859" lon="12.116429473455069"><ele>940.3333333333333</ele><time>2026-04-18T15:56:03.999Z</time></trkpt><trkpt lat="43.67324445752156" lon="12.116482767596088"><ele>939.0</ele><time>2026-04-18T15:56:04.999Z</time></trkpt><trkpt lat="43.673086886338446" lon="12.116499881590553"><ele>939.0</ele><time>2026-04-18T15:56:05.999Z</time></trkpt><trkpt lat="43.6729378953633" lon="12.116424727947418"><ele>939.0</ele><time>2026-04-18T15:56:06.999Z</time></trkpt><trkpt lat="43.672795823121625" lon="12.116306852199816"><ele>939.0</ele><time>2026-04-18T15:56:07.999Z</time></trkpt><trkpt lat="43.67263621902558" lon="12.116190689795296"><ele>939.6666666666667</ele><time>2026-04-18T15:56:08.999Z</time></trkpt><trkpt lat="43.67248857744266" lon="12.116058469066651"><ele>940.3333333333334</ele><time>2026-04-18T15:56:09.999Z</time></trkpt><trkpt lat="43.67236952403847" lon="12.1159039468214"><ele>941.0</ele><time>2026-04-18T15:56:10.999Z</time></trkpt><trkpt lat="43.67226342554147" lon="12.115737429859779"><ele>938.75</ele><time>2026-04-18T15:56:11.999Z</time></trkpt><trkpt lat="43.67216576707063" lon="12.115592007775863"><ele>936.5</ele><time>2026-04-18T15:56:12.999Z</time></trkpt><trkpt lat="43.67208020049917" lon="12.115467337292548"><ele>934.25</ele><time>2026-04-18T15:56:13.999Z</time></trkpt><trkpt lat="43.67197711669359" lon="12.115385381873457"><ele>932.0</ele><time>2026-04-18T15:56:14.999Z</time></trkpt><trkpt lat="43.671851404270065" lon="12.115367322087993"><ele>930.25</ele><time>2026-04-18T15:56:15.999Z</time></trkpt><trkpt lat="43.671719258955875" lon="12.115404530736145"><ele>928.5</ele><time>2026-04-18T15:56:16.999Z</time></trkpt><trkpt lat="43.67157812438469" lon="12.115486085321583"><ele>926.75</ele><time>2026-04-18T15:56:17.999Z</time></trkpt><trkpt lat="43.67144186698995" lon="12.115594839485889"><ele>925.0</ele><time>2026-04-18T15:56:18.999Z</time></trkpt><trkpt lat="43.671309757263316" lon="12.115710695736283"><ele>928.0</ele><time>2026-04-18T15:56:19.999Z</time></trkpt><trkpt lat="43.67119273896126" lon="12.11582906785846"><ele>931.0</ele><time>2026-04-18T15:56:20.999Z</time></trkpt><trkpt lat="43.671096272012264" lon="12.115938969063238"><ele>934.0</ele><time>2026-04-18T15:56:21.999Z</time></trkpt><trkpt lat="43.671005247864855" lon="12.116021626195115"><ele>937.0</ele><time>2026-04-18T15:56:22.999Z</time></trkpt><trkpt lat="43.6709041877497" lon="12.11605754488369"><ele>937.0</ele><time>2026-04-18T15:56:23.999Z</time></trkpt><trkpt lat="43.67080183318222" lon="12.115998566014998"><ele>937.0</ele><time>2026-04-18T15:56:24.999Z</time></trkpt><trkpt lat="43.6707438648066" lon="12.115870617084283"><ele>937.0</ele><time>2026-04-18T15:56:25.999Z</time></trkpt><trkpt lat="43.67074437210367" lon="12.115732764313847"><ele>937.0</ele><time>2026-04-18T15:56:26.999Z</time></trkpt><trkpt lat="43.6707272614892" lon="12.115615935911555"><ele>937.0</ele><time>2026-04-18T15:56:27.999Z</time></trkpt><trkpt lat="43.670682154758616" lon="12.115358501695878"><ele>934.4000000000001</ele><time>2026-04-18T15:56:28.999Z</time></trkpt><trkpt lat="43.67064501749131" lon="12.115200618052722"><ele>931.8000000000001</ele><time>2026-04-18T15:56:29.999Z</time></trkpt><trkpt lat="43.670588351010906" lon="12.11507141901786"><ele>929.2</ele><time>2026-04-18T15:56:30.999Z</time></trkpt><trkpt lat="43.67050291045441" lon="12.11498031064073"><ele>926.6</ele><time>2026-04-18T15:56:31.999Z</time></trkpt><trkpt lat="43.670408296155465" lon="12.114938726479728"><ele>924.0</ele><time>2026-04-18T15:56:32.999Z</time></trkpt><trkpt lat="43.670299432848076" lon="12.114959501875061"><ele>924.25</ele><time>2026-04-18T15:56:33.999Z</time></trkpt><trkpt lat="43.670182090351375" lon="12.11504381177361"><ele>924.5</ele><time>2026-04-18T15:56:34.999Z</time></trkpt><trkpt lat="43.67005799206949" lon="12.1151475067129"><ele>924.75</ele><time>2026-04-18T15:56:35.999Z</time></trkpt><trkpt lat="43.669919389482445" lon="12.115209608170069"><ele>925.0</ele><time>2026-04-18T15:56:36.999Z</time></trkpt><trkpt lat="43.6697738170807" lon="12.115162959803786"><ele>925.0</ele><time>2026-04-18T15:56:37.999Z</time></trkpt><trkpt lat="43.66966136821942" lon="12.115060416197945"><ele>925.0</ele><time>2026-04-18T15:56:38.999Z</time></trkpt><trkpt lat="43.66954092772049" lon="12.11493548888134"><ele>925.0</ele><time>2026-04-18T15:56:39.999Z</time></trkpt><trkpt lat="43.66942418264186" lon="12.114833470448513"><ele>925.0</ele><time>2026-04-18T15:56:40.999Z</time></trkpt><trkpt lat="43.66932164448631" lon="12.114743204681831"><ele>921.75</ele><time>2026-04-18T15:56:41.999Z</time></trkpt><trkpt lat="43.66920770464035" lon="12.114704210087982"><ele>918.5</ele><time>2026-04-18T15:56:42.999Z</time></trkpt><trkpt lat="43.669069584605566" lon="12.114722761920918"><ele>915.25</ele><time>2026-04-18T15:56:43.999Z</time></trkpt><trkpt lat="43.66892802625117" lon="12.114778028341377"><ele>912.0</ele><time>2026-04-18T15:56:44.999Z</time></trkpt><trkpt lat="43.668778490858614" lon="12.114830479543977"><ele>912.0</ele><time>2026-04-18T15:56:45.999Z</time></trkpt><trkpt lat="43.668615767941404" lon="12.114844839047514"><ele>912.0</ele><time>2026-04-18T15:56:47Z</time></trkpt><trkpt lat="43.66845772949645" lon="12.114796139624541"><ele>912.0</ele><time>2026-04-18T15:56:48Z</time></trkpt><trkpt lat="43.66830940896448" lon="12.114720742728254"><ele>910.0</ele><time>2026-04-18T15:56:49Z</time></trkpt><trkpt lat="43.668183429444255" lon="12.114625042863315"><ele>908.0</ele><time>2026-04-18T15:56:50Z</time></trkpt><trkpt lat="43.66807033894728" lon="12.11455725310103"><ele>906.0</ele><time>2026-04-18T15:56:51Z</time></trkpt><trkpt lat="43.66795428499125" lon="12.114533198527289"><ele>904.0</ele><time>2026-04-18T15:56:52Z</time></trkpt><trkpt lat="43.667840642541144" lon="12.11457403806538"><ele>905.5</ele><time>2026-04-18T15:56:53Z</time></trkpt><trkpt lat="43.66772511358529" lon="12.114655691073091"><ele>907.0</ele><time>2026-04-18T15:56:54Z</time></trkpt><trkpt lat="43.66761094216207" lon="12.114728994042984"><ele>908.5</ele><time>2026-04-18T15:56:55Z</time></trkpt><trkpt lat="43.66748752122741" lon="12.114686355124444"><ele>910.0</ele><time>2026-04-18T15:56:56Z</time></trkpt><trkpt lat="43.66738178147608" lon="12.114570688236267"><ele>910.0</ele><time>2026-04-18T15:56:57Z</time></trkpt><trkpt lat="43.667285024312015" lon="12.114424787322857"><ele>910.0</ele><time>2026-04-18T15:56:58Z</time></trkpt><trkpt lat="43.667184078968695" lon="12.114266119547596"><ele>910.0</ele><time>2026-04-18T15:56:59Z</time></trkpt><trkpt lat="43.66706622196888" lon="12.1141185339133"><ele>910.3333333333333</ele><time>2026-04-18T15:57:00Z</time></trkpt><trkpt lat="43.66696152620026" lon="12.11395111532681"><ele>910.6666666666667</ele><time>2026-04-18T15:57:01Z</time></trkpt><trkpt lat="43.66685733739316" lon="12.113797769333233"><ele>911.0</ele><time>2026-04-18T15:57:02Z</time></trkpt><trkpt lat="43.66675811696772" lon="12.113637153343127"><ele>911.0</ele><time>2026-04-18T15:57:03Z</time></trkpt><trkpt lat="43.666666695344276" lon="12.113462422357433"><ele>911.0</ele><time>2026-04-18T15:57:04Z</time></trkpt><trkpt lat="43.66661748194544" lon="12.113250030549308"><ele>911.0</ele><time>2026-04-18T15:57:05Z</time></trkpt><trkpt lat="43.66658826417497" lon="12.113024480861926"><ele>910.0</ele><time>2026-04-18T15:57:06Z</time></trkpt><trkpt lat="43.666576431316386" lon="12.112786687241819"><ele>909.0</ele><time>2026-04-18T15:57:07Z</time></trkpt><trkpt lat="43.666566327215726" lon="12.112543800904463"><ele>908.0</ele><time>2026-04-18T15:57:08Z</time></trkpt><trkpt lat="43.66656273359122" lon="12.112302366044709"><ele>908.0</ele><time>2026-04-18T15:57:09Z</time></trkpt><trkpt lat="43.66658076164421" lon="12.11206864029921"><ele>908.0</ele><time>2026-04-18T15:57:10Z</time></trkpt><trkpt lat="43.666598546247315" lon="12.111841193427674"><ele>908.0</ele><time>2026-04-18T15:57:11Z</time></trkpt><trkpt lat="43.666641212460256" lon="12.111627892170162"><ele>907.5</ele><time>2026-04-18T15:57:12Z</time></trkpt><trkpt lat="43.66668024889738" lon="12.1114243802703"><ele>907.0</ele><time>2026-04-18T15:57:13Z</time></trkpt><trkpt lat="43.666703678557695" lon="12.111233207393168"><ele>906.5</ele><time>2026-04-18T15:57:14Z</time></trkpt><trkpt lat="43.666702819882524" lon="12.111039905400407"><ele>906.0</ele><time>2026-04-18T15:57:15Z</time></trkpt><trkpt lat="43.66667388438897" lon="12.110840318005604"><ele>902.6666666666667</ele><time>2026-04-18T15:57:16Z</time></trkpt><trkpt lat="43.666613650352645" lon="12.110634610143949"><ele>899.3333333333334</ele><time>2026-04-18T15:57:17Z</time></trkpt><trkpt lat="43.666529668374245" lon="12.110429189162815"><ele>896.0</ele><time>2026-04-18T15:57:18Z</time></trkpt><trkpt lat="43.66643702871538" lon="12.11021996119669"><ele>896.0</ele><time>2026-04-18T15:57:19Z</time></trkpt><trkpt lat="43.66635175699652" lon="12.110011735874807"><ele>896.0</ele><time>2026-04-18T15:57:20Z</time></trkpt><trkpt lat="43.666276658164925" lon="12.109809541328678"><ele>896.0</ele><time>2026-04-18T15:57:21Z</time></trkpt><trkpt lat="43.666204404491985" lon="12.109633498351918"><ele>896.5</ele><time>2026-04-18T15:57:22Z</time></trkpt><trkpt lat="43.66612196894386" lon="12.109483896128655"><ele>897.0</ele><time>2026-04-18T15:57:23Z</time></trkpt><trkpt lat="43.666016149133135" lon="12.109371737192815"><ele>897.5</ele><time>2026-04-18T15:57:24Z</time></trkpt><trkpt lat="43.66588357624411" lon="12.109289541343239"><ele>898.0</ele><time>2026-04-18T15:57:25Z</time></trkpt><trkpt lat="43.66573129875995" lon="12.109220322530302"><ele>898.0</ele><time>2026-04-18T15:57:26Z</time></trkpt><trkpt lat="43.66556901397779" lon="12.109145526098885"><ele>898.0</ele><time>2026-04-18T15:57:27Z</time></trkpt><trkpt lat="43.66540907382298" lon="12.109047909398434"><ele>898.0</ele><time>2026-04-18T15:57:28Z</time></trkpt><trkpt lat="43.66526278889735" lon="12.108925313300816"><ele>896.3333333333333</ele><time>2026-04-18T15:57:29Z</time></trkpt><trkpt lat="43.66514548261226" lon="12.108739522050405"><ele>894.6666666666667</ele><time>2026-04-18T15:57:30Z</time></trkpt><trkpt lat="43.66502181394473" lon="12.10854723051656"><ele>893.0</ele><time>2026-04-18T15:57:30.999Z</time></trkpt><trkpt lat="43.66488757338977" lon="12.108359110834591"><ele>892.0</ele><time>2026-04-18T15:57:31.999Z</time></trkpt><trkpt lat="43.66475277110237" lon="12.10816959356753"><ele>891.0</ele><time>2026-04-18T15:57:32.999Z</time></trkpt><trkpt lat="43.664603546220256" lon="12.10799216681961"><ele>890.0</ele><time>2026-04-18T15:57:33.999Z</time></trkpt><trkpt lat="43.664444684886355" lon="12.10781479214421"><ele>890.0</ele><time>2026-04-18T15:57:34.999Z</time></trkpt><trkpt lat="43.66428356607426" lon="12.107632809514993"><ele>890.0</ele><time>2026-04-18T15:57:35.999Z</time></trkpt><trkpt lat="43.66412108053474" lon="12.107445555504956"><ele>890.0</ele><time>2026-04-18T15:57:36.999Z</time></trkpt><trkpt lat="43.663966934411405" lon="12.107250346186333"><ele>889.0</ele><time>2026-04-18T15:57:37.999Z</time></trkpt><trkpt lat="43.66382781098687" lon="12.107040121639706"><ele>888.0</ele><time>2026-04-18T15:57:38.999Z</time></trkpt><trkpt lat="43.66370256684688" lon="12.106825643514536"><ele>887.0</ele><time>2026-04-18T15:57:39.999Z</time></trkpt><trkpt lat="43.663583253508705" lon="12.10660993603472"><ele>884.3333333333334</ele><time>2026-04-18T15:57:40.999Z</time></trkpt><trkpt lat="43.66346959326202" lon="12.106398430382608"><ele>881.6666666666667</ele><time>2026-04-18T15:57:41.999Z</time></trkpt><trkpt lat="43.6633547282957" lon="12.106196091219056"><ele>879.0</ele><time>2026-04-18T15:57:42.999Z</time></trkpt><trkpt lat="43.66324493518739" lon="12.106006822243213"><ele>879.0</ele><time>2026-04-18T15:57:43.999Z</time></trkpt><trkpt lat="43.66314779293202" lon="12.10582601758669"><ele>879.0</ele><time>2026-04-18T15:57:44.999Z</time></trkpt><trkpt lat="43.663090802081285" lon="12.105641687056977"><ele>879.0</ele><time>2026-04-18T15:57:45.999Z</time></trkpt><trkpt lat="43.66305657859667" lon="12.105462307968244"><ele>879.0</ele><time>2026-04-18T15:57:46.999Z</time></trkpt><trkpt lat="43.66304724123424" lon="12.105283619757342"><ele>877.4000000000001</ele><time>2026-04-18T15:57:47.999Z</time></trkpt><trkpt lat="43.6630268701132" lon="12.10512378372454"><ele>875.8000000000001</ele><time>2026-04-18T15:57:48.999Z</time></trkpt><trkpt lat="43.663005471761366" lon="12.104975769229965"><ele>874.1999999999999</ele><time>2026-04-18T15:57:49.999Z</time></trkpt><trkpt lat="43.662947142870934" lon="12.104850702482917"><ele>872.5999999999999</ele><time>2026-04-18T15:57:50.999Z</time></trkpt><trkpt lat="43.662856687082765" lon="12.104757782191376"><ele>871.0</ele><time>2026-04-18T15:57:51.999Z</time></trkpt><trkpt lat="43.66274212099934" lon="12.104721374799453"><ele>871.5</ele><time>2026-04-18T15:57:52.999Z</time></trkpt><trkpt lat="43.66261586004876" lon="12.104728867328724"><ele>872.0</ele><time>2026-04-18T15:57:53.999Z</time></trkpt><trkpt lat="43.66249553484893" lon="12.104778829699374"><ele>872.5</ele><time>2026-04-18T15:57:54.999Z</time></trkpt><trkpt lat="43.66238417791176" lon="12.104869854572971"><ele>873.0</ele><time>2026-04-18T15:57:55.999Z</time></trkpt><trkpt lat="43.66229221437397" lon="12.105012208131223"><ele>873.0</ele><time>2026-04-18T15:57:56.999Z</time></trkpt><trkpt lat="43.66221367043605" lon="12.105195261098517"><ele>873.0</ele><time>2026-04-18T15:57:57.999Z</time></trkpt><trkpt lat="43.66213781920198" lon="12.105397650123633"><ele>873.0</ele><time>2026-04-18T15:57:58.999Z</time></trkpt><trkpt lat="43.662055411654855" lon="12.105601541441073"><ele>875.6666666666667</ele><time>2026-04-18T15:57:59.999Z</time></trkpt><trkpt lat="43.6619528211709" lon="12.105808095082226"><ele>878.3333333333334</ele><time>2026-04-18T15:58:00.999Z</time></trkpt><trkpt lat="43.66183252961916" lon="12.105996187309895"><ele>881.0</ele><time>2026-04-18T15:58:01.999Z</time></trkpt><trkpt lat="43.661682433682756" lon="12.106166592764241"><ele>874.6666666666667</ele><time>2026-04-18T15:58:02.999Z</time></trkpt><trkpt lat="43.661504239662946" lon="12.106300538092304"><ele>868.3333333333333</ele><time>2026-04-18T15:58:03.999Z</time></trkpt><trkpt lat="43.66130345272682" lon="12.106356298246075"><ele>862.0</ele><time>2026-04-18T15:58:04.999Z</time></trkpt><trkpt lat="43.661094703163776" lon="12.106404503738208"><ele>857.3333333333333</ele><time>2026-04-18T15:58:05.999Z</time></trkpt><trkpt lat="43.66089686561095" lon="12.106403156792016"><ele>852.6666666666667</ele><time>2026-04-18T15:58:06.999Z</time></trkpt><trkpt lat="43.6607098687054" lon="12.106413408584185"><ele>848.0</ele><time>2026-04-18T15:58:07.999Z</time></trkpt><trkpt lat="43.66053032560306" lon="12.106437506719725"><ele>848.0</ele><time>2026-04-18T15:58:08.999Z</time></trkpt><trkpt lat="43.660355679299485" lon="12.106474045232067"><ele>848.0</ele><time>2026-04-18T15:58:09.999Z</time></trkpt><trkpt lat="43.66018978549848" lon="12.106539710659016"><ele>848.0</ele><time>2026-04-18T15:58:10.999Z</time></trkpt><trkpt lat="43.66002582926219" lon="12.106626872213537"><ele>851.0</ele><time>2026-04-18T15:58:11.999Z</time></trkpt><trkpt lat="43.65983787866021" lon="12.10668339707319"><ele>854.0</ele><time>2026-04-18T15:58:12.999Z</time></trkpt><trkpt lat="43.659710915887345" lon="12.10680666714023"><ele>857.0</ele><time>2026-04-18T15:58:13.999Z</time></trkpt><trkpt lat="43.65953760911537" lon="12.106905479204887"><ele>855.3333333333334</ele><time>2026-04-18T15:58:14.999Z</time></trkpt><trkpt lat="43.659338354836734" lon="12.106945081523834"><ele>853.6666666666667</ele><time>2026-04-18T15:58:15.999Z</time></trkpt><trkpt lat="43.65927579631545" lon="12.107052141342061"><ele>852.0</ele><time>2026-04-18T15:58:16.999Z</time></trkpt><trkpt lat="43.65909459837272" lon="12.107040516268922"><ele>852.0</ele><time>2026-04-18T15:58:17.999Z</time></trkpt><trkpt lat="43.6589108059683" lon="12.107004753300481"><ele>852.0</ele><time>2026-04-18T15:58:18.999Z</time></trkpt><trkpt lat="43.65874361836538" lon="12.106959588417018"><ele>852.0</ele><time>2026-04-18T15:58:19.999Z</time></trkpt><trkpt lat="43.65859141094043" lon="12.10690724752554"><ele>850.75</ele><time>2026-04-18T15:58:20.999Z</time></trkpt><trkpt lat="43.658454558739365" lon="12.106853349582275"><ele>849.5</ele><time>2026-04-18T15:58:21.999Z</time></trkpt><trkpt lat="43.65832625511907" lon="12.106817996784445"><ele>848.25</ele><time>2026-04-18T15:58:22.999Z</time></trkpt><trkpt lat="43.6582194109142" lon="12.106800736106583"><ele>847.0</ele><time>2026-04-18T15:58:23.999Z</time></trkpt><trkpt lat="43.65812554656406" lon="12.106823436077397"><ele>847.0</ele><time>2026-04-18T15:58:24.999Z</time></trkpt><trkpt lat="43.65803738431543" lon="12.106902946613792"><ele>847.0</ele><time>2026-04-18T15:58:25.999Z</time></trkpt><trkpt lat="43.6579700249642" lon="12.107039779112336"><ele>847.0</ele><time>2026-04-18T15:58:26.999Z</time></trkpt><trkpt lat="43.65794208244109" lon="12.1072233172193"><ele>847.0</ele><time>2026-04-18T15:58:27.999Z</time></trkpt><trkpt lat="43.6579406199893" lon="12.10742650554456"><ele>848.0</ele><time>2026-04-18T15:58:28.999Z</time></trkpt><trkpt lat="43.65795514912974" lon="12.107650868414481"><ele>849.0</ele><time>2026-04-18T15:58:29.999Z</time></trkpt><trkpt lat="43.657958578309284" lon="12.107873067790988"><ele>850.0</ele><time>2026-04-18T15:58:30.999Z</time></trkpt><trkpt lat="43.65795618435387" lon="12.108110625512222"><ele>850.3333333333333</ele><time>2026-04-18T15:58:31.999Z</time></trkpt><trkpt lat="43.65794950611223" lon="12.108353149322012"><ele>850.6666666666667</ele><time>2026-04-18T15:58:32.999Z</time></trkpt><trkpt lat="43.65794691394436" lon="12.108589098362645"><ele>851.0</ele><time>2026-04-18T15:58:33.999Z</time></trkpt><trkpt lat="43.65792874625445" lon="12.108817798576888"><ele>851.0</ele><time>2026-04-18T15:58:34.999Z</time></trkpt><trkpt lat="43.657918895808386" lon="12.109026979111833"><ele>851.0</ele><time>2026-04-18T15:58:35.999Z</time></trkpt><trkpt lat="43.65790817108776" lon="12.109220807690317"><ele>851.0</ele><time>2026-04-18T15:58:36.999Z</time></trkpt><trkpt lat="43.657873640174365" lon="12.109395100093506"><ele>851.0</ele><time>2026-04-18T15:58:37.999Z</time></trkpt><trkpt lat="43.65779760742454" lon="12.109529875289264"><ele>847.0</ele><time>2026-04-18T15:58:38.999Z</time></trkpt><trkpt lat="43.657686400061145" lon="12.109632243994238"><ele>843.0</ele><time>2026-04-18T15:58:39.999Z</time></trkpt><trkpt lat="43.6575516071446" lon="12.109721417534342"><ele>839.0</ele><time>2026-04-18T15:58:40.999Z</time></trkpt><trkpt lat="43.65740334517308" lon="12.10978337979295"><ele>835.0</ele><time>2026-04-18T15:58:41.999Z</time></trkpt><trkpt lat="43.657251540595844" lon="12.109829964020514"><ele>835.0</ele><time>2026-04-18T15:58:42.999Z</time></trkpt><trkpt lat="43.657121402656195" lon="12.109893592288996"><ele>835.0</ele><time>2026-04-18T15:58:43.999Z</time></trkpt><trkpt lat="43.65699761136379" lon="12.109934042854277"><ele>835.0</ele><time>2026-04-18T15:58:44.999Z</time></trkpt><trkpt lat="43.65689172586463" lon="12.110021386656948"><ele>835.0</ele><time>2026-04-18T15:58:45.999Z</time></trkpt><trkpt lat="43.65680918268169" lon="12.110143018427701"><ele>833.5</ele><time>2026-04-18T15:58:46.999Z</time></trkpt><trkpt lat="43.6567607453442" lon="12.110299430498934"><ele>832.0</ele><time>2026-04-18T15:58:47.999Z</time></trkpt><trkpt lat="43.65676749943784" lon="12.110473357557044"><ele>830.5</ele><time>2026-04-18T15:58:48.999Z</time></trkpt><trkpt lat="43.65681920536136" lon="12.110637976909155"><ele>829.0</ele><time>2026-04-18T15:58:49.999Z</time></trkpt><trkpt lat="43.65691430505663" lon="12.110794781936388"><ele>832.0</ele><time>2026-04-18T15:58:50.999Z</time></trkpt><trkpt lat="43.65701186410982" lon="12.110947630612294"><ele>835.0</ele><time>2026-04-18T15:58:51.999Z</time></trkpt><trkpt lat="43.65704746652992" lon="12.111155374306161"><ele>838.0</ele><time>2026-04-18T15:58:53Z</time></trkpt><trkpt lat="43.65706464434339" lon="12.1113975697296"><ele>836.3333333333333</ele><time>2026-04-18T15:58:54Z</time></trkpt><trkpt lat="43.657078112513275" lon="12.11165032326729"><ele>834.6666666666667</ele><time>2026-04-18T15:58:55Z</time></trkpt><trkpt lat="43.65708933498023" lon="12.111893978118927"><ele>833.0</ele><time>2026-04-18T15:58:56Z</time></trkpt><trkpt lat="43.657098285578435" lon="12.112127655835648"><ele>833.0</ele><time>2026-04-18T15:58:57Z</time></trkpt><trkpt lat="43.65708970917052" lon="12.112364610850259"><ele>833.0</ele><time>2026-04-18T15:58:58Z</time></trkpt><trkpt lat="43.65705881233473" lon="12.112603293316125"><ele>833.0</ele><time>2026-04-18T15:58:59Z</time></trkpt><trkpt lat="43.657023326336535" lon="12.112834262132127"><ele>832.5</ele><time>2026-04-18T15:59:00Z</time></trkpt><trkpt lat="43.656987734590516" lon="12.113043106879656"><ele>832.0</ele><time>2026-04-18T15:59:01Z</time></trkpt><trkpt lat="43.656948233218856" lon="12.113242270001072"><ele>831.5</ele><time>2026-04-18T15:59:02Z</time></trkpt><trkpt lat="43.65688559463973" lon="12.11339771725083"><ele>831.0</ele><time>2026-04-18T15:59:03Z</time></trkpt><trkpt lat="43.65678747626341" lon="12.113505364882796"><ele>827.0</ele><time>2026-04-18T15:59:04Z</time></trkpt><trkpt lat="43.6566626843101" lon="12.113555757977414"><ele>823.0</ele><time>2026-04-18T15:59:05Z</time></trkpt><trkpt lat="43.65650789407778" lon="12.113600344235627"><ele>819.0</ele><time>2026-04-18T15:59:06Z</time></trkpt><trkpt lat="43.65633926380747" lon="12.113638730573003"><ele>819.0</ele><time>2026-04-18T15:59:07Z</time></trkpt><trkpt lat="43.65614799297944" lon="12.113683979513464"><ele>819.0</ele><time>2026-04-18T15:59:08Z</time></trkpt><trkpt lat="43.6559522420803" lon="12.113730804444263"><ele>819.0</ele><time>2026-04-18T15:59:09Z</time></trkpt><trkpt lat="43.65574890055993" lon="12.11377944510383"><ele>814.6666666666667</ele><time>2026-04-18T15:59:10Z</time></trkpt><trkpt lat="43.65555681229709" lon="12.113834220650537"><ele>810.3333333333334</ele><time>2026-04-18T15:59:11Z</time></trkpt><trkpt lat="43.65536272012245" lon="12.113873848526653"><ele>806.0</ele><time>2026-04-18T15:59:12Z</time></trkpt><trkpt lat="43.655174024105705" lon="12.113911584679121"><ele>803.3333333333334</ele><time>2026-04-18T15:59:13Z</time></trkpt><trkpt lat="43.654998824297365" lon="12.113944618854411"><ele>800.6666666666667</ele><time>2026-04-18T15:59:14Z</time></trkpt><trkpt lat="43.654834802009034" lon="12.113981466506226"><ele>798.0</ele><time>2026-04-18T15:59:15Z</time></trkpt><trkpt lat="43.65468982576157" lon="12.114022935957468"><ele>797.5</ele><time>2026-04-18T15:59:16Z</time></trkpt><trkpt lat="43.654566744972456" lon="12.114093166291276"><ele>797.0</ele><time>2026-04-18T15:59:17Z</time></trkpt><trkpt lat="43.654464945753816" lon="12.114212329718134"><ele>796.5</ele><time>2026-04-18T15:59:18Z</time></trkpt><trkpt lat="43.65437727380103" lon="12.114381333410043"><ele>796.0</ele><time>2026-04-18T15:59:19Z</time></trkpt><trkpt lat="43.654311146914814" lon="12.114589413431723"><ele>796.0</ele><time>2026-04-18T15:59:20Z</time></trkpt><trkpt lat="43.654248167644575" lon="12.114790461386914"><ele>796.0</ele><time>2026-04-18T15:59:21Z</time></trkpt><trkpt lat="43.65418735760278" lon="12.114957092334206"><ele>796.0</ele><time>2026-04-18T15:59:22Z</time></trkpt><trkpt lat="43.65412072892295" lon="12.115083960199481"><ele>796.0</ele><time>2026-04-18T15:59:23Z</time></trkpt><trkpt lat="43.65406419813426" lon="12.115211524720465"><ele>796.5999999999999</ele><time>2026-04-18T15:59:24Z</time></trkpt><trkpt lat="43.65400517380919" lon="12.115315903461992"><ele>797.2</ele><time>2026-04-18T15:59:25Z</time></trkpt><trkpt lat="43.65390411461304" lon="12.115349582692417"><ele>797.8</ele><time>2026-04-18T15:59:26Z</time></trkpt><trkpt lat="43.653795326120054" lon="12.115311819898048"><ele>798.4000000000001</ele><time>2026-04-18T15:59:27Z</time></trkpt><trkpt lat="43.653718999412064" lon="12.115188725163273"><ele>799.0</ele><time>2026-04-18T15:59:28Z</time></trkpt><trkpt lat="43.65368201833141" lon="12.115026610040506"><ele>798.0</ele><time>2026-04-18T15:59:29Z</time></trkpt><trkpt lat="43.65370625807524" lon="12.114816072846347"><ele>797.0</ele><time>2026-04-18T15:59:30Z</time></trkpt><trkpt lat="43.65373443139423" lon="12.114618988766301"><ele>796.0</ele><time>2026-04-18T15:59:31Z</time></trkpt><trkpt lat="43.65376367654034" lon="12.114403751340372"><ele>796.0</ele><time>2026-04-18T15:59:32Z</time></trkpt><trkpt lat="43.65376542708473" lon="12.114172033626085"><ele>796.0</ele><time>2026-04-18T15:59:33Z</time></trkpt><trkpt lat="43.653727660721444" lon="12.113942994975984"><ele>796.0</ele><time>2026-04-18T15:59:34Z</time></trkpt><trkpt lat="43.65365616790514" lon="12.113711374202383"><ele>791.6666666666666</ele><time>2026-04-18T15:59:35Z</time></trkpt><trkpt lat="43.6535724578192" lon="12.113485659371035"><ele>787.3333333333333</ele><time>2026-04-18T15:59:36Z</time></trkpt><trkpt lat="43.65348863912226" lon="12.113253713617963"><ele>783.0</ele><time>2026-04-18T15:59:37Z</time></trkpt><trkpt lat="43.65340260655718" lon="12.113013263512634"><ele>782.0</ele><time>2026-04-18T15:59:38Z</time></trkpt><trkpt lat="43.653316732901075" lon="12.112762951226708"><ele>781.0</ele><time>2026-04-18T15:59:39Z</time></trkpt><trkpt lat="43.65323662789979" lon="12.112522911517122"><ele>780.0</ele><time>2026-04-18T15:59:40Z</time></trkpt><trkpt lat="43.653158985778646" lon="12.112288399224193"><ele>779.6666666666667</ele><time>2026-04-18T15:59:41Z</time></trkpt><trkpt lat="43.65307927067425" lon="12.112060715484905"><ele>779.3333333333334</ele><time>2026-04-18T15:59:42Z</time></trkpt><trkpt lat="43.6530042914793" lon="12.111838743794289"><ele>779.0</ele><time>2026-04-18T15:59:43Z</time></trkpt><trkpt lat="43.652936712172725" lon="12.111625836558657"><ele>779.5</ele><time>2026-04-18T15:59:44Z</time></trkpt><trkpt lat="43.65287192310014" lon="12.111427353735571"><ele>780.0</ele><time>2026-04-18T15:59:45Z</time></trkpt><trkpt lat="43.65280665525044" lon="12.111243721360475"><ele>780.5</ele><time>2026-04-18T15:59:46Z</time></trkpt><trkpt lat="43.65274010687815" lon="12.111077372487214"><ele>781.0</ele><time>2026-04-18T15:59:47Z</time></trkpt><trkpt lat="43.65266104349145" lon="12.110938226813923"><ele>779.5</ele><time>2026-04-18T15:59:48Z</time></trkpt><trkpt lat="43.65256663702483" lon="12.110831942787351"><ele>778.0</ele><time>2026-04-18T15:59:49Z</time></trkpt><trkpt lat="43.652452687984415" lon="12.110761659947508"><ele>776.5</ele><time>2026-04-18T15:59:50Z</time></trkpt><trkpt lat="43.652317643601975" lon="12.110707025753358"><ele>775.0</ele><time>2026-04-18T15:59:51Z</time></trkpt><trkpt lat="43.65218129470592" lon="12.110622475514443"><ele>775.0</ele><time>2026-04-18T15:59:52Z</time></trkpt><trkpt lat="43.65206875499078" lon="12.11058423781346"><ele>775.0</ele><time>2026-04-18T15:59:53Z</time></trkpt><trkpt lat="43.651971058403646" lon="12.110472736860869"><ele>775.0</ele><time>2026-04-18T15:59:54Z</time></trkpt><trkpt lat="43.65189773184121" lon="12.110316745739532"><ele>775.0</ele><time>2026-04-18T15:59:55Z</time></trkpt><trkpt lat="43.65185328026032" lon="12.110127632794384"><ele>772.0</ele><time>2026-04-18T15:59:56Z</time></trkpt><trkpt lat="43.651841537806845" lon="12.109929697677105"><ele>769.0</ele><time>2026-04-18T15:59:57Z</time></trkpt><trkpt lat="43.65182472825556" lon="12.10974658128938"><ele>766.0</ele><time>2026-04-18T15:59:58Z</time></trkpt><trkpt lat="43.65175660062599" lon="12.109603789192331"><ele>763.0</ele><time>2026-04-18T15:59:59Z</time></trkpt><trkpt lat="43.65166130797368" lon="12.109487227621699"><ele>763.0</ele><time>2026-04-18T16:00:00Z</time></trkpt><trkpt lat="43.65155750568025" lon="12.10939164056985"><ele>763.0</ele><time>2026-04-18T16:00:01Z</time></trkpt><trkpt lat="43.65141147575786" lon="12.10935471462778"><ele>763.0</ele><time>2026-04-18T16:00:02Z</time></trkpt><trkpt lat="43.651250637095366" lon="12.109331153383147"><ele>763.0</ele><time>2026-04-18T16:00:03Z</time></trkpt><trkpt lat="43.65109264923615" lon="12.109305637474472"><ele>760.0</ele><time>2026-04-18T16:00:04Z</time></trkpt><trkpt lat="43.65095424256666" lon="12.109274754772418"><ele>757.0</ele><time>2026-04-18T16:00:05Z</time></trkpt><trkpt lat="43.65083493182725" lon="12.109244606310442"><ele>754.0</ele><time>2026-04-18T16:00:06Z</time></trkpt><trkpt lat="43.65073748307609" lon="12.109186959040452"><ele>751.0</ele><time>2026-04-18T16:00:07Z</time></trkpt><trkpt lat="43.650663497620634" lon="12.10908336537424"><ele>750.25</ele><time>2026-04-18T16:00:08Z</time></trkpt><trkpt lat="43.65060905100113" lon="12.108964223265804"><ele>749.5</ele><time>2026-04-18T16:00:09Z</time></trkpt><trkpt lat="43.650656496932264" lon="12.108805536830463"><ele>748.75</ele><time>2026-04-18T16:00:09.999Z</time></trkpt><trkpt lat="43.65074268640492" lon="12.10872134317681"><ele>748.0</ele><time>2026-04-18T16:00:10.999Z</time></trkpt><trkpt lat="43.65083721720848" lon="12.108600859644659"><ele>748.0</ele><time>2026-04-18T16:00:11.999Z</time></trkpt><trkpt lat="43.650937733934924" lon="12.10847171000439"><ele>748.0</ele><time>2026-04-18T16:00:12.999Z</time></trkpt><trkpt lat="43.651039507884605" lon="12.108344184236847"><ele>748.0</ele><time>2026-04-18T16:00:13.999Z</time></trkpt><trkpt lat="43.65115063290592" lon="12.108204161327114"><ele>748.0</ele><time>2026-04-18T16:00:14.999Z</time></trkpt><trkpt lat="43.651259356226355" lon="12.108064851949147"><ele>748.3333333333334</ele><time>2026-04-18T16:00:15.999Z</time></trkpt><trkpt lat="43.651365330265065" lon="12.107905336392696"><ele>748.6666666666666</ele><time>2026-04-18T16:00:16.999Z</time></trkpt><trkpt lat="43.6514858891027" lon="12.107759935564792"><ele>749.0</ele><time>2026-04-18T16:00:17.999Z</time></trkpt><trkpt lat="43.65160038546926" lon="12.107609291951395"><ele>749.0</ele><time>2026-04-18T16:00:18.999Z</time></trkpt><trkpt lat="43.65170470586601" lon="12.1074759346212"><ele>749.0</ele><time>2026-04-18T16:00:19.999Z</time></trkpt><trkpt lat="43.6517916258038" lon="12.10735321736629"><ele>749.0</ele><time>2026-04-18T16:00:20.999Z</time></trkpt><trkpt lat="43.651860060161376" lon="12.10721599971364"><ele>749.0</ele><time>2026-04-18T16:00:21.999Z</time></trkpt><trkpt lat="43.651896202548315" lon="12.107036690431391"><ele>747.6666666666666</ele><time>2026-04-18T16:00:22.999Z</time></trkpt><trkpt lat="43.65189802985507" lon="12.106823916096182"><ele>746.3333333333334</ele><time>2026-04-18T16:00:23.999Z</time></trkpt><trkpt lat="43.651866677856496" lon="12.106597058332536"><ele>745.0</ele><time>2026-04-18T16:00:24.999Z</time></trkpt><trkpt lat="43.65183370948738" lon="12.106386574359998"><ele>744.5</ele><time>2026-04-18T16:00:25.999Z</time></trkpt><trkpt lat="43.65179942020215" lon="12.106200944224687"><ele>744.0</ele><time>2026-04-18T16:00:26.999Z</time></trkpt><trkpt lat="43.6517463429073" lon="12.106027069375255"><ele>743.5</ele><time>2026-04-18T16:00:27.999Z</time></trkpt><trkpt lat="43.651660462952655" lon="12.105871735188725"><ele>743.0</ele><time>2026-04-18T16:00:28.999Z</time></trkpt><trkpt lat="43.65153790396536" lon="12.105731402437641"><ele>743.0</ele><time>2026-04-18T16:00:29.999Z</time></trkpt><trkpt lat="43.65141391277946" lon="12.105594586641562"><ele>743.0</ele><time>2026-04-18T16:00:30.999Z</time></trkpt><trkpt lat="43.65129095604491" lon="12.105437550749645"><ele>743.0</ele><time>2026-04-18T16:00:31.999Z</time></trkpt><trkpt lat="43.651206720685735" lon="12.105245443441445"><ele>743.0</ele><time>2026-04-18T16:00:32.999Z</time></trkpt><trkpt lat="43.65116929481945" lon="12.10501376971324"><ele>743.0</ele><time>2026-04-18T16:00:33.999Z</time></trkpt><trkpt lat="43.651125329852825" lon="12.104764818330693"><ele>743.0</ele><time>2026-04-18T16:00:34.999Z</time></trkpt><trkpt lat="43.65112752432286" lon="12.10452308600499"><ele>743.0</ele><time>2026-04-18T16:00:35.999Z</time></trkpt><trkpt lat="43.651136247957766" lon="12.104298933725397"><ele>743.0</ele><time>2026-04-18T16:00:36.999Z</time></trkpt><trkpt lat="43.65113824621554" lon="12.104086860862141"><ele>743.0</ele><time>2026-04-18T16:00:37.999Z</time></trkpt><trkpt lat="43.65110459570621" lon="12.103891678516717"><ele>738.6666666666666</ele><time>2026-04-18T16:00:38.999Z</time></trkpt><trkpt lat="43.65103929785076" lon="12.103708657419071"><ele>734.3333333333334</ele><time>2026-04-18T16:00:39.999Z</time></trkpt><trkpt lat="43.65094358796934" lon="12.103550207349322"><ele>730.0</ele><time>2026-04-18T16:00:40.999Z</time></trkpt><trkpt lat="43.65082743436759" lon="12.10341350454578"><ele>730.0</ele><time>2026-04-18T16:00:41.999Z</time></trkpt><trkpt lat="43.65068238630598" lon="12.10329864117376"><ele>730.0</ele><time>2026-04-18T16:00:42.999Z</time></trkpt><trkpt lat="43.650521617210615" lon="12.10319254875896"><ele>730.0</ele><time>2026-04-18T16:00:43.999Z</time></trkpt><trkpt lat="43.650368749853236" lon="12.103095017403804"><ele>727.0</ele><time>2026-04-18T16:00:44.999Z</time></trkpt><trkpt lat="43.650236065522364" lon="12.103003566135563"><ele>724.0</ele><time>2026-04-18T16:00:45.999Z</time></trkpt><trkpt lat="43.65012141192755" lon="12.102896337587312"><ele>721.0</ele><time>2026-04-18T16:00:46.999Z</time></trkpt><trkpt lat="43.65005558105634" lon="12.102727977270726"><ele>718.0</ele><time>2026-04-18T16:00:47.999Z</time></trkpt><trkpt lat="43.65002178934823" lon="12.102560272070928"><ele>717.0</ele><time>2026-04-18T16:00:48.999Z</time></trkpt><trkpt lat="43.65003212668248" lon="12.102378962631358"><ele>716.0</ele><time>2026-04-18T16:00:49.999Z</time></trkpt><trkpt lat="43.65008060094442" lon="12.10219031479694"><ele>715.0</ele><time>2026-04-18T16:00:50.999Z</time></trkpt><trkpt lat="43.650157673906556" lon="12.102009588058833"><ele>714.0</ele><time>2026-04-18T16:00:51.999Z</time></trkpt><trkpt lat="43.650240121529706" lon="12.101813399992833"><ele>715.3333333333334</ele><time>2026-04-18T16:00:52.999Z</time></trkpt><trkpt lat="43.650311662079254" lon="12.101598463948042"><ele>716.6666666666667</ele><time>2026-04-18T16:00:53.999Z</time></trkpt><trkpt lat="43.65033440343411" lon="12.101357133255197"><ele>718.0</ele><time>2026-04-18T16:00:54.999Z</time></trkpt><trkpt lat="43.65033014950608" lon="12.10110629362968"><ele>718.0</ele><time>2026-04-18T16:00:55.999Z</time></trkpt><trkpt lat="43.65030556213297" lon="12.100852526043186"><ele>718.0</ele><time>2026-04-18T16:00:56.999Z</time></trkpt><trkpt lat="43.65027854010807" lon="12.100594516499978"><ele>718.0</ele><time>2026-04-18T16:00:57.999Z</time></trkpt><trkpt lat="43.65026199628552" lon="12.100331726746203"><ele>717.0</ele><time>2026-04-18T16:00:59Z</time></trkpt><trkpt lat="43.65025132858187" lon="12.10007757297852"><ele>716.0</ele><time>2026-04-18T16:01:00Z</time></trkpt><trkpt lat="43.650238905578554" lon="12.099821986828273"><ele>715.0</ele><time>2026-04-18T16:01:01Z</time></trkpt><trkpt lat="43.65022402520976" lon="12.0995750617914"><ele>715.0</ele><time>2026-04-18T16:01:02Z</time></trkpt><trkpt lat="43.65020857617036" lon="12.09932812866448"><ele>715.0</ele><time>2026-04-18T16:01:03Z</time></trkpt><trkpt lat="43.65019973675278" lon="12.09909666831854"><ele>715.0</ele><time>2026-04-18T16:01:04Z</time></trkpt><trkpt lat="43.65019696291135" lon="12.098869368480672"><ele>713.6666666666667</ele><time>2026-04-18T16:01:05Z</time></trkpt><trkpt lat="43.650189869758364" lon="12.09864888206513"><ele>712.3333333333334</ele><time>2026-04-18T16:01:06Z</time></trkpt><trkpt lat="43.650174417559874" lon="12.098435481320736"><ele>711.0</ele><time>2026-04-18T16:01:07Z</time></trkpt><trkpt lat="43.65013653624146" lon="12.098240649604167"><ele>707.0</ele><time>2026-04-18T16:01:08Z</time></trkpt><trkpt lat="43.650061848848374" lon="12.098071118304624"><ele>703.0</ele><time>2026-04-18T16:01:09Z</time></trkpt><trkpt lat="43.64994876899718" lon="12.097917176934114"><ele>699.0</ele><time>2026-04-18T16:01:10Z</time></trkpt><trkpt lat="43.64983412167243" lon="12.09776795437062"><ele>699.0</ele><time>2026-04-18T16:01:11Z</time></trkpt><trkpt lat="43.64974456456796" lon="12.097607697059905"><ele>699.0</ele><time>2026-04-18T16:01:12Z</time></trkpt><trkpt lat="43.64970355133611" lon="12.097422709405713"><ele>699.0</ele><time>2026-04-18T16:01:13Z</time></trkpt><trkpt lat="43.649752061851245" lon="12.097243300841418"><ele>699.0</ele><time>2026-04-18T16:01:14Z</time></trkpt><trkpt lat="43.64976845825874" lon="12.097057989827208"><ele>697.0</ele><time>2026-04-18T16:01:15Z</time></trkpt><trkpt lat="43.649801697265445" lon="12.096913331997742"><ele>695.0</ele><time>2026-04-18T16:01:16Z</time></trkpt><trkpt lat="43.6497894377811" lon="12.09678395841765"><ele>693.0</ele><time>2026-04-18T16:01:17Z</time></trkpt><trkpt lat="43.64971883322691" lon="12.096674341661627"><ele>691.0</ele><time>2026-04-18T16:01:18Z</time></trkpt><trkpt lat="43.649609289310135" lon="12.096596025322166"><ele>689.0</ele><time>2026-04-18T16:01:19Z</time></trkpt><trkpt lat="43.6494798162179" lon="12.0965609899667"><ele>691.6666666666666</ele><time>2026-04-18T16:01:20Z</time></trkpt><trkpt lat="43.64932217854713" lon="12.096581305928863"><ele>694.3333333333334</ele><time>2026-04-18T16:01:21Z</time></trkpt><trkpt lat="43.64916116435805" lon="12.096624891866544"><ele>697.0</ele><time>2026-04-18T16:01:22Z</time></trkpt><trkpt lat="43.64899763241739" lon="12.096662844766747"><ele>697.0</ele><time>2026-04-18T16:01:23Z</time></trkpt><trkpt lat="43.648846723948886" lon="12.096675695622256"><ele>697.0</ele><time>2026-04-18T16:01:24Z</time></trkpt><trkpt lat="43.648716110199466" lon="12.096636816510376"><ele>697.0</ele><time>2026-04-18T16:01:25Z</time></trkpt><trkpt lat="43.64859425907951" lon="12.096549032733124"><ele>697.0</ele><time>2026-04-18T16:01:26Z</time></trkpt><trkpt lat="43.64850297832997" lon="12.096384170049038"><ele>693.6666666666667</ele><time>2026-04-18T16:01:27Z</time></trkpt><trkpt lat="43.64839161567479" lon="12.096217814317844"><ele>690.3333333333334</ele><time>2026-04-18T16:01:28Z</time></trkpt><trkpt lat="43.64831046737737" lon="12.096036377335606"><ele>687.0</ele><time>2026-04-18T16:01:29Z</time></trkpt><trkpt lat="43.648249329018604" lon="12.095856284974587"><ele>684.0</ele><time>2026-04-18T16:01:30Z</time></trkpt><trkpt lat="43.648179990706915" lon="12.095707582835965"><ele>681.0</ele><time>2026-04-18T16:01:31Z</time></trkpt><trkpt lat="43.64811097597781" lon="12.095571508443436"><ele>678.0</ele><time>2026-04-18T16:01:32Z</time></trkpt><trkpt lat="43.64800730140781" lon="12.0954744274406"><ele>675.0</ele><time>2026-04-18T16:01:33Z</time></trkpt><trkpt lat="43.64787330370765" lon="12.09542578970792"><ele>675.0</ele><time>2026-04-18T16:01:34Z</time></trkpt><trkpt lat="43.647726963583814" lon="12.095431327749099"><ele>675.0</ele><time>2026-04-18T16:01:35Z</time></trkpt><trkpt lat="43.64760346161495" lon="12.095424016994553"><ele>675.0</ele><time>2026-04-18T16:01:36Z</time></trkpt><trkpt lat="43.647496618462775" lon="12.095430336127476"><ele>675.0</ele><time>2026-04-18T16:01:37Z</time></trkpt><trkpt lat="43.64740359553443" lon="12.095483146340186"><ele>675.0</ele><time>2026-04-18T16:01:38Z</time></trkpt><trkpt lat="43.64733532758767" lon="12.09559908625807"><ele>675.0</ele><time>2026-04-18T16:01:39Z</time></trkpt><trkpt lat="43.6473033147642" lon="12.09576288742063"><ele>675.0</ele><time>2026-04-18T16:01:40Z</time></trkpt><trkpt lat="43.64731529234356" lon="12.095954589076534"><ele>675.0</ele><time>2026-04-18T16:01:41Z</time></trkpt><trkpt lat="43.64734640212815" lon="12.096160215483408"><ele>677.0</ele><time>2026-04-18T16:01:42Z</time></trkpt><trkpt lat="43.64735255215602" lon="12.096382986366722"><ele>679.0</ele><time>2026-04-18T16:01:43Z</time></trkpt><trkpt lat="43.64730865705137" lon="12.096595248467978"><ele>681.0</ele><time>2026-04-18T16:01:44Z</time></trkpt><trkpt lat="43.647275313424046" lon="12.096824123010506"><ele>683.0</ele><time>2026-04-18T16:01:45Z</time></trkpt><trkpt lat="43.64724371027657" lon="12.097049541986193"><ele>685.0</ele><time>2026-04-18T16:01:46Z</time></trkpt><trkpt lat="43.64724420943235" lon="12.097288009520204"><ele>687.0</ele><time>2026-04-18T16:01:47Z</time></trkpt><trkpt lat="43.647270995824165" lon="12.097535206089752"><ele>687.3333333333334</ele><time>2026-04-18T16:01:48Z</time></trkpt><trkpt lat="43.647305064484456" lon="12.097770283086103"><ele>687.6666666666667</ele><time>2026-04-18T16:01:49Z</time></trkpt><trkpt lat="43.647315559974885" lon="12.097996984226983"><ele>688.0</ele><time>2026-04-18T16:01:50Z</time></trkpt><trkpt lat="43.64733707553043" lon="12.098211494602925"><ele>687.5</ele><time>2026-04-18T16:01:50.999Z</time></trkpt><trkpt lat="43.64735416579731" lon="12.098407421989416"><ele>687.0</ele><time>2026-04-18T16:01:51.999Z</time></trkpt><trkpt lat="43.64736276738644" lon="12.098594550990466"><ele>686.5</ele><time>2026-04-18T16:01:52.999Z</time></trkpt><trkpt lat="43.647302149561284" lon="12.098784608179312"><ele>686.0</ele><time>2026-04-18T16:01:53.999Z</time></trkpt><trkpt lat="43.64718626747541" lon="12.098928364398631"><ele>686.0</ele><time>2026-04-18T16:01:54.999Z</time></trkpt><trkpt lat="43.64708123941306" lon="12.09906605570758"><ele>686.0</ele><time>2026-04-18T16:01:55.999Z</time></trkpt><trkpt lat="43.64697560768135" lon="12.099163646045254"><ele>686.0</ele><time>2026-04-18T16:01:56.999Z</time></trkpt><trkpt lat="43.64689039810699" lon="12.099269971792786"><ele>686.0</ele><time>2026-04-18T16:01:57.999Z</time></trkpt><trkpt lat="43.646848705594806" lon="12.099410596227417"><ele>684.75</ele><time>2026-04-18T16:01:58.999Z</time></trkpt><trkpt lat="43.646861193494296" lon="12.099570361040449"><ele>683.5</ele><time>2026-04-18T16:01:59.999Z</time></trkpt><trkpt lat="43.6469260653057" lon="12.099723466563951"><ele>682.25</ele><time>2026-04-18T16:02:00.999Z</time></trkpt><trkpt lat="43.64703247183791" lon="12.099846490957157"><ele>681.0</ele><time>2026-04-18T16:02:01.999Z</time></trkpt><trkpt lat="43.64712443930351" lon="12.099963037849946"><ele>679.25</ele><time>2026-04-18T16:02:02.999Z</time></trkpt><trkpt lat="43.64716496992356" lon="12.100121033426008"><ele>677.5</ele><time>2026-04-18T16:02:03.999Z</time></trkpt><trkpt lat="43.64713599490298" lon="12.10030850396806"><ele>675.75</ele><time>2026-04-18T16:02:04.999Z</time></trkpt><trkpt lat="43.64706623447262" lon="12.100494148313608"><ele>674.0</ele><time>2026-04-18T16:02:05.999Z</time></trkpt><trkpt lat="43.64701184997808" lon="12.100710058393433"><ele>673.3333333333333</ele><time>2026-04-18T16:02:06.999Z</time></trkpt><trkpt lat="43.646979000488855" lon="12.10092989339955"><ele>672.6666666666666</ele><time>2026-04-18T16:02:07.999Z</time></trkpt><trkpt lat="43.64692367263975" lon="12.10113797019962"><ele>672.0</ele><time>2026-04-18T16:02:08.999Z</time></trkpt><trkpt lat="43.646846087503256" lon="12.10133193651195"><ele>668.6666666666666</ele><time>2026-04-18T16:02:09.999Z</time></trkpt><trkpt lat="43.64673250382561" lon="12.101504716413057"><ele>665.3333333333333</ele><time>2026-04-18T16:02:10.999Z</time></trkpt><trkpt lat="43.646597740454816" lon="12.101662150227781"><ele>662.0</ele><time>2026-04-18T16:02:11.999Z</time></trkpt><trkpt lat="43.64644837145034" lon="12.101808605792153"><ele>662.0</ele><time>2026-04-18T16:02:12.999Z</time></trkpt><trkpt lat="43.64629642663658" lon="12.101951395837494"><ele>662.0</ele><time>2026-04-18T16:02:13.999Z</time></trkpt><trkpt lat="43.64615143767387" lon="12.102092507630905"><ele>662.0</ele><time>2026-04-18T16:02:14.999Z</time></trkpt><trkpt lat="43.64601977049911" lon="12.102230605425898"><ele>660.0</ele><time>2026-04-18T16:02:15.999Z</time></trkpt><trkpt lat="43.64590005291122" lon="12.10235473240084"><ele>658.0</ele><time>2026-04-18T16:02:16.999Z</time></trkpt><trkpt lat="43.64578344299001" lon="12.102464308437987"><ele>656.0</ele><time>2026-04-18T16:02:17.999Z</time></trkpt><trkpt lat="43.64567272118087" lon="12.102586141830319"><ele>654.0</ele><time>2026-04-18T16:02:18.999Z</time></trkpt><trkpt lat="43.64557232003292" lon="12.102725846942104"><ele>654.0</ele><time>2026-04-18T16:02:19.999Z</time></trkpt><trkpt lat="43.645483500318285" lon="12.10288105995777"><ele>654.0</ele><time>2026-04-18T16:02:20.999Z</time></trkpt><trkpt lat="43.645414928866536" lon="12.10306025460787"><ele>654.0</ele><time>2026-04-18T16:02:21.999Z</time></trkpt><trkpt lat="43.645368723607476" lon="12.103260232341155"><ele>654.0</ele><time>2026-04-18T16:02:22.999Z</time></trkpt><trkpt lat="43.645344278050146" lon="12.103476603816848"><ele>654.3333333333334</ele><time>2026-04-18T16:02:23.999Z</time></trkpt><trkpt lat="43.64534757315185" lon="12.103709782064568"><ele>654.6666666666667</ele><time>2026-04-18T16:02:24.999Z</time></trkpt><trkpt lat="43.64535788816675" lon="12.103942913715116"><ele>655.0</ele><time>2026-04-18T16:02:25.999Z</time></trkpt><trkpt lat="43.64536562459247" lon="12.104177987915174"><ele>655.0</ele><time>2026-04-18T16:02:26.999Z</time></trkpt><trkpt lat="43.64536901610015" lon="12.104402874502764"><ele>655.0</ele><time>2026-04-18T16:02:27.999Z</time></trkpt><trkpt lat="43.64537853313025" lon="12.104614363072814"><ele>655.0</ele><time>2026-04-18T16:02:28.999Z</time></trkpt><trkpt lat="43.64541251990305" lon="12.104817891491559"><ele>654.25</ele><time>2026-04-18T16:02:29.999Z</time></trkpt><trkpt lat="43.645436569811764" lon="12.105021844588318"><ele>653.5</ele><time>2026-04-18T16:02:30.999Z</time></trkpt><trkpt lat="43.64548599484423" lon="12.105205468599141"><ele>652.75</ele><time>2026-04-18T16:02:31.999Z</time></trkpt><trkpt lat="43.645525243078495" lon="12.105377243622499"><ele>652.0</ele><time>2026-04-18T16:02:32.999Z</time></trkpt><trkpt lat="43.64553624372399" lon="12.105549653693712"><ele>652.0</ele><time>2026-04-18T16:02:33.999Z</time></trkpt><trkpt lat="43.64547713577369" lon="12.105705776753716"><ele>652.0</ele><time>2026-04-18T16:02:34.999Z</time></trkpt><trkpt lat="43.64535518125272" lon="12.105791960294141"><ele>652.0</ele><time>2026-04-18T16:02:35.999Z</time></trkpt><trkpt lat="43.645247550420514" lon="12.105931008683125"><ele>652.0</ele><time>2026-04-18T16:02:36.999Z</time></trkpt><trkpt lat="43.64513478380009" lon="12.106075340000139"><ele>648.0</ele><time>2026-04-18T16:02:37.999Z</time></trkpt><trkpt lat="43.64503861886211" lon="12.10626768499483"><ele>644.0</ele><time>2026-04-18T16:02:38.999Z</time></trkpt><trkpt lat="43.64494787662267" lon="12.106478487076737"><ele>640.0</ele><time>2026-04-18T16:02:39.999Z</time></trkpt><trkpt lat="43.64483188274512" lon="12.10667327918302"><ele>640.0</ele><time>2026-04-18T16:02:40.999Z</time></trkpt><trkpt lat="43.644691028605635" lon="12.106848427372753"><ele>640.0</ele><time>2026-04-18T16:02:41.999Z</time></trkpt><trkpt lat="43.644526532432515" lon="12.10697006927369"><ele>640.0</ele><time>2026-04-18T16:02:42.999Z</time></trkpt><trkpt lat="43.64436238978315" lon="12.107083477083666"><ele>634.0</ele><time>2026-04-18T16:02:43.999Z</time></trkpt><trkpt lat="43.64421841406073" lon="12.107197977835412"><ele>628.0</ele><time>2026-04-18T16:02:44.999Z</time></trkpt><trkpt lat="43.64407121330894" lon="12.107260840717636"><ele>622.0</ele><time>2026-04-18T16:02:45.999Z</time></trkpt><trkpt lat="43.643918099129074" lon="12.107265265809655"><ele>622.0</ele><time>2026-04-18T16:02:46.999Z</time></trkpt><trkpt lat="43.643757493581774" lon="12.107209997320671"><ele>622.0</ele><time>2026-04-18T16:02:47.999Z</time></trkpt><trkpt lat="43.64359929112625" lon="12.107148063144887"><ele>622.0</ele><time>2026-04-18T16:02:48.999Z</time></trkpt><trkpt lat="43.643440330114075" lon="12.107137963896333"><ele>620.0</ele><time>2026-04-18T16:02:49.999Z</time></trkpt><trkpt lat="43.6432832346761" lon="12.107187612391046"><ele>618.0</ele><time>2026-04-18T16:02:50.999Z</time></trkpt><trkpt lat="43.643127383516905" lon="12.107269630973759"><ele>616.0</ele><time>2026-04-18T16:02:51.999Z</time></trkpt><trkpt lat="43.6429661791245" lon="12.107350073969593"><ele>616.3333333333334</ele><time>2026-04-18T16:02:52.999Z</time></trkpt><trkpt lat="43.64279342758524" lon="12.107412460521328"><ele>616.6666666666666</ele><time>2026-04-18T16:02:53.999Z</time></trkpt><trkpt lat="43.64262042509061" lon="12.107470541131642"><ele>617.0</ele><time>2026-04-18T16:02:54.998Z</time></trkpt><trkpt lat="43.64245349251533" lon="12.107528815050893"><ele>617.0</ele><time>2026-04-18T16:02:55.998Z</time></trkpt><trkpt lat="43.64229396113214" lon="12.107587351506105"><ele>617.0</ele><time>2026-04-18T16:02:56.998Z</time></trkpt><trkpt lat="43.64213571642648" lon="12.107662717538165"><ele>617.0</ele><time>2026-04-18T16:02:57.998Z</time></trkpt><trkpt lat="43.64197428225528" lon="12.107771723561102"><ele>615.0</ele><time>2026-04-18T16:02:58.998Z</time></trkpt><trkpt lat="43.6418167025159" lon="12.107912714362737"><ele>613.0</ele><time>2026-04-18T16:02:59.998Z</time></trkpt><trkpt lat="43.64166154942899" lon="12.108073824069958"><ele>611.0</ele><time>2026-04-18T16:03:00.998Z</time></trkpt><trkpt lat="43.64149511358463" lon="12.10823753564697"><ele>609.6666666666666</ele><time>2026-04-18T16:03:01.998Z</time></trkpt><trkpt lat="43.64132025329592" lon="12.108401639740848"><ele>608.3333333333334</ele><time>2026-04-18T16:03:02.998Z</time></trkpt><trkpt lat="43.64114546509075" lon="12.10856231479855"><ele>607.0</ele><time>2026-04-18T16:03:03.998Z</time></trkpt><trkpt lat="43.640980136983295" lon="12.108719555258252"><ele>607.0</ele><time>2026-04-18T16:03:05Z</time></trkpt><trkpt lat="43.64082352237362" lon="12.108878908628032"><ele>607.0</ele><time>2026-04-18T16:03:06Z</time></trkpt><trkpt lat="43.640666158945656" lon="12.109015413053038"><ele>607.0</ele><time>2026-04-18T16:03:07Z</time></trkpt><trkpt lat="43.640506218998325" lon="12.109120268770628"><ele>607.3333333333334</ele><time>2026-04-18T16:03:08Z</time></trkpt><trkpt lat="43.64034464847317" lon="12.109196740493022"><ele>607.6666666666666</ele><time>2026-04-18T16:03:09Z</time></trkpt><trkpt lat="43.640192493592366" lon="12.10925273332702"><ele>608.0</ele><time>2026-04-18T16:03:10Z</time></trkpt><trkpt lat="43.64006408244833" lon="12.109316338608613"><ele>606.5</ele><time>2026-04-18T16:03:11Z</time></trkpt><trkpt lat="43.639956056256935" lon="12.109396743876172"><ele>605.0</ele><time>2026-04-18T16:03:12Z</time></trkpt><trkpt lat="43.639871820817156" lon="12.10951107535716"><ele>603.5</ele><time>2026-04-18T16:03:13Z</time></trkpt><trkpt lat="43.6398215942308" lon="12.10967153840346"><ele>602.0</ele><time>2026-04-18T16:03:14Z</time></trkpt><trkpt lat="43.63982490131636" lon="12.10987023277247"><ele>601.6666666666666</ele><time>2026-04-18T16:03:15Z</time></trkpt><trkpt lat="43.63986600743997" lon="12.110079305547416"><ele>601.3333333333334</ele><time>2026-04-18T16:03:16Z</time></trkpt><trkpt lat="43.63993596266593" lon="12.110288451581644"><ele>601.0</ele><time>2026-04-18T16:03:17Z</time></trkpt><trkpt lat="43.639996183863055" lon="12.110510707111668"><ele>599.0</ele><time>2026-04-18T16:03:18Z</time></trkpt><trkpt lat="43.640043224761826" lon="12.110748688791869"><ele>597.0</ele><time>2026-04-18T16:03:19Z</time></trkpt><trkpt lat="43.64008414520879" lon="12.110991282657691"><ele>595.0</ele><time>2026-04-18T16:03:20Z</time></trkpt><trkpt lat="43.640124393404356" lon="12.111220389347466"><ele>595.0</ele><time>2026-04-18T16:03:21Z</time></trkpt><trkpt lat="43.64016180565583" lon="12.111443716355739"><ele>595.0</ele><time>2026-04-18T16:03:22Z</time></trkpt><trkpt lat="43.64019883593804" lon="12.111648905431638"><ele>595.0</ele><time>2026-04-18T16:03:23Z</time></trkpt><trkpt lat="43.64021931427279" lon="12.111844133697883"><ele>593.5</ele><time>2026-04-18T16:03:24Z</time></trkpt><trkpt lat="43.64025432507614" lon="12.112020831792524"><ele>592.0</ele><time>2026-04-18T16:03:25Z</time></trkpt><trkpt lat="43.64029724715824" lon="12.112180975187082"><ele>590.5</ele><time>2026-04-18T16:03:26Z</time></trkpt><trkpt lat="43.640302575085826" lon="12.112339712503957"><ele>589.0</ele><time>2026-04-18T16:03:27Z</time></trkpt><trkpt lat="43.640279912633986" lon="12.112486155024751"><ele>588.75</ele><time>2026-04-18T16:03:28Z</time></trkpt><trkpt lat="43.640226955935816" lon="12.112614085969852"><ele>588.5</ele><time>2026-04-18T16:03:29Z</time></trkpt><trkpt lat="43.64014344404543" lon="12.112692401702969"><ele>588.25</ele><time>2026-04-18T16:03:30Z</time></trkpt><trkpt lat="43.64002920828824" lon="12.112696373349598"><ele>588.0</ele><time>2026-04-18T16:03:31Z</time></trkpt><trkpt lat="43.639899839284546" lon="12.112641159140443"><ele>588.0</ele><time>2026-04-18T16:03:32Z</time></trkpt><trkpt lat="43.63976101687473" lon="12.112619541532652"><ele>588.0</ele><time>2026-04-18T16:03:33Z</time></trkpt><trkpt lat="43.63960066841744" lon="12.112648078457733"><ele>588.0</ele><time>2026-04-18T16:03:34Z</time></trkpt><trkpt lat="43.63944299672327" lon="12.112719964705722"><ele>584.6666666666666</ele><time>2026-04-18T16:03:35Z</time></trkpt><trkpt lat="43.63928419537945" lon="12.112814896222794"><ele>581.3333333333333</ele><time>2026-04-18T16:03:36Z</time></trkpt><trkpt lat="43.63912268211624" lon="12.112911539965976"><ele>578.0</ele><time>2026-04-18T16:03:37Z</time></trkpt><trkpt lat="43.63895970995842" lon="12.112984525339678"><ele>578.0</ele><time>2026-04-18T16:03:38Z</time></trkpt><trkpt lat="43.638789212926184" lon="12.113038704454896"><ele>578.0</ele><time>2026-04-18T16:03:39Z</time></trkpt><trkpt lat="43.638621223759976" lon="12.113084949417745"><ele>578.0</ele><time>2026-04-18T16:03:40Z</time></trkpt><trkpt lat="43.63845970274471" lon="12.1131017414892"><ele>576.0</ele><time>2026-04-18T16:03:41Z</time></trkpt><trkpt lat="43.63830252163462" lon="12.113082680069017"><ele>574.0</ele><time>2026-04-18T16:03:42Z</time></trkpt><trkpt lat="43.638152182046426" lon="12.11302860152694"><ele>572.0</ele><time>2026-04-18T16:03:43Z</time></trkpt><trkpt lat="43.638013412256925" lon="12.112932468913955"><ele>572.0</ele><time>2026-04-18T16:03:44Z</time></trkpt><trkpt lat="43.63788052499579" lon="12.112827146920555"><ele>572.0</ele><time>2026-04-18T16:03:44.999Z</time></trkpt><trkpt lat="43.637760169287915" lon="12.112721129095975"><ele>572.0</ele><time>2026-04-18T16:03:45.999Z</time></trkpt><trkpt lat="43.63763157011101" lon="12.112658298735573"><ele>572.0</ele><time>2026-04-18T16:03:46.999Z</time></trkpt><trkpt lat="43.637487460474865" lon="12.112676696752297"><ele>571.3333333333333</ele><time>2026-04-18T16:03:47.999Z</time></trkpt><trkpt lat="43.63733393956824" lon="12.112748374694096"><ele>570.6666666666666</ele><time>2026-04-18T16:03:48.999Z</time></trkpt><trkpt lat="43.63717732775393" lon="12.112846993465476"><ele>570.0</ele><time>2026-04-18T16:03:49.999Z</time></trkpt><trkpt lat="43.637018264128145" lon="12.112945867339164"><ele>567.0</ele><time>2026-04-18T16:03:50.999Z</time></trkpt><trkpt lat="43.63685146248866" lon="12.113030627090685"><ele>564.0</ele><time>2026-04-18T16:03:51.999Z</time></trkpt><trkpt lat="43.63668777519991" lon="12.113080445986512"><ele>561.0</ele><time>2026-04-18T16:03:52.999Z</time></trkpt><trkpt lat="43.636526878739865" lon="12.113113015453267"><ele>561.0</ele><time>2026-04-18T16:03:53.999Z</time></trkpt><trkpt lat="43.63636947100394" lon="12.11312388342159"><ele>561.0</ele><time>2026-04-18T16:03:54.999Z</time></trkpt><trkpt lat="43.63621794938364" lon="12.1131188891926"><ele>561.0</ele><time>2026-04-18T16:03:55.999Z</time></trkpt><trkpt lat="43.63608226223038" lon="12.113114764228188"><ele>561.0</ele><time>2026-04-18T16:03:56.999Z</time></trkpt><trkpt lat="43.635955802467365" lon="12.113120713733158"><ele>561.8333333333334</ele><time>2026-04-18T16:03:57.999Z</time></trkpt><trkpt lat="43.63584572250219" lon="12.113120323916787"><ele>562.6666666666666</ele><time>2026-04-18T16:03:58.999Z</time></trkpt><trkpt lat="43.63576594202446" lon="12.113135434641745"><ele>563.5</ele><time>2026-04-18T16:03:59.999Z</time></trkpt><trkpt lat="43.6357043955877" lon="12.113186532697615"><ele>564.3333333333333</ele><time>2026-04-18T16:04:00.999Z</time></trkpt><trkpt lat="43.63566767096156" lon="12.113266797329203"><ele>565.1666666666666</ele><time>2026-04-18T16:04:01.999Z</time></trkpt><trkpt lat="43.635661704346866" lon="12.113365702123254"><ele>566.0</ele><time>2026-04-18T16:04:02.999Z</time></trkpt><trkpt lat="43.635695048186484" lon="12.113478909321692"><ele>566.0</ele><time>2026-04-18T16:04:03.999Z</time></trkpt><trkpt lat="43.635764326047116" lon="12.113582665275844"><ele>566.0</ele><time>2026-04-18T16:04:04.999Z</time></trkpt><trkpt lat="43.63585565547781" lon="12.113667104842357"><ele>566.0</ele><time>2026-04-18T16:04:05.999Z</time></trkpt><trkpt lat="43.63593627322982" lon="12.113756557163402"><ele>566.0</ele><time>2026-04-18T16:04:06.999Z</time></trkpt><trkpt lat="43.63597040996876" lon="12.113873358549757"><ele>566.0</ele><time>2026-04-18T16:04:07.999Z</time></trkpt><trkpt lat="43.63596759199944" lon="12.113994619867405"><ele>566.0</ele><time>2026-04-18T16:04:08.999Z</time></trkpt><trkpt lat="43.63591461087039" lon="12.114095851834499"><ele>566.0</ele><time>2026-04-18T16:04:09.999Z</time></trkpt><trkpt lat="43.63584801377476" lon="12.114190939444343"><ele>566.0</ele><time>2026-04-18T16:04:10.999Z</time></trkpt><trkpt lat="43.63575892581792" lon="12.114234863166262"><ele>566.0</ele><time>2026-04-18T16:04:11.999Z</time></trkpt><trkpt lat="43.63563581638436" lon="12.114188565383191"><ele>566.0</ele><time>2026-04-18T16:04:12.999Z</time></trkpt><trkpt lat="43.635526740891756" lon="12.114056389694973"><ele>566.0</ele><time>2026-04-18T16:04:13.999Z</time></trkpt><trkpt lat="43.635388712666646" lon="12.113980182171575"><ele>566.0</ele><time>2026-04-18T16:04:14.999Z</time></trkpt><trkpt lat="43.635238988200626" lon="12.113896917067697"><ele>566.0</ele><time>2026-04-18T16:04:15.999Z</time></trkpt><trkpt lat="43.63508033042792" lon="12.113845374373136"><ele>562.0</ele><time>2026-04-18T16:04:16.999Z</time></trkpt><trkpt lat="43.63490469254881" lon="12.113816752778426"><ele>558.0</ele><time>2026-04-18T16:04:17.999Z</time></trkpt><trkpt lat="43.63474510240703" lon="12.11380761862024"><ele>554.0</ele><time>2026-04-18T16:04:18.999Z</time></trkpt><trkpt lat="43.634588401543716" lon="12.113817737118314"><ele>551.75</ele><time>2026-04-18T16:04:19.999Z</time></trkpt><trkpt lat="43.63444697446635" lon="12.113826748078413"><ele>549.5</ele><time>2026-04-18T16:04:20.999Z</time></trkpt><trkpt lat="43.634313599547966" lon="12.1138368843797"><ele>547.25</ele><time>2026-04-18T16:04:21.999Z</time></trkpt><trkpt lat="43.63417865149562" lon="12.113882074305149"><ele>545.0</ele><time>2026-04-18T16:04:22.999Z</time></trkpt><trkpt lat="43.6340450535834" lon="12.11398490769494"><ele>547.6666666666666</ele><time>2026-04-18T16:04:23.999Z</time></trkpt><trkpt lat="43.63391599233987" lon="12.114138571045613"><ele>550.3333333333334</ele><time>2026-04-18T16:04:24.999Z</time></trkpt><trkpt lat="43.63378551995828" lon="12.114311368742436"><ele>553.0</ele><time>2026-04-18T16:04:25.999Z</time></trkpt><trkpt lat="43.63364922518848" lon="12.11448858722576"><ele>550.3333333333334</ele><time>2026-04-18T16:04:26.999Z</time></trkpt><trkpt lat="43.63352722700423" lon="12.114662446706028"><ele>547.6666666666666</ele><time>2026-04-18T16:04:27.999Z</time></trkpt><trkpt lat="43.63342339445219" lon="12.11484791624921"><ele>545.0</ele><time>2026-04-18T16:04:28.999Z</time></trkpt><trkpt lat="43.63332260616844" lon="12.115046246943567"><ele>545.0</ele><time>2026-04-18T16:04:29.999Z</time></trkpt><trkpt lat="43.63323576341505" lon="12.115258997643254"><ele>545.0</ele><time>2026-04-18T16:04:30.999Z</time></trkpt><trkpt lat="43.633153686977536" lon="12.11546159051293"><ele>545.0</ele><time>2026-04-18T16:04:31.999Z</time></trkpt><trkpt lat="43.63307598672506" lon="12.11564672971377"><ele>545.75</ele><time>2026-04-18T16:04:32.999Z</time></trkpt><trkpt lat="43.63300494094921" lon="12.115815586050758"><ele>546.5</ele><time>2026-04-18T16:04:33.999Z</time></trkpt><trkpt lat="43.63294126180681" lon="12.115978615681128"><ele>547.25</ele><time>2026-04-18T16:04:34.999Z</time></trkpt><trkpt lat="43.63289824388599" lon="12.116146487333042"><ele>548.0</ele><time>2026-04-18T16:04:35.999Z</time></trkpt><trkpt lat="43.63287513150689" lon="12.11631622671854"><ele>548.0</ele><time>2026-04-18T16:04:36.999Z</time></trkpt><trkpt lat="43.63288641665729" lon="12.116500650900209"><ele>548.0</ele><time>2026-04-18T16:04:37.999Z</time></trkpt><trkpt lat="43.632936815644605" lon="12.116687580349854"><ele>548.0</ele><time>2026-04-18T16:04:38.999Z</time></trkpt><trkpt lat="43.63303222399502" lon="12.11686205750356"><ele>548.0</ele><time>2026-04-18T16:04:39.999Z</time></trkpt><trkpt lat="43.63316310601057" lon="12.11700315886356"><ele>546.0</ele><time>2026-04-18T16:04:40.999Z</time></trkpt><trkpt lat="43.633304753634484" lon="12.117126128757576"><ele>544.0</ele><time>2026-04-18T16:04:41.999Z</time></trkpt><trkpt lat="43.63343615729727" lon="12.11724655178812"><ele>542.0</ele><time>2026-04-18T16:04:42.999Z</time></trkpt><trkpt lat="43.633554368374625" lon="12.117355297229047"><ele>543.4</ele><time>2026-04-18T16:04:43.999Z</time></trkpt><trkpt lat="43.63364102818972" lon="12.117475913289415"><ele>544.8000000000001</ele><time>2026-04-18T16:04:44.999Z</time></trkpt><trkpt lat="43.633713832853715" lon="12.117549899653485"><ele>546.2</ele><time>2026-04-18T16:04:45.999Z</time></trkpt><trkpt lat="43.633776270012206" lon="12.117625859184129"><ele>547.6</ele><time>2026-04-18T16:04:46.999Z</time></trkpt><trkpt lat="43.63378109951467" lon="12.11774688651887"><ele>549.0</ele><time>2026-04-18T16:04:47.999Z</time></trkpt><trkpt lat="43.6337254304123" lon="12.117845412789903"><ele>544.25</ele><time>2026-04-18T16:04:48.999Z</time></trkpt><trkpt lat="43.633633146283465" lon="12.117893913295754"><ele>539.5</ele><time>2026-04-18T16:04:49.999Z</time></trkpt><trkpt lat="43.63352217922451" lon="12.11785935544757"><ele>534.75</ele><time>2026-04-18T16:04:50.999Z</time></trkpt><trkpt lat="43.63340495749072" lon="12.11777997645781"><ele>530.0</ele><time>2026-04-18T16:04:51.999Z</time></trkpt><trkpt lat="43.633273151696685" lon="12.117692736785925"><ele>530.0</ele><time>2026-04-18T16:04:52.999Z</time></trkpt><trkpt lat="43.633119772631524" lon="12.117610015590893"><ele>530.0</ele><time>2026-04-18T16:04:53.999Z</time></trkpt><trkpt lat="43.6329585902044" lon="12.117538450523163"><ele>530.0</ele><time>2026-04-18T16:04:54.999Z</time></trkpt><trkpt lat="43.63278636951844" lon="12.117456501744467"><ele>530.0</ele><time>2026-04-18T16:04:55.999Z</time></trkpt><trkpt lat="43.63261316178059" lon="12.11736494501722"><ele>530.0</ele><time>2026-04-18T16:04:56.999Z</time></trkpt><trkpt lat="43.63243324513673" lon="12.117284262682857"><ele>530.0</ele><time>2026-04-18T16:04:57.999Z</time></trkpt><trkpt lat="43.63224573165612" lon="12.117213941378136"><ele>530.0</ele><time>2026-04-18T16:04:58.999Z</time></trkpt><trkpt lat="43.63205383417709" lon="12.117149630137504"><ele>530.0</ele><time>2026-04-18T16:04:59.999Z</time></trkpt><trkpt lat="43.63187173761585" lon="12.117078372514241"><ele>530.0</ele><time>2026-04-18T16:05:00.999Z</time></trkpt><trkpt lat="43.63169868643946" lon="12.116982350408865"><ele>525.6666666666666</ele><time>2026-04-18T16:05:01.999Z</time></trkpt><trkpt lat="43.63153613972793" lon="12.11686426023694"><ele>521.3333333333334</ele><time>2026-04-18T16:05:02.999Z</time></trkpt><trkpt lat="43.63138324228697" lon="12.116746349608828"><ele>517.0</ele><time>2026-04-18T16:05:03.999Z</time></trkpt><trkpt lat="43.63124438616761" lon="12.116640863425623"><ele>514.0</ele><time>2026-04-18T16:05:04.999Z</time></trkpt><trkpt lat="43.63112627368579" lon="12.1165566401292"><ele>511.00000000000006</ele><time>2026-04-18T16:05:05.999Z</time></trkpt><trkpt lat="43.631024628712844" lon="12.11648521525062"><ele>508.00000000000006</ele><time>2026-04-18T16:05:06.999Z</time></trkpt><trkpt lat="43.63093902340302" lon="12.116421599303555"><ele>505.0</ele><time>2026-04-18T16:05:07.999Z</time></trkpt><trkpt lat="43.6308636220968" lon="12.116378654751202"><ele>502.0</ele><time>2026-04-18T16:05:08.999Z</time></trkpt><trkpt lat="43.630794940111265" lon="12.116393572847903"><ele>502.0</ele><time>2026-04-18T16:05:09.999Z</time></trkpt><trkpt lat="43.63074161876321" lon="12.116462501435405"><ele>502.00000000000006</ele><time>2026-04-18T16:05:11Z</time></trkpt><trkpt lat="43.630734193291964" lon="12.1165859830822"><ele>502.00000000000006</ele><time>2026-04-18T16:05:12Z</time></trkpt><trkpt lat="43.630768837900476" lon="12.116712643334315"><ele>502.0</ele><time>2026-04-18T16:05:13Z</time></trkpt><trkpt lat="43.6308602042033" lon="12.116806858926807"><ele>502.0</ele><time>2026-04-18T16:05:14Z</time></trkpt><trkpt lat="43.63096429807721" lon="12.116859099169416"><ele>502.40000000000003</ele><time>2026-04-18T16:05:15Z</time></trkpt><trkpt lat="43.63102938539279" lon="12.116962621315563"><ele>502.80000000000007</ele><time>2026-04-18T16:05:16Z</time></trkpt><trkpt lat="43.63106768653403" lon="12.117072631442804"><ele>503.2</ele><time>2026-04-18T16:05:17Z</time></trkpt><trkpt lat="43.631042469535856" lon="12.117220881893333"><ele>503.6</ele><time>2026-04-18T16:05:18Z</time></trkpt><trkpt lat="43.63095698749597" lon="12.117343081663053"><ele>504.0</ele><time>2026-04-18T16:05:19Z</time></trkpt><trkpt lat="43.6308673122327" lon="12.117439075664253"><ele>504.0</ele><time>2026-04-18T16:05:20Z</time></trkpt><trkpt lat="43.630744183491586" lon="12.117456001382843"><ele>504.0</ele><time>2026-04-18T16:05:21Z</time></trkpt><trkpt lat="43.630620462638234" lon="12.11737400034966"><ele>504.0</ele><time>2026-04-18T16:05:22Z</time></trkpt><trkpt lat="43.63049017327116" lon="12.117303436954597"><ele>504.0</ele><time>2026-04-18T16:05:23Z</time></trkpt><trkpt lat="43.63036865257006" lon="12.11721994712665"><ele>502.33333333333337</ele><time>2026-04-18T16:05:24Z</time></trkpt><trkpt lat="43.6302266374269" lon="12.11714024944281"><ele>500.6666666666667</ele><time>2026-04-18T16:05:25Z</time></trkpt><trkpt lat="43.63007984941954" lon="12.11706642541065"><ele>499.0</ele><time>2026-04-18T16:05:26Z</time></trkpt><trkpt lat="43.629931933627375" lon="12.11700590123386"><ele>499.0</ele><time>2026-04-18T16:05:27Z</time></trkpt><trkpt lat="43.62977479640272" lon="12.116961225512593"><ele>499.0</ele><time>2026-04-18T16:05:28Z</time></trkpt><trkpt lat="43.62961559478407" lon="12.116944309938024"><ele>499.0</ele><time>2026-04-18T16:05:29Z</time></trkpt><trkpt lat="43.629458672801874" lon="12.116964358321324"><ele>496.6666666666667</ele><time>2026-04-18T16:05:30Z</time></trkpt><trkpt lat="43.62930372191746" lon="12.117030882572822"><ele>494.33333333333337</ele><time>2026-04-18T16:05:31Z</time></trkpt><trkpt lat="43.62915031637304" lon="12.11712846920574"><ele>492.0</ele><time>2026-04-18T16:05:32Z</time></trkpt><trkpt lat="43.629010450352006" lon="12.11725545224972"><ele>492.0</ele><time>2026-04-18T16:05:33Z</time></trkpt><trkpt lat="43.62887870221183" lon="12.11739756154981"><ele>492.0</ele><time>2026-04-18T16:05:34Z</time></trkpt><trkpt lat="43.62874936558769" lon="12.11751256075561"><ele>492.0</ele><time>2026-04-18T16:05:35Z</time></trkpt><trkpt lat="43.62860985981255" lon="12.117552504418542"><ele>494.66666666666663</ele><time>2026-04-18T16:05:36Z</time></trkpt><trkpt lat="43.628461963871594" lon="12.117522706258255"><ele>497.3333333333333</ele><time>2026-04-18T16:05:37Z</time></trkpt><trkpt lat="43.628312767560814" lon="12.11746927784828"><ele>500.0</ele><time>2026-04-18T16:05:38Z</time></trkpt><trkpt lat="43.628164287567635" lon="12.117478186177609"><ele>500.0</ele><time>2026-04-18T16:05:39Z</time></trkpt><trkpt lat="43.62801405468258" lon="12.117560256369208"><ele>500.0</ele><time>2026-04-18T16:05:40Z</time></trkpt><trkpt lat="43.6278709635453" lon="12.117663254756181"><ele>500.0</ele><time>2026-04-18T16:05:41Z</time></trkpt><trkpt lat="43.627731859924154" lon="12.117798620543493"><ele>497.3333333333333</ele><time>2026-04-18T16:05:42Z</time></trkpt><trkpt lat="43.62759986057871" lon="12.11794160657276"><ele>494.66666666666663</ele><time>2026-04-18T16:05:43Z</time></trkpt><trkpt lat="43.62746779509624" lon="12.118079242059581"><ele>492.0</ele><time>2026-04-18T16:05:44Z</time></trkpt><trkpt lat="43.627338666871545" lon="12.11820934441649"><ele>493.0</ele><time>2026-04-18T16:05:45Z</time></trkpt><trkpt lat="43.627216108365715" lon="12.118333906076765"><ele>494.0</ele><time>2026-04-18T16:05:46Z</time></trkpt><trkpt lat="43.62709931760162" lon="12.118453615725965"><ele>495.0</ele><time>2026-04-18T16:05:47Z</time></trkpt><trkpt lat="43.62699001638587" lon="12.118570391212042"><ele>496.0</ele><time>2026-04-18T16:05:48Z</time></trkpt><trkpt lat="43.62688106039028" lon="12.118673809106024"><ele>496.0</ele><time>2026-04-18T16:05:49Z</time></trkpt><trkpt lat="43.62676556629077" lon="12.118750498787824"><ele>496.0</ele><time>2026-04-18T16:05:50Z</time></trkpt><trkpt lat="43.626643977757084" lon="12.118784043396088"><ele>496.0</ele><time>2026-04-18T16:05:51Z</time></trkpt><trkpt lat="43.62651151490256" lon="12.118766838290993"><ele>496.0</ele><time>2026-04-18T16:05:52Z</time></trkpt><trkpt lat="43.626368751367465" lon="12.118738915788724"><ele>496.0</ele><time>2026-04-18T16:05:53Z</time></trkpt><trkpt lat="43.62622102700313" lon="12.11871650798493"><ele>496.0</ele><time>2026-04-18T16:05:54Z</time></trkpt><trkpt lat="43.62606598091818" lon="12.118716611211662"><ele>496.0</ele><time>2026-04-18T16:05:55Z</time></trkpt><trkpt lat="43.625911377715" lon="12.118741828332055"><ele>495.0</ele><time>2026-04-18T16:05:56Z</time></trkpt><trkpt lat="43.625756624264994" lon="12.118790568924732"><ele>494.0</ele><time>2026-04-18T16:05:57Z</time></trkpt><trkpt lat="43.62560154589728" lon="12.118826397076925"><ele>493.0</ele><time>2026-04-18T16:05:58Z</time></trkpt><trkpt lat="43.62544635690332" lon="12.118861447118768"><ele>490.25</ele><time>2026-04-18T16:05:59Z</time></trkpt><trkpt lat="43.62529611855577" lon="12.118906212980617"><ele>487.5</ele><time>2026-04-18T16:06:00Z</time></trkpt><trkpt lat="43.625154315623575" lon="12.1189433825284"><ele>484.75</ele><time>2026-04-18T16:06:01Z</time></trkpt><trkpt lat="43.62501515601383" lon="12.1189791569381"><ele>482.0</ele><time>2026-04-18T16:06:02Z</time></trkpt><trkpt lat="43.62488733310227" lon="12.119009777249676"><ele>482.0</ele><time>2026-04-18T16:06:03Z</time></trkpt><trkpt lat="43.62476484139659" lon="12.119034124049024"><ele>482.0</ele><time>2026-04-18T16:06:04Z</time></trkpt><trkpt lat="43.62464414416921" lon="12.1190707449108"><ele>482.0</ele><time>2026-04-18T16:06:05Z</time></trkpt><trkpt lat="43.62451563665991" lon="12.119098785477233"><ele>482.0</ele><time>2026-04-18T16:06:06Z</time></trkpt><trkpt lat="43.624373925475474" lon="12.119079978816552"><ele>480.0</ele><time>2026-04-18T16:06:07Z</time></trkpt><trkpt lat="43.62421505607322" lon="12.119074454377472"><ele>478.0</ele><time>2026-04-18T16:06:08Z</time></trkpt><trkpt lat="43.62404163755289" lon="12.119076002646395"><ele>476.0</ele><time>2026-04-18T16:06:09Z</time></trkpt><trkpt lat="43.623867292269026" lon="12.119058245344563"><ele>476.0</ele><time>2026-04-18T16:06:10Z</time></trkpt><trkpt lat="43.623683034964216" lon="12.119050230378878"><ele>476.0</ele><time>2026-04-18T16:06:11Z</time></trkpt><trkpt lat="43.6234991648762" lon="12.11904305590167"><ele>476.0</ele><time>2026-04-18T16:06:12Z</time></trkpt><trkpt lat="43.62331837800542" lon="12.119039603696105"><ele>475.3333333333333</ele><time>2026-04-18T16:06:13Z</time></trkpt><trkpt lat="43.623141936417504" lon="12.119031653027358"><ele>474.66666666666663</ele><time>2026-04-18T16:06:14Z</time></trkpt><trkpt lat="43.622973044890756" lon="12.11902254295148"><ele>474.0</ele><time>2026-04-18T16:06:15Z</time></trkpt><trkpt lat="43.622801054466315" lon="12.119004681148851"><ele>472.33333333333337</ele><time>2026-04-18T16:06:16Z</time></trkpt><trkpt lat="43.622630332910354" lon="12.118990433585312"><ele>470.6666666666667</ele><time>2026-04-18T16:06:17Z</time></trkpt><trkpt lat="43.62246080625849" lon="12.118979604501002"><ele>469.0</ele><time>2026-04-18T16:06:18Z</time></trkpt><trkpt lat="43.6222919616647" lon="12.118978000518307"><ele>469.0</ele><time>2026-04-18T16:06:19Z</time></trkpt><trkpt lat="43.62212051246619" lon="12.118975528012"><ele>469.0</ele><time>2026-04-18T16:06:20Z</time></trkpt><trkpt lat="43.62194638725767" lon="12.118995179030252"><ele>469.0</ele><time>2026-04-18T16:06:21Z</time></trkpt><trkpt lat="43.62177397987483" lon="12.119021964292896"><ele>469.0</ele><time>2026-04-18T16:06:22Z</time></trkpt><trkpt lat="43.62160904712785" lon="12.119056069694494"><ele>469.0</ele><time>2026-04-18T16:06:23Z</time></trkpt><trkpt lat="43.62144857289471" lon="12.119084059195515"><ele>469.0</ele><time>2026-04-18T16:06:24Z</time></trkpt><trkpt lat="43.621289142938" lon="12.119077533065362"><ele>468.0</ele><time>2026-04-18T16:06:24.999Z</time></trkpt><trkpt lat="43.62112821420855" lon="12.1190336890598"><ele>467.0</ele><time>2026-04-18T16:06:25.999Z</time></trkpt><trkpt lat="43.62098294153481" lon="12.118914180478884"><ele>466.0</ele><time>2026-04-18T16:06:26.999Z</time></trkpt><trkpt lat="43.62082758145765" lon="12.118798200854012"><ele>466.0</ele><time>2026-04-18T16:06:27.999Z</time></trkpt><trkpt lat="43.6206775524845" lon="12.118658221717206"><ele>466.0</ele><time>2026-04-18T16:06:28.999Z</time></trkpt><trkpt lat="43.62054089519543" lon="12.118506503981685"><ele>466.0</ele><time>2026-04-18T16:06:29.999Z</time></trkpt><trkpt lat="43.62040451727186" lon="12.118368648631396"><ele>464.33333333333337</ele><time>2026-04-18T16:06:30.999Z</time></trkpt><trkpt lat="43.62031480799072" lon="12.118175659742928"><ele>462.66666666666663</ele><time>2026-04-18T16:06:31.999Z</time></trkpt><trkpt lat="43.6202149035545" lon="12.117985546165798"><ele>461.0</ele><time>2026-04-18T16:06:32.999Z</time></trkpt><trkpt lat="43.62013895540067" lon="12.11778213738943"><ele>461.0</ele><time>2026-04-18T16:06:33.999Z</time></trkpt><trkpt lat="43.62006374010126" lon="12.117598969423662"><ele>461.0</ele><time>2026-04-18T16:06:34.999Z</time></trkpt><trkpt lat="43.619985872396434" lon="12.117450206985914"><ele>461.0</ele><time>2026-04-18T16:06:35.999Z</time></trkpt><trkpt lat="43.619890065664265" lon="12.117346300297209"><ele>461.0</ele><time>2026-04-18T16:06:36.999Z</time></trkpt><trkpt lat="43.61977400966277" lon="12.11729301433985"><ele>461.0</ele><time>2026-04-18T16:06:37.999Z</time></trkpt><trkpt lat="43.61964228887873" lon="12.11729933286238"><ele>461.0</ele><time>2026-04-18T16:06:38.999Z</time></trkpt><trkpt lat="43.61950827064405" lon="12.117372017581337"><ele>461.0</ele><time>2026-04-18T16:06:39.999Z</time></trkpt><trkpt lat="43.619370804969265" lon="12.11747735916669"><ele>461.0</ele><time>2026-04-18T16:06:40.999Z</time></trkpt><trkpt lat="43.61922810990386" lon="12.117585802095624"><ele>461.0</ele><time>2026-04-18T16:06:41.999Z</time></trkpt><trkpt lat="43.61907007384825" lon="12.1176791766572"><ele>461.0</ele><time>2026-04-18T16:06:42.999Z</time></trkpt><trkpt lat="43.61889301908809" lon="12.117718759935277"><ele>461.0</ele><time>2026-04-18T16:06:43.999Z</time></trkpt><trkpt lat="43.61871508660983" lon="12.117734937830821"><ele>460.3333333333333</ele><time>2026-04-18T16:06:44.999Z</time></trkpt><trkpt lat="43.61853222968484" lon="12.117756329407998"><ele>459.66666666666663</ele><time>2026-04-18T16:06:45.999Z</time></trkpt><trkpt lat="43.61835072801472" lon="12.117746902953145"><ele>459.0</ele><time>2026-04-18T16:06:46.999Z</time></trkpt><trkpt lat="43.618170357671964" lon="12.117722780740888"><ele>459.0</ele><time>2026-04-18T16:06:47.999Z</time></trkpt><trkpt lat="43.61799261494552" lon="12.11769654787059"><ele>459.0</ele><time>2026-04-18T16:06:48.999Z</time></trkpt><trkpt lat="43.61781551590433" lon="12.117690884232044"><ele>459.0</ele><time>2026-04-18T16:06:49.999Z</time></trkpt><trkpt lat="43.61764117724594" lon="12.117724533018789"><ele>459.33333333333337</ele><time>2026-04-18T16:06:50.999Z</time></trkpt><trkpt lat="43.61747340320859" lon="12.117805597362167"><ele>459.6666666666667</ele><time>2026-04-18T16:06:51.999Z</time></trkpt><trkpt lat="43.61732405521073" lon="12.117941427470784"><ele>460.0</ele><time>2026-04-18T16:06:52.999Z</time></trkpt><trkpt lat="43.61719046205823" lon="12.11811264198194"><ele>462.0</ele><time>2026-04-18T16:06:53.999Z</time></trkpt><trkpt lat="43.61706813996996" lon="12.118301385705953"><ele>464.0</ele><time>2026-04-18T16:06:54.999Z</time></trkpt><trkpt lat="43.61695804314842" lon="12.118501192388202"><ele>466.0</ele><time>2026-04-18T16:06:55.999Z</time></trkpt><trkpt lat="43.616869012954496" lon="12.118705947108037"><ele>466.0</ele><time>2026-04-18T16:06:56.999Z</time></trkpt><trkpt lat="43.61679500365406" lon="12.118899969746145"><ele>466.0</ele><time>2026-04-18T16:06:57.999Z</time></trkpt><trkpt lat="43.616719803216306" lon="12.11907476643844"><ele>466.0</ele><time>2026-04-18T16:06:58.999Z</time></trkpt><trkpt lat="43.616631041453" lon="12.119212523453614"><ele>466.0</ele><time>2026-04-18T16:06:59.999Z</time></trkpt><trkpt lat="43.616514444063185" lon="12.119271573877455"><ele>467.25</ele><time>2026-04-18T16:07:00.999Z</time></trkpt><trkpt lat="43.61640167333611" lon="12.119286645932291"><ele>468.5</ele><time>2026-04-18T16:07:01.999Z</time></trkpt><trkpt lat="43.61629239130047" lon="12.119256028745792"><ele>469.75</ele><time>2026-04-18T16:07:02.999Z</time></trkpt><trkpt lat="43.616193495628494" lon="12.119191144746688"><ele>471.0</ele><time>2026-04-18T16:07:03.999Z</time></trkpt><trkpt lat="43.61614742286594" lon="12.119040616062415"><ele>469.75</ele><time>2026-04-18T16:07:04.999Z</time></trkpt><trkpt lat="43.616125530621716" lon="12.118886062705796"><ele>468.5</ele><time>2026-04-18T16:07:05.999Z</time></trkpt><trkpt lat="43.616210948021205" lon="12.11874454807021"><ele>467.25</ele><time>2026-04-18T16:07:06.999Z</time></trkpt><trkpt lat="43.61627444320497" lon="12.118584028246229"><ele>466.0</ele><time>2026-04-18T16:07:07.999Z</time></trkpt><trkpt lat="43.616356489988874" lon="12.118438040653217"><ele>466.0</ele><time>2026-04-18T16:07:08.999Z</time></trkpt><trkpt lat="43.61639909701928" lon="12.118267477990656"><ele>466.0</ele><time>2026-04-18T16:07:09.999Z</time></trkpt><trkpt lat="43.616416696206215" lon="12.118096096327152"><ele>466.0</ele><time>2026-04-18T16:07:10.999Z</time></trkpt><trkpt lat="43.61641704201018" lon="12.117936128530987"><ele>466.0</ele><time>2026-04-18T16:07:11.999Z</time></trkpt><trkpt lat="43.61638486916946" lon="12.117794002781896"><ele>467.0</ele><time>2026-04-18T16:07:12.999Z</time></trkpt><trkpt lat="43.61631715692073" lon="12.117684177723499"><ele>468.0</ele><time>2026-04-18T16:07:13.999Z</time></trkpt><trkpt lat="43.61621290720171" lon="12.117615330247414"><ele>469.0</ele><time>2026-04-18T16:07:14.999Z</time></trkpt><trkpt lat="43.61607982055876" lon="12.117586629777986"><ele>470.0</ele><time>2026-04-18T16:07:15.999Z</time></trkpt><trkpt lat="43.615932356104565" lon="12.117588177378446"><ele>470.0</ele><time>2026-04-18T16:07:17Z</time></trkpt><trkpt lat="43.61577697163277" lon="12.117600141496961"><ele>470.0</ele><time>2026-04-18T16:07:18Z</time></trkpt><trkpt lat="43.61562040338244" lon="12.117608917282237"><ele>470.0</ele><time>2026-04-18T16:07:19Z</time></trkpt><trkpt lat="43.61546542799465" lon="12.117581016049147"><ele>470.0</ele><time>2026-04-18T16:07:20Z</time></trkpt><trkpt lat="43.615322458051246" lon="12.117486103608359"><ele>470.0</ele><time>2026-04-18T16:07:21Z</time></trkpt><trkpt lat="43.61521752526884" lon="12.117308104916727"><ele>470.0</ele><time>2026-04-18T16:07:22Z</time></trkpt><trkpt lat="43.61509472776495" lon="12.117157422257067"><ele>471.3333333333333</ele><time>2026-04-18T16:07:23Z</time></trkpt><trkpt lat="43.61498678444176" lon="12.116978783489879"><ele>472.66666666666663</ele><time>2026-04-18T16:07:24Z</time></trkpt><trkpt lat="43.61487760298147" lon="12.116805269454574"><ele>474.0</ele><time>2026-04-18T16:07:25Z</time></trkpt><trkpt lat="43.614769513322436" lon="12.116640417516386"><ele>472.0</ele><time>2026-04-18T16:07:26Z</time></trkpt><trkpt lat="43.614659030743915" lon="12.116502509536897"><ele>470.0</ele><time>2026-04-18T16:07:27Z</time></trkpt><trkpt lat="43.61454213686471" lon="12.116398446312374"><ele>468.0</ele><time>2026-04-18T16:07:28Z</time></trkpt><trkpt lat="43.614422436736525" lon="12.116297518092265"><ele>466.0</ele><time>2026-04-18T16:07:29Z</time></trkpt><trkpt lat="43.61430145590436" lon="12.116216033039809"><ele>467.75</ele><time>2026-04-18T16:07:30Z</time></trkpt><trkpt lat="43.61420975276748" lon="12.11611941117227"><ele>469.5</ele><time>2026-04-18T16:07:31Z</time></trkpt><trkpt lat="43.614190643577295" lon="12.115963192641058"><ele>471.25</ele><time>2026-04-18T16:07:32Z</time></trkpt><trkpt lat="43.61423990796064" lon="12.115801207751938"><ele>473.0</ele><time>2026-04-18T16:07:33Z</time></trkpt><trkpt lat="43.614296954179125" lon="12.115631459249114"><ele>473.0</ele><time>2026-04-18T16:07:34Z</time></trkpt><trkpt lat="43.61434510259577" lon="12.115503468345462"><ele>473.0</ele><time>2026-04-18T16:07:35Z</time></trkpt><trkpt lat="43.6143476493288" lon="12.115317882152963"><ele>473.0</ele><time>2026-04-18T16:07:36Z</time></trkpt><trkpt lat="43.61432763881356" lon="12.115159687022313"><ele>473.0</ele><time>2026-04-18T16:07:37Z</time></trkpt><trkpt lat="43.61427310943113" lon="12.115029325518663"><ele>473.0</ele><time>2026-04-18T16:07:38Z</time></trkpt><trkpt lat="43.6141813095886" lon="12.114923127448371"><ele>473.0</ele><time>2026-04-18T16:07:39Z</time></trkpt><trkpt lat="43.614056919554756" lon="12.11486249214163"><ele>473.0</ele><time>2026-04-18T16:07:40Z</time></trkpt><trkpt lat="43.61391187271683" lon="12.114830531743124"><ele>473.0</ele><time>2026-04-18T16:07:41Z</time></trkpt><trkpt lat="43.613762566129516" lon="12.114804576553032"><ele>470.0</ele><time>2026-04-18T16:07:42Z</time></trkpt><trkpt lat="43.61360355014894" lon="12.114776182754882"><ele>467.0</ele><time>2026-04-18T16:07:43Z</time></trkpt><trkpt lat="43.61343249645727" lon="12.11474943421182"><ele>464.0</ele><time>2026-04-18T16:07:44Z</time></trkpt><trkpt lat="43.61326886001616" lon="12.114717795202175"><ele>464.0</ele><time>2026-04-18T16:07:45Z</time></trkpt><trkpt lat="43.61311768589038" lon="12.114686169981088"><ele>464.0</ele><time>2026-04-18T16:07:46Z</time></trkpt><trkpt lat="43.61297459873007" lon="12.114634532380673"><ele>464.0</ele><time>2026-04-18T16:07:47Z</time></trkpt><trkpt lat="43.612852351176365" lon="12.114539015905684"><ele>464.0</ele><time>2026-04-18T16:07:48Z</time></trkpt><trkpt lat="43.612769665313124" lon="12.114370529361924"><ele>467.0</ele><time>2026-04-18T16:07:49Z</time></trkpt><trkpt lat="43.6127275203058" lon="12.114167893588279"><ele>470.0</ele><time>2026-04-18T16:07:50Z</time></trkpt><trkpt lat="43.612634312408225" lon="12.113982500644319"><ele>473.0</ele><time>2026-04-18T16:07:51Z</time></trkpt><trkpt lat="43.6125436284118" lon="12.113790895283524"><ele>473.0</ele><time>2026-04-18T16:07:52Z</time></trkpt><trkpt lat="43.61242812653243" lon="12.113606852882603"><ele>473.0</ele><time>2026-04-18T16:07:53Z</time></trkpt><trkpt lat="43.612311903010486" lon="12.113418981161399"><ele>473.0</ele><time>2026-04-18T16:07:54Z</time></trkpt><trkpt lat="43.61219830703747" lon="12.11323950810113"><ele>474.0</ele><time>2026-04-18T16:07:55Z</time></trkpt><trkpt lat="43.612075320121086" lon="12.113065441047022"><ele>475.0</ele><time>2026-04-18T16:07:56Z</time></trkpt><trkpt lat="43.6119446578353" lon="12.112898329933492"><ele>476.0</ele><time>2026-04-18T16:07:57Z</time></trkpt><trkpt lat="43.61181688073696" lon="12.11270747750638"><ele>476.0</ele><time>2026-04-18T16:07:58Z</time></trkpt><trkpt lat="43.61166306306481" lon="12.112573981132591"><ele>476.0</ele><time>2026-04-18T16:07:59Z</time></trkpt><trkpt lat="43.611541733274755" lon="12.112378664590858"><ele>476.0</ele><time>2026-04-18T16:08:00Z</time></trkpt><trkpt lat="43.61142711735069" lon="12.112179011994614"><ele>478.0</ele><time>2026-04-18T16:08:01Z</time></trkpt><trkpt lat="43.61130900941737" lon="12.111974542296327"><ele>480.0</ele><time>2026-04-18T16:08:02Z</time></trkpt><trkpt lat="43.61118869416853" lon="12.11177599705185"><ele>482.0</ele><time>2026-04-18T16:08:03Z</time></trkpt><trkpt lat="43.6110769282513" lon="12.11159035317585"><ele>477.66666666666663</ele><time>2026-04-18T16:08:04Z</time></trkpt><trkpt lat="43.61096191608566" lon="12.111418636400536"><ele>473.33333333333337</ele><time>2026-04-18T16:08:05Z</time></trkpt><trkpt lat="43.61084030998739" lon="12.11127988347823"><ele>469.0</ele><time>2026-04-18T16:08:06Z</time></trkpt><trkpt lat="43.61071095196902" lon="12.111165705990704"><ele>469.0</ele><time>2026-04-18T16:08:07Z</time></trkpt><trkpt lat="43.61058055253184" lon="12.111077832441609"><ele>469.0</ele><time>2026-04-18T16:08:08Z</time></trkpt><trkpt lat="43.61045073445751" lon="12.11101178932596"><ele>469.0</ele><time>2026-04-18T16:08:09Z</time></trkpt><trkpt lat="43.61032023992766" lon="12.110994073553336"><ele>469.0</ele><time>2026-04-18T16:08:10Z</time></trkpt><trkpt lat="43.61018501633313" lon="12.111022975466486"><ele>470.75</ele><time>2026-04-18T16:08:11Z</time></trkpt><trkpt lat="43.61005523778573" lon="12.111101478792294"><ele>472.5</ele><time>2026-04-18T16:08:12Z</time></trkpt><trkpt lat="43.6099249564963" lon="12.111186690939935"><ele>474.25</ele><time>2026-04-18T16:08:13Z</time></trkpt><trkpt lat="43.60978987773398" lon="12.111218698867845"><ele>476.0</ele><time>2026-04-18T16:08:14Z</time></trkpt><trkpt lat="43.609656690856795" lon="12.111176756491945"><ele>476.0</ele><time>2026-04-18T16:08:15Z</time></trkpt><trkpt lat="43.60955504384933" lon="12.111047773824469"><ele>476.0</ele><time>2026-04-18T16:08:16Z</time></trkpt><trkpt lat="43.60948173626726" lon="12.110900360890703"><ele>476.0</ele><time>2026-04-18T16:08:17Z</time></trkpt><trkpt lat="43.60942467051501" lon="12.110748018262553"><ele>476.0</ele><time>2026-04-18T16:08:18Z</time></trkpt><trkpt lat="43.60935395887904" lon="12.110632825129331"><ele>474.25</ele><time>2026-04-18T16:08:19Z</time></trkpt><trkpt lat="43.6092601930085" lon="12.11056134386057"><ele>472.5</ele><time>2026-04-18T16:08:20Z</time></trkpt><trkpt lat="43.60914073910672" lon="12.110547785381836"><ele>470.75</ele><time>2026-04-18T16:08:21Z</time></trkpt><trkpt lat="43.60902120949391" lon="12.110595233275358"><ele>469.0</ele><time>2026-04-18T16:08:22Z</time></trkpt><trkpt lat="43.6089197878996" lon="12.110681651443162"><ele>469.0</ele><time>2026-04-18T16:08:23Z</time></trkpt><trkpt lat="43.608818569966004" lon="12.11069675379577"><ele>469.0</ele><time>2026-04-18T16:08:24Z</time></trkpt><trkpt lat="43.608732661781644" lon="12.110674840793392"><ele>469.0</ele><time>2026-04-18T16:08:25Z</time></trkpt><trkpt lat="43.608647031996796" lon="12.110583191888708"><ele>469.0</ele><time>2026-04-18T16:08:26Z</time></trkpt><trkpt lat="43.608611100194075" lon="12.110396901976"><ele>469.0</ele><time>2026-04-18T16:08:27Z</time></trkpt><trkpt lat="43.60853589519893" lon="12.110244588002335"><ele>468.75</ele><time>2026-04-18T16:08:28Z</time></trkpt><trkpt lat="43.608469886049065" lon="12.110080160153423"><ele>468.5</ele><time>2026-04-18T16:08:29Z</time></trkpt><trkpt lat="43.608391974215536" lon="12.109930379169779"><ele>468.25</ele><time>2026-04-18T16:08:30Z</time></trkpt><trkpt lat="43.60828990271065" lon="12.10982329876014"><ele>468.0</ele><time>2026-04-18T16:08:31Z</time></trkpt><trkpt lat="43.608147994423895" lon="12.109781332946536"><ele>468.0</ele><time>2026-04-18T16:08:32Z</time></trkpt><trkpt lat="43.60800166450924" lon="12.109794820108617"><ele>468.0</ele><time>2026-04-18T16:08:33Z</time></trkpt><trkpt lat="43.60784649327548" lon="12.109815223499316"><ele>468.0</ele><time>2026-04-18T16:08:34Z</time></trkpt><trkpt lat="43.607711285795475" lon="12.109851070745993"><ele>468.0</ele><time>2026-04-18T16:08:35Z</time></trkpt><trkpt lat="43.60756176613491" lon="12.109799543864403"><ele>470.33333333333337</ele><time>2026-04-18T16:08:36Z</time></trkpt><trkpt lat="43.60743957539869" lon="12.109666850618943"><ele>472.6666666666667</ele><time>2026-04-18T16:08:37Z</time></trkpt><trkpt lat="43.60733789761476" lon="12.109497444809508"><ele>475.0</ele><time>2026-04-18T16:08:38Z</time></trkpt><trkpt lat="43.60727162983938" lon="12.109315078979844"><ele>475.0</ele><time>2026-04-18T16:08:39Z</time></trkpt><trkpt lat="43.60720661094406" lon="12.109132439405506"><ele>475.0</ele><time>2026-04-18T16:08:40Z</time></trkpt><trkpt lat="43.60713632889174" lon="12.108939852962472"><ele>475.0</ele><time>2026-04-18T16:08:40.999Z</time></trkpt><trkpt lat="43.607037491839904" lon="12.108740930797879"><ele>475.6666666666667</ele><time>2026-04-18T16:08:41.999Z</time></trkpt><trkpt lat="43.60692681595421" lon="12.108575524771759"><ele>476.33333333333337</ele><time>2026-04-18T16:08:42.999Z</time></trkpt><trkpt lat="43.60680141906357" lon="12.108445065334301"><ele>477.0</ele><time>2026-04-18T16:08:43.999Z</time></trkpt><trkpt lat="43.60667887379174" lon="12.108344567114814"><ele>477.0</ele><time>2026-04-18T16:08:44.999Z</time></trkpt><trkpt lat="43.60655425349305" lon="12.108283338641401"><ele>477.0</ele><time>2026-04-18T16:08:45.999Z</time></trkpt><trkpt lat="43.60643392328541" lon="12.108276189754049"><ele>477.0</ele><time>2026-04-18T16:08:46.999Z</time></trkpt><trkpt lat="43.60630093002339" lon="12.108329861660781"><ele>477.0</ele><time>2026-04-18T16:08:47.999Z</time></trkpt><trkpt lat="43.60617542473263" lon="12.108437961441732"><ele>477.75</ele><time>2026-04-18T16:08:48.999Z</time></trkpt><trkpt lat="43.6060557448104" lon="12.108575616930016"><ele>478.5</ele><time>2026-04-18T16:08:49.999Z</time></trkpt><trkpt lat="43.60591991951215" lon="12.108599303931543"><ele>479.25</ele><time>2026-04-18T16:08:50.999Z</time></trkpt><trkpt lat="43.60577837365246" lon="12.108516546677302"><ele>480.0</ele><time>2026-04-18T16:08:51.999Z</time></trkpt><trkpt lat="43.60563677117254" lon="12.108406834571456"><ele>480.0</ele><time>2026-04-18T16:08:52.999Z</time></trkpt><trkpt lat="43.605504117357235" lon="12.10832798198864"><ele>480.0</ele><time>2026-04-18T16:08:53.999Z</time></trkpt><trkpt lat="43.605383878776" lon="12.108256805392937"><ele>480.0</ele><time>2026-04-18T16:08:54.999Z</time></trkpt><trkpt lat="43.605250473374575" lon="12.108253041090327"><ele>480.0</ele><time>2026-04-18T16:08:55.999Z</time></trkpt><trkpt lat="43.60511687990093" lon="12.108333260754332"><ele>480.33333333333337</ele><time>2026-04-18T16:08:56.999Z</time></trkpt><trkpt lat="43.60498282048819" lon="12.108434583598985"><ele>480.6666666666667</ele><time>2026-04-18T16:08:57.999Z</time></trkpt><trkpt lat="43.60484664956338" lon="12.108559981225815"><ele>481.0</ele><time>2026-04-18T16:08:58.999Z</time></trkpt><trkpt lat="43.60470171182374" lon="12.108655078178307"><ele>481.0</ele><time>2026-04-18T16:08:59.999Z</time></trkpt><trkpt lat="43.60453905005325" lon="12.108670074802433"><ele>481.0</ele><time>2026-04-18T16:09:00.999Z</time></trkpt><trkpt lat="43.60438373334428" lon="12.108598532111303"><ele>481.0</ele><time>2026-04-18T16:09:01.999Z</time></trkpt><trkpt lat="43.60421916010188" lon="12.108533646110407"><ele>480.33333333333337</ele><time>2026-04-18T16:09:02.999Z</time></trkpt><trkpt lat="43.60404933767959" lon="12.108491445454973"><ele>479.66666666666663</ele><time>2026-04-18T16:09:03.999Z</time></trkpt><trkpt lat="43.60387951939101" lon="12.108433138964616"><ele>479.0</ele><time>2026-04-18T16:09:04.999Z</time></trkpt><trkpt lat="43.60370972018624" lon="12.108402479191447"><ele>479.0</ele><time>2026-04-18T16:09:05.999Z</time></trkpt><trkpt lat="43.603556352053076" lon="12.10834116960623"><ele>479.0</ele><time>2026-04-18T16:09:06.999Z</time></trkpt><trkpt lat="43.603408173896845" lon="12.108299938759217"><ele>479.0</ele><time>2026-04-18T16:09:07.999Z</time></trkpt><trkpt lat="43.60327704442725" lon="12.108237289893257"><ele>479.0</ele><time>2026-04-18T16:09:08.999Z</time></trkpt><trkpt lat="43.603175455995434" lon="12.108141913127108"><ele>479.0</ele><time>2026-04-18T16:09:09.998Z</time></trkpt><trkpt lat="43.603125134277086" lon="12.107996453528772"><ele>479.0</ele><time>2026-04-18T16:09:10.998Z</time></trkpt><trkpt lat="43.603108392242746" lon="12.107811450000362"><ele>479.0</ele><time>2026-04-18T16:09:11.998Z</time></trkpt><trkpt lat="43.60307012389142" lon="12.107605826448106"><ele>479.0</ele><time>2026-04-18T16:09:12.998Z</time></trkpt><trkpt lat="43.60299556233342" lon="12.107415458300986"><ele>479.0</ele><time>2026-04-18T16:09:13.998Z</time></trkpt><trkpt lat="43.60291498926096" lon="12.107241651997915"><ele>479.0</ele><time>2026-04-18T16:09:14.998Z</time></trkpt><trkpt lat="43.60280318001523" lon="12.107099680901415"><ele>479.3333333333333</ele><time>2026-04-18T16:09:15.998Z</time></trkpt><trkpt lat="43.602665848483014" lon="12.107018725195559"><ele>479.66666666666663</ele><time>2026-04-18T16:09:16.998Z</time></trkpt><trkpt lat="43.60250807959583" lon="12.106982002537755"><ele>480.0</ele><time>2026-04-18T16:09:17.998Z</time></trkpt><trkpt lat="43.60233539947947" lon="12.106976577263291"><ele>480.0</ele><time>2026-04-18T16:09:18.998Z</time></trkpt><trkpt lat="43.60214830250986" lon="12.106976886926676"><ele>480.0</ele><time>2026-04-18T16:09:19.998Z</time></trkpt><trkpt lat="43.601952529171186" lon="12.106964245871584"><ele>480.0</ele><time>2026-04-18T16:09:20.998Z</time></trkpt><trkpt lat="43.60175880546178" lon="12.10694719958353"><ele>479.66666666666663</ele><time>2026-04-18T16:09:21.998Z</time></trkpt><trkpt lat="43.60157884005966" lon="12.106928120631157"><ele>479.3333333333333</ele><time>2026-04-18T16:09:23Z</time></trkpt><trkpt lat="43.60139769194125" lon="12.106907363909023"><ele>479.0</ele><time>2026-04-18T16:09:24Z</time></trkpt><trkpt lat="43.60122786380882" lon="12.106881078804557"><ele>478.3333333333333</ele><time>2026-04-18T16:09:25Z</time></trkpt><trkpt lat="43.60106612184631" lon="12.106857284395442"><ele>477.66666666666663</ele><time>2026-04-18T16:09:26Z</time></trkpt><trkpt lat="43.60090528727591" lon="12.106858587881653"><ele>477.0</ele><time>2026-04-18T16:09:27Z</time></trkpt><trkpt lat="43.60074391849133" lon="12.106908254886832"><ele>477.0</ele><time>2026-04-18T16:09:28Z</time></trkpt><trkpt lat="43.60058344713353" lon="12.107019734348347"><ele>477.0</ele><time>2026-04-18T16:09:29Z</time></trkpt><trkpt lat="43.60042034684293" lon="12.107160803820479"><ele>477.0</ele><time>2026-04-18T16:09:30Z</time></trkpt><trkpt lat="43.600252908161494" lon="12.10731471827965"><ele>477.0</ele><time>2026-04-18T16:09:31Z</time></trkpt><trkpt lat="43.60007941641028" lon="12.107458750269098"><ele>477.0</ele><time>2026-04-18T16:09:32Z</time></trkpt><trkpt lat="43.59991014307223" lon="12.107576735374986"><ele>477.0</ele><time>2026-04-18T16:09:33Z</time></trkpt><trkpt lat="43.59973666455996" lon="12.107648613693526"><ele>477.0</ele><time>2026-04-18T16:09:34Z</time></trkpt><trkpt lat="43.59958266458677" lon="12.10772472420165"><ele>477.0</ele><time>2026-04-18T16:09:35Z</time></trkpt><trkpt lat="43.59943689149305" lon="12.107759421323768"><ele>477.0</ele><time>2026-04-18T16:09:36Z</time></trkpt><trkpt lat="43.599289715443994" lon="12.107743994101481"><ele>475.66666666666663</ele><time>2026-04-18T16:09:37Z</time></trkpt><trkpt lat="43.59916195795077" lon="12.10762546164807"><ele>474.3333333333333</ele><time>2026-04-18T16:09:38Z</time></trkpt><trkpt lat="43.59900890574477" lon="12.107496280100005"><ele>473.0</ele><time>2026-04-18T16:09:39Z</time></trkpt><trkpt lat="43.598855107502025" lon="12.107362860300364"><ele>473.0</ele><time>2026-04-18T16:09:40Z</time></trkpt><trkpt lat="43.59869302666488" lon="12.107243852137044"><ele>473.0</ele><time>2026-04-18T16:09:41Z</time></trkpt><trkpt lat="43.59853785387805" lon="12.107108005561072"><ele>473.0</ele><time>2026-04-18T16:09:42Z</time></trkpt><trkpt lat="43.59838932964993" lon="12.10697612927959"><ele>473.0</ele><time>2026-04-18T16:09:43Z</time></trkpt><trkpt lat="43.5982512756831" lon="12.106855449828322"><ele>473.0</ele><time>2026-04-18T16:09:44Z</time></trkpt><trkpt lat="43.59812250683187" lon="12.106759053999463"><ele>473.0</ele><time>2026-04-18T16:09:45Z</time></trkpt><trkpt lat="43.59798539970693" lon="12.106673229844349"><ele>473.0</ele><time>2026-04-18T16:09:46Z</time></trkpt><trkpt lat="43.59784240416554" lon="12.10662828781701"><ele>473.0</ele><time>2026-04-18T16:09:47Z</time></trkpt><trkpt lat="43.59771228187514" lon="12.106607958263778"><ele>473.0</ele><time>2026-04-18T16:09:48Z</time></trkpt><trkpt lat="43.597578173007875" lon="12.106649471630737"><ele>473.0</ele><time>2026-04-18T16:09:49Z</time></trkpt><trkpt lat="43.597452529706366" lon="12.106725932270262"><ele>472.25</ele><time>2026-04-18T16:09:50Z</time></trkpt><trkpt lat="43.59734625381499" lon="12.106838673404788"><ele>471.5</ele><time>2026-04-18T16:09:51Z</time></trkpt><trkpt lat="43.59726660586483" lon="12.106998351838406"><ele>470.75</ele><time>2026-04-18T16:09:52Z</time></trkpt><trkpt lat="43.59721643038318" lon="12.107191562840335"><ele>470.0</ele><time>2026-04-18T16:09:53Z</time></trkpt><trkpt lat="43.59719319927349" lon="12.107410250677452"><ele>471.66666666666663</ele><time>2026-04-18T16:09:54Z</time></trkpt><trkpt lat="43.597169424169564" lon="12.10763472715288"><ele>473.33333333333337</ele><time>2026-04-18T16:09:55Z</time></trkpt><trkpt lat="43.597143562676585" lon="12.107864028307398"><ele>475.0</ele><time>2026-04-18T16:09:55.999Z</time></trkpt><trkpt lat="43.59711614808645" lon="12.10808729886554"><ele>475.0</ele><time>2026-04-18T16:09:56.999Z</time></trkpt><trkpt lat="43.59708552501114" lon="12.108306402223112"><ele>475.0</ele><time>2026-04-18T16:09:57.999Z</time></trkpt><trkpt lat="43.597044534323665" lon="12.10853973822232"><ele>475.0</ele><time>2026-04-18T16:09:58.999Z</time></trkpt><trkpt lat="43.59700114748493" lon="12.108776035161222"><ele>470.6666666666667</ele><time>2026-04-18T16:09:59.999Z</time></trkpt><trkpt lat="43.59695404681293" lon="12.109015259487913"><ele>466.33333333333337</ele><time>2026-04-18T16:10:00.999Z</time></trkpt><trkpt lat="43.596903769807696" lon="12.10924497666005"><ele>462.0</ele><time>2026-04-18T16:10:01.999Z</time></trkpt><trkpt lat="43.59685587488775" lon="12.109461108728349"><ele>462.0</ele><time>2026-04-18T16:10:02.999Z</time></trkpt><trkpt lat="43.596814237229765" lon="12.109668493369325"><ele>462.0</ele><time>2026-04-18T16:10:03.999Z</time></trkpt><trkpt lat="43.596779049811865" lon="12.109869514373068"><ele>462.0</ele><time>2026-04-18T16:10:04.999Z</time></trkpt><trkpt lat="43.59673905372382" lon="12.110045697042244"><ele>462.0</ele><time>2026-04-18T16:10:05.999Z</time></trkpt><trkpt lat="43.59667384814551" lon="12.1101916659477"><ele>461.75</ele><time>2026-04-18T16:10:06.999Z</time></trkpt><trkpt lat="43.59660352925867" lon="12.110348335623515"><ele>461.5</ele><time>2026-04-18T16:10:07.999Z</time></trkpt><trkpt lat="43.596489141711785" lon="12.11038171195933"><ele>461.25</ele><time>2026-04-18T16:10:08.999Z</time></trkpt><trkpt lat="43.59635928476132" lon="12.110419252250013"><ele>461.0</ele><time>2026-04-18T16:10:09.999Z</time></trkpt><trkpt lat="43.5962147815175" lon="12.110449541026997"><ele>458.5</ele><time>2026-04-18T16:10:10.999Z</time></trkpt><trkpt lat="43.59606735573863" lon="12.110454511336949"><ele>456.0</ele><time>2026-04-18T16:10:11.999Z</time></trkpt><trkpt lat="43.59592082423093" lon="12.110479015659832"><ele>453.5</ele><time>2026-04-18T16:10:12.999Z</time></trkpt><trkpt lat="43.595775133217955" lon="12.110532020287623"><ele>451.0</ele><time>2026-04-18T16:10:13.999Z</time></trkpt><trkpt lat="43.595635352973446" lon="12.110610136013683"><ele>451.0</ele><time>2026-04-18T16:10:14.999Z</time></trkpt><trkpt lat="43.595503689204065" lon="12.110712984422394"><ele>451.0</ele><time>2026-04-18T16:10:15.999Z</time></trkpt><trkpt lat="43.59537699527255" lon="12.11083701632321"><ele>451.0</ele><time>2026-04-18T16:10:16.999Z</time></trkpt><trkpt lat="43.59525947408094" lon="12.110988495642152"><ele>449.6666666666667</ele><time>2026-04-18T16:10:17.999Z</time></trkpt><trkpt lat="43.595157094796065" lon="12.111164309935747"><ele>448.33333333333337</ele><time>2026-04-18T16:10:18.999Z</time></trkpt><trkpt lat="43.595064169486804" lon="12.111360717935169"><ele>447.0</ele><time>2026-04-18T16:10:19.999Z</time></trkpt><trkpt lat="43.59497720004482" lon="12.11155521486154"><ele>447.33333333333337</ele><time>2026-04-18T16:10:20.999Z</time></trkpt><trkpt lat="43.59489823061567" lon="12.111744450885684"><ele>447.6666666666667</ele><time>2026-04-18T16:10:21.999Z</time></trkpt><trkpt lat="43.59482580222606" lon="12.111936232411747"><ele>448.0</ele><time>2026-04-18T16:10:22.999Z</time></trkpt><trkpt lat="43.59475848657675" lon="12.112133236060723"><ele>448.0</ele><time>2026-04-18T16:10:23.999Z</time></trkpt><trkpt lat="43.59469815615426" lon="12.112329312572895"><ele>448.0</ele><time>2026-04-18T16:10:24.999Z</time></trkpt><trkpt lat="43.594635982966864" lon="12.112520654912313"><ele>448.0</ele><time>2026-04-18T16:10:25.999Z</time></trkpt><trkpt lat="43.59457953335152" lon="12.112702859241733"><ele>446.0</ele><time>2026-04-18T16:10:26.999Z</time></trkpt><trkpt lat="43.59450111730336" lon="12.11286928975003"><ele>444.0</ele><time>2026-04-18T16:10:27.999Z</time></trkpt><trkpt lat="43.594388124718414" lon="12.112995862231648"><ele>442.0</ele><time>2026-04-18T16:10:28.999Z</time></trkpt><trkpt lat="43.59424821756164" lon="12.113092874770055"><ele>440.0</ele><time>2026-04-18T16:10:29.999Z</time></trkpt><trkpt lat="43.594103998986945" lon="12.113154467725245"><ele>440.0</ele><time>2026-04-18T16:10:30.999Z</time></trkpt><trkpt lat="43.59397436113244" lon="12.113223207338846"><ele>440.0</ele><time>2026-04-18T16:10:31.999Z</time></trkpt><trkpt lat="43.59387148001095" lon="12.113346042844963"><ele>440.0</ele><time>2026-04-18T16:10:32.999Z</time></trkpt><trkpt lat="43.59379727970922" lon="12.113505362326151"><ele>440.0</ele><time>2026-04-18T16:10:33.999Z</time></trkpt><trkpt lat="43.59374966779204" lon="12.113669616684131"><ele>440.0</ele><time>2026-04-18T16:10:34.999Z</time></trkpt><trkpt lat="43.59369324375254" lon="12.11380472054958"><ele>440.0</ele><time>2026-04-18T16:10:35.999Z</time></trkpt><trkpt lat="43.593595871543734" lon="12.113876925665732"><ele>440.0</ele><time>2026-04-18T16:10:36.999Z</time></trkpt><trkpt lat="43.59347929381564" lon="12.11387007855342"><ele>440.0</ele><time>2026-04-18T16:10:37.999Z</time></trkpt><trkpt lat="43.59337932693436" lon="12.113810166726315"><ele>440.0</ele><time>2026-04-18T16:10:38.999Z</time></trkpt><trkpt lat="43.59331903874347" lon="12.113657735191108"><ele>438.0</ele><time>2026-04-18T16:10:39.999Z</time></trkpt><trkpt lat="43.5932210126501" lon="12.113536084295998"><ele>436.0</ele><time>2026-04-18T16:10:40.999Z</time></trkpt><trkpt lat="43.593116698002184" lon="12.113409151780536"><ele>434.0</ele><time>2026-04-18T16:10:41.999Z</time></trkpt><trkpt lat="43.592976305151055" lon="12.11333492142146"><ele>432.0</ele><time>2026-04-18T16:10:42.999Z</time></trkpt><trkpt lat="43.59281367844927" lon="12.113306926796556"><ele>431.0</ele><time>2026-04-18T16:10:43.999Z</time></trkpt><trkpt lat="43.59265860054255" lon="12.11329390117157"><ele>430.0</ele><time>2026-04-18T16:10:44.999Z</time></trkpt><trkpt lat="43.5925109851457" lon="12.1132951028925"><ele>429.0</ele><time>2026-04-18T16:10:45.999Z</time></trkpt><trkpt lat="43.59237381236126" lon="12.113329678923915"><ele>428.0</ele><time>2026-04-18T16:10:46.999Z</time></trkpt><trkpt lat="43.59225455280502" lon="12.113432763308342"><ele>428.0</ele><time>2026-04-18T16:10:47.999Z</time></trkpt><trkpt lat="43.59214786574775" lon="12.11358144709644"><ele>428.0</ele><time>2026-04-18T16:10:48.999Z</time></trkpt><trkpt lat="43.592074412105475" lon="12.113775577366171"><ele>428.0</ele><time>2026-04-18T16:10:49.999Z</time></trkpt><trkpt lat="43.59202037139509" lon="12.114002598762596"><ele>424.3333333333333</ele><time>2026-04-18T16:10:50.999Z</time></trkpt><trkpt lat="43.591958335401564" lon="12.114230683320114"><ele>420.66666666666663</ele><time>2026-04-18T16:10:51.999Z</time></trkpt><trkpt lat="43.59188830469043" lon="12.114460821612358"><ele>417.0</ele><time>2026-04-18T16:10:52.999Z</time></trkpt><trkpt lat="43.59182044818432" lon="12.11467818602284"><ele>417.0</ele><time>2026-04-18T16:10:53.999Z</time></trkpt><trkpt lat="43.5917611966721" lon="12.114882834097939"><ele>417.0</ele><time>2026-04-18T16:10:54.999Z</time></trkpt><trkpt lat="43.5917088071644" lon="12.11507006260359"><ele>417.0</ele><time>2026-04-18T16:10:55.999Z</time></trkpt><trkpt lat="43.59165994804489" lon="12.115235086044875"><ele>417.0</ele><time>2026-04-18T16:10:56.999Z</time></trkpt><trkpt lat="43.59161225700634" lon="12.115376344856742"><ele>417.5</ele><time>2026-04-18T16:10:57.999Z</time></trkpt><trkpt lat="43.59153455724252" lon="12.115487793379593"><ele>418.0</ele><time>2026-04-18T16:10:58.999Z</time></trkpt><trkpt lat="43.59143246757896" lon="12.115556687060598"><ele>418.5</ele><time>2026-04-18T16:10:59.999Z</time></trkpt><trkpt lat="43.591302341815975" lon="12.115532963864457"><ele>419.0</ele><time>2026-04-18T16:11:00.999Z</time></trkpt><trkpt lat="43.591157387054736" lon="12.11549753180393"><ele>416.0</ele><time>2026-04-18T16:11:01.999Z</time></trkpt><trkpt lat="43.59099647752153" lon="12.115465894091471"><ele>413.0</ele><time>2026-04-18T16:11:02.999Z</time></trkpt><trkpt lat="43.590832536382834" lon="12.115428982068575"><ele>410.0</ele><time>2026-04-18T16:11:03.999Z</time></trkpt><trkpt lat="43.59066812514967" lon="12.115414511779933"><ele>410.0</ele><time>2026-04-18T16:11:04.999Z</time></trkpt><trkpt lat="43.59050470660024" lon="12.115412892630106"><ele>410.0</ele><time>2026-04-18T16:11:05.999Z</time></trkpt><trkpt lat="43.590346329917814" lon="12.115434117164803"><ele>410.0</ele><time>2026-04-18T16:11:06.999Z</time></trkpt><trkpt lat="43.590190983010274" lon="12.115488030823537"><ele>409.0</ele><time>2026-04-18T16:11:07.999Z</time></trkpt><trkpt lat="43.590036526756464" lon="12.115580223391268"><ele>408.0</ele><time>2026-04-18T16:11:08.999Z</time></trkpt><trkpt lat="43.58989008331544" lon="12.115690177522538"><ele>407.0</ele><time>2026-04-18T16:11:09.999Z</time></trkpt><trkpt lat="43.58975689423332" lon="12.115812684756694"><ele>407.0</ele><time>2026-04-18T16:11:10.999Z</time></trkpt><trkpt lat="43.5896406058687" lon="12.115954077733242"><ele>407.0</ele><time>2026-04-18T16:11:11.999Z</time></trkpt><trkpt lat="43.58954006380479" lon="12.116113178658942"><ele>407.0</ele><time>2026-04-18T16:11:12.999Z</time></trkpt><trkpt lat="43.589454689380915" lon="12.11627825549455"><ele>405.5</ele><time>2026-04-18T16:11:13.999Z</time></trkpt><trkpt lat="43.589380053600856" lon="12.116432093073552"><ele>404.0</ele><time>2026-04-18T16:11:14.999Z</time></trkpt><trkpt lat="43.58930806152463" lon="12.116572352455115"><ele>402.5</ele><time>2026-04-18T16:11:15.999Z</time></trkpt><trkpt lat="43.58923837335865" lon="12.116699480738747"><ele>401.0</ele><time>2026-04-18T16:11:16.999Z</time></trkpt><trkpt lat="43.58916673007936" lon="12.11682526726118"><ele>401.0</ele><time>2026-04-18T16:11:17.999Z</time></trkpt><trkpt lat="43.58908844336881" lon="12.116945379873728"><ele>401.0</ele><time>2026-04-18T16:11:18.999Z</time></trkpt><trkpt lat="43.58899937706009" lon="12.117055300866925"><ele>401.0</ele><time>2026-04-18T16:11:19.999Z</time></trkpt><trkpt lat="43.58887808903794" lon="12.117111773076614"><ele>401.0</ele><time>2026-04-18T16:11:20.999Z</time></trkpt><trkpt lat="43.5887726648838" lon="12.11719947660905"><ele>398.5</ele><time>2026-04-18T16:11:21.999Z</time></trkpt><trkpt lat="43.588662483641954" lon="12.11726051126743"><ele>396.0</ele><time>2026-04-18T16:11:22.999Z</time></trkpt><trkpt lat="43.5885568029885" lon="12.117329367547226"><ele>393.5</ele><time>2026-04-18T16:11:23.999Z</time></trkpt><trkpt lat="43.588452704694554" lon="12.117406451006405"><ele>391.0</ele><time>2026-04-18T16:11:24.999Z</time></trkpt><trkpt lat="43.58834402545281" lon="12.117472925819328"><ele>391.0</ele><time>2026-04-18T16:11:25.999Z</time></trkpt><trkpt lat="43.58826637337938" lon="12.117600732937733"><ele>391.0</ele><time>2026-04-18T16:11:26.999Z</time></trkpt><trkpt lat="43.58818980448995" lon="12.117709706121111"><ele>391.0</ele><time>2026-04-18T16:11:27.999Z</time></trkpt><trkpt lat="43.58811973206207" lon="12.117822973017333"><ele>391.0</ele><time>2026-04-18T16:11:29Z</time></trkpt><trkpt lat="43.58806914108937" lon="12.117956298251185"><ele>391.0</ele><time>2026-04-18T16:11:30Z</time></trkpt><trkpt lat="43.58803469715825" lon="12.11809865441894"><ele>391.6</ele><time>2026-04-18T16:11:31Z</time></trkpt><trkpt lat="43.58802007413395" lon="12.11825247009867"><ele>392.20000000000005</ele><time>2026-04-18T16:11:32Z</time></trkpt><trkpt lat="43.588022549743876" lon="12.118399916731978"><ele>392.79999999999995</ele><time>2026-04-18T16:11:33Z</time></trkpt><trkpt lat="43.588028445465646" lon="12.1185512338721"><ele>393.4</ele><time>2026-04-18T16:11:34Z</time></trkpt><trkpt lat="43.58802319655119" lon="12.118697827984565"><ele>394.0</ele><time>2026-04-18T16:11:35Z</time></trkpt><trkpt lat="43.58801137620279" lon="12.118845242154384"><ele>394.0</ele><time>2026-04-18T16:11:36Z</time></trkpt><trkpt lat="43.587991624043326" lon="12.118991615236466"><ele>394.0</ele><time>2026-04-18T16:11:37Z</time></trkpt><trkpt lat="43.58796368209113" lon="12.119138967914894"><ele>394.0</ele><time>2026-04-18T16:11:38Z</time></trkpt><trkpt lat="43.58790580173254" lon="12.119276188371398"><ele>394.0</ele><time>2026-04-18T16:11:39Z</time></trkpt><trkpt lat="43.58784871015666" lon="12.119423062646362"><ele>389.6666666666667</ele><time>2026-04-18T16:11:40Z</time></trkpt><trkpt lat="43.58777030906185" lon="12.119599689822039"><ele>385.33333333333337</ele><time>2026-04-18T16:11:41Z</time></trkpt><trkpt lat="43.58767795704923" lon="12.119796441796817"><ele>381.0</ele><time>2026-04-18T16:11:42Z</time></trkpt><trkpt lat="43.58759645256466" lon="12.119991979399787"><ele>381.0</ele><time>2026-04-18T16:11:43Z</time></trkpt><trkpt lat="43.587482889761844" lon="12.120159428585357"><ele>381.0</ele><time>2026-04-18T16:11:44Z</time></trkpt><trkpt lat="43.587350324464275" lon="12.120307994093666"><ele>381.0</ele><time>2026-04-18T16:11:45Z</time></trkpt><trkpt lat="43.587197367238325" lon="12.12041829234256"><ele>381.0</ele><time>2026-04-18T16:11:46Z</time></trkpt><trkpt lat="43.58704122683241" lon="12.120496690419756"><ele>381.0</ele><time>2026-04-18T16:11:47Z</time></trkpt><trkpt lat="43.58689768752874" lon="12.12058963779079"><ele>381.0</ele><time>2026-04-18T16:11:48Z</time></trkpt><trkpt lat="43.586774476658114" lon="12.12072575759599"><ele>377.6666666666667</ele><time>2026-04-18T16:11:49Z</time></trkpt><trkpt lat="43.58667424983335" lon="12.120914673177957"><ele>374.33333333333337</ele><time>2026-04-18T16:11:50Z</time></trkpt><trkpt lat="43.58658887051585" lon="12.1211344740694"><ele>371.0</ele><time>2026-04-18T16:11:51Z</time></trkpt><trkpt lat="43.586510628810316" lon="12.121372537442387"><ele>372.6666666666667</ele><time>2026-04-18T16:11:52Z</time></trkpt><trkpt lat="43.58642507689978" lon="12.12161489034861"><ele>374.3333333333333</ele><time>2026-04-18T16:11:53Z</time></trkpt><trkpt lat="43.58633365305316" lon="12.121860403459404"><ele>376.0</ele><time>2026-04-18T16:11:54Z</time></trkpt><trkpt lat="43.586239010279854" lon="12.122101688187524"><ele>370.3333333333333</ele><time>2026-04-18T16:11:55Z</time></trkpt><trkpt lat="43.586154047278704" lon="12.12234216467774"><ele>364.6666666666667</ele><time>2026-04-18T16:11:56Z</time></trkpt><trkpt lat="43.586088067888774" lon="12.122591615286069"><ele>359.0</ele><time>2026-04-18T16:11:57Z</time></trkpt><trkpt lat="43.586025937987785" lon="12.122839184374085"><ele>359.0</ele><time>2026-04-18T16:11:58Z</time></trkpt><trkpt lat="43.58596381143513" lon="12.123089168065382"><ele>359.0</ele><time>2026-04-18T16:11:59Z</time></trkpt><trkpt lat="43.585918606304205" lon="12.123347428395201"><ele>359.0</ele><time>2026-04-18T16:12:00Z</time></trkpt><trkpt lat="43.58588902338749" lon="12.12360665839131"><ele>359.0</ele><time>2026-04-18T16:12:01Z</time></trkpt><trkpt lat="43.585876376208844" lon="12.123862220100401"><ele>359.0</ele><time>2026-04-18T16:12:02Z</time></trkpt><trkpt lat="43.585871034314366" lon="12.12411308904418"><ele>359.0</ele><time>2026-04-18T16:12:03Z</time></trkpt><trkpt lat="43.58586490824784" lon="12.124357361301689"><ele>358.0</ele><time>2026-04-18T16:12:04Z</time></trkpt><trkpt lat="43.58585991779476" lon="12.124587794727558"><ele>357.0</ele><time>2026-04-18T16:12:05Z</time></trkpt><trkpt lat="43.585854034705044" lon="12.124795755555724"><ele>356.0</ele><time>2026-04-18T16:12:06Z</time></trkpt><trkpt lat="43.5858235403789" lon="12.124986254848665"><ele>355.0</ele><time>2026-04-18T16:12:07Z</time></trkpt><trkpt lat="43.58576659933095" lon="12.125150296496193"><ele>354.0</ele><time>2026-04-18T16:12:08Z</time></trkpt><trkpt lat="43.58569122591602" lon="12.125289516460962"><ele>353.0</ele><time>2026-04-18T16:12:09Z</time></trkpt><trkpt lat="43.585581935808875" lon="12.125407631914854"><ele>352.0</ele><time>2026-04-18T16:12:10Z</time></trkpt><trkpt lat="43.585448215688395" lon="12.12544050423826"><ele>350.66666666666663</ele><time>2026-04-18T16:12:11Z</time></trkpt><trkpt lat="43.58528812299353" lon="12.125433543196404"><ele>349.3333333333333</ele><time>2026-04-18T16:12:12Z</time></trkpt><trkpt lat="43.58511147553562" lon="12.125421446020244"><ele>348.0</ele><time>2026-04-18T16:12:13Z</time></trkpt><trkpt lat="43.58493780804746" lon="12.125429357258742"><ele>348.0</ele><time>2026-04-18T16:12:14Z</time></trkpt><trkpt lat="43.58475856143121" lon="12.125410863190416"><ele>348.0</ele><time>2026-04-18T16:12:15Z</time></trkpt><trkpt lat="43.58457311257232" lon="12.125395096249733"><ele>348.0</ele><time>2026-04-18T16:12:16Z</time></trkpt><trkpt lat="43.58439557604956" lon="12.12538061301781"><ele>347.6666666666667</ele><time>2026-04-18T16:12:17Z</time></trkpt><trkpt lat="43.58422052052803" lon="12.125368455467386"><ele>347.33333333333337</ele><time>2026-04-18T16:12:18Z</time></trkpt><trkpt lat="43.58404822648633" lon="12.125360485615392"><ele>347.0</ele><time>2026-04-18T16:12:19Z</time></trkpt><trkpt lat="43.58387576878132" lon="12.125354865041622"><ele>347.0</ele><time>2026-04-18T16:12:20Z</time></trkpt><trkpt lat="43.58370393588736" lon="12.12535135717488"><ele>347.0</ele><time>2026-04-18T16:12:21Z</time></trkpt><trkpt lat="43.58353365464666" lon="12.125349170963274"><ele>347.0</ele><time>2026-04-18T16:12:22Z</time></trkpt><trkpt lat="43.58336875859378" lon="12.125351910665726"><ele>345.6666666666667</ele><time>2026-04-18T16:12:23Z</time></trkpt><trkpt lat="43.58321328666261" lon="12.125354488767721"><ele>344.3333333333333</ele><time>2026-04-18T16:12:24Z</time></trkpt><trkpt lat="43.58306029446744" lon="12.125358469078868"><ele>343.0</ele><time>2026-04-18T16:12:25Z</time></trkpt><trkpt lat="43.58290695473662" lon="12.12536443892187"><ele>342.3333333333333</ele><time>2026-04-18T16:12:26Z</time></trkpt><trkpt lat="43.58275173278876" lon="12.125379071531166"><ele>341.6666666666667</ele><time>2026-04-18T16:12:27Z</time></trkpt><trkpt lat="43.58259814793742" lon="12.125409271505822"><ele>341.0</ele><time>2026-04-18T16:12:28Z</time></trkpt><trkpt lat="43.58244561713851" lon="12.125448626563882"><ele>341.0</ele><time>2026-04-18T16:12:29Z</time></trkpt><trkpt lat="43.58229442823707" lon="12.125511156874374"><ele>341.0</ele><time>2026-04-18T16:12:30Z</time></trkpt><trkpt lat="43.5821488525422" lon="12.125586130714689"><ele>341.0</ele><time>2026-04-18T16:12:31Z</time></trkpt><trkpt lat="43.58200093760585" lon="12.125654781016959"><ele>341.33333333333337</ele><time>2026-04-18T16:12:32Z</time></trkpt><trkpt lat="43.581851206510336" lon="12.125718234839225"><ele>341.6666666666667</ele><time>2026-04-18T16:12:33Z</time></trkpt><trkpt lat="43.58169765705048" lon="12.125769926907951"><ele>342.0</ele><time>2026-04-18T16:12:34Z</time></trkpt><trkpt lat="43.58154390548095" lon="12.125762231373185"><ele>341.5</ele><time>2026-04-18T16:12:35Z</time></trkpt><trkpt lat="43.58139595491598" lon="12.125750908594563"><ele>341.0</ele><time>2026-04-18T16:12:36Z</time></trkpt><trkpt lat="43.5812566045108" lon="12.125734421240983"><ele>340.5</ele><time>2026-04-18T16:12:36.999Z</time></trkpt><trkpt lat="43.58113291598867" lon="12.125737350031326"><ele>340.0</ele><time>2026-04-18T16:12:37.999Z</time></trkpt><trkpt lat="43.581025177565536" lon="12.125725462388633"><ele>339.6</ele><time>2026-04-18T16:12:38.999Z</time></trkpt><trkpt lat="43.58093045459122" lon="12.125710901236774"><ele>339.2</ele><time>2026-04-18T16:12:39.999Z</time></trkpt><trkpt lat="43.58084696726605" lon="12.12567605958323"><ele>338.79999999999995</ele><time>2026-04-18T16:12:40.999Z</time></trkpt><trkpt lat="43.58077740736514" lon="12.125612549112072"><ele>338.4</ele><time>2026-04-18T16:12:41.999Z</time></trkpt><trkpt lat="43.58071670436047" lon="12.125519767767722"><ele>338.0</ele><time>2026-04-18T16:12:42.999Z</time></trkpt><trkpt lat="43.580671423147635" lon="12.125403079173633"><ele>338.0</ele><time>2026-04-18T16:12:43.999Z</time></trkpt><trkpt lat="43.580618296075784" lon="12.125306242248675"><ele>338.0</ele><time>2026-04-18T16:12:44.999Z</time></trkpt><trkpt lat="43.58053934523238" lon="12.125243602800092"><ele>338.0</ele><time>2026-04-18T16:12:45.999Z</time></trkpt><trkpt lat="43.580442525470296" lon="12.125223620129749"><ele>338.0</ele><time>2026-04-18T16:12:46.999Z</time></trkpt><trkpt lat="43.58033141397203" lon="12.12523724231435"><ele>338.0</ele><time>2026-04-18T16:12:47.999Z</time></trkpt><trkpt lat="43.580214469495075" lon="12.12525674632914"><ele>336.75</ele><time>2026-04-18T16:12:48.999Z</time></trkpt><trkpt lat="43.5800913132771" lon="12.125246203621487"><ele>335.5</ele><time>2026-04-18T16:12:49.999Z</time></trkpt><trkpt lat="43.579953400236214" lon="12.125190161131812"><ele>334.25</ele><time>2026-04-18T16:12:50.999Z</time></trkpt><trkpt lat="43.579806422146476" lon="12.12512864563149"><ele>333.0</ele><time>2026-04-18T16:12:51.999Z</time></trkpt><trkpt lat="43.57965286820741" lon="12.125072154449999"><ele>332.6666666666667</ele><time>2026-04-18T16:12:52.999Z</time></trkpt><trkpt lat="43.57948912003011" lon="12.125017586903386"><ele>332.33333333333337</ele><time>2026-04-18T16:12:53.999Z</time></trkpt><trkpt lat="43.57933400519436" lon="12.124960813836742"><ele>332.0</ele><time>2026-04-18T16:12:54.999Z</time></trkpt><trkpt lat="43.579186122381834" lon="12.124909193790135"><ele>332.0</ele><time>2026-04-18T16:12:55.999Z</time></trkpt><trkpt lat="43.579034938224424" lon="12.124839031919105"><ele>332.0</ele><time>2026-04-18T16:12:56.999Z</time></trkpt><trkpt lat="43.5789020478749" lon="12.124793417531253"><ele>332.0</ele><time>2026-04-18T16:12:57.999Z</time></trkpt><trkpt lat="43.578774128653464" lon="12.12470925428278"><ele>332.0</ele><time>2026-04-18T16:12:58.999Z</time></trkpt><trkpt lat="43.578633097071375" lon="12.124631685893364"><ele>330.6666666666667</ele><time>2026-04-18T16:12:59.999Z</time></trkpt><trkpt lat="43.5784303492783" lon="12.124612093522433"><ele>329.3333333333333</ele><time>2026-04-18T16:13:00.999Z</time></trkpt><trkpt lat="43.578252925576635" lon="12.124547879196909"><ele>328.0</ele><time>2026-04-18T16:13:01.999Z</time></trkpt><trkpt lat="43.57807792524698" lon="12.124484001733343"><ele>328.0</ele><time>2026-04-18T16:13:02.999Z</time></trkpt><trkpt lat="43.57790036451108" lon="12.12441640815366"><ele>328.0</ele><time>2026-04-18T16:13:03.999Z</time></trkpt><trkpt lat="43.57771653535372" lon="12.12435080016606"><ele>328.0</ele><time>2026-04-18T16:13:04.999Z</time></trkpt><trkpt lat="43.57752329326408" lon="12.124279060256223"><ele>327.66666666666663</ele><time>2026-04-18T16:13:05.999Z</time></trkpt><trkpt lat="43.577325651502406" lon="12.12420698590694"><ele>327.3333333333333</ele><time>2026-04-18T16:13:06.999Z</time></trkpt><trkpt lat="43.57713073634145" lon="12.124129549699221"><ele>327.0</ele><time>2026-04-18T16:13:07.999Z</time></trkpt><trkpt lat="43.57693708372816" lon="12.124060928699526"><ele>326.0</ele><time>2026-04-18T16:13:08.999Z</time></trkpt><trkpt lat="43.5767494636692" lon="12.123993782839921"><ele>325.0</ele><time>2026-04-18T16:13:09.999Z</time></trkpt><trkpt lat="43.5765682939871" lon="12.123919712508886"><ele>324.0</ele><time>2026-04-18T16:13:10.999Z</time></trkpt><trkpt lat="43.576385438375404" lon="12.123849303827512"><ele>324.0</ele><time>2026-04-18T16:13:11.999Z</time></trkpt><trkpt lat="43.57620312349149" lon="12.123781129886456"><ele>324.0</ele><time>2026-04-18T16:13:12.999Z</time></trkpt><trkpt lat="43.57601669806873" lon="12.123733012656967"><ele>324.0</ele><time>2026-04-18T16:13:13.999Z</time></trkpt><trkpt lat="43.575827099447196" lon="12.12369736738839"><ele>323.3333333333333</ele><time>2026-04-18T16:13:14.999Z</time></trkpt><trkpt lat="43.57563558774568" lon="12.123688932121032"><ele>322.66666666666663</ele><time>2026-04-18T16:13:15.999Z</time></trkpt><trkpt lat="43.575441446228375" lon="12.12370514188751"><ele>322.0</ele><time>2026-04-18T16:13:16.999Z</time></trkpt><trkpt lat="43.57524583564881" lon="12.12373815189953"><ele>321.3333333333333</ele><time>2026-04-18T16:13:17.999Z</time></trkpt><trkpt lat="43.57504853879212" lon="12.123784174278844"><ele>320.6666666666667</ele><time>2026-04-18T16:13:18.999Z</time></trkpt><trkpt lat="43.57485201683203" lon="12.123834282740221"><ele>320.0</ele><time>2026-04-18T16:13:19.999Z</time></trkpt><trkpt lat="43.57465697033634" lon="12.123884133790018"><ele>319.33333333333337</ele><time>2026-04-18T16:13:20.999Z</time></trkpt><trkpt lat="43.574459119235904" lon="12.123928993506343"><ele>318.6666666666667</ele><time>2026-04-18T16:13:21.999Z</time></trkpt><trkpt lat="43.57426124019826" lon="12.123974292419268"><ele>318.0</ele><time>2026-04-18T16:13:22.999Z</time></trkpt><trkpt lat="43.574064749706174" lon="12.124021538836898"><ele>318.0</ele><time>2026-04-18T16:13:23.999Z</time></trkpt><trkpt lat="43.57386739568731" lon="12.124069547235587"><ele>318.0</ele><time>2026-04-18T16:13:24.999Z</time></trkpt><trkpt lat="43.57366909722869" lon="12.124110476451529"><ele>318.0</ele><time>2026-04-18T16:13:25.999Z</time></trkpt><trkpt lat="43.57346775075785" lon="12.124139335326731"><ele>318.0</ele><time>2026-04-18T16:13:26.999Z</time></trkpt><trkpt lat="43.573265104167625" lon="12.124152687089621"><ele>318.0</ele><time>2026-04-18T16:13:27.999Z</time></trkpt><trkpt lat="43.57306110111897" lon="12.124142742724235"><ele>318.0</ele><time>2026-04-18T16:13:28.999Z</time></trkpt><trkpt lat="43.57285601581142" lon="12.124110560729562"><ele>317.3333333333333</ele><time>2026-04-18T16:13:29.999Z</time></trkpt><trkpt lat="43.57265173367542" lon="12.124061274629772"><ele>316.66666666666663</ele><time>2026-04-18T16:13:30.999Z</time></trkpt><trkpt lat="43.572452810236896" lon="12.123991574511198"><ele>316.0</ele><time>2026-04-18T16:13:31.999Z</time></trkpt><trkpt lat="43.572264440917465" lon="12.123904587490923"><ele>316.0</ele><time>2026-04-18T16:13:32.999Z</time></trkpt><trkpt lat="43.572093188803294" lon="12.123802653927456"><ele>316.0</ele><time>2026-04-18T16:13:33.999Z</time></trkpt><trkpt lat="43.57193186500461" lon="12.123694915228882"><ele>316.0</ele><time>2026-04-18T16:13:35Z</time></trkpt><trkpt lat="43.57178288825223" lon="12.1235771526033"><ele>316.0</ele><time>2026-04-18T16:13:36Z</time></trkpt><trkpt lat="43.571635389149165" lon="12.123447405272096"><ele>316.0</ele><time>2026-04-18T16:13:37Z</time></trkpt><trkpt lat="43.57149187513369" lon="12.12333616381336"><ele>316.0</ele><time>2026-04-18T16:13:38Z</time></trkpt><trkpt lat="43.57134255312549" lon="12.1232188578494"><ele>315.66666666666663</ele><time>2026-04-18T16:13:39Z</time></trkpt><trkpt lat="43.57119297400074" lon="12.123101024448161"><ele>315.3333333333333</ele><time>2026-04-18T16:13:40Z</time></trkpt><trkpt lat="43.57104127430097" lon="12.122994414403038"><ele>315.0</ele><time>2026-04-18T16:13:41Z</time></trkpt><trkpt lat="43.57088030780648" lon="12.122916654557464"><ele>314.6666666666667</ele><time>2026-04-18T16:13:42Z</time></trkpt><trkpt lat="43.5707138497305" lon="12.122876685336324"><ele>314.33333333333337</ele><time>2026-04-18T16:13:43Z</time></trkpt><trkpt lat="43.57054300258915" lon="12.122870044658285"><ele>314.0</ele><time>2026-04-18T16:13:44Z</time></trkpt><trkpt lat="43.570377514805514" lon="12.122911150949037"><ele>314.6666666666667</ele><time>2026-04-18T16:13:45Z</time></trkpt><trkpt lat="43.57021832332679" lon="12.122993352697685"><ele>315.3333333333333</ele><time>2026-04-18T16:13:46Z</time></trkpt><trkpt lat="43.57006838592878" lon="12.123110810382446"><ele>316.0</ele><time>2026-04-18T16:13:47Z</time></trkpt><trkpt lat="43.569925423007774" lon="12.123245572701236"><ele>316.0</ele><time>2026-04-18T16:13:48Z</time></trkpt><trkpt lat="43.56978886946505" lon="12.123371922745207"><ele>316.0</ele><time>2026-04-18T16:13:49Z</time></trkpt><trkpt lat="43.569658428000146" lon="12.123489188428707"><ele>316.0</ele><time>2026-04-18T16:13:50Z</time></trkpt><trkpt lat="43.56953153509236" lon="12.123603478887015"><ele>315.0</ele><time>2026-04-18T16:13:51Z</time></trkpt><trkpt lat="43.5694127676156" lon="12.123707006055554"><ele>314.0</ele><time>2026-04-18T16:13:52Z</time></trkpt><trkpt lat="43.569301015586035" lon="12.123805231352488"><ele>313.0</ele><time>2026-04-18T16:13:53Z</time></trkpt><trkpt lat="43.569195660944" lon="12.123896931949847"><ele>312.0</ele><time>2026-04-18T16:13:54Z</time></trkpt><trkpt lat="43.56909812148833" lon="12.123975385092972"><ele>312.0</ele><time>2026-04-18T16:13:55Z</time></trkpt><trkpt lat="43.56900066569333" lon="12.124030947218012"><ele>312.0</ele><time>2026-04-18T16:13:56Z</time></trkpt><trkpt lat="43.568900289517686" lon="12.124056874789783"><ele>312.0</ele><time>2026-04-18T16:13:57Z</time></trkpt><trkpt lat="43.56879552772613" lon="12.124042524972406"><ele>312.0</ele><time>2026-04-18T16:13:58Z</time></trkpt><trkpt lat="43.568693355148405" lon="12.123976036117005"><ele>312.0</ele><time>2026-04-18T16:13:59Z</time></trkpt><trkpt lat="43.56860142256088" lon="12.123866621155988"><ele>311.75</ele><time>2026-04-18T16:14:00Z</time></trkpt><trkpt lat="43.56852348745578" lon="12.123723799023242"><ele>311.5</ele><time>2026-04-18T16:14:01Z</time></trkpt><trkpt lat="43.568457726574266" lon="12.123556990701113"><ele>311.25</ele><time>2026-04-18T16:14:02Z</time></trkpt><trkpt lat="43.5683880915807" lon="12.123390382118814"><ele>311.0</ele><time>2026-04-18T16:14:03Z</time></trkpt><trkpt lat="43.56831675181506" lon="12.123233115254894"><ele>311.0</ele><time>2026-04-18T16:14:04Z</time></trkpt><trkpt lat="43.568245607780504" lon="12.123098090770664"><ele>311.0</ele><time>2026-04-18T16:14:05Z</time></trkpt><trkpt lat="43.56817659755273" lon="12.122954221554643"><ele>311.0</ele><time>2026-04-18T16:14:06Z</time></trkpt><trkpt lat="43.56809187880308" lon="12.122805245942617"><ele>311.0</ele><time>2026-04-18T16:14:07Z</time></trkpt><trkpt lat="43.568026135350856" lon="12.122684766701594"><ele>311.0</ele><time>2026-04-18T16:14:08Z</time></trkpt><trkpt lat="43.567964140457626" lon="12.122565003658995"><ele>311.0</ele><time>2026-04-18T16:14:09Z</time></trkpt><trkpt lat="43.56791442237549" lon="12.122457811123754"><ele>311.0</ele><time>2026-04-18T16:14:10Z</time></trkpt><trkpt lat="43.56787695340003" lon="12.122368546495009"><ele>311.0</ele><time>2026-04-18T16:14:11Z</time></trkpt><trkpt lat="43.5678554325998" lon="12.122284345221157"><ele>311.0</ele><time>2026-04-18T16:14:12Z</time></trkpt><trkpt lat="43.56787374611469" lon="12.122104625548587"><ele>311.0</ele><time>2026-04-18T16:14:14Z</time></trkpt><trkpt lat="43.567894548747944" lon="12.122008390030246"><ele>311.0</ele><time>2026-04-18T16:14:15Z</time></trkpt><trkpt lat="43.567892940066905" lon="12.121914477311613"><ele>311.0</ele><time>2026-04-18T16:14:16Z</time></trkpt><trkpt lat="43.567834226505646" lon="12.121779403719989"><ele>311.0</ele><time>2026-04-18T16:14:18Z</time></trkpt><trkpt lat="43.567771214787435" lon="12.121752031508217"><ele>311.0</ele><time>2026-04-18T16:14:19Z</time></trkpt><trkpt lat="43.56764221867614" lon="12.121745774582175"><ele>310.5</ele><time>2026-04-18T16:14:21Z</time></trkpt><trkpt lat="43.56756928639857" lon="12.121765889175299"><ele>310.0</ele><time>2026-04-18T16:14:22Z</time></trkpt><trkpt lat="43.56748779942462" lon="12.121777837019783"><ele>309.5</ele><time>2026-04-18T16:14:23Z</time></trkpt><trkpt lat="43.567398031004736" lon="12.121774311365598"><ele>309.0</ele><time>2026-04-18T16:14:24Z</time></trkpt><trkpt lat="43.56730275007879" lon="12.12174820124474"><ele>308.5</ele><time>2026-04-18T16:14:25Z</time></trkpt><trkpt lat="43.56720717742243" lon="12.121698138400816"><ele>308.0</ele><time>2026-04-18T16:14:26Z</time></trkpt><trkpt lat="43.567115549667335" lon="12.1216269495424"><ele>308.2</ele><time>2026-04-18T16:14:27Z</time></trkpt><trkpt lat="43.567022314150606" lon="12.12155672171061"><ele>308.4</ele><time>2026-04-18T16:14:28Z</time></trkpt><trkpt lat="43.56692520230611" lon="12.121497914182243"><ele>308.59999999999997</ele><time>2026-04-18T16:14:29Z</time></trkpt><trkpt lat="43.56682277888656" lon="12.12145051501342"><ele>308.8</ele><time>2026-04-18T16:14:30Z</time></trkpt><trkpt lat="43.56671614571067" lon="12.121403023172"><ele>309.0</ele><time>2026-04-18T16:14:31Z</time></trkpt><trkpt lat="43.566602907861906" lon="12.121350825059853"><ele>309.0</ele><time>2026-04-18T16:14:32Z</time></trkpt><trkpt lat="43.56648896915624" lon="12.121295926179396"><ele>309.0</ele><time>2026-04-18T16:14:33Z</time></trkpt><trkpt lat="43.56636938762626" lon="12.121237931389075"><ele>309.0</ele><time>2026-04-18T16:14:34Z</time></trkpt><trkpt lat="43.566250085637876" lon="12.121180602820248"><ele>309.0</ele><time>2026-04-18T16:14:35Z</time></trkpt><trkpt lat="43.56613623779584" lon="12.121124529538658"><ele>309.25</ele><time>2026-04-18T16:14:36Z</time></trkpt><trkpt lat="43.566028004728885" lon="12.121066204496204"><ele>309.5</ele><time>2026-04-18T16:14:37Z</time></trkpt><trkpt lat="43.565918339158564" lon="12.12101647327713"><ele>309.75</ele><time>2026-04-18T16:14:38Z</time></trkpt><trkpt lat="43.56581327588357" lon="12.120965548711109"><ele>310.0</ele><time>2026-04-18T16:14:39Z</time></trkpt><trkpt lat="43.565707388322686" lon="12.120912339446736"><ele>310.0</ele><time>2026-04-18T16:14:40Z</time></trkpt><trkpt lat="43.56560367405111" lon="12.120860292200314"><ele>310.0</ele><time>2026-04-18T16:14:41Z</time></trkpt><trkpt lat="43.56550053084773" lon="12.12080876851484"><ele>310.0</ele><time>2026-04-18T16:14:42Z</time></trkpt><trkpt lat="43.56540156152293" lon="12.12075985489628"><ele>310.0</ele><time>2026-04-18T16:14:43Z</time></trkpt><trkpt lat="43.565303007536976" lon="12.120710823480628"><ele>310.0</ele><time>2026-04-18T16:14:44Z</time></trkpt><trkpt lat="43.56520737864028" lon="12.12066452501615"><ele>309.8</ele><time>2026-04-18T16:14:45Z</time></trkpt><trkpt lat="43.565113750059986" lon="12.120615796157747"><ele>309.6</ele><time>2026-04-18T16:14:46Z</time></trkpt><trkpt lat="43.565021840092896" lon="12.12056950538408"><ele>309.4</ele><time>2026-04-18T16:14:47Z</time></trkpt><trkpt lat="43.564930944303484" lon="12.12052163909465"><ele>309.2</ele><time>2026-04-18T16:14:48Z</time></trkpt><trkpt lat="43.564836198823194" lon="12.120468303546971"><ele>309.0</ele><time>2026-04-18T16:14:49Z</time></trkpt><trkpt lat="43.56473721631912" lon="12.120408856743941"><ele>309.0</ele><time>2026-04-18T16:14:50Z</time></trkpt><trkpt lat="43.56464094398576" lon="12.120342466423862"><ele>309.0</ele><time>2026-04-18T16:14:51Z</time></trkpt><trkpt lat="43.564551646349024" lon="12.120275017956757"><ele>309.0</ele><time>2026-04-18T16:14:52Z</time></trkpt><trkpt lat="43.5644642123533" lon="12.120202027533313"><ele>309.0</ele><time>2026-04-18T16:14:53Z</time></trkpt><trkpt lat="43.56437058399906" lon="12.12011389596929"><ele>309.0</ele><time>2026-04-18T16:14:54Z</time></trkpt><trkpt lat="43.56428349991845" lon="12.119988645590624"><ele>309.25</ele><time>2026-04-18T16:14:55Z</time></trkpt><trkpt lat="43.56418915397119" lon="12.119863319699244"><ele>309.5</ele><time>2026-04-18T16:14:56Z</time></trkpt><trkpt lat="43.56408202075596" lon="12.119740235414106"><ele>309.75</ele><time>2026-04-18T16:14:57Z</time></trkpt><trkpt lat="43.56399409761313" lon="12.119587810273487"><ele>310.0</ele><time>2026-04-18T16:14:58Z</time></trkpt><trkpt lat="43.56390311783178" lon="12.119428945415068"><ele>310.0</ele><time>2026-04-18T16:14:59Z</time></trkpt><trkpt lat="43.563800740613885" lon="12.119279771514059"><ele>310.0</ele><time>2026-04-18T16:15:00Z</time></trkpt><trkpt lat="43.563696050705715" lon="12.119126367095488"><ele>310.0</ele><time>2026-04-18T16:15:01Z</time></trkpt><trkpt lat="43.56359531753847" lon="12.118969136682539"><ele>309.5</ele><time>2026-04-18T16:15:02Z</time></trkpt><trkpt lat="43.56349543130958" lon="12.11881699023816"><ele>309.0</ele><time>2026-04-18T16:15:03Z</time></trkpt><trkpt lat="43.56339299310657" lon="12.118666819748034"><ele>308.5</ele><time>2026-04-18T16:15:04Z</time></trkpt><trkpt lat="43.563293435447044" lon="12.11851282318096"><ele>308.0</ele><time>2026-04-18T16:15:05Z</time></trkpt><trkpt lat="43.56319364270376" lon="12.118351606983744"><ele>308.33333333333337</ele><time>2026-04-18T16:15:06Z</time></trkpt><trkpt lat="43.56308697128579" lon="12.118191365572017"><ele>308.6666666666667</ele><time>2026-04-18T16:15:07Z</time></trkpt><trkpt lat="43.562974764199915" lon="12.118028960420661"><ele>309.0</ele><time>2026-04-18T16:15:08Z</time></trkpt><trkpt lat="43.562859293521186" lon="12.117864162538005"><ele>309.0</ele><time>2026-04-18T16:15:08.999Z</time></trkpt><trkpt lat="43.562742171224315" lon="12.117698610018184"><ele>309.0</ele><time>2026-04-18T16:15:09.999Z</time></trkpt><trkpt lat="43.56262657459815" lon="12.117539867516985"><ele>309.0</ele><time>2026-04-18T16:15:10.999Z</time></trkpt><trkpt lat="43.56251154927413" lon="12.117386537344752"><ele>309.75</ele><time>2026-04-18T16:15:11.999Z</time></trkpt><trkpt lat="43.562404143250426" lon="12.117239786955171"><ele>310.5</ele><time>2026-04-18T16:15:12.999Z</time></trkpt><trkpt lat="43.562299106472864" lon="12.11710130400683"><ele>311.25</ele><time>2026-04-18T16:15:13.999Z</time></trkpt><trkpt lat="43.56219737341408" lon="12.116970132940114"><ele>312.0</ele><time>2026-04-18T16:15:14.999Z</time></trkpt><trkpt lat="43.56209975561754" lon="12.116839932083957"><ele>311.25</ele><time>2026-04-18T16:15:15.999Z</time></trkpt><trkpt lat="43.56200943878515" lon="12.116713840315517"><ele>310.5</ele><time>2026-04-18T16:15:16.999Z</time></trkpt><trkpt lat="43.56191872151888" lon="12.116593866951685"><ele>309.75</ele><time>2026-04-18T16:15:17.999Z</time></trkpt><trkpt lat="43.56183059621057" lon="12.116478730446655"><ele>309.0</ele><time>2026-04-18T16:15:18.999Z</time></trkpt><trkpt lat="43.56174537966722" lon="12.11636609913134"><ele>309.0</ele><time>2026-04-18T16:15:19.999Z</time></trkpt><trkpt lat="43.56166065353901" lon="12.116254529708588"><ele>309.0</ele><time>2026-04-18T16:15:20.999Z</time></trkpt><trkpt lat="43.561578981528726" lon="12.11614185803489"><ele>309.0</ele><time>2026-04-18T16:15:21.999Z</time></trkpt><trkpt lat="43.56150145791854" lon="12.116033464614803"><ele>309.0</ele><time>2026-04-18T16:15:22.999Z</time></trkpt><trkpt lat="43.56142495414748" lon="12.11593179682533"><ele>309.0</ele><time>2026-04-18T16:15:23.999Z</time></trkpt><trkpt lat="43.56135883151402" lon="12.115838370945974"><ele>309.00000000000006</ele><time>2026-04-18T16:15:24.999Z</time></trkpt><trkpt lat="43.56129976716282" lon="12.115752919925821"><ele>309.0</ele><time>2026-04-18T16:15:25.999Z</time></trkpt><trkpt lat="43.5612509627145" lon="12.115661221475582"><ele>309.0</ele><time>2026-04-18T16:15:26.999Z</time></trkpt><trkpt lat="43.56121830137582" lon="12.115562677591836"><ele>309.0</ele><time>2026-04-18T16:15:27.999Z</time></trkpt><trkpt lat="43.5611904215052" lon="12.115469341992934"><ele>309.0</ele><time>2026-04-18T16:15:28.999Z</time></trkpt><trkpt lat="43.561157331144706" lon="12.115391677479979"><ele>309.00000000000006</ele><time>2026-04-18T16:15:29.998Z</time></trkpt><trkpt lat="43.56110850066425" lon="12.115336603590494"><ele>309.0</ele><time>2026-04-18T16:15:30.998Z</time></trkpt><trkpt lat="43.56100422235725" lon="12.115295152450468"><ele>308.8</ele><time>2026-04-18T16:15:32.998Z</time></trkpt><trkpt lat="43.56088086209632" lon="12.115273630924584"><ele>308.59999999999997</ele><time>2026-04-18T16:15:34.998Z</time></trkpt><trkpt lat="43.56081122222458" lon="12.115221290591688"><ele>308.4</ele><time>2026-04-18T16:15:35.998Z</time></trkpt><trkpt lat="43.560735865096" lon="12.115139782359783"><ele>308.2</ele><time>2026-04-18T16:15:36.998Z</time></trkpt><trkpt lat="43.560658704672186" lon="12.115029488714969"><ele>308.0</ele><time>2026-04-18T16:15:37.998Z</time></trkpt><trkpt lat="43.560589403393884" lon="12.114919949896482"><ele>308.5</ele><time>2026-04-18T16:15:38.998Z</time></trkpt><trkpt lat="43.56051076054599" lon="12.114805086418771"><ele>309.0</ele><time>2026-04-18T16:15:39.998Z</time></trkpt><trkpt lat="43.560429567838376" lon="12.114667962576224"><ele>309.5</ele><time>2026-04-18T16:15:41Z</time></trkpt><trkpt lat="43.560341867438986" lon="12.114528284561917"><ele>310.0</ele><time>2026-04-18T16:15:42Z</time></trkpt><trkpt lat="43.560248402104634" lon="12.114407911843802"><ele>310.0</ele><time>2026-04-18T16:15:43Z</time></trkpt><trkpt lat="43.560116865713205" lon="12.114356024642719"><ele>310.0</ele><time>2026-04-18T16:15:44Z</time></trkpt><trkpt lat="43.56002239882294" lon="12.11424475382015"><ele>310.0</ele><time>2026-04-18T16:15:45Z</time></trkpt><trkpt lat="43.55993006016071" lon="12.114133517472128"><ele>310.0</ele><time>2026-04-18T16:15:46Z</time></trkpt><trkpt lat="43.559838223248725" lon="12.114021495344993"><ele>310.0</ele><time>2026-04-18T16:15:47Z</time></trkpt><trkpt lat="43.55974784072557" lon="12.113905145830554"><ele>310.0</ele><time>2026-04-18T16:15:48Z</time></trkpt><trkpt lat="43.559655030781165" lon="12.113787670370195"><ele>310.0</ele><time>2026-04-18T16:15:49Z</time></trkpt><trkpt lat="43.559558402590326" lon="12.11367964971033"><ele>310.0</ele><time>2026-04-18T16:15:50Z</time></trkpt><trkpt lat="43.55946487664038" lon="12.113563378533245"><ele>310.0</ele><time>2026-04-18T16:15:51Z</time></trkpt><trkpt lat="43.55937437270443" lon="12.113439942414685"><ele>310.0</ele><time>2026-04-18T16:15:52Z</time></trkpt><trkpt lat="43.559280365093166" lon="12.113320021803188"><ele>310.0</ele><time>2026-04-18T16:15:53Z</time></trkpt><trkpt lat="43.55918762563381" lon="12.113197830725932"><ele>310.0</ele><time>2026-04-18T16:15:54Z</time></trkpt><trkpt lat="43.559101137342154" lon="12.11306576283519"><ele>310.5</ele><time>2026-04-18T16:15:55Z</time></trkpt><trkpt lat="43.55901701954577" lon="12.112933554720419"><ele>311.0</ele><time>2026-04-18T16:15:56Z</time></trkpt><trkpt lat="43.558925884747076" lon="12.112801630405304"><ele>311.5</ele><time>2026-04-18T16:15:57Z</time></trkpt><trkpt lat="43.55883430070555" lon="12.112688807817264"><ele>312.0</ele><time>2026-04-18T16:15:58Z</time></trkpt><trkpt lat="43.558743959534105" lon="12.112586609481998"><ele>311.8</ele><time>2026-04-18T16:15:59Z</time></trkpt><trkpt lat="43.5586635141439" lon="12.112484284473332"><ele>311.6</ele><time>2026-04-18T16:16:00Z</time></trkpt><trkpt lat="43.55860543010192" lon="12.112368086543427"><ele>311.40000000000003</ele><time>2026-04-18T16:16:01Z</time></trkpt><trkpt lat="43.558572153610704" lon="12.112253946655574"><ele>311.2</ele><time>2026-04-18T16:16:02Z</time></trkpt><trkpt lat="43.55855708544189" lon="12.112139612087095"><ele>311.0</ele><time>2026-04-18T16:16:03Z</time></trkpt><trkpt lat="43.558537478666096" lon="12.112030822809379"><ele>311.0</ele><time>2026-04-18T16:16:04Z</time></trkpt><trkpt lat="43.558489730401874" lon="12.11192075812849"><ele>311.0</ele><time>2026-04-18T16:16:05Z</time></trkpt><trkpt lat="43.558384223805845" lon="12.11182554559201"><ele>311.0</ele><time>2026-04-18T16:16:05.999Z</time></trkpt><trkpt lat="43.5582527773514" lon="12.111757663299041"><ele>311.0</ele><time>2026-04-18T16:16:06.999Z</time></trkpt><trkpt lat="43.55810385535861" lon="12.111702684094986"><ele>311.0</ele><time>2026-04-18T16:16:07.999Z</time></trkpt><trkpt lat="43.55796478446077" lon="12.111622344155963"><ele>311.0</ele><time>2026-04-18T16:16:08.999Z</time></trkpt><trkpt lat="43.55783502917607" lon="12.1114943510489"><ele>311.0</ele><time>2026-04-18T16:16:09.999Z</time></trkpt><trkpt lat="43.55770095730957" lon="12.111330140671514"><ele>311.0</ele><time>2026-04-18T16:16:10.999Z</time></trkpt><trkpt lat="43.557571283855836" lon="12.11115879774957"><ele>311.0</ele><time>2026-04-18T16:16:11.999Z</time></trkpt><trkpt lat="43.557445978646" lon="12.110994084694516"><ele>311.0</ele><time>2026-04-18T16:16:12.999Z</time></trkpt><trkpt lat="43.557321810047746" lon="12.11084233610326"><ele>311.0</ele><time>2026-04-18T16:16:13.999Z</time></trkpt><trkpt lat="43.55720462805667" lon="12.11070157770625"><ele>311.0</ele><time>2026-04-18T16:16:14.999Z</time></trkpt><trkpt lat="43.557092951535026" lon="12.110563801913898"><ele>311.0</ele><time>2026-04-18T16:16:15.999Z</time></trkpt><trkpt lat="43.55698425434248" lon="12.110430167621125"><ele>310.5</ele><time>2026-04-18T16:16:16.999Z</time></trkpt><trkpt lat="43.55688642979936" lon="12.110308862827228"><ele>310.0</ele><time>2026-04-18T16:16:17.999Z</time></trkpt><trkpt lat="43.55679404601983" lon="12.110191896931314"><ele>309.5</ele><time>2026-04-18T16:16:18.999Z</time></trkpt><trkpt lat="43.55670222499809" lon="12.11007824348407"><ele>309.0</ele><time>2026-04-18T16:16:19.999Z</time></trkpt><trkpt lat="43.55661412984212" lon="12.109968845735503"><ele>309.0</ele><time>2026-04-18T16:16:20.999Z</time></trkpt><trkpt lat="43.556528455015915" lon="12.10986184952079"><ele>309.0</ele><time>2026-04-18T16:16:21.999Z</time></trkpt><trkpt lat="43.55644239301252" lon="12.109756213716068"><ele>309.0</ele><time>2026-04-18T16:16:22.999Z</time></trkpt><trkpt lat="43.556354541847945" lon="12.109648630997308"><ele>309.0</ele><time>2026-04-18T16:16:23.999Z</time></trkpt><trkpt lat="43.55626521518744" lon="12.109541146909356"><ele>308.75</ele><time>2026-04-18T16:16:24.999Z</time></trkpt><trkpt lat="43.55617515736876" lon="12.109429658804231"><ele>308.5</ele><time>2026-04-18T16:16:25.999Z</time></trkpt><trkpt lat="43.55608474477759" lon="12.109321304905283"><ele>308.25</ele><time>2026-04-18T16:16:26.999Z</time></trkpt><trkpt lat="43.55599218335978" lon="12.10921244446579"><ele>308.0</ele><time>2026-04-18T16:16:27.999Z</time></trkpt><trkpt lat="43.55590359628275" lon="12.109077793433983"><ele>309.0</ele><time>2026-04-18T16:16:28.999Z</time></trkpt><trkpt lat="43.555795678601676" lon="12.108944188184344"><ele>310.0</ele><time>2026-04-18T16:16:29.999Z</time></trkpt><trkpt lat="43.55567738192607" lon="12.108797733333054"><ele>311.0</ele><time>2026-04-18T16:16:30.999Z</time></trkpt><trkpt lat="43.55554511233908" lon="12.10865948900546"><ele>311.0</ele><time>2026-04-18T16:16:31.999Z</time></trkpt><trkpt lat="43.55542680166117" lon="12.108499408649424"><ele>311.0</ele><time>2026-04-18T16:16:32.999Z</time></trkpt><trkpt lat="43.55530879322269" lon="12.108343614932899"><ele>311.0</ele><time>2026-04-18T16:16:33.999Z</time></trkpt><trkpt lat="43.55519679017858" lon="12.108201043881785"><ele>311.0</ele><time>2026-04-18T16:16:34.999Z</time></trkpt><trkpt lat="43.55509316276244" lon="12.108062342443546"><ele>311.0</ele><time>2026-04-18T16:16:35.999Z</time></trkpt><trkpt lat="43.55500281376869" lon="12.107917635058246"><ele>311.0</ele><time>2026-04-18T16:16:36.999Z</time></trkpt><trkpt lat="43.554939097269916" lon="12.107756216234463"><ele>311.0</ele><time>2026-04-18T16:16:37.999Z</time></trkpt><trkpt lat="43.55490103377389" lon="12.107588696942004"><ele>311.0</ele><time>2026-04-18T16:16:38.999Z</time></trkpt><trkpt lat="43.5548499339838" lon="12.107439616982296"><ele>311.0</ele><time>2026-04-18T16:16:39.999Z</time></trkpt><trkpt lat="43.5547682240333" lon="12.107326045892787"><ele>311.0</ele><time>2026-04-18T16:16:40.999Z</time></trkpt><trkpt lat="43.55466763574296" lon="12.107253361025569"><ele>311.0</ele><time>2026-04-18T16:16:41.999Z</time></trkpt><trkpt lat="43.554543761969626" lon="12.107222854146183"><ele>310.33333333333337</ele><time>2026-04-18T16:16:42.999Z</time></trkpt><trkpt lat="43.55440412071582" lon="12.107200849802135"><ele>309.6666666666667</ele><time>2026-04-18T16:16:43.999Z</time></trkpt><trkpt lat="43.55425434252607" lon="12.107149575758202"><ele>309.0</ele><time>2026-04-18T16:16:44.999Z</time></trkpt><trkpt lat="43.55409512177285" lon="12.107061226989922"><ele>309.0</ele><time>2026-04-18T16:16:45.999Z</time></trkpt><trkpt lat="43.55392609926213" lon="12.106948548754673"><ele>309.0</ele><time>2026-04-18T16:16:46.999Z</time></trkpt><trkpt lat="43.55374633772301" lon="12.106825487057698"><ele>309.0</ele><time>2026-04-18T16:16:47.999Z</time></trkpt><trkpt lat="43.55356878722923" lon="12.106699643435714"><ele>308.6666666666667</ele><time>2026-04-18T16:16:48.999Z</time></trkpt><trkpt lat="43.55338068220517" lon="12.106569673289817"><ele>308.33333333333337</ele><time>2026-04-18T16:16:49.999Z</time></trkpt><trkpt lat="43.55317736656969" lon="12.106433716723819"><ele>308.0</ele><time>2026-04-18T16:16:50.999Z</time></trkpt><trkpt lat="43.552967496916324" lon="12.106297013731186"><ele>308.0</ele><time>2026-04-18T16:16:51.999Z</time></trkpt><trkpt lat="43.552759659307775" lon="12.106157788040788"><ele>308.0</ele><time>2026-04-18T16:16:52.999Z</time></trkpt><trkpt lat="43.55254268517245" lon="12.106019603705922"><ele>308.0</ele><time>2026-04-18T16:16:53.999Z</time></trkpt><trkpt lat="43.5523268171503" lon="12.105873844132395"><ele>308.0</ele><time>2026-04-18T16:16:54.999Z</time></trkpt><trkpt lat="43.552105147763776" lon="12.105727316214221"><ele>307.5</ele><time>2026-04-18T16:16:55.999Z</time></trkpt><trkpt lat="43.55188276739545" lon="12.105579856542386"><ele>307.0</ele><time>2026-04-18T16:16:56.999Z</time></trkpt><trkpt lat="43.551659235346456" lon="12.105430826734635"><ele>307.0</ele><time>2026-04-18T16:16:57.999Z</time></trkpt><trkpt lat="43.551433436724686" lon="12.105281849247662"><ele>307.0</ele><time>2026-04-18T16:16:58.999Z</time></trkpt><trkpt lat="43.55120603120086" lon="12.105131582133442"><ele>307.5</ele><time>2026-04-18T16:16:59.999Z</time></trkpt><trkpt lat="43.55097981294539" lon="12.104980098036576"><ele>308.0</ele><time>2026-04-18T16:17:00.999Z</time></trkpt><trkpt lat="43.55075005064208" lon="12.104828888848811"><ele>308.0</ele><time>2026-04-18T16:17:01.999Z</time></trkpt><trkpt lat="43.55052021998171" lon="12.104678425396107"><ele>308.0</ele><time>2026-04-18T16:17:02.999Z</time></trkpt><trkpt lat="43.550289062089114" lon="12.104523750573229"><ele>307.5</ele><time>2026-04-18T16:17:03.999Z</time></trkpt><trkpt lat="43.550058486833954" lon="12.10437287798075"><ele>307.0</ele><time>2026-04-18T16:17:04.999Z</time></trkpt><trkpt lat="43.54982724203721" lon="12.104226200319454"><ele>307.0</ele><time>2026-04-18T16:17:05.999Z</time></trkpt><trkpt lat="43.54959880340217" lon="12.104078458443498"><ele>307.0</ele><time>2026-04-18T16:17:06.999Z</time></trkpt><trkpt lat="43.5493704268957" lon="12.103927661918018"><ele>307.0</ele><time>2026-04-18T16:17:07.999Z</time></trkpt><trkpt lat="43.54914326902988" lon="12.103774629195275"><ele>307.0</ele><time>2026-04-18T16:17:08.999Z</time></trkpt><trkpt lat="43.54891466849494" lon="12.103621796520917"><ele>307.5</ele><time>2026-04-18T16:17:09.999Z</time></trkpt><trkpt lat="43.548686450124755" lon="12.103470936535883"><ele>308.0</ele><time>2026-04-18T16:17:10.999Z</time></trkpt><trkpt lat="43.54845739717932" lon="12.10332360460482"><ele>308.5</ele><time>2026-04-18T16:17:11.999Z</time></trkpt><trkpt lat="43.548227523722396" lon="12.103176174294166"><ele>309.0</ele><time>2026-04-18T16:17:12.999Z</time></trkpt><trkpt lat="43.5479971442961" lon="12.103031410086368"><ele>308.5</ele><time>2026-04-18T16:17:13.999Z</time></trkpt><trkpt lat="43.54776572120005" lon="12.102889708691182"><ele>308.0</ele><time>2026-04-18T16:17:14.999Z</time></trkpt><trkpt lat="43.54753056805032" lon="12.102749635705727"><ele>308.0</ele><time>2026-04-18T16:17:15.999Z</time></trkpt><trkpt lat="43.54729325722407" lon="12.102616546772753"><ele>308.0</ele><time>2026-04-18T16:17:16.999Z</time></trkpt><trkpt lat="43.54705068525319" lon="12.102483241502075"><ele>307.5</ele><time>2026-04-18T16:17:17.999Z</time></trkpt><trkpt lat="43.546805458664295" lon="12.102348650993882"><ele>307.0</ele><time>2026-04-18T16:17:18.999Z</time></trkpt><trkpt lat="43.54655872354383" lon="12.102214361496443"><ele>307.0</ele><time>2026-04-18T16:17:19.999Z</time></trkpt><trkpt lat="43.546313049541325" lon="12.10208334591912"><ele>307.0</ele><time>2026-04-18T16:17:20.999Z</time></trkpt><trkpt lat="43.54606551437606" lon="12.101955211940693"><ele>307.0</ele><time>2026-04-18T16:17:21.999Z</time></trkpt><trkpt lat="43.54581886430613" lon="12.101826687565"><ele>307.0</ele><time>2026-04-18T16:17:22.999Z</time></trkpt><trkpt lat="43.54557300458977" lon="12.101697662547162"><ele>307.0</ele><time>2026-04-18T16:17:23.999Z</time></trkpt><trkpt lat="43.545325014677616" lon="12.101569812578457"><ele>307.0</ele><time>2026-04-18T16:17:24.999Z</time></trkpt><trkpt lat="43.54507696547992" lon="12.101441843590175"><ele>307.0</ele><time>2026-04-18T16:17:25.999Z</time></trkpt><trkpt lat="43.5448291098345" lon="12.101312596229887"><ele>307.0</ele><time>2026-04-18T16:17:26.999Z</time></trkpt><trkpt lat="43.54458200198568" lon="12.101185075241075"><ele>307.0</ele><time>2026-04-18T16:17:27.999Z</time></trkpt><trkpt lat="43.544332740997675" lon="12.101056667644682"><ele>307.0</ele><time>2026-04-18T16:17:28.999Z</time></trkpt><trkpt lat="43.54408572960949" lon="12.100925952507493"><ele>307.0</ele><time>2026-04-18T16:17:29.999Z</time></trkpt><trkpt lat="43.54383905024675" lon="12.10079473185236"><ele>307.0</ele><time>2026-04-18T16:17:30.999Z</time></trkpt><trkpt lat="43.543589947097665" lon="12.10066332241946"><ele>307.5</ele><time>2026-04-18T16:17:31.999Z</time></trkpt><trkpt lat="43.543342495148956" lon="12.100533290969786"><ele>308.0</ele><time>2026-04-18T16:17:32.999Z</time></trkpt><trkpt lat="43.54309509411661" lon="12.100405263028263"><ele>307.5</ele><time>2026-04-18T16:17:33.999Z</time></trkpt><trkpt lat="43.54284906056609" lon="12.100276410563678"><ele>307.0</ele><time>2026-04-18T16:17:34.999Z</time></trkpt><trkpt lat="43.5426028513564" lon="12.100147101088266"><ele>307.0</ele><time>2026-04-18T16:17:35.999Z</time></trkpt><trkpt lat="43.54235508982632" lon="12.100019882622085"><ele>307.0</ele><time>2026-04-18T16:17:36.999Z</time></trkpt><trkpt lat="43.54210895370752" lon="12.099893095499626"><ele>307.5</ele><time>2026-04-18T16:17:37.999Z</time></trkpt><trkpt lat="43.54186214437678" lon="12.09976317221948"><ele>308.0</ele><time>2026-04-18T16:17:38.999Z</time></trkpt><trkpt lat="43.541616298469066" lon="12.099631591676214"><ele>308.0</ele><time>2026-04-18T16:17:39.999Z</time></trkpt><trkpt lat="43.54136964427281" lon="12.099500517106184"><ele>308.0</ele><time>2026-04-18T16:17:40.999Z</time></trkpt><trkpt lat="43.541124927710534" lon="12.099372125919583"><ele>308.0</ele><time>2026-04-18T16:17:41.999Z</time></trkpt><trkpt lat="43.540880479104544" lon="12.099245465514292"><ele>308.0</ele><time>2026-04-18T16:17:42.999Z</time></trkpt><trkpt lat="43.54064704534519" lon="12.09912800295355"><ele>308.0</ele><time>2026-04-18T16:17:43.999Z</time></trkpt><trkpt lat="43.54042775788768" lon="12.09901574925748"><ele>308.0</ele><time>2026-04-18T16:17:44.999Z</time></trkpt><trkpt lat="43.540217895129615" lon="12.098909369403087"><ele>308.33333333333337</ele><time>2026-04-18T16:17:45.999Z</time></trkpt><trkpt lat="43.54001223050041" lon="12.098802522377559"><ele>308.6666666666667</ele><time>2026-04-18T16:17:47Z</time></trkpt><trkpt lat="43.53981053975249" lon="12.098695770560218"><ele>309.0</ele><time>2026-04-18T16:17:48Z</time></trkpt><trkpt lat="43.53961509349918" lon="12.098582463188485"><ele>309.0</ele><time>2026-04-18T16:17:49Z</time></trkpt><trkpt lat="43.5394210656661" lon="12.098454057739591"><ele>309.0</ele><time>2026-04-18T16:17:50Z</time></trkpt><trkpt lat="43.53924295092411" lon="12.098291163926568"><ele>309.0</ele><time>2026-04-18T16:17:51Z</time></trkpt><trkpt lat="43.53907389823111" lon="12.098103946759544"><ele>309.0</ele><time>2026-04-18T16:17:52Z</time></trkpt><trkpt lat="43.538916360974966" lon="12.097901280732147"><ele>309.0</ele><time>2026-04-18T16:17:53Z</time></trkpt><trkpt lat="43.53876157211925" lon="12.097685906192275"><ele>309.0</ele><time>2026-04-18T16:17:54Z</time></trkpt><trkpt lat="43.53860284860668" lon="12.097476614853038"><ele>309.3333333333333</ele><time>2026-04-18T16:17:55Z</time></trkpt><trkpt lat="43.53844309662636" lon="12.097264804638781"><ele>309.66666666666663</ele><time>2026-04-18T16:17:56Z</time></trkpt><trkpt lat="43.538282154591414" lon="12.09705327704026"><ele>310.0</ele><time>2026-04-18T16:17:57Z</time></trkpt><trkpt lat="43.53812082917008" lon="12.096838451853959"><ele>310.0</ele><time>2026-04-18T16:17:58Z</time></trkpt><trkpt lat="43.53796069844531" lon="12.096625137390896"><ele>310.0</ele><time>2026-04-18T16:17:59Z</time></trkpt><trkpt lat="43.5377988564489" lon="12.09641060185706"><ele>310.0</ele><time>2026-04-18T16:18:00Z</time></trkpt><trkpt lat="43.53763841442527" lon="12.096193703990528"><ele>309.66666666666663</ele><time>2026-04-18T16:18:01Z</time></trkpt><trkpt lat="43.53747618458759" lon="12.095979718325195"><ele>309.3333333333333</ele><time>2026-04-18T16:18:02Z</time></trkpt><trkpt lat="43.53731311803522" lon="12.095769005597674"><ele>309.0</ele><time>2026-04-18T16:18:03Z</time></trkpt><trkpt lat="43.53714884876628" lon="12.095554461996622"><ele>309.0</ele><time>2026-04-18T16:18:04Z</time></trkpt><trkpt lat="43.536988877770696" lon="12.095343289763571"><ele>309.0</ele><time>2026-04-18T16:18:05Z</time></trkpt><trkpt lat="43.5368287290128" lon="12.095128686512302"><ele>309.0</ele><time>2026-04-18T16:18:06Z</time></trkpt><trkpt lat="43.53667221972667" lon="12.094916692133163"><ele>309.0</ele><time>2026-04-18T16:18:07Z</time></trkpt><trkpt lat="43.53652335749886" lon="12.094717543255596"><ele>309.0</ele><time>2026-04-18T16:18:08Z</time></trkpt><trkpt lat="43.53638188650822" lon="12.094529768355573"><ele>309.0</ele><time>2026-04-18T16:18:09Z</time></trkpt><trkpt lat="43.536250646097145" lon="12.094349365893866"><ele>309.6666666666667</ele><time>2026-04-18T16:18:10Z</time></trkpt><trkpt lat="43.5361219867286" lon="12.09416579903649"><ele>310.33333333333337</ele><time>2026-04-18T16:18:11Z</time></trkpt><trkpt lat="43.5359983804416" lon="12.093965934180757"><ele>311.0</ele><time>2026-04-18T16:18:12Z</time></trkpt><trkpt lat="43.5358747757964" lon="12.093759351440363"><ele>311.0</ele><time>2026-04-18T16:18:13Z</time></trkpt><trkpt lat="43.53575500764011" lon="12.093546052942042"><ele>311.0</ele><time>2026-04-18T16:18:14Z</time></trkpt><trkpt lat="43.535631274889795" lon="12.093333612955076"><ele>311.0</ele><time>2026-04-18T16:18:15Z</time></trkpt><trkpt lat="43.53550612499422" lon="12.093122714552887"><ele>313.6666666666667</ele><time>2026-04-18T16:18:16Z</time></trkpt><trkpt lat="43.535385235009926" lon="12.092912785760511"><ele>316.3333333333333</ele><time>2026-04-18T16:18:17Z</time></trkpt><trkpt lat="43.53526559347567" lon="12.092708003239968"><ele>319.0</ele><time>2026-04-18T16:18:18Z</time></trkpt><trkpt lat="43.53513645767511" lon="12.092523788029885"><ele>318.66666666666663</ele><time>2026-04-18T16:18:19Z</time></trkpt><trkpt lat="43.534994812430405" lon="12.092376115286521"><ele>318.3333333333333</ele><time>2026-04-18T16:18:20Z</time></trkpt><trkpt lat="43.53485522598379" lon="12.092263914536883"><ele>318.0</ele><time>2026-04-18T16:18:21Z</time></trkpt><trkpt lat="43.534725136220636" lon="12.09216182640658"><ele>318.0</ele><time>2026-04-18T16:18:22Z</time></trkpt><trkpt lat="43.53460769519979" lon="12.092063142295052"><ele>318.0</ele><time>2026-04-18T16:18:23Z</time></trkpt><trkpt lat="43.534497867921004" lon="12.091960578935515"><ele>318.0</ele><time>2026-04-18T16:18:24Z</time></trkpt><trkpt lat="43.534383895736646" lon="12.091860773047923"><ele>318.0</ele><time>2026-04-18T16:18:25Z</time></trkpt><trkpt lat="43.53426239643897" lon="12.091760089749648"><ele>319.3333333333333</ele><time>2026-04-18T16:18:26Z</time></trkpt><trkpt lat="43.5341388678792" lon="12.091653434732898"><ele>320.66666666666663</ele><time>2026-04-18T16:18:27Z</time></trkpt><trkpt lat="43.53401129094068" lon="12.091543012468582"><ele>322.0</ele><time>2026-04-18T16:18:28Z</time></trkpt><trkpt lat="43.533880554699266" lon="12.091430144813854"><ele>322.0</ele><time>2026-04-18T16:18:29Z</time></trkpt><trkpt lat="43.53374720208076" lon="12.091309930865417"><ele>322.0</ele><time>2026-04-18T16:18:30Z</time></trkpt><trkpt lat="43.53361284604501" lon="12.091199740390252"><ele>322.0</ele><time>2026-04-18T16:18:31Z</time></trkpt><trkpt lat="43.533479877516534" lon="12.091091646858372"><ele>321.66666666666663</ele><time>2026-04-18T16:18:32Z</time></trkpt><trkpt lat="43.53333521143025" lon="12.090952703826218"><ele>321.3333333333333</ele><time>2026-04-18T16:18:33Z</time></trkpt><trkpt lat="43.53319112706797" lon="12.090819388154525"><ele>321.0</ele><time>2026-04-18T16:18:34Z</time></trkpt><trkpt lat="43.533046891510125" lon="12.090686011284303"><ele>320.5</ele><time>2026-04-18T16:18:35Z</time></trkpt><trkpt lat="43.53290880462355" lon="12.09055961819466"><ele>320.0</ele><time>2026-04-18T16:18:36Z</time></trkpt><trkpt lat="43.532787565499405" lon="12.090451782048035"><ele>319.5</ele><time>2026-04-18T16:18:37Z</time></trkpt><trkpt lat="43.53270481324795" lon="12.090363520968234"><ele>319.0</ele><time>2026-04-18T16:18:38Z</time></trkpt><trkpt lat="43.532631592539765" lon="12.090299549698042"><ele>318.75</ele><time>2026-04-18T16:18:39Z</time></trkpt><trkpt lat="43.53254969592193" lon="12.090240038113382"><ele>318.5</ele><time>2026-04-18T16:18:40Z</time></trkpt><trkpt lat="43.53245191457986" lon="12.09016440107486"><ele>318.25</ele><time>2026-04-18T16:18:41Z</time></trkpt><trkpt lat="43.53234164942609" lon="12.090068379480348"><ele>318.0</ele><time>2026-04-18T16:18:42Z</time></trkpt><trkpt lat="43.53221803349448" lon="12.089951030539025"><ele>318.3333333333333</ele><time>2026-04-18T16:18:42.999Z</time></trkpt><trkpt lat="43.5320842109123" lon="12.089819644859377"><ele>318.66666666666663</ele><time>2026-04-18T16:18:43.999Z</time></trkpt><trkpt lat="43.5319311421337" lon="12.08968423507495"><ele>319.0</ele><time>2026-04-18T16:18:44.999Z</time></trkpt><trkpt lat="43.53178102472145" lon="12.089549666273657"><ele>319.0</ele><time>2026-04-18T16:18:45.999Z</time></trkpt><trkpt lat="43.531621319604895" lon="12.089409487765167"><ele>319.0</ele><time>2026-04-18T16:18:46.999Z</time></trkpt><trkpt lat="43.53144888106029" lon="12.089259128534138"><ele>319.0</ele><time>2026-04-18T16:18:47.999Z</time></trkpt><trkpt lat="43.531266148441546" lon="12.089099531177842"><ele>319.0</ele><time>2026-04-18T16:18:48.999Z</time></trkpt><trkpt lat="43.53109128317472" lon="12.088943714631561"><ele>319.0</ele><time>2026-04-18T16:18:49.999Z</time></trkpt><trkpt lat="43.53091748985341" lon="12.088777736667247"><ele>319.0</ele><time>2026-04-18T16:18:50.999Z</time></trkpt><trkpt lat="43.53076987916817" lon="12.088562577054635"><ele>319.0</ele><time>2026-04-18T16:18:51.999Z</time></trkpt><trkpt lat="43.5306064911062" lon="12.088359027893503"><ele>319.0</ele><time>2026-04-18T16:18:52.999Z</time></trkpt><trkpt lat="43.53047167223322" lon="12.088104824624192"><ele>319.0</ele><time>2026-04-18T16:18:53.999Z</time></trkpt><trkpt lat="43.53034894504345" lon="12.087820713084545"><ele>320.5</ele><time>2026-04-18T16:18:54.999Z</time></trkpt><trkpt lat="43.530246783513924" lon="12.087507267182271"><ele>322.0</ele><time>2026-04-18T16:18:55.999Z</time></trkpt><trkpt lat="43.530194627274554" lon="12.08715860969919"><ele>323.5</ele><time>2026-04-18T16:18:56.999Z</time></trkpt><trkpt lat="43.53014584984637" lon="12.086798322354424"><ele>325.0</ele><time>2026-04-18T16:18:57.999Z</time></trkpt><trkpt lat="43.53011399034543" lon="12.086417847887043"><ele>328.0</ele><time>2026-04-18T16:18:58.999Z</time></trkpt><trkpt lat="43.530085304752646" lon="12.086018792666284"><ele>331.0</ele><time>2026-04-18T16:18:59.999Z</time></trkpt><trkpt lat="43.53005704773195" lon="12.08562400133718"><ele>333.5</ele><time>2026-04-18T16:19:00.999Z</time></trkpt><trkpt lat="43.53002831464944" lon="12.08522477452306"><ele>336.0</ele><time>2026-04-18T16:19:01.999Z</time></trkpt><trkpt lat="43.52998498037607" lon="12.084823297963288"><ele>338.5</ele><time>2026-04-18T16:19:02.999Z</time></trkpt><trkpt lat="43.52996295421359" lon="12.084411602870203"><ele>341.0</ele><time>2026-04-18T16:19:03.999Z</time></trkpt><trkpt lat="43.529933287497975" lon="12.08400104358839"><ele>345.5</ele><time>2026-04-18T16:19:04.999Z</time></trkpt><trkpt lat="43.529899222859314" lon="12.083587659562838"><ele>350.0</ele><time>2026-04-18T16:19:05.999Z</time></trkpt><trkpt lat="43.52988326976271" lon="12.083167073463482"><ele>352.5</ele><time>2026-04-18T16:19:06.999Z</time></trkpt><trkpt lat="43.52985315851403" lon="12.082743768324633"><ele>355.0</ele><time>2026-04-18T16:19:07.999Z</time></trkpt><trkpt lat="43.52982251495866" lon="12.082312797388951"><ele>355.0</ele><time>2026-04-18T16:19:08.999Z</time></trkpt><trkpt lat="43.529791239332624" lon="12.081877196853625"><ele>355.0</ele><time>2026-04-18T16:19:09.999Z</time></trkpt><trkpt lat="43.52974523569325" lon="12.081449548657032"><ele>355.0</ele><time>2026-04-18T16:19:10.999Z</time></trkpt><trkpt lat="43.52971808012333" lon="12.081026221159995"><ele>355.0</ele><time>2026-04-18T16:19:11.999Z</time></trkpt><trkpt lat="43.529688463387416" lon="12.080618139096888"><ele>361.0</ele><time>2026-04-18T16:19:12.999Z</time></trkpt><trkpt lat="43.529663244674495" lon="12.080237079000408"><ele>367.0</ele><time>2026-04-18T16:19:13.999Z</time></trkpt><trkpt lat="43.52964233536274" lon="12.079873461296367"><ele>369.0</ele><time>2026-04-18T16:19:14.999Z</time></trkpt><trkpt lat="43.52961817418574" lon="12.07954815614076"><ele>371.0</ele><time>2026-04-18T16:19:15.999Z</time></trkpt><trkpt lat="43.52958732360622" lon="12.079237788442128"><ele>374.0</ele><time>2026-04-18T16:19:16.999Z</time></trkpt><trkpt lat="43.529537112172505" lon="12.078933459188265"><ele>377.0</ele><time>2026-04-18T16:19:17.999Z</time></trkpt><trkpt lat="43.529461564414234" lon="12.078641406090515"><ele>377.0</ele><time>2026-04-18T16:19:18.999Z</time></trkpt><trkpt lat="43.5293556129071" lon="12.07837290600113"><ele>377.0</ele><time>2026-04-18T16:19:19.999Z</time></trkpt><trkpt lat="43.52920851512362" lon="12.0781284150642"><ele>377.5</ele><time>2026-04-18T16:19:20.999Z</time></trkpt><trkpt lat="43.52903183072149" lon="12.07790148013136"><ele>378.0</ele><time>2026-04-18T16:19:21.999Z</time></trkpt><trkpt lat="43.528853909855385" lon="12.077699390893516"><ele>378.5</ele><time>2026-04-18T16:19:22.999Z</time></trkpt><trkpt lat="43.52863975965984" lon="12.07753701301734"><ele>379.0</ele><time>2026-04-18T16:19:23.999Z</time></trkpt><trkpt lat="43.528408134714425" lon="12.077416001647094"><ele>376.5</ele><time>2026-04-18T16:19:24.999Z</time></trkpt><trkpt lat="43.5281628537438" lon="12.077339719114542"><ele>374.0</ele><time>2026-04-18T16:19:25.999Z</time></trkpt><trkpt lat="43.52791138791399" lon="12.077312009115426"><ele>372.0</ele><time>2026-04-18T16:19:26.999Z</time></trkpt><trkpt lat="43.52765788760973" lon="12.077333927773442"><ele>370.0</ele><time>2026-04-18T16:19:27.999Z</time></trkpt><trkpt lat="43.52740662813825" lon="12.077394034488142"><ele>370.5</ele><time>2026-04-18T16:19:28.999Z</time></trkpt><trkpt lat="43.52716180168592" lon="12.077465465574306"><ele>371.0</ele><time>2026-04-18T16:19:29.999Z</time></trkpt><trkpt lat="43.526913212990074" lon="12.077526450966914"><ele>371.0</ele><time>2026-04-18T16:19:30.999Z</time></trkpt><trkpt lat="43.52666104699966" lon="12.077579751652166"><ele>371.0</ele><time>2026-04-18T16:19:31.999Z</time></trkpt><trkpt lat="43.52641109085986" lon="12.07762712706311"><ele>368.5</ele><time>2026-04-18T16:19:32.999Z</time></trkpt><trkpt lat="43.526160795398994" lon="12.077682978988975"><ele>366.0</ele><time>2026-04-18T16:19:33.999Z</time></trkpt><trkpt lat="43.52590975867447" lon="12.077738894782186"><ele>366.0</ele><time>2026-04-18T16:19:34.999Z</time></trkpt><trkpt lat="43.52565735512898" lon="12.077791723954494"><ele>366.0</ele><time>2026-04-18T16:19:35.999Z</time></trkpt><trkpt lat="43.525403999773516" lon="12.077847686301675"><ele>363.5</ele><time>2026-04-18T16:19:36.999Z</time></trkpt><trkpt lat="43.52515192953574" lon="12.077903695565869"><ele>361.0</ele><time>2026-04-18T16:19:37.999Z</time></trkpt><trkpt lat="43.52490194555939" lon="12.077960980876304"><ele>361.0</ele><time>2026-04-18T16:19:38.999Z</time></trkpt><trkpt lat="43.524651738076415" lon="12.078017583540639"><ele>361.0</ele><time>2026-04-18T16:19:39.999Z</time></trkpt><trkpt lat="43.52440180224256" lon="12.078074315849094"><ele>359.0</ele><time>2026-04-18T16:19:40.999Z</time></trkpt><trkpt lat="43.52415313773651" lon="12.078127970766323"><ele>357.0</ele><time>2026-04-18T16:19:41.999Z</time></trkpt><trkpt lat="43.52390811772621" lon="12.078178283476637"><ele>356.0</ele><time>2026-04-18T16:19:42.999Z</time></trkpt><trkpt lat="43.5236636866893" lon="12.078232764558324"><ele>355.0</ele><time>2026-04-18T16:19:43.999Z</time></trkpt><trkpt lat="43.523416440237376" lon="12.078288150861757"><ele>355.0</ele><time>2026-04-18T16:19:44.999Z</time></trkpt><trkpt lat="43.523166806119804" lon="12.078340337730236"><ele>355.0</ele><time>2026-04-18T16:19:45.999Z</time></trkpt><trkpt lat="43.522918409883665" lon="12.078393206238898"><ele>352.5</ele><time>2026-04-18T16:19:46.999Z</time></trkpt><trkpt lat="43.522671155727274" lon="12.078445830948667"><ele>350.0</ele><time>2026-04-18T16:19:47.999Z</time></trkpt><trkpt lat="43.522424009419225" lon="12.078500579154486"><ele>350.0</ele><time>2026-04-18T16:19:48.999Z</time></trkpt><trkpt lat="43.52217774784494" lon="12.07855177976415"><ele>350.0</ele><time>2026-04-18T16:19:49.999Z</time></trkpt><trkpt lat="43.52192742072351" lon="12.0786063977213"><ele>347.0</ele><time>2026-04-18T16:19:50.999Z</time></trkpt><trkpt lat="43.52167747536955" lon="12.078660568370184"><ele>344.0</ele><time>2026-04-18T16:19:52Z</time></trkpt><trkpt lat="43.5214257230878" lon="12.07871351600719"><ele>343.5</ele><time>2026-04-18T16:19:53Z</time></trkpt><trkpt lat="43.52117493935328" lon="12.078770118035072"><ele>343.0</ele><time>2026-04-18T16:19:54Z</time></trkpt><trkpt lat="43.520921698940526" lon="12.078823872068563"><ele>343.0</ele><time>2026-04-18T16:19:55Z</time></trkpt><trkpt lat="43.520669719470426" lon="12.078878400488213"><ele>343.0</ele><time>2026-04-18T16:19:56Z</time></trkpt><trkpt lat="43.52041643288221" lon="12.07893048484064"><ele>346.0</ele><time>2026-04-18T16:19:57Z</time></trkpt><trkpt lat="43.520161897616774" lon="12.078983812699292"><ele>349.0</ele><time>2026-04-18T16:19:58Z</time></trkpt><trkpt lat="43.519904371637416" lon="12.079044749864421"><ele>349.0</ele><time>2026-04-18T16:19:59Z</time></trkpt><trkpt lat="43.51965234815815" lon="12.079096711305048"><ele>349.0</ele><time>2026-04-18T16:20:00Z</time></trkpt><trkpt lat="43.51940234242972" lon="12.079147919046845"><ele>344.0</ele><time>2026-04-18T16:20:01Z</time></trkpt><trkpt lat="43.51915631942406" lon="12.079198941926325"><ele>339.0</ele><time>2026-04-18T16:20:02Z</time></trkpt><trkpt lat="43.51891298479662" lon="12.079255609734192"><ele>343.5</ele><time>2026-04-18T16:20:03Z</time></trkpt><trkpt lat="43.518679947999445" lon="12.079338097064879"><ele>348.0</ele><time>2026-04-18T16:20:04Z</time></trkpt><trkpt lat="43.51845563179023" lon="12.07945980554052"><ele>348.0</ele><time>2026-04-18T16:20:05Z</time></trkpt><trkpt lat="43.518242917927495" lon="12.07961880813654"><ele>348.0</ele><time>2026-04-18T16:20:06Z</time></trkpt><trkpt lat="43.518045595848754" lon="12.079810224931487"><ele>351.0</ele><time>2026-04-18T16:20:07Z</time></trkpt><trkpt lat="43.5178587354161" lon="12.080023279504223"><ele>354.0</ele><time>2026-04-18T16:20:08Z</time></trkpt><trkpt lat="43.51768123718713" lon="12.08024165803577"><ele>354.0</ele><time>2026-04-18T16:20:09Z</time></trkpt><trkpt lat="43.517502084231204" lon="12.0804614550217"><ele>354.0</ele><time>2026-04-18T16:20:10Z</time></trkpt><trkpt lat="43.51732454277106" lon="12.08067431765582"><ele>354.0</ele><time>2026-04-18T16:20:11Z</time></trkpt><trkpt lat="43.51715154294769" lon="12.080874881865213"><ele>354.0</ele><time>2026-04-18T16:20:12Z</time></trkpt><trkpt lat="43.51698928185766" lon="12.081070382302265"><ele>354.0</ele><time>2026-04-18T16:20:13Z</time></trkpt><trkpt lat="43.51684369295524" lon="12.081242196023783"><ele>354.0</ele><time>2026-04-18T16:20:14Z</time></trkpt><trkpt lat="43.516711655602954" lon="12.081392594132083"><ele>354.0</ele><time>2026-04-18T16:20:15Z</time></trkpt><trkpt lat="43.51659011388457" lon="12.081516162211646"><ele>354.0</ele><time>2026-04-18T16:20:16Z</time></trkpt><trkpt lat="43.516477386812056" lon="12.081616116967627"><ele>353.6</ele><time>2026-04-18T16:20:17Z</time></trkpt><trkpt lat="43.516372969021695" lon="12.081694032604759"><ele>353.2</ele><time>2026-04-18T16:20:18Z</time></trkpt><trkpt lat="43.51627265580933" lon="12.08174485197262"><ele>352.8</ele><time>2026-04-18T16:20:19Z</time></trkpt><trkpt lat="43.51616943442307" lon="12.081745559187613"><ele>352.40000000000003</ele><time>2026-04-18T16:20:20Z</time></trkpt><trkpt lat="43.51607182591001" lon="12.081684386536503"><ele>352.0</ele><time>2026-04-18T16:20:21Z</time></trkpt><trkpt lat="43.51598262299951" lon="12.081625913818687"><ele>352.0</ele><time>2026-04-18T16:20:22Z</time></trkpt><trkpt lat="43.515879540065434" lon="12.081617892205353"><ele>352.0</ele><time>2026-04-18T16:20:23Z</time></trkpt><trkpt lat="43.5157746669273" lon="12.081674252644488"><ele>352.0</ele><time>2026-04-18T16:20:24Z</time></trkpt><trkpt lat="43.5156668929884" lon="12.081773405067798"><ele>352.0</ele><time>2026-04-18T16:20:25Z</time></trkpt><trkpt lat="43.51553985960872" lon="12.081869144349294"><ele>350.66666666666663</ele><time>2026-04-18T16:20:26Z</time></trkpt><trkpt lat="43.515370913692614" lon="12.081909064741529"><ele>349.3333333333333</ele><time>2026-04-18T16:20:27Z</time></trkpt><trkpt lat="43.5151919643204" lon="12.081929308876028"><ele>348.0</ele><time>2026-04-18T16:20:28Z</time></trkpt><trkpt lat="43.51500426662986" lon="12.081915797488126"><ele>348.0</ele><time>2026-04-18T16:20:29Z</time></trkpt><trkpt lat="43.514798075333985" lon="12.081912042224053"><ele>348.0</ele><time>2026-04-18T16:20:30Z</time></trkpt><trkpt lat="43.514582495033714" lon="12.081911608694005"><ele>348.0</ele><time>2026-04-18T16:20:31Z</time></trkpt><trkpt lat="43.51437358802191" lon="12.081903674518161"><ele>345.0</ele><time>2026-04-18T16:20:32Z</time></trkpt><trkpt lat="43.51416824202611" lon="12.08190461975155"><ele>342.0</ele><time>2026-04-18T16:20:33Z</time></trkpt><trkpt lat="43.513967086758846" lon="12.081927637253173"><ele>339.0</ele><time>2026-04-18T16:20:34Z</time></trkpt><trkpt lat="43.51376464340611" lon="12.081986972734915"><ele>338.0</ele><time>2026-04-18T16:20:35Z</time></trkpt><trkpt lat="43.51357034164825" lon="12.082088459098873"><ele>337.0</ele><time>2026-04-18T16:20:36Z</time></trkpt><trkpt lat="43.513385323254994" lon="12.082226704610683"><ele>336.0</ele><time>2026-04-18T16:20:37Z</time></trkpt><trkpt lat="43.51321388123462" lon="12.08240895164833"><ele>336.0</ele><time>2026-04-18T16:20:38Z</time></trkpt><trkpt lat="43.51304285204817" lon="12.082584716506211"><ele>336.0</ele><time>2026-04-18T16:20:39Z</time></trkpt><trkpt lat="43.51288460663798" lon="12.08280121609747"><ele>336.0</ele><time>2026-04-18T16:20:40Z</time></trkpt><trkpt lat="43.51272534900233" lon="12.083023807303"><ele>336.0</ele><time>2026-04-18T16:20:41Z</time></trkpt><trkpt lat="43.51256262307089" lon="12.083248728654327"><ele>336.0</ele><time>2026-04-18T16:20:42Z</time></trkpt><trkpt lat="43.51239173517861" lon="12.083471097378823"><ele>331.5</ele><time>2026-04-18T16:20:43Z</time></trkpt><trkpt lat="43.51222134592168" lon="12.083695599798814"><ele>327.0</ele><time>2026-04-18T16:20:44Z</time></trkpt><trkpt lat="43.512038139944664" lon="12.083922775655331"><ele>322.0</ele><time>2026-04-18T16:20:45Z</time></trkpt><trkpt lat="43.51184154192786" lon="12.08411785568446"><ele>317.0</ele><time>2026-04-18T16:20:46Z</time></trkpt><trkpt lat="43.51162356961268" lon="12.084270776218364"><ele>317.0</ele><time>2026-04-18T16:20:47Z</time></trkpt><trkpt lat="43.5113882511252" lon="12.084377909903965"><ele>317.0</ele><time>2026-04-18T16:20:48Z</time></trkpt><trkpt lat="43.511148770414835" lon="12.084458119539955"><ele>314.0</ele><time>2026-04-18T16:20:49Z</time></trkpt><trkpt lat="43.510904756085615" lon="12.084475737347367"><ele>311.0</ele><time>2026-04-18T16:20:50Z</time></trkpt><trkpt lat="43.510657600403945" lon="12.084459169350659"><ele>311.0</ele><time>2026-04-18T16:20:51Z</time></trkpt><trkpt lat="43.51041075441602" lon="12.084421742731859"><ele>311.0</ele><time>2026-04-18T16:20:52Z</time></trkpt><trkpt lat="43.510162498451336" lon="12.084392067867595"><ele>311.0</ele><time>2026-04-18T16:20:53Z</time></trkpt><trkpt lat="43.50991183122104" lon="12.084347218463591"><ele>311.0</ele><time>2026-04-18T16:20:54Z</time></trkpt><trkpt lat="43.509656865581896" lon="12.084302209244493"><ele>310.5</ele><time>2026-04-18T16:20:55Z</time></trkpt><trkpt lat="43.509400135042384" lon="12.084248981754671"><ele>310.0</ele><time>2026-04-18T16:20:56Z</time></trkpt><trkpt lat="43.509144490189605" lon="12.084170845671157"><ele>310.0</ele><time>2026-04-18T16:20:57Z</time></trkpt><trkpt lat="43.508890086698436" lon="12.084070253545576"><ele>310.0</ele><time>2026-04-18T16:20:58Z</time></trkpt><trkpt lat="43.50863504092003" lon="12.083966080722265"><ele>310.0</ele><time>2026-04-18T16:20:59Z</time></trkpt><trkpt lat="43.508377644073825" lon="12.083869668888802"><ele>310.0</ele><time>2026-04-18T16:21:00Z</time></trkpt><trkpt lat="43.50811778693012" lon="12.08377419765383"><ele>309.0</ele><time>2026-04-18T16:21:01Z</time></trkpt><trkpt lat="43.50785542943361" lon="12.083675387723517"><ele>308.0</ele><time>2026-04-18T16:21:02Z</time></trkpt><trkpt lat="43.5075925799889" lon="12.083575369602222"><ele>308.0</ele><time>2026-04-18T16:21:03Z</time></trkpt><trkpt lat="43.50732754526772" lon="12.083475993888557"><ele>308.0</ele><time>2026-04-18T16:21:04Z</time></trkpt><trkpt lat="43.507061370473174" lon="12.083375120121346"><ele>308.0</ele><time>2026-04-18T16:21:05Z</time></trkpt><trkpt lat="43.5067931671445" lon="12.083273798189968"><ele>308.0</ele><time>2026-04-18T16:21:06Z</time></trkpt><trkpt lat="43.506525008825065" lon="12.083171659202998"><ele>308.5</ele><time>2026-04-18T16:21:07Z</time></trkpt><trkpt lat="43.506256500937056" lon="12.08306833415295"><ele>309.0</ele><time>2026-04-18T16:21:08Z</time></trkpt><trkpt lat="43.505987628174864" lon="12.08296338926081"><ele>309.5</ele><time>2026-04-18T16:21:09Z</time></trkpt><trkpt lat="43.50571852495676" lon="12.082862846260195"><ele>310.0</ele><time>2026-04-18T16:21:10Z</time></trkpt><trkpt lat="43.50544817887053" lon="12.082761235989487"><ele>310.0</ele><time>2026-04-18T16:21:11Z</time></trkpt><trkpt lat="43.50517818847998" lon="12.082659243661176"><ele>310.0</ele><time>2026-04-18T16:21:12Z</time></trkpt><trkpt lat="43.50490851250237" lon="12.082556931833736"><ele>310.0</ele><time>2026-04-18T16:21:13Z</time></trkpt><trkpt lat="43.50463701802233" lon="12.08245500199145"><ele>310.0</ele><time>2026-04-18T16:21:13.999Z</time></trkpt><trkpt lat="43.5043655265682" lon="12.082351272087855"><ele>309.5</ele><time>2026-04-18T16:21:14.999Z</time></trkpt><trkpt lat="43.50409163469712" lon="12.082246193229917"><ele>309.0</ele><time>2026-04-18T16:21:15.999Z</time></trkpt><trkpt lat="43.50382385292461" lon="12.082143675355196"><ele>309.0</ele><time>2026-04-18T16:21:16.999Z</time></trkpt><trkpt lat="43.5035715823374" lon="12.082045736054877"><ele>309.0</ele><time>2026-04-18T16:21:17.999Z</time></trkpt><trkpt lat="43.50333495830301" lon="12.081955439201309"><ele>309.0</ele><time>2026-04-18T16:21:18.999Z</time></trkpt><trkpt lat="43.50311949571015" lon="12.08187819378181"><ele>309.0</ele><time>2026-04-18T16:21:19.999Z</time></trkpt><trkpt lat="43.50291646550621" lon="12.081824832921637"><ele>309.0</ele><time>2026-04-18T16:21:20.999Z</time></trkpt><trkpt lat="43.50271849228699" lon="12.081801447640464"><ele>309.6666666666667</ele><time>2026-04-18T16:21:21.999Z</time></trkpt><trkpt lat="43.502533914474014" lon="12.081812676955543"><ele>310.33333333333337</ele><time>2026-04-18T16:21:22.999Z</time></trkpt><trkpt lat="43.50236375015556" lon="12.081843863987407"><ele>311.0</ele><time>2026-04-18T16:21:23.999Z</time></trkpt><trkpt lat="43.502207006300964" lon="12.081888889434655"><ele>311.0</ele><time>2026-04-18T16:21:24.999Z</time></trkpt><trkpt lat="43.50205735613197" lon="12.08194842249638"><ele>311.0</ele><time>2026-04-18T16:21:25.999Z</time></trkpt><trkpt lat="43.50191943066558" lon="12.081999153249232"><ele>311.0</ele><time>2026-04-18T16:21:26.999Z</time></trkpt><trkpt lat="43.50179859648703" lon="12.082073624614653"><ele>311.0</ele><time>2026-04-18T16:21:27.999Z</time></trkpt><trkpt lat="43.50168563936204" lon="12.082150230778483"><ele>311.0</ele><time>2026-04-18T16:21:28.999Z</time></trkpt><trkpt lat="43.50158182494137" lon="12.082252296876293"><ele>311.0</ele><time>2026-04-18T16:21:29.999Z</time></trkpt><trkpt lat="43.501461880776276" lon="12.082341391171733"><ele>311.0</ele><time>2026-04-18T16:21:30.999Z</time></trkpt><trkpt lat="43.50133398392662" lon="12.082468371460756"><ele>311.0</ele><time>2026-04-18T16:21:31.999Z</time></trkpt><trkpt lat="43.50121161380851" lon="12.08263214012941"><ele>314.0</ele><time>2026-04-18T16:21:32.999Z</time></trkpt><trkpt lat="43.501073155819824" lon="12.082800188538611"><ele>317.0</ele><time>2026-04-18T16:21:33.999Z</time></trkpt><trkpt lat="43.50093954794138" lon="12.08299457129421"><ele>320.0</ele><time>2026-04-18T16:21:34.999Z</time></trkpt><trkpt lat="43.50079521318103" lon="12.08320183222072"><ele>320.0</ele><time>2026-04-18T16:21:35.999Z</time></trkpt><trkpt lat="43.500654181891605" lon="12.083404116719759"><ele>320.0</ele><time>2026-04-18T16:21:36.999Z</time></trkpt><trkpt lat="43.500501092525234" lon="12.083623535654164"><ele>320.0</ele><time>2026-04-18T16:21:37.999Z</time></trkpt><trkpt lat="43.50035367535545" lon="12.083834824779268"><ele>327.5</ele><time>2026-04-18T16:21:38.999Z</time></trkpt><trkpt lat="43.50016831584384" lon="12.084100495549126"><ele>335.0</ele><time>2026-04-18T16:21:39.999Z</time></trkpt><trkpt lat="43.500013102960686" lon="12.084319506415037"><ele>335.0</ele><time>2026-04-18T16:21:40.999Z</time></trkpt><trkpt lat="43.499847998797954" lon="12.084523112129489"><ele>335.0</ele><time>2026-04-18T16:21:41.999Z</time></trkpt><trkpt lat="43.49966875224438" lon="12.084690132611916"><ele>335.0</ele><time>2026-04-18T16:21:42.999Z</time></trkpt><trkpt lat="43.499474899736434" lon="12.084836755709523"><ele>335.33333333333337</ele><time>2026-04-18T16:21:43.999Z</time></trkpt><trkpt lat="43.49926763418913" lon="12.084945762507294"><ele>335.6666666666667</ele><time>2026-04-18T16:21:44.999Z</time></trkpt><trkpt lat="43.49905814254866" lon="12.084999223831167"><ele>336.0</ele><time>2026-04-18T16:21:45.999Z</time></trkpt><trkpt lat="43.498845458966294" lon="12.08500912604785"><ele>337.6666666666667</ele><time>2026-04-18T16:21:46.999Z</time></trkpt><trkpt lat="43.49862608249117" lon="12.084987255412685"><ele>339.33333333333337</ele><time>2026-04-18T16:21:47.999Z</time></trkpt><trkpt lat="43.498405004241135" lon="12.084929620034508"><ele>341.0</ele><time>2026-04-18T16:21:48.999Z</time></trkpt><trkpt lat="43.49819275243547" lon="12.08483960921862"><ele>343.0</ele><time>2026-04-18T16:21:49.999Z</time></trkpt><trkpt lat="43.49797730742132" lon="12.084740070731067"><ele>345.0</ele><time>2026-04-18T16:21:50.999Z</time></trkpt><trkpt lat="43.49776050571959" lon="12.084639578939486"><ele>345.0</ele><time>2026-04-18T16:21:51.999Z</time></trkpt><trkpt lat="43.49754790766176" lon="12.084531161887941"><ele>345.0</ele><time>2026-04-18T16:21:52.999Z</time></trkpt><trkpt lat="43.49733973809401" lon="12.084389459846676"><ele>345.0</ele><time>2026-04-18T16:21:53.999Z</time></trkpt><trkpt lat="43.49714343112733" lon="12.084216595564808"><ele>345.0</ele><time>2026-04-18T16:21:54.999Z</time></trkpt><trkpt lat="43.49694617404253" lon="12.08403601787087"><ele>340.0</ele><time>2026-04-18T16:21:55.999Z</time></trkpt><trkpt lat="43.49674048146921" lon="12.083849773260907"><ele>335.0</ele><time>2026-04-18T16:21:56.999Z</time></trkpt><trkpt lat="43.4965374841335" lon="12.083668175332098"><ele>335.0</ele><time>2026-04-18T16:21:58Z</time></trkpt><trkpt lat="43.49632433616473" lon="12.08350392245041"><ele>335.0</ele><time>2026-04-18T16:21:59Z</time></trkpt><trkpt lat="43.49609875558076" lon="12.083369962477953"><ele>334.5</ele><time>2026-04-18T16:22:00Z</time></trkpt><trkpt lat="43.49586711686128" lon="12.08326674122399"><ele>334.0</ele><time>2026-04-18T16:22:01Z</time></trkpt><trkpt lat="43.49562940194363" lon="12.083180116555896"><ele>330.0</ele><time>2026-04-18T16:22:02Z</time></trkpt><trkpt lat="43.49539911795396" lon="12.083096444386376"><ele>326.0</ele><time>2026-04-18T16:22:03Z</time></trkpt><trkpt lat="43.495166744064534" lon="12.08300403158739"><ele>326.0</ele><time>2026-04-18T16:22:04Z</time></trkpt><trkpt lat="43.49493561295293" lon="12.082914503411422"><ele>326.0</ele><time>2026-04-18T16:22:05Z</time></trkpt><trkpt lat="43.494704192931984" lon="12.082819163080151"><ele>324.0</ele><time>2026-04-18T16:22:06Z</time></trkpt><trkpt lat="43.49447191934541" lon="12.082725675047502"><ele>322.0</ele><time>2026-04-18T16:22:07Z</time></trkpt><trkpt lat="43.49423637505389" lon="12.082628180025663"><ele>322.0</ele><time>2026-04-18T16:22:08Z</time></trkpt><trkpt lat="43.494006414080054" lon="12.082538646417884"><ele>322.0</ele><time>2026-04-18T16:22:09Z</time></trkpt><trkpt lat="43.493774289578376" lon="12.082446757520596"><ele>326.5</ele><time>2026-04-18T16:22:10Z</time></trkpt><trkpt lat="43.49354450670175" lon="12.082351570493755"><ele>331.0</ele><time>2026-04-18T16:22:11Z</time></trkpt><trkpt lat="43.49332931148442" lon="12.082204945179171"><ele>331.0</ele><time>2026-04-18T16:22:12Z</time></trkpt><trkpt lat="43.49313555760878" lon="12.082042254024289"><ele>331.0</ele><time>2026-04-18T16:22:13Z</time></trkpt><trkpt lat="43.49296657771885" lon="12.08185448929563"><ele>331.0</ele><time>2026-04-18T16:22:14Z</time></trkpt><trkpt lat="43.4928157449222" lon="12.08164758051119"><ele>327.66666666666663</ele><time>2026-04-18T16:22:15Z</time></trkpt><trkpt lat="43.49266977581893" lon="12.08142146803777"><ele>324.3333333333333</ele><time>2026-04-18T16:22:16Z</time></trkpt><trkpt lat="43.49252597615456" lon="12.081191617530042"><ele>321.0</ele><time>2026-04-18T16:22:17Z</time></trkpt><trkpt lat="43.49237859393306" lon="12.080967144697107"><ele>321.6666666666667</ele><time>2026-04-18T16:22:18Z</time></trkpt><trkpt lat="43.4922369496482" lon="12.08073970926078"><ele>322.33333333333337</ele><time>2026-04-18T16:22:18.999Z</time></trkpt><trkpt lat="43.492090658858224" lon="12.080529412784802"><ele>323.0</ele><time>2026-04-18T16:22:19.999Z</time></trkpt><trkpt lat="43.491940047193665" lon="12.0803395506918"><ele>323.0</ele><time>2026-04-18T16:22:20.999Z</time></trkpt><trkpt lat="43.49178222862082" lon="12.080162797740256"><ele>323.0</ele><time>2026-04-18T16:22:21.999Z</time></trkpt><trkpt lat="43.49161807018734" lon="12.080007111808005"><ele>323.0</ele><time>2026-04-18T16:22:22.999Z</time></trkpt><trkpt lat="43.491449004337156" lon="12.079872412847568"><ele>324.0</ele><time>2026-04-18T16:22:23.999Z</time></trkpt><trkpt lat="43.491273304829924" lon="12.079756097167184"><ele>325.0</ele><time>2026-04-18T16:22:24.999Z</time></trkpt><trkpt lat="43.491088569113614" lon="12.079663077658275"><ele>326.0</ele><time>2026-04-18T16:22:25.999Z</time></trkpt><trkpt lat="43.49090197711507" lon="12.07958940047864"><ele>324.0</ele><time>2026-04-18T16:22:26.999Z</time></trkpt><trkpt lat="43.49070880694535" lon="12.079532146742448"><ele>322.0</ele><time>2026-04-18T16:22:27.999Z</time></trkpt><trkpt lat="43.490507344669986" lon="12.079480269186934"><ele>320.0</ele><time>2026-04-18T16:22:28.999Z</time></trkpt><trkpt lat="43.4902893900831" lon="12.079435435522575"><ele>320.0</ele><time>2026-04-18T16:22:29.999Z</time></trkpt><trkpt lat="43.49005499414616" lon="12.079355603159009"><ele>320.0</ele><time>2026-04-18T16:22:30.999Z</time></trkpt><trkpt lat="43.489801430588656" lon="12.079289743537084"><ele>321.5</ele><time>2026-04-18T16:22:31.999Z</time></trkpt><trkpt lat="43.48953892999019" lon="12.079233436847042"><ele>323.0</ele><time>2026-04-18T16:22:32.999Z</time></trkpt><trkpt lat="43.4892985251991" lon="12.079155405468654"><ele>323.0</ele><time>2026-04-18T16:22:33.999Z</time></trkpt><trkpt lat="43.48906592483278" lon="12.0791144357798"><ele>323.0</ele><time>2026-04-18T16:22:34.999Z</time></trkpt><trkpt lat="43.48884275359702" lon="12.079103811418637"><ele>325.6666666666667</ele><time>2026-04-18T16:22:35.999Z</time></trkpt><trkpt lat="43.4886266989243" lon="12.079132621426206"><ele>328.3333333333333</ele><time>2026-04-18T16:22:36.999Z</time></trkpt><trkpt lat="43.4884188908592" lon="12.07920257029069"><ele>331.0</ele><time>2026-04-18T16:22:37.999Z</time></trkpt><trkpt lat="43.488217473809456" lon="12.079293506684255"><ele>331.0</ele><time>2026-04-18T16:22:38.999Z</time></trkpt><trkpt lat="43.488027200629226" lon="12.079409459779288"><ele>331.0</ele><time>2026-04-18T16:22:39.999Z</time></trkpt><trkpt lat="43.48785706474859" lon="12.079549225509405"><ele>331.0</ele><time>2026-04-18T16:22:40.999Z</time></trkpt><trkpt lat="43.487698039609015" lon="12.079680704247172"><ele>332.66666666666663</ele><time>2026-04-18T16:22:41.999Z</time></trkpt><trkpt lat="43.48754051701468" lon="12.079791084043501"><ele>334.3333333333333</ele><time>2026-04-18T16:22:42.999Z</time></trkpt><trkpt lat="43.487370928447575" lon="12.079817889843714"><ele>336.0</ele><time>2026-04-18T16:22:43.999Z</time></trkpt><trkpt lat="43.487202280311415" lon="12.07985442632039"><ele>331.6666666666667</ele><time>2026-04-18T16:22:44.999Z</time></trkpt><trkpt lat="43.487030928623675" lon="12.079814074944617"><ele>327.33333333333337</ele><time>2026-04-18T16:22:45.999Z</time></trkpt><trkpt lat="43.48687556223173" lon="12.07972849098949"><ele>323.0</ele><time>2026-04-18T16:22:46.999Z</time></trkpt><trkpt lat="43.486743802095454" lon="12.079584048977543"><ele>323.0</ele><time>2026-04-18T16:22:47.999Z</time></trkpt><trkpt lat="43.48660441329308" lon="12.079458768030266"><ele>323.0</ele><time>2026-04-18T16:22:48.999Z</time></trkpt><trkpt lat="43.4864741598786" lon="12.079317912213533"><ele>323.0</ele><time>2026-04-18T16:22:49.999Z</time></trkpt><trkpt lat="43.48634638430772" lon="12.079181244397661"><ele>321.6666666666667</ele><time>2026-04-18T16:22:50.999Z</time></trkpt><trkpt lat="43.48621894931246" lon="12.07904487285891"><ele>320.3333333333333</ele><time>2026-04-18T16:22:51.999Z</time></trkpt><trkpt lat="43.48609027257914" lon="12.078913725454958"><ele>319.0</ele><time>2026-04-18T16:22:52.999Z</time></trkpt><trkpt lat="43.485960126775005" lon="12.078791911283862"><ele>319.0</ele><time>2026-04-18T16:22:53.999Z</time></trkpt><trkpt lat="43.48582827050767" lon="12.078679441679817"><ele>319.0</ele><time>2026-04-18T16:22:54.999Z</time></trkpt><trkpt lat="43.485687132449335" lon="12.078583809857824"><ele>319.0</ele><time>2026-04-18T16:22:55.999Z</time></trkpt><trkpt lat="43.485541862921345" lon="12.07850659412961"><ele>318.25</ele><time>2026-04-18T16:22:56.999Z</time></trkpt><trkpt lat="43.485395562326055" lon="12.078442100479888"><ele>317.5</ele><time>2026-04-18T16:22:57.999Z</time></trkpt><trkpt lat="43.485263800936494" lon="12.07837867605672"><ele>316.75</ele><time>2026-04-18T16:22:58.999Z</time></trkpt><trkpt lat="43.48515154411233" lon="12.078316135228114"><ele>316.0</ele><time>2026-04-18T16:22:59.999Z</time></trkpt><trkpt lat="43.485051784610356" lon="12.078242849482736"><ele>316.0</ele><time>2026-04-18T16:23:00.999Z</time></trkpt><trkpt lat="43.484962772962334" lon="12.07815082419015"><ele>316.0</ele><time>2026-04-18T16:23:01.999Z</time></trkpt><trkpt lat="43.484885028046044" lon="12.078043075045517"><ele>316.0</ele><time>2026-04-18T16:23:02.999Z</time></trkpt><trkpt lat="43.48481919957576" lon="12.077923620694055"><ele>316.0</ele><time>2026-04-18T16:23:03.999Z</time></trkpt><trkpt lat="43.48476662095735" lon="12.077793901051418"><ele>316.0</ele><time>2026-04-18T16:23:04.999Z</time></trkpt><trkpt lat="43.48472438019153" lon="12.077644740901524"><ele>316.0</ele><time>2026-04-18T16:23:05.999Z</time></trkpt><trkpt lat="43.48465574704951" lon="12.077511914557135"><ele>316.0</ele><time>2026-04-18T16:23:06.999Z</time></trkpt><trkpt lat="43.4846060700702" lon="12.077367308672814"><ele>316.0</ele><time>2026-04-18T16:23:07.999Z</time></trkpt><trkpt lat="43.4845573725882" lon="12.077217451447046"><ele>316.0</ele><time>2026-04-18T16:23:08.999Z</time></trkpt><trkpt lat="43.484508011154595" lon="12.077069437730259"><ele>315.25</ele><time>2026-04-18T16:23:09.999Z</time></trkpt><trkpt lat="43.484457679002375" lon="12.076920174472265"><ele>314.5</ele><time>2026-04-18T16:23:10.999Z</time></trkpt><trkpt lat="43.484404027553445" lon="12.07676903410746"><ele>313.75</ele><time>2026-04-18T16:23:11.999Z</time></trkpt><trkpt lat="43.48435089550271" lon="12.076613852187359"><ele>313.0</ele><time>2026-04-18T16:23:12.999Z</time></trkpt><trkpt lat="43.48429764473921" lon="12.076457659791444"><ele>313.0</ele><time>2026-04-18T16:23:13.999Z</time></trkpt><trkpt lat="43.4842442232187" lon="12.076305956329243"><ele>313.0</ele><time>2026-04-18T16:23:14.999Z</time></trkpt><trkpt lat="43.48419226871047" lon="12.076152331718685"><ele>313.0</ele><time>2026-04-18T16:23:15.999Z</time></trkpt><trkpt lat="43.484139630450514" lon="12.076001401180488"><ele>313.0</ele><time>2026-04-18T16:23:16.999Z</time></trkpt><trkpt lat="43.48408549775043" lon="12.075849658761722"><ele>314.25</ele><time>2026-04-18T16:23:17.999Z</time></trkpt><trkpt lat="43.484031522583386" lon="12.07568937967359"><ele>315.5</ele><time>2026-04-18T16:23:18.999Z</time></trkpt><trkpt lat="43.48397766543613" lon="12.07552809866514"><ele>316.75</ele><time>2026-04-18T16:23:19.999Z</time></trkpt><trkpt lat="43.48392298012987" lon="12.075367084445293"><ele>318.0</ele><time>2026-04-18T16:23:20.999Z</time></trkpt><trkpt lat="43.4838669954518" lon="12.07520753295679"><ele>318.0</ele><time>2026-04-18T16:23:21.999Z</time></trkpt><trkpt lat="43.483808838578135" lon="12.0750436109176"><ele>318.0</ele><time>2026-04-18T16:23:22.999Z</time></trkpt><trkpt lat="43.483742647189764" lon="12.074878321898156"><ele>318.0</ele><time>2026-04-18T16:23:23.999Z</time></trkpt><trkpt lat="43.483670410558574" lon="12.07472729327079"><ele>318.0</ele><time>2026-04-18T16:23:24.999Z</time></trkpt><trkpt lat="43.483563232977936" lon="12.07459489487556"><ele>317.25</ele><time>2026-04-18T16:23:25.999Z</time></trkpt><trkpt lat="43.48344993733136" lon="12.074476286368823"><ele>316.5</ele><time>2026-04-18T16:23:26.999Z</time></trkpt><trkpt lat="43.48345267062437" lon="12.074353213049465"><ele>315.75</ele><time>2026-04-18T16:23:27.999Z</time></trkpt><trkpt lat="43.483378848973054" lon="12.074237152655735"><ele>315.0</ele><time>2026-04-18T16:23:28.999Z</time></trkpt><trkpt lat="43.483307578272914" lon="12.074119144252546"><ele>316.0</ele><time>2026-04-18T16:23:29.999Z</time></trkpt><trkpt lat="43.483232707962536" lon="12.073996852955606"><ele>317.0</ele><time>2026-04-18T16:23:30.999Z</time></trkpt><trkpt lat="43.48316041498324" lon="12.073872777655632"><ele>318.0</ele><time>2026-04-18T16:23:31.999Z</time></trkpt><trkpt lat="43.48308412219433" lon="12.073739591091865"><ele>319.0</ele><time>2026-04-18T16:23:32.999Z</time></trkpt><trkpt lat="43.48301019295362" lon="12.073608789711361"><ele>319.0</ele><time>2026-04-18T16:23:33.999Z</time></trkpt><trkpt lat="43.48294183827514" lon="12.073470277380261"><ele>319.0</ele><time>2026-04-18T16:23:34.999Z</time></trkpt><trkpt lat="43.482877018814065" lon="12.073324067123266"><ele>319.0</ele><time>2026-04-18T16:23:35.999Z</time></trkpt><trkpt lat="43.48281052901323" lon="12.073185935331779"><ele>319.0</ele><time>2026-04-18T16:23:36.999Z</time></trkpt><trkpt lat="43.48274467799159" lon="12.073036237689834"><ele>318.0</ele><time>2026-04-18T16:23:37.999Z</time></trkpt><trkpt lat="43.48268659514433" lon="12.072880518281975"><ele>317.0</ele><time>2026-04-18T16:23:38.999Z</time></trkpt><trkpt lat="43.482621450108034" lon="12.072721671046853"><ele>316.0</ele><time>2026-04-18T16:23:39.999Z</time></trkpt><trkpt lat="43.482555101690515" lon="12.072561350267309"><ele>315.0</ele><time>2026-04-18T16:23:40.999Z</time></trkpt><trkpt lat="43.48249350036196" lon="12.072397877875424"><ele>317.0</ele><time>2026-04-18T16:23:41.999Z</time></trkpt><trkpt lat="43.48243309498168" lon="12.072230405799948"><ele>319.0</ele><time>2026-04-18T16:23:42.999Z</time></trkpt><trkpt lat="43.48236674312025" lon="12.072068543286033"><ele>321.0</ele><time>2026-04-18T16:23:43.999Z</time></trkpt><trkpt lat="43.482299841542435" lon="12.071907004361309"><ele>323.0</ele><time>2026-04-18T16:23:44.999Z</time></trkpt><trkpt lat="43.48223535505487" lon="12.071745726989684"><ele>322.25</ele><time>2026-04-18T16:23:45.999Z</time></trkpt><trkpt lat="43.48217481575159" lon="12.07158207774869"><ele>321.5</ele><time>2026-04-18T16:23:46.999Z</time></trkpt><trkpt lat="43.48211188838506" lon="12.07141907072777"><ele>320.75</ele><time>2026-04-18T16:23:47.999Z</time></trkpt><trkpt lat="43.48204924082527" lon="12.071257425405744"><ele>320.0</ele><time>2026-04-18T16:23:48.999Z</time></trkpt><trkpt lat="43.48198427483612" lon="12.071090694636137"><ele>317.5</ele><time>2026-04-18T16:23:49.999Z</time></trkpt><trkpt lat="43.48192242879166" lon="12.070927150610943"><ele>315.0</ele><time>2026-04-18T16:23:50.999Z</time></trkpt><trkpt lat="43.48185836504025" lon="12.07076385808699"><ele>312.5</ele><time>2026-04-18T16:23:51.999Z</time></trkpt><trkpt lat="43.48179172663312" lon="12.070600614102554"><ele>310.0</ele><time>2026-04-18T16:23:52.999Z</time></trkpt><trkpt lat="43.48172849641333" lon="12.07043666962926"><ele>310.0</ele><time>2026-04-18T16:23:53.999Z</time></trkpt><trkpt lat="43.48166155113513" lon="12.070273679475045"><ele>310.0</ele><time>2026-04-18T16:23:54.999Z</time></trkpt><trkpt lat="43.48159754087929" lon="12.070107638001375"><ele>310.0</ele><time>2026-04-18T16:23:55.999Z</time></trkpt><trkpt lat="43.48153664616112" lon="12.069935838437946"><ele>310.0</ele><time>2026-04-18T16:23:56.999Z</time></trkpt><trkpt lat="43.481481003884234" lon="12.069765663842631"><ele>312.25</ele><time>2026-04-18T16:23:57.999Z</time></trkpt><trkpt lat="43.48143178357135" lon="12.069594082061414"><ele>314.5</ele><time>2026-04-18T16:23:58.999Z</time></trkpt><trkpt lat="43.48138654769147" lon="12.069403109549645"><ele>316.75</ele><time>2026-04-18T16:23:59.999Z</time></trkpt><trkpt lat="43.481342602913266" lon="12.069203815699634"><ele>319.0</ele><time>2026-04-18T16:24:00.999Z</time></trkpt><trkpt lat="43.481305389896995" lon="12.069001472547116"><ele>321.3333333333333</ele><time>2026-04-18T16:24:01.999Z</time></trkpt><trkpt lat="43.48127044207672" lon="12.068801527623625"><ele>323.6666666666667</ele><time>2026-04-18T16:24:02.998Z</time></trkpt><trkpt lat="43.48123864753341" lon="12.068600336361055"><ele>326.0</ele><time>2026-04-18T16:24:04Z</time></trkpt><trkpt lat="43.48121471654733" lon="12.06838790125041"><ele>321.5</ele><time>2026-04-18T16:24:05Z</time></trkpt><trkpt lat="43.481201410390355" lon="12.068178606983148"><ele>317.0</ele><time>2026-04-18T16:24:06Z</time></trkpt><trkpt lat="43.48119825223599" lon="12.067974520786748"><ele>312.5</ele><time>2026-04-18T16:24:07Z</time></trkpt><trkpt lat="43.48119687066618" lon="12.06777232263436"><ele>308.0</ele><time>2026-04-18T16:24:08Z</time></trkpt><trkpt lat="43.48119484623857" lon="12.067583024622252"><ele>308.33333333333337</ele><time>2026-04-18T16:24:09Z</time></trkpt><trkpt lat="43.481192255317154" lon="12.067385686953074"><ele>308.6666666666667</ele><time>2026-04-18T16:24:10Z</time></trkpt><trkpt lat="43.48120220649797" lon="12.067168406939532"><ele>309.0</ele><time>2026-04-18T16:24:11Z</time></trkpt><trkpt lat="43.48120040495581" lon="12.066923657218199"><ele>309.0</ele><time>2026-04-18T16:24:12Z</time></trkpt><trkpt lat="43.481191784646875" lon="12.06668023812238"><ele>309.0</ele><time>2026-04-18T16:24:13Z</time></trkpt><trkpt lat="43.48117354829518" lon="12.06643339055875"><ele>309.0</ele><time>2026-04-18T16:24:14Z</time></trkpt><trkpt lat="43.48114517470584" lon="12.066184527144696"><ele>309.3333333333333</ele><time>2026-04-18T16:24:15Z</time></trkpt><trkpt lat="43.48111167406609" lon="12.065952749726625"><ele>309.66666666666663</ele><time>2026-04-18T16:24:16Z</time></trkpt><trkpt lat="43.48108234229639" lon="12.065750942016198"><ele>310.0</ele><time>2026-04-18T16:24:17Z</time></trkpt><trkpt lat="43.48105890804733" lon="12.065543534558977"><ele>310.25</ele><time>2026-04-18T16:24:18Z</time></trkpt><trkpt lat="43.48102467011405" lon="12.065346158757517"><ele>310.5</ele><time>2026-04-18T16:24:19Z</time></trkpt><trkpt lat="43.48098004683893" lon="12.065153733153986"><ele>310.75</ele><time>2026-04-18T16:24:20Z</time></trkpt><trkpt lat="43.480952712725255" lon="12.06496254098507"><ele>311.0</ele><time>2026-04-18T16:24:21Z</time></trkpt><trkpt lat="43.48092388362852" lon="12.064775025676624"><ele>311.5</ele><time>2026-04-18T16:24:22Z</time></trkpt><trkpt lat="43.48091262944855" lon="12.064584275930697"><ele>312.0</ele><time>2026-04-18T16:24:23Z</time></trkpt><trkpt lat="43.48086797611834" lon="12.064401727951866"><ele>312.5</ele><time>2026-04-18T16:24:24Z</time></trkpt><trkpt lat="43.48083749736328" lon="12.064216581516279"><ele>313.0</ele><time>2026-04-18T16:24:25Z</time></trkpt><trkpt lat="43.48080175523167" lon="12.06403802432757"><ele>314.75</ele><time>2026-04-18T16:24:26Z</time></trkpt><trkpt lat="43.480762429746854" lon="12.063860794149704"><ele>316.5</ele><time>2026-04-18T16:24:27Z</time></trkpt><trkpt lat="43.480719637304226" lon="12.06368636868137"><ele>318.25</ele><time>2026-04-18T16:24:28Z</time></trkpt><trkpt lat="43.48067444977972" lon="12.063512890558172"><ele>320.0</ele><time>2026-04-18T16:24:29Z</time></trkpt><trkpt lat="43.48062352016272" lon="12.063343358996132"><ele>322.5</ele><time>2026-04-18T16:24:30Z</time></trkpt><trkpt lat="43.480566729566014" lon="12.063186546218525"><ele>325.0</ele><time>2026-04-18T16:24:31Z</time></trkpt><trkpt lat="43.48050899259838" lon="12.063037135234314"><ele>327.5</ele><time>2026-04-18T16:24:32Z</time></trkpt><trkpt lat="43.48045134135425" lon="12.062889834228203"><ele>330.0</ele><time>2026-04-18T16:24:33Z</time></trkpt><trkpt lat="43.480391268879224" lon="12.062748994477136"><ele>326.75</ele><time>2026-04-18T16:24:34Z</time></trkpt><trkpt lat="43.4803281177699" lon="12.062614659206668"><ele>323.5</ele><time>2026-04-18T16:24:35Z</time></trkpt><trkpt lat="43.48026048514477" lon="12.062487738904286"><ele>320.25</ele><time>2026-04-18T16:24:36Z</time></trkpt><trkpt lat="43.48018004367194" lon="12.062369503191032"><ele>317.0</ele><time>2026-04-18T16:24:37Z</time></trkpt><trkpt lat="43.48008495950877" lon="12.06227438625385"><ele>317.0</ele><time>2026-04-18T16:24:38Z</time></trkpt><trkpt lat="43.47998198278393" lon="12.062202728313952"><ele>317.0</ele><time>2026-04-18T16:24:39Z</time></trkpt><trkpt lat="43.479869900410684" lon="12.062154788221665"><ele>317.0</ele><time>2026-04-18T16:24:40Z</time></trkpt><trkpt lat="43.47974964333886" lon="12.062136753277148"><ele>317.0</ele><time>2026-04-18T16:24:41Z</time></trkpt><trkpt lat="43.479620900201446" lon="12.062152331384388"><ele>314.0</ele><time>2026-04-18T16:24:42Z</time></trkpt><trkpt lat="43.47948776730147" lon="12.06219936370752"><ele>311.0</ele><time>2026-04-18T16:24:43Z</time></trkpt><trkpt lat="43.47934453744355" lon="12.062259082886648"><ele>308.0</ele><time>2026-04-18T16:24:44Z</time></trkpt><trkpt lat="43.47918726133261" lon="12.06231807013198"><ele>308.0</ele><time>2026-04-18T16:24:45Z</time></trkpt><trkpt lat="43.479020784295955" lon="12.062371779367513"><ele>308.0</ele><time>2026-04-18T16:24:46Z</time></trkpt><trkpt lat="43.478852964459186" lon="12.062420366432274"><ele>308.0</ele><time>2026-04-18T16:24:47Z</time></trkpt><trkpt lat="43.4786908131934" lon="12.062471219866506"><ele>308.33333333333337</ele><time>2026-04-18T16:24:48Z</time></trkpt><trkpt lat="43.47853230050071" lon="12.062514587531446"><ele>308.6666666666667</ele><time>2026-04-18T16:24:49Z</time></trkpt><trkpt lat="43.478372011452244" lon="12.062540242044614"><ele>309.0</ele><time>2026-04-18T16:24:50Z</time></trkpt><trkpt lat="43.47821613553123" lon="12.062527308437389"><ele>309.0</ele><time>2026-04-18T16:24:51Z</time></trkpt><trkpt lat="43.47806143605346" lon="12.062472574042514"><ele>309.0</ele><time>2026-04-18T16:24:52Z</time></trkpt><trkpt lat="43.4779134686787" lon="12.062377324403027"><ele>309.0</ele><time>2026-04-18T16:24:53Z</time></trkpt><trkpt lat="43.4777783865042" lon="12.062241820213696"><ele>309.0</ele><time>2026-04-18T16:24:54Z</time></trkpt><trkpt lat="43.477659739267985" lon="12.062065365780288"><ele>309.0</ele><time>2026-04-18T16:24:54.999Z</time></trkpt><trkpt lat="43.47756181070982" lon="12.061847771250795"><ele>309.0</ele><time>2026-04-18T16:24:55.999Z</time></trkpt><trkpt lat="43.47748153242285" lon="12.061598399052075"><ele>309.0</ele><time>2026-04-18T16:24:56.999Z</time></trkpt><trkpt lat="43.47742437518201" lon="12.061312396394168"><ele>309.0</ele><time>2026-04-18T16:24:57.999Z</time></trkpt><trkpt lat="43.47736970030283" lon="12.061010708650716"><ele>309.0</ele><time>2026-04-18T16:24:58.999Z</time></trkpt><trkpt lat="43.477303460577225" lon="12.060701847636192"><ele>309.0</ele><time>2026-04-18T16:24:59.999Z</time></trkpt><trkpt lat="43.47722993116026" lon="12.06039639045225"><ele>309.0</ele><time>2026-04-18T16:25:00.999Z</time></trkpt><trkpt lat="43.47716000921364" lon="12.060089533853942"><ele>309.5</ele><time>2026-04-18T16:25:01.999Z</time></trkpt><trkpt lat="43.47709106063141" lon="12.059783565332163"><ele>310.0</ele><time>2026-04-18T16:25:02.999Z</time></trkpt><trkpt lat="43.47702147974403" lon="12.059478837828529"><ele>310.0</ele><time>2026-04-18T16:25:03.999Z</time></trkpt><trkpt lat="43.47694227805686" lon="12.059176548536893"><ele>310.0</ele><time>2026-04-18T16:25:04.999Z</time></trkpt><trkpt lat="43.47685334988184" lon="12.058882836462203"><ele>311.0</ele><time>2026-04-18T16:25:05.999Z</time></trkpt><trkpt lat="43.47675051179244" lon="12.058599028884329"><ele>312.0</ele><time>2026-04-18T16:25:06.999Z</time></trkpt><trkpt lat="43.47663695212114" lon="12.058323478686964"><ele>312.5</ele><time>2026-04-18T16:25:07.999Z</time></trkpt><trkpt lat="43.476513119492274" lon="12.058056405719155"><ele>313.0</ele><time>2026-04-18T16:25:08.999Z</time></trkpt><trkpt lat="43.47637994902321" lon="12.057799428799333"><ele>312.5</ele><time>2026-04-18T16:25:09.999Z</time></trkpt><trkpt lat="43.4762358166156" lon="12.057548288782488"><ele>312.0</ele><time>2026-04-18T16:25:10.999Z</time></trkpt><trkpt lat="43.47608370440052" lon="12.057306071584073"><ele>312.0</ele><time>2026-04-18T16:25:11.999Z</time></trkpt><trkpt lat="43.47592389789235" lon="12.057075198645071"><ele>312.0</ele><time>2026-04-18T16:25:12.999Z</time></trkpt><trkpt lat="43.475751456504504" lon="12.056858898304304"><ele>312.0</ele><time>2026-04-18T16:25:13.999Z</time></trkpt><trkpt lat="43.475573751055684" lon="12.056641406135084"><ele>312.0</ele><time>2026-04-18T16:25:14.999Z</time></trkpt><trkpt lat="43.47540948153768" lon="12.05641493976895"><ele>313.0</ele><time>2026-04-18T16:25:15.999Z</time></trkpt><trkpt lat="43.475229478252984" lon="12.05621982530335"><ele>314.0</ele><time>2026-04-18T16:25:16.999Z</time></trkpt><trkpt lat="43.47499850390909" lon="12.056092951323345"><ele>314.0</ele><time>2026-04-18T16:25:17.999Z</time></trkpt><trkpt lat="43.47476944063088" lon="12.055992185936487"><ele>314.0</ele><time>2026-04-18T16:25:18.999Z</time></trkpt><trkpt lat="43.474583116777524" lon="12.055773490113266"><ele>313.5</ele><time>2026-04-18T16:25:19.999Z</time></trkpt><trkpt lat="43.474371314467554" lon="12.055626895010475"><ele>313.0</ele><time>2026-04-18T16:25:20.999Z</time></trkpt><trkpt lat="43.47416187265393" lon="12.055471467157181"><ele>313.0</ele><time>2026-04-18T16:25:21.999Z</time></trkpt><trkpt lat="43.47395068236013" lon="12.055316638017105"><ele>313.0</ele><time>2026-04-18T16:25:22.999Z</time></trkpt><trkpt lat="43.47373908097246" lon="12.05516182821318"><ele>312.5</ele><time>2026-04-18T16:25:23.999Z</time></trkpt><trkpt lat="43.473530314393024" lon="12.055002940193718"><ele>312.0</ele><time>2026-04-18T16:25:24.999Z</time></trkpt><trkpt lat="43.473321498008886" lon="12.054848929540551"><ele>312.0</ele><time>2026-04-18T16:25:25.999Z</time></trkpt><trkpt lat="43.47311131415683" lon="12.054697416622712"><ele>312.0</ele><time>2026-04-18T16:25:26.999Z</time></trkpt><trkpt lat="43.472903165176106" lon="12.054546785651208"><ele>312.0</ele><time>2026-04-18T16:25:27.999Z</time></trkpt><trkpt lat="43.4726925298165" lon="12.054396665420004"><ele>312.0</ele><time>2026-04-18T16:25:28.999Z</time></trkpt><trkpt lat="43.47248199683785" lon="12.054240664042"><ele>312.0</ele><time>2026-04-18T16:25:29.999Z</time></trkpt><trkpt lat="43.47227394482275" lon="12.054079903803942"><ele>312.0</ele><time>2026-04-18T16:25:30.999Z</time></trkpt><trkpt lat="43.47206560914084" lon="12.053921303793048"><ele>313.0</ele><time>2026-04-18T16:25:31.999Z</time></trkpt><trkpt lat="43.471853975046535" lon="12.053757271138467"><ele>314.0</ele><time>2026-04-18T16:25:32.999Z</time></trkpt><trkpt lat="43.4716415257363" lon="12.053596047773008"><ele>314.0</ele><time>2026-04-18T16:25:33.999Z</time></trkpt><trkpt lat="43.47143194450514" lon="12.053439753080733"><ele>314.0</ele><time>2026-04-18T16:25:34.999Z</time></trkpt><trkpt lat="43.47122162402765" lon="12.053284020024243"><ele>316.0</ele><time>2026-04-18T16:25:35.999Z</time></trkpt><trkpt lat="43.47100892136668" lon="12.053125764715775"><ele>318.0</ele><time>2026-04-18T16:25:36.999Z</time></trkpt><trkpt lat="43.470796818792444" lon="12.052968468500215"><ele>318.0</ele><time>2026-04-18T16:25:37.999Z</time></trkpt><trkpt lat="43.470585332134455" lon="12.052806523992775"><ele>318.0</ele><time>2026-04-18T16:25:38.999Z</time></trkpt><trkpt lat="43.47036718116956" lon="12.052642428496135"><ele>318.5</ele><time>2026-04-18T16:25:39.999Z</time></trkpt><trkpt lat="43.47015083232879" lon="12.052475107466243"><ele>319.0</ele><time>2026-04-18T16:25:40.999Z</time></trkpt><trkpt lat="43.46993438738498" lon="12.052304284686029"><ele>319.0</ele><time>2026-04-18T16:25:41.999Z</time></trkpt><trkpt lat="43.469720785003226" lon="12.052123346894927"><ele>319.0</ele><time>2026-04-18T16:25:42.999Z</time></trkpt><trkpt lat="43.46951053966893" lon="12.051932012789493"><ele>319.5</ele><time>2026-04-18T16:25:43.999Z</time></trkpt><trkpt lat="43.46930512571028" lon="12.051727380037695"><ele>320.0</ele><time>2026-04-18T16:25:44.999Z</time></trkpt><trkpt lat="43.4691067705272" lon="12.05151064414573"><ele>320.0</ele><time>2026-04-18T16:25:45.999Z</time></trkpt><trkpt lat="43.468916852474266" lon="12.05128348795648"><ele>320.0</ele><time>2026-04-18T16:25:46.999Z</time></trkpt><trkpt lat="43.46873158980846" lon="12.051047146893765"><ele>320.0</ele><time>2026-04-18T16:25:47.999Z</time></trkpt><trkpt lat="43.46855463055253" lon="12.05079607580721"><ele>320.0</ele><time>2026-04-18T16:25:48.999Z</time></trkpt><trkpt lat="43.46838393352563" lon="12.050536905427485"><ele>320.0</ele><time>2026-04-18T16:25:49.999Z</time></trkpt><trkpt lat="43.46821941514005" lon="12.05027037707695"><ele>320.0</ele><time>2026-04-18T16:25:50.999Z</time></trkpt><trkpt lat="43.46806195062796" lon="12.049994578389116"><ele>317.5</ele><time>2026-04-18T16:25:51.999Z</time></trkpt><trkpt lat="43.4679150303238" lon="12.049709188842614"><ele>315.0</ele><time>2026-04-18T16:25:52.999Z</time></trkpt><trkpt lat="43.467778270349335" lon="12.04941495163616"><ele>315.5</ele><time>2026-04-18T16:25:53.999Z</time></trkpt><trkpt lat="43.46765114722255" lon="12.049112946120372"><ele>316.0</ele><time>2026-04-18T16:25:54.999Z</time></trkpt><trkpt lat="43.467529106693604" lon="12.048805551210528"><ele>316.0</ele><time>2026-04-18T16:25:55.999Z</time></trkpt><trkpt lat="43.46741526615091" lon="12.048495141334842"><ele>316.0</ele><time>2026-04-18T16:25:56.999Z</time></trkpt><trkpt lat="43.46731251352704" lon="12.048176605226006"><ele>320.0</ele><time>2026-04-18T16:25:57.999Z</time></trkpt><trkpt lat="43.46721684959423" lon="12.047855849776859"><ele>324.0</ele><time>2026-04-18T16:25:58.999Z</time></trkpt><trkpt lat="43.46712462885086" lon="12.047535223115837"><ele>321.5</ele><time>2026-04-18T16:25:59.999Z</time></trkpt><trkpt lat="43.467031243469016" lon="12.047219144499046"><ele>319.0</ele><time>2026-04-18T16:26:00.999Z</time></trkpt><trkpt lat="43.46693775343593" lon="12.046897787189037"><ele>322.5</ele><time>2026-04-18T16:26:01.999Z</time></trkpt><trkpt lat="43.46684321360959" lon="12.046581876537042"><ele>326.0</ele><time>2026-04-18T16:26:02.999Z</time></trkpt><trkpt lat="43.46675015264051" lon="12.046263730857303"><ele>326.0</ele><time>2026-04-18T16:26:03.999Z</time></trkpt><trkpt lat="43.4666573220204" lon="12.045946508558991"><ele>326.0</ele><time>2026-04-18T16:26:04.999Z</time></trkpt><trkpt lat="43.46656581598388" lon="12.045628562635082"><ele>329.0</ele><time>2026-04-18T16:26:05.999Z</time></trkpt><trkpt lat="43.466477247614385" lon="12.045311488508508"><ele>332.0</ele><time>2026-04-18T16:26:06.999Z</time></trkpt><trkpt lat="43.46638978148918" lon="12.04499444933589"><ele>335.0</ele><time>2026-04-18T16:26:07.999Z</time></trkpt><trkpt lat="43.46630080139847" lon="12.044676401421812"><ele>338.0</ele><time>2026-04-18T16:26:08.999Z</time></trkpt><trkpt lat="43.466207256117784" lon="12.044360867072982"><ele>328.0</ele><time>2026-04-18T16:26:10Z</time></trkpt><trkpt lat="43.4661142714765" lon="12.044046018746734"><ele>318.0</ele><time>2026-04-18T16:26:11Z</time></trkpt><trkpt lat="43.466020635526476" lon="12.043728977950764"><ele>318.0</ele><time>2026-04-18T16:26:12Z</time></trkpt><trkpt lat="43.4659275775325" lon="12.043412453099387"><ele>318.0</ele><time>2026-04-18T16:26:13Z</time></trkpt><trkpt lat="43.465836055141445" lon="12.043096447125532"><ele>318.0</ele><time>2026-04-18T16:26:14Z</time></trkpt><trkpt lat="43.46574440412271" lon="12.042782324573448"><ele>318.0</ele><time>2026-04-18T16:26:15Z</time></trkpt><trkpt lat="43.46565156245267" lon="12.042468115117616"><ele>320.0</ele><time>2026-04-18T16:26:16Z</time></trkpt><trkpt lat="43.46555872595328" lon="12.042153450485264"><ele>322.0</ele><time>2026-04-18T16:26:17Z</time></trkpt><trkpt lat="43.465466641670965" lon="12.041838450436932"><ele>321.0</ele><time>2026-04-18T16:26:18Z</time></trkpt><trkpt lat="43.46537524999013" lon="12.041521369479801"><ele>320.0</ele><time>2026-04-18T16:26:19Z</time></trkpt><trkpt lat="43.465284029137486" lon="12.041204309216925"><ele>320.0</ele><time>2026-04-18T16:26:20Z</time></trkpt><trkpt lat="43.4651919307313" lon="12.040883804210068"><ele>320.0</ele><time>2026-04-18T16:26:21Z</time></trkpt><trkpt lat="43.46509872124396" lon="12.040564924834891"><ele>320.0</ele><time>2026-04-18T16:26:22Z</time></trkpt><trkpt lat="43.465005046398076" lon="12.040246519258634"><ele>320.0</ele><time>2026-04-18T16:26:23Z</time></trkpt><trkpt lat="43.46491221268041" lon="12.039927097659543"><ele>320.0</ele><time>2026-04-18T16:26:24Z</time></trkpt><trkpt lat="43.46481956648174" lon="12.039609440725854"><ele>320.0</ele><time>2026-04-18T16:26:25Z</time></trkpt><trkpt lat="43.46472707924329" lon="12.039290196210361"><ele>320.5</ele><time>2026-04-18T16:26:26Z</time></trkpt><trkpt lat="43.46463514469778" lon="12.03897124696458"><ele>321.0</ele><time>2026-04-18T16:26:27Z</time></trkpt><trkpt lat="43.464541942843205" lon="12.038649888896064"><ele>321.0</ele><time>2026-04-18T16:26:28Z</time></trkpt><trkpt lat="43.46444905230759" lon="12.038328332173155"><ele>321.0</ele><time>2026-04-18T16:26:29Z</time></trkpt><trkpt lat="43.46435437068254" lon="12.038007997781763"><ele>321.5</ele><time>2026-04-18T16:26:30Z</time></trkpt><trkpt lat="43.46426206588346" lon="12.037686495841664"><ele>322.0</ele><time>2026-04-18T16:26:31Z</time></trkpt><trkpt lat="43.46416926021543" lon="12.037365928062984"><ele>323.0</ele><time>2026-04-18T16:26:32Z</time></trkpt><trkpt lat="43.46407573436476" lon="12.037047174928581"><ele>324.0</ele><time>2026-04-18T16:26:33Z</time></trkpt><trkpt lat="43.46398136259009" lon="12.036731000356587"><ele>325.0</ele><time>2026-04-18T16:26:34Z</time></trkpt><trkpt lat="43.46388967685919" lon="12.03641484835434"><ele>326.0</ele><time>2026-04-18T16:26:35Z</time></trkpt><trkpt lat="43.46379828172463" lon="12.036099696310396"><ele>324.5</ele><time>2026-04-18T16:26:36Z</time></trkpt><trkpt lat="43.463708479462035" lon="12.035788079058198"><ele>323.0</ele><time>2026-04-18T16:26:37Z</time></trkpt><trkpt lat="43.463617595308165" lon="12.035476722227067"><ele>323.0</ele><time>2026-04-18T16:26:38Z</time></trkpt><trkpt lat="43.46352769060665" lon="12.035165223673069"><ele>323.0</ele><time>2026-04-18T16:26:39Z</time></trkpt><trkpt lat="43.46343735841139" lon="12.034856078251256"><ele>324.0</ele><time>2026-04-18T16:26:40Z</time></trkpt><trkpt lat="43.4633474343703" lon="12.034548223757435"><ele>325.0</ele><time>2026-04-18T16:26:41Z</time></trkpt><trkpt lat="43.46326089086656" lon="12.03424018969804"><ele>327.0</ele><time>2026-04-18T16:26:42Z</time></trkpt><trkpt lat="43.46317738247929" lon="12.033929822021616"><ele>329.0</ele><time>2026-04-18T16:26:43Z</time></trkpt><trkpt lat="43.46310003138407" lon="12.033617525366791"><ele>331.0</ele><time>2026-04-18T16:26:44Z</time></trkpt><trkpt lat="43.46302619563066" lon="12.033299690528626"><ele>333.0</ele><time>2026-04-18T16:26:45Z</time></trkpt><trkpt lat="43.46295492774291" lon="12.032979643293569"><ele>329.5</ele><time>2026-04-18T16:26:46Z</time></trkpt><trkpt lat="43.46288505241454" lon="12.032657679458415"><ele>326.0</ele><time>2026-04-18T16:26:47Z</time></trkpt><trkpt lat="43.46281980992227" lon="12.032336907415736"><ele>326.0</ele><time>2026-04-18T16:26:48Z</time></trkpt><trkpt lat="43.462761417298026" lon="12.03201116617354"><ele>326.0</ele><time>2026-04-18T16:26:49Z</time></trkpt><trkpt lat="43.46271182470661" lon="12.031683665957969"><ele>325.5</ele><time>2026-04-18T16:26:50Z</time></trkpt><trkpt lat="43.46267111844728" lon="12.031351679387072"><ele>325.0</ele><time>2026-04-18T16:26:51Z</time></trkpt><trkpt lat="43.46264113234861" lon="12.031021809619006"><ele>326.0</ele><time>2026-04-18T16:26:52Z</time></trkpt><trkpt lat="43.46263204748111" lon="12.030685279249353"><ele>327.0</ele><time>2026-04-18T16:26:53Z</time></trkpt><trkpt lat="43.462641776781616" lon="12.030349736436264"><ele>327.0</ele><time>2026-04-18T16:26:54Z</time></trkpt><trkpt lat="43.46267011278705" lon="12.030014826257931"><ele>327.0</ele><time>2026-04-18T16:26:55Z</time></trkpt><trkpt lat="43.46271501893927" lon="12.02967736699472"><ele>327.0</ele><time>2026-04-18T16:26:56Z</time></trkpt><trkpt lat="43.462776320764334" lon="12.029340239858978"><ele>327.0</ele><time>2026-04-18T16:26:57Z</time></trkpt><trkpt lat="43.462854821011284" lon="12.029005615273995"><ele>327.0</ele><time>2026-04-18T16:26:58Z</time></trkpt><trkpt lat="43.46295002945935" lon="12.028674449012815"><ele>327.0</ele><time>2026-04-18T16:26:59Z</time></trkpt><trkpt lat="43.46306382687698" lon="12.02835990605562"><ele>326.0</ele><time>2026-04-18T16:27:00Z</time></trkpt><trkpt lat="43.46318864704347" lon="12.028057709201338"><ele>325.0</ele><time>2026-04-18T16:27:01Z</time></trkpt><trkpt lat="43.463316568331024" lon="12.027756487187354"><ele>326.5</ele><time>2026-04-18T16:27:02Z</time></trkpt><trkpt lat="43.463436676201134" lon="12.02745040612662"><ele>328.0</ele><time>2026-04-18T16:27:03Z</time></trkpt><trkpt lat="43.463543198312216" lon="12.027136901062613"><ele>328.0</ele><time>2026-04-18T16:27:04Z</time></trkpt><trkpt lat="43.46363189183493" lon="12.026811625089739"><ele>328.0</ele><time>2026-04-18T16:27:05Z</time></trkpt><trkpt lat="43.46370039524132" lon="12.026479815790934"><ele>328.5</ele><time>2026-04-18T16:27:06Z</time></trkpt><trkpt lat="43.46375448777379" lon="12.026143371543434"><ele>329.0</ele><time>2026-04-18T16:27:07Z</time></trkpt><trkpt lat="43.46379048982723" lon="12.025807128413861"><ele>329.0</ele><time>2026-04-18T16:27:08Z</time></trkpt><trkpt lat="43.463807542339296" lon="12.025472461958746"><ele>329.0</ele><time>2026-04-18T16:27:09Z</time></trkpt><trkpt lat="43.46380739495946" lon="12.025139278138726"><ele>330.0</ele><time>2026-04-18T16:27:10Z</time></trkpt><trkpt lat="43.4637944421209" lon="12.024801218100082"><ele>331.0</ele><time>2026-04-18T16:27:11Z</time></trkpt><trkpt lat="43.463766253327044" lon="12.024464514374358"><ele>330.5</ele><time>2026-04-18T16:27:12Z</time></trkpt><trkpt lat="43.463723455980386" lon="12.024127036192729"><ele>330.0</ele><time>2026-04-18T16:27:13Z</time></trkpt><trkpt lat="43.46366684968161" lon="12.023793281483542"><ele>330.0</ele><time>2026-04-18T16:27:14Z</time></trkpt><trkpt lat="43.463589863635306" lon="12.023465006058917"><ele>330.0</ele><time>2026-04-18T16:27:15Z</time></trkpt><trkpt lat="43.46348659479245" lon="12.023152654824496"><ele>333.5</ele><time>2026-04-18T16:27:16Z</time></trkpt><trkpt lat="43.46335628056136" lon="12.02285585870213"><ele>337.0</ele><time>2026-04-18T16:27:17Z</time></trkpt><trkpt lat="43.46321282045591" lon="12.022567622008024"><ele>340.0</ele><time>2026-04-18T16:27:18Z</time></trkpt><trkpt lat="43.4630655075625" lon="12.022282911490946"><ele>343.0</ele><time>2026-04-18T16:27:19Z</time></trkpt><trkpt lat="43.46291797634351" lon="12.021994989816452"><ele>337.0</ele><time>2026-04-18T16:27:20Z</time></trkpt><trkpt lat="43.462772954916474" lon="12.02169687075248"><ele>331.0</ele><time>2026-04-18T16:27:21Z</time></trkpt><trkpt lat="43.46262907978237" lon="12.021397481009938"><ele>331.0</ele><time>2026-04-18T16:27:22Z</time></trkpt><trkpt lat="43.46248244241201" lon="12.021097340840205"><ele>331.0</ele><time>2026-04-18T16:27:23Z</time></trkpt><trkpt lat="43.462333150480106" lon="12.020798777089858"><ele>332.0</ele><time>2026-04-18T16:27:24Z</time></trkpt><trkpt lat="43.462181960515245" lon="12.020506045749805"><ele>333.0</ele><time>2026-04-18T16:27:25Z</time></trkpt><trkpt lat="43.46202811177118" lon="12.020215428826164"><ele>332.5</ele><time>2026-04-18T16:27:26Z</time></trkpt><trkpt lat="43.46187509978775" lon="12.01990990644536"><ele>332.0</ele><time>2026-04-18T16:27:27Z</time></trkpt><trkpt lat="43.4617248945791" lon="12.019626302601514"><ele>332.0</ele><time>2026-04-18T16:27:28Z</time></trkpt><trkpt lat="43.46157406051072" lon="12.01933068715969"><ele>332.0</ele><time>2026-04-18T16:27:29Z</time></trkpt><trkpt lat="43.46142164069254" lon="12.01903670984999"><ele>337.0</ele><time>2026-04-18T16:27:30Z</time></trkpt><trkpt lat="43.46127018654893" lon="12.018748365744615"><ele>342.0</ele><time>2026-04-18T16:27:30.999Z</time></trkpt><trkpt lat="43.46111817791525" lon="12.018458991953246"><ele>350.0</ele><time>2026-04-18T16:27:31.999Z</time></trkpt><trkpt lat="43.46096836667344" lon="12.018174791124125"><ele>358.0</ele><time>2026-04-18T16:27:32.999Z</time></trkpt><trkpt lat="43.46081887001008" lon="12.017890454797463"><ele>358.0</ele><time>2026-04-18T16:27:33.999Z</time></trkpt><trkpt lat="43.46066677557128" lon="12.01760758051964"><ele>358.0</ele><time>2026-04-18T16:27:34.999Z</time></trkpt><trkpt lat="43.46049822132866" lon="12.017342406247982"><ele>357.0</ele><time>2026-04-18T16:27:35.999Z</time></trkpt><trkpt lat="43.46030807468182" lon="12.017099793662815"><ele>356.0</ele><time>2026-04-18T16:27:36.999Z</time></trkpt><trkpt lat="43.4601055169638" lon="12.016884577099713"><ele>356.0</ele><time>2026-04-18T16:27:37.999Z</time></trkpt><trkpt lat="43.45988835407731" lon="12.01669809193534"><ele>356.0</ele><time>2026-04-18T16:27:38.999Z</time></trkpt><trkpt lat="43.45966222010595" lon="12.0165364022325"><ele>362.5</ele><time>2026-04-18T16:27:39.999Z</time></trkpt><trkpt lat="43.459426746808944" lon="12.016395722159984"><ele>369.0</ele><time>2026-04-18T16:27:40.999Z</time></trkpt><trkpt lat="43.45918385542927" lon="12.016269174137753"><ele>369.0</ele><time>2026-04-18T16:27:41.999Z</time></trkpt><trkpt lat="43.4589402716743" lon="12.01613867004886"><ele>369.0</ele><time>2026-04-18T16:27:42.999Z</time></trkpt><trkpt lat="43.458699659786376" lon="12.01599068087675"><ele>367.5</ele><time>2026-04-18T16:27:43.999Z</time></trkpt><trkpt lat="43.45846685207126" lon="12.015823642455745"><ele>366.0</ele><time>2026-04-18T16:27:44.999Z</time></trkpt><trkpt lat="43.458245744328806" lon="12.015632153663397"><ele>368.5</ele><time>2026-04-18T16:27:45.999Z</time></trkpt><trkpt lat="43.45804725470517" lon="12.015423407225569"><ele>371.0</ele><time>2026-04-18T16:27:46.999Z</time></trkpt><trkpt lat="43.45786369710769" lon="12.015195669276101"><ele>379.0</ele><time>2026-04-18T16:27:47.999Z</time></trkpt><trkpt lat="43.45768478694999" lon="12.014970668442825"><ele>387.0</ele><time>2026-04-18T16:27:48.999Z</time></trkpt><trkpt lat="43.457503959399055" lon="12.014755967771679"><ele>387.0</ele><time>2026-04-18T16:27:49.999Z</time></trkpt><trkpt lat="43.4572714277015" lon="12.014492641182834"><ele>387.0</ele><time>2026-04-18T16:27:50.999Z</time></trkpt><trkpt lat="43.457176624033615" lon="12.014068670870982"><ele>375.0</ele><time>2026-04-18T16:27:51.999Z</time></trkpt><trkpt lat="43.45710779638233" lon="12.013670428019392"><ele>363.0</ele><time>2026-04-18T16:27:52.999Z</time></trkpt><trkpt lat="43.45698286822123" lon="12.01334113494569"><ele>372.5</ele><time>2026-04-18T16:27:53.999Z</time></trkpt><trkpt lat="43.45685283590715" lon="12.013020631610468"><ele>382.0</ele><time>2026-04-18T16:27:54.999Z</time></trkpt><trkpt lat="43.45671409578951" lon="12.012714343025321"><ele>386.5</ele><time>2026-04-18T16:27:55.999Z</time></trkpt><trkpt lat="43.45657401709862" lon="12.012406041067551"><ele>391.0</ele><time>2026-04-18T16:27:56.999Z</time></trkpt><trkpt lat="43.4564282527939" lon="12.01211074796021"><ele>388.5</ele><time>2026-04-18T16:27:57.999Z</time></trkpt><trkpt lat="43.45628181664554" lon="12.011813852580218"><ele>386.0</ele><time>2026-04-18T16:27:58.999Z</time></trkpt><trkpt lat="43.45613231716679" lon="12.011520506470191"><ele>386.0</ele><time>2026-04-18T16:27:59.999Z</time></trkpt><trkpt lat="43.45596993110799" lon="12.011240260121488"><ele>386.0</ele><time>2026-04-18T16:28:00.999Z</time></trkpt><trkpt lat="43.45580334016056" lon="12.010958514293508"><ele>390.5</ele><time>2026-04-18T16:28:01.999Z</time></trkpt><trkpt lat="43.45563170588971" lon="12.010679880775944"><ele>395.0</ele><time>2026-04-18T16:28:02.999Z</time></trkpt><trkpt lat="43.45545298689242" lon="12.010406553819825"><ele>381.5</ele><time>2026-04-18T16:28:03.999Z</time></trkpt><trkpt lat="43.45526826599531" lon="12.010136651013667"><ele>368.0</ele><time>2026-04-18T16:28:04.999Z</time></trkpt><trkpt lat="43.455086630704365" lon="12.009861744403974"><ele>368.0</ele><time>2026-04-18T16:28:05.999Z</time></trkpt><trkpt lat="43.45490871465898" lon="12.009585213987242"><ele>368.0</ele><time>2026-04-18T16:28:06.999Z</time></trkpt><trkpt lat="43.45473502136469" lon="12.009302606646163"><ele>364.0</ele><time>2026-04-18T16:28:07.999Z</time></trkpt><trkpt lat="43.454564295390796" lon="12.009016478578086"><ele>360.0</ele><time>2026-04-18T16:28:08.999Z</time></trkpt><trkpt lat="43.45439570834668" lon="12.008727390604204"><ele>360.0</ele><time>2026-04-18T16:28:09.999Z</time></trkpt><trkpt lat="43.454232762178634" lon="12.008433896009661"><ele>360.0</ele><time>2026-04-18T16:28:10.999Z</time></trkpt><trkpt lat="43.45407731322977" lon="12.008132496282363"><ele>363.5</ele><time>2026-04-18T16:28:11.999Z</time></trkpt><trkpt lat="43.4539316723364" lon="12.007826834509872"><ele>367.0</ele><time>2026-04-18T16:28:12.999Z</time></trkpt><trkpt lat="43.453792459085456" lon="12.007518289811921"><ele>370.0</ele><time>2026-04-18T16:28:13.999Z</time></trkpt><trkpt lat="43.4536569032787" lon="12.007208395640099"><ele>373.0</ele><time>2026-04-18T16:28:14.999Z</time></trkpt><trkpt lat="43.45352513271672" lon="12.006894575850355"><ele>373.5</ele><time>2026-04-18T16:28:16Z</time></trkpt><trkpt lat="43.45339353616282" lon="12.006584306497352"><ele>374.0</ele><time>2026-04-18T16:28:17Z</time></trkpt><trkpt lat="43.45326339664155" lon="12.006269358606147"><ele>374.0</ele><time>2026-04-18T16:28:18Z</time></trkpt><trkpt lat="43.45313660055108" lon="12.00596255633627"><ele>374.0</ele><time>2026-04-18T16:28:19Z</time></trkpt><trkpt lat="43.453011370732526" lon="12.005654501683413"><ele>369.5</ele><time>2026-04-18T16:28:20Z</time></trkpt><trkpt lat="43.452883328817265" lon="12.005344586151487"><ele>365.0</ele><time>2026-04-18T16:28:21Z</time></trkpt><trkpt lat="43.45275454997285" lon="12.005035399756773"><ele>363.5</ele><time>2026-04-18T16:28:22Z</time></trkpt><trkpt lat="43.45262555719207" lon="12.004721465783966"><ele>362.0</ele><time>2026-04-18T16:28:23Z</time></trkpt><trkpt lat="43.452496172251756" lon="12.004405285051108"><ele>359.5</ele><time>2026-04-18T16:28:24Z</time></trkpt><trkpt lat="43.4523629095756" lon="12.004087964929887"><ele>357.0</ele><time>2026-04-18T16:28:25Z</time></trkpt><trkpt lat="43.45222321741803" lon="12.003773751347897"><ele>363.0</ele><time>2026-04-18T16:28:26Z</time></trkpt><trkpt lat="43.452078412224836" lon="12.003462909873077"><ele>369.0</ele><time>2026-04-18T16:28:27Z</time></trkpt><trkpt lat="43.451924757263036" lon="12.003159410599473"><ele>369.0</ele><time>2026-04-18T16:28:28Z</time></trkpt><trkpt lat="43.451764592313026" lon="12.002862867283019"><ele>369.0</ele><time>2026-04-18T16:28:29Z</time></trkpt><trkpt lat="43.4516022076248" lon="12.002570698096251"><ele>366.0</ele><time>2026-04-18T16:28:30Z</time></trkpt><trkpt lat="43.45144196673154" lon="12.002281257764832"><ele>363.0</ele><time>2026-04-18T16:28:31Z</time></trkpt><trkpt lat="43.4512797059958" lon="12.001993225296847"><ele>366.5</ele><time>2026-04-18T16:28:32Z</time></trkpt><trkpt lat="43.45111953772157" lon="12.001704876178493"><ele>370.0</ele><time>2026-04-18T16:28:33Z</time></trkpt><trkpt lat="43.45095926794674" lon="12.001415365112798"><ele>370.0</ele><time>2026-04-18T16:28:34Z</time></trkpt><trkpt lat="43.45080076756305" lon="12.001128693003539"><ele>370.0</ele><time>2026-04-18T16:28:35Z</time></trkpt><trkpt lat="43.450641467289834" lon="12.000841577047481"><ele>368.5</ele><time>2026-04-18T16:28:36Z</time></trkpt><trkpt lat="43.45048341812283" lon="12.000555927854949"><ele>367.0</ele><time>2026-04-18T16:28:37Z</time></trkpt><trkpt lat="43.45032776365124" lon="12.000271397560798"><ele>371.5</ele><time>2026-04-18T16:28:38Z</time></trkpt><trkpt lat="43.450171046040204" lon="11.999988871879738"><ele>376.0</ele><time>2026-04-18T16:28:39Z</time></trkpt><trkpt lat="43.45001338563049" lon="11.99970721803751"><ele>376.0</ele><time>2026-04-18T16:28:40Z</time></trkpt><trkpt lat="43.4498548103523" lon="11.999424987387227"><ele>376.0</ele><time>2026-04-18T16:28:41Z</time></trkpt><trkpt lat="43.44969855191997" lon="11.999143005989374"><ele>381.0</ele><time>2026-04-18T16:28:42Z</time></trkpt><trkpt lat="43.449538679378016" lon="11.998859747666055"><ele>386.0</ele><time>2026-04-18T16:28:43Z</time></trkpt><trkpt lat="43.44937625494834" lon="11.998571834722974"><ele>388.0</ele><time>2026-04-18T16:28:44Z</time></trkpt><trkpt lat="43.449220213984354" lon="11.998294487353737"><ele>390.0</ele><time>2026-04-18T16:28:45Z</time></trkpt><trkpt lat="43.44906185956276" lon="11.998003754314785"><ele>390.0</ele><time>2026-04-18T16:28:46Z</time></trkpt><trkpt lat="43.44890374813817" lon="11.99770915160155"><ele>390.0</ele><time>2026-04-18T16:28:47Z</time></trkpt><trkpt lat="43.44874605026566" lon="11.997422575319364"><ele>386.5</ele><time>2026-04-18T16:28:48Z</time></trkpt><trkpt lat="43.44858839763351" lon="11.99713836029137"><ele>383.0</ele><time>2026-04-18T16:28:49Z</time></trkpt><trkpt lat="43.44842890017609" lon="11.996851554227582"><ele>383.5</ele><time>2026-04-18T16:28:50Z</time></trkpt><trkpt lat="43.4482698769131" lon="11.99656621751805"><ele>384.0</ele><time>2026-04-18T16:28:51Z</time></trkpt><trkpt lat="43.448111337226344" lon="11.99627790702525"><ele>394.5</ele><time>2026-04-18T16:28:52Z</time></trkpt><trkpt lat="43.44795032450879" lon="11.995988795425246"><ele>405.0</ele><time>2026-04-18T16:28:53Z</time></trkpt><trkpt lat="43.44778786356227" lon="11.995698214586048"><ele>405.0</ele><time>2026-04-18T16:28:54Z</time></trkpt><trkpt lat="43.44762435614909" lon="11.995403950712324"><ele>405.0</ele><time>2026-04-18T16:28:55Z</time></trkpt><trkpt lat="43.447458303398115" lon="11.995107428718185"><ele>395.5</ele><time>2026-04-18T16:28:56Z</time></trkpt><trkpt lat="43.44728923813262" lon="11.99480763843511"><ele>386.0</ele><time>2026-04-18T16:28:57Z</time></trkpt><trkpt lat="43.447120698958706" lon="11.994504634846933"><ele>386.0</ele><time>2026-04-18T16:28:58Z</time></trkpt><trkpt lat="43.446952137576076" lon="11.994200248953778"><ele>386.0</ele><time>2026-04-18T16:28:59Z</time></trkpt><trkpt lat="43.44678263960872" lon="11.993894254299176"><ele>385.5</ele><time>2026-04-18T16:29:00Z</time></trkpt><trkpt lat="43.44661208102343" lon="11.993582605361683"><ele>385.0</ele><time>2026-04-18T16:29:01Z</time></trkpt><trkpt lat="43.44643838336064" lon="11.993268976814399"><ele>384.5</ele><time>2026-04-18T16:29:02Z</time></trkpt><trkpt lat="43.44626192181193" lon="11.992955860691303"><ele>384.0</ele><time>2026-04-18T16:29:03Z</time></trkpt><trkpt lat="43.44608371062643" lon="11.992639393448494"><ele>390.0</ele><time>2026-04-18T16:29:04Z</time></trkpt><trkpt lat="43.44590042109518" lon="11.992325915139965"><ele>396.0</ele><time>2026-04-18T16:29:05Z</time></trkpt><trkpt lat="43.44570824950922" lon="11.992018043460162"><ele>396.0</ele><time>2026-04-18T16:29:06Z</time></trkpt><trkpt lat="43.4455061581264" lon="11.99171969826428"><ele>396.0</ele><time>2026-04-18T16:29:07Z</time></trkpt><trkpt lat="43.445297943382386" lon="11.991427619009867"><ele>398.5</ele><time>2026-04-18T16:29:07.999Z</time></trkpt><trkpt lat="43.44508879743487" lon="11.991131929553118"><ele>401.0</ele><time>2026-04-18T16:29:08.999Z</time></trkpt><trkpt lat="43.444879797729854" lon="11.990830230576599"><ele>401.0</ele><time>2026-04-18T16:29:09.999Z</time></trkpt><trkpt lat="43.444668965144224" lon="11.990524361410452"><ele>401.0</ele><time>2026-04-18T16:29:10.999Z</time></trkpt><trkpt lat="43.44445836943394" lon="11.990220052536948"><ele>400.5</ele><time>2026-04-18T16:29:11.999Z</time></trkpt><trkpt lat="43.44424501075361" lon="11.989914242404552"><ele>400.0</ele><time>2026-04-18T16:29:12.999Z</time></trkpt><trkpt lat="43.44403163436381" lon="11.98960781857009"><ele>400.0</ele><time>2026-04-18T16:29:13.999Z</time></trkpt><trkpt lat="43.443819374432756" lon="11.989304014773086"><ele>400.0</ele><time>2026-04-18T16:29:14.999Z</time></trkpt><trkpt lat="43.44360881760975" lon="11.988998486156127"><ele>399.0</ele><time>2026-04-18T16:29:15.999Z</time></trkpt><trkpt lat="43.44340506907005" lon="11.98869021894313"><ele>398.0</ele><time>2026-04-18T16:29:16.999Z</time></trkpt><trkpt lat="43.443214599307986" lon="11.988368713190841"><ele>395.5</ele><time>2026-04-18T16:29:17.999Z</time></trkpt><trkpt lat="43.443031342087785" lon="11.988048166260386"><ele>393.0</ele><time>2026-04-18T16:29:18.999Z</time></trkpt><trkpt lat="43.44288995585695" lon="11.987680811091623"><ele>395.5</ele><time>2026-04-18T16:29:19.999Z</time></trkpt><trkpt lat="43.44275476572683" lon="11.98731291674853"><ele>398.0</ele><time>2026-04-18T16:29:20.999Z</time></trkpt><trkpt lat="43.44263681124272" lon="11.986934920745787"><ele>400.5</ele><time>2026-04-18T16:29:21.999Z</time></trkpt><trkpt lat="43.44253137748494" lon="11.986550006090996"><ele>403.0</ele><time>2026-04-18T16:29:22.999Z</time></trkpt><trkpt lat="43.44243712712074" lon="11.986158863088786"><ele>408.5</ele><time>2026-04-18T16:29:23.999Z</time></trkpt><trkpt lat="43.44233978095429" lon="11.98576655187761"><ele>414.0</ele><time>2026-04-18T16:29:24.999Z</time></trkpt><trkpt lat="43.442239818854034" lon="11.985375177365421"><ele>418.5</ele><time>2026-04-18T16:29:25.999Z</time></trkpt><trkpt lat="43.44213763803008" lon="11.984981499480229"><ele>423.0</ele><time>2026-04-18T16:29:26.999Z</time></trkpt><trkpt lat="43.44203810242117" lon="11.984586022541972"><ele>410.5</ele><time>2026-04-18T16:29:27.999Z</time></trkpt><trkpt lat="43.44193885847952" lon="11.984191795011986"><ele>398.0</ele><time>2026-04-18T16:29:28.999Z</time></trkpt><trkpt lat="43.441837768718685" lon="11.983800355771697"><ele>398.0</ele><time>2026-04-18T16:29:29.999Z</time></trkpt><trkpt lat="43.44173556843083" lon="11.98340643838255"><ele>398.0</ele><time>2026-04-18T16:29:30.999Z</time></trkpt><trkpt lat="43.4416332772144" lon="11.983012751663136"><ele>402.5</ele><time>2026-04-18T16:29:31.999Z</time></trkpt><trkpt lat="43.44153431996088" lon="11.982617439335417"><ele>407.0</ele><time>2026-04-18T16:29:32.999Z</time></trkpt><trkpt lat="43.44143487468048" lon="11.982223472345547"><ele>413.0</ele><time>2026-04-18T16:29:33.999Z</time></trkpt><trkpt lat="43.441331182089385" lon="11.981830603048248"><ele>419.0</ele><time>2026-04-18T16:29:34.999Z</time></trkpt><trkpt lat="43.4412174279657" lon="11.981440773350538"><ele>405.5</ele><time>2026-04-18T16:29:35.999Z</time></trkpt><trkpt lat="43.44109370828453" lon="11.981060078426525"><ele>392.0</ele><time>2026-04-18T16:29:36.999Z</time></trkpt><trkpt lat="43.44095814101888" lon="11.9806842560963"><ele>391.5</ele><time>2026-04-18T16:29:37.999Z</time></trkpt><trkpt lat="43.440808751006806" lon="11.980318904451"><ele>391.0</ele><time>2026-04-18T16:29:38.999Z</time></trkpt><trkpt lat="43.440638942058655" lon="11.979973960866715"><ele>407.0</ele><time>2026-04-18T16:29:39.999Z</time></trkpt><trkpt lat="43.44045237066429" lon="11.979649716066422"><ele>423.0</ele><time>2026-04-18T16:29:40.999Z</time></trkpt><trkpt lat="43.44025773088318" lon="11.979341680758758"><ele>413.5</ele><time>2026-04-18T16:29:41.999Z</time></trkpt><trkpt lat="43.44005161600786" lon="11.97904737746185"><ele>404.0</ele><time>2026-04-18T16:29:42.999Z</time></trkpt><trkpt lat="43.43983477599431" lon="11.978775557460816"><ele>406.0</ele><time>2026-04-18T16:29:43.999Z</time></trkpt><trkpt lat="43.439603843784745" lon="11.978521522032429"><ele>408.0</ele><time>2026-04-18T16:29:44.999Z</time></trkpt><trkpt lat="43.43936794892672" lon="11.978279704783859"><ele>400.5</ele><time>2026-04-18T16:29:45.999Z</time></trkpt><trkpt lat="43.43912193349545" lon="11.978058778317543"><ele>393.0</ele><time>2026-04-18T16:29:46.999Z</time></trkpt><trkpt lat="43.438867579670685" lon="11.977856835557514"><ele>393.5</ele><time>2026-04-18T16:29:47.999Z</time></trkpt><trkpt lat="43.438607544434646" lon="11.977673571522125"><ele>394.0</ele><time>2026-04-18T16:29:48.999Z</time></trkpt><trkpt lat="43.43833810231721" lon="11.977512112549272"><ele>393.5</ele><time>2026-04-18T16:29:49.999Z</time></trkpt><trkpt lat="43.43806064631696" lon="11.977372918212506"><ele>393.0</ele><time>2026-04-18T16:29:50.999Z</time></trkpt><trkpt lat="43.43777829279969" lon="11.9772533175134"><ele>393.0</ele><time>2026-04-18T16:29:51.999Z</time></trkpt><trkpt lat="43.43749171735613" lon="11.977155461074162"><ele>393.0</ele><time>2026-04-18T16:29:52.999Z</time></trkpt><trkpt lat="43.43719937510096" lon="11.977081015354074"><ele>393.5</ele><time>2026-04-18T16:29:53.999Z</time></trkpt><trkpt lat="43.4369044125762" lon="11.977031955401097"><ele>394.0</ele><time>2026-04-18T16:29:54.999Z</time></trkpt><trkpt lat="43.436606984587335" lon="11.977002795459894"><ele>394.0</ele><time>2026-04-18T16:29:55.999Z</time></trkpt><trkpt lat="43.436309362634496" lon="11.976995453989526"><ele>394.0</ele><time>2026-04-18T16:29:56.999Z</time></trkpt><trkpt lat="43.43601268735356" lon="11.977010520541015"><ele>399.5</ele><time>2026-04-18T16:29:57.999Z</time></trkpt><trkpt lat="43.435716417873714" lon="11.977040522385103"><ele>405.0</ele><time>2026-04-18T16:29:58.999Z</time></trkpt><trkpt lat="43.43542562395053" lon="11.977079159029632"><ele>419.5</ele><time>2026-04-18T16:29:59.999Z</time></trkpt><trkpt lat="43.435127097049914" lon="11.977107768629306"><ele>434.0</ele><time>2026-04-18T16:30:00.999Z</time></trkpt><trkpt lat="43.43482675935821" lon="11.977133887986277"><ele>431.5</ele><time>2026-04-18T16:30:01.999Z</time></trkpt><trkpt lat="43.43452692796087" lon="11.977158900913338"><ele>429.0</ele><time>2026-04-18T16:30:02.999Z</time></trkpt><trkpt lat="43.43422695959058" lon="11.97718136724658"><ele>429.0</ele><time>2026-04-18T16:30:03.998Z</time></trkpt><trkpt lat="43.4339284742216" lon="11.977210490446172"><ele>429.0</ele><time>2026-04-18T16:30:04.998Z</time></trkpt><trkpt lat="43.433589848913925" lon="11.977244942710222"><ele>418.5</ele><time>2026-04-18T16:30:06.062Z</time></trkpt><trkpt lat="43.433283264551086" lon="11.977272419755202"><ele>408.0</ele><time>2026-04-18T16:30:07.064Z</time></trkpt><trkpt lat="43.43297959533298" lon="11.977297567329549"><ele>403.0</ele><time>2026-04-18T16:30:08.059Z</time></trkpt><trkpt lat="43.43269280027482" lon="11.977304431347658"><ele>398.0</ele><time>2026-04-18T16:30:08.998Z</time></trkpt><trkpt lat="43.43248361215702" lon="11.977334481059088"><ele>398.0</ele><time>2026-04-18T16:30:09.998Z</time></trkpt><trkpt lat="43.4321955868345" lon="11.977370362247104"><ele>398.0</ele><time>2026-04-18T16:30:10.998Z</time></trkpt><trkpt lat="43.431900874149996" lon="11.977402272868614"><ele>398.0</ele><time>2026-04-18T16:30:11.998Z</time></trkpt><trkpt lat="43.431608521502106" lon="11.977415068762902"><ele>398.0</ele><time>2026-04-18T16:30:12.998Z</time></trkpt><trkpt lat="43.43130994499668" lon="11.977403819829576"><ele>398.0</ele><time>2026-04-18T16:30:13.998Z</time></trkpt><trkpt lat="43.431017517965664" lon="11.977363707496504"><ele>398.0</ele><time>2026-04-18T16:30:14.998Z</time></trkpt><trkpt lat="43.43073192137243" lon="11.97729365333886"><ele>397.0</ele><time>2026-04-18T16:30:15.998Z</time></trkpt><trkpt lat="43.43044992734568" lon="11.977201500102748"><ele>396.0</ele><time>2026-04-18T16:30:16.998Z</time></trkpt><trkpt lat="43.430169514850576" lon="11.977091266259134"><ele>396.0</ele><time>2026-04-18T16:30:17.998Z</time></trkpt><trkpt lat="43.429892391643676" lon="11.976963925267283"><ele>396.0</ele><time>2026-04-18T16:30:18.998Z</time></trkpt><trkpt lat="43.42961597014411" lon="11.976825031665307"><ele>398.5</ele><time>2026-04-18T16:30:19.998Z</time></trkpt><trkpt lat="43.42933709227068" lon="11.976682248486853"><ele>401.0</ele><time>2026-04-18T16:30:20.998Z</time></trkpt><trkpt lat="43.4290578491607" lon="11.976534892771465"><ele>401.0</ele><time>2026-04-18T16:30:22Z</time></trkpt><trkpt lat="43.428781430900784" lon="11.97638442896067"><ele>401.0</ele><time>2026-04-18T16:30:23Z</time></trkpt><trkpt lat="43.42850422869558" lon="11.976232834926012"><ele>401.0</ele><time>2026-04-18T16:30:24Z</time></trkpt><trkpt lat="43.42822674997874" lon="11.976085093058723"><ele>401.0</ele><time>2026-04-18T16:30:25Z</time></trkpt><trkpt lat="43.42794961815779" lon="11.975938332610951"><ele>405.5</ele><time>2026-04-18T16:30:26Z</time></trkpt><trkpt lat="43.42767384597355" lon="11.975793322206325"><ele>410.0</ele><time>2026-04-18T16:30:27Z</time></trkpt><trkpt lat="43.427394678701724" lon="11.975645702311834"><ele>407.0</ele><time>2026-04-18T16:30:28Z</time></trkpt><trkpt lat="43.42711464655537" lon="11.975498877889963"><ele>404.0</ele><time>2026-04-18T16:30:29Z</time></trkpt><trkpt lat="43.42683562508658" lon="11.975351954687222"><ele>404.0</ele><time>2026-04-18T16:30:30Z</time></trkpt><trkpt lat="43.42655771018369" lon="11.975205235668199"><ele>404.0</ele><time>2026-04-18T16:30:31Z</time></trkpt><trkpt lat="43.426281263896854" lon="11.975054550054036"><ele>405.5</ele><time>2026-04-18T16:30:32Z</time></trkpt><trkpt lat="43.42600642397897" lon="11.974904992921598"><ele>407.0</ele><time>2026-04-18T16:30:33Z</time></trkpt><trkpt lat="43.42573129461296" lon="11.974753531706208"><ele>405.5</ele><time>2026-04-18T16:30:34Z</time></trkpt><trkpt lat="43.4254618531312" lon="11.974592497794271"><ele>404.0</ele><time>2026-04-18T16:30:35Z</time></trkpt><trkpt lat="43.42520038135936" lon="11.974409685932223"><ele>404.0</ele><time>2026-04-18T16:30:36Z</time></trkpt><trkpt lat="43.42495132682915" lon="11.974198924718873"><ele>404.0</ele><time>2026-04-18T16:30:37Z</time></trkpt><trkpt lat="43.42471681838828" lon="11.973964700924283"><ele>407.0</ele><time>2026-04-18T16:30:38Z</time></trkpt><trkpt lat="43.424504590873404" lon="11.97370708126207"><ele>410.0</ele><time>2026-04-18T16:30:39Z</time></trkpt><trkpt lat="43.42430566052469" lon="11.973437593023455"><ele>414.0</ele><time>2026-04-18T16:30:40Z</time></trkpt><trkpt lat="43.42411160572708" lon="11.973158797340396"><ele>418.0</ele><time>2026-04-18T16:30:41Z</time></trkpt><trkpt lat="43.42390201425347" lon="11.972882039081657"><ele>413.5</ele><time>2026-04-18T16:30:42Z</time></trkpt><trkpt lat="43.423686726739895" lon="11.972585453119397"><ele>409.0</ele><time>2026-04-18T16:30:43Z</time></trkpt><trkpt lat="43.42353593249492" lon="11.972242649592715"><ele>409.0</ele><time>2026-04-18T16:30:44Z</time></trkpt><trkpt lat="43.42337060184553" lon="11.97184588037642"><ele>409.0</ele><time>2026-04-18T16:30:45Z</time></trkpt><trkpt lat="43.42326581185732" lon="11.971449753945427"><ele>410.0</ele><time>2026-04-18T16:30:46Z</time></trkpt><trkpt lat="43.423190003062345" lon="11.971035668015228"><ele>411.0</ele><time>2026-04-18T16:30:47Z</time></trkpt><trkpt lat="43.42314655717727" lon="11.97059706049959"><ele>411.0</ele><time>2026-04-18T16:30:48Z</time></trkpt><trkpt lat="43.423098353766925" lon="11.970177954192161"><ele>411.0</ele><time>2026-04-18T16:30:49Z</time></trkpt><trkpt lat="43.42306352339051" lon="11.969765570417524"><ele>410.0</ele><time>2026-04-18T16:30:50Z</time></trkpt><trkpt lat="43.42305036819783" lon="11.969356430074392"><ele>409.0</ele><time>2026-04-18T16:30:51Z</time></trkpt><trkpt lat="43.42306437168714" lon="11.968947066267859"><ele>408.5</ele><time>2026-04-18T16:30:52Z</time></trkpt><trkpt lat="43.42310069848751" lon="11.968539224556455"><ele>408.0</ele><time>2026-04-18T16:30:53Z</time></trkpt><trkpt lat="43.42315067699646" lon="11.96813519560629"><ele>408.0</ele><time>2026-04-18T16:30:54Z</time></trkpt><trkpt lat="43.42321384061481" lon="11.967737950277124"><ele>408.0</ele><time>2026-04-18T16:30:55Z</time></trkpt><trkpt lat="43.42327833527377" lon="11.96734750434632"><ele>409.5</ele><time>2026-04-18T16:30:56Z</time></trkpt><trkpt lat="43.42334334037328" lon="11.966959117949095"><ele>411.0</ele><time>2026-04-18T16:30:57Z</time></trkpt><trkpt lat="43.42340647689337" lon="11.966575356567978"><ele>414.0</ele><time>2026-04-18T16:30:58Z</time></trkpt><trkpt lat="43.42347123511733" lon="11.96619006659083"><ele>417.0</ele><time>2026-04-18T16:30:59Z</time></trkpt><trkpt lat="43.42352856338455" lon="11.965820112855079"><ele>420.0</ele><time>2026-04-18T16:31:00Z</time></trkpt><trkpt lat="43.42358047845648" lon="11.965446334694816"><ele>423.0</ele><time>2026-04-18T16:31:01Z</time></trkpt><trkpt lat="43.4236299209883" lon="11.965071692947133"><ele>422.0</ele><time>2026-04-18T16:31:02Z</time></trkpt><trkpt lat="43.42368614588922" lon="11.964660101995655"><ele>421.0</ele><time>2026-04-18T16:31:02.999Z</time></trkpt><trkpt lat="43.42373792465348" lon="11.964278021795527"><ele>420.5</ele><time>2026-04-18T16:31:03.999Z</time></trkpt><trkpt lat="43.4237909910217" lon="11.963879514544525"><ele>420.0</ele><time>2026-04-18T16:31:05.054Z</time></trkpt><trkpt lat="43.42397044310954" lon="11.963106032716183"><ele>421.5</ele><time>2026-04-18T16:31:06.999Z</time></trkpt><trkpt lat="43.424042384287695" lon="11.962720437349601"><ele>423.0</ele><time>2026-04-18T16:31:07.999Z</time></trkpt><trkpt lat="43.42410430828189" lon="11.962308576523409"><ele>423.0</ele><time>2026-04-18T16:31:08.999Z</time></trkpt><trkpt lat="43.4241660117704" lon="11.961912732715554"><ele>423.0</ele><time>2026-04-18T16:31:09.999Z</time></trkpt><trkpt lat="43.42422715491869" lon="11.961519724916934"><ele>423.5</ele><time>2026-04-18T16:31:10.999Z</time></trkpt><trkpt lat="43.4242915459259" lon="11.961122804910854"><ele>424.0</ele><time>2026-04-18T16:31:11.999Z</time></trkpt><trkpt lat="43.42435707464115" lon="11.960720084591255"><ele>424.0</ele><time>2026-04-18T16:31:12.999Z</time></trkpt><trkpt lat="43.42442087019878" lon="11.96031195277849"><ele>424.0</ele><time>2026-04-18T16:31:13.999Z</time></trkpt><trkpt lat="43.42448601652144" lon="11.959898622192247"><ele>423.0</ele><time>2026-04-18T16:31:14.999Z</time></trkpt><trkpt lat="43.4245507699863" lon="11.959481954344476"><ele>422.0</ele><time>2026-04-18T16:31:15.999Z</time></trkpt><trkpt lat="43.42461833125016" lon="11.959070162982087"><ele>431.0</ele><time>2026-04-18T16:31:16.999Z</time></trkpt><trkpt lat="43.42468487441884" lon="11.958662393816653"><ele>440.0</ele><time>2026-04-18T16:31:17.999Z</time></trkpt><trkpt lat="43.42474998876618" lon="11.958251690982452"><ele>440.5</ele><time>2026-04-18T16:31:18.999Z</time></trkpt><trkpt lat="43.42481392138598" lon="11.957843747279036"><ele>441.0</ele><time>2026-04-18T16:31:19.999Z</time></trkpt><trkpt lat="43.42487819113468" lon="11.957438230304314"><ele>441.0</ele><time>2026-04-18T16:31:20.999Z</time></trkpt><trkpt lat="43.42494329288234" lon="11.957034639185833"><ele>441.0</ele><time>2026-04-18T16:31:21.999Z</time></trkpt><trkpt lat="43.425007983356814" lon="11.956635134336175"><ele>439.0</ele><time>2026-04-18T16:31:22.999Z</time></trkpt><trkpt lat="43.425073407249336" lon="11.95624212141099"><ele>437.0</ele><time>2026-04-18T16:31:23.999Z</time></trkpt><trkpt lat="43.42513663957345" lon="11.955857636881046"><ele>436.0</ele><time>2026-04-18T16:31:24.999Z</time></trkpt><trkpt lat="43.425195155053096" lon="11.95549714219161"><ele>435.0</ele><time>2026-04-18T16:31:25.999Z</time></trkpt><trkpt lat="43.42525012079837" lon="11.95515933453713"><ele>436.0</ele><time>2026-04-18T16:31:26.999Z</time></trkpt><trkpt lat="43.425302027598896" lon="11.95484069739752"><ele>437.0</ele><time>2026-04-18T16:31:27.999Z</time></trkpt><trkpt lat="43.425352008523376" lon="11.95453387509762"><ele>437.0</ele><time>2026-04-18T16:31:28.999Z</time></trkpt><trkpt lat="43.425397364779016" lon="11.954239307385826"><ele>437.0</ele><time>2026-04-18T16:31:29.999Z</time></trkpt><trkpt lat="43.42543686058036" lon="11.953960905609858"><ele>437.0</ele><time>2026-04-18T16:31:30.999Z</time></trkpt><trkpt lat="43.42547836280747" lon="11.953696068696274"><ele>437.66666666666663</ele><time>2026-04-18T16:31:31.999Z</time></trkpt><trkpt lat="43.425519002674655" lon="11.953438282813684"><ele>438.33333333333337</ele><time>2026-04-18T16:31:32.999Z</time></trkpt><trkpt lat="43.42555869682293" lon="11.953190588143428"><ele>439.0</ele><time>2026-04-18T16:31:33.999Z</time></trkpt><trkpt lat="43.42559769895101" lon="11.952954978177234"><ele>439.0</ele><time>2026-04-18T16:31:34.999Z</time></trkpt><trkpt lat="43.4256351827629" lon="11.952741995981592"><ele>439.0</ele><time>2026-04-18T16:31:35.999Z</time></trkpt><trkpt lat="43.4256805532859" lon="11.952545074037367"><ele>439.0</ele><time>2026-04-18T16:31:36.999Z</time></trkpt><trkpt lat="43.42573820170013" lon="11.952363239314245"><ele>439.25</ele><time>2026-04-18T16:31:37.999Z</time></trkpt><trkpt lat="43.425808891406035" lon="11.95219651878389"><ele>439.5</ele><time>2026-04-18T16:31:38.999Z</time></trkpt><trkpt lat="43.42587219681575" lon="11.952025807802112"><ele>439.75</ele><time>2026-04-18T16:31:39.999Z</time></trkpt><trkpt lat="43.425912323567346" lon="11.951826314883196"><ele>440.0</ele><time>2026-04-18T16:31:40.999Z</time></trkpt><trkpt lat="43.425933199260804" lon="11.951609183934943"><ele>442.66666666666663</ele><time>2026-04-18T16:31:41.999Z</time></trkpt><trkpt lat="43.4259503726485" lon="11.951376334777159"><ele>445.33333333333337</ele><time>2026-04-18T16:31:42.999Z</time></trkpt><trkpt lat="43.425982224948335" lon="11.951139759530188"><ele>448.0</ele><time>2026-04-18T16:31:43.999Z</time></trkpt><trkpt lat="43.42604152136815" lon="11.950893310513555"><ele>449.6666666666667</ele><time>2026-04-18T16:31:44.999Z</time></trkpt><trkpt lat="43.42611657213298" lon="11.950638613320347"><ele>451.33333333333337</ele><time>2026-04-18T16:31:45.999Z</time></trkpt><trkpt lat="43.42619631271584" lon="11.950392715962273"><ele>453.0</ele><time>2026-04-18T16:31:46.999Z</time></trkpt><trkpt lat="43.42627514465459" lon="11.950151595936664"><ele>453.66666666666663</ele><time>2026-04-18T16:31:47.999Z</time></trkpt><trkpt lat="43.42635597007631" lon="11.949904184377287"><ele>454.3333333333333</ele><time>2026-04-18T16:31:48.999Z</time></trkpt><trkpt lat="43.42644076067753" lon="11.949648431242252"><ele>455.0</ele><time>2026-04-18T16:31:49.999Z</time></trkpt><trkpt lat="43.42652117416945" lon="11.949384642035923"><ele>453.0</ele><time>2026-04-18T16:31:50.999Z</time></trkpt><trkpt lat="43.42659854999503" lon="11.949117228465356"><ele>451.0</ele><time>2026-04-18T16:31:51.999Z</time></trkpt><trkpt lat="43.42667410354338" lon="11.948848990143697"><ele>449.0</ele><time>2026-04-18T16:31:52.999Z</time></trkpt><trkpt lat="43.42674965843001" lon="11.948582125402105"><ele>449.66666666666663</ele><time>2026-04-18T16:31:53.999Z</time></trkpt><trkpt lat="43.426830138035704" lon="11.948313660370973"><ele>450.33333333333337</ele><time>2026-04-18T16:31:54.999Z</time></trkpt><trkpt lat="43.426909518347294" lon="11.948043287019635"><ele>451.0</ele><time>2026-04-18T16:31:55.999Z</time></trkpt><trkpt lat="43.42699040737671" lon="11.947767978666256"><ele>452.0</ele><time>2026-04-18T16:31:56.999Z</time></trkpt><trkpt lat="43.4270781808842" lon="11.94749580085681"><ele>453.0</ele><time>2026-04-18T16:31:57.999Z</time></trkpt><trkpt lat="43.42716837632207" lon="11.94722553679245"><ele>454.0</ele><time>2026-04-18T16:31:58.999Z</time></trkpt><trkpt lat="43.42725368009262" lon="11.946963624979496"><ele>457.6666666666667</ele><time>2026-04-18T16:31:59.999Z</time></trkpt><trkpt lat="43.42732756357935" lon="11.946702378117482"><ele>461.33333333333337</ele><time>2026-04-18T16:32:00.999Z</time></trkpt><trkpt lat="43.427390187548205" lon="11.946437215327622"><ele>465.0</ele><time>2026-04-18T16:32:01.999Z</time></trkpt><trkpt lat="43.427440337254396" lon="11.9461694122252"><ele>465.0</ele><time>2026-04-18T16:32:02.999Z</time></trkpt><trkpt lat="43.4274814211546" lon="11.94590167334615"><ele>465.0</ele><time>2026-04-18T16:32:03.999Z</time></trkpt><trkpt lat="43.42750829549776" lon="11.94562908094381"><ele>465.0</ele><time>2026-04-18T16:32:04.999Z</time></trkpt><trkpt lat="43.42752449991352" lon="11.945350932896371"><ele>464.0</ele><time>2026-04-18T16:32:05.999Z</time></trkpt><trkpt lat="43.427530806391715" lon="11.945068979556474"><ele>463.0</ele><time>2026-04-18T16:32:06.999Z</time></trkpt><trkpt lat="43.42752659555417" lon="11.944782414233298"><ele>462.0</ele><time>2026-04-18T16:32:07.999Z</time></trkpt><trkpt lat="43.427509969712695" lon="11.94450106002615"><ele>461.0</ele><time>2026-04-18T16:32:08.999Z</time></trkpt><trkpt lat="43.42748265788542" lon="11.944219494269177"><ele>460.0</ele><time>2026-04-18T16:32:09.999Z</time></trkpt><trkpt lat="43.42744445425583" lon="11.943939000652337"><ele>459.0</ele><time>2026-04-18T16:32:10.999Z</time></trkpt><trkpt lat="43.42739382770215" lon="11.94366228783285"><ele>459.0</ele><time>2026-04-18T16:32:11.999Z</time></trkpt><trkpt lat="43.427329260854954" lon="11.943389164539395"><ele>459.0</ele><time>2026-04-18T16:32:12.999Z</time></trkpt><trkpt lat="43.42725307588006" lon="11.94312597493077"><ele>459.0</ele><time>2026-04-18T16:32:13.999Z</time></trkpt><trkpt lat="43.42716874169517" lon="11.942873356594426"><ele>460.0</ele><time>2026-04-18T16:32:14.999Z</time></trkpt><trkpt lat="43.42707829267808" lon="11.942629335920945"><ele>461.0</ele><time>2026-04-18T16:32:15.999Z</time></trkpt><trkpt lat="43.426977240867984" lon="11.942391619282697"><ele>462.0</ele><time>2026-04-18T16:32:16.999Z</time></trkpt><trkpt lat="43.42686747611918" lon="11.942160128936326"><ele>462.0</ele><time>2026-04-18T16:32:17.999Z</time></trkpt><trkpt lat="43.426749841283076" lon="11.941935139558652"><ele>462.0</ele><time>2026-04-18T16:32:18.999Z</time></trkpt><trkpt lat="43.42661606832561" lon="11.941720328233469"><ele>462.0</ele><time>2026-04-18T16:32:19.999Z</time></trkpt><trkpt lat="43.426470014151015" lon="11.941512941826675"><ele>462.0</ele><time>2026-04-18T16:32:20.999Z</time></trkpt><trkpt lat="43.42631472215758" lon="11.941317686693415"><ele>462.0</ele><time>2026-04-18T16:32:21.999Z</time></trkpt><trkpt lat="43.426152712035716" lon="11.941134553593804"><ele>462.0</ele><time>2026-04-18T16:32:22.999Z</time></trkpt><trkpt lat="43.42598228011812" lon="11.94096604402392"><ele>462.0</ele><time>2026-04-18T16:32:23.999Z</time></trkpt><trkpt lat="43.4258046485684" lon="11.940806501922415"><ele>462.0</ele><time>2026-04-18T16:32:24.999Z</time></trkpt><trkpt lat="43.42561556146862" lon="11.94066210119444"><ele>462.0</ele><time>2026-04-18T16:32:25.999Z</time></trkpt><trkpt lat="43.42542203618032" lon="11.940523944869666"><ele>462.0</ele><time>2026-04-18T16:32:26.999Z</time></trkpt><trkpt lat="43.42521029754361" lon="11.940419759336258"><ele>462.0</ele><time>2026-04-18T16:32:28Z</time></trkpt><trkpt lat="43.42500533837109" lon="11.940324591206425"><ele>462.0</ele><time>2026-04-18T16:32:29Z</time></trkpt><trkpt lat="43.424801267439214" lon="11.940233149407986"><ele>462.0</ele><time>2026-04-18T16:32:30Z</time></trkpt><trkpt lat="43.424589786267404" lon="11.940148219820864"><ele>462.0</ele><time>2026-04-18T16:32:31Z</time></trkpt><trkpt lat="43.42437559835598" lon="11.940052264183482"><ele>462.0</ele><time>2026-04-18T16:32:32Z</time></trkpt><trkpt lat="43.42414661503243" lon="11.939964434584944"><ele>468.5</ele><time>2026-04-18T16:32:33Z</time></trkpt><trkpt lat="43.42390230658865" lon="11.939852539646914"><ele>475.0</ele><time>2026-04-18T16:32:34Z</time></trkpt><trkpt lat="43.42363610863866" lon="11.939740939484548"><ele>475.0</ele><time>2026-04-18T16:32:35Z</time></trkpt><trkpt lat="43.423349741621465" lon="11.939620883690383"><ele>475.0</ele><time>2026-04-18T16:32:36Z</time></trkpt><trkpt lat="43.423047967870225" lon="11.939494368827058"><ele>474.0</ele><time>2026-04-18T16:32:37Z</time></trkpt><trkpt lat="43.42273615896631" lon="11.93936315002921"><ele>473.0</ele><time>2026-04-18T16:32:38Z</time></trkpt><trkpt lat="43.42242819006652" lon="11.93923230980727"><ele>480.0</ele><time>2026-04-18T16:32:39Z</time></trkpt><trkpt lat="43.422125765536116" lon="11.939103840379008"><ele>487.0</ele><time>2026-04-18T16:32:40Z</time></trkpt><trkpt lat="43.42180922933382" lon="11.9389703531559"><ele>487.0</ele><time>2026-04-18T16:32:41Z</time></trkpt><trkpt lat="43.421714208861" lon="11.93893752153559"><ele>487.0</ele><time>2026-04-18T16:32:42Z</time></trkpt><trkpt lat="43.421443787281575" lon="11.938827285838949"><ele>487.0</ele><time>2026-04-18T16:32:43Z</time></trkpt><trkpt lat="43.42118430157799" lon="11.938720689428889"><ele>482.0</ele><time>2026-04-18T16:32:44Z</time></trkpt><trkpt lat="43.42093812470499" lon="11.938614183806"><ele>477.0</ele><time>2026-04-18T16:32:45Z</time></trkpt><trkpt lat="43.42069860410754" lon="11.938508370505073"><ele>479.0</ele><time>2026-04-18T16:32:46Z</time></trkpt><trkpt lat="43.42046491071968" lon="11.938400256869983"><ele>481.0</ele><time>2026-04-18T16:32:47Z</time></trkpt><trkpt lat="43.420242341884375" lon="11.938289209446072"><ele>483.33333333333337</ele><time>2026-04-18T16:32:48Z</time></trkpt><trkpt lat="43.420039335185514" lon="11.938142613270543"><ele>485.66666666666663</ele><time>2026-04-18T16:32:49Z</time></trkpt><trkpt lat="43.41984314369174" lon="11.93801258411672"><ele>488.0</ele><time>2026-04-18T16:32:50Z</time></trkpt><trkpt lat="43.41965626081418" lon="11.937870600121936"><ele>486.3333333333333</ele><time>2026-04-18T16:32:51Z</time></trkpt><trkpt lat="43.419472014807674" lon="11.937717646902888"><ele>484.66666666666663</ele><time>2026-04-18T16:32:52Z</time></trkpt><trkpt lat="43.419293615215565" lon="11.937564193303214"><ele>483.0</ele><time>2026-04-18T16:32:53Z</time></trkpt><trkpt lat="43.419121313104206" lon="11.937397882407215"><ele>484.0</ele><time>2026-04-18T16:32:54Z</time></trkpt><trkpt lat="43.41895508935323" lon="11.937214879207938"><ele>485.0</ele><time>2026-04-18T16:32:55Z</time></trkpt><trkpt lat="43.41879032214683" lon="11.937026225980691"><ele>486.0</ele><time>2026-04-18T16:32:56Z</time></trkpt><trkpt lat="43.4186322716644" lon="11.936824674490307"><ele>488.33333333333337</ele><time>2026-04-18T16:32:57Z</time></trkpt><trkpt lat="43.41847613918141" lon="11.936613419572321"><ele>490.6666666666667</ele><time>2026-04-18T16:32:58Z</time></trkpt><trkpt lat="43.41832045402259" lon="11.936400461362613"><ele>493.0</ele><time>2026-04-18T16:32:59Z</time></trkpt><trkpt lat="43.41816564868688" lon="11.936187610888787"><ele>493.0</ele><time>2026-04-18T16:33:00Z</time></trkpt><trkpt lat="43.418002607903034" lon="11.935993937384136"><ele>493.0</ele><time>2026-04-18T16:33:01Z</time></trkpt><trkpt lat="43.41786182238313" lon="11.935789130514832"><ele>493.0</ele><time>2026-04-18T16:33:02Z</time></trkpt><trkpt lat="43.417721513714206" lon="11.935592848970607"><ele>492.6666666666667</ele><time>2026-04-18T16:33:03Z</time></trkpt><trkpt lat="43.41758193551186" lon="11.935398970327476"><ele>492.33333333333337</ele><time>2026-04-18T16:33:04Z</time></trkpt><trkpt lat="43.41743963371603" lon="11.935201031915748"><ele>492.0</ele><time>2026-04-18T16:33:05Z</time></trkpt><trkpt lat="43.41730206081823" lon="11.934999407291768"><ele>491.66666666666663</ele><time>2026-04-18T16:33:06Z</time></trkpt><trkpt lat="43.41716991637332" lon="11.934797749435777"><ele>491.3333333333333</ele><time>2026-04-18T16:33:07Z</time></trkpt><trkpt lat="43.41704326914423" lon="11.934589007953399"><ele>491.0</ele><time>2026-04-18T16:33:08Z</time></trkpt><trkpt lat="43.416925920712494" lon="11.934371933126709"><ele>494.0</ele><time>2026-04-18T16:33:09Z</time></trkpt><trkpt lat="43.4168281717994" lon="11.93413305496603"><ele>497.0</ele><time>2026-04-18T16:33:10Z</time></trkpt><trkpt lat="43.41673926759767" lon="11.933886097591733"><ele>500.0</ele><time>2026-04-18T16:33:11Z</time></trkpt><trkpt lat="43.41666395489527" lon="11.933628804034612"><ele>503.3333333333333</ele><time>2026-04-18T16:33:12Z</time></trkpt><trkpt lat="43.41660163616457" lon="11.933362883268822"><ele>506.66666666666663</ele><time>2026-04-18T16:33:13Z</time></trkpt><trkpt lat="43.4165485619749" lon="11.933086160524539"><ele>510.0</ele><time>2026-04-18T16:33:14Z</time></trkpt><trkpt lat="43.41651887478251" lon="11.932815458932497"><ele>511.66666666666663</ele><time>2026-04-18T16:33:15Z</time></trkpt><trkpt lat="43.41649988000745" lon="11.932552000099003"><ele>513.3333333333333</ele><time>2026-04-18T16:33:16Z</time></trkpt><trkpt lat="43.416496212995945" lon="11.932290912370188"><ele>515.0</ele><time>2026-04-18T16:33:17Z</time></trkpt><trkpt lat="43.416510709566076" lon="11.932030758486711"><ele>515.0</ele><time>2026-04-18T16:33:18Z</time></trkpt><trkpt lat="43.416537097109895" lon="11.931756150116936"><ele>515.0</ele><time>2026-04-18T16:33:19Z</time></trkpt><trkpt lat="43.416565258437444" lon="11.931485557640729"><ele>515.0</ele><time>2026-04-18T16:33:20Z</time></trkpt><trkpt lat="43.41663147616834" lon="11.93119900185825"><ele>511.5</ele><time>2026-04-18T16:33:21Z</time></trkpt><trkpt lat="43.416685571661255" lon="11.930900960604271"><ele>508.0</ele><time>2026-04-18T16:33:22Z</time></trkpt><trkpt lat="43.41674599820752" lon="11.930577166808913"><ele>507.5</ele><time>2026-04-18T16:33:23Z</time></trkpt><trkpt lat="43.41680898611893" lon="11.930237150213859"><ele>507.0</ele><time>2026-04-18T16:33:24Z</time></trkpt><trkpt lat="43.416874747771125" lon="11.929881417970288"><ele>507.0</ele><time>2026-04-18T16:33:25Z</time></trkpt><trkpt lat="43.41694319860369" lon="11.929511186731668"><ele>507.0</ele><time>2026-04-18T16:33:26Z</time></trkpt><trkpt lat="43.41700263437721" lon="11.929137614254909"><ele>505.5</ele><time>2026-04-18T16:33:27Z</time></trkpt><trkpt lat="43.417067592998826" lon="11.928765648798148"><ele>504.0</ele><time>2026-04-18T16:33:28Z</time></trkpt><trkpt lat="43.4171377796776" lon="11.928401088141328"><ele>490.0</ele><time>2026-04-18T16:33:29Z</time></trkpt><trkpt lat="43.41721980610948" lon="11.928048152740747"><ele>476.0</ele><time>2026-04-18T16:33:30Z</time></trkpt><trkpt lat="43.41730512767617" lon="11.927703635480384"><ele>478.0</ele><time>2026-04-18T16:33:31Z</time></trkpt><trkpt lat="43.41740675334189" lon="11.927369309688913"><ele>480.0</ele><time>2026-04-18T16:33:32Z</time></trkpt><trkpt lat="43.41752893112185" lon="11.92705398413096"><ele>480.0</ele><time>2026-04-18T16:33:33Z</time></trkpt><trkpt lat="43.41765163315264" lon="11.926734405238879"><ele>480.0</ele><time>2026-04-18T16:33:34Z</time></trkpt><trkpt lat="43.417820094734004" lon="11.92645205975107"><ele>473.0</ele><time>2026-04-18T16:33:35Z</time></trkpt><trkpt lat="43.41799147377492" lon="11.926176546866731"><ele>466.0</ele><time>2026-04-18T16:33:36Z</time></trkpt><trkpt lat="43.41817237005836" lon="11.9259159506487"><ele>470.5</ele><time>2026-04-18T16:33:37Z</time></trkpt><trkpt lat="43.41837278948253" lon="11.92567275555484"><ele>475.0</ele><time>2026-04-18T16:33:38Z</time></trkpt><trkpt lat="43.418582513486434" lon="11.925450559075411"><ele>475.0</ele><time>2026-04-18T16:33:39Z</time></trkpt><trkpt lat="43.4187958034792" lon="11.925237380730232"><ele>475.0</ele><time>2026-04-18T16:33:40Z</time></trkpt><trkpt lat="43.41900117727402" lon="11.92500893219529"><ele>477.0</ele><time>2026-04-18T16:33:40.999Z</time></trkpt><trkpt lat="43.419218384774936" lon="11.924797119850231"><ele>479.0</ele><time>2026-04-18T16:33:41.999Z</time></trkpt><trkpt lat="43.41944469338396" lon="11.924600179726822"><ele>469.0</ele><time>2026-04-18T16:33:42.999Z</time></trkpt><trkpt lat="43.419661644958055" lon="11.924385722417842"><ele>459.0</ele><time>2026-04-18T16:33:43.999Z</time></trkpt><trkpt lat="43.41987915517691" lon="11.924170752317826"><ele>457.0</ele><time>2026-04-18T16:33:44.999Z</time></trkpt><trkpt lat="43.42009731271179" lon="11.923958888430919"><ele>455.0</ele><time>2026-04-18T16:33:45.999Z</time></trkpt><trkpt lat="43.420314381970876" lon="11.923746938161512"><ele>451.5</ele><time>2026-04-18T16:33:46.999Z</time></trkpt><trkpt lat="43.42052852482144" lon="11.923535279398967"><ele>448.0</ele><time>2026-04-18T16:33:47.999Z</time></trkpt><trkpt lat="43.42074093185823" lon="11.923324549387866"><ele>448.0</ele><time>2026-04-18T16:33:48.999Z</time></trkpt><trkpt lat="43.42094524255098" lon="11.923099944950058"><ele>448.0</ele><time>2026-04-18T16:33:49.999Z</time></trkpt><trkpt lat="43.42116190577761" lon="11.922892243415511"><ele>448.0</ele><time>2026-04-18T16:33:50.999Z</time></trkpt><trkpt lat="43.42138008233656" lon="11.922684652759134"><ele>448.0</ele><time>2026-04-18T16:33:51.999Z</time></trkpt><trkpt lat="43.42160012932317" lon="11.922479416678673"><ele>453.5</ele><time>2026-04-18T16:33:52.999Z</time></trkpt><trkpt lat="43.421824673616044" lon="11.922283116453672"><ele>459.0</ele><time>2026-04-18T16:33:53.999Z</time></trkpt><trkpt lat="43.4220653728123" lon="11.922117551795047"><ele>449.0</ele><time>2026-04-18T16:33:54.999Z</time></trkpt><trkpt lat="43.42230262211569" lon="11.921938970322303"><ele>439.0</ele><time>2026-04-18T16:33:55.999Z</time></trkpt><trkpt lat="43.42254372890728" lon="11.921766141309448"><ele>439.0</ele><time>2026-04-18T16:33:56.999Z</time></trkpt><trkpt lat="43.42278849118035" lon="11.921592641035494"><ele>439.0</ele><time>2026-04-18T16:33:57.999Z</time></trkpt><trkpt lat="43.42302602653104" lon="11.921398363166567"><ele>439.0</ele><time>2026-04-18T16:33:58.999Z</time></trkpt><trkpt lat="43.423271844687335" lon="11.9212211970799"><ele>439.0</ele><time>2026-04-18T16:33:59.999Z</time></trkpt><trkpt lat="43.42352172336043" lon="11.921043929001339"><ele>441.5</ele><time>2026-04-18T16:34:00.999Z</time></trkpt><trkpt lat="43.423778710387495" lon="11.920887011815806"><ele>444.0</ele><time>2026-04-18T16:34:01.999Z</time></trkpt><trkpt lat="43.42402102075544" lon="11.920690089430197"><ele>437.5</ele><time>2026-04-18T16:34:02.999Z</time></trkpt><trkpt lat="43.424269190257455" lon="11.920520174801647"><ele>431.0</ele><time>2026-04-18T16:34:03.999Z</time></trkpt><trkpt lat="43.42451565483263" lon="11.920343292538806"><ele>431.0</ele><time>2026-04-18T16:34:04.999Z</time></trkpt><trkpt lat="43.42476125197555" lon="11.920167973842736"><ele>431.0</ele><time>2026-04-18T16:34:05.999Z</time></trkpt><trkpt lat="43.4250064847831" lon="11.919994378077263"><ele>428.5</ele><time>2026-04-18T16:34:06.999Z</time></trkpt><trkpt lat="43.42525274008383" lon="11.91981872869753"><ele>426.0</ele><time>2026-04-18T16:34:07.999Z</time></trkpt><trkpt lat="43.425497037069675" lon="11.919644600960297"><ele>426.0</ele><time>2026-04-18T16:34:08.999Z</time></trkpt><trkpt lat="43.42574259337391" lon="11.919476090643803"><ele>426.0</ele><time>2026-04-18T16:34:09.999Z</time></trkpt><trkpt lat="43.425997650228204" lon="11.91933973164637"><ele>423.0</ele><time>2026-04-18T16:34:10.999Z</time></trkpt><trkpt lat="43.42624973802807" lon="11.91920519811097"><ele>420.0</ele><time>2026-04-18T16:34:11.999Z</time></trkpt><trkpt lat="43.426508261102164" lon="11.919090035107944"><ele>420.0</ele><time>2026-04-18T16:34:12.999Z</time></trkpt><trkpt lat="43.42676990837621" lon="11.91899335841477"><ele>420.0</ele><time>2026-04-18T16:34:13.999Z</time></trkpt><trkpt lat="43.42703344020691" lon="11.918902052499684"><ele>412.5</ele><time>2026-04-18T16:34:14.999Z</time></trkpt><trkpt lat="43.42729316075646" lon="11.918791053340124"><ele>405.0</ele><time>2026-04-18T16:34:15.999Z</time></trkpt><trkpt lat="43.42755704904075" lon="11.918704308867703"><ele>405.0</ele><time>2026-04-18T16:34:16.999Z</time></trkpt><trkpt lat="43.42781577749921" lon="11.918622692774218"><ele>405.0</ele><time>2026-04-18T16:34:17.999Z</time></trkpt><trkpt lat="43.428064035372486" lon="11.918541942381857"><ele>402.5</ele><time>2026-04-18T16:34:18.999Z</time></trkpt><trkpt lat="43.42830167800777" lon="11.918458678353739"><ele>400.0</ele><time>2026-04-18T16:34:19.999Z</time></trkpt><trkpt lat="43.42852943516099" lon="11.918378221667021"><ele>402.6666666666667</ele><time>2026-04-18T16:34:20.999Z</time></trkpt><trkpt lat="43.428751469571765" lon="11.918297602713958"><ele>405.33333333333337</ele><time>2026-04-18T16:34:21.999Z</time></trkpt><trkpt lat="43.4289628139207" lon="11.918220270675674"><ele>408.0</ele><time>2026-04-18T16:34:22.999Z</time></trkpt><trkpt lat="43.429171114543145" lon="11.918131764814934"><ele>408.0</ele><time>2026-04-18T16:34:23.999Z</time></trkpt><trkpt lat="43.42936799979018" lon="11.918024697262492"><ele>408.0</ele><time>2026-04-18T16:34:24.999Z</time></trkpt><trkpt lat="43.42956093880791" lon="11.9179002160115"><ele>408.0</ele><time>2026-04-18T16:34:25.999Z</time></trkpt><trkpt lat="43.42974330390104" lon="11.917760701711122"><ele>409.0</ele><time>2026-04-18T16:34:26.999Z</time></trkpt><trkpt lat="43.429920573403244" lon="11.9176096850965"><ele>410.0</ele><time>2026-04-18T16:34:27.999Z</time></trkpt><trkpt lat="43.43009152367691" lon="11.917442063502047"><ele>411.0</ele><time>2026-04-18T16:34:28.999Z</time></trkpt><trkpt lat="43.430256768588386" lon="11.91726304951011"><ele>411.0</ele><time>2026-04-18T16:34:29.999Z</time></trkpt><trkpt lat="43.43041577655682" lon="11.917064992690754"><ele>411.0</ele><time>2026-04-18T16:34:30.999Z</time></trkpt><trkpt lat="43.430569727983766" lon="11.916850138157224"><ele>411.0</ele><time>2026-04-18T16:34:31.999Z</time></trkpt><trkpt lat="43.43071649412732" lon="11.916624521578305"><ele>412.66666666666663</ele><time>2026-04-18T16:34:32.999Z</time></trkpt><trkpt lat="43.43085385808911" lon="11.916385248196557"><ele>414.3333333333333</ele><time>2026-04-18T16:34:34Z</time></trkpt><trkpt lat="43.43097701573287" lon="11.916131059416424"><ele>416.0</ele><time>2026-04-18T16:34:35Z</time></trkpt><trkpt lat="43.43108658584748" lon="11.915868426920108"><ele>416.0</ele><time>2026-04-18T16:34:36Z</time></trkpt><trkpt lat="43.43118735259584" lon="11.9155938437546"><ele>416.0</ele><time>2026-04-18T16:34:37Z</time></trkpt><trkpt lat="43.431284844780464" lon="11.915299212531412"><ele>408.5</ele><time>2026-04-18T16:34:38Z</time></trkpt><trkpt lat="43.43138214941976" lon="11.914971149221671"><ele>401.0</ele><time>2026-04-18T16:34:39Z</time></trkpt><trkpt lat="43.43148074098308" lon="11.914625186030564"><ele>401.0</ele><time>2026-04-18T16:34:40Z</time></trkpt><trkpt lat="43.43158212116555" lon="11.914266939187891"><ele>401.0</ele><time>2026-04-18T16:34:41Z</time></trkpt><trkpt lat="43.431682021839414" lon="11.913907653436743"><ele>404.0</ele><time>2026-04-18T16:34:42Z</time></trkpt><trkpt lat="43.431778404157235" lon="11.913570446715584"><ele>407.0</ele><time>2026-04-18T16:34:43Z</time></trkpt><trkpt lat="43.43187250385138" lon="11.913267627222526"><ele>407.0</ele><time>2026-04-18T16:34:44Z</time></trkpt><trkpt lat="43.43196425790895" lon="11.91297041861896"><ele>407.0</ele><time>2026-04-18T16:34:45Z</time></trkpt><trkpt lat="43.43209428015799" lon="11.912700856200376"><ele>401.5</ele><time>2026-04-18T16:34:46Z</time></trkpt><trkpt lat="43.43221337869737" lon="11.912412412387752"><ele>396.0</ele><time>2026-04-18T16:34:47Z</time></trkpt><trkpt lat="43.432354844357384" lon="11.91214279913784"><ele>396.0</ele><time>2026-04-18T16:34:48Z</time></trkpt><trkpt lat="43.4324979032544" lon="11.911910929556791"><ele>396.0</ele><time>2026-04-18T16:34:49Z</time></trkpt><trkpt lat="43.432638284944666" lon="11.911689208851653"><ele>396.0</ele><time>2026-04-18T16:34:50Z</time></trkpt><trkpt lat="43.43278170536847" lon="11.91147977051047"><ele>396.0</ele><time>2026-04-18T16:34:51Z</time></trkpt><trkpt lat="43.432930782889095" lon="11.91129044264581"><ele>396.0</ele><time>2026-04-18T16:34:52Z</time></trkpt><trkpt lat="43.43308542293512" lon="11.911114063729844"><ele>396.0</ele><time>2026-04-18T16:34:53Z</time></trkpt><trkpt lat="43.43324812268315" lon="11.910942660279629"><ele>394.0</ele><time>2026-04-18T16:34:54Z</time></trkpt><trkpt lat="43.43341527052939" lon="11.910783708159943"><ele>392.0</ele><time>2026-04-18T16:34:55Z</time></trkpt><trkpt lat="43.43359354301973" lon="11.910623019680346"><ele>390.0</ele><time>2026-04-18T16:34:56Z</time></trkpt><trkpt lat="43.43378978941484" lon="11.910458500414558"><ele>383.5</ele><time>2026-04-18T16:34:57Z</time></trkpt><trkpt lat="43.43400149815792" lon="11.910282433482958"><ele>377.0</ele><time>2026-04-18T16:34:58Z</time></trkpt><trkpt lat="43.43421875023706" lon="11.910101593121244"><ele>378.5</ele><time>2026-04-18T16:34:59Z</time></trkpt><trkpt lat="43.4344311259001" lon="11.909924278511129"><ele>380.0</ele><time>2026-04-18T16:35:00Z</time></trkpt><trkpt lat="43.43463229492796" lon="11.909756320585325"><ele>375.6666666666667</ele><time>2026-04-18T16:35:01Z</time></trkpt><trkpt lat="43.434819307005725" lon="11.909577428980638"><ele>371.3333333333333</ele><time>2026-04-18T16:35:02Z</time></trkpt><trkpt lat="43.43500961777812" lon="11.909423497260986"><ele>367.0</ele><time>2026-04-18T16:35:03Z</time></trkpt><trkpt lat="43.43518962805063" lon="11.909261994165691"><ele>365.0</ele><time>2026-04-18T16:35:04Z</time></trkpt><trkpt lat="43.43535915659527" lon="11.909092555669565"><ele>363.0</ele><time>2026-04-18T16:35:05Z</time></trkpt><trkpt lat="43.43551370540133" lon="11.908908422066329"><ele>361.0</ele><time>2026-04-18T16:35:06Z</time></trkpt><trkpt lat="43.43565730808742" lon="11.908708230148974"><ele>361.0</ele><time>2026-04-18T16:35:07Z</time></trkpt><trkpt lat="43.43578735249359" lon="11.90849620080895"><ele>361.0</ele><time>2026-04-18T16:35:08Z</time></trkpt><trkpt lat="43.43590818588996" lon="11.908270073679756"><ele>361.0</ele><time>2026-04-18T16:35:09Z</time></trkpt><trkpt lat="43.43601422158089" lon="11.908029405511371"><ele>364.0</ele><time>2026-04-18T16:35:10Z</time></trkpt><trkpt lat="43.43610768801768" lon="11.90777680837035"><ele>367.0</ele><time>2026-04-18T16:35:11Z</time></trkpt><trkpt lat="43.43618699044077" lon="11.907513646693639"><ele>370.0</ele><time>2026-04-18T16:35:12Z</time></trkpt><trkpt lat="43.43624934451858" lon="11.90722464440932"><ele>370.5</ele><time>2026-04-18T16:35:13Z</time></trkpt><trkpt lat="43.43630826958823" lon="11.906913596876478"><ele>371.0</ele><time>2026-04-18T16:35:14Z</time></trkpt><trkpt lat="43.43639907758963" lon="11.90660050692842"><ele>371.5</ele><time>2026-04-18T16:35:15Z</time></trkpt><trkpt lat="43.43648022710388" lon="11.906256694012503"><ele>372.0</ele><time>2026-04-18T16:35:16Z</time></trkpt><trkpt lat="43.4365563055735" lon="11.905905872258256"><ele>368.5</ele><time>2026-04-18T16:35:17Z</time></trkpt><trkpt lat="43.43664562150327" lon="11.905575738806885"><ele>365.0</ele><time>2026-04-18T16:35:18Z</time></trkpt><trkpt lat="43.43671866909437" lon="11.905245518315022"><ele>358.5</ele><time>2026-04-18T16:35:19Z</time></trkpt><trkpt lat="43.43677770859381" lon="11.904914694097"><ele>352.0</ele><time>2026-04-18T16:35:20Z</time></trkpt><trkpt lat="43.43682207439489" lon="11.904586810617896"><ele>352.0</ele><time>2026-04-18T16:35:21Z</time></trkpt><trkpt lat="43.43684586155322" lon="11.904251810680465"><ele>352.0</ele><time>2026-04-18T16:35:22Z</time></trkpt><trkpt lat="43.436845786243204" lon="11.90390927524376"><ele>346.5</ele><time>2026-04-18T16:35:23Z</time></trkpt><trkpt lat="43.43683430461239" lon="11.903567009837483"><ele>341.0</ele><time>2026-04-18T16:35:24Z</time></trkpt><trkpt lat="43.436815823008814" lon="11.903226072848987"><ele>341.0</ele><time>2026-04-18T16:35:25Z</time></trkpt><trkpt lat="43.43680424946584" lon="11.90288063809591"><ele>341.0</ele><time>2026-04-18T16:35:26Z</time></trkpt><trkpt lat="43.43681638939983" lon="11.902541210126385"><ele>340.5</ele><time>2026-04-18T16:35:27Z</time></trkpt><trkpt lat="43.43684830990906" lon="11.902205713684994"><ele>340.0</ele><time>2026-04-18T16:35:28Z</time></trkpt><trkpt lat="43.43690364712189" lon="11.901879530683223"><ele>336.0</ele><time>2026-04-18T16:35:29Z</time></trkpt><trkpt lat="43.43698093825566" lon="11.901560687763716"><ele>332.0</ele><time>2026-04-18T16:35:30Z</time></trkpt><trkpt lat="43.43708042959051" lon="11.901248787436682"><ele>336.0</ele><time>2026-04-18T16:35:31Z</time></trkpt><trkpt lat="43.4372025263181" lon="11.900955379574269"><ele>340.0</ele><time>2026-04-18T16:35:32Z</time></trkpt><trkpt lat="43.43734387657324" lon="11.90067529494718"><ele>340.0</ele><time>2026-04-18T16:35:33Z</time></trkpt><trkpt lat="43.43750449988653" lon="11.900414497661817"><ele>340.0</ele><time>2026-04-18T16:35:34Z</time></trkpt><trkpt lat="43.437692397574935" lon="11.900185250225478"><ele>335.0</ele><time>2026-04-18T16:35:35Z</time></trkpt><trkpt lat="43.437888103362184" lon="11.89996772238216"><ele>330.0</ele><time>2026-04-18T16:35:36Z</time></trkpt><trkpt lat="43.438097103628884" lon="11.899773145923131"><ele>330.0</ele><time>2026-04-18T16:35:37Z</time></trkpt><trkpt lat="43.438320194094985" lon="11.899606733835524"><ele>330.0</ele><time>2026-04-18T16:35:38Z</time></trkpt><trkpt lat="43.43855566470427" lon="11.899464705405304"><ele>331.0</ele><time>2026-04-18T16:35:39Z</time></trkpt><trkpt lat="43.43880178299799" lon="11.89935504810367"><ele>332.0</ele><time>2026-04-18T16:35:40Z</time></trkpt><trkpt lat="43.4390567261947" lon="11.899286770942323"><ele>332.0</ele><time>2026-04-18T16:35:41Z</time></trkpt><trkpt lat="43.43931696052787" lon="11.89925547585478"><ele>332.0</ele><time>2026-04-18T16:35:42Z</time></trkpt><trkpt lat="43.43958321196492" lon="11.899241777585997"><ele>330.0</ele><time>2026-04-18T16:35:43Z</time></trkpt><trkpt lat="43.43984810274254" lon="11.899216620296103"><ele>328.0</ele><time>2026-04-18T16:35:44Z</time></trkpt><trkpt lat="43.44011346905233" lon="11.899212656797728"><ele>328.0</ele><time>2026-04-18T16:35:45Z</time></trkpt><trkpt lat="43.440380256412" lon="11.899213200728177"><ele>328.0</ele><time>2026-04-18T16:35:46Z</time></trkpt><trkpt lat="43.44064486455535" lon="11.899163155195895"><ele>326.5</ele><time>2026-04-18T16:35:47Z</time></trkpt><trkpt lat="43.44090062344" lon="11.8990619899103"><ele>325.0</ele><time>2026-04-18T16:35:48Z</time></trkpt><trkpt lat="43.4411491590195" lon="11.898950543495124"><ele>325.0</ele><time>2026-04-18T16:35:49Z</time></trkpt><trkpt lat="43.44138486577123" lon="11.898800172058428"><ele>325.0</ele><time>2026-04-18T16:35:50Z</time></trkpt><trkpt lat="43.44160932381103" lon="11.898625103871524"><ele>325.0</ele><time>2026-04-18T16:35:51Z</time></trkpt><trkpt lat="43.441817767540826" lon="11.89841987910923"><ele>325.0</ele><time>2026-04-18T16:35:52Z</time></trkpt><trkpt lat="43.44200780906414" lon="11.898183960803113"><ele>323.5</ele><time>2026-04-18T16:35:53Z</time></trkpt><trkpt lat="43.44218504092294" lon="11.897935345054071"><ele>322.0</ele><time>2026-04-18T16:35:54Z</time></trkpt><trkpt lat="43.442342123296655" lon="11.897665899043284"><ele>318.5</ele><time>2026-04-18T16:35:55Z</time></trkpt><trkpt lat="43.44247854622724" lon="11.897377832416112"><ele>315.0</ele><time>2026-04-18T16:35:56Z</time></trkpt><trkpt lat="43.44259307194545" lon="11.897075165056325"><ele>315.0</ele><time>2026-04-18T16:35:56.999Z</time></trkpt><trkpt lat="43.44268346019345" lon="11.89676132926402"><ele>315.0</ele><time>2026-04-18T16:35:57.999Z</time></trkpt><trkpt lat="43.442752192975036" lon="11.896439484999641"><ele>310.5</ele><time>2026-04-18T16:35:58.999Z</time></trkpt><trkpt lat="43.44280262664779" lon="11.896113812005746"><ele>306.0</ele><time>2026-04-18T16:35:59.999Z</time></trkpt><trkpt lat="43.44284410323546" lon="11.895779439075696"><ele>303.5</ele><time>2026-04-18T16:36:00.999Z</time></trkpt><trkpt lat="43.44288590413614" lon="11.895443572630127"><ele>301.0</ele><time>2026-04-18T16:36:01.999Z</time></trkpt><trkpt lat="43.442934567647406" lon="11.895105739111141"><ele>306.5</ele><time>2026-04-18T16:36:02.999Z</time></trkpt><trkpt lat="43.442989066626275" lon="11.894766649418102"><ele>312.0</ele><time>2026-04-18T16:36:03.999Z</time></trkpt><trkpt lat="43.44304779011009" lon="11.894430215374156"><ele>307.5</ele><time>2026-04-18T16:36:04.999Z</time></trkpt><trkpt lat="43.443103008047956" lon="11.894109662630562"><ele>303.0</ele><time>2026-04-18T16:36:05.999Z</time></trkpt><trkpt lat="43.443156482995384" lon="11.893810485531455"><ele>303.0</ele><time>2026-04-18T16:36:06.999Z</time></trkpt><trkpt lat="43.4432039472817" lon="11.893533524574785"><ele>303.0</ele><time>2026-04-18T16:36:07.999Z</time></trkpt><trkpt lat="43.443246869270595" lon="11.89326871959813"><ele>303.0</ele><time>2026-04-18T16:36:08.999Z</time></trkpt><trkpt lat="43.44328826020031" lon="11.893025353067404"><ele>299.6666666666667</ele><time>2026-04-18T16:36:09.999Z</time></trkpt><trkpt lat="43.443326933122655" lon="11.892799169534934"><ele>296.33333333333337</ele><time>2026-04-18T16:36:10.999Z</time></trkpt><trkpt lat="43.443361839244915" lon="11.892586502823727"><ele>293.0</ele><time>2026-04-18T16:36:11.999Z</time></trkpt><trkpt lat="43.4433911496896" lon="11.892386922633952"><ele>291.25</ele><time>2026-04-18T16:36:12.999Z</time></trkpt><trkpt lat="43.4434169581855" lon="11.892203490358549"><ele>289.5</ele><time>2026-04-18T16:36:13.999Z</time></trkpt><trkpt lat="43.44343896880378" lon="11.892039554892916"><ele>287.75</ele><time>2026-04-18T16:36:14.999Z</time></trkpt><trkpt lat="43.44345823453886" lon="11.891893862103501"><ele>286.0</ele><time>2026-04-18T16:36:15.999Z</time></trkpt><trkpt lat="43.4434813324143" lon="11.891766878945138"><ele>286.0</ele><time>2026-04-18T16:36:16.999Z</time></trkpt><trkpt lat="43.443519142299344" lon="11.891659518033492"><ele>286.0</ele><time>2026-04-18T16:36:17.999Z</time></trkpt><trkpt lat="43.44359577996974" lon="11.891596971113774"><ele>286.0</ele><time>2026-04-18T16:36:18.999Z</time></trkpt><trkpt lat="43.443699585827446" lon="11.891586829657077"><ele>286.0</ele><time>2026-04-18T16:36:19.998Z</time></trkpt><trkpt lat="43.44379642466125" lon="11.891626296925393"><ele>286.0</ele><time>2026-04-18T16:36:20.998Z</time></trkpt><trkpt lat="43.44387285132701" lon="11.891725279630888"><ele>285.75</ele><time>2026-04-18T16:36:21.998Z</time></trkpt><trkpt lat="43.443918150130315" lon="11.891868078878321"><ele>285.5</ele><time>2026-04-18T16:36:22.998Z</time></trkpt><trkpt lat="43.44392479604581" lon="11.89203195460554"><ele>285.25</ele><time>2026-04-18T16:36:23.998Z</time></trkpt><trkpt lat="43.443957425764395" lon="11.89217434855626"><ele>285.0</ele><time>2026-04-18T16:36:24.998Z</time></trkpt><trkpt lat="43.44385212885301" lon="11.892306390026569"><ele>285.25</ele><time>2026-04-18T16:36:25.998Z</time></trkpt><trkpt lat="43.44376896480786" lon="11.892402310323197"><ele>285.5</ele><time>2026-04-18T16:36:26.998Z</time></trkpt><trkpt lat="43.44369213149997" lon="11.892499424781244"><ele>285.75</ele><time>2026-04-18T16:36:27.998Z</time></trkpt><trkpt lat="43.443616964604516" lon="11.892581510906846"><ele>286.0</ele><time>2026-04-18T16:36:28.998Z</time></trkpt><trkpt lat="43.44347545913873" lon="11.892571688888427"><ele>286.75</ele><time>2026-04-18T16:36:29.998Z</time></trkpt><trkpt lat="43.443348522681326" lon="11.892595282893897"><ele>287.5</ele><time>2026-04-18T16:36:30.998Z</time></trkpt><trkpt lat="43.44320885535478" lon="11.89262519982117"><ele>288.25</ele><time>2026-04-18T16:36:31.998Z</time></trkpt><trkpt lat="43.443068375168885" lon="11.892655473076179"><ele>289.0</ele><time>2026-04-18T16:36:32.998Z</time></trkpt><trkpt lat="43.442931351315465" lon="11.892707520564878"><ele>289.0</ele><time>2026-04-18T16:36:33.998Z</time></trkpt><trkpt lat="43.44278902120312" lon="11.892817206049948"><ele>289.0</ele><time>2026-04-18T16:36:34.998Z</time></trkpt><trkpt lat="43.44264627992308" lon="11.89292270144276"><ele>289.0</ele><time>2026-04-18T16:36:35.998Z</time></trkpt><trkpt lat="43.44250389415385" lon="11.89301319311024"><ele>289.0</ele><time>2026-04-18T16:36:36.998Z</time></trkpt><trkpt lat="43.442352408472196" lon="11.89308842388527"><ele>289.0</ele><time>2026-04-18T16:36:37.998Z</time></trkpt><trkpt lat="43.44219569487326" lon="11.893161241439461"><ele>289.0</ele><time>2026-04-18T16:36:38.998Z</time></trkpt><trkpt lat="43.44203126997074" lon="11.893197307093132"><ele>288.3333333333333</ele><time>2026-04-18T16:36:40Z</time></trkpt><trkpt lat="43.4418683826024" lon="11.893236033307938"><ele>287.6666666666667</ele><time>2026-04-18T16:36:41Z</time></trkpt><trkpt lat="43.441702230138446" lon="11.89326803271233"><ele>287.0</ele><time>2026-04-18T16:36:42Z</time></trkpt><trkpt lat="43.441537553557275" lon="11.89330469064102"><ele>287.0</ele><time>2026-04-18T16:36:43Z</time></trkpt><trkpt lat="43.44136780324479" lon="11.893320805562684"><ele>287.0</ele><time>2026-04-18T16:36:44Z</time></trkpt><trkpt lat="43.441203101376225" lon="11.893289012252579"><ele>287.0</ele><time>2026-04-18T16:36:45Z</time></trkpt><trkpt lat="43.44103057645915" lon="11.893273840761912"><ele>285.0</ele><time>2026-04-18T16:36:46Z</time></trkpt><trkpt lat="43.440861476918066" lon="11.893264293972114"><ele>283.0</ele><time>2026-04-18T16:36:47Z</time></trkpt><trkpt lat="43.44069263347789" lon="11.89327284576335"><ele>281.0</ele><time>2026-04-18T16:36:48Z</time></trkpt><trkpt lat="43.440524946213074" lon="11.893276628131854"><ele>279.0</ele><time>2026-04-18T16:36:49Z</time></trkpt><trkpt lat="43.44035917670626" lon="11.89328383028834"><ele>277.0</ele><time>2026-04-18T16:36:50Z</time></trkpt><trkpt lat="43.440185700494105" lon="11.893302476280489"><ele>275.0</ele><time>2026-04-18T16:36:51Z</time></trkpt><trkpt lat="43.4400110922046" lon="11.893333598617222"><ele>275.0</ele><time>2026-04-18T16:36:52Z</time></trkpt><trkpt lat="43.439839791467755" lon="11.893387119211653"><ele>275.0</ele><time>2026-04-18T16:36:53Z</time></trkpt><trkpt lat="43.43967019706169" lon="11.8934469541885"><ele>275.0</ele><time>2026-04-18T16:36:54Z</time></trkpt><trkpt lat="43.43949781473268" lon="11.893499843721772"><ele>275.6666666666667</ele><time>2026-04-18T16:36:55Z</time></trkpt><trkpt lat="43.43932289760011" lon="11.89355663521164"><ele>276.3333333333333</ele><time>2026-04-18T16:36:56Z</time></trkpt><trkpt lat="43.43914511529824" lon="11.893595950299556"><ele>277.0</ele><time>2026-04-18T16:36:57Z</time></trkpt><trkpt lat="43.438966982624436" lon="11.89357876976353"><ele>276.66666666666663</ele><time>2026-04-18T16:36:58Z</time></trkpt><trkpt lat="43.43878811277063" lon="11.893572450610325"><ele>276.3333333333333</ele><time>2026-04-18T16:36:59Z</time></trkpt><trkpt lat="43.43861619675694" lon="11.89359921765911"><ele>276.0</ele><time>2026-04-18T16:37:00Z</time></trkpt><trkpt lat="43.43845590696494" lon="11.893615278805628"><ele>276.0</ele><time>2026-04-18T16:37:01Z</time></trkpt><trkpt lat="43.43830229014972" lon="11.893641456307302"><ele>276.0</ele><time>2026-04-18T16:37:02Z</time></trkpt><trkpt lat="43.43815163758865" lon="11.893668119241694"><ele>276.0</ele><time>2026-04-18T16:37:03Z</time></trkpt><trkpt lat="43.43800393929315" lon="11.893662384669396"><ele>277.0</ele><time>2026-04-18T16:37:04Z</time></trkpt><trkpt lat="43.437867362657975" lon="11.89362207084533"><ele>278.0</ele><time>2026-04-18T16:37:05Z</time></trkpt><trkpt lat="43.43774360884653" lon="11.893576512736493"><ele>279.0</ele><time>2026-04-18T16:37:06Z</time></trkpt><trkpt lat="43.4376189359021" lon="11.89351490693861"><ele>280.0</ele><time>2026-04-18T16:37:07Z</time></trkpt><trkpt lat="43.43750669617818" lon="11.89346259892111"><ele>280.0</ele><time>2026-04-18T16:37:08Z</time></trkpt><trkpt lat="43.437408699756325" lon="11.893432442591454"><ele>280.0</ele><time>2026-04-18T16:37:09Z</time></trkpt><trkpt lat="43.43733834796251" lon="11.893387005624854"><ele>280.0</ele><time>2026-04-18T16:37:09.999Z</time></trkpt><trkpt lat="43.4372507547782" lon="11.89335129295746"><ele>280.0</ele><time>2026-04-18T16:37:11.999Z</time></trkpt><trkpt lat="43.43718560374086" lon="11.893326423225798"><ele>280.0</ele><time>2026-04-18T16:37:13.999Z</time></trkpt><trkpt lat="43.43711311462662" lon="11.89331155562312"><ele>280.0</ele><time>2026-04-18T16:37:14.999Z</time></trkpt><trkpt lat="43.437008781652075" lon="11.893287494728156"><ele>278.75</ele><time>2026-04-18T16:37:15.999Z</time></trkpt><trkpt lat="43.436878787481696" lon="11.893260364798143"><ele>277.5</ele><time>2026-04-18T16:37:16.999Z</time></trkpt><trkpt lat="43.436747786227734" lon="11.893256687613876"><ele>276.25</ele><time>2026-04-18T16:37:17.999Z</time></trkpt><trkpt lat="43.43659373446631" lon="11.893253132820023"><ele>275.0</ele><time>2026-04-18T16:37:18.999Z</time></trkpt><trkpt lat="43.43644824278436" lon="11.893200210746189"><ele>274.6666666666667</ele><time>2026-04-18T16:37:19.999Z</time></trkpt><trkpt lat="43.43630202811677" lon="11.893150107056362"><ele>274.3333333333333</ele><time>2026-04-18T16:37:20.999Z</time></trkpt><trkpt lat="43.43615756071601" lon="11.893093594513715"><ele>274.0</ele><time>2026-04-18T16:37:21.999Z</time></trkpt><trkpt lat="43.43600941699264" lon="11.893055553333301"><ele>274.0</ele><time>2026-04-18T16:37:22.999Z</time></trkpt><trkpt lat="43.43586688266193" lon="11.892994887829824"><ele>274.0</ele><time>2026-04-18T16:37:23.999Z</time></trkpt><trkpt lat="43.43572958322907" lon="11.892923740511398"><ele>274.0</ele><time>2026-04-18T16:37:24.999Z</time></trkpt><trkpt lat="43.43558358002685" lon="11.892869260745332"><ele>274.0</ele><time>2026-04-18T16:37:25.999Z</time></trkpt><trkpt lat="43.43544118174646" lon="11.89281874040977"><ele>274.25</ele><time>2026-04-18T16:37:26.999Z</time></trkpt><trkpt lat="43.43531299094478" lon="11.892775269397818"><ele>274.5</ele><time>2026-04-18T16:37:27.999Z</time></trkpt><trkpt lat="43.4352003846186" lon="11.89273648858342"><ele>274.75</ele><time>2026-04-18T16:37:28.999Z</time></trkpt><trkpt lat="43.43508551673028" lon="11.89271560666513"><ele>275.0</ele><time>2026-04-18T16:37:29.999Z</time></trkpt><trkpt lat="43.434981520321315" lon="11.892671963093646"><ele>275.0</ele><time>2026-04-18T16:37:30.999Z</time></trkpt><trkpt lat="43.43488108676554" lon="11.892629636506426"><ele>275.0</ele><time>2026-04-18T16:37:31.999Z</time></trkpt><trkpt lat="43.43479972153154" lon="11.89261161134137"><ele>275.0</ele><time>2026-04-18T16:37:32.999Z</time></trkpt><trkpt lat="43.434719839763794" lon="11.89258732895912"><ele>275.0</ele><time>2026-04-18T16:37:33.999Z</time></trkpt><trkpt lat="43.43463193123099" lon="11.89248832656198"><ele>275.0</ele><time>2026-04-18T16:37:35.999Z</time></trkpt><trkpt lat="43.434667253800605" lon="11.892415336779658"><ele>275.0</ele><time>2026-04-18T16:37:37.999Z</time></trkpt><trkpt lat="43.43472199843121" lon="11.892372318873832"><ele>274.8</ele><time>2026-04-18T16:37:38.999Z</time></trkpt><trkpt lat="43.43479250421573" lon="11.892323143786742"><ele>274.6</ele><time>2026-04-18T16:37:40.999Z</time></trkpt><trkpt lat="43.43466584696038" lon="11.892164851078691"><ele>274.4</ele><time>2026-04-18T16:37:42.999Z</time></trkpt><trkpt lat="43.434593815799516" lon="11.892103643776794"><ele>274.2</ele><time>2026-04-18T16:37:43.999Z</time></trkpt><trkpt lat="43.434532576298025" lon="11.892024737793257"><ele>274.0</ele><time>2026-04-18T16:37:44.999Z</time></trkpt><trkpt lat="43.43443095497221" lon="11.891951002695288"><ele>274.5</ele><time>2026-04-18T16:37:45.999Z</time></trkpt><trkpt lat="43.43432842969091" lon="11.89185883641205"><ele>275.0</ele><time>2026-04-18T16:37:46.999Z</time></trkpt><trkpt lat="43.43421708741792" lon="11.891769497503768"><ele>275.5</ele><time>2026-04-18T16:37:47.999Z</time></trkpt><trkpt lat="43.43409191649155" lon="11.891640178897836"><ele>276.0</ele><time>2026-04-18T16:37:48.999Z</time></trkpt><trkpt lat="43.43397358092828" lon="11.8915389307157"><ele>276.0</ele><time>2026-04-18T16:37:49.999Z</time></trkpt><trkpt lat="43.433844718070546" lon="11.891418685535479"><ele>276.0</ele><time>2026-04-18T16:37:50.999Z</time></trkpt><trkpt lat="43.43371359122437" lon="11.891280678001715"><ele>276.0</ele><time>2026-04-18T16:37:51.999Z</time></trkpt><trkpt lat="43.43357144960803" lon="11.89113895985143"><ele>276.25</ele><time>2026-04-18T16:37:52.999Z</time></trkpt><trkpt lat="43.43343801941996" lon="11.89101962730439"><ele>276.5</ele><time>2026-04-18T16:37:53.999Z</time></trkpt><trkpt lat="43.43330931373035" lon="11.89092431728438"><ele>276.75</ele><time>2026-04-18T16:37:54.999Z</time></trkpt><trkpt lat="43.433201500992034" lon="11.89080912224078"><ele>277.0</ele><time>2026-04-18T16:37:55.999Z</time></trkpt><trkpt lat="43.433096278701925" lon="11.890700509431777"><ele>277.5</ele><time>2026-04-18T16:37:56.999Z</time></trkpt><trkpt lat="43.43300634490606" lon="11.890577708261935"><ele>278.0</ele><time>2026-04-18T16:37:57.999Z</time></trkpt><trkpt lat="43.432909168424324" lon="11.890477386246095"><ele>278.5</ele><time>2026-04-18T16:37:58.999Z</time></trkpt><trkpt lat="43.43281249895909" lon="11.8903880102099"><ele>279.0</ele><time>2026-04-18T16:37:59.999Z</time></trkpt><trkpt lat="43.43271528836945" lon="11.890308189240459"><ele>279.2</ele><time>2026-04-18T16:38:00.999Z</time></trkpt><trkpt lat="43.43261834640009" lon="11.890234072625882"><ele>279.4</ele><time>2026-04-18T16:38:01.999Z</time></trkpt><trkpt lat="43.43252036214839" lon="11.890169638086864"><ele>279.6</ele><time>2026-04-18T16:38:02.999Z</time></trkpt><trkpt lat="43.43242530710668" lon="11.890118853359914"><ele>279.8</ele><time>2026-04-18T16:38:03.999Z</time></trkpt><trkpt lat="43.43234475962221" lon="11.890041014195061"><ele>280.0</ele><time>2026-04-18T16:38:04.999Z</time></trkpt><trkpt lat="43.4322664666268" lon="11.889952668508178"><ele>280.0</ele><time>2026-04-18T16:38:05.999Z</time></trkpt><trkpt lat="43.432185531090845" lon="11.889869525474241"><ele>280.0</ele><time>2026-04-18T16:38:06.999Z</time></trkpt><trkpt lat="43.43210091905257" lon="11.889792695774226"><ele>280.0</ele><time>2026-04-18T16:38:07.999Z</time></trkpt><trkpt lat="43.43201291634663" lon="11.889721396846943"><ele>280.0</ele><time>2026-04-18T16:38:08.999Z</time></trkpt><trkpt lat="43.43192311648605" lon="11.889657771210292"><ele>280.0</ele><time>2026-04-18T16:38:09.999Z</time></trkpt><trkpt lat="43.431838548779936" lon="11.8895753594017"><ele>280.75</ele><time>2026-04-18T16:38:10.999Z</time></trkpt><trkpt lat="43.4317303146402" lon="11.889537569111848"><ele>281.5</ele><time>2026-04-18T16:38:11.999Z</time></trkpt><trkpt lat="43.43162310918863" lon="11.889471691274162"><ele>282.25</ele><time>2026-04-18T16:38:12.999Z</time></trkpt><trkpt lat="43.431501923793164" lon="11.88939899338591"><ele>283.0</ele><time>2026-04-18T16:38:13.999Z</time></trkpt><trkpt lat="43.43137230128885" lon="11.889325787264346"><ele>283.4</ele><time>2026-04-18T16:38:14.999Z</time></trkpt><trkpt lat="43.43125012452558" lon="11.889252401217876"><ele>283.8</ele><time>2026-04-18T16:38:15.999Z</time></trkpt><trkpt lat="43.43114352059332" lon="11.889178899953802"><ele>284.2</ele><time>2026-04-18T16:38:16.999Z</time></trkpt><trkpt lat="43.431040247432534" lon="11.889152912971799"><ele>284.6</ele><time>2026-04-18T16:38:17.999Z</time></trkpt><trkpt lat="43.430956482506275" lon="11.889112487465981"><ele>285.0</ele><time>2026-04-18T16:38:18.999Z</time></trkpt><trkpt lat="43.43088817764392" lon="11.889087524704717"><ele>285.0</ele><time>2026-04-18T16:38:19.999Z</time></trkpt><trkpt lat="43.43080040638609" lon="11.889026963797182"><ele>285.0</ele><time>2026-04-18T16:38:21.999Z</time></trkpt><trkpt lat="43.43072978371637" lon="11.88920457123567"><ele>285.0</ele><time>2026-04-18T16:38:22.999Z</time></trkpt><trkpt lat="43.430690508628146" lon="11.889302932075974"><ele>285.0</ele><time>2026-04-18T16:38:23.999Z</time></trkpt><trkpt lat="43.430651488747024" lon="11.889396056541496"><ele>285.0</ele><time>2026-04-18T16:38:24.999Z</time></trkpt><trkpt lat="43.43061761223752" lon="11.88948970413523"><ele>285.0</ele><time>2026-04-18T16:38:25.999Z</time></trkpt><trkpt lat="43.43057088462284" lon="11.889639723091955"><ele>285.0</ele><time>2026-04-18T16:38:27.999Z</time></trkpt><trkpt lat="43.430532076391145" lon="11.889709562247894"><ele>285.0</ele><time>2026-04-18T16:38:28.999Z</time></trkpt><trkpt lat="43.43049708471362" lon="11.88980688501561"><ele>285.0</ele><time>2026-04-18T16:38:29.999Z</time></trkpt><trkpt lat="43.43046271764405" lon="11.889902470758472"><ele>285.0</ele><time>2026-04-18T16:38:30.999Z</time></trkpt><trkpt lat="43.430430365711075" lon="11.889987710497001"><ele>285.0</ele><time>2026-04-18T16:38:31.999Z</time></trkpt><trkpt lat="43.43039923535095" lon="11.890064998739575"><ele>285.6</ele><time>2026-04-18T16:38:32.999Z</time></trkpt><trkpt lat="43.43037423808325" lon="11.890169432046095"><ele>286.2</ele><time>2026-04-18T16:38:34.999Z</time></trkpt><trkpt lat="43.430319486729374" lon="11.890232622832293"><ele>286.8</ele><time>2026-04-18T16:38:38.999Z</time></trkpt><trkpt lat="43.43028457074987" lon="11.890306111834722"><ele>287.4</ele><time>2026-04-18T16:38:40.999Z</time></trkpt><trkpt lat="43.43021473593898" lon="11.890372641707321"><ele>288.0</ele><time>2026-04-18T16:38:43.999Z</time></trkpt><trkpt lat="43.42981985746305" lon="11.890493873188866"><ele>288.0</ele><time>2026-04-18T16:38:47Z</time></trkpt><trkpt lat="43.43010575777586" lon="11.890050547464222"><ele>288.0</ele><time>2026-04-18T16:38:52Z</time></trkpt><trkpt lat="43.43017398152191" lon="11.890048429594263"><ele>288.0</ele><time>2026-04-18T16:39:01Z</time></trkpt><trkpt lat="43.430082313614115" lon="11.890109873880073"><ele>288.0</ele><time>2026-04-18T16:40:03.999Z</time></trkpt></trkseg></trk></gpx>